<?xml version='1.0' encoding='UTF-8'?><gpx version="1.1" creator="JPX - https://github.com/jenetics/jpx" xmlns="http://www.topografix.com/GPX/1/1"><trk><trkseg><trkpt lat="44.3311405" lon="7.4887358"><ele>639.0000000000001</ele><time>2026-05-03T15:13:06.1Z</time></trkpt><trkpt lat="44.3310733" lon="7.4887281"><ele>639.0</ele><time>2026-05-03T15:14:21.1Z</time></trkpt><trkpt lat="44.3311324" lon="7.4887612"><ele>639.0</ele><time>2026-05-03T15:14:51.1Z</time></trkpt><trkpt lat="44.3310595" lon="7.488807"><ele>639.0</ele><time>2026-05-03T15:14:58.04Z</time></trkpt><trkpt lat="44.3310009" lon="7.488743"><ele>639.0</ele><time>2026-05-03T15:15:15.1Z</time></trkpt><trkpt lat="44.330922" lon="7.4887088"><ele>639.0000000000001</ele><time>2026-05-03T15:15:19.1Z</time></trkpt><trkpt lat="44.3308629" lon="7.488674"><ele>639.0</ele><time>2026-05-03T15:15:21.1Z</time></trkpt><trkpt lat="44.3307666" lon="7.4886633"><ele>639.0</ele><time>2026-05-03T15:15:24.1Z</time></trkpt><trkpt lat="44.3306903" lon="7.4886306"><ele>639.0</ele><time>2026-05-03T15:15:25.1Z</time></trkpt><trkpt lat="44.330605" lon="7.4885838"><ele>639.0</ele><time>2026-05-03T15:15:26.1Z</time></trkpt><trkpt lat="44.3305213" lon="7.4885581"><ele>639.0</ele><time>2026-05-03T15:15:27.1Z</time></trkpt><trkpt lat="44.3304496" lon="7.4885401"><ele>639.0</ele><time>2026-05-03T15:15:28.099Z</time></trkpt><trkpt lat="44.3303859" lon="7.4885272"><ele>639.0</ele><time>2026-05-03T15:15:29.1Z</time></trkpt><trkpt lat="44.3303166" lon="7.4885079"><ele>639.0</ele><time>2026-05-03T15:15:30.1Z</time></trkpt><trkpt lat="44.3302461" lon="7.4884884"><ele>639.0</ele><time>2026-05-03T15:15:31.1Z</time></trkpt><trkpt lat="44.3301789" lon="7.4884633"><ele>639.0</ele><time>2026-05-03T15:15:32.1Z</time></trkpt><trkpt lat="44.3300666" lon="7.488498"><ele>639.0</ele><time>2026-05-03T15:15:34.1Z</time></trkpt><trkpt lat="44.3299987" lon="7.488518"><ele>639.0</ele><time>2026-05-03T15:15:35.1Z</time></trkpt><trkpt lat="44.3299162" lon="7.4885561"><ele>639.0</ele><time>2026-05-03T15:15:37.1Z</time></trkpt><trkpt lat="44.3298421" lon="7.4885539"><ele>639.0</ele><time>2026-05-03T15:15:39.1Z</time></trkpt><trkpt lat="44.3297693" lon="7.4885648"><ele>639.0</ele><time>2026-05-03T15:15:41.1Z</time></trkpt><trkpt lat="44.3297373" lon="7.4884443"><ele>639.0</ele><time>2026-05-03T15:15:44.099Z</time></trkpt><trkpt lat="44.3297319" lon="7.4883221"><ele>639.0</ele><time>2026-05-03T15:15:46.1Z</time></trkpt><trkpt lat="44.3297354" lon="7.488168"><ele>639.0</ele><time>2026-05-03T15:15:48.1Z</time></trkpt><trkpt lat="44.3297808" lon="7.4880397"><ele>639.0</ele><time>2026-05-03T15:15:50.1Z</time></trkpt><trkpt lat="44.3298588" lon="7.4879277"><ele>639.0</ele><time>2026-05-03T15:15:52.1Z</time></trkpt><trkpt lat="44.3299455" lon="7.4878729"><ele>639.0</ele><time>2026-05-03T15:15:53.1Z</time></trkpt><trkpt lat="44.3299278" lon="7.4877255"><ele>639.0</ele><time>2026-05-03T15:15:55.099Z</time></trkpt><trkpt lat="44.3299296" lon="7.4876066"><ele>639.0</ele><time>2026-05-03T15:15:57.1Z</time></trkpt><trkpt lat="44.3299493" lon="7.4875144"><ele>639.0</ele><time>2026-05-03T15:15:59.1Z</time></trkpt><trkpt lat="44.3299563" lon="7.4873659"><ele>639.0</ele><time>2026-05-03T15:16:01.1Z</time></trkpt><trkpt lat="44.3299747" lon="7.4872703"><ele>639.0</ele><time>2026-05-03T15:16:03.1Z</time></trkpt><trkpt lat="44.3299111" lon="7.4872474"><ele>639.0</ele><time>2026-05-03T15:16:14.099Z</time></trkpt><trkpt lat="44.3298468" lon="7.4872597"><ele>639.0</ele><time>2026-05-03T15:16:21.1Z</time></trkpt><trkpt lat="44.3299208" lon="7.487275"><ele>639.0</ele><time>2026-05-03T15:18:03.1Z</time></trkpt><trkpt lat="44.3299708" lon="7.4871553"><ele>639.1666666666666</ele><time>2026-05-03T15:18:53.098Z</time></trkpt><trkpt lat="44.3300072" lon="7.4870244"><ele>639.3333333333334</ele><time>2026-05-03T15:18:55.098Z</time></trkpt><trkpt lat="44.3300126" lon="7.4869258"><ele>639.5</ele><time>2026-05-03T15:18:56.098Z</time></trkpt><trkpt lat="44.330013" lon="7.4867797"><ele>639.6666666666667</ele><time>2026-05-03T15:18:58.098Z</time></trkpt><trkpt lat="44.3299937" lon="7.4866353"><ele>639.8333333333334</ele><time>2026-05-03T15:19:00.098Z</time></trkpt><trkpt lat="44.330001" lon="7.4865398"><ele>640.0</ele><time>2026-05-03T15:19:01.098Z</time></trkpt><trkpt lat="44.330015" lon="7.4863618"><ele>640.0</ele><time>2026-05-03T15:19:03.098Z</time></trkpt><trkpt lat="44.3300154" lon="7.4862649"><ele>640.0</ele><time>2026-05-03T15:19:04.098Z</time></trkpt><trkpt lat="44.3300223" lon="7.4860894"><ele>640.0</ele><time>2026-05-03T15:19:06.098Z</time></trkpt><trkpt lat="44.3300352" lon="7.4859975"><ele>640.0</ele><time>2026-05-03T15:19:07.098Z</time></trkpt><trkpt lat="44.3300474" lon="7.4858926"><ele>640.0</ele><time>2026-05-03T15:19:08.098Z</time></trkpt><trkpt lat="44.3300491" lon="7.48579"><ele>640.0</ele><time>2026-05-03T15:19:09.098Z</time></trkpt><trkpt lat="44.3300544" lon="7.4856929"><ele>639.8333333333334</ele><time>2026-05-03T15:19:10.098Z</time></trkpt><trkpt lat="44.3300787" lon="7.4856112"><ele>639.6666666666667</ele><time>2026-05-03T15:19:11.098Z</time></trkpt><trkpt lat="44.3301138" lon="7.4855167"><ele>639.5</ele><time>2026-05-03T15:19:12.098Z</time></trkpt><trkpt lat="44.3301056" lon="7.4854123"><ele>639.3333333333334</ele><time>2026-05-03T15:19:13.098Z</time></trkpt><trkpt lat="44.3301228" lon="7.4852708"><ele>639.1666666666666</ele><time>2026-05-03T15:19:15.098Z</time></trkpt><trkpt lat="44.3301289" lon="7.4851271"><ele>639.0</ele><time>2026-05-03T15:19:17.098Z</time></trkpt><trkpt lat="44.33009" lon="7.4850387"><ele>639.3333333333334</ele><time>2026-05-03T15:19:20.098Z</time></trkpt><trkpt lat="44.3300939" lon="7.4849382"><ele>639.6666666666666</ele><time>2026-05-03T15:19:22.098Z</time></trkpt><trkpt lat="44.3300906" lon="7.4848323"><ele>640.0</ele><time>2026-05-03T15:19:24.098Z</time></trkpt><trkpt lat="44.3300967" lon="7.4847082"><ele>640.3333333333333</ele><time>2026-05-03T15:19:27.097Z</time></trkpt><trkpt lat="44.3301295" lon="7.4845883"><ele>640.6666666666666</ele><time>2026-05-03T15:19:30.098Z</time></trkpt><trkpt lat="44.3301771" lon="7.4845242"><ele>641.0</ele><time>2026-05-03T15:19:33.098Z</time></trkpt><trkpt lat="44.3302505" lon="7.4845894"><ele>641.0</ele><time>2026-05-03T15:19:36.098Z</time></trkpt><trkpt lat="44.3303911" lon="7.4848249"><ele>641.0</ele><time>2026-05-03T15:19:38.098Z</time></trkpt><trkpt lat="44.3304191" lon="7.4849042"><ele>641.0</ele><time>2026-05-03T15:19:39.098Z</time></trkpt><trkpt lat="44.3304487" lon="7.4849956"><ele>641.0</ele><time>2026-05-03T15:19:40.097Z</time></trkpt><trkpt lat="44.330481" lon="7.485076"><ele>641.0</ele><time>2026-05-03T15:19:41.098Z</time></trkpt><trkpt lat="44.3305159" lon="7.4851844"><ele>641.0</ele><time>2026-05-03T15:19:42.098Z</time></trkpt><trkpt lat="44.3305416" lon="7.4852733"><ele>641.0</ele><time>2026-05-03T15:19:43.098Z</time></trkpt><trkpt lat="44.3306021" lon="7.4853761"><ele>641.0</ele><time>2026-05-03T15:19:44.097Z</time></trkpt><trkpt lat="44.3306373" lon="7.4854686"><ele>641.0</ele><time>2026-05-03T15:19:45.097Z</time></trkpt><trkpt lat="44.330684" lon="7.4855682"><ele>641.0</ele><time>2026-05-03T15:19:46.098Z</time></trkpt><trkpt lat="44.3307102" lon="7.4856687"><ele>641.0</ele><time>2026-05-03T15:19:47.098Z</time></trkpt><trkpt lat="44.330737" lon="7.4857541"><ele>641.0</ele><time>2026-05-03T15:19:48.097Z</time></trkpt><trkpt lat="44.3307921" lon="7.4858935"><ele>641.0</ele><time>2026-05-03T15:19:50.098Z</time></trkpt><trkpt lat="44.3308204" lon="7.4860593"><ele>641.0</ele><time>2026-05-03T15:19:52.097Z</time></trkpt><trkpt lat="44.330864" lon="7.4861646"><ele>641.0</ele><time>2026-05-03T15:19:53.098Z</time></trkpt><trkpt lat="44.3309065" lon="7.4862541"><ele>641.0</ele><time>2026-05-03T15:19:54.098Z</time></trkpt><trkpt lat="44.3309342" lon="7.4863411"><ele>641.1999999999999</ele><time>2026-05-03T15:19:55.098Z</time></trkpt><trkpt lat="44.3309903" lon="7.4865067"><ele>641.4</ele><time>2026-05-03T15:19:57.098Z</time></trkpt><trkpt lat="44.3310307" lon="7.4865926"><ele>641.6</ele><time>2026-05-03T15:19:58.098Z</time></trkpt><trkpt lat="44.3311014" lon="7.4867121"><ele>641.8</ele><time>2026-05-03T15:19:59.098Z</time></trkpt><trkpt lat="44.3311725" lon="7.486821"><ele>642.0</ele><time>2026-05-03T15:20:00.098Z</time></trkpt><trkpt lat="44.3312045" lon="7.4869221"><ele>642.0</ele><time>2026-05-03T15:20:01.098Z</time></trkpt><trkpt lat="44.3312337" lon="7.4870269"><ele>642.0</ele><time>2026-05-03T15:20:02.097Z</time></trkpt><trkpt lat="44.3313126" lon="7.4871753"><ele>642.0</ele><time>2026-05-03T15:20:04.098Z</time></trkpt><trkpt lat="44.3313561" lon="7.4872587"><ele>642.0</ele><time>2026-05-03T15:20:05.098Z</time></trkpt><trkpt lat="44.3313895" lon="7.4873496"><ele>642.0</ele><time>2026-05-03T15:20:06.098Z</time></trkpt><trkpt lat="44.331425" lon="7.4874277"><ele>642.0</ele><time>2026-05-03T15:20:07.098Z</time></trkpt><trkpt lat="44.331522" lon="7.4875493"><ele>641.5</ele><time>2026-05-03T15:20:09.098Z</time></trkpt><trkpt lat="44.3315549" lon="7.4876258"><ele>641.0</ele><time>2026-05-03T15:20:10.098Z</time></trkpt><trkpt lat="44.3316056" lon="7.4877283"><ele>640.5</ele><time>2026-05-03T15:20:11.098Z</time></trkpt><trkpt lat="44.3316418" lon="7.4878231"><ele>640.0</ele><time>2026-05-03T15:20:12.098Z</time></trkpt><trkpt lat="44.3317184" lon="7.4879291"><ele>639.5</ele><time>2026-05-03T15:20:13.098Z</time></trkpt><trkpt lat="44.3317648" lon="7.4880168"><ele>639.0</ele><time>2026-05-03T15:20:14.098Z</time></trkpt><trkpt lat="44.3318128" lon="7.4880969"><ele>638.4</ele><time>2026-05-03T15:20:15.098Z</time></trkpt><trkpt lat="44.3318724" lon="7.4882321"><ele>637.8</ele><time>2026-05-03T15:20:17.098Z</time></trkpt><trkpt lat="44.3318771" lon="7.4883808"><ele>637.2</ele><time>2026-05-03T15:20:19.098Z</time></trkpt><trkpt lat="44.3318789" lon="7.4885165"><ele>636.6</ele><time>2026-05-03T15:20:21.098Z</time></trkpt><trkpt lat="44.3318746" lon="7.4886569"><ele>636.0</ele><time>2026-05-03T15:20:23.098Z</time></trkpt><trkpt lat="44.3318643" lon="7.488754"><ele>636.0</ele><time>2026-05-03T15:20:24.098Z</time></trkpt><trkpt lat="44.3318089" lon="7.4888964"><ele>636.0</ele><time>2026-05-03T15:20:26.098Z</time></trkpt><trkpt lat="44.3317607" lon="7.4889795"><ele>636.0</ele><time>2026-05-03T15:20:28.098Z</time></trkpt><trkpt lat="44.3316574" lon="7.4889582"><ele>636.0</ele><time>2026-05-03T15:20:30.098Z</time></trkpt><trkpt lat="44.3315548" lon="7.4889238"><ele>636.0</ele><time>2026-05-03T15:20:32.098Z</time></trkpt><trkpt lat="44.3314792" lon="7.488908"><ele>636.0</ele><time>2026-05-03T15:20:33.098Z</time></trkpt><trkpt lat="44.331413" lon="7.4888899"><ele>636.0</ele><time>2026-05-03T15:20:34.098Z</time></trkpt><trkpt lat="44.3313364" lon="7.4888571"><ele>636.0</ele><time>2026-05-03T15:20:35.098Z</time></trkpt><trkpt lat="44.3312704" lon="7.4888408"><ele>636.0</ele><time>2026-05-03T15:20:36.098Z</time></trkpt><trkpt lat="44.3311856" lon="7.4888136"><ele>636.0</ele><time>2026-05-03T15:20:37.097Z</time></trkpt><trkpt lat="44.3310813" lon="7.488797"><ele>636.0</ele><time>2026-05-03T15:20:39.098Z</time></trkpt><trkpt lat="44.3310213" lon="7.4887545"><ele>636.6</ele><time>2026-05-03T15:20:40.098Z</time></trkpt><trkpt lat="44.3309149" lon="7.4887293"><ele>637.2</ele><time>2026-05-03T15:20:42.098Z</time></trkpt><trkpt lat="44.3308316" lon="7.4887143"><ele>637.8</ele><time>2026-05-03T15:20:45.098Z</time></trkpt><trkpt lat="44.3307376" lon="7.4886641"><ele>638.4</ele><time>2026-05-03T15:20:47.098Z</time></trkpt><trkpt lat="44.3306448" lon="7.488623"><ele>639.0</ele><time>2026-05-03T15:20:50.097Z</time></trkpt><trkpt lat="44.3305633" lon="7.4886062"><ele>639.0</ele><time>2026-05-03T15:20:52.098Z</time></trkpt><trkpt lat="44.3304868" lon="7.4885786"><ele>639.0</ele><time>2026-05-03T15:20:54.098Z</time></trkpt><trkpt lat="44.3304378" lon="7.4886567"><ele>639.0</ele><time>2026-05-03T15:20:57.098Z</time></trkpt><trkpt lat="44.3303677" lon="7.4888069"><ele>639.0</ele><time>2026-05-03T15:20:59.098Z</time></trkpt><trkpt lat="44.3302875" lon="7.4889623"><ele>639.0</ele><time>2026-05-03T15:21:01.098Z</time></trkpt><trkpt lat="44.3302186" lon="7.4890975"><ele>638.6666666666666</ele><time>2026-05-03T15:21:03.098Z</time></trkpt><trkpt lat="44.3302169" lon="7.4892097"><ele>638.3333333333334</ele><time>2026-05-03T15:21:05.098Z</time></trkpt><trkpt lat="44.3301708" lon="7.4892841"><ele>638.0</ele><time>2026-05-03T15:21:09.098Z</time></trkpt><trkpt lat="44.3300978" lon="7.4892432"><ele>637.6666666666667</ele><time>2026-05-03T15:21:11.098Z</time></trkpt><trkpt lat="44.3300114" lon="7.4892242"><ele>637.3333333333334</ele><time>2026-05-03T15:21:13.098Z</time></trkpt><trkpt lat="44.3299316" lon="7.48919"><ele>637.0</ele><time>2026-05-03T15:21:16.098Z</time></trkpt><trkpt lat="44.3298743" lon="7.4891396"><ele>637.0</ele><time>2026-05-03T15:21:20.098Z</time></trkpt><trkpt lat="44.3299478" lon="7.4891462"><ele>637.0</ele><time>2026-05-03T15:21:50.098Z</time></trkpt><trkpt lat="44.3300059" lon="7.4892391"><ele>637.0</ele><time>2026-05-03T15:21:52.098Z</time></trkpt><trkpt lat="44.3300314" lon="7.4893394"><ele>637.0</ele><time>2026-05-03T15:21:53.098Z</time></trkpt><trkpt lat="44.3300595" lon="7.4894324"><ele>637.0</ele><time>2026-05-03T15:21:54.098Z</time></trkpt><trkpt lat="44.3300825" lon="7.4895286"><ele>637.0</ele><time>2026-05-03T15:21:55.098Z</time></trkpt><trkpt lat="44.330121" lon="7.4896368"><ele>636.4</ele><time>2026-05-03T15:21:56.098Z</time></trkpt><trkpt lat="44.3301634" lon="7.4897459"><ele>635.8000000000001</ele><time>2026-05-03T15:21:57.098Z</time></trkpt><trkpt lat="44.3302184" lon="7.4898514"><ele>635.2</ele><time>2026-05-03T15:21:58.098Z</time></trkpt><trkpt lat="44.3302619" lon="7.4899421"><ele>634.6</ele><time>2026-05-03T15:21:59.098Z</time></trkpt><trkpt lat="44.3303224" lon="7.4900257"><ele>634.0</ele><time>2026-05-03T15:22:00.097Z</time></trkpt><trkpt lat="44.3304194" lon="7.4901575"><ele>634.0</ele><time>2026-05-03T15:22:02.098Z</time></trkpt><trkpt lat="44.3305008" lon="7.4902986"><ele>634.0</ele><time>2026-05-03T15:22:04.097Z</time></trkpt><trkpt lat="44.3305361" lon="7.4904011"><ele>634.0</ele><time>2026-05-03T15:22:07.098Z</time></trkpt><trkpt lat="44.3305529" lon="7.4905057"><ele>634.0</ele><time>2026-05-03T15:22:09.098Z</time></trkpt><trkpt lat="44.3305223" lon="7.4905884"><ele>634.0</ele><time>2026-05-03T15:22:10.098Z</time></trkpt><trkpt lat="44.3304868" lon="7.4906651"><ele>634.0</ele><time>2026-05-03T15:22:11.097Z</time></trkpt><trkpt lat="44.3304123" lon="7.4908495"><ele>633.3333333333334</ele><time>2026-05-03T15:22:13.098Z</time></trkpt><trkpt lat="44.3303411" lon="7.4909464"><ele>632.6666666666667</ele><time>2026-05-03T15:22:14.098Z</time></trkpt><trkpt lat="44.3302822" lon="7.4910197"><ele>632.0</ele><time>2026-05-03T15:22:15.098Z</time></trkpt><trkpt lat="44.3302243" lon="7.4910815"><ele>631.3333333333334</ele><time>2026-05-03T15:22:16.098Z</time></trkpt><trkpt lat="44.3301567" lon="7.4911188"><ele>630.6666666666666</ele><time>2026-05-03T15:22:17.098Z</time></trkpt><trkpt lat="44.3300746" lon="7.4912206"><ele>630.0</ele><time>2026-05-03T15:22:19.098Z</time></trkpt><trkpt lat="44.3300855" lon="7.4913742"><ele>629.0</ele><time>2026-05-03T15:22:21.098Z</time></trkpt><trkpt lat="44.3302112" lon="7.4915108"><ele>628.0</ele><time>2026-05-03T15:22:22.098Z</time></trkpt><trkpt lat="44.330269" lon="7.4915938"><ele>627.0</ele><time>2026-05-03T15:22:23.097Z</time></trkpt><trkpt lat="44.3303294" lon="7.4917186"><ele>626.0</ele><time>2026-05-03T15:22:24.098Z</time></trkpt><trkpt lat="44.3304052" lon="7.4918569"><ele>626.0</ele><time>2026-05-03T15:22:25.098Z</time></trkpt><trkpt lat="44.3304915" lon="7.4919606"><ele>626.0</ele><time>2026-05-03T15:22:26.098Z</time></trkpt><trkpt lat="44.3305599" lon="7.4921441"><ele>626.0</ele><time>2026-05-03T15:22:27.098Z</time></trkpt><trkpt lat="44.3306377" lon="7.4922949"><ele>626.0</ele><time>2026-05-03T15:22:28.098Z</time></trkpt><trkpt lat="44.3307151" lon="7.492492"><ele>626.0</ele><time>2026-05-03T15:22:29.098Z</time></trkpt><trkpt lat="44.3307755" lon="7.4926708"><ele>626.0</ele><time>2026-05-03T15:22:30.098Z</time></trkpt><trkpt lat="44.3308378" lon="7.4928476"><ele>626.0</ele><time>2026-05-03T15:22:31.098Z</time></trkpt><trkpt lat="44.3309025" lon="7.4930245"><ele>626.0</ele><time>2026-05-03T15:22:32.098Z</time></trkpt><trkpt lat="44.3309712" lon="7.493198"><ele>626.0</ele><time>2026-05-03T15:22:33.098Z</time></trkpt><trkpt lat="44.3310466" lon="7.4933719"><ele>626.0</ele><time>2026-05-03T15:22:34.098Z</time></trkpt><trkpt lat="44.3311221" lon="7.4935443"><ele>626.0</ele><time>2026-05-03T15:22:35.098Z</time></trkpt><trkpt lat="44.3311866" lon="7.4937111"><ele>626.0</ele><time>2026-05-03T15:22:36.098Z</time></trkpt><trkpt lat="44.3312546" lon="7.4938809"><ele>626.25</ele><time>2026-05-03T15:22:37.098Z</time></trkpt><trkpt lat="44.3313257" lon="7.4940552"><ele>626.5</ele><time>2026-05-03T15:22:38.098Z</time></trkpt><trkpt lat="44.3313776" lon="7.4942289"><ele>626.75</ele><time>2026-05-03T15:22:39.098Z</time></trkpt><trkpt lat="44.3314539" lon="7.494401"><ele>627.0</ele><time>2026-05-03T15:22:40.098Z</time></trkpt><trkpt lat="44.3315201" lon="7.4945738"><ele>626.5</ele><time>2026-05-03T15:22:41.098Z</time></trkpt><trkpt lat="44.3315872" lon="7.4947378"><ele>626.0</ele><time>2026-05-03T15:22:42.098Z</time></trkpt><trkpt lat="44.3316422" lon="7.4948931"><ele>625.5</ele><time>2026-05-03T15:22:43.098Z</time></trkpt><trkpt lat="44.3317111" lon="7.4950622"><ele>625.0</ele><time>2026-05-03T15:22:44.098Z</time></trkpt><trkpt lat="44.3317771" lon="7.495234"><ele>625.0</ele><time>2026-05-03T15:22:45.098Z</time></trkpt><trkpt lat="44.3318416" lon="7.4953831"><ele>625.0</ele><time>2026-05-03T15:22:46.098Z</time></trkpt><trkpt lat="44.3319047" lon="7.4955619"><ele>625.0</ele><time>2026-05-03T15:22:47.098Z</time></trkpt><trkpt lat="44.3319686" lon="7.4956915"><ele>625.0</ele><time>2026-05-03T15:22:48.098Z</time></trkpt><trkpt lat="44.3320251" lon="7.4958439"><ele>624.5</ele><time>2026-05-03T15:22:49.097Z</time></trkpt><trkpt lat="44.3320909" lon="7.4959918"><ele>624.0</ele><time>2026-05-03T15:22:50.098Z</time></trkpt><trkpt lat="44.3321572" lon="7.4961288"><ele>623.5</ele><time>2026-05-03T15:22:51.098Z</time></trkpt><trkpt lat="44.3322204" lon="7.4962708"><ele>623.0</ele><time>2026-05-03T15:22:52.098Z</time></trkpt><trkpt lat="44.332269" lon="7.4964484"><ele>624.0</ele><time>2026-05-03T15:22:53.098Z</time></trkpt><trkpt lat="44.3322879" lon="7.4966138"><ele>625.0</ele><time>2026-05-03T15:22:54.098Z</time></trkpt><trkpt lat="44.332321" lon="7.4967729"><ele>626.0</ele><time>2026-05-03T15:22:55.098Z</time></trkpt><trkpt lat="44.3323538" lon="7.496915"><ele>627.0</ele><time>2026-05-03T15:22:56.097Z</time></trkpt><trkpt lat="44.3323915" lon="7.497062"><ele>626.4</ele><time>2026-05-03T15:22:57.098Z</time></trkpt><trkpt lat="44.3324073" lon="7.4972044"><ele>625.8000000000001</ele><time>2026-05-03T15:22:58.098Z</time></trkpt><trkpt lat="44.3324394" lon="7.4973694"><ele>625.2</ele><time>2026-05-03T15:22:59.098Z</time></trkpt><trkpt lat="44.3324658" lon="7.497528"><ele>624.6</ele><time>2026-05-03T15:23:00.097Z</time></trkpt><trkpt lat="44.3324614" lon="7.4976551"><ele>624.0</ele><time>2026-05-03T15:23:01.098Z</time></trkpt><trkpt lat="44.3324827" lon="7.4977842"><ele>624.0</ele><time>2026-05-03T15:23:02.098Z</time></trkpt><trkpt lat="44.3325144" lon="7.4979128"><ele>624.0</ele><time>2026-05-03T15:23:03.097Z</time></trkpt><trkpt lat="44.3325407" lon="7.4980306"><ele>624.0</ele><time>2026-05-03T15:23:04.098Z</time></trkpt><trkpt lat="44.3326013" lon="7.4981469"><ele>624.0</ele><time>2026-05-03T15:23:05.098Z</time></trkpt><trkpt lat="44.3326915" lon="7.4982587"><ele>624.0</ele><time>2026-05-03T15:23:06.098Z</time></trkpt><trkpt lat="44.3327659" lon="7.498378"><ele>622.75</ele><time>2026-05-03T15:23:07.098Z</time></trkpt><trkpt lat="44.3328359" lon="7.4985254"><ele>621.5</ele><time>2026-05-03T15:23:08.098Z</time></trkpt><trkpt lat="44.3328914" lon="7.4986627"><ele>620.25</ele><time>2026-05-03T15:23:09.098Z</time></trkpt><trkpt lat="44.3329482" lon="7.4988092"><ele>619.0</ele><time>2026-05-03T15:23:10.098Z</time></trkpt><trkpt lat="44.3330032" lon="7.498926"><ele>619.6</ele><time>2026-05-03T15:23:11.098Z</time></trkpt><trkpt lat="44.3330626" lon="7.4990619"><ele>620.2</ele><time>2026-05-03T15:23:12.098Z</time></trkpt><trkpt lat="44.3331033" lon="7.4991421"><ele>620.8000000000001</ele><time>2026-05-03T15:23:13.098Z</time></trkpt><trkpt lat="44.3331537" lon="7.4992384"><ele>621.4</ele><time>2026-05-03T15:23:14.098Z</time></trkpt><trkpt lat="44.3332008" lon="7.4993244"><ele>622.0</ele><time>2026-05-03T15:23:15.098Z</time></trkpt><trkpt lat="44.3332442" lon="7.4994882"><ele>622.0</ele><time>2026-05-03T15:23:17.098Z</time></trkpt><trkpt lat="44.3332767" lon="7.4995739"><ele>622.0</ele><time>2026-05-03T15:23:18.098Z</time></trkpt><trkpt lat="44.3333135" lon="7.4996707"><ele>622.0</ele><time>2026-05-03T15:23:19.098Z</time></trkpt><trkpt lat="44.3333713" lon="7.4998239"><ele>622.0</ele><time>2026-05-03T15:23:21.098Z</time></trkpt><trkpt lat="44.3334275" lon="7.4999589"><ele>622.0</ele><time>2026-05-03T15:23:22.098Z</time></trkpt><trkpt lat="44.3335074" lon="7.5001277"><ele>621.4</ele><time>2026-05-03T15:23:23.097Z</time></trkpt><trkpt lat="44.3335567" lon="7.5002535"><ele>620.8000000000001</ele><time>2026-05-03T15:23:24.098Z</time></trkpt><trkpt lat="44.3336095" lon="7.5003762"><ele>620.2</ele><time>2026-05-03T15:23:25.098Z</time></trkpt><trkpt lat="44.3336794" lon="7.5005002"><ele>619.6</ele><time>2026-05-03T15:23:26.098Z</time></trkpt><trkpt lat="44.3337496" lon="7.5006343"><ele>619.0</ele><time>2026-05-03T15:23:27.098Z</time></trkpt><trkpt lat="44.3338168" lon="7.50074"><ele>619.5</ele><time>2026-05-03T15:23:28.098Z</time></trkpt><trkpt lat="44.333881" lon="7.5008773"><ele>620.0</ele><time>2026-05-03T15:23:29.098Z</time></trkpt><trkpt lat="44.3339475" lon="7.5010242"><ele>620.5</ele><time>2026-05-03T15:23:30.098Z</time></trkpt><trkpt lat="44.3340127" lon="7.5011727"><ele>621.0</ele><time>2026-05-03T15:23:31.098Z</time></trkpt><trkpt lat="44.334074" lon="7.5013134"><ele>619.75</ele><time>2026-05-03T15:23:32.098Z</time></trkpt><trkpt lat="44.3341335" lon="7.501449"><ele>618.5</ele><time>2026-05-03T15:23:33.098Z</time></trkpt><trkpt lat="44.3342085" lon="7.5016032"><ele>617.25</ele><time>2026-05-03T15:23:34.098Z</time></trkpt><trkpt lat="44.3342603" lon="7.5017449"><ele>616.0</ele><time>2026-05-03T15:23:35.098Z</time></trkpt><trkpt lat="44.3342895" lon="7.5018653"><ele>616.0</ele><time>2026-05-03T15:23:36.098Z</time></trkpt><trkpt lat="44.3343152" lon="7.502006"><ele>616.0</ele><time>2026-05-03T15:23:37.098Z</time></trkpt><trkpt lat="44.3343384" lon="7.502148"><ele>616.0</ele><time>2026-05-03T15:23:38.098Z</time></trkpt><trkpt lat="44.334358" lon="7.5023015"><ele>616.0</ele><time>2026-05-03T15:23:39.098Z</time></trkpt><trkpt lat="44.334373" lon="7.502446"><ele>616.0</ele><time>2026-05-03T15:23:40.098Z</time></trkpt><trkpt lat="44.3343809" lon="7.5025901"><ele>615.25</ele><time>2026-05-03T15:23:41.098Z</time></trkpt><trkpt lat="44.3343845" lon="7.5027494"><ele>614.5</ele><time>2026-05-03T15:23:42.098Z</time></trkpt><trkpt lat="44.3343791" lon="7.5029224"><ele>613.75</ele><time>2026-05-03T15:23:43.098Z</time></trkpt><trkpt lat="44.3343777" lon="7.5031286"><ele>613.0</ele><time>2026-05-03T15:23:44.098Z</time></trkpt><trkpt lat="44.3343652" lon="7.5033247"><ele>612.5</ele><time>2026-05-03T15:23:45.098Z</time></trkpt><trkpt lat="44.3343461" lon="7.503512"><ele>612.0</ele><time>2026-05-03T15:23:46.098Z</time></trkpt><trkpt lat="44.334309" lon="7.5037021"><ele>611.5</ele><time>2026-05-03T15:23:47.098Z</time></trkpt><trkpt lat="44.3342742" lon="7.5039098"><ele>611.0</ele><time>2026-05-03T15:23:48.098Z</time></trkpt><trkpt lat="44.3342338" lon="7.504116"><ele>610.6666666666666</ele><time>2026-05-03T15:23:49.098Z</time></trkpt><trkpt lat="44.3341611" lon="7.5043105"><ele>610.3333333333334</ele><time>2026-05-03T15:23:50.098Z</time></trkpt><trkpt lat="44.3341048" lon="7.5045209"><ele>610.0</ele><time>2026-05-03T15:23:51.097Z</time></trkpt><trkpt lat="44.3340294" lon="7.5047285"><ele>608.6666666666667</ele><time>2026-05-03T15:23:52.098Z</time></trkpt><trkpt lat="44.3339574" lon="7.5049493"><ele>607.3333333333334</ele><time>2026-05-03T15:23:53.098Z</time></trkpt><trkpt lat="44.333869" lon="7.5051468"><ele>606.0</ele><time>2026-05-03T15:23:54.097Z</time></trkpt><trkpt lat="44.3337808" lon="7.5053716"><ele>605.3333333333334</ele><time>2026-05-03T15:23:55.098Z</time></trkpt><trkpt lat="44.3336918" lon="7.5055828"><ele>604.6666666666667</ele><time>2026-05-03T15:23:56.098Z</time></trkpt><trkpt lat="44.3335938" lon="7.5058318"><ele>604.0</ele><time>2026-05-03T15:23:57.098Z</time></trkpt><trkpt lat="44.3335046" lon="7.5060489"><ele>603.0</ele><time>2026-05-03T15:23:58.098Z</time></trkpt><trkpt lat="44.3334007" lon="7.506268"><ele>602.0</ele><time>2026-05-03T15:23:59.098Z</time></trkpt><trkpt lat="44.3332951" lon="7.5064984"><ele>601.0</ele><time>2026-05-03T15:24:00.098Z</time></trkpt><trkpt lat="44.3331867" lon="7.5067384"><ele>601.0</ele><time>2026-05-03T15:24:01.097Z</time></trkpt><trkpt lat="44.3330816" lon="7.5069914"><ele>601.0</ele><time>2026-05-03T15:24:02.098Z</time></trkpt><trkpt lat="44.3329755" lon="7.5072413"><ele>601.0</ele><time>2026-05-03T15:24:03.098Z</time></trkpt><trkpt lat="44.3328691" lon="7.5074789"><ele>599.6666666666667</ele><time>2026-05-03T15:24:04.098Z</time></trkpt><trkpt lat="44.3327744" lon="7.5077236"><ele>598.3333333333334</ele><time>2026-05-03T15:24:05.098Z</time></trkpt><trkpt lat="44.3326858" lon="7.5079531"><ele>597.0</ele><time>2026-05-03T15:24:06.098Z</time></trkpt><trkpt lat="44.3325898" lon="7.5081464"><ele>597.0</ele><time>2026-05-03T15:24:07.098Z</time></trkpt><trkpt lat="44.3325055" lon="7.5083608"><ele>597.0</ele><time>2026-05-03T15:24:08.098Z</time></trkpt><trkpt lat="44.332424" lon="7.5085639"><ele>597.0</ele><time>2026-05-03T15:24:09.098Z</time></trkpt><trkpt lat="44.3323373" lon="7.5087608"><ele>596.6666666666666</ele><time>2026-05-03T15:24:10.098Z</time></trkpt><trkpt lat="44.332247" lon="7.5089542"><ele>596.3333333333333</ele><time>2026-05-03T15:24:11.098Z</time></trkpt><trkpt lat="44.3321683" lon="7.5091526"><ele>596.0</ele><time>2026-05-03T15:24:12.097Z</time></trkpt><trkpt lat="44.332083" lon="7.509352"><ele>596.6666666666666</ele><time>2026-05-03T15:24:13.098Z</time></trkpt><trkpt lat="44.33199" lon="7.5095461"><ele>597.3333333333334</ele><time>2026-05-03T15:24:14.098Z</time></trkpt><trkpt lat="44.3319155" lon="7.50975"><ele>598.0</ele><time>2026-05-03T15:24:15.098Z</time></trkpt><trkpt lat="44.3318242" lon="7.5099524"><ele>598.0</ele><time>2026-05-03T15:24:16.098Z</time></trkpt><trkpt lat="44.3317428" lon="7.5101537"><ele>598.0</ele><time>2026-05-03T15:24:17.098Z</time></trkpt><trkpt lat="44.3316431" lon="7.5103708"><ele>598.0</ele><time>2026-05-03T15:24:18.098Z</time></trkpt><trkpt lat="44.3315468" lon="7.5105619"><ele>598.3333333333334</ele><time>2026-05-03T15:24:19.098Z</time></trkpt><trkpt lat="44.3314625" lon="7.5107851"><ele>598.6666666666666</ele><time>2026-05-03T15:24:20.098Z</time></trkpt><trkpt lat="44.3313758" lon="7.5110009"><ele>599.0</ele><time>2026-05-03T15:24:21.098Z</time></trkpt><trkpt lat="44.3312777" lon="7.5112077"><ele>598.6666666666666</ele><time>2026-05-03T15:24:22.098Z</time></trkpt><trkpt lat="44.331193" lon="7.5114258"><ele>598.3333333333334</ele><time>2026-05-03T15:24:23.098Z</time></trkpt><trkpt lat="44.3311176" lon="7.5116503"><ele>598.0</ele><time>2026-05-03T15:24:24.098Z</time></trkpt><trkpt lat="44.3310367" lon="7.5118854"><ele>598.0</ele><time>2026-05-03T15:24:25.098Z</time></trkpt><trkpt lat="44.3309694" lon="7.5121187"><ele>598.0</ele><time>2026-05-03T15:24:26.098Z</time></trkpt><trkpt lat="44.3309051" lon="7.5123503"><ele>598.0</ele><time>2026-05-03T15:24:27.098Z</time></trkpt><trkpt lat="44.3308529" lon="7.5125727"><ele>598.0</ele><time>2026-05-03T15:24:28.098Z</time></trkpt><trkpt lat="44.330831" lon="7.5128588"><ele>598.0</ele><time>2026-05-03T15:24:29.098Z</time></trkpt><trkpt lat="44.3307998" lon="7.5131564"><ele>598.0</ele><time>2026-05-03T15:24:30.098Z</time></trkpt><trkpt lat="44.3307801" lon="7.513413"><ele>598.0</ele><time>2026-05-03T15:24:31.098Z</time></trkpt><trkpt lat="44.3307892" lon="7.5136603"><ele>598.0</ele><time>2026-05-03T15:24:32.098Z</time></trkpt><trkpt lat="44.3308077" lon="7.5138956"><ele>598.0</ele><time>2026-05-03T15:24:33.098Z</time></trkpt><trkpt lat="44.3308237" lon="7.5141274"><ele>598.3333333333334</ele><time>2026-05-03T15:24:34.098Z</time></trkpt><trkpt lat="44.3308417" lon="7.5143545"><ele>598.6666666666666</ele><time>2026-05-03T15:24:35.098Z</time></trkpt><trkpt lat="44.3308808" lon="7.514582"><ele>599.0</ele><time>2026-05-03T15:24:36.098Z</time></trkpt><trkpt lat="44.330932" lon="7.5148031"><ele>599.0</ele><time>2026-05-03T15:24:37.098Z</time></trkpt><trkpt lat="44.3309833" lon="7.5150146"><ele>599.0</ele><time>2026-05-03T15:24:38.098Z</time></trkpt><trkpt lat="44.3310317" lon="7.5152159"><ele>599.0</ele><time>2026-05-03T15:24:39.098Z</time></trkpt><trkpt lat="44.331083" lon="7.5154038"><ele>599.0</ele><time>2026-05-03T15:24:40.098Z</time></trkpt><trkpt lat="44.3311373" lon="7.5155803"><ele>599.0</ele><time>2026-05-03T15:24:41.098Z</time></trkpt><trkpt lat="44.3311962" lon="7.5157634"><ele>599.0</ele><time>2026-05-03T15:24:42.098Z</time></trkpt><trkpt lat="44.3312505" lon="7.5159087"><ele>599.0</ele><time>2026-05-03T15:24:43.098Z</time></trkpt><trkpt lat="44.3312994" lon="7.5160527"><ele>599.0</ele><time>2026-05-03T15:24:44.097Z</time></trkpt><trkpt lat="44.3313481" lon="7.5161843"><ele>599.0</ele><time>2026-05-03T15:24:45.097Z</time></trkpt><trkpt lat="44.3313826" lon="7.5163115"><ele>599.0</ele><time>2026-05-03T15:24:46.098Z</time></trkpt><trkpt lat="44.3314027" lon="7.5164327"><ele>599.0</ele><time>2026-05-03T15:24:47.098Z</time></trkpt><trkpt lat="44.3314263" lon="7.5165625"><ele>599.0</ele><time>2026-05-03T15:24:48.098Z</time></trkpt><trkpt lat="44.3314707" lon="7.5166642"><ele>599.0</ele><time>2026-05-03T15:24:49.097Z</time></trkpt><trkpt lat="44.3315111" lon="7.5167732"><ele>599.0</ele><time>2026-05-03T15:24:50.097Z</time></trkpt><trkpt lat="44.3315702" lon="7.5168779"><ele>599.0</ele><time>2026-05-03T15:24:51.098Z</time></trkpt><trkpt lat="44.3316379" lon="7.5170012"><ele>599.0</ele><time>2026-05-03T15:24:52.098Z</time></trkpt><trkpt lat="44.3316891" lon="7.5171323"><ele>599.0</ele><time>2026-05-03T15:24:53.098Z</time></trkpt><trkpt lat="44.3317312" lon="7.5172612"><ele>599.0</ele><time>2026-05-03T15:24:54.098Z</time></trkpt><trkpt lat="44.331774" lon="7.5173677"><ele>599.0</ele><time>2026-05-03T15:24:55.098Z</time></trkpt><trkpt lat="44.3318078" lon="7.517458"><ele>599.0</ele><time>2026-05-03T15:24:56.098Z</time></trkpt><trkpt lat="44.3318598" lon="7.5176153"><ele>599.0</ele><time>2026-05-03T15:24:57.097Z</time></trkpt><trkpt lat="44.3319078" lon="7.5177722"><ele>599.0</ele><time>2026-05-03T15:24:58.098Z</time></trkpt><trkpt lat="44.3319997" lon="7.5179451"><ele>599.0</ele><time>2026-05-03T15:24:59.098Z</time></trkpt><trkpt lat="44.3320655" lon="7.5181169"><ele>599.0</ele><time>2026-05-03T15:25:00.098Z</time></trkpt><trkpt lat="44.3321412" lon="7.5182808"><ele>599.0</ele><time>2026-05-03T15:25:01.098Z</time></trkpt><trkpt lat="44.3322111" lon="7.5184464"><ele>599.0</ele><time>2026-05-03T15:25:02.098Z</time></trkpt><trkpt lat="44.3322961" lon="7.5186233"><ele>598.6666666666666</ele><time>2026-05-03T15:25:03.097Z</time></trkpt><trkpt lat="44.3323769" lon="7.5188027"><ele>598.3333333333334</ele><time>2026-05-03T15:25:04.098Z</time></trkpt><trkpt lat="44.3324619" lon="7.5189806"><ele>598.0</ele><time>2026-05-03T15:25:05.098Z</time></trkpt><trkpt lat="44.3325277" lon="7.5191667"><ele>598.0</ele><time>2026-05-03T15:25:06.098Z</time></trkpt><trkpt lat="44.3325918" lon="7.5193429"><ele>598.0</ele><time>2026-05-03T15:25:07.098Z</time></trkpt><trkpt lat="44.3326659" lon="7.5195184"><ele>598.0</ele><time>2026-05-03T15:25:08.098Z</time></trkpt><trkpt lat="44.3327517" lon="7.519691"><ele>598.0</ele><time>2026-05-03T15:25:09.098Z</time></trkpt><trkpt lat="44.3328452" lon="7.5198473"><ele>598.0</ele><time>2026-05-03T15:25:10.098Z</time></trkpt><trkpt lat="44.3329294" lon="7.5200206"><ele>598.0</ele><time>2026-05-03T15:25:11.098Z</time></trkpt><trkpt lat="44.3330164" lon="7.5201997"><ele>598.0</ele><time>2026-05-03T15:25:12.098Z</time></trkpt><trkpt lat="44.3330701" lon="7.5203559"><ele>598.0</ele><time>2026-05-03T15:25:13.097Z</time></trkpt><trkpt lat="44.3331225" lon="7.5205273"><ele>597.75</ele><time>2026-05-03T15:25:14.097Z</time></trkpt><trkpt lat="44.3332043" lon="7.5206902"><ele>597.5</ele><time>2026-05-03T15:25:15.098Z</time></trkpt><trkpt lat="44.3332772" lon="7.5208411"><ele>597.25</ele><time>2026-05-03T15:25:16.098Z</time></trkpt><trkpt lat="44.3333544" lon="7.5209997"><ele>597.0</ele><time>2026-05-03T15:25:17.098Z</time></trkpt><trkpt lat="44.3334234" lon="7.5211602"><ele>597.5</ele><time>2026-05-03T15:25:18.097Z</time></trkpt><trkpt lat="44.333484" lon="7.5213252"><ele>598.0</ele><time>2026-05-03T15:25:19.098Z</time></trkpt><trkpt lat="44.3335364" lon="7.5214886"><ele>598.5</ele><time>2026-05-03T15:25:20.097Z</time></trkpt><trkpt lat="44.3336148" lon="7.5216647"><ele>599.0</ele><time>2026-05-03T15:25:21.098Z</time></trkpt><trkpt lat="44.3336823" lon="7.5218069"><ele>599.0</ele><time>2026-05-03T15:25:22.098Z</time></trkpt><trkpt lat="44.3337465" lon="7.521944"><ele>599.0</ele><time>2026-05-03T15:25:23.098Z</time></trkpt><trkpt lat="44.3338208" lon="7.5221106"><ele>599.0</ele><time>2026-05-03T15:25:24.098Z</time></trkpt><trkpt lat="44.3339042" lon="7.5222677"><ele>599.0</ele><time>2026-05-03T15:25:25.098Z</time></trkpt><trkpt lat="44.3339751" lon="7.5224384"><ele>598.5</ele><time>2026-05-03T15:25:26.098Z</time></trkpt><trkpt lat="44.3340468" lon="7.5226136"><ele>598.0</ele><time>2026-05-03T15:25:27.098Z</time></trkpt><trkpt lat="44.3341242" lon="7.5227782"><ele>597.5</ele><time>2026-05-03T15:25:28.098Z</time></trkpt><trkpt lat="44.3341992" lon="7.5229355"><ele>597.0</ele><time>2026-05-03T15:25:29.098Z</time></trkpt><trkpt lat="44.3342538" lon="7.523091"><ele>597.0</ele><time>2026-05-03T15:25:30.097Z</time></trkpt><trkpt lat="44.3343083" lon="7.5232558"><ele>597.0</ele><time>2026-05-03T15:25:31.098Z</time></trkpt><trkpt lat="44.3343548" lon="7.5234032"><ele>597.0</ele><time>2026-05-03T15:25:32.098Z</time></trkpt><trkpt lat="44.3344024" lon="7.5235432"><ele>597.0</ele><time>2026-05-03T15:25:33.098Z</time></trkpt><trkpt lat="44.3344556" lon="7.5236876"><ele>597.0</ele><time>2026-05-03T15:25:34.098Z</time></trkpt><trkpt lat="44.3345185" lon="7.5238456"><ele>597.0</ele><time>2026-05-03T15:25:35.098Z</time></trkpt><trkpt lat="44.3345838" lon="7.5240038"><ele>597.0</ele><time>2026-05-03T15:25:36.098Z</time></trkpt><trkpt lat="44.3346542" lon="7.5241608"><ele>597.0</ele><time>2026-05-03T15:25:37.098Z</time></trkpt><trkpt lat="44.3347208" lon="7.5243133"><ele>597.0</ele><time>2026-05-03T15:25:38.098Z</time></trkpt><trkpt lat="44.3347913" lon="7.5244843"><ele>597.0</ele><time>2026-05-03T15:25:39.097Z</time></trkpt><trkpt lat="44.3348495" lon="7.5246463"><ele>597.0</ele><time>2026-05-03T15:25:40.098Z</time></trkpt><trkpt lat="44.334912" lon="7.5248139"><ele>597.0</ele><time>2026-05-03T15:25:41.098Z</time></trkpt><trkpt lat="44.3349792" lon="7.5249757"><ele>596.75</ele><time>2026-05-03T15:25:42.098Z</time></trkpt><trkpt lat="44.3350445" lon="7.5251449"><ele>596.5</ele><time>2026-05-03T15:25:43.097Z</time></trkpt><trkpt lat="44.3350943" lon="7.5252863"><ele>596.25</ele><time>2026-05-03T15:25:44.098Z</time></trkpt><trkpt lat="44.3351579" lon="7.5254511"><ele>596.0</ele><time>2026-05-03T15:25:45.097Z</time></trkpt><trkpt lat="44.3352374" lon="7.5256319"><ele>595.75</ele><time>2026-05-03T15:25:46.098Z</time></trkpt><trkpt lat="44.3353056" lon="7.5258017"><ele>595.5</ele><time>2026-05-03T15:25:47.098Z</time></trkpt><trkpt lat="44.3353708" lon="7.5259558"><ele>595.25</ele><time>2026-05-03T15:25:48.098Z</time></trkpt><trkpt lat="44.3354358" lon="7.5261135"><ele>595.0</ele><time>2026-05-03T15:25:49.097Z</time></trkpt><trkpt lat="44.3354832" lon="7.5262292"><ele>595.0</ele><time>2026-05-03T15:25:50.098Z</time></trkpt><trkpt lat="44.3355344" lon="7.5263512"><ele>595.0</ele><time>2026-05-03T15:25:51.098Z</time></trkpt><trkpt lat="44.3355961" lon="7.5265037"><ele>595.0</ele><time>2026-05-03T15:25:52.098Z</time></trkpt><trkpt lat="44.3356458" lon="7.526632"><ele>595.0</ele><time>2026-05-03T15:25:53.098Z</time></trkpt><trkpt lat="44.3356803" lon="7.5267467"><ele>595.0</ele><time>2026-05-03T15:25:54.098Z</time></trkpt><trkpt lat="44.3357083" lon="7.5268347"><ele>595.0</ele><time>2026-05-03T15:25:55.098Z</time></trkpt><trkpt lat="44.3357377" lon="7.5269363"><ele>595.0</ele><time>2026-05-03T15:25:56.098Z</time></trkpt><trkpt lat="44.3357984" lon="7.5270553"><ele>595.0</ele><time>2026-05-03T15:25:57.098Z</time></trkpt><trkpt lat="44.3358573" lon="7.527186"><ele>595.0</ele><time>2026-05-03T15:25:58.098Z</time></trkpt><trkpt lat="44.3358926" lon="7.5273201"><ele>595.0</ele><time>2026-05-03T15:25:59.098Z</time></trkpt><trkpt lat="44.3359263" lon="7.5274311"><ele>595.0</ele><time>2026-05-03T15:26:00.098Z</time></trkpt><trkpt lat="44.3359657" lon="7.5275583"><ele>595.0</ele><time>2026-05-03T15:26:01.098Z</time></trkpt><trkpt lat="44.3360447" lon="7.5277179"><ele>595.0</ele><time>2026-05-03T15:26:02.098Z</time></trkpt><trkpt lat="44.3361097" lon="7.5278791"><ele>595.0</ele><time>2026-05-03T15:26:03.098Z</time></trkpt><trkpt lat="44.3361548" lon="7.528003"><ele>596.25</ele><time>2026-05-03T15:26:04.098Z</time></trkpt><trkpt lat="44.3362095" lon="7.5281457"><ele>597.5</ele><time>2026-05-03T15:26:05.098Z</time></trkpt><trkpt lat="44.3362544" lon="7.528258"><ele>598.75</ele><time>2026-05-03T15:26:06.098Z</time></trkpt><trkpt lat="44.3363204" lon="7.5284219"><ele>600.0</ele><time>2026-05-03T15:26:07.098Z</time></trkpt><trkpt lat="44.3363684" lon="7.5285709"><ele>598.5</ele><time>2026-05-03T15:26:08.098Z</time></trkpt><trkpt lat="44.3364087" lon="7.5287363"><ele>597.0</ele><time>2026-05-03T15:26:09.098Z</time></trkpt><trkpt lat="44.3364533" lon="7.5288995"><ele>595.5</ele><time>2026-05-03T15:26:10.097Z</time></trkpt><trkpt lat="44.336491" lon="7.5290436"><ele>594.0</ele><time>2026-05-03T15:26:11.098Z</time></trkpt><trkpt lat="44.3365246" lon="7.5291908"><ele>594.0</ele><time>2026-05-03T15:26:12.098Z</time></trkpt><trkpt lat="44.3365548" lon="7.5293478"><ele>594.0</ele><time>2026-05-03T15:26:13.098Z</time></trkpt><trkpt lat="44.3365947" lon="7.5295205"><ele>594.0</ele><time>2026-05-03T15:26:14.097Z</time></trkpt><trkpt lat="44.3366242" lon="7.5297166"><ele>594.0</ele><time>2026-05-03T15:26:15.097Z</time></trkpt><trkpt lat="44.3366578" lon="7.5299375"><ele>593.75</ele><time>2026-05-03T15:26:16.098Z</time></trkpt><trkpt lat="44.3366859" lon="7.5301287"><ele>593.5</ele><time>2026-05-03T15:26:17.098Z</time></trkpt><trkpt lat="44.3367055" lon="7.5303222"><ele>593.25</ele><time>2026-05-03T15:26:18.098Z</time></trkpt><trkpt lat="44.3367184" lon="7.5305026"><ele>593.0</ele><time>2026-05-03T15:26:19.098Z</time></trkpt><trkpt lat="44.3367311" lon="7.5306908"><ele>592.5</ele><time>2026-05-03T15:26:20.098Z</time></trkpt><trkpt lat="44.3367392" lon="7.5308593"><ele>592.0</ele><time>2026-05-03T15:26:21.098Z</time></trkpt><trkpt lat="44.3367484" lon="7.5310338"><ele>591.5</ele><time>2026-05-03T15:26:22.098Z</time></trkpt><trkpt lat="44.3367479" lon="7.5312567"><ele>591.0</ele><time>2026-05-03T15:26:23.098Z</time></trkpt><trkpt lat="44.3367385" lon="7.5314666"><ele>591.0</ele><time>2026-05-03T15:26:24.098Z</time></trkpt><trkpt lat="44.3367265" lon="7.5316602"><ele>591.0</ele><time>2026-05-03T15:26:25.098Z</time></trkpt><trkpt lat="44.3367179" lon="7.5318647"><ele>591.0</ele><time>2026-05-03T15:26:26.097Z</time></trkpt><trkpt lat="44.3367169" lon="7.5320803"><ele>591.0</ele><time>2026-05-03T15:26:27.098Z</time></trkpt><trkpt lat="44.3367052" lon="7.5322959"><ele>590.3333333333334</ele><time>2026-05-03T15:26:28.098Z</time></trkpt><trkpt lat="44.3366951" lon="7.5325211"><ele>589.6666666666667</ele><time>2026-05-03T15:26:29.098Z</time></trkpt><trkpt lat="44.3366818" lon="7.5327566"><ele>589.0</ele><time>2026-05-03T15:26:30.098Z</time></trkpt><trkpt lat="44.3366685" lon="7.532989"><ele>589.0</ele><time>2026-05-03T15:26:31.098Z</time></trkpt><trkpt lat="44.3366562" lon="7.5332226"><ele>589.0</ele><time>2026-05-03T15:26:32.098Z</time></trkpt><trkpt lat="44.3366545" lon="7.5334546"><ele>589.0</ele><time>2026-05-03T15:26:33.098Z</time></trkpt><trkpt lat="44.336645" lon="7.5337104"><ele>589.0</ele><time>2026-05-03T15:26:34.098Z</time></trkpt><trkpt lat="44.3366423" lon="7.5339638"><ele>589.0</ele><time>2026-05-03T15:26:35.098Z</time></trkpt><trkpt lat="44.3366232" lon="7.5342106"><ele>589.0</ele><time>2026-05-03T15:26:36.098Z</time></trkpt><trkpt lat="44.3366173" lon="7.5344718"><ele>588.3333333333334</ele><time>2026-05-03T15:26:37.098Z</time></trkpt><trkpt lat="44.3366107" lon="7.5347164"><ele>587.6666666666666</ele><time>2026-05-03T15:26:38.098Z</time></trkpt><trkpt lat="44.3365957" lon="7.5349616"><ele>587.0</ele><time>2026-05-03T15:26:39.098Z</time></trkpt><trkpt lat="44.3365904" lon="7.5351873"><ele>586.3333333333333</ele><time>2026-05-03T15:26:40.098Z</time></trkpt><trkpt lat="44.3365787" lon="7.5354223"><ele>585.6666666666666</ele><time>2026-05-03T15:26:41.097Z</time></trkpt><trkpt lat="44.3365729" lon="7.5356718"><ele>585.0</ele><time>2026-05-03T15:26:42.098Z</time></trkpt><trkpt lat="44.3365625" lon="7.5359182"><ele>585.0</ele><time>2026-05-03T15:26:43.098Z</time></trkpt><trkpt lat="44.3365477" lon="7.5361681"><ele>585.0</ele><time>2026-05-03T15:26:44.098Z</time></trkpt><trkpt lat="44.3365302" lon="7.5364126"><ele>585.0</ele><time>2026-05-03T15:26:45.098Z</time></trkpt><trkpt lat="44.3365214" lon="7.5366665"><ele>584.6666666666666</ele><time>2026-05-03T15:26:46.098Z</time></trkpt><trkpt lat="44.3365205" lon="7.5369314"><ele>584.3333333333333</ele><time>2026-05-03T15:26:47.098Z</time></trkpt><trkpt lat="44.3365095" lon="7.5371867"><ele>584.0</ele><time>2026-05-03T15:26:48.098Z</time></trkpt><trkpt lat="44.3365072" lon="7.5374302"><ele>584.0</ele><time>2026-05-03T15:26:49.098Z</time></trkpt><trkpt lat="44.3364826" lon="7.5376659"><ele>584.0</ele><time>2026-05-03T15:26:50.098Z</time></trkpt><trkpt lat="44.3364797" lon="7.5379088"><ele>584.0</ele><time>2026-05-03T15:26:51.098Z</time></trkpt><trkpt lat="44.3364695" lon="7.5381525"><ele>584.0</ele><time>2026-05-03T15:26:52.097Z</time></trkpt><trkpt lat="44.3364647" lon="7.5383969"><ele>584.0</ele><time>2026-05-03T15:26:53.098Z</time></trkpt><trkpt lat="44.3364545" lon="7.5386517"><ele>584.0</ele><time>2026-05-03T15:26:54.098Z</time></trkpt><trkpt lat="44.3364679" lon="7.5388724"><ele>583.6666666666666</ele><time>2026-05-03T15:26:55.098Z</time></trkpt><trkpt lat="44.3364592" lon="7.5391301"><ele>583.3333333333334</ele><time>2026-05-03T15:26:56.098Z</time></trkpt><trkpt lat="44.3364646" lon="7.5393636"><ele>583.0</ele><time>2026-05-03T15:26:57.098Z</time></trkpt><trkpt lat="44.3364843" lon="7.5396225"><ele>582.6666666666667</ele><time>2026-05-03T15:26:58.098Z</time></trkpt><trkpt lat="44.3365016" lon="7.5398824"><ele>582.3333333333334</ele><time>2026-05-03T15:26:59.098Z</time></trkpt><trkpt lat="44.3365204" lon="7.5401078"><ele>582.0</ele><time>2026-05-03T15:27:00.098Z</time></trkpt><trkpt lat="44.3365722" lon="7.5403484"><ele>582.0</ele><time>2026-05-03T15:27:01.098Z</time></trkpt><trkpt lat="44.336617" lon="7.5405756"><ele>582.0</ele><time>2026-05-03T15:27:02.098Z</time></trkpt><trkpt lat="44.3366812" lon="7.5408038"><ele>582.0</ele><time>2026-05-03T15:27:03.097Z</time></trkpt><trkpt lat="44.3367447" lon="7.5410277"><ele>582.0</ele><time>2026-05-03T15:27:04.097Z</time></trkpt><trkpt lat="44.336794" lon="7.5412275"><ele>582.0</ele><time>2026-05-03T15:27:05.098Z</time></trkpt><trkpt lat="44.3368521" lon="7.5414274"><ele>582.0</ele><time>2026-05-03T15:27:06.098Z</time></trkpt><trkpt lat="44.3369265" lon="7.5416217"><ele>582.0</ele><time>2026-05-03T15:27:07.098Z</time></trkpt><trkpt lat="44.3369927" lon="7.5418246"><ele>582.0</ele><time>2026-05-03T15:27:08.098Z</time></trkpt><trkpt lat="44.3370703" lon="7.542014"><ele>582.0</ele><time>2026-05-03T15:27:09.098Z</time></trkpt><trkpt lat="44.3371478" lon="7.5421962"><ele>581.5</ele><time>2026-05-03T15:27:10.098Z</time></trkpt><trkpt lat="44.3372211" lon="7.5423655"><ele>581.0</ele><time>2026-05-03T15:27:11.098Z</time></trkpt><trkpt lat="44.3372872" lon="7.5425461"><ele>580.5</ele><time>2026-05-03T15:27:12.097Z</time></trkpt><trkpt lat="44.3373496" lon="7.5426869"><ele>580.0</ele><time>2026-05-03T15:27:13.097Z</time></trkpt><trkpt lat="44.3374137" lon="7.5428282"><ele>580.25</ele><time>2026-05-03T15:27:14.098Z</time></trkpt><trkpt lat="44.337486" lon="7.5429854"><ele>580.5</ele><time>2026-05-03T15:27:15.098Z</time></trkpt><trkpt lat="44.3375533" lon="7.5431233"><ele>580.75</ele><time>2026-05-03T15:27:16.098Z</time></trkpt><trkpt lat="44.3376222" lon="7.5432747"><ele>581.0</ele><time>2026-05-03T15:27:17.098Z</time></trkpt><trkpt lat="44.3376791" lon="7.543402"><ele>581.0</ele><time>2026-05-03T15:27:18.098Z</time></trkpt><trkpt lat="44.3377184" lon="7.5435249"><ele>581.0</ele><time>2026-05-03T15:27:19.097Z</time></trkpt><trkpt lat="44.3377488" lon="7.5436396"><ele>581.0</ele><time>2026-05-03T15:27:20.098Z</time></trkpt><trkpt lat="44.3377559" lon="7.5437614"><ele>581.0</ele><time>2026-05-03T15:27:21.098Z</time></trkpt><trkpt lat="44.3377794" lon="7.5439093"><ele>581.0</ele><time>2026-05-03T15:27:22.097Z</time></trkpt><trkpt lat="44.3378047" lon="7.5439948"><ele>581.0</ele><time>2026-05-03T15:27:23.098Z</time></trkpt><trkpt lat="44.3378583" lon="7.5440471"><ele>581.0</ele><time>2026-05-03T15:27:24.097Z</time></trkpt><trkpt lat="44.3379526" lon="7.5441191"><ele>581.0</ele><time>2026-05-03T15:27:26.098Z</time></trkpt><trkpt lat="44.338074" lon="7.5441709"><ele>581.0</ele><time>2026-05-03T15:27:27.098Z</time></trkpt><trkpt lat="44.3381421" lon="7.5441849"><ele>581.0</ele><time>2026-05-03T15:27:28.097Z</time></trkpt><trkpt lat="44.3382238" lon="7.5442576"><ele>581.0</ele><time>2026-05-03T15:27:29.098Z</time></trkpt><trkpt lat="44.3384311" lon="7.5443526"><ele>581.0</ele><time>2026-05-03T15:27:30.097Z</time></trkpt><trkpt lat="44.3386263" lon="7.5443734"><ele>581.0</ele><time>2026-05-03T15:27:31.098Z</time></trkpt><trkpt lat="44.3387792" lon="7.5444431"><ele>581.0</ele><time>2026-05-03T15:27:32.098Z</time></trkpt><trkpt lat="44.3389806" lon="7.5445071"><ele>580.6666666666666</ele><time>2026-05-03T15:27:33.098Z</time></trkpt><trkpt lat="44.339153" lon="7.5446093"><ele>580.3333333333334</ele><time>2026-05-03T15:27:34.098Z</time></trkpt><trkpt lat="44.3393348" lon="7.5447103"><ele>580.0</ele><time>2026-05-03T15:27:35.097Z</time></trkpt><trkpt lat="44.3395157" lon="7.5448047"><ele>580.0</ele><time>2026-05-03T15:27:36.098Z</time></trkpt><trkpt lat="44.3396767" lon="7.5449077"><ele>580.0</ele><time>2026-05-03T15:27:37.098Z</time></trkpt><trkpt lat="44.3398212" lon="7.5449956"><ele>580.0</ele><time>2026-05-03T15:27:38.098Z</time></trkpt><trkpt lat="44.3400406" lon="7.5450325"><ele>579.3333333333334</ele><time>2026-05-03T15:27:39.098Z</time></trkpt><trkpt lat="44.3402276" lon="7.5450929"><ele>578.6666666666666</ele><time>2026-05-03T15:27:40.098Z</time></trkpt><trkpt lat="44.3404079" lon="7.5451352"><ele>578.0</ele><time>2026-05-03T15:27:41.097Z</time></trkpt><trkpt lat="44.3405938" lon="7.5451904"><ele>578.0</ele><time>2026-05-03T15:27:42.098Z</time></trkpt><trkpt lat="44.3407786" lon="7.5452422"><ele>578.0</ele><time>2026-05-03T15:27:43.098Z</time></trkpt><trkpt lat="44.3410211" lon="7.5452461"><ele>578.0</ele><time>2026-05-03T15:27:44.098Z</time></trkpt><trkpt lat="44.3412209" lon="7.5452764"><ele>577.3333333333333</ele><time>2026-05-03T15:27:45.098Z</time></trkpt><trkpt lat="44.3414372" lon="7.545295"><ele>576.6666666666666</ele><time>2026-05-03T15:27:46.098Z</time></trkpt><trkpt lat="44.3416571" lon="7.5453049"><ele>576.0</ele><time>2026-05-03T15:27:47.098Z</time></trkpt><trkpt lat="44.3418507" lon="7.5453403"><ele>576.0</ele><time>2026-05-03T15:27:48.098Z</time></trkpt><trkpt lat="44.342043" lon="7.5453455"><ele>576.0</ele><time>2026-05-03T15:27:49.097Z</time></trkpt><trkpt lat="44.3422764" lon="7.5453386"><ele>576.0</ele><time>2026-05-03T15:27:50.098Z</time></trkpt><trkpt lat="44.3425179" lon="7.545332"><ele>576.0</ele><time>2026-05-03T15:27:51.098Z</time></trkpt><trkpt lat="44.3427081" lon="7.5453511"><ele>576.0</ele><time>2026-05-03T15:27:52.098Z</time></trkpt><trkpt lat="44.3429227" lon="7.5453901"><ele>576.0</ele><time>2026-05-03T15:27:53.098Z</time></trkpt><trkpt lat="44.3431218" lon="7.5454044"><ele>575.3333333333334</ele><time>2026-05-03T15:27:54.098Z</time></trkpt><trkpt lat="44.3432703" lon="7.5454347"><ele>574.6666666666667</ele><time>2026-05-03T15:27:55.097Z</time></trkpt><trkpt lat="44.3434739" lon="7.5454484"><ele>574.0</ele><time>2026-05-03T15:27:56.098Z</time></trkpt><trkpt lat="44.3436769" lon="7.5454491"><ele>574.0</ele><time>2026-05-03T15:27:57.098Z</time></trkpt><trkpt lat="44.3438372" lon="7.5454697"><ele>574.0</ele><time>2026-05-03T15:27:58.098Z</time></trkpt><trkpt lat="44.3440444" lon="7.5455323"><ele>574.0</ele><time>2026-05-03T15:27:59.098Z</time></trkpt><trkpt lat="44.3442239" lon="7.5455556"><ele>574.0</ele><time>2026-05-03T15:28:00.098Z</time></trkpt><trkpt lat="44.3444194" lon="7.5455684"><ele>574.0</ele><time>2026-05-03T15:28:01.098Z</time></trkpt><trkpt lat="44.3446251" lon="7.5456025"><ele>574.0</ele><time>2026-05-03T15:28:02.097Z</time></trkpt><trkpt lat="44.3448126" lon="7.5456398"><ele>573.6666666666667</ele><time>2026-05-03T15:28:03.097Z</time></trkpt><trkpt lat="44.3449818" lon="7.5456549"><ele>573.3333333333334</ele><time>2026-05-03T15:28:04.098Z</time></trkpt><trkpt lat="44.3451796" lon="7.5456677"><ele>573.0</ele><time>2026-05-03T15:28:05.098Z</time></trkpt><trkpt lat="44.3453781" lon="7.5457017"><ele>572.6666666666666</ele><time>2026-05-03T15:28:06.098Z</time></trkpt><trkpt lat="44.3455551" lon="7.545731"><ele>572.3333333333333</ele><time>2026-05-03T15:28:07.098Z</time></trkpt><trkpt lat="44.3457271" lon="7.54576"><ele>572.0</ele><time>2026-05-03T15:28:08.098Z</time></trkpt><trkpt lat="44.3458369" lon="7.5457847"><ele>572.0</ele><time>2026-05-03T15:28:09.098Z</time></trkpt><trkpt lat="44.3459696" lon="7.5458222"><ele>572.0</ele><time>2026-05-03T15:28:10.098Z</time></trkpt><trkpt lat="44.346117" lon="7.5458489"><ele>572.0</ele><time>2026-05-03T15:28:11.098Z</time></trkpt><trkpt lat="44.34623" lon="7.5458855"><ele>572.0</ele><time>2026-05-03T15:28:12.098Z</time></trkpt><trkpt lat="44.3463311" lon="7.5459131"><ele>571.8000000000001</ele><time>2026-05-03T15:28:13.098Z</time></trkpt><trkpt lat="44.3464368" lon="7.545954"><ele>571.6</ele><time>2026-05-03T15:28:14.098Z</time></trkpt><trkpt lat="44.3465609" lon="7.5459828"><ele>571.4000000000001</ele><time>2026-05-03T15:28:15.098Z</time></trkpt><trkpt lat="44.3466373" lon="7.5459957"><ele>571.2</ele><time>2026-05-03T15:28:16.098Z</time></trkpt><trkpt lat="44.3467109" lon="7.5460276"><ele>571.0</ele><time>2026-05-03T15:28:17.098Z</time></trkpt><trkpt lat="44.3467949" lon="7.546068"><ele>571.0</ele><time>2026-05-03T15:28:18.098Z</time></trkpt><trkpt lat="44.3468789" lon="7.5460753"><ele>571.0</ele><time>2026-05-03T15:28:19.098Z</time></trkpt><trkpt lat="44.3470145" lon="7.5461063"><ele>571.0</ele><time>2026-05-03T15:28:21.097Z</time></trkpt><trkpt lat="44.347102" lon="7.5461229"><ele>571.0</ele><time>2026-05-03T15:28:23.098Z</time></trkpt><trkpt lat="44.3472208" lon="7.5461364"><ele>571.0</ele><time>2026-05-03T15:28:43.098Z</time></trkpt><trkpt lat="44.3472622" lon="7.5462309"><ele>571.0</ele><time>2026-05-03T15:28:46.098Z</time></trkpt><trkpt lat="44.3472433" lon="7.5463186"><ele>571.0</ele><time>2026-05-03T15:28:48.098Z</time></trkpt><trkpt lat="44.3471633" lon="7.5463878"><ele>571.0</ele><time>2026-05-03T15:28:53.098Z</time></trkpt><trkpt lat="44.3470836" lon="7.5463675"><ele>571.0</ele><time>2026-05-03T15:28:55.098Z</time></trkpt><trkpt lat="44.3470378" lon="7.5462768"><ele>571.0</ele><time>2026-05-03T15:28:57.098Z</time></trkpt><trkpt lat="44.347047" lon="7.5461598"><ele>571.0</ele><time>2026-05-03T15:29:00.098Z</time></trkpt><trkpt lat="44.3471136" lon="7.5461368"><ele>571.0</ele><time>2026-05-03T15:29:04.098Z</time></trkpt><trkpt lat="44.34722" lon="7.5461554"><ele>571.0</ele><time>2026-05-03T15:31:54.098Z</time></trkpt><trkpt lat="44.3472827" lon="7.5461931"><ele>571.0</ele><time>2026-05-03T15:33:29.098Z</time></trkpt><trkpt lat="44.3473491" lon="7.5461372"><ele>571.0</ele><time>2026-05-03T15:33:44.098Z</time></trkpt><trkpt lat="44.3474256" lon="7.546111"><ele>571.0</ele><time>2026-05-03T15:33:49.098Z</time></trkpt><trkpt lat="44.3475128" lon="7.54612"><ele>571.0</ele><time>2026-05-03T15:33:55.098Z</time></trkpt><trkpt lat="44.3476321" lon="7.5461189"><ele>571.0</ele><time>2026-05-03T15:33:56.098Z</time></trkpt><trkpt lat="44.3477245" lon="7.5461382"><ele>571.0</ele><time>2026-05-03T15:33:57.098Z</time></trkpt><trkpt lat="44.3478719" lon="7.5461648"><ele>571.0</ele><time>2026-05-03T15:33:58.098Z</time></trkpt><trkpt lat="44.3480325" lon="7.5461888"><ele>571.0</ele><time>2026-05-03T15:33:59.098Z</time></trkpt><trkpt lat="44.3481573" lon="7.5462042"><ele>571.25</ele><time>2026-05-03T15:34:00.098Z</time></trkpt><trkpt lat="44.3482722" lon="7.5462199"><ele>571.5</ele><time>2026-05-03T15:34:01.097Z</time></trkpt><trkpt lat="44.3484077" lon="7.5462277"><ele>571.75</ele><time>2026-05-03T15:34:02.098Z</time></trkpt><trkpt lat="44.3485434" lon="7.5462392"><ele>572.0</ele><time>2026-05-03T15:34:03.098Z</time></trkpt><trkpt lat="44.3487095" lon="7.5462636"><ele>571.6666666666666</ele><time>2026-05-03T15:34:04.097Z</time></trkpt><trkpt lat="44.3488925" lon="7.5462728"><ele>571.3333333333334</ele><time>2026-05-03T15:34:05.097Z</time></trkpt><trkpt lat="44.3490577" lon="7.5462847"><ele>571.0</ele><time>2026-05-03T15:34:06.098Z</time></trkpt><trkpt lat="44.3492064" lon="7.5462967"><ele>571.0</ele><time>2026-05-03T15:34:07.098Z</time></trkpt><trkpt lat="44.3493658" lon="7.5463274"><ele>571.0</ele><time>2026-05-03T15:34:08.098Z</time></trkpt><trkpt lat="44.3495432" lon="7.54638"><ele>571.0</ele><time>2026-05-03T15:34:09.098Z</time></trkpt><trkpt lat="44.3497126" lon="7.5464029"><ele>570.6666666666667</ele><time>2026-05-03T15:34:10.098Z</time></trkpt><trkpt lat="44.3498815" lon="7.5464455"><ele>570.3333333333334</ele><time>2026-05-03T15:34:11.098Z</time></trkpt><trkpt lat="44.3500547" lon="7.5464842"><ele>570.0</ele><time>2026-05-03T15:34:12.098Z</time></trkpt><trkpt lat="44.3502379" lon="7.5465269"><ele>570.0</ele><time>2026-05-03T15:34:13.098Z</time></trkpt><trkpt lat="44.3504164" lon="7.5465592"><ele>570.0</ele><time>2026-05-03T15:34:14.098Z</time></trkpt><trkpt lat="44.3505913" lon="7.5465944"><ele>570.0</ele><time>2026-05-03T15:34:15.098Z</time></trkpt><trkpt lat="44.350779" lon="7.5466497"><ele>570.6666666666666</ele><time>2026-05-03T15:34:16.098Z</time></trkpt><trkpt lat="44.3509547" lon="7.5466965"><ele>571.3333333333333</ele><time>2026-05-03T15:34:17.097Z</time></trkpt><trkpt lat="44.35114" lon="7.5467311"><ele>572.0</ele><time>2026-05-03T15:34:18.098Z</time></trkpt><trkpt lat="44.3513362" lon="7.54679"><ele>571.3333333333333</ele><time>2026-05-03T15:34:19.098Z</time></trkpt><trkpt lat="44.3515226" lon="7.546827"><ele>570.6666666666666</ele><time>2026-05-03T15:34:20.098Z</time></trkpt><trkpt lat="44.3517041" lon="7.5468643"><ele>570.0</ele><time>2026-05-03T15:34:21.098Z</time></trkpt><trkpt lat="44.3518952" lon="7.5469013"><ele>570.0</ele><time>2026-05-03T15:34:22.097Z</time></trkpt><trkpt lat="44.3521022" lon="7.546944"><ele>570.0</ele><time>2026-05-03T15:34:23.098Z</time></trkpt><trkpt lat="44.3523211" lon="7.5470197"><ele>570.0</ele><time>2026-05-03T15:34:24.098Z</time></trkpt><trkpt lat="44.3525429" lon="7.5470825"><ele>568.5</ele><time>2026-05-03T15:34:25.098Z</time></trkpt><trkpt lat="44.3527848" lon="7.5471877"><ele>567.0</ele><time>2026-05-03T15:34:26.098Z</time></trkpt><trkpt lat="44.3530013" lon="7.5472592"><ele>566.5</ele><time>2026-05-03T15:34:27.098Z</time></trkpt><trkpt lat="44.3532319" lon="7.5473581"><ele>566.0</ele><time>2026-05-03T15:34:28.097Z</time></trkpt><trkpt lat="44.3534557" lon="7.5474262"><ele>566.0</ele><time>2026-05-03T15:34:29.098Z</time></trkpt><trkpt lat="44.3536531" lon="7.5474822"><ele>566.0</ele><time>2026-05-03T15:34:30.098Z</time></trkpt><trkpt lat="44.3538393" lon="7.5475448"><ele>566.0</ele><time>2026-05-03T15:34:31.098Z</time></trkpt><trkpt lat="44.3540241" lon="7.5475918"><ele>566.3333333333333</ele><time>2026-05-03T15:34:32.097Z</time></trkpt><trkpt lat="44.3542205" lon="7.5476567"><ele>566.6666666666666</ele><time>2026-05-03T15:34:33.098Z</time></trkpt><trkpt lat="44.3544226" lon="7.5477109"><ele>567.0</ele><time>2026-05-03T15:34:34.098Z</time></trkpt><trkpt lat="44.3546094" lon="7.5477663"><ele>566.6666666666666</ele><time>2026-05-03T15:34:35.097Z</time></trkpt><trkpt lat="44.3548029" lon="7.5478413"><ele>566.3333333333333</ele><time>2026-05-03T15:34:36.098Z</time></trkpt><trkpt lat="44.3549916" lon="7.5479102"><ele>566.0</ele><time>2026-05-03T15:34:37.098Z</time></trkpt><trkpt lat="44.3551914" lon="7.5479762"><ele>565.6666666666666</ele><time>2026-05-03T15:34:38.098Z</time></trkpt><trkpt lat="44.3553892" lon="7.548037"><ele>565.3333333333334</ele><time>2026-05-03T15:34:39.098Z</time></trkpt><trkpt lat="44.3555948" lon="7.548119"><ele>565.0</ele><time>2026-05-03T15:34:40.097Z</time></trkpt><trkpt lat="44.3558114" lon="7.548216"><ele>564.6666666666667</ele><time>2026-05-03T15:34:41.098Z</time></trkpt><trkpt lat="44.3560282" lon="7.5482727"><ele>564.3333333333334</ele><time>2026-05-03T15:34:42.098Z</time></trkpt><trkpt lat="44.3562266" lon="7.5483379"><ele>564.0</ele><time>2026-05-03T15:34:43.097Z</time></trkpt><trkpt lat="44.356441" lon="7.5484094"><ele>564.0</ele><time>2026-05-03T15:34:44.098Z</time></trkpt><trkpt lat="44.3566611" lon="7.5484624"><ele>564.0</ele><time>2026-05-03T15:34:45.098Z</time></trkpt><trkpt lat="44.3568857" lon="7.5485211"><ele>564.0</ele><time>2026-05-03T15:34:46.098Z</time></trkpt><trkpt lat="44.3571277" lon="7.5485925"><ele>564.0</ele><time>2026-05-03T15:34:47.097Z</time></trkpt><trkpt lat="44.357371" lon="7.5486743"><ele>563.0</ele><time>2026-05-03T15:34:48.097Z</time></trkpt><trkpt lat="44.3576068" lon="7.5487513"><ele>562.0</ele><time>2026-05-03T15:34:49.098Z</time></trkpt><trkpt lat="44.357846" lon="7.5488377"><ele>558.5</ele><time>2026-05-03T15:34:50.098Z</time></trkpt><trkpt lat="44.3581003" lon="7.5489249"><ele>555.0</ele><time>2026-05-03T15:34:51.098Z</time></trkpt><trkpt lat="44.3583865" lon="7.5490608"><ele>555.0</ele><time>2026-05-03T15:34:52.098Z</time></trkpt><trkpt lat="44.3586344" lon="7.5491415"><ele>555.0</ele><time>2026-05-03T15:34:53.098Z</time></trkpt><trkpt lat="44.3588918" lon="7.5492245"><ele>553.5</ele><time>2026-05-03T15:34:54.098Z</time></trkpt><trkpt lat="44.3591519" lon="7.5493147"><ele>552.0</ele><time>2026-05-03T15:34:55.098Z</time></trkpt><trkpt lat="44.359403" lon="7.5494004"><ele>552.0</ele><time>2026-05-03T15:34:56.098Z</time></trkpt><trkpt lat="44.3596394" lon="7.54948"><ele>552.0</ele><time>2026-05-03T15:34:57.098Z</time></trkpt><trkpt lat="44.3598696" lon="7.5495533"><ele>552.3333333333334</ele><time>2026-05-03T15:34:58.098Z</time></trkpt><trkpt lat="44.360087" lon="7.5496134"><ele>552.6666666666667</ele><time>2026-05-03T15:34:59.098Z</time></trkpt><trkpt lat="44.3602998" lon="7.5496846"><ele>553.0</ele><time>2026-05-03T15:35:00.098Z</time></trkpt><trkpt lat="44.3605208" lon="7.5497508"><ele>551.3333333333334</ele><time>2026-05-03T15:35:01.098Z</time></trkpt><trkpt lat="44.3607397" lon="7.5498208"><ele>549.6666666666666</ele><time>2026-05-03T15:35:02.098Z</time></trkpt><trkpt lat="44.3609431" lon="7.5498788"><ele>548.0</ele><time>2026-05-03T15:35:03.098Z</time></trkpt><trkpt lat="44.3611645" lon="7.5499492"><ele>548.0</ele><time>2026-05-03T15:35:04.098Z</time></trkpt><trkpt lat="44.3613512" lon="7.5500307"><ele>548.0</ele><time>2026-05-03T15:35:05.097Z</time></trkpt><trkpt lat="44.3615469" lon="7.5500683"><ele>548.0</ele><time>2026-05-03T15:35:06.098Z</time></trkpt><trkpt lat="44.3617378" lon="7.5501207"><ele>548.0</ele><time>2026-05-03T15:35:07.098Z</time></trkpt><trkpt lat="44.3619104" lon="7.5501797"><ele>548.0</ele><time>2026-05-03T15:35:08.098Z</time></trkpt><trkpt lat="44.3621081" lon="7.550248"><ele>548.0</ele><time>2026-05-03T15:35:09.098Z</time></trkpt><trkpt lat="44.3623005" lon="7.5503008"><ele>548.0</ele><time>2026-05-03T15:35:10.097Z</time></trkpt><trkpt lat="44.36248" lon="7.5503476"><ele>548.0</ele><time>2026-05-03T15:35:11.098Z</time></trkpt><trkpt lat="44.3626755" lon="7.5504039"><ele>548.0</ele><time>2026-05-03T15:35:12.098Z</time></trkpt><trkpt lat="44.3628576" lon="7.5504848"><ele>547.0</ele><time>2026-05-03T15:35:13.098Z</time></trkpt><trkpt lat="44.3630476" lon="7.5505519"><ele>546.0</ele><time>2026-05-03T15:35:14.098Z</time></trkpt><trkpt lat="44.3632217" lon="7.5506148"><ele>545.0</ele><time>2026-05-03T15:35:15.097Z</time></trkpt><trkpt lat="44.3633957" lon="7.5506783"><ele>545.0</ele><time>2026-05-03T15:35:16.098Z</time></trkpt><trkpt lat="44.3635712" lon="7.5507297"><ele>545.0</ele><time>2026-05-03T15:35:17.098Z</time></trkpt><trkpt lat="44.3637356" lon="7.550777"><ele>545.0</ele><time>2026-05-03T15:35:18.098Z</time></trkpt><trkpt lat="44.3639161" lon="7.5508239"><ele>545.3333333333333</ele><time>2026-05-03T15:35:19.097Z</time></trkpt><trkpt lat="44.3640926" lon="7.5508775"><ele>545.6666666666666</ele><time>2026-05-03T15:35:20.098Z</time></trkpt><trkpt lat="44.3642568" lon="7.5509464"><ele>546.0</ele><time>2026-05-03T15:35:21.097Z</time></trkpt><trkpt lat="44.3644354" lon="7.5510161"><ele>546.0</ele><time>2026-05-03T15:35:22.097Z</time></trkpt><trkpt lat="44.3646051" lon="7.5510586"><ele>546.0</ele><time>2026-05-03T15:35:23.098Z</time></trkpt><trkpt lat="44.3647938" lon="7.5511231"><ele>546.0</ele><time>2026-05-03T15:35:24.098Z</time></trkpt><trkpt lat="44.3649922" lon="7.5511858"><ele>545.0</ele><time>2026-05-03T15:35:25.098Z</time></trkpt><trkpt lat="44.3651611" lon="7.5512347"><ele>544.0</ele><time>2026-05-03T15:35:26.098Z</time></trkpt><trkpt lat="44.365333" lon="7.5512926"><ele>543.0</ele><time>2026-05-03T15:35:27.098Z</time></trkpt><trkpt lat="44.3655014" lon="7.551348"><ele>543.3333333333334</ele><time>2026-05-03T15:35:28.098Z</time></trkpt><trkpt lat="44.3656914" lon="7.5514006"><ele>543.6666666666667</ele><time>2026-05-03T15:35:29.098Z</time></trkpt><trkpt lat="44.3658482" lon="7.5514658"><ele>544.0</ele><time>2026-05-03T15:35:30.098Z</time></trkpt><trkpt lat="44.3659969" lon="7.5515004"><ele>544.0</ele><time>2026-05-03T15:35:31.098Z</time></trkpt><trkpt lat="44.3661709" lon="7.5515498"><ele>544.0</ele><time>2026-05-03T15:35:32.098Z</time></trkpt><trkpt lat="44.3663436" lon="7.5516199"><ele>544.0</ele><time>2026-05-03T15:35:33.098Z</time></trkpt><trkpt lat="44.3665054" lon="7.5516861"><ele>542.6666666666667</ele><time>2026-05-03T15:35:34.098Z</time></trkpt><trkpt lat="44.3666898" lon="7.5517475"><ele>541.3333333333334</ele><time>2026-05-03T15:35:35.098Z</time></trkpt><trkpt lat="44.3668643" lon="7.5517859"><ele>540.0</ele><time>2026-05-03T15:35:36.098Z</time></trkpt><trkpt lat="44.3670497" lon="7.5518578"><ele>540.0</ele><time>2026-05-03T15:35:37.098Z</time></trkpt><trkpt lat="44.3672181" lon="7.5519158"><ele>540.0</ele><time>2026-05-03T15:35:38.098Z</time></trkpt><trkpt lat="44.3674084" lon="7.5519717"><ele>540.0</ele><time>2026-05-03T15:35:39.097Z</time></trkpt><trkpt lat="44.3675892" lon="7.5520261"><ele>540.0</ele><time>2026-05-03T15:35:40.098Z</time></trkpt><trkpt lat="44.3677697" lon="7.5520833"><ele>540.0</ele><time>2026-05-03T15:35:41.097Z</time></trkpt><trkpt lat="44.3679507" lon="7.5521503"><ele>540.0</ele><time>2026-05-03T15:35:42.097Z</time></trkpt><trkpt lat="44.3681312" lon="7.552219"><ele>538.0</ele><time>2026-05-03T15:35:43.098Z</time></trkpt><trkpt lat="44.3691789" lon="7.5526246"><ele>538.0</ele><time>2026-05-03T15:35:48.098Z</time></trkpt><trkpt lat="44.3693524" lon="7.5526254"><ele>538.0</ele><time>2026-05-03T15:35:49.098Z</time></trkpt><trkpt lat="44.3694686" lon="7.5526644"><ele>538.0</ele><time>2026-05-03T15:35:50.098Z</time></trkpt><trkpt lat="44.3696742" lon="7.5527359"><ele>537.3333333333334</ele><time>2026-05-03T15:35:51.098Z</time></trkpt><trkpt lat="44.3698611" lon="7.5528078"><ele>536.6666666666666</ele><time>2026-05-03T15:35:52.098Z</time></trkpt><trkpt lat="44.3700274" lon="7.5528537"><ele>536.0</ele><time>2026-05-03T15:35:53.098Z</time></trkpt><trkpt lat="44.3702604" lon="7.5529132"><ele>536.0</ele><time>2026-05-03T15:35:54.098Z</time></trkpt><trkpt lat="44.3704622" lon="7.5529608"><ele>536.0</ele><time>2026-05-03T15:35:55.097Z</time></trkpt><trkpt lat="44.3706657" lon="7.5530247"><ele>536.0</ele><time>2026-05-03T15:35:56.098Z</time></trkpt><trkpt lat="44.3708916" lon="7.5530878"><ele>535.6666666666666</ele><time>2026-05-03T15:35:57.098Z</time></trkpt><trkpt lat="44.3710989" lon="7.5531552"><ele>535.3333333333334</ele><time>2026-05-03T15:35:58.098Z</time></trkpt><trkpt lat="44.3713127" lon="7.5532321"><ele>535.0</ele><time>2026-05-03T15:35:59.098Z</time></trkpt><trkpt lat="44.3715265" lon="7.5532997"><ele>532.5</ele><time>2026-05-03T15:36:00.098Z</time></trkpt><trkpt lat="44.3717541" lon="7.5533766"><ele>530.0</ele><time>2026-05-03T15:36:01.098Z</time></trkpt><trkpt lat="44.3719766" lon="7.5534442"><ele>530.0</ele><time>2026-05-03T15:36:02.098Z</time></trkpt><trkpt lat="44.3721866" lon="7.5535233"><ele>530.0</ele><time>2026-05-03T15:36:03.098Z</time></trkpt><trkpt lat="44.3723802" lon="7.5535841"><ele>530.0</ele><time>2026-05-03T15:36:04.098Z</time></trkpt><trkpt lat="44.3725912" lon="7.5536498"><ele>530.0</ele><time>2026-05-03T15:36:05.098Z</time></trkpt><trkpt lat="44.3728011" lon="7.5537084"><ele>530.0</ele><time>2026-05-03T15:36:06.097Z</time></trkpt><trkpt lat="44.3729855" lon="7.5537825"><ele>530.0</ele><time>2026-05-03T15:36:07.098Z</time></trkpt><trkpt lat="44.3732033" lon="7.5538593"><ele>530.0</ele><time>2026-05-03T15:36:08.098Z</time></trkpt><trkpt lat="44.3734038" lon="7.5539668"><ele>530.0</ele><time>2026-05-03T15:36:09.098Z</time></trkpt><trkpt lat="44.3736105" lon="7.5540665"><ele>530.0</ele><time>2026-05-03T15:36:10.097Z</time></trkpt><trkpt lat="44.3738203" lon="7.5541443"><ele>529.3333333333333</ele><time>2026-05-03T15:36:11.098Z</time></trkpt><trkpt lat="44.3740173" lon="7.5542156"><ele>528.6666666666666</ele><time>2026-05-03T15:36:12.098Z</time></trkpt><trkpt lat="44.374222" lon="7.554317"><ele>528.0</ele><time>2026-05-03T15:36:13.097Z</time></trkpt><trkpt lat="44.3744059" lon="7.5544276"><ele>528.0</ele><time>2026-05-03T15:36:14.098Z</time></trkpt><trkpt lat="44.3746077" lon="7.554519"><ele>528.0</ele><time>2026-05-03T15:36:15.098Z</time></trkpt><trkpt lat="44.3748053" lon="7.5546247"><ele>528.0</ele><time>2026-05-03T15:36:16.098Z</time></trkpt><trkpt lat="44.3750007" lon="7.5547376"><ele>527.3333333333334</ele><time>2026-05-03T15:36:17.098Z</time></trkpt><trkpt lat="44.3752069" lon="7.5548666"><ele>526.6666666666667</ele><time>2026-05-03T15:36:18.098Z</time></trkpt><trkpt lat="44.3754039" lon="7.554983"><ele>526.0</ele><time>2026-05-03T15:36:19.098Z</time></trkpt><trkpt lat="44.3756042" lon="7.5550961"><ele>526.0</ele><time>2026-05-03T15:36:20.097Z</time></trkpt><trkpt lat="44.3757973" lon="7.5552202"><ele>526.0</ele><time>2026-05-03T15:36:21.098Z</time></trkpt><trkpt lat="44.3759826" lon="7.5553547"><ele>526.0</ele><time>2026-05-03T15:36:22.097Z</time></trkpt><trkpt lat="44.3761717" lon="7.5554855"><ele>525.3333333333334</ele><time>2026-05-03T15:36:23.098Z</time></trkpt><trkpt lat="44.3763553" lon="7.5556152"><ele>524.6666666666666</ele><time>2026-05-03T15:36:24.098Z</time></trkpt><trkpt lat="44.3765356" lon="7.5557512"><ele>524.0</ele><time>2026-05-03T15:36:25.098Z</time></trkpt><trkpt lat="44.3767205" lon="7.5558892"><ele>524.0</ele><time>2026-05-03T15:36:26.098Z</time></trkpt><trkpt lat="44.3768968" lon="7.556018"><ele>524.0</ele><time>2026-05-03T15:36:27.098Z</time></trkpt><trkpt lat="44.3770728" lon="7.556146"><ele>524.0</ele><time>2026-05-03T15:36:28.097Z</time></trkpt><trkpt lat="44.3772667" lon="7.5562907"><ele>523.3333333333333</ele><time>2026-05-03T15:36:29.098Z</time></trkpt><trkpt lat="44.3774272" lon="7.5564215"><ele>522.6666666666666</ele><time>2026-05-03T15:36:30.098Z</time></trkpt><trkpt lat="44.3776001" lon="7.5565709"><ele>522.0</ele><time>2026-05-03T15:36:31.097Z</time></trkpt><trkpt lat="44.3777295" lon="7.5566702"><ele>522.0</ele><time>2026-05-03T15:36:32.098Z</time></trkpt><trkpt lat="44.3778954" lon="7.5568155"><ele>522.0</ele><time>2026-05-03T15:36:33.098Z</time></trkpt><trkpt lat="44.3780789" lon="7.5569625"><ele>522.0</ele><time>2026-05-03T15:36:34.098Z</time></trkpt><trkpt lat="44.3782259" lon="7.5570712"><ele>522.6666666666666</ele><time>2026-05-03T15:36:35.098Z</time></trkpt><trkpt lat="44.3783699" lon="7.5571938"><ele>523.3333333333333</ele><time>2026-05-03T15:36:36.098Z</time></trkpt><trkpt lat="44.3785413" lon="7.5573298"><ele>524.0</ele><time>2026-05-03T15:36:37.098Z</time></trkpt><trkpt lat="44.378674" lon="7.557443"><ele>524.0</ele><time>2026-05-03T15:36:38.098Z</time></trkpt><trkpt lat="44.3788214" lon="7.5575662"><ele>524.0</ele><time>2026-05-03T15:36:39.098Z</time></trkpt><trkpt lat="44.3789608" lon="7.5576803"><ele>524.0</ele><time>2026-05-03T15:36:40.098Z</time></trkpt><trkpt lat="44.3790976" lon="7.5577899"><ele>523.3333333333333</ele><time>2026-05-03T15:36:41.098Z</time></trkpt><trkpt lat="44.3792236" lon="7.5578989"><ele>522.6666666666666</ele><time>2026-05-03T15:36:42.098Z</time></trkpt><trkpt lat="44.3793707" lon="7.5580149"><ele>522.0</ele><time>2026-05-03T15:36:43.098Z</time></trkpt><trkpt lat="44.3795163" lon="7.5581335"><ele>522.0</ele><time>2026-05-03T15:36:44.098Z</time></trkpt><trkpt lat="44.3796607" lon="7.5582582"><ele>522.0</ele><time>2026-05-03T15:36:45.098Z</time></trkpt><trkpt lat="44.3798071" lon="7.5583659"><ele>522.0</ele><time>2026-05-03T15:36:46.098Z</time></trkpt><trkpt lat="44.3799412" lon="7.5584743"><ele>521.6666666666666</ele><time>2026-05-03T15:36:47.098Z</time></trkpt><trkpt lat="44.3800857" lon="7.5585936"><ele>521.3333333333333</ele><time>2026-05-03T15:36:48.097Z</time></trkpt><trkpt lat="44.3802024" lon="7.5586823"><ele>521.0</ele><time>2026-05-03T15:36:49.097Z</time></trkpt><trkpt lat="44.3803366" lon="7.5587897"><ele>521.0</ele><time>2026-05-03T15:36:50.098Z</time></trkpt><trkpt lat="44.3805011" lon="7.5589053"><ele>521.0</ele><time>2026-05-03T15:36:51.098Z</time></trkpt><trkpt lat="44.3806242" lon="7.5590094"><ele>521.0</ele><time>2026-05-03T15:36:52.097Z</time></trkpt><trkpt lat="44.3807368" lon="7.5591274"><ele>521.0</ele><time>2026-05-03T15:36:53.098Z</time></trkpt><trkpt lat="44.3808499" lon="7.5592245"><ele>521.0</ele><time>2026-05-03T15:36:54.098Z</time></trkpt><trkpt lat="44.3809774" lon="7.5593378"><ele>521.0</ele><time>2026-05-03T15:36:55.098Z</time></trkpt><trkpt lat="44.3810904" lon="7.5594347"><ele>521.0</ele><time>2026-05-03T15:36:56.098Z</time></trkpt><trkpt lat="44.3812055" lon="7.5595358"><ele>521.0</ele><time>2026-05-03T15:36:57.098Z</time></trkpt><trkpt lat="44.3813211" lon="7.5596373"><ele>521.0</ele><time>2026-05-03T15:36:58.098Z</time></trkpt><trkpt lat="44.3814517" lon="7.5597393"><ele>521.0</ele><time>2026-05-03T15:36:59.098Z</time></trkpt><trkpt lat="44.3815731" lon="7.5598439"><ele>521.0</ele><time>2026-05-03T15:37:00.098Z</time></trkpt><trkpt lat="44.3817075" lon="7.559955"><ele>520.5</ele><time>2026-05-03T15:37:01.098Z</time></trkpt><trkpt lat="44.3818233" lon="7.5600596"><ele>520.0</ele><time>2026-05-03T15:37:02.098Z</time></trkpt><trkpt lat="44.3819379" lon="7.560179"><ele>519.5</ele><time>2026-05-03T15:37:03.097Z</time></trkpt><trkpt lat="44.382043" lon="7.56025"><ele>519.0</ele><time>2026-05-03T15:37:04.097Z</time></trkpt><trkpt lat="44.3821481" lon="7.5603395"><ele>518.4</ele><time>2026-05-03T15:37:05.098Z</time></trkpt><trkpt lat="44.3822057" lon="7.5604115"><ele>517.8</ele><time>2026-05-03T15:37:06.097Z</time></trkpt><trkpt lat="44.3822808" lon="7.5605304"><ele>517.2</ele><time>2026-05-03T15:37:07.098Z</time></trkpt><trkpt lat="44.382356" lon="7.5606188"><ele>516.6</ele><time>2026-05-03T15:37:08.098Z</time></trkpt><trkpt lat="44.3824137" lon="7.5607383"><ele>516.0</ele><time>2026-05-03T15:37:09.098Z</time></trkpt><trkpt lat="44.3824621" lon="7.5608454"><ele>516.0</ele><time>2026-05-03T15:37:10.098Z</time></trkpt><trkpt lat="44.3825392" lon="7.5609938"><ele>516.0</ele><time>2026-05-03T15:37:11.098Z</time></trkpt><trkpt lat="44.3825994" lon="7.5610984"><ele>516.0</ele><time>2026-05-03T15:37:12.098Z</time></trkpt><trkpt lat="44.3826499" lon="7.5611674"><ele>516.0</ele><time>2026-05-03T15:37:13.098Z</time></trkpt><trkpt lat="44.3827212" lon="7.5613"><ele>516.0</ele><time>2026-05-03T15:37:14.098Z</time></trkpt><trkpt lat="44.3828142" lon="7.5614587"><ele>516.25</ele><time>2026-05-03T15:37:15.097Z</time></trkpt><trkpt lat="44.3828808" lon="7.5616164"><ele>516.5</ele><time>2026-05-03T15:37:16.098Z</time></trkpt><trkpt lat="44.3829447" lon="7.5617814"><ele>516.75</ele><time>2026-05-03T15:37:17.098Z</time></trkpt><trkpt lat="44.3830181" lon="7.5619727"><ele>517.0</ele><time>2026-05-03T15:37:18.098Z</time></trkpt><trkpt lat="44.3830575" lon="7.5621503"><ele>517.0</ele><time>2026-05-03T15:37:19.097Z</time></trkpt><trkpt lat="44.3830955" lon="7.5623283"><ele>517.0</ele><time>2026-05-03T15:37:20.098Z</time></trkpt><trkpt lat="44.3831308" lon="7.562513"><ele>517.0</ele><time>2026-05-03T15:37:21.098Z</time></trkpt><trkpt lat="44.3831657" lon="7.5627058"><ele>517.0</ele><time>2026-05-03T15:37:22.097Z</time></trkpt><trkpt lat="44.3832041" lon="7.5628918"><ele>516.25</ele><time>2026-05-03T15:37:23.098Z</time></trkpt><trkpt lat="44.3832452" lon="7.5630914"><ele>515.5</ele><time>2026-05-03T15:37:24.097Z</time></trkpt><trkpt lat="44.3832817" lon="7.5632834"><ele>514.75</ele><time>2026-05-03T15:37:25.098Z</time></trkpt><trkpt lat="44.3833242" lon="7.5634898"><ele>514.0</ele><time>2026-05-03T15:37:26.098Z</time></trkpt><trkpt lat="44.3833668" lon="7.5637024"><ele>514.0</ele><time>2026-05-03T15:37:27.098Z</time></trkpt><trkpt lat="44.3834088" lon="7.5639072"><ele>514.0</ele><time>2026-05-03T15:37:28.098Z</time></trkpt><trkpt lat="44.3834432" lon="7.5641009"><ele>514.0</ele><time>2026-05-03T15:37:29.098Z</time></trkpt><trkpt lat="44.3834945" lon="7.5643041"><ele>514.0</ele><time>2026-05-03T15:37:30.098Z</time></trkpt><trkpt lat="44.3835353" lon="7.5644923"><ele>514.5</ele><time>2026-05-03T15:37:31.098Z</time></trkpt><trkpt lat="44.383582" lon="7.5646835"><ele>515.0</ele><time>2026-05-03T15:37:32.097Z</time></trkpt><trkpt lat="44.3836238" lon="7.5648609"><ele>515.5</ele><time>2026-05-03T15:37:33.098Z</time></trkpt><trkpt lat="44.3836644" lon="7.5650208"><ele>516.0</ele><time>2026-05-03T15:37:34.098Z</time></trkpt><trkpt lat="44.3837125" lon="7.565176"><ele>516.0</ele><time>2026-05-03T15:37:35.098Z</time></trkpt><trkpt lat="44.3837567" lon="7.5653021"><ele>516.0</ele><time>2026-05-03T15:37:36.098Z</time></trkpt><trkpt lat="44.3838027" lon="7.5654304"><ele>516.0</ele><time>2026-05-03T15:37:37.098Z</time></trkpt><trkpt lat="44.3838442" lon="7.5655541"><ele>516.0</ele><time>2026-05-03T15:37:38.098Z</time></trkpt><trkpt lat="44.3838865" lon="7.5656567"><ele>516.0</ele><time>2026-05-03T15:37:39.098Z</time></trkpt><trkpt lat="44.3839141" lon="7.5657533"><ele>516.0</ele><time>2026-05-03T15:37:40.098Z</time></trkpt><trkpt lat="44.3839438" lon="7.5658655"><ele>516.0</ele><time>2026-05-03T15:37:41.098Z</time></trkpt><trkpt lat="44.3839678" lon="7.5659545"><ele>516.0</ele><time>2026-05-03T15:37:42.098Z</time></trkpt><trkpt lat="44.3839873" lon="7.5660975"><ele>516.0</ele><time>2026-05-03T15:37:43.098Z</time></trkpt><trkpt lat="44.3839844" lon="7.5661992"><ele>516.0</ele><time>2026-05-03T15:37:44.097Z</time></trkpt><trkpt lat="44.383989" lon="7.5663425"><ele>516.0</ele><time>2026-05-03T15:37:45.098Z</time></trkpt><trkpt lat="44.3840237" lon="7.5664638"><ele>516.0</ele><time>2026-05-03T15:37:46.098Z</time></trkpt><trkpt lat="44.3840666" lon="7.5665924"><ele>516.0</ele><time>2026-05-03T15:37:47.098Z</time></trkpt><trkpt lat="44.3841157" lon="7.5666845"><ele>516.0</ele><time>2026-05-03T15:37:48.098Z</time></trkpt><trkpt lat="44.3841933" lon="7.566753"><ele>516.0</ele><time>2026-05-03T15:37:49.098Z</time></trkpt><trkpt lat="44.384287" lon="7.5668079"><ele>516.0</ele><time>2026-05-03T15:37:50.098Z</time></trkpt><trkpt lat="44.3843665" lon="7.5668169"><ele>516.0</ele><time>2026-05-03T15:37:51.097Z</time></trkpt><trkpt lat="44.384487" lon="7.5668283"><ele>516.0</ele><time>2026-05-03T15:37:52.098Z</time></trkpt><trkpt lat="44.3846428" lon="7.566906"><ele>516.0</ele><time>2026-05-03T15:37:53.098Z</time></trkpt><trkpt lat="44.3847706" lon="7.5670092"><ele>516.0</ele><time>2026-05-03T15:37:54.097Z</time></trkpt><trkpt lat="44.3848993" lon="7.5671089"><ele>515.0</ele><time>2026-05-03T15:37:55.097Z</time></trkpt><trkpt lat="44.3850075" lon="7.5672445"><ele>514.0</ele><time>2026-05-03T15:37:56.098Z</time></trkpt><trkpt lat="44.3851443" lon="7.5673699"><ele>513.0</ele><time>2026-05-03T15:37:57.098Z</time></trkpt><trkpt lat="44.3852812" lon="7.5675118"><ele>513.0</ele><time>2026-05-03T15:37:58.098Z</time></trkpt><trkpt lat="44.3854314" lon="7.5676627"><ele>513.0</ele><time>2026-05-03T15:37:59.098Z</time></trkpt><trkpt lat="44.3855957" lon="7.5678143"><ele>513.0</ele><time>2026-05-03T15:38:00.098Z</time></trkpt><trkpt lat="44.3857609" lon="7.5679831"><ele>513.0</ele><time>2026-05-03T15:38:01.098Z</time></trkpt><trkpt lat="44.3859298" lon="7.5681751"><ele>513.0</ele><time>2026-05-03T15:38:02.098Z</time></trkpt><trkpt lat="44.3860993" lon="7.5683592"><ele>513.0</ele><time>2026-05-03T15:38:03.098Z</time></trkpt><trkpt lat="44.3862739" lon="7.5685392"><ele>514.0</ele><time>2026-05-03T15:38:04.098Z</time></trkpt><trkpt lat="44.3864478" lon="7.5687128"><ele>515.0</ele><time>2026-05-03T15:38:05.098Z</time></trkpt><trkpt lat="44.3865784" lon="7.5688713"><ele>516.0</ele><time>2026-05-03T15:38:06.098Z</time></trkpt><trkpt lat="44.3867208" lon="7.569035"><ele>516.0</ele><time>2026-05-03T15:38:07.098Z</time></trkpt><trkpt lat="44.3868765" lon="7.5691896"><ele>516.0</ele><time>2026-05-03T15:38:08.098Z</time></trkpt><trkpt lat="44.3870152" lon="7.5693307"><ele>516.0</ele><time>2026-05-03T15:38:09.098Z</time></trkpt><trkpt lat="44.3871536" lon="7.5694993"><ele>515.3333333333334</ele><time>2026-05-03T15:38:10.098Z</time></trkpt><trkpt lat="44.3872941" lon="7.5696725"><ele>514.6666666666667</ele><time>2026-05-03T15:38:11.098Z</time></trkpt><trkpt lat="44.3874307" lon="7.5698189"><ele>514.0</ele><time>2026-05-03T15:38:12.098Z</time></trkpt><trkpt lat="44.3875754" lon="7.5699767"><ele>514.0</ele><time>2026-05-03T15:38:13.098Z</time></trkpt><trkpt lat="44.3877252" lon="7.5701276"><ele>514.0</ele><time>2026-05-03T15:38:14.097Z</time></trkpt><trkpt lat="44.3878634" lon="7.5702995"><ele>514.0</ele><time>2026-05-03T15:38:15.098Z</time></trkpt><trkpt lat="44.3880134" lon="7.5704502"><ele>514.0</ele><time>2026-05-03T15:38:16.097Z</time></trkpt><trkpt lat="44.3881492" lon="7.5706104"><ele>514.0</ele><time>2026-05-03T15:38:17.098Z</time></trkpt><trkpt lat="44.3882863" lon="7.570769"><ele>514.0</ele><time>2026-05-03T15:38:18.098Z</time></trkpt><trkpt lat="44.3884328" lon="7.5709235"><ele>514.0</ele><time>2026-05-03T15:38:19.098Z</time></trkpt><trkpt lat="44.3885816" lon="7.5710644"><ele>514.0</ele><time>2026-05-03T15:38:20.098Z</time></trkpt><trkpt lat="44.3887403" lon="7.5712235"><ele>514.0</ele><time>2026-05-03T15:38:21.098Z</time></trkpt><trkpt lat="44.3888671" lon="7.571372"><ele>513.3333333333334</ele><time>2026-05-03T15:38:22.098Z</time></trkpt><trkpt lat="44.3890162" lon="7.571527"><ele>512.6666666666666</ele><time>2026-05-03T15:38:23.098Z</time></trkpt><trkpt lat="44.3891621" lon="7.571708"><ele>512.0</ele><time>2026-05-03T15:38:24.097Z</time></trkpt><trkpt lat="44.389292" lon="7.571862"><ele>512.6666666666666</ele><time>2026-05-03T15:38:25.098Z</time></trkpt><trkpt lat="44.3893933" lon="7.5720363"><ele>513.3333333333334</ele><time>2026-05-03T15:38:26.097Z</time></trkpt><trkpt lat="44.3895149" lon="7.5722134"><ele>514.0</ele><time>2026-05-03T15:38:27.098Z</time></trkpt><trkpt lat="44.389628" lon="7.5723965"><ele>514.3333333333334</ele><time>2026-05-03T15:38:28.098Z</time></trkpt><trkpt lat="44.3897423" lon="7.5725899"><ele>514.6666666666666</ele><time>2026-05-03T15:38:29.097Z</time></trkpt><trkpt lat="44.3898546" lon="7.5727874"><ele>515.0</ele><time>2026-05-03T15:38:30.098Z</time></trkpt><trkpt lat="44.3899175" lon="7.5729426"><ele>515.0</ele><time>2026-05-03T15:38:31.097Z</time></trkpt><trkpt lat="44.3899982" lon="7.5730873"><ele>515.0</ele><time>2026-05-03T15:38:32.098Z</time></trkpt><trkpt lat="44.3900509" lon="7.5732062"><ele>515.0</ele><time>2026-05-03T15:38:33.098Z</time></trkpt><trkpt lat="44.3901056" lon="7.5733443"><ele>515.0</ele><time>2026-05-03T15:38:34.098Z</time></trkpt><trkpt lat="44.3901643" lon="7.5734849"><ele>515.0</ele><time>2026-05-03T15:38:35.098Z</time></trkpt><trkpt lat="44.3902019" lon="7.5736213"><ele>515.0</ele><time>2026-05-03T15:38:36.097Z</time></trkpt><trkpt lat="44.3902485" lon="7.5737705"><ele>515.0</ele><time>2026-05-03T15:38:37.098Z</time></trkpt><trkpt lat="44.3902649" lon="7.5739146"><ele>515.0</ele><time>2026-05-03T15:38:38.098Z</time></trkpt><trkpt lat="44.3902763" lon="7.5740684"><ele>515.0</ele><time>2026-05-03T15:38:39.098Z</time></trkpt><trkpt lat="44.3902691" lon="7.5742175"><ele>515.6666666666666</ele><time>2026-05-03T15:38:40.098Z</time></trkpt><trkpt lat="44.3902617" lon="7.5743557"><ele>516.3333333333333</ele><time>2026-05-03T15:38:41.098Z</time></trkpt><trkpt lat="44.3902906" lon="7.5744659"><ele>517.0</ele><time>2026-05-03T15:38:42.097Z</time></trkpt><trkpt lat="44.390322" lon="7.5745723"><ele>517.6666666666666</ele><time>2026-05-03T15:38:43.097Z</time></trkpt><trkpt lat="44.3903548" lon="7.5746762"><ele>518.3333333333334</ele><time>2026-05-03T15:38:44.097Z</time></trkpt><trkpt lat="44.3904275" lon="7.5747415"><ele>519.0</ele><time>2026-05-03T15:38:45.098Z</time></trkpt><trkpt lat="44.3904833" lon="7.5748089"><ele>519.0</ele><time>2026-05-03T15:38:46.098Z</time></trkpt><trkpt lat="44.3905663" lon="7.5748539"><ele>519.0</ele><time>2026-05-03T15:38:47.098Z</time></trkpt><trkpt lat="44.3906321" lon="7.5748805"><ele>519.0</ele><time>2026-05-03T15:38:48.097Z</time></trkpt><trkpt lat="44.3907073" lon="7.5748667"><ele>519.0</ele><time>2026-05-03T15:38:49.098Z</time></trkpt><trkpt lat="44.3908154" lon="7.5749067"><ele>519.0</ele><time>2026-05-03T15:38:50.098Z</time></trkpt><trkpt lat="44.3909772" lon="7.5748989"><ele>519.0</ele><time>2026-05-03T15:38:51.098Z</time></trkpt><trkpt lat="44.3910915" lon="7.5749508"><ele>519.0</ele><time>2026-05-03T15:38:52.098Z</time></trkpt><trkpt lat="44.3912077" lon="7.5750214"><ele>519.0</ele><time>2026-05-03T15:38:53.098Z</time></trkpt><trkpt lat="44.3913404" lon="7.5751201"><ele>519.0</ele><time>2026-05-03T15:38:54.098Z</time></trkpt><trkpt lat="44.391484" lon="7.5752417"><ele>519.3333333333334</ele><time>2026-05-03T15:38:55.098Z</time></trkpt><trkpt lat="44.3916238" lon="7.5753705"><ele>519.6666666666667</ele><time>2026-05-03T15:38:56.097Z</time></trkpt><trkpt lat="44.3917587" lon="7.575501"><ele>520.0</ele><time>2026-05-03T15:38:57.098Z</time></trkpt><trkpt lat="44.3919" lon="7.5756389"><ele>520.0</ele><time>2026-05-03T15:38:58.098Z</time></trkpt><trkpt lat="44.3920414" lon="7.5757749"><ele>520.0</ele><time>2026-05-03T15:38:59.098Z</time></trkpt><trkpt lat="44.3921781" lon="7.5759144"><ele>520.0</ele><time>2026-05-03T15:39:00.098Z</time></trkpt><trkpt lat="44.3923124" lon="7.5760559"><ele>519.3333333333334</ele><time>2026-05-03T15:39:01.098Z</time></trkpt><trkpt lat="44.392452" lon="7.5762039"><ele>518.6666666666666</ele><time>2026-05-03T15:39:02.098Z</time></trkpt><trkpt lat="44.3926044" lon="7.5763679"><ele>518.0</ele><time>2026-05-03T15:39:03.098Z</time></trkpt><trkpt lat="44.3927443" lon="7.5765255"><ele>518.0</ele><time>2026-05-03T15:39:04.098Z</time></trkpt><trkpt lat="44.3929006" lon="7.576697"><ele>518.0</ele><time>2026-05-03T15:39:05.098Z</time></trkpt><trkpt lat="44.3930346" lon="7.5768515"><ele>518.0</ele><time>2026-05-03T15:39:06.098Z</time></trkpt><trkpt lat="44.3931789" lon="7.5770148"><ele>517.0</ele><time>2026-05-03T15:39:07.098Z</time></trkpt><trkpt lat="44.3933188" lon="7.5771605"><ele>516.0</ele><time>2026-05-03T15:39:08.098Z</time></trkpt><trkpt lat="44.3934448" lon="7.5773247"><ele>515.0</ele><time>2026-05-03T15:39:09.098Z</time></trkpt><trkpt lat="44.3935804" lon="7.5774766"><ele>515.0</ele><time>2026-05-03T15:39:10.098Z</time></trkpt><trkpt lat="44.3937191" lon="7.5776344"><ele>515.0</ele><time>2026-05-03T15:39:11.098Z</time></trkpt><trkpt lat="44.3938445" lon="7.5778162"><ele>515.0</ele><time>2026-05-03T15:39:12.098Z</time></trkpt><trkpt lat="44.393976" lon="7.577983"><ele>515.6666666666666</ele><time>2026-05-03T15:39:13.097Z</time></trkpt><trkpt lat="44.3941337" lon="7.5781399"><ele>516.3333333333334</ele><time>2026-05-03T15:39:14.098Z</time></trkpt><trkpt lat="44.3942775" lon="7.578306"><ele>517.0</ele><time>2026-05-03T15:39:15.098Z</time></trkpt><trkpt lat="44.3944311" lon="7.5784732"><ele>517.0</ele><time>2026-05-03T15:39:16.098Z</time></trkpt><trkpt lat="44.3945905" lon="7.5786443"><ele>517.0</ele><time>2026-05-03T15:39:17.098Z</time></trkpt><trkpt lat="44.3947291" lon="7.5788314"><ele>517.0</ele><time>2026-05-03T15:39:18.097Z</time></trkpt><trkpt lat="44.3948777" lon="7.5789954"><ele>516.3333333333334</ele><time>2026-05-03T15:39:19.098Z</time></trkpt><trkpt lat="44.3950351" lon="7.5791523"><ele>515.6666666666666</ele><time>2026-05-03T15:39:20.098Z</time></trkpt><trkpt lat="44.3951837" lon="7.5792984"><ele>515.0</ele><time>2026-05-03T15:39:21.098Z</time></trkpt><trkpt lat="44.3953427" lon="7.5794399"><ele>514.6666666666666</ele><time>2026-05-03T15:39:22.098Z</time></trkpt><trkpt lat="44.3955011" lon="7.5795911"><ele>514.3333333333334</ele><time>2026-05-03T15:39:23.098Z</time></trkpt><trkpt lat="44.395645" lon="7.579724"><ele>514.0</ele><time>2026-05-03T15:39:24.098Z</time></trkpt><trkpt lat="44.3957883" lon="7.5798975"><ele>514.0</ele><time>2026-05-03T15:39:25.098Z</time></trkpt><trkpt lat="44.3959367" lon="7.5800378"><ele>514.0</ele><time>2026-05-03T15:39:26.098Z</time></trkpt><trkpt lat="44.3960844" lon="7.5801787"><ele>514.0</ele><time>2026-05-03T15:39:27.097Z</time></trkpt><trkpt lat="44.3962332" lon="7.5803075"><ele>513.3333333333334</ele><time>2026-05-03T15:39:28.098Z</time></trkpt><trkpt lat="44.396378" lon="7.5804338"><ele>512.6666666666666</ele><time>2026-05-03T15:39:29.097Z</time></trkpt><trkpt lat="44.3965207" lon="7.5805733"><ele>512.0</ele><time>2026-05-03T15:39:30.098Z</time></trkpt><trkpt lat="44.3966288" lon="7.5806664"><ele>512.0</ele><time>2026-05-03T15:39:31.098Z</time></trkpt><trkpt lat="44.3967424" lon="7.5807642"><ele>512.0</ele><time>2026-05-03T15:39:32.098Z</time></trkpt><trkpt lat="44.3968534" lon="7.5808832"><ele>512.0</ele><time>2026-05-03T15:39:33.098Z</time></trkpt><trkpt lat="44.396927" lon="7.5809663"><ele>512.0</ele><time>2026-05-03T15:39:34.098Z</time></trkpt><trkpt lat="44.3970114" lon="7.5810369"><ele>512.0</ele><time>2026-05-03T15:39:35.097Z</time></trkpt><trkpt lat="44.3970828" lon="7.5811066"><ele>512.0</ele><time>2026-05-03T15:39:36.098Z</time></trkpt><trkpt lat="44.3971384" lon="7.5812031"><ele>512.0</ele><time>2026-05-03T15:39:37.098Z</time></trkpt><trkpt lat="44.3972199" lon="7.58135"><ele>512.0</ele><time>2026-05-03T15:39:38.098Z</time></trkpt><trkpt lat="44.3972955" lon="7.58145"><ele>512.0</ele><time>2026-05-03T15:39:39.097Z</time></trkpt><trkpt lat="44.3973794" lon="7.5815358"><ele>511.5</ele><time>2026-05-03T15:39:40.097Z</time></trkpt><trkpt lat="44.3974577" lon="7.5816301"><ele>511.0</ele><time>2026-05-03T15:39:41.098Z</time></trkpt><trkpt lat="44.3975389" lon="7.5816893"><ele>510.5</ele><time>2026-05-03T15:39:42.098Z</time></trkpt><trkpt lat="44.3976769" lon="7.581767"><ele>510.0</ele><time>2026-05-03T15:39:43.098Z</time></trkpt><trkpt lat="44.3977966" lon="7.5818537"><ele>510.0</ele><time>2026-05-03T15:39:44.098Z</time></trkpt><trkpt lat="44.3979012" lon="7.5819435"><ele>510.0</ele><time>2026-05-03T15:39:45.098Z</time></trkpt><trkpt lat="44.3980529" lon="7.582056"><ele>510.0</ele><time>2026-05-03T15:39:46.098Z</time></trkpt><trkpt lat="44.3981864" lon="7.5821514"><ele>510.0</ele><time>2026-05-03T15:39:47.098Z</time></trkpt><trkpt lat="44.3983247" lon="7.5822621"><ele>509.66666666666663</ele><time>2026-05-03T15:39:48.098Z</time></trkpt><trkpt lat="44.3984652" lon="7.5823856"><ele>509.3333333333333</ele><time>2026-05-03T15:39:49.098Z</time></trkpt><trkpt lat="44.3986144" lon="7.5825123"><ele>509.0</ele><time>2026-05-03T15:39:50.098Z</time></trkpt><trkpt lat="44.3987578" lon="7.5826382"><ele>508.66666666666663</ele><time>2026-05-03T15:39:51.098Z</time></trkpt><trkpt lat="44.3988905" lon="7.5827798"><ele>508.33333333333337</ele><time>2026-05-03T15:39:52.098Z</time></trkpt><trkpt lat="44.3990488" lon="7.582924"><ele>508.0</ele><time>2026-05-03T15:39:53.098Z</time></trkpt><trkpt lat="44.3991961" lon="7.5830673"><ele>507.6666666666667</ele><time>2026-05-03T15:39:54.098Z</time></trkpt><trkpt lat="44.399337" lon="7.5832067"><ele>507.33333333333337</ele><time>2026-05-03T15:39:55.098Z</time></trkpt><trkpt lat="44.3995068" lon="7.5833424"><ele>507.0</ele><time>2026-05-03T15:39:56.098Z</time></trkpt><trkpt lat="44.3996731" lon="7.5834949"><ele>507.0</ele><time>2026-05-03T15:39:57.098Z</time></trkpt><trkpt lat="44.3998436" lon="7.5836533"><ele>507.0</ele><time>2026-05-03T15:39:58.098Z</time></trkpt><trkpt lat="44.40002" lon="7.5838109"><ele>507.0</ele><time>2026-05-03T15:39:59.097Z</time></trkpt><trkpt lat="44.4001859" lon="7.5839613"><ele>507.66666666666663</ele><time>2026-05-03T15:40:00.098Z</time></trkpt><trkpt lat="44.4003644" lon="7.5841061"><ele>508.3333333333333</ele><time>2026-05-03T15:40:01.098Z</time></trkpt><trkpt lat="44.4005361" lon="7.5842697"><ele>509.0</ele><time>2026-05-03T15:40:02.098Z</time></trkpt><trkpt lat="44.4007113" lon="7.5844288"><ele>507.66666666666663</ele><time>2026-05-03T15:40:03.098Z</time></trkpt><trkpt lat="44.4008871" lon="7.5845894"><ele>506.33333333333337</ele><time>2026-05-03T15:40:04.098Z</time></trkpt><trkpt lat="44.40107" lon="7.5847352"><ele>505.0</ele><time>2026-05-03T15:40:05.098Z</time></trkpt><trkpt lat="44.4012443" lon="7.5848799"><ele>505.33333333333337</ele><time>2026-05-03T15:40:06.098Z</time></trkpt><trkpt lat="44.4014189" lon="7.5850488"><ele>505.66666666666663</ele><time>2026-05-03T15:40:07.097Z</time></trkpt><trkpt lat="44.4015781" lon="7.5851821"><ele>506.0</ele><time>2026-05-03T15:40:08.098Z</time></trkpt><trkpt lat="44.4017406" lon="7.5853337"><ele>505.66666666666663</ele><time>2026-05-03T15:40:09.098Z</time></trkpt><trkpt lat="44.401915" lon="7.5854901"><ele>505.33333333333337</ele><time>2026-05-03T15:40:10.098Z</time></trkpt><trkpt lat="44.4020846" lon="7.5856473"><ele>505.0</ele><time>2026-05-03T15:40:11.097Z</time></trkpt><trkpt lat="44.4022545" lon="7.5857957"><ele>504.33333333333337</ele><time>2026-05-03T15:40:12.098Z</time></trkpt><trkpt lat="44.4024194" lon="7.5859471"><ele>503.66666666666663</ele><time>2026-05-03T15:40:13.098Z</time></trkpt><trkpt lat="44.4025896" lon="7.5860973"><ele>503.0</ele><time>2026-05-03T15:40:14.098Z</time></trkpt><trkpt lat="44.402762" lon="7.5862528"><ele>503.0</ele><time>2026-05-03T15:40:15.097Z</time></trkpt><trkpt lat="44.4029323" lon="7.5864108"><ele>503.0</ele><time>2026-05-03T15:40:16.097Z</time></trkpt><trkpt lat="44.4031022" lon="7.5865634"><ele>503.0</ele><time>2026-05-03T15:40:17.098Z</time></trkpt><trkpt lat="44.4032812" lon="7.5867124"><ele>502.66666666666663</ele><time>2026-05-03T15:40:18.097Z</time></trkpt><trkpt lat="44.4034419" lon="7.586867"><ele>502.33333333333337</ele><time>2026-05-03T15:40:19.098Z</time></trkpt><trkpt lat="44.4036079" lon="7.5870167"><ele>502.0</ele><time>2026-05-03T15:40:20.098Z</time></trkpt><trkpt lat="44.4037789" lon="7.5871658"><ele>501.33333333333337</ele><time>2026-05-03T15:40:21.098Z</time></trkpt><trkpt lat="44.4039499" lon="7.5873137"><ele>500.66666666666663</ele><time>2026-05-03T15:40:22.098Z</time></trkpt><trkpt lat="44.4041207" lon="7.587464"><ele>500.0</ele><time>2026-05-03T15:40:23.098Z</time></trkpt><trkpt lat="44.4042927" lon="7.587619"><ele>500.0</ele><time>2026-05-03T15:40:24.098Z</time></trkpt><trkpt lat="44.4044513" lon="7.5877676"><ele>500.0</ele><time>2026-05-03T15:40:25.098Z</time></trkpt><trkpt lat="44.4046102" lon="7.587908"><ele>500.0</ele><time>2026-05-03T15:40:26.098Z</time></trkpt><trkpt lat="44.4047622" lon="7.5880411"><ele>499.66666666666663</ele><time>2026-05-03T15:40:27.098Z</time></trkpt><trkpt lat="44.4049208" lon="7.5881838"><ele>499.33333333333337</ele><time>2026-05-03T15:40:28.098Z</time></trkpt><trkpt lat="44.4050789" lon="7.5883259"><ele>499.0</ele><time>2026-05-03T15:40:29.098Z</time></trkpt><trkpt lat="44.4052272" lon="7.5884597"><ele>499.0</ele><time>2026-05-03T15:40:30.098Z</time></trkpt><trkpt lat="44.4053759" lon="7.5885849"><ele>499.0</ele><time>2026-05-03T15:40:31.098Z</time></trkpt><trkpt lat="44.4055232" lon="7.588722"><ele>499.0</ele><time>2026-05-03T15:40:32.097Z</time></trkpt><trkpt lat="44.405678" lon="7.588853"><ele>499.33333333333337</ele><time>2026-05-03T15:40:33.098Z</time></trkpt><trkpt lat="44.4058183" lon="7.5889902"><ele>499.66666666666663</ele><time>2026-05-03T15:40:34.098Z</time></trkpt><trkpt lat="44.4059712" lon="7.5891396"><ele>500.0</ele><time>2026-05-03T15:40:35.098Z</time></trkpt><trkpt lat="44.4061312" lon="7.5892892"><ele>500.0</ele><time>2026-05-03T15:40:36.098Z</time></trkpt><trkpt lat="44.4062907" lon="7.5894226"><ele>500.0</ele><time>2026-05-03T15:40:37.097Z</time></trkpt><trkpt lat="44.4064504" lon="7.5895819"><ele>500.0</ele><time>2026-05-03T15:40:38.098Z</time></trkpt><trkpt lat="44.406633" lon="7.5897483"><ele>499.0</ele><time>2026-05-03T15:40:39.098Z</time></trkpt><trkpt lat="44.4067748" lon="7.5899352"><ele>498.0</ele><time>2026-05-03T15:40:40.098Z</time></trkpt><trkpt lat="44.4069336" lon="7.5901245"><ele>497.0</ele><time>2026-05-03T15:40:41.098Z</time></trkpt><trkpt lat="44.4071227" lon="7.5902749"><ele>497.0</ele><time>2026-05-03T15:40:42.097Z</time></trkpt><trkpt lat="44.4072717" lon="7.590426"><ele>497.0</ele><time>2026-05-03T15:40:43.098Z</time></trkpt><trkpt lat="44.4074282" lon="7.5905814"><ele>497.0</ele><time>2026-05-03T15:40:44.098Z</time></trkpt><trkpt lat="44.4075674" lon="7.5907314"><ele>497.0</ele><time>2026-05-03T15:40:45.098Z</time></trkpt><trkpt lat="44.4077037" lon="7.590898"><ele>497.0</ele><time>2026-05-03T15:40:46.097Z</time></trkpt><trkpt lat="44.40786" lon="7.5910692"><ele>497.0</ele><time>2026-05-03T15:40:47.098Z</time></trkpt><trkpt lat="44.4080243" lon="7.5912519"><ele>497.3333333333333</ele><time>2026-05-03T15:40:48.098Z</time></trkpt><trkpt lat="44.408182" lon="7.5913896"><ele>497.66666666666663</ele><time>2026-05-03T15:40:49.098Z</time></trkpt><trkpt lat="44.4083232" lon="7.5915399"><ele>498.0</ele><time>2026-05-03T15:40:50.097Z</time></trkpt><trkpt lat="44.4084947" lon="7.5916873"><ele>498.0</ele><time>2026-05-03T15:40:51.098Z</time></trkpt><trkpt lat="44.4086377" lon="7.5918239"><ele>498.0</ele><time>2026-05-03T15:40:52.098Z</time></trkpt><trkpt lat="44.4087833" lon="7.5919808"><ele>498.0</ele><time>2026-05-03T15:40:53.098Z</time></trkpt><trkpt lat="44.4089443" lon="7.592129"><ele>497.0</ele><time>2026-05-03T15:40:54.098Z</time></trkpt><trkpt lat="44.4090962" lon="7.5922818"><ele>496.0</ele><time>2026-05-03T15:40:55.098Z</time></trkpt><trkpt lat="44.4092585" lon="7.5924362"><ele>495.0</ele><time>2026-05-03T15:40:56.098Z</time></trkpt><trkpt lat="44.409412" lon="7.5925877"><ele>495.0</ele><time>2026-05-03T15:40:57.098Z</time></trkpt><trkpt lat="44.4095585" lon="7.592738"><ele>495.0</ele><time>2026-05-03T15:40:58.098Z</time></trkpt><trkpt lat="44.4097124" lon="7.5928996"><ele>495.0</ele><time>2026-05-03T15:40:59.097Z</time></trkpt><trkpt lat="44.4098596" lon="7.5930714"><ele>494.66666666666663</ele><time>2026-05-03T15:41:00.098Z</time></trkpt><trkpt lat="44.4100225" lon="7.5932059"><ele>494.3333333333333</ele><time>2026-05-03T15:41:01.098Z</time></trkpt><trkpt lat="44.4102122" lon="7.5933606"><ele>494.0</ele><time>2026-05-03T15:41:02.098Z</time></trkpt><trkpt lat="44.4103884" lon="7.5935009"><ele>494.0</ele><time>2026-05-03T15:41:03.098Z</time></trkpt><trkpt lat="44.4105576" lon="7.5936384"><ele>494.0</ele><time>2026-05-03T15:41:04.098Z</time></trkpt><trkpt lat="44.4107298" lon="7.5937783"><ele>494.0</ele><time>2026-05-03T15:41:05.098Z</time></trkpt><trkpt lat="44.4108806" lon="7.593882"><ele>493.3333333333333</ele><time>2026-05-03T15:41:06.097Z</time></trkpt><trkpt lat="44.4110439" lon="7.5940133"><ele>492.66666666666663</ele><time>2026-05-03T15:41:07.098Z</time></trkpt><trkpt lat="44.411214" lon="7.5941489"><ele>492.0</ele><time>2026-05-03T15:41:08.097Z</time></trkpt><trkpt lat="44.411368" lon="7.5942619"><ele>492.0</ele><time>2026-05-03T15:41:09.098Z</time></trkpt><trkpt lat="44.4115217" lon="7.594392"><ele>492.0</ele><time>2026-05-03T15:41:10.098Z</time></trkpt><trkpt lat="44.4116748" lon="7.5944987"><ele>492.0</ele><time>2026-05-03T15:41:11.098Z</time></trkpt><trkpt lat="44.4118655" lon="7.5946325"><ele>491.66666666666663</ele><time>2026-05-03T15:41:12.098Z</time></trkpt><trkpt lat="44.4120112" lon="7.5947448"><ele>491.3333333333333</ele><time>2026-05-03T15:41:13.098Z</time></trkpt><trkpt lat="44.4121662" lon="7.5948641"><ele>491.0</ele><time>2026-05-03T15:41:14.098Z</time></trkpt><trkpt lat="44.4123129" lon="7.5949811"><ele>491.0</ele><time>2026-05-03T15:41:15.098Z</time></trkpt><trkpt lat="44.4124809" lon="7.5950812"><ele>491.0</ele><time>2026-05-03T15:41:16.098Z</time></trkpt><trkpt lat="44.4126258" lon="7.5951825"><ele>491.0</ele><time>2026-05-03T15:41:17.097Z</time></trkpt><trkpt lat="44.4127808" lon="7.5952929"><ele>490.3333333333333</ele><time>2026-05-03T15:41:18.098Z</time></trkpt><trkpt lat="44.4128914" lon="7.5953909"><ele>489.66666666666663</ele><time>2026-05-03T15:41:19.098Z</time></trkpt><trkpt lat="44.4130412" lon="7.5955118"><ele>489.0</ele><time>2026-05-03T15:41:20.098Z</time></trkpt><trkpt lat="44.4131756" lon="7.5955945"><ele>489.0</ele><time>2026-05-03T15:41:21.098Z</time></trkpt><trkpt lat="44.4133056" lon="7.5956823"><ele>489.0</ele><time>2026-05-03T15:41:22.098Z</time></trkpt><trkpt lat="44.4134362" lon="7.5957852"><ele>489.0</ele><time>2026-05-03T15:41:23.098Z</time></trkpt><trkpt lat="44.4135715" lon="7.5959013"><ele>489.0</ele><time>2026-05-03T15:41:24.097Z</time></trkpt><trkpt lat="44.4136954" lon="7.5959999"><ele>489.0</ele><time>2026-05-03T15:41:25.098Z</time></trkpt><trkpt lat="44.4138251" lon="7.5961127"><ele>489.0</ele><time>2026-05-03T15:41:26.098Z</time></trkpt><trkpt lat="44.4139443" lon="7.5962203"><ele>489.0</ele><time>2026-05-03T15:41:27.098Z</time></trkpt><trkpt lat="44.4140704" lon="7.5963161"><ele>488.75</ele><time>2026-05-03T15:41:28.098Z</time></trkpt><trkpt lat="44.4141961" lon="7.5964092"><ele>488.5</ele><time>2026-05-03T15:41:29.098Z</time></trkpt><trkpt lat="44.4143059" lon="7.59648"><ele>488.25</ele><time>2026-05-03T15:41:30.098Z</time></trkpt><trkpt lat="44.4144011" lon="7.5965471"><ele>488.0</ele><time>2026-05-03T15:41:31.098Z</time></trkpt><trkpt lat="44.4145018" lon="7.5966454"><ele>488.0</ele><time>2026-05-03T15:41:32.097Z</time></trkpt><trkpt lat="44.4146205" lon="7.5967394"><ele>487.99999999999994</ele><time>2026-05-03T15:41:33.097Z</time></trkpt><trkpt lat="44.4147043" lon="7.5968355"><ele>487.99999999999994</ele><time>2026-05-03T15:41:34.098Z</time></trkpt><trkpt lat="44.4147625" lon="7.5969098"><ele>488.0</ele><time>2026-05-03T15:41:35.098Z</time></trkpt><trkpt lat="44.4148285" lon="7.5969968"><ele>488.0</ele><time>2026-05-03T15:41:36.098Z</time></trkpt><trkpt lat="44.4149149" lon="7.5970942"><ele>487.59999999999997</ele><time>2026-05-03T15:41:37.097Z</time></trkpt><trkpt lat="44.4149555" lon="7.5971751"><ele>487.19999999999993</ele><time>2026-05-03T15:41:38.098Z</time></trkpt><trkpt lat="44.4149915" lon="7.5972746"><ele>486.8</ele><time>2026-05-03T15:41:39.097Z</time></trkpt><trkpt lat="44.4150377" lon="7.5973625"><ele>486.4</ele><time>2026-05-03T15:41:40.098Z</time></trkpt><trkpt lat="44.4151506" lon="7.5974191"><ele>486.0</ele><time>2026-05-03T15:41:42.098Z</time></trkpt><trkpt lat="44.4152764" lon="7.5974035"><ele>486.0</ele><time>2026-05-03T15:41:44.098Z</time></trkpt><trkpt lat="44.4153827" lon="7.597337"><ele>486.0</ele><time>2026-05-03T15:41:46.098Z</time></trkpt><trkpt lat="44.4154132" lon="7.5972531"><ele>486.0</ele><time>2026-05-03T15:41:47.098Z</time></trkpt><trkpt lat="44.4154447" lon="7.5970763"><ele>486.0</ele><time>2026-05-03T15:41:49.097Z</time></trkpt><trkpt lat="44.4155108" lon="7.5968992"><ele>485.4</ele><time>2026-05-03T15:41:51.098Z</time></trkpt><trkpt lat="44.4155945" lon="7.5968214"><ele>484.8</ele><time>2026-05-03T15:41:52.098Z</time></trkpt><trkpt lat="44.4157013" lon="7.5967227"><ele>484.19999999999993</ele><time>2026-05-03T15:41:53.098Z</time></trkpt><trkpt lat="44.4157913" lon="7.5966559"><ele>483.59999999999997</ele><time>2026-05-03T15:41:54.098Z</time></trkpt><trkpt lat="44.4158873" lon="7.5965575"><ele>483.0</ele><time>2026-05-03T15:41:55.098Z</time></trkpt><trkpt lat="44.415995" lon="7.5964546"><ele>483.0</ele><time>2026-05-03T15:41:56.098Z</time></trkpt><trkpt lat="44.416101" lon="7.5963665"><ele>483.0</ele><time>2026-05-03T15:41:57.098Z</time></trkpt><trkpt lat="44.4162142" lon="7.5962641"><ele>483.0</ele><time>2026-05-03T15:41:58.097Z</time></trkpt><trkpt lat="44.4163199" lon="7.596155"><ele>483.0</ele><time>2026-05-03T15:41:59.098Z</time></trkpt><trkpt lat="44.4164474" lon="7.5960409"><ele>482.66666666666663</ele><time>2026-05-03T15:42:00.098Z</time></trkpt><trkpt lat="44.4165893" lon="7.5959411"><ele>482.3333333333333</ele><time>2026-05-03T15:42:01.098Z</time></trkpt><trkpt lat="44.4167198" lon="7.5958283"><ele>482.0</ele><time>2026-05-03T15:42:02.098Z</time></trkpt><trkpt lat="44.4168838" lon="7.595742"><ele>482.0</ele><time>2026-05-03T15:42:03.098Z</time></trkpt><trkpt lat="44.4170476" lon="7.5956441"><ele>482.0</ele><time>2026-05-03T15:42:04.098Z</time></trkpt><trkpt lat="44.4172173" lon="7.5955469"><ele>482.0</ele><time>2026-05-03T15:42:05.098Z</time></trkpt><trkpt lat="44.4173776" lon="7.5954693"><ele>482.0</ele><time>2026-05-03T15:42:06.098Z</time></trkpt><trkpt lat="44.417526" lon="7.595377"><ele>482.0</ele><time>2026-05-03T15:42:07.098Z</time></trkpt><trkpt lat="44.4177121" lon="7.5952828"><ele>482.0</ele><time>2026-05-03T15:42:08.098Z</time></trkpt><trkpt lat="44.4178822" lon="7.595164"><ele>482.0</ele><time>2026-05-03T15:42:09.097Z</time></trkpt><trkpt lat="44.4180051" lon="7.5950744"><ele>482.0</ele><time>2026-05-03T15:42:10.098Z</time></trkpt><trkpt lat="44.4181552" lon="7.5949733"><ele>482.0</ele><time>2026-05-03T15:42:11.098Z</time></trkpt><trkpt lat="44.4182834" lon="7.594879"><ele>482.0</ele><time>2026-05-03T15:42:12.098Z</time></trkpt><trkpt lat="44.4184118" lon="7.5947485"><ele>482.0</ele><time>2026-05-03T15:42:13.098Z</time></trkpt><trkpt lat="44.4185303" lon="7.5946024"><ele>482.0</ele><time>2026-05-03T15:42:14.098Z</time></trkpt><trkpt lat="44.4186498" lon="7.594457"><ele>481.66666666666663</ele><time>2026-05-03T15:42:15.098Z</time></trkpt><trkpt lat="44.4187515" lon="7.5942898"><ele>481.33333333333337</ele><time>2026-05-03T15:42:16.098Z</time></trkpt><trkpt lat="44.4188589" lon="7.5941141"><ele>481.0</ele><time>2026-05-03T15:42:17.098Z</time></trkpt><trkpt lat="44.4189823" lon="7.5939212"><ele>481.0</ele><time>2026-05-03T15:42:18.098Z</time></trkpt><trkpt lat="44.4190884" lon="7.5937593"><ele>481.0</ele><time>2026-05-03T15:42:19.098Z</time></trkpt><trkpt lat="44.4191905" lon="7.593582"><ele>481.0</ele><time>2026-05-03T15:42:20.098Z</time></trkpt><trkpt lat="44.4192816" lon="7.5933915"><ele>480.33333333333337</ele><time>2026-05-03T15:42:21.098Z</time></trkpt><trkpt lat="44.4194143" lon="7.5932138"><ele>479.66666666666663</ele><time>2026-05-03T15:42:22.097Z</time></trkpt><trkpt lat="44.4195329" lon="7.593055"><ele>479.0</ele><time>2026-05-03T15:42:23.098Z</time></trkpt><trkpt lat="44.4196772" lon="7.5929148"><ele>477.3333333333333</ele><time>2026-05-03T15:42:24.098Z</time></trkpt><trkpt lat="44.4198396" lon="7.5927593"><ele>475.66666666666663</ele><time>2026-05-03T15:42:25.098Z</time></trkpt><trkpt lat="44.4200032" lon="7.5926109"><ele>474.0</ele><time>2026-05-03T15:42:26.097Z</time></trkpt><trkpt lat="44.4201572" lon="7.5924543"><ele>474.0</ele><time>2026-05-03T15:42:27.098Z</time></trkpt><trkpt lat="44.420316" lon="7.5923059"><ele>474.0</ele><time>2026-05-03T15:42:28.098Z</time></trkpt><trkpt lat="44.4204745" lon="7.5921508"><ele>474.0</ele><time>2026-05-03T15:42:29.098Z</time></trkpt><trkpt lat="44.4206492" lon="7.5919925"><ele>473.33333333333337</ele><time>2026-05-03T15:42:30.098Z</time></trkpt><trkpt lat="44.4208157" lon="7.5918437"><ele>472.6666666666667</ele><time>2026-05-03T15:42:31.098Z</time></trkpt><trkpt lat="44.420979" lon="7.5916993"><ele>472.0</ele><time>2026-05-03T15:42:32.098Z</time></trkpt><trkpt lat="44.4211296" lon="7.5915544"><ele>465.5</ele><time>2026-05-03T15:42:33.098Z</time></trkpt><trkpt lat="44.4213269" lon="7.5913544"><ele>459.0</ele><time>2026-05-03T15:42:34.098Z</time></trkpt><trkpt lat="44.4215076" lon="7.5911963"><ele>456.0</ele><time>2026-05-03T15:42:35.098Z</time></trkpt><trkpt lat="44.4216871" lon="7.5910559"><ele>453.0</ele><time>2026-05-03T15:42:36.097Z</time></trkpt><trkpt lat="44.4218571" lon="7.590911"><ele>450.0</ele><time>2026-05-03T15:42:37.098Z</time></trkpt><trkpt lat="44.4220072" lon="7.5907782"><ele>449.0</ele><time>2026-05-03T15:42:38.098Z</time></trkpt><trkpt lat="44.4221603" lon="7.5906529"><ele>448.0</ele><time>2026-05-03T15:42:39.098Z</time></trkpt><trkpt lat="44.4223246" lon="7.5905381"><ele>447.0</ele><time>2026-05-03T15:42:40.098Z</time></trkpt><trkpt lat="44.42247" lon="7.5904629"><ele>447.0</ele><time>2026-05-03T15:42:41.097Z</time></trkpt><trkpt lat="44.4226235" lon="7.5904021"><ele>447.0</ele><time>2026-05-03T15:42:42.098Z</time></trkpt><trkpt lat="44.4228102" lon="7.5903721"><ele>447.0</ele><time>2026-05-03T15:42:43.098Z</time></trkpt><trkpt lat="44.4230303" lon="7.5904114"><ele>447.33333333333337</ele><time>2026-05-03T15:42:44.098Z</time></trkpt><trkpt lat="44.423225" lon="7.5904171"><ele>447.6666666666667</ele><time>2026-05-03T15:42:45.098Z</time></trkpt><trkpt lat="44.4234008" lon="7.590451"><ele>448.0</ele><time>2026-05-03T15:42:46.098Z</time></trkpt><trkpt lat="44.4235706" lon="7.5905153"><ele>448.0</ele><time>2026-05-03T15:42:47.098Z</time></trkpt><trkpt lat="44.4237513" lon="7.590615"><ele>448.0</ele><time>2026-05-03T15:42:48.098Z</time></trkpt><trkpt lat="44.4238979" lon="7.5907525"><ele>448.0</ele><time>2026-05-03T15:42:49.098Z</time></trkpt><trkpt lat="44.4240317" lon="7.5909237"><ele>447.33333333333337</ele><time>2026-05-03T15:42:50.098Z</time></trkpt><trkpt lat="44.4241748" lon="7.5910956"><ele>446.66666666666663</ele><time>2026-05-03T15:42:51.097Z</time></trkpt><trkpt lat="44.4243039" lon="7.5912614"><ele>446.0</ele><time>2026-05-03T15:42:52.098Z</time></trkpt><trkpt lat="44.4244263" lon="7.5914559"><ele>446.0</ele><time>2026-05-03T15:42:53.098Z</time></trkpt><trkpt lat="44.4245418" lon="7.5916449"><ele>446.0</ele><time>2026-05-03T15:42:54.097Z</time></trkpt><trkpt lat="44.424644" lon="7.5918225"><ele>446.0</ele><time>2026-05-03T15:42:55.098Z</time></trkpt><trkpt lat="44.4247405" lon="7.5920199"><ele>444.66666666666663</ele><time>2026-05-03T15:42:56.098Z</time></trkpt><trkpt lat="44.4248295" lon="7.5922201"><ele>443.33333333333337</ele><time>2026-05-03T15:42:57.098Z</time></trkpt><trkpt lat="44.4249087" lon="7.5924191"><ele>442.0</ele><time>2026-05-03T15:42:58.098Z</time></trkpt><trkpt lat="44.4249819" lon="7.5926055"><ele>442.0</ele><time>2026-05-03T15:42:59.098Z</time></trkpt><trkpt lat="44.4250523" lon="7.592805"><ele>442.0</ele><time>2026-05-03T15:43:00.098Z</time></trkpt><trkpt lat="44.4251236" lon="7.5930156"><ele>442.0</ele><time>2026-05-03T15:43:01.098Z</time></trkpt><trkpt lat="44.4251945" lon="7.5932444"><ele>442.0</ele><time>2026-05-03T15:43:02.098Z</time></trkpt><trkpt lat="44.4253104" lon="7.5935149"><ele>442.0</ele><time>2026-05-03T15:43:03.098Z</time></trkpt><trkpt lat="44.4254209" lon="7.593788"><ele>442.0</ele><time>2026-05-03T15:43:04.098Z</time></trkpt><trkpt lat="44.4255237" lon="7.5940772"><ele>442.0</ele><time>2026-05-03T15:43:05.098Z</time></trkpt><trkpt lat="44.4256277" lon="7.5943927"><ele>442.0</ele><time>2026-05-03T15:43:06.098Z</time></trkpt><trkpt lat="44.4257142" lon="7.5946964"><ele>440.5</ele><time>2026-05-03T15:43:07.098Z</time></trkpt><trkpt lat="44.4257992" lon="7.5950168"><ele>439.0</ele><time>2026-05-03T15:43:08.098Z</time></trkpt><trkpt lat="44.4259199" lon="7.5953352"><ele>438.5</ele><time>2026-05-03T15:43:09.098Z</time></trkpt><trkpt lat="44.4260246" lon="7.5956569"><ele>438.0</ele><time>2026-05-03T15:43:10.098Z</time></trkpt><trkpt lat="44.4261241" lon="7.5959716"><ele>437.5</ele><time>2026-05-03T15:43:11.098Z</time></trkpt><trkpt lat="44.4262259" lon="7.5962882"><ele>437.0</ele><time>2026-05-03T15:43:12.098Z</time></trkpt><trkpt lat="44.4263291" lon="7.5965879"><ele>436.0</ele><time>2026-05-03T15:43:13.097Z</time></trkpt><trkpt lat="44.426428" lon="7.5968994"><ele>435.0</ele><time>2026-05-03T15:43:14.098Z</time></trkpt><trkpt lat="44.426514" lon="7.597211"><ele>435.0</ele><time>2026-05-03T15:43:15.098Z</time></trkpt><trkpt lat="44.4266128" lon="7.5975268"><ele>435.0</ele><time>2026-05-03T15:43:16.097Z</time></trkpt><trkpt lat="44.4267027" lon="7.5978355"><ele>435.0</ele><time>2026-05-03T15:43:17.098Z</time></trkpt><trkpt lat="44.4268054" lon="7.5981521"><ele>435.0</ele><time>2026-05-03T15:43:18.098Z</time></trkpt><trkpt lat="44.4269143" lon="7.5984735"><ele>435.0</ele><time>2026-05-03T15:43:19.098Z</time></trkpt><trkpt lat="44.4270005" lon="7.5987733"><ele>435.0</ele><time>2026-05-03T15:43:20.098Z</time></trkpt><trkpt lat="44.4270872" lon="7.5990775"><ele>434.5</ele><time>2026-05-03T15:43:21.098Z</time></trkpt><trkpt lat="44.4271874" lon="7.5993569"><ele>434.0</ele><time>2026-05-03T15:43:22.098Z</time></trkpt><trkpt lat="44.427287" lon="7.5996691"><ele>434.0</ele><time>2026-05-03T15:43:23.098Z</time></trkpt><trkpt lat="44.4273741" lon="7.5999959"><ele>434.0</ele><time>2026-05-03T15:43:24.098Z</time></trkpt><trkpt lat="44.427469" lon="7.6003036"><ele>433.5</ele><time>2026-05-03T15:43:25.098Z</time></trkpt><trkpt lat="44.4275715" lon="7.6006093"><ele>433.0</ele><time>2026-05-03T15:43:26.098Z</time></trkpt><trkpt lat="44.4276716" lon="7.6008997"><ele>433.5</ele><time>2026-05-03T15:43:27.097Z</time></trkpt><trkpt lat="44.4277828" lon="7.6012085"><ele>434.0</ele><time>2026-05-03T15:43:28.098Z</time></trkpt><trkpt lat="44.4278867" lon="7.6015178"><ele>433.0</ele><time>2026-05-03T15:43:29.098Z</time></trkpt><trkpt lat="44.4279929" lon="7.6018204"><ele>432.0</ele><time>2026-05-03T15:43:30.098Z</time></trkpt><trkpt lat="44.4281053" lon="7.6021372"><ele>432.0</ele><time>2026-05-03T15:43:31.098Z</time></trkpt><trkpt lat="44.4282165" lon="7.6024464"><ele>432.0</ele><time>2026-05-03T15:43:32.098Z</time></trkpt><trkpt lat="44.4283256" lon="7.6027549"><ele>432.5</ele><time>2026-05-03T15:43:33.098Z</time></trkpt><trkpt lat="44.4284334" lon="7.6030574"><ele>433.0</ele><time>2026-05-03T15:43:34.098Z</time></trkpt><trkpt lat="44.4285464" lon="7.6033554"><ele>433.0</ele><time>2026-05-03T15:43:35.098Z</time></trkpt><trkpt lat="44.4286617" lon="7.6036485"><ele>433.0</ele><time>2026-05-03T15:43:36.098Z</time></trkpt><trkpt lat="44.4287724" lon="7.6039353"><ele>431.6666666666667</ele><time>2026-05-03T15:43:37.098Z</time></trkpt><trkpt lat="44.4288762" lon="7.6042058"><ele>430.33333333333337</ele><time>2026-05-03T15:43:38.098Z</time></trkpt><trkpt lat="44.4289784" lon="7.6044654"><ele>429.0</ele><time>2026-05-03T15:43:39.098Z</time></trkpt><trkpt lat="44.4290956" lon="7.6047656"><ele>429.0</ele><time>2026-05-03T15:43:40.098Z</time></trkpt><trkpt lat="44.4292108" lon="7.6050599"><ele>429.0</ele><time>2026-05-03T15:43:41.098Z</time></trkpt><trkpt lat="44.4293324" lon="7.6053478"><ele>430.0</ele><time>2026-05-03T15:43:42.097Z</time></trkpt><trkpt lat="44.4294474" lon="7.6056331"><ele>431.0</ele><time>2026-05-03T15:43:43.098Z</time></trkpt><trkpt lat="44.42956" lon="7.6059044"><ele>430.66666666666663</ele><time>2026-05-03T15:43:44.098Z</time></trkpt><trkpt lat="44.4296682" lon="7.6061741"><ele>430.33333333333337</ele><time>2026-05-03T15:43:45.098Z</time></trkpt><trkpt lat="44.4297837" lon="7.6064435"><ele>430.0</ele><time>2026-05-03T15:43:46.098Z</time></trkpt><trkpt lat="44.4298974" lon="7.606721"><ele>430.0</ele><time>2026-05-03T15:43:47.098Z</time></trkpt><trkpt lat="44.4299765" lon="7.6069636"><ele>430.0</ele><time>2026-05-03T15:43:48.098Z</time></trkpt><trkpt lat="44.4300716" lon="7.6072189"><ele>430.0</ele><time>2026-05-03T15:43:49.098Z</time></trkpt><trkpt lat="44.4301763" lon="7.6074703"><ele>430.33333333333337</ele><time>2026-05-03T15:43:50.098Z</time></trkpt><trkpt lat="44.4302692" lon="7.6077093"><ele>430.66666666666663</ele><time>2026-05-03T15:43:51.098Z</time></trkpt><trkpt lat="44.4303629" lon="7.6079424"><ele>431.0</ele><time>2026-05-03T15:43:52.098Z</time></trkpt><trkpt lat="44.4304616" lon="7.6081865"><ele>430.66666666666663</ele><time>2026-05-03T15:43:53.097Z</time></trkpt><trkpt lat="44.4305468" lon="7.6084005"><ele>430.33333333333337</ele><time>2026-05-03T15:43:54.097Z</time></trkpt><trkpt lat="44.4306347" lon="7.6086032"><ele>430.0</ele><time>2026-05-03T15:43:55.097Z</time></trkpt><trkpt lat="44.4307188" lon="7.6088027"><ele>430.0</ele><time>2026-05-03T15:43:56.098Z</time></trkpt><trkpt lat="44.4307744" lon="7.6089229"><ele>430.0</ele><time>2026-05-03T15:43:57.098Z</time></trkpt><trkpt lat="44.4308391" lon="7.6090731"><ele>430.0</ele><time>2026-05-03T15:43:58.098Z</time></trkpt><trkpt lat="44.430896" lon="7.6091869"><ele>430.0</ele><time>2026-05-03T15:43:59.098Z</time></trkpt><trkpt lat="44.4309749" lon="7.6093386"><ele>430.0</ele><time>2026-05-03T15:44:01.097Z</time></trkpt><trkpt lat="44.4310241" lon="7.6094008"><ele>430.0</ele><time>2026-05-03T15:44:13.098Z</time></trkpt><trkpt lat="44.4310432" lon="7.6095005"><ele>430.0</ele><time>2026-05-03T15:44:25.098Z</time></trkpt><trkpt lat="44.4311272" lon="7.6096441"><ele>430.0</ele><time>2026-05-03T15:44:26.098Z</time></trkpt><trkpt lat="44.4311854" lon="7.609756"><ele>430.0</ele><time>2026-05-03T15:44:27.098Z</time></trkpt><trkpt lat="44.4312519" lon="7.6098585"><ele>429.25</ele><time>2026-05-03T15:44:28.098Z</time></trkpt><trkpt lat="44.4313209" lon="7.6099661"><ele>428.5</ele><time>2026-05-03T15:44:29.098Z</time></trkpt><trkpt lat="44.4313914" lon="7.6100866"><ele>427.75</ele><time>2026-05-03T15:44:30.097Z</time></trkpt><trkpt lat="44.4314752" lon="7.6102256"><ele>427.0</ele><time>2026-05-03T15:44:31.098Z</time></trkpt><trkpt lat="44.4315611" lon="7.6103703"><ele>427.0</ele><time>2026-05-03T15:44:32.098Z</time></trkpt><trkpt lat="44.4316454" lon="7.6105365"><ele>427.0</ele><time>2026-05-03T15:44:33.098Z</time></trkpt><trkpt lat="44.4317184" lon="7.6107097"><ele>427.0</ele><time>2026-05-03T15:44:34.098Z</time></trkpt><trkpt lat="44.4318009" lon="7.6108941"><ele>427.0</ele><time>2026-05-03T15:44:35.098Z</time></trkpt><trkpt lat="44.4318952" lon="7.6110649"><ele>427.0</ele><time>2026-05-03T15:44:36.098Z</time></trkpt><trkpt lat="44.4320143" lon="7.611252"><ele>427.0</ele><time>2026-05-03T15:44:37.098Z</time></trkpt><trkpt lat="44.4321245" lon="7.6114505"><ele>427.0</ele><time>2026-05-03T15:44:38.098Z</time></trkpt><trkpt lat="44.4322398" lon="7.6116633"><ele>426.6666666666667</ele><time>2026-05-03T15:44:39.098Z</time></trkpt><trkpt lat="44.4323644" lon="7.6118861"><ele>426.33333333333337</ele><time>2026-05-03T15:44:40.098Z</time></trkpt><trkpt lat="44.4324759" lon="7.6120872"><ele>426.0</ele><time>2026-05-03T15:44:41.098Z</time></trkpt><trkpt lat="44.4325888" lon="7.6123171"><ele>425.66666666666663</ele><time>2026-05-03T15:44:42.097Z</time></trkpt><trkpt lat="44.432705" lon="7.6125393"><ele>425.3333333333333</ele><time>2026-05-03T15:44:43.097Z</time></trkpt><trkpt lat="44.4328352" lon="7.6127866"><ele>425.0</ele><time>2026-05-03T15:44:44.098Z</time></trkpt><trkpt lat="44.4329804" lon="7.6130409"><ele>424.0</ele><time>2026-05-03T15:44:45.098Z</time></trkpt><trkpt lat="44.4331164" lon="7.6132979"><ele>423.0</ele><time>2026-05-03T15:44:46.098Z</time></trkpt><trkpt lat="44.4332533" lon="7.6135594"><ele>423.33333333333337</ele><time>2026-05-03T15:44:47.097Z</time></trkpt><trkpt lat="44.4333945" lon="7.6138138"><ele>423.6666666666667</ele><time>2026-05-03T15:44:48.098Z</time></trkpt><trkpt lat="44.4335212" lon="7.6140628"><ele>424.0</ele><time>2026-05-03T15:44:49.098Z</time></trkpt><trkpt lat="44.4336584" lon="7.6143239"><ele>425.5</ele><time>2026-05-03T15:44:50.098Z</time></trkpt><trkpt lat="44.4337967" lon="7.6145778"><ele>427.0</ele><time>2026-05-03T15:44:51.098Z</time></trkpt><trkpt lat="44.4339366" lon="7.6148301"><ele>427.0</ele><time>2026-05-03T15:44:52.098Z</time></trkpt><trkpt lat="44.434075" lon="7.615092"><ele>427.0</ele><time>2026-05-03T15:44:53.098Z</time></trkpt><trkpt lat="44.4342198" lon="7.6153469"><ele>428.0</ele><time>2026-05-03T15:44:54.098Z</time></trkpt><trkpt lat="44.4343582" lon="7.6156245"><ele>429.0</ele><time>2026-05-03T15:44:55.098Z</time></trkpt><trkpt lat="44.4344935" lon="7.6158991"><ele>429.0</ele><time>2026-05-03T15:44:56.097Z</time></trkpt><trkpt lat="44.434634" lon="7.6161693"><ele>429.0</ele><time>2026-05-03T15:44:57.098Z</time></trkpt><trkpt lat="44.4347732" lon="7.6164316"><ele>427.5</ele><time>2026-05-03T15:44:58.098Z</time></trkpt><trkpt lat="44.4349223" lon="7.6167081"><ele>426.0</ele><time>2026-05-03T15:44:59.098Z</time></trkpt><trkpt lat="44.4350751" lon="7.6169845"><ele>426.0</ele><time>2026-05-03T15:45:00.098Z</time></trkpt><trkpt lat="44.4352246" lon="7.6172554"><ele>426.0</ele><time>2026-05-03T15:45:01.098Z</time></trkpt><trkpt lat="44.4353783" lon="7.6175391"><ele>426.5</ele><time>2026-05-03T15:45:02.097Z</time></trkpt><trkpt lat="44.435534" lon="7.6178242"><ele>427.0</ele><time>2026-05-03T15:45:03.097Z</time></trkpt><trkpt lat="44.4356917" lon="7.6181218"><ele>427.0</ele><time>2026-05-03T15:45:04.098Z</time></trkpt><trkpt lat="44.4358484" lon="7.6184154"><ele>427.0</ele><time>2026-05-03T15:45:05.098Z</time></trkpt><trkpt lat="44.4360047" lon="7.6187072"><ele>426.5</ele><time>2026-05-03T15:45:06.098Z</time></trkpt><trkpt lat="44.4361593" lon="7.6190023"><ele>426.0</ele><time>2026-05-03T15:45:07.098Z</time></trkpt><trkpt lat="44.4363224" lon="7.619291"><ele>424.0</ele><time>2026-05-03T15:45:08.098Z</time></trkpt><trkpt lat="44.4364802" lon="7.6195737"><ele>422.0</ele><time>2026-05-03T15:45:09.098Z</time></trkpt><trkpt lat="44.4366305" lon="7.6198695"><ele>422.0</ele><time>2026-05-03T15:45:10.098Z</time></trkpt><trkpt lat="44.4367988" lon="7.6201706"><ele>422.0</ele><time>2026-05-03T15:45:11.098Z</time></trkpt><trkpt lat="44.4369556" lon="7.6204542"><ele>421.5</ele><time>2026-05-03T15:45:12.098Z</time></trkpt><trkpt lat="44.4371135" lon="7.6207598"><ele>421.0</ele><time>2026-05-03T15:45:13.098Z</time></trkpt><trkpt lat="44.4372756" lon="7.6210616"><ele>418.5</ele><time>2026-05-03T15:45:14.098Z</time></trkpt><trkpt lat="44.4374367" lon="7.6213623"><ele>416.0</ele><time>2026-05-03T15:45:15.098Z</time></trkpt><trkpt lat="44.437595" lon="7.6216605"><ele>416.0</ele><time>2026-05-03T15:45:16.097Z</time></trkpt><trkpt lat="44.4377591" lon="7.621963"><ele>416.0</ele><time>2026-05-03T15:45:17.098Z</time></trkpt><trkpt lat="44.4379313" lon="7.6222789"><ele>416.5</ele><time>2026-05-03T15:45:18.098Z</time></trkpt><trkpt lat="44.4381082" lon="7.6225822"><ele>417.0</ele><time>2026-05-03T15:45:19.098Z</time></trkpt><trkpt lat="44.4382708" lon="7.6228834"><ele>417.0</ele><time>2026-05-03T15:45:20.098Z</time></trkpt><trkpt lat="44.4384368" lon="7.6231955"><ele>417.0</ele><time>2026-05-03T15:45:21.098Z</time></trkpt><trkpt lat="44.4385938" lon="7.6234868"><ele>418.0</ele><time>2026-05-03T15:45:22.098Z</time></trkpt><trkpt lat="44.4387541" lon="7.6238032"><ele>419.0</ele><time>2026-05-03T15:45:23.097Z</time></trkpt><trkpt lat="44.438904" lon="7.6241028"><ele>419.0</ele><time>2026-05-03T15:45:24.098Z</time></trkpt><trkpt lat="44.4390678" lon="7.6244217"><ele>419.0</ele><time>2026-05-03T15:45:25.097Z</time></trkpt><trkpt lat="44.4392332" lon="7.6247362"><ele>420.0</ele><time>2026-05-03T15:45:26.097Z</time></trkpt><trkpt lat="44.4393988" lon="7.6250584"><ele>421.0</ele><time>2026-05-03T15:45:27.098Z</time></trkpt><trkpt lat="44.439577" lon="7.6253852"><ele>419.0</ele><time>2026-05-03T15:45:28.098Z</time></trkpt><trkpt lat="44.4397363" lon="7.6256841"><ele>417.0</ele><time>2026-05-03T15:45:29.098Z</time></trkpt><trkpt lat="44.4398908" lon="7.6259901"><ele>419.5</ele><time>2026-05-03T15:45:30.098Z</time></trkpt><trkpt lat="44.4400438" lon="7.6262928"><ele>422.0</ele><time>2026-05-03T15:45:31.098Z</time></trkpt><trkpt lat="44.4402069" lon="7.6266158"><ele>422.0</ele><time>2026-05-03T15:45:32.098Z</time></trkpt><trkpt lat="44.4403864" lon="7.6269268"><ele>422.0</ele><time>2026-05-03T15:45:33.098Z</time></trkpt><trkpt lat="44.4405578" lon="7.6272587"><ele>418.0</ele><time>2026-05-03T15:45:34.098Z</time></trkpt><trkpt lat="44.4407233" lon="7.6275498"><ele>414.0</ele><time>2026-05-03T15:45:35.097Z</time></trkpt><trkpt lat="44.4408914" lon="7.6278529"><ele>414.0</ele><time>2026-05-03T15:45:36.098Z</time></trkpt><trkpt lat="44.4410668" lon="7.6281497"><ele>414.0</ele><time>2026-05-03T15:45:37.098Z</time></trkpt><trkpt lat="44.441224" lon="7.6284442"><ele>413.5</ele><time>2026-05-03T15:45:38.097Z</time></trkpt><trkpt lat="44.4413925" lon="7.628765"><ele>413.0</ele><time>2026-05-03T15:45:39.098Z</time></trkpt><trkpt lat="44.4415457" lon="7.6290453"><ele>413.0</ele><time>2026-05-03T15:45:40.098Z</time></trkpt><trkpt lat="44.4417009" lon="7.6293457"><ele>413.0</ele><time>2026-05-03T15:45:41.098Z</time></trkpt><trkpt lat="44.4418651" lon="7.6296353"><ele>413.0</ele><time>2026-05-03T15:45:42.097Z</time></trkpt><trkpt lat="44.4420286" lon="7.629929"><ele>413.0</ele><time>2026-05-03T15:45:43.098Z</time></trkpt><trkpt lat="44.4421849" lon="7.6302246"><ele>411.5</ele><time>2026-05-03T15:45:44.097Z</time></trkpt><trkpt lat="44.4423446" lon="7.6305302"><ele>410.0</ele><time>2026-05-03T15:45:45.097Z</time></trkpt><trkpt lat="44.4425061" lon="7.6308234"><ele>410.0</ele><time>2026-05-03T15:45:46.098Z</time></trkpt><trkpt lat="44.4426688" lon="7.6311196"><ele>410.0</ele><time>2026-05-03T15:45:47.098Z</time></trkpt><trkpt lat="44.4428275" lon="7.6314217"><ele>410.0</ele><time>2026-05-03T15:45:48.097Z</time></trkpt><trkpt lat="44.4429952" lon="7.6317051"><ele>410.0</ele><time>2026-05-03T15:45:49.098Z</time></trkpt><trkpt lat="44.4431631" lon="7.6319958"><ele>409.5</ele><time>2026-05-03T15:45:50.098Z</time></trkpt><trkpt lat="44.4433307" lon="7.632278"><ele>409.0</ele><time>2026-05-03T15:45:51.098Z</time></trkpt><trkpt lat="44.443508" lon="7.632558"><ele>408.5</ele><time>2026-05-03T15:45:52.098Z</time></trkpt><trkpt lat="44.4436804" lon="7.6328222"><ele>408.0</ele><time>2026-05-03T15:45:53.098Z</time></trkpt><trkpt lat="44.4438698" lon="7.6331051"><ele>406.5</ele><time>2026-05-03T15:45:54.098Z</time></trkpt><trkpt lat="44.4440556" lon="7.6333768"><ele>405.0</ele><time>2026-05-03T15:45:55.098Z</time></trkpt><trkpt lat="44.4442491" lon="7.6336508"><ele>405.0</ele><time>2026-05-03T15:45:56.098Z</time></trkpt><trkpt lat="44.4444444" lon="7.6339105"><ele>405.0</ele><time>2026-05-03T15:45:57.098Z</time></trkpt><trkpt lat="44.4446326" lon="7.6341767"><ele>405.0</ele><time>2026-05-03T15:45:58.097Z</time></trkpt><trkpt lat="44.4448293" lon="7.6344394"><ele>405.0</ele><time>2026-05-03T15:45:59.098Z</time></trkpt><trkpt lat="44.4450323" lon="7.6346964"><ele>406.0</ele><time>2026-05-03T15:46:00.098Z</time></trkpt><trkpt lat="44.445232" lon="7.6349635"><ele>407.0</ele><time>2026-05-03T15:46:01.097Z</time></trkpt><trkpt lat="44.4454314" lon="7.635239"><ele>407.5</ele><time>2026-05-03T15:46:02.098Z</time></trkpt><trkpt lat="44.4456217" lon="7.635514"><ele>408.0</ele><time>2026-05-03T15:46:03.098Z</time></trkpt><trkpt lat="44.445821" lon="7.635798"><ele>408.0</ele><time>2026-05-03T15:46:04.098Z</time></trkpt><trkpt lat="44.446003" lon="7.6360628"><ele>408.0</ele><time>2026-05-03T15:46:05.098Z</time></trkpt><trkpt lat="44.4461997" lon="7.6363386"><ele>404.5</ele><time>2026-05-03T15:46:06.098Z</time></trkpt><trkpt lat="44.4463928" lon="7.6366165"><ele>401.0</ele><time>2026-05-03T15:46:07.098Z</time></trkpt><trkpt lat="44.4465807" lon="7.6368944"><ele>401.5</ele><time>2026-05-03T15:46:08.098Z</time></trkpt><trkpt lat="44.4467663" lon="7.6371735"><ele>402.0</ele><time>2026-05-03T15:46:09.098Z</time></trkpt><trkpt lat="44.4469447" lon="7.6374582"><ele>402.0</ele><time>2026-05-03T15:46:10.098Z</time></trkpt><trkpt lat="44.4471274" lon="7.6377355"><ele>402.0</ele><time>2026-05-03T15:46:11.098Z</time></trkpt><trkpt lat="44.4473061" lon="7.6380212"><ele>403.0</ele><time>2026-05-03T15:46:12.098Z</time></trkpt><trkpt lat="44.4474745" lon="7.6383149"><ele>404.0</ele><time>2026-05-03T15:46:13.098Z</time></trkpt><trkpt lat="44.4476523" lon="7.638615"><ele>403.0</ele><time>2026-05-03T15:46:14.098Z</time></trkpt><trkpt lat="44.4478156" lon="7.6389046"><ele>402.0</ele><time>2026-05-03T15:46:15.098Z</time></trkpt><trkpt lat="44.4479839" lon="7.6391986"><ele>404.5</ele><time>2026-05-03T15:46:16.097Z</time></trkpt><trkpt lat="44.4481521" lon="7.6394878"><ele>407.0</ele><time>2026-05-03T15:46:17.098Z</time></trkpt><trkpt lat="44.4483254" lon="7.63979"><ele>407.0</ele><time>2026-05-03T15:46:18.097Z</time></trkpt><trkpt lat="44.4484894" lon="7.6400893"><ele>407.0</ele><time>2026-05-03T15:46:19.098Z</time></trkpt><trkpt lat="44.4486749" lon="7.6404162"><ele>403.0</ele><time>2026-05-03T15:46:20.098Z</time></trkpt><trkpt lat="44.4488602" lon="7.6407422"><ele>399.0</ele><time>2026-05-03T15:46:21.097Z</time></trkpt><trkpt lat="44.4490242" lon="7.6410348"><ele>403.0</ele><time>2026-05-03T15:46:22.098Z</time></trkpt><trkpt lat="44.4491873" lon="7.6413287"><ele>407.0</ele><time>2026-05-03T15:46:23.098Z</time></trkpt><trkpt lat="44.4493648" lon="7.6416419"><ele>407.0</ele><time>2026-05-03T15:46:24.098Z</time></trkpt><trkpt lat="44.4495359" lon="7.6419394"><ele>407.0</ele><time>2026-05-03T15:46:25.098Z</time></trkpt><trkpt lat="44.4496951" lon="7.6422287"><ele>405.0</ele><time>2026-05-03T15:46:26.098Z</time></trkpt><trkpt lat="44.4498621" lon="7.6425124"><ele>403.0</ele><time>2026-05-03T15:46:27.098Z</time></trkpt><trkpt lat="44.4500395" lon="7.6428301"><ele>403.0</ele><time>2026-05-03T15:46:28.098Z</time></trkpt><trkpt lat="44.4502046" lon="7.6431275"><ele>403.0</ele><time>2026-05-03T15:46:29.097Z</time></trkpt><trkpt lat="44.450369" lon="7.6434208"><ele>398.0</ele><time>2026-05-03T15:46:30.098Z</time></trkpt><trkpt lat="44.4505382" lon="7.6437134"><ele>393.0</ele><time>2026-05-03T15:46:31.098Z</time></trkpt><trkpt lat="44.4507128" lon="7.6440247"><ele>393.0</ele><time>2026-05-03T15:46:32.098Z</time></trkpt><trkpt lat="44.4508733" lon="7.6442954"><ele>393.0</ele><time>2026-05-03T15:46:33.098Z</time></trkpt><trkpt lat="44.4510424" lon="7.6445813"><ele>394.0</ele><time>2026-05-03T15:46:34.098Z</time></trkpt><trkpt lat="44.4512091" lon="7.6448824"><ele>395.0</ele><time>2026-05-03T15:46:35.098Z</time></trkpt><trkpt lat="44.4513733" lon="7.6451639"><ele>394.0</ele><time>2026-05-03T15:46:36.098Z</time></trkpt><trkpt lat="44.4515434" lon="7.6454796"><ele>393.0</ele><time>2026-05-03T15:46:37.098Z</time></trkpt><trkpt lat="44.4516752" lon="7.6457534"><ele>393.0</ele><time>2026-05-03T15:46:38.097Z</time></trkpt><trkpt lat="44.4518434" lon="7.6460462"><ele>393.0</ele><time>2026-05-03T15:46:39.098Z</time></trkpt><trkpt lat="44.4520112" lon="7.6463349"><ele>392.5</ele><time>2026-05-03T15:46:40.098Z</time></trkpt><trkpt lat="44.452175" lon="7.6466255"><ele>392.0</ele><time>2026-05-03T15:46:41.098Z</time></trkpt><trkpt lat="44.4523332" lon="7.6469046"><ele>392.5</ele><time>2026-05-03T15:46:42.097Z</time></trkpt><trkpt lat="44.4525002" lon="7.6471853"><ele>393.0</ele><time>2026-05-03T15:46:43.098Z</time></trkpt><trkpt lat="44.4526684" lon="7.6474817"><ele>393.0</ele><time>2026-05-03T15:46:44.098Z</time></trkpt><trkpt lat="44.452842" lon="7.647767"><ele>393.0</ele><time>2026-05-03T15:46:45.098Z</time></trkpt><trkpt lat="44.4530264" lon="7.6480845"><ele>393.5</ele><time>2026-05-03T15:46:46.097Z</time></trkpt><trkpt lat="44.4532154" lon="7.648394"><ele>394.0</ele><time>2026-05-03T15:46:47.098Z</time></trkpt><trkpt lat="44.4534114" lon="7.6487"><ele>392.5</ele><time>2026-05-03T15:46:48.098Z</time></trkpt><trkpt lat="44.4536093" lon="7.6490142"><ele>391.0</ele><time>2026-05-03T15:46:49.098Z</time></trkpt><trkpt lat="44.4537937" lon="7.6493249"><ele>390.0</ele><time>2026-05-03T15:46:50.098Z</time></trkpt><trkpt lat="44.4539872" lon="7.6496323"><ele>389.0</ele><time>2026-05-03T15:46:51.098Z</time></trkpt><trkpt lat="44.4541683" lon="7.6499488"><ele>389.0</ele><time>2026-05-03T15:46:52.098Z</time></trkpt><trkpt lat="44.4543536" lon="7.6502563"><ele>389.0</ele><time>2026-05-03T15:46:53.098Z</time></trkpt><trkpt lat="44.454536" lon="7.6505419"><ele>387.5</ele><time>2026-05-03T15:46:54.098Z</time></trkpt><trkpt lat="44.4547027" lon="7.6508221"><ele>386.0</ele><time>2026-05-03T15:46:55.098Z</time></trkpt><trkpt lat="44.4548981" lon="7.6511097"><ele>387.0</ele><time>2026-05-03T15:46:56.098Z</time></trkpt><trkpt lat="44.4550806" lon="7.6514053"><ele>388.0</ele><time>2026-05-03T15:46:57.098Z</time></trkpt><trkpt lat="44.455261" lon="7.6516978"><ele>388.0</ele><time>2026-05-03T15:46:58.098Z</time></trkpt><trkpt lat="44.455448" lon="7.6519915"><ele>388.0</ele><time>2026-05-03T15:46:59.097Z</time></trkpt><trkpt lat="44.4556384" lon="7.6522852"><ele>388.0</ele><time>2026-05-03T15:47:00.098Z</time></trkpt><trkpt lat="44.4558472" lon="7.6525966"><ele>388.0</ele><time>2026-05-03T15:47:01.098Z</time></trkpt><trkpt lat="44.4560406" lon="7.6528972"><ele>387.0</ele><time>2026-05-03T15:47:02.098Z</time></trkpt><trkpt lat="44.456213" lon="7.6531794"><ele>386.0</ele><time>2026-05-03T15:47:03.098Z</time></trkpt><trkpt lat="44.4564004" lon="7.6534615"><ele>387.5</ele><time>2026-05-03T15:47:04.098Z</time></trkpt><trkpt lat="44.4565803" lon="7.6537281"><ele>389.0</ele><time>2026-05-03T15:47:05.098Z</time></trkpt><trkpt lat="44.4567553" lon="7.6539948"><ele>389.0</ele><time>2026-05-03T15:47:06.098Z</time></trkpt><trkpt lat="44.4569377" lon="7.6542771"><ele>389.0</ele><time>2026-05-03T15:47:07.098Z</time></trkpt><trkpt lat="44.4571058" lon="7.6545463"><ele>386.5</ele><time>2026-05-03T15:47:08.098Z</time></trkpt><trkpt lat="44.4572918" lon="7.6548229"><ele>384.0</ele><time>2026-05-03T15:47:09.097Z</time></trkpt><trkpt lat="44.4574726" lon="7.6551003"><ele>386.0</ele><time>2026-05-03T15:47:10.097Z</time></trkpt><trkpt lat="44.4576554" lon="7.6553743"><ele>388.0</ele><time>2026-05-03T15:47:11.098Z</time></trkpt><trkpt lat="44.4578355" lon="7.6556474"><ele>388.5</ele><time>2026-05-03T15:47:12.098Z</time></trkpt><trkpt lat="44.458019" lon="7.6559239"><ele>389.0</ele><time>2026-05-03T15:47:13.098Z</time></trkpt><trkpt lat="44.4581967" lon="7.6561986"><ele>389.5</ele><time>2026-05-03T15:47:14.098Z</time></trkpt><trkpt lat="44.4583627" lon="7.6564765"><ele>390.0</ele><time>2026-05-03T15:47:15.098Z</time></trkpt><trkpt lat="44.4585372" lon="7.6567399"><ele>389.0</ele><time>2026-05-03T15:47:16.097Z</time></trkpt><trkpt lat="44.4587097" lon="7.6570115"><ele>388.0</ele><time>2026-05-03T15:47:17.098Z</time></trkpt><trkpt lat="44.4589035" lon="7.6572997"><ele>388.0</ele><time>2026-05-03T15:47:18.098Z</time></trkpt><trkpt lat="44.459061" lon="7.6575538"><ele>388.0</ele><time>2026-05-03T15:47:19.098Z</time></trkpt><trkpt lat="44.4592647" lon="7.65784"><ele>387.0</ele><time>2026-05-03T15:47:20.098Z</time></trkpt><trkpt lat="44.4594649" lon="7.6581204"><ele>386.0</ele><time>2026-05-03T15:47:21.098Z</time></trkpt><trkpt lat="44.4596491" lon="7.6583956"><ele>387.5</ele><time>2026-05-03T15:47:22.098Z</time></trkpt><trkpt lat="44.4598417" lon="7.6586701"><ele>389.0</ele><time>2026-05-03T15:47:23.097Z</time></trkpt><trkpt lat="44.4600262" lon="7.6589425"><ele>389.0</ele><time>2026-05-03T15:47:24.098Z</time></trkpt><trkpt lat="44.4602258" lon="7.659212"><ele>389.0</ele><time>2026-05-03T15:47:25.098Z</time></trkpt><trkpt lat="44.4604277" lon="7.6594619"><ele>385.0</ele><time>2026-05-03T15:47:26.098Z</time></trkpt><trkpt lat="44.4606397" lon="7.659716"><ele>381.0</ele><time>2026-05-03T15:47:27.098Z</time></trkpt><trkpt lat="44.4608366" lon="7.65999"><ele>381.0</ele><time>2026-05-03T15:47:28.098Z</time></trkpt><trkpt lat="44.4610372" lon="7.6602514"><ele>381.0</ele><time>2026-05-03T15:47:29.098Z</time></trkpt><trkpt lat="44.4612348" lon="7.6605048"><ele>383.0</ele><time>2026-05-03T15:47:30.098Z</time></trkpt><trkpt lat="44.4614313" lon="7.6607622"><ele>385.0</ele><time>2026-05-03T15:47:31.098Z</time></trkpt><trkpt lat="44.4616401" lon="7.6610044"><ele>386.5</ele><time>2026-05-03T15:47:32.098Z</time></trkpt><trkpt lat="44.4618482" lon="7.6612547"><ele>388.0</ele><time>2026-05-03T15:47:33.098Z</time></trkpt><trkpt lat="44.4620634" lon="7.6614927"><ele>385.5</ele><time>2026-05-03T15:47:34.097Z</time></trkpt><trkpt lat="44.4622759" lon="7.6617316"><ele>383.0</ele><time>2026-05-03T15:47:35.098Z</time></trkpt><trkpt lat="44.4624893" lon="7.6619659"><ele>383.0</ele><time>2026-05-03T15:47:36.098Z</time></trkpt><trkpt lat="44.4627068" lon="7.6622078"><ele>383.0</ele><time>2026-05-03T15:47:37.097Z</time></trkpt><trkpt lat="44.4629248" lon="7.6624424"><ele>380.5</ele><time>2026-05-03T15:47:38.097Z</time></trkpt><trkpt lat="44.463148" lon="7.6626792"><ele>378.0</ele><time>2026-05-03T15:47:39.098Z</time></trkpt><trkpt lat="44.4633656" lon="7.6628941"><ele>378.0</ele><time>2026-05-03T15:47:40.098Z</time></trkpt><trkpt lat="44.4635722" lon="7.6631125"><ele>378.0</ele><time>2026-05-03T15:47:41.098Z</time></trkpt><trkpt lat="44.4638038" lon="7.6633467"><ele>378.0</ele><time>2026-05-03T15:47:42.098Z</time></trkpt><trkpt lat="44.464032" lon="7.6635802"><ele>378.0</ele><time>2026-05-03T15:47:43.098Z</time></trkpt><trkpt lat="44.4642497" lon="7.6637901"><ele>378.0</ele><time>2026-05-03T15:47:44.097Z</time></trkpt><trkpt lat="44.4644733" lon="7.6640149"><ele>378.0</ele><time>2026-05-03T15:47:45.098Z</time></trkpt><trkpt lat="44.4646922" lon="7.6642348"><ele>377.0</ele><time>2026-05-03T15:47:46.097Z</time></trkpt><trkpt lat="44.464913" lon="7.664467"><ele>376.0</ele><time>2026-05-03T15:47:47.098Z</time></trkpt><trkpt lat="44.4651356" lon="7.6646871"><ele>376.0</ele><time>2026-05-03T15:47:48.098Z</time></trkpt><trkpt lat="44.4653583" lon="7.6649047"><ele>376.0</ele><time>2026-05-03T15:47:49.098Z</time></trkpt><trkpt lat="44.4655692" lon="7.665127"><ele>376.5</ele><time>2026-05-03T15:47:50.098Z</time></trkpt><trkpt lat="44.4657855" lon="7.6653384"><ele>377.0</ele><time>2026-05-03T15:47:51.098Z</time></trkpt><trkpt lat="44.4659961" lon="7.6655661"><ele>377.0</ele><time>2026-05-03T15:47:52.098Z</time></trkpt><trkpt lat="44.4662048" lon="7.6657677"><ele>377.0</ele><time>2026-05-03T15:47:53.097Z</time></trkpt><trkpt lat="44.466399" lon="7.6659871"><ele>376.5</ele><time>2026-05-03T15:47:54.098Z</time></trkpt><trkpt lat="44.4665757" lon="7.6662032"><ele>376.0</ele><time>2026-05-03T15:47:55.098Z</time></trkpt><trkpt lat="44.4667832" lon="7.6664457"><ele>376.0</ele><time>2026-05-03T15:47:56.098Z</time></trkpt><trkpt lat="44.4669828" lon="7.6666798"><ele>376.0</ele><time>2026-05-03T15:47:57.098Z</time></trkpt><trkpt lat="44.4671938" lon="7.6669145"><ele>374.5</ele><time>2026-05-03T15:47:58.098Z</time></trkpt><trkpt lat="44.4673949" lon="7.6671639"><ele>373.0</ele><time>2026-05-03T15:47:59.098Z</time></trkpt><trkpt lat="44.4675944" lon="7.6674135"><ele>373.0</ele><time>2026-05-03T15:48:00.097Z</time></trkpt><trkpt lat="44.4677937" lon="7.6676688"><ele>373.0</ele><time>2026-05-03T15:48:01.098Z</time></trkpt><trkpt lat="44.4679935" lon="7.6679245"><ele>373.5</ele><time>2026-05-03T15:48:02.097Z</time></trkpt><trkpt lat="44.4681807" lon="7.6681717"><ele>374.0</ele><time>2026-05-03T15:48:03.098Z</time></trkpt><trkpt lat="44.4683691" lon="7.6684309"><ele>374.0</ele><time>2026-05-03T15:48:04.098Z</time></trkpt><trkpt lat="44.4685641" lon="7.6686866"><ele>374.0</ele><time>2026-05-03T15:48:05.098Z</time></trkpt><trkpt lat="44.4687508" lon="7.6689434"><ele>372.5</ele><time>2026-05-03T15:48:06.098Z</time></trkpt><trkpt lat="44.4689578" lon="7.6692105"><ele>371.0</ele><time>2026-05-03T15:48:07.098Z</time></trkpt><trkpt lat="44.4691413" lon="7.6694815"><ele>371.0</ele><time>2026-05-03T15:48:08.098Z</time></trkpt><trkpt lat="44.4693339" lon="7.6697431"><ele>371.0</ele><time>2026-05-03T15:48:09.098Z</time></trkpt><trkpt lat="44.4695214" lon="7.6700067"><ele>371.5</ele><time>2026-05-03T15:48:10.098Z</time></trkpt><trkpt lat="44.4697067" lon="7.6702744"><ele>372.0</ele><time>2026-05-03T15:48:11.098Z</time></trkpt><trkpt lat="44.4699013" lon="7.6705391"><ele>372.0</ele><time>2026-05-03T15:48:12.098Z</time></trkpt><trkpt lat="44.4700877" lon="7.6708086"><ele>372.0</ele><time>2026-05-03T15:48:13.097Z</time></trkpt><trkpt lat="44.4702816" lon="7.6710737"><ele>371.5</ele><time>2026-05-03T15:48:14.098Z</time></trkpt><trkpt lat="44.4704817" lon="7.6713461"><ele>371.0</ele><time>2026-05-03T15:48:15.098Z</time></trkpt><trkpt lat="44.4706804" lon="7.6716165"><ele>371.0</ele><time>2026-05-03T15:48:16.097Z</time></trkpt><trkpt lat="44.4708688" lon="7.6718776"><ele>371.0</ele><time>2026-05-03T15:48:17.098Z</time></trkpt><trkpt lat="44.4710552" lon="7.6721453"><ele>369.5</ele><time>2026-05-03T15:48:18.098Z</time></trkpt><trkpt lat="44.47125" lon="7.6724252"><ele>368.0</ele><time>2026-05-03T15:48:19.098Z</time></trkpt><trkpt lat="44.4714495" lon="7.6727021"><ele>366.5</ele><time>2026-05-03T15:48:20.098Z</time></trkpt><trkpt lat="44.4716295" lon="7.6729655"><ele>365.0</ele><time>2026-05-03T15:48:21.098Z</time></trkpt><trkpt lat="44.4718142" lon="7.6732405"><ele>365.0</ele><time>2026-05-03T15:48:22.097Z</time></trkpt><trkpt lat="44.4720078" lon="7.6735012"><ele>365.0</ele><time>2026-05-03T15:48:23.098Z</time></trkpt><trkpt lat="44.4721972" lon="7.6737733"><ele>366.0</ele><time>2026-05-03T15:48:24.098Z</time></trkpt><trkpt lat="44.4723863" lon="7.6740365"><ele>367.0</ele><time>2026-05-03T15:48:25.098Z</time></trkpt><trkpt lat="44.4725815" lon="7.6743138"><ele>367.5</ele><time>2026-05-03T15:48:26.098Z</time></trkpt><trkpt lat="44.4727553" lon="7.6745795"><ele>368.0</ele><time>2026-05-03T15:48:27.098Z</time></trkpt><trkpt lat="44.4729268" lon="7.6748301"><ele>368.0</ele><time>2026-05-03T15:48:28.098Z</time></trkpt><trkpt lat="44.4731144" lon="7.675094"><ele>368.0</ele><time>2026-05-03T15:48:29.098Z</time></trkpt><trkpt lat="44.4733068" lon="7.6753693"><ele>368.0</ele><time>2026-05-03T15:48:30.097Z</time></trkpt><trkpt lat="44.4734782" lon="7.6756245"><ele>368.0</ele><time>2026-05-03T15:48:31.098Z</time></trkpt><trkpt lat="44.4736583" lon="7.6758955"><ele>368.0</ele><time>2026-05-03T15:48:32.098Z</time></trkpt><trkpt lat="44.4738374" lon="7.6761692"><ele>368.0</ele><time>2026-05-03T15:48:33.098Z</time></trkpt><trkpt lat="44.474015" lon="7.6764481"><ele>368.0</ele><time>2026-05-03T15:48:34.098Z</time></trkpt><trkpt lat="44.4741769" lon="7.676716"><ele>368.0</ele><time>2026-05-03T15:48:35.098Z</time></trkpt><trkpt lat="44.4743492" lon="7.6769997"><ele>368.0</ele><time>2026-05-03T15:48:36.098Z</time></trkpt><trkpt lat="44.4745076" lon="7.6772876"><ele>368.0</ele><time>2026-05-03T15:48:37.098Z</time></trkpt><trkpt lat="44.4746725" lon="7.6775765"><ele>376.0</ele><time>2026-05-03T15:48:38.097Z</time></trkpt><trkpt lat="44.4748303" lon="7.6778717"><ele>384.0</ele><time>2026-05-03T15:48:39.098Z</time></trkpt><trkpt lat="44.4749853" lon="7.6781629"><ele>384.0</ele><time>2026-05-03T15:48:40.097Z</time></trkpt><trkpt lat="44.4751407" lon="7.6784834"><ele>384.0</ele><time>2026-05-03T15:48:41.098Z</time></trkpt><trkpt lat="44.475288" lon="7.6787822"><ele>382.5</ele><time>2026-05-03T15:48:42.098Z</time></trkpt><trkpt lat="44.4754244" lon="7.6790995"><ele>381.0</ele><time>2026-05-03T15:48:43.098Z</time></trkpt><trkpt lat="44.475556" lon="7.6794147"><ele>391.0</ele><time>2026-05-03T15:48:44.098Z</time></trkpt><trkpt lat="44.4756903" lon="7.6797425"><ele>401.0</ele><time>2026-05-03T15:48:45.098Z</time></trkpt><trkpt lat="44.4758101" lon="7.6800712"><ele>404.0</ele><time>2026-05-03T15:48:46.098Z</time></trkpt><trkpt lat="44.4759234" lon="7.680396"><ele>407.0</ele><time>2026-05-03T15:48:47.098Z</time></trkpt><trkpt lat="44.4760375" lon="7.6807256"><ele>407.0</ele><time>2026-05-03T15:48:48.098Z</time></trkpt><trkpt lat="44.4761397" lon="7.6810537"><ele>407.0</ele><time>2026-05-03T15:48:49.098Z</time></trkpt><trkpt lat="44.4762472" lon="7.6813906"><ele>407.0</ele><time>2026-05-03T15:48:50.098Z</time></trkpt><trkpt lat="44.4763515" lon="7.6817205"><ele>407.0</ele><time>2026-05-03T15:48:51.098Z</time></trkpt><trkpt lat="44.476449" lon="7.6820547"><ele>407.5</ele><time>2026-05-03T15:48:52.098Z</time></trkpt><trkpt lat="44.4765366" lon="7.6823917"><ele>408.0</ele><time>2026-05-03T15:48:53.098Z</time></trkpt><trkpt lat="44.4768978" lon="7.6850236"><ele>407.0</ele><time>2026-05-03T15:49:00.098Z</time></trkpt><trkpt lat="44.4769198" lon="7.6853722"><ele>406.0</ele><time>2026-05-03T15:49:01.097Z</time></trkpt><trkpt lat="44.4769582" lon="7.6857381"><ele>406.0</ele><time>2026-05-03T15:49:02.098Z</time></trkpt><trkpt lat="44.4769812" lon="7.686114"><ele>406.0</ele><time>2026-05-03T15:49:03.098Z</time></trkpt><trkpt lat="44.4770112" lon="7.686488"><ele>406.0</ele><time>2026-05-03T15:49:04.098Z</time></trkpt><trkpt lat="44.4770119" lon="7.6868496"><ele>406.0</ele><time>2026-05-03T15:49:05.097Z</time></trkpt><trkpt lat="44.4770109" lon="7.6872141"><ele>406.0</ele><time>2026-05-03T15:49:06.098Z</time></trkpt><trkpt lat="44.4770131" lon="7.6875727"><ele>406.0</ele><time>2026-05-03T15:49:07.098Z</time></trkpt><trkpt lat="44.4770147" lon="7.6879452"><ele>406.0</ele><time>2026-05-03T15:49:08.098Z</time></trkpt><trkpt lat="44.4770025" lon="7.6883042"><ele>406.0</ele><time>2026-05-03T15:49:09.098Z</time></trkpt><trkpt lat="44.4769711" lon="7.6886637"><ele>405.5</ele><time>2026-05-03T15:49:10.098Z</time></trkpt><trkpt lat="44.4769269" lon="7.6890298"><ele>405.0</ele><time>2026-05-03T15:49:11.098Z</time></trkpt><trkpt lat="44.4768896" lon="7.6893986"><ele>405.0</ele><time>2026-05-03T15:49:12.098Z</time></trkpt><trkpt lat="44.4768516" lon="7.689771"><ele>405.0</ele><time>2026-05-03T15:49:13.097Z</time></trkpt><trkpt lat="44.4767931" lon="7.6901176"><ele>404.5</ele><time>2026-05-03T15:49:14.098Z</time></trkpt><trkpt lat="44.4767302" lon="7.6904735"><ele>404.0</ele><time>2026-05-03T15:49:15.098Z</time></trkpt><trkpt lat="44.476663" lon="7.6908354"><ele>404.0</ele><time>2026-05-03T15:49:16.098Z</time></trkpt><trkpt lat="44.476599" lon="7.6912009"><ele>404.0</ele><time>2026-05-03T15:49:17.098Z</time></trkpt><trkpt lat="44.4765283" lon="7.6915562"><ele>404.0</ele><time>2026-05-03T15:49:18.098Z</time></trkpt><trkpt lat="44.4764572" lon="7.6919206"><ele>404.0</ele><time>2026-05-03T15:49:19.098Z</time></trkpt><trkpt lat="44.476373" lon="7.6922699"><ele>404.0</ele><time>2026-05-03T15:49:20.098Z</time></trkpt><trkpt lat="44.47629" lon="7.6926244"><ele>404.0</ele><time>2026-05-03T15:49:21.098Z</time></trkpt><trkpt lat="44.476199" lon="7.6929743"><ele>404.0</ele><time>2026-05-03T15:49:22.098Z</time></trkpt><trkpt lat="44.4760987" lon="7.6933115"><ele>404.0</ele><time>2026-05-03T15:49:23.097Z</time></trkpt><trkpt lat="44.4760036" lon="7.6936445"><ele>404.0</ele><time>2026-05-03T15:49:24.098Z</time></trkpt><trkpt lat="44.4759101" lon="7.6939733"><ele>404.0</ele><time>2026-05-03T15:49:25.098Z</time></trkpt><trkpt lat="44.4758084" lon="7.6943086"><ele>403.0</ele><time>2026-05-03T15:49:26.097Z</time></trkpt><trkpt lat="44.4757058" lon="7.6946385"><ele>402.0</ele><time>2026-05-03T15:49:27.098Z</time></trkpt><trkpt lat="44.4756046" lon="7.6949734"><ele>403.0</ele><time>2026-05-03T15:49:28.098Z</time></trkpt><trkpt lat="44.4754987" lon="7.6953037"><ele>404.0</ele><time>2026-05-03T15:49:29.098Z</time></trkpt><trkpt lat="44.475402" lon="7.6956324"><ele>404.0</ele><time>2026-05-03T15:49:30.098Z</time></trkpt><trkpt lat="44.4753076" lon="7.6959724"><ele>404.0</ele><time>2026-05-03T15:49:31.098Z</time></trkpt><trkpt lat="44.4752007" lon="7.6962999"><ele>404.0</ele><time>2026-05-03T15:49:32.098Z</time></trkpt><trkpt lat="44.4750993" lon="7.6966312"><ele>404.0</ele><time>2026-05-03T15:49:33.097Z</time></trkpt><trkpt lat="44.4750029" lon="7.6969747"><ele>404.5</ele><time>2026-05-03T15:49:34.098Z</time></trkpt><trkpt lat="44.474886" lon="7.6973052"><ele>405.0</ele><time>2026-05-03T15:49:35.098Z</time></trkpt><trkpt lat="44.474791" lon="7.6976306"><ele>405.0</ele><time>2026-05-03T15:49:36.098Z</time></trkpt><trkpt lat="44.4747019" lon="7.6979563"><ele>405.0</ele><time>2026-05-03T15:49:37.098Z</time></trkpt><trkpt lat="44.4745808" lon="7.6982914"><ele>404.5</ele><time>2026-05-03T15:49:38.098Z</time></trkpt><trkpt lat="44.4744718" lon="7.6986348"><ele>404.0</ele><time>2026-05-03T15:49:39.098Z</time></trkpt><trkpt lat="44.4743687" lon="7.6989707"><ele>404.0</ele><time>2026-05-03T15:49:40.098Z</time></trkpt><trkpt lat="44.4742609" lon="7.6993109"><ele>404.0</ele><time>2026-05-03T15:49:41.098Z</time></trkpt><trkpt lat="44.4741497" lon="7.6996499"><ele>404.0</ele><time>2026-05-03T15:49:42.097Z</time></trkpt><trkpt lat="44.4740335" lon="7.6999883"><ele>404.0</ele><time>2026-05-03T15:49:43.098Z</time></trkpt><trkpt lat="44.4739242" lon="7.7003345"><ele>404.5</ele><time>2026-05-03T15:49:44.098Z</time></trkpt><trkpt lat="44.4738202" lon="7.7006715"><ele>405.0</ele><time>2026-05-03T15:49:45.098Z</time></trkpt><trkpt lat="44.4737226" lon="7.7010022"><ele>404.5</ele><time>2026-05-03T15:49:46.098Z</time></trkpt><trkpt lat="44.4736197" lon="7.7013362"><ele>404.0</ele><time>2026-05-03T15:49:47.098Z</time></trkpt><trkpt lat="44.4735072" lon="7.7016649"><ele>403.0</ele><time>2026-05-03T15:49:48.098Z</time></trkpt><trkpt lat="44.4733932" lon="7.7020017"><ele>402.0</ele><time>2026-05-03T15:49:49.098Z</time></trkpt><trkpt lat="44.4732967" lon="7.7023382"><ele>402.0</ele><time>2026-05-03T15:49:50.098Z</time></trkpt><trkpt lat="44.4732054" lon="7.7026796"><ele>402.0</ele><time>2026-05-03T15:49:51.098Z</time></trkpt><trkpt lat="44.4731064" lon="7.703018"><ele>402.5</ele><time>2026-05-03T15:49:52.098Z</time></trkpt><trkpt lat="44.4729861" lon="7.7033483"><ele>403.0</ele><time>2026-05-03T15:49:53.098Z</time></trkpt><trkpt lat="44.4728738" lon="7.7036844"><ele>403.5</ele><time>2026-05-03T15:49:54.098Z</time></trkpt><trkpt lat="44.4727696" lon="7.7040206"><ele>404.0</ele><time>2026-05-03T15:49:55.098Z</time></trkpt><trkpt lat="44.4726668" lon="7.7043563"><ele>403.5</ele><time>2026-05-03T15:49:56.098Z</time></trkpt><trkpt lat="44.4725652" lon="7.7046879"><ele>403.0</ele><time>2026-05-03T15:49:57.098Z</time></trkpt><trkpt lat="44.4724598" lon="7.705022"><ele>402.5</ele><time>2026-05-03T15:49:58.098Z</time></trkpt><trkpt lat="44.4723538" lon="7.7053589"><ele>402.0</ele><time>2026-05-03T15:49:59.098Z</time></trkpt><trkpt lat="44.4722477" lon="7.7056964"><ele>402.0</ele><time>2026-05-03T15:50:00.098Z</time></trkpt><trkpt lat="44.4721426" lon="7.7060362"><ele>402.0</ele><time>2026-05-03T15:50:01.098Z</time></trkpt><trkpt lat="44.4720382" lon="7.7063726"><ele>403.0</ele><time>2026-05-03T15:50:02.098Z</time></trkpt><trkpt lat="44.4719323" lon="7.7067085"><ele>404.0</ele><time>2026-05-03T15:50:03.098Z</time></trkpt><trkpt lat="44.4718168" lon="7.7070415"><ele>404.0</ele><time>2026-05-03T15:50:04.098Z</time></trkpt><trkpt lat="44.4717172" lon="7.7073775"><ele>404.0</ele><time>2026-05-03T15:50:05.098Z</time></trkpt><trkpt lat="44.471621" lon="7.7077179"><ele>404.0</ele><time>2026-05-03T15:50:06.098Z</time></trkpt><trkpt lat="44.4715155" lon="7.7080598"><ele>404.0</ele><time>2026-05-03T15:50:07.098Z</time></trkpt><trkpt lat="44.4714027" lon="7.7084022"><ele>404.0</ele><time>2026-05-03T15:50:08.098Z</time></trkpt><trkpt lat="44.4712897" lon="7.7087407"><ele>404.0</ele><time>2026-05-03T15:50:09.098Z</time></trkpt><trkpt lat="44.471175" lon="7.7090929"><ele>403.5</ele><time>2026-05-03T15:50:10.098Z</time></trkpt><trkpt lat="44.4710685" lon="7.7094462"><ele>403.0</ele><time>2026-05-03T15:50:11.098Z</time></trkpt><trkpt lat="44.4709618" lon="7.7097906"><ele>403.0</ele><time>2026-05-03T15:50:12.098Z</time></trkpt><trkpt lat="44.4708661" lon="7.7101416"><ele>403.0</ele><time>2026-05-03T15:50:13.097Z</time></trkpt><trkpt lat="44.4707617" lon="7.7104972"><ele>403.0</ele><time>2026-05-03T15:50:14.097Z</time></trkpt><trkpt lat="44.4706648" lon="7.7108508"><ele>403.0</ele><time>2026-05-03T15:50:15.098Z</time></trkpt><trkpt lat="44.4705657" lon="7.7111758"><ele>403.0</ele><time>2026-05-03T15:50:16.097Z</time></trkpt><trkpt lat="44.4704775" lon="7.7115255"><ele>403.0</ele><time>2026-05-03T15:50:17.098Z</time></trkpt><trkpt lat="44.4703855" lon="7.7118705"><ele>402.5</ele><time>2026-05-03T15:50:18.098Z</time></trkpt><trkpt lat="44.4702843" lon="7.7122167"><ele>402.0</ele><time>2026-05-03T15:50:19.098Z</time></trkpt><trkpt lat="44.4701951" lon="7.712554"><ele>402.5</ele><time>2026-05-03T15:50:20.098Z</time></trkpt><trkpt lat="44.4701004" lon="7.7129005"><ele>403.0</ele><time>2026-05-03T15:50:21.098Z</time></trkpt><trkpt lat="44.4700195" lon="7.7132595"><ele>403.0</ele><time>2026-05-03T15:50:22.098Z</time></trkpt><trkpt lat="44.469941" lon="7.7136031"><ele>403.0</ele><time>2026-05-03T15:50:23.098Z</time></trkpt><trkpt lat="44.4698628" lon="7.7139523"><ele>403.0</ele><time>2026-05-03T15:50:24.098Z</time></trkpt><trkpt lat="44.4697842" lon="7.7143004"><ele>403.0</ele><time>2026-05-03T15:50:25.098Z</time></trkpt><trkpt lat="44.469712" lon="7.7146486"><ele>402.5</ele><time>2026-05-03T15:50:26.098Z</time></trkpt><trkpt lat="44.4696414" lon="7.7150004"><ele>402.0</ele><time>2026-05-03T15:50:27.098Z</time></trkpt><trkpt lat="44.4695721" lon="7.7153472"><ele>402.0</ele><time>2026-05-03T15:50:28.098Z</time></trkpt><trkpt lat="44.4695107" lon="7.7156974"><ele>402.0</ele><time>2026-05-03T15:50:29.098Z</time></trkpt><trkpt lat="44.4694361" lon="7.7160608"><ele>401.5</ele><time>2026-05-03T15:50:30.098Z</time></trkpt><trkpt lat="44.4693796" lon="7.7164121"><ele>401.0</ele><time>2026-05-03T15:50:31.098Z</time></trkpt><trkpt lat="44.4693111" lon="7.7167747"><ele>400.5</ele><time>2026-05-03T15:50:32.097Z</time></trkpt><trkpt lat="44.4692543" lon="7.717143"><ele>400.0</ele><time>2026-05-03T15:50:33.098Z</time></trkpt><trkpt lat="44.4692022" lon="7.7175051"><ele>400.5</ele><time>2026-05-03T15:50:34.098Z</time></trkpt><trkpt lat="44.4691613" lon="7.7178846"><ele>401.0</ele><time>2026-05-03T15:50:35.098Z</time></trkpt><trkpt lat="44.4691221" lon="7.7182456"><ele>400.5</ele><time>2026-05-03T15:50:36.098Z</time></trkpt><trkpt lat="44.4690887" lon="7.7186275"><ele>400.0</ele><time>2026-05-03T15:50:37.098Z</time></trkpt><trkpt lat="44.4690461" lon="7.7189989"><ele>400.0</ele><time>2026-05-03T15:50:38.098Z</time></trkpt><trkpt lat="44.4690247" lon="7.7193664"><ele>400.0</ele><time>2026-05-03T15:50:39.098Z</time></trkpt><trkpt lat="44.4690101" lon="7.7197473"><ele>399.5</ele><time>2026-05-03T15:50:40.098Z</time></trkpt><trkpt lat="44.4689889" lon="7.7201279"><ele>399.0</ele><time>2026-05-03T15:50:41.098Z</time></trkpt><trkpt lat="44.4689882" lon="7.7205074"><ele>399.0</ele><time>2026-05-03T15:50:42.098Z</time></trkpt><trkpt lat="44.4689781" lon="7.7208948"><ele>399.0</ele><time>2026-05-03T15:50:43.097Z</time></trkpt><trkpt lat="44.4689751" lon="7.7212507"><ele>399.0</ele><time>2026-05-03T15:50:44.098Z</time></trkpt><trkpt lat="44.4689604" lon="7.7216246"><ele>399.0</ele><time>2026-05-03T15:50:45.098Z</time></trkpt><trkpt lat="44.4689457" lon="7.7219757"><ele>399.0</ele><time>2026-05-03T15:50:46.098Z</time></trkpt><trkpt lat="44.4689652" lon="7.7223536"><ele>399.0</ele><time>2026-05-03T15:50:47.098Z</time></trkpt><trkpt lat="44.4689872" lon="7.722755"><ele>399.0</ele><time>2026-05-03T15:50:48.098Z</time></trkpt><trkpt lat="44.4690044" lon="7.7231207"><ele>399.0</ele><time>2026-05-03T15:50:49.098Z</time></trkpt><trkpt lat="44.4690289" lon="7.7235054"><ele>399.5</ele><time>2026-05-03T15:50:50.097Z</time></trkpt><trkpt lat="44.4690642" lon="7.7238723"><ele>400.0</ele><time>2026-05-03T15:50:51.098Z</time></trkpt><trkpt lat="44.4690884" lon="7.7242428"><ele>399.0</ele><time>2026-05-03T15:50:52.098Z</time></trkpt><trkpt lat="44.4691295" lon="7.7246285"><ele>398.0</ele><time>2026-05-03T15:50:53.098Z</time></trkpt><trkpt lat="44.4691556" lon="7.7250088"><ele>398.0</ele><time>2026-05-03T15:50:54.098Z</time></trkpt><trkpt lat="44.4691791" lon="7.725385"><ele>398.0</ele><time>2026-05-03T15:50:55.097Z</time></trkpt><trkpt lat="44.4692219" lon="7.7257619"><ele>398.5</ele><time>2026-05-03T15:50:56.098Z</time></trkpt><trkpt lat="44.4692578" lon="7.7261311"><ele>399.0</ele><time>2026-05-03T15:50:57.098Z</time></trkpt><trkpt lat="44.4692986" lon="7.7265171"><ele>399.0</ele><time>2026-05-03T15:50:58.098Z</time></trkpt><trkpt lat="44.4693298" lon="7.7268874"><ele>399.0</ele><time>2026-05-03T15:50:59.098Z</time></trkpt><trkpt lat="44.4693552" lon="7.7272596"><ele>399.0</ele><time>2026-05-03T15:51:00.098Z</time></trkpt><trkpt lat="44.4693933" lon="7.7276396"><ele>399.0</ele><time>2026-05-03T15:51:01.098Z</time></trkpt><trkpt lat="44.4694293" lon="7.7280222"><ele>399.0</ele><time>2026-05-03T15:51:02.098Z</time></trkpt><trkpt lat="44.4694614" lon="7.7283996"><ele>399.0</ele><time>2026-05-03T15:51:03.098Z</time></trkpt><trkpt lat="44.469493" lon="7.7287736"><ele>399.5</ele><time>2026-05-03T15:51:04.098Z</time></trkpt><trkpt lat="44.4695318" lon="7.7291533"><ele>400.0</ele><time>2026-05-03T15:51:05.098Z</time></trkpt><trkpt lat="44.4695626" lon="7.7295206"><ele>399.0</ele><time>2026-05-03T15:51:06.098Z</time></trkpt><trkpt lat="44.4696019" lon="7.7299002"><ele>398.0</ele><time>2026-05-03T15:51:07.098Z</time></trkpt><trkpt lat="44.4696343" lon="7.7302598"><ele>397.5</ele><time>2026-05-03T15:51:08.098Z</time></trkpt><trkpt lat="44.4696728" lon="7.7306416"><ele>397.0</ele><time>2026-05-03T15:51:09.098Z</time></trkpt><trkpt lat="44.469704" lon="7.7310463"><ele>396.5</ele><time>2026-05-03T15:51:10.098Z</time></trkpt><trkpt lat="44.4697407" lon="7.7314222"><ele>396.0</ele><time>2026-05-03T15:51:11.098Z</time></trkpt><trkpt lat="44.4697628" lon="7.7317797"><ele>396.5</ele><time>2026-05-03T15:51:12.098Z</time></trkpt><trkpt lat="44.4698017" lon="7.7321608"><ele>397.0</ele><time>2026-05-03T15:51:13.097Z</time></trkpt><trkpt lat="44.4698325" lon="7.7325434"><ele>396.5</ele><time>2026-05-03T15:51:14.098Z</time></trkpt><trkpt lat="44.4698651" lon="7.7328965"><ele>396.0</ele><time>2026-05-03T15:51:15.098Z</time></trkpt><trkpt lat="44.4699017" lon="7.7332771"><ele>396.0</ele><time>2026-05-03T15:51:16.097Z</time></trkpt><trkpt lat="44.4699272" lon="7.7336331"><ele>396.0</ele><time>2026-05-03T15:51:17.097Z</time></trkpt><trkpt lat="44.4699705" lon="7.7340128"><ele>396.0</ele><time>2026-05-03T15:51:18.098Z</time></trkpt><trkpt lat="44.4699992" lon="7.7343717"><ele>396.0</ele><time>2026-05-03T15:51:19.098Z</time></trkpt><trkpt lat="44.470029" lon="7.7347413"><ele>396.5</ele><time>2026-05-03T15:51:20.098Z</time></trkpt><trkpt lat="44.4700482" lon="7.7351137"><ele>397.0</ele><time>2026-05-03T15:51:21.098Z</time></trkpt><trkpt lat="44.4700801" lon="7.7354826"><ele>397.0</ele><time>2026-05-03T15:51:22.098Z</time></trkpt><trkpt lat="44.4700975" lon="7.7358551"><ele>397.0</ele><time>2026-05-03T15:51:23.097Z</time></trkpt><trkpt lat="44.4701178" lon="7.7362271"><ele>396.5</ele><time>2026-05-03T15:51:24.098Z</time></trkpt><trkpt lat="44.4701473" lon="7.7366062"><ele>396.0</ele><time>2026-05-03T15:51:25.098Z</time></trkpt><trkpt lat="44.4701715" lon="7.736993"><ele>395.5</ele><time>2026-05-03T15:51:26.098Z</time></trkpt><trkpt lat="44.4702005" lon="7.7373534"><ele>395.0</ele><time>2026-05-03T15:51:27.098Z</time></trkpt><trkpt lat="44.4701937" lon="7.7377213"><ele>395.0</ele><time>2026-05-03T15:51:28.098Z</time></trkpt><trkpt lat="44.4701784" lon="7.7381299"><ele>395.0</ele><time>2026-05-03T15:51:29.098Z</time></trkpt><trkpt lat="44.4701637" lon="7.7385"><ele>395.0</ele><time>2026-05-03T15:51:30.098Z</time></trkpt><trkpt lat="44.4701703" lon="7.7388824"><ele>395.0</ele><time>2026-05-03T15:51:31.098Z</time></trkpt><trkpt lat="44.4701566" lon="7.7392878"><ele>395.0</ele><time>2026-05-03T15:51:32.098Z</time></trkpt><trkpt lat="44.4701414" lon="7.7396636"><ele>395.0</ele><time>2026-05-03T15:51:33.098Z</time></trkpt><trkpt lat="44.4701151" lon="7.7400279"><ele>394.5</ele><time>2026-05-03T15:51:34.098Z</time></trkpt><trkpt lat="44.4700798" lon="7.7403935"><ele>394.0</ele><time>2026-05-03T15:51:35.098Z</time></trkpt><trkpt lat="44.4700552" lon="7.7407626"><ele>394.5</ele><time>2026-05-03T15:51:36.098Z</time></trkpt><trkpt lat="44.4700444" lon="7.7411306"><ele>395.0</ele><time>2026-05-03T15:51:37.098Z</time></trkpt><trkpt lat="44.4700278" lon="7.7415069"><ele>394.5</ele><time>2026-05-03T15:51:38.098Z</time></trkpt><trkpt lat="44.4700168" lon="7.7418848"><ele>394.0</ele><time>2026-05-03T15:51:39.097Z</time></trkpt><trkpt lat="44.4699952" lon="7.7422512"><ele>394.0</ele><time>2026-05-03T15:51:40.098Z</time></trkpt><trkpt lat="44.4699783" lon="7.7426195"><ele>394.0</ele><time>2026-05-03T15:51:41.098Z</time></trkpt><trkpt lat="44.4699708" lon="7.743"><ele>393.5</ele><time>2026-05-03T15:51:42.097Z</time></trkpt><trkpt lat="44.469943" lon="7.7433589"><ele>393.0</ele><time>2026-05-03T15:51:43.098Z</time></trkpt><trkpt lat="44.4699221" lon="7.7437348"><ele>393.0</ele><time>2026-05-03T15:51:44.097Z</time></trkpt><trkpt lat="44.4699045" lon="7.7441076"><ele>393.0</ele><time>2026-05-03T15:51:45.097Z</time></trkpt><trkpt lat="44.4698738" lon="7.744466"><ele>393.5</ele><time>2026-05-03T15:51:46.098Z</time></trkpt><trkpt lat="44.4698509" lon="7.7448322"><ele>394.0</ele><time>2026-05-03T15:51:47.097Z</time></trkpt><trkpt lat="44.4698453" lon="7.7451971"><ele>394.0</ele><time>2026-05-03T15:51:48.097Z</time></trkpt><trkpt lat="44.4698272" lon="7.7455657"><ele>394.0</ele><time>2026-05-03T15:51:49.098Z</time></trkpt><trkpt lat="44.469808" lon="7.7459244"><ele>393.0</ele><time>2026-05-03T15:51:50.098Z</time></trkpt><trkpt lat="44.469792" lon="7.746276"><ele>392.0</ele><time>2026-05-03T15:51:51.097Z</time></trkpt><trkpt lat="44.4697639" lon="7.7466395"><ele>391.5</ele><time>2026-05-03T15:51:52.097Z</time></trkpt><trkpt lat="44.4697501" lon="7.7469938"><ele>391.0</ele><time>2026-05-03T15:51:53.098Z</time></trkpt><trkpt lat="44.4697494" lon="7.7473668"><ele>391.5</ele><time>2026-05-03T15:51:54.098Z</time></trkpt><trkpt lat="44.4697301" lon="7.7477368"><ele>392.0</ele><time>2026-05-03T15:51:55.098Z</time></trkpt><trkpt lat="44.4697165" lon="7.7481003"><ele>392.0</ele><time>2026-05-03T15:51:56.098Z</time></trkpt><trkpt lat="44.4697068" lon="7.7484798"><ele>392.0</ele><time>2026-05-03T15:51:57.098Z</time></trkpt><trkpt lat="44.4696909" lon="7.748846"><ele>392.0</ele><time>2026-05-03T15:51:58.098Z</time></trkpt><trkpt lat="44.4696844" lon="7.7492047"><ele>392.0</ele><time>2026-05-03T15:51:59.098Z</time></trkpt><trkpt lat="44.4696571" lon="7.7496057"><ele>392.0</ele><time>2026-05-03T15:52:00.098Z</time></trkpt><trkpt lat="44.4696391" lon="7.7499952"><ele>392.0</ele><time>2026-05-03T15:52:01.098Z</time></trkpt><trkpt lat="44.4696266" lon="7.7503854"><ele>392.5</ele><time>2026-05-03T15:52:02.098Z</time></trkpt><trkpt lat="44.4696016" lon="7.7507725"><ele>393.0</ele><time>2026-05-03T15:52:03.098Z</time></trkpt><trkpt lat="44.469569" lon="7.7511585"><ele>393.0</ele><time>2026-05-03T15:52:04.097Z</time></trkpt><trkpt lat="44.4695499" lon="7.751543"><ele>393.0</ele><time>2026-05-03T15:52:05.098Z</time></trkpt><trkpt lat="44.4695185" lon="7.7519425"><ele>393.0</ele><time>2026-05-03T15:52:06.098Z</time></trkpt><trkpt lat="44.469482" lon="7.752325"><ele>393.0</ele><time>2026-05-03T15:52:07.098Z</time></trkpt><trkpt lat="44.4694702" lon="7.7527399"><ele>393.0</ele><time>2026-05-03T15:52:08.098Z</time></trkpt><trkpt lat="44.4694463" lon="7.7530913"><ele>393.0</ele><time>2026-05-03T15:52:09.098Z</time></trkpt><trkpt lat="44.4694307" lon="7.7534816"><ele>393.0</ele><time>2026-05-03T15:52:10.098Z</time></trkpt><trkpt lat="44.4694178" lon="7.7538672"><ele>393.0</ele><time>2026-05-03T15:52:11.098Z</time></trkpt><trkpt lat="44.4694023" lon="7.7542359"><ele>393.0</ele><time>2026-05-03T15:52:12.098Z</time></trkpt><trkpt lat="44.4693909" lon="7.754609"><ele>393.0</ele><time>2026-05-03T15:52:13.098Z</time></trkpt><trkpt lat="44.469377" lon="7.7549766"><ele>392.5</ele><time>2026-05-03T15:52:14.098Z</time></trkpt><trkpt lat="44.4693676" lon="7.7553385"><ele>392.0</ele><time>2026-05-03T15:52:15.098Z</time></trkpt><trkpt lat="44.4693584" lon="7.7556994"><ele>391.5</ele><time>2026-05-03T15:52:16.098Z</time></trkpt><trkpt lat="44.4693309" lon="7.7560545"><ele>391.0</ele><time>2026-05-03T15:52:17.098Z</time></trkpt><trkpt lat="44.4693144" lon="7.7564155"><ele>391.0</ele><time>2026-05-03T15:52:18.098Z</time></trkpt><trkpt lat="44.469292" lon="7.756768"><ele>391.0</ele><time>2026-05-03T15:52:19.097Z</time></trkpt><trkpt lat="44.4692705" lon="7.7571217"><ele>391.0</ele><time>2026-05-03T15:52:20.098Z</time></trkpt><trkpt lat="44.4692479" lon="7.7574784"><ele>391.0</ele><time>2026-05-03T15:52:21.097Z</time></trkpt><trkpt lat="44.4692199" lon="7.7578436"><ele>391.5</ele><time>2026-05-03T15:52:22.098Z</time></trkpt><trkpt lat="44.4691779" lon="7.7582091"><ele>392.0</ele><time>2026-05-03T15:52:23.098Z</time></trkpt><trkpt lat="44.4691519" lon="7.7585551"><ele>391.0</ele><time>2026-05-03T15:52:24.097Z</time></trkpt><trkpt lat="44.4691279" lon="7.7589081"><ele>390.0</ele><time>2026-05-03T15:52:25.098Z</time></trkpt><trkpt lat="44.4690957" lon="7.7592589"><ele>390.0</ele><time>2026-05-03T15:52:26.098Z</time></trkpt><trkpt lat="44.4690676" lon="7.7596175"><ele>390.0</ele><time>2026-05-03T15:52:27.098Z</time></trkpt><trkpt lat="44.4690404" lon="7.7599886"><ele>390.0</ele><time>2026-05-03T15:52:28.098Z</time></trkpt><trkpt lat="44.4690023" lon="7.7603344"><ele>390.0</ele><time>2026-05-03T15:52:29.098Z</time></trkpt><trkpt lat="44.4689693" lon="7.7606775"><ele>390.0</ele><time>2026-05-03T15:52:30.097Z</time></trkpt><trkpt lat="44.4689342" lon="7.7610294"><ele>390.0</ele><time>2026-05-03T15:52:31.098Z</time></trkpt><trkpt lat="44.4689053" lon="7.7613942"><ele>390.0</ele><time>2026-05-03T15:52:32.098Z</time></trkpt><trkpt lat="44.4688701" lon="7.7617476"><ele>390.0</ele><time>2026-05-03T15:52:33.098Z</time></trkpt><trkpt lat="44.4688293" lon="7.7621337"><ele>390.0</ele><time>2026-05-03T15:52:34.097Z</time></trkpt><trkpt lat="44.4687841" lon="7.762502"><ele>390.0</ele><time>2026-05-03T15:52:35.098Z</time></trkpt><trkpt lat="44.4687323" lon="7.7628635"><ele>390.0</ele><time>2026-05-03T15:52:36.098Z</time></trkpt><trkpt lat="44.4686882" lon="7.7632242"><ele>390.0</ele><time>2026-05-03T15:52:37.098Z</time></trkpt><trkpt lat="44.4686436" lon="7.7635799"><ele>391.0</ele><time>2026-05-03T15:52:38.097Z</time></trkpt><trkpt lat="44.4685893" lon="7.7639342"><ele>392.0</ele><time>2026-05-03T15:52:39.098Z</time></trkpt><trkpt lat="44.4685462" lon="7.7642996"><ele>393.0</ele><time>2026-05-03T15:52:40.098Z</time></trkpt><trkpt lat="44.4685078" lon="7.764665"><ele>394.0</ele><time>2026-05-03T15:52:41.098Z</time></trkpt><trkpt lat="44.4684606" lon="7.7650383"><ele>393.0</ele><time>2026-05-03T15:52:42.097Z</time></trkpt><trkpt lat="44.4684232" lon="7.7653991"><ele>392.0</ele><time>2026-05-03T15:52:43.098Z</time></trkpt><trkpt lat="44.4683759" lon="7.7657634"><ele>390.5</ele><time>2026-05-03T15:52:44.098Z</time></trkpt><trkpt lat="44.4683473" lon="7.7661348"><ele>389.0</ele><time>2026-05-03T15:52:45.097Z</time></trkpt><trkpt lat="44.4683085" lon="7.7664976"><ele>389.0</ele><time>2026-05-03T15:52:46.098Z</time></trkpt><trkpt lat="44.4682746" lon="7.7668719"><ele>389.0</ele><time>2026-05-03T15:52:47.097Z</time></trkpt><trkpt lat="44.4682414" lon="7.7672288"><ele>389.0</ele><time>2026-05-03T15:52:48.098Z</time></trkpt><trkpt lat="44.4682083" lon="7.7675887"><ele>389.0</ele><time>2026-05-03T15:52:49.098Z</time></trkpt><trkpt lat="44.4681812" lon="7.7679607"><ele>388.5</ele><time>2026-05-03T15:52:50.098Z</time></trkpt><trkpt lat="44.4681593" lon="7.7683314"><ele>388.0</ele><time>2026-05-03T15:52:51.098Z</time></trkpt><trkpt lat="44.4681431" lon="7.7686855"><ele>388.0</ele><time>2026-05-03T15:52:52.098Z</time></trkpt><trkpt lat="44.4681126" lon="7.7690723"><ele>388.0</ele><time>2026-05-03T15:52:53.098Z</time></trkpt><trkpt lat="44.4680986" lon="7.7694435"><ele>388.0</ele><time>2026-05-03T15:52:54.098Z</time></trkpt><trkpt lat="44.4680952" lon="7.7698228"><ele>388.0</ele><time>2026-05-03T15:52:55.098Z</time></trkpt><trkpt lat="44.4680965" lon="7.7702091"><ele>388.5</ele><time>2026-05-03T15:52:56.098Z</time></trkpt><trkpt lat="44.4680981" lon="7.7705876"><ele>389.0</ele><time>2026-05-03T15:52:57.098Z</time></trkpt><trkpt lat="44.4680996" lon="7.7709416"><ele>388.5</ele><time>2026-05-03T15:52:58.098Z</time></trkpt><trkpt lat="44.4681106" lon="7.7713149"><ele>388.0</ele><time>2026-05-03T15:52:59.098Z</time></trkpt><trkpt lat="44.4681261" lon="7.7717"><ele>388.0</ele><time>2026-05-03T15:53:00.098Z</time></trkpt><trkpt lat="44.468139" lon="7.772073"><ele>388.0</ele><time>2026-05-03T15:53:01.098Z</time></trkpt><trkpt lat="44.4681591" lon="7.7724632"><ele>388.0</ele><time>2026-05-03T15:53:02.098Z</time></trkpt><trkpt lat="44.4681751" lon="7.772807"><ele>388.0</ele><time>2026-05-03T15:53:03.098Z</time></trkpt><trkpt lat="44.4682085" lon="7.7731727"><ele>388.0</ele><time>2026-05-03T15:53:04.098Z</time></trkpt><trkpt lat="44.4682384" lon="7.7735243"><ele>388.0</ele><time>2026-05-03T15:53:05.098Z</time></trkpt><trkpt lat="44.4682703" lon="7.7738733"><ele>388.0</ele><time>2026-05-03T15:53:06.098Z</time></trkpt><trkpt lat="44.4683008" lon="7.7742181"><ele>388.0</ele><time>2026-05-03T15:53:07.098Z</time></trkpt><trkpt lat="44.4683343" lon="7.7745686"><ele>388.0</ele><time>2026-05-03T15:53:08.098Z</time></trkpt><trkpt lat="44.468385" lon="7.7749246"><ele>388.0</ele><time>2026-05-03T15:53:09.097Z</time></trkpt><trkpt lat="44.4684304" lon="7.7752589"><ele>389.0</ele><time>2026-05-03T15:53:10.098Z</time></trkpt><trkpt lat="44.4684892" lon="7.7756192"><ele>390.0</ele><time>2026-05-03T15:53:11.098Z</time></trkpt><trkpt lat="44.4685342" lon="7.7759844"><ele>390.0</ele><time>2026-05-03T15:53:12.098Z</time></trkpt><trkpt lat="44.4686167" lon="7.7763537"><ele>390.0</ele><time>2026-05-03T15:53:13.098Z</time></trkpt><trkpt lat="44.4686801" lon="7.776707"><ele>390.5</ele><time>2026-05-03T15:53:14.098Z</time></trkpt><trkpt lat="44.4687649" lon="7.7770733"><ele>391.0</ele><time>2026-05-03T15:53:15.098Z</time></trkpt><trkpt lat="44.4688378" lon="7.7774247"><ele>392.0</ele><time>2026-05-03T15:53:16.098Z</time></trkpt><trkpt lat="44.4689089" lon="7.7777699"><ele>393.0</ele><time>2026-05-03T15:53:17.098Z</time></trkpt><trkpt lat="44.4689926" lon="7.7781251"><ele>393.0</ele><time>2026-05-03T15:53:18.098Z</time></trkpt><trkpt lat="44.4690781" lon="7.7784794"><ele>393.0</ele><time>2026-05-03T15:53:19.098Z</time></trkpt><trkpt lat="44.4691657" lon="7.7788301"><ele>397.5</ele><time>2026-05-03T15:53:20.098Z</time></trkpt><trkpt lat="44.4692497" lon="7.7791611"><ele>402.0</ele><time>2026-05-03T15:53:21.098Z</time></trkpt><trkpt lat="44.4693484" lon="7.7795003"><ele>407.5</ele><time>2026-05-03T15:53:22.098Z</time></trkpt><trkpt lat="44.4694512" lon="7.7798363"><ele>413.0</ele><time>2026-05-03T15:53:23.098Z</time></trkpt><trkpt lat="44.4695321" lon="7.7801282"><ele>414.5</ele><time>2026-05-03T15:53:24.098Z</time></trkpt><trkpt lat="44.4696356" lon="7.7804668"><ele>416.0</ele><time>2026-05-03T15:53:25.098Z</time></trkpt><trkpt lat="44.4697344" lon="7.7807894"><ele>416.5</ele><time>2026-05-03T15:53:26.098Z</time></trkpt><trkpt lat="44.4698401" lon="7.7811048"><ele>417.0</ele><time>2026-05-03T15:53:27.097Z</time></trkpt><trkpt lat="44.4699486" lon="7.7814075"><ele>417.0</ele><time>2026-05-03T15:53:28.098Z</time></trkpt><trkpt lat="44.4700549" lon="7.7817253"><ele>417.0</ele><time>2026-05-03T15:53:29.097Z</time></trkpt><trkpt lat="44.4701669" lon="7.7820355"><ele>416.0</ele><time>2026-05-03T15:53:30.098Z</time></trkpt><trkpt lat="44.47029" lon="7.7823384"><ele>415.0</ele><time>2026-05-03T15:53:31.098Z</time></trkpt><trkpt lat="44.4704081" lon="7.782647"><ele>416.5</ele><time>2026-05-03T15:53:32.098Z</time></trkpt><trkpt lat="44.4705359" lon="7.7829542"><ele>418.0</ele><time>2026-05-03T15:53:33.097Z</time></trkpt><trkpt lat="44.4706488" lon="7.7832449"><ele>417.0</ele><time>2026-05-03T15:53:34.098Z</time></trkpt><trkpt lat="44.4707917" lon="7.7835455"><ele>416.0</ele><time>2026-05-03T15:53:35.098Z</time></trkpt><trkpt lat="44.4709152" lon="7.7838449"><ele>416.0</ele><time>2026-05-03T15:53:36.098Z</time></trkpt><trkpt lat="44.4710458" lon="7.7841277"><ele>416.0</ele><time>2026-05-03T15:53:37.098Z</time></trkpt><trkpt lat="44.4711923" lon="7.7844294"><ele>418.5</ele><time>2026-05-03T15:53:38.098Z</time></trkpt><trkpt lat="44.4713413" lon="7.7847264"><ele>421.0</ele><time>2026-05-03T15:53:39.097Z</time></trkpt><trkpt lat="44.4714908" lon="7.785019"><ele>420.0</ele><time>2026-05-03T15:53:40.098Z</time></trkpt><trkpt lat="44.4716305" lon="7.7853043"><ele>419.0</ele><time>2026-05-03T15:53:41.098Z</time></trkpt><trkpt lat="44.4717908" lon="7.7856023"><ele>419.0</ele><time>2026-05-03T15:53:42.098Z</time></trkpt><trkpt lat="44.4719457" lon="7.7858905"><ele>419.0</ele><time>2026-05-03T15:53:43.098Z</time></trkpt><trkpt lat="44.4720997" lon="7.7861777"><ele>419.0</ele><time>2026-05-03T15:53:44.098Z</time></trkpt><trkpt lat="44.4722631" lon="7.7864594"><ele>419.0</ele><time>2026-05-03T15:53:45.098Z</time></trkpt><trkpt lat="44.4724354" lon="7.7867336"><ele>419.0</ele><time>2026-05-03T15:53:46.098Z</time></trkpt><trkpt lat="44.4726021" lon="7.7870076"><ele>419.0</ele><time>2026-05-03T15:53:47.098Z</time></trkpt><trkpt lat="44.4727782" lon="7.7872885"><ele>419.0</ele><time>2026-05-03T15:53:48.098Z</time></trkpt><trkpt lat="44.4729586" lon="7.7875685"><ele>419.0</ele><time>2026-05-03T15:53:49.098Z</time></trkpt><trkpt lat="44.473138" lon="7.787836"><ele>419.0</ele><time>2026-05-03T15:53:50.098Z</time></trkpt><trkpt lat="44.47333" lon="7.7881024"><ele>419.0</ele><time>2026-05-03T15:53:51.097Z</time></trkpt><trkpt lat="44.4735253" lon="7.7883718"><ele>419.0</ele><time>2026-05-03T15:53:52.098Z</time></trkpt><trkpt lat="44.4737172" lon="7.7886224"><ele>419.0</ele><time>2026-05-03T15:53:53.097Z</time></trkpt><trkpt lat="44.4739144" lon="7.788887"><ele>419.0</ele><time>2026-05-03T15:53:54.098Z</time></trkpt><trkpt lat="44.4741162" lon="7.7891373"><ele>419.0</ele><time>2026-05-03T15:53:55.097Z</time></trkpt><trkpt lat="44.4743249" lon="7.7893841"><ele>419.0</ele><time>2026-05-03T15:53:56.098Z</time></trkpt><trkpt lat="44.4745341" lon="7.7896237"><ele>419.0</ele><time>2026-05-03T15:53:57.098Z</time></trkpt><trkpt lat="44.4747458" lon="7.7898626"><ele>420.0</ele><time>2026-05-03T15:53:58.098Z</time></trkpt><trkpt lat="44.4749573" lon="7.7900923"><ele>421.0</ele><time>2026-05-03T15:53:59.098Z</time></trkpt><trkpt lat="44.4751701" lon="7.7903183"><ele>421.0</ele><time>2026-05-03T15:54:00.098Z</time></trkpt><trkpt lat="44.4753773" lon="7.7905453"><ele>421.0</ele><time>2026-05-03T15:54:01.098Z</time></trkpt><trkpt lat="44.4755949" lon="7.7907667"><ele>420.0</ele><time>2026-05-03T15:54:02.098Z</time></trkpt><trkpt lat="44.4758287" lon="7.7909889"><ele>419.0</ele><time>2026-05-03T15:54:03.098Z</time></trkpt><trkpt lat="44.4760464" lon="7.7912025"><ele>419.0</ele><time>2026-05-03T15:54:04.097Z</time></trkpt><trkpt lat="44.4762649" lon="7.7914152"><ele>419.0</ele><time>2026-05-03T15:54:05.098Z</time></trkpt><trkpt lat="44.4764742" lon="7.7916229"><ele>419.0</ele><time>2026-05-03T15:54:06.098Z</time></trkpt><trkpt lat="44.4766936" lon="7.7918311"><ele>419.0</ele><time>2026-05-03T15:54:07.098Z</time></trkpt><trkpt lat="44.4769132" lon="7.7920437"><ele>419.5</ele><time>2026-05-03T15:54:08.098Z</time></trkpt><trkpt lat="44.4771338" lon="7.7922531"><ele>420.0</ele><time>2026-05-03T15:54:09.098Z</time></trkpt><trkpt lat="44.4773531" lon="7.7924537"><ele>420.0</ele><time>2026-05-03T15:54:10.098Z</time></trkpt><trkpt lat="44.4775731" lon="7.7926579"><ele>420.0</ele><time>2026-05-03T15:54:11.098Z</time></trkpt><trkpt lat="44.4777899" lon="7.7928617"><ele>419.0</ele><time>2026-05-03T15:54:12.098Z</time></trkpt><trkpt lat="44.4780195" lon="7.7930685"><ele>418.0</ele><time>2026-05-03T15:54:13.098Z</time></trkpt><trkpt lat="44.4782316" lon="7.7932806"><ele>418.0</ele><time>2026-05-03T15:54:14.098Z</time></trkpt><trkpt lat="44.478441" lon="7.7934996"><ele>418.0</ele><time>2026-05-03T15:54:15.098Z</time></trkpt><trkpt lat="44.4786604" lon="7.7937294"><ele>417.5</ele><time>2026-05-03T15:54:16.097Z</time></trkpt><trkpt lat="44.4788761" lon="7.7939517"><ele>417.0</ele><time>2026-05-03T15:54:17.098Z</time></trkpt><trkpt lat="44.4790922" lon="7.7941953"><ele>417.5</ele><time>2026-05-03T15:54:18.098Z</time></trkpt><trkpt lat="44.479299" lon="7.7944457"><ele>418.0</ele><time>2026-05-03T15:54:19.097Z</time></trkpt><trkpt lat="44.4795126" lon="7.7947047"><ele>418.0</ele><time>2026-05-03T15:54:20.098Z</time></trkpt><trkpt lat="44.4797254" lon="7.7949608"><ele>418.0</ele><time>2026-05-03T15:54:21.098Z</time></trkpt><trkpt lat="44.4799336" lon="7.7951971"><ele>418.0</ele><time>2026-05-03T15:54:22.098Z</time></trkpt><trkpt lat="44.4801014" lon="7.795444"><ele>418.0</ele><time>2026-05-03T15:54:23.098Z</time></trkpt><trkpt lat="44.4802869" lon="7.7956914"><ele>418.0</ele><time>2026-05-03T15:54:24.098Z</time></trkpt><trkpt lat="44.4804576" lon="7.7959548"><ele>418.0</ele><time>2026-05-03T15:54:25.098Z</time></trkpt><trkpt lat="44.4806346" lon="7.7962158"><ele>418.5</ele><time>2026-05-03T15:54:26.098Z</time></trkpt><trkpt lat="44.4808068" lon="7.7964715"><ele>419.0</ele><time>2026-05-03T15:54:27.098Z</time></trkpt><trkpt lat="44.4809731" lon="7.7967259"><ele>419.0</ele><time>2026-05-03T15:54:28.098Z</time></trkpt><trkpt lat="44.4811473" lon="7.7969836"><ele>419.0</ele><time>2026-05-03T15:54:29.097Z</time></trkpt><trkpt lat="44.4813077" lon="7.7972332"><ele>419.0</ele><time>2026-05-03T15:54:30.098Z</time></trkpt><trkpt lat="44.4814584" lon="7.7974894"><ele>419.0</ele><time>2026-05-03T15:54:31.097Z</time></trkpt><trkpt lat="44.4816133" lon="7.7977655"><ele>418.5</ele><time>2026-05-03T15:54:32.098Z</time></trkpt><trkpt lat="44.4817721" lon="7.7980345"><ele>418.0</ele><time>2026-05-03T15:54:33.098Z</time></trkpt><trkpt lat="44.4819117" lon="7.7983084"><ele>418.5</ele><time>2026-05-03T15:54:34.098Z</time></trkpt><trkpt lat="44.4820556" lon="7.7986027"><ele>419.0</ele><time>2026-05-03T15:54:35.098Z</time></trkpt><trkpt lat="44.4821922" lon="7.7988839"><ele>418.0</ele><time>2026-05-03T15:54:36.098Z</time></trkpt><trkpt lat="44.4823191" lon="7.799176"><ele>417.0</ele><time>2026-05-03T15:54:37.097Z</time></trkpt><trkpt lat="44.4824605" lon="7.7994815"><ele>417.0</ele><time>2026-05-03T15:54:38.098Z</time></trkpt><trkpt lat="44.4825874" lon="7.799773"><ele>417.0</ele><time>2026-05-03T15:54:39.098Z</time></trkpt><trkpt lat="44.4827205" lon="7.8000855"><ele>417.0</ele><time>2026-05-03T15:54:40.098Z</time></trkpt><trkpt lat="44.4828429" lon="7.8003777"><ele>417.0</ele><time>2026-05-03T15:54:41.098Z</time></trkpt><trkpt lat="44.4829622" lon="7.8006809"><ele>417.0</ele><time>2026-05-03T15:54:42.098Z</time></trkpt><trkpt lat="44.4830809" lon="7.8009957"><ele>417.0</ele><time>2026-05-03T15:54:43.098Z</time></trkpt><trkpt lat="44.4831936" lon="7.8013087"><ele>417.5</ele><time>2026-05-03T15:54:44.098Z</time></trkpt><trkpt lat="44.4833051" lon="7.8016213"><ele>418.0</ele><time>2026-05-03T15:54:45.098Z</time></trkpt><trkpt lat="44.4834143" lon="7.8019309"><ele>418.0</ele><time>2026-05-03T15:54:46.098Z</time></trkpt><trkpt lat="44.4835158" lon="7.8022431"><ele>418.0</ele><time>2026-05-03T15:54:47.098Z</time></trkpt><trkpt lat="44.4836081" lon="7.802569"><ele>418.5</ele><time>2026-05-03T15:54:48.097Z</time></trkpt><trkpt lat="44.4837063" lon="7.8029138"><ele>419.0</ele><time>2026-05-03T15:54:49.098Z</time></trkpt><trkpt lat="44.4838062" lon="7.8032375"><ele>419.0</ele><time>2026-05-03T15:54:50.098Z</time></trkpt><trkpt lat="44.4838972" lon="7.8035783"><ele>419.0</ele><time>2026-05-03T15:54:51.097Z</time></trkpt><trkpt lat="44.4839869" lon="7.8039214"><ele>419.0</ele><time>2026-05-03T15:54:52.098Z</time></trkpt><trkpt lat="44.4840648" lon="7.8042646"><ele>419.0</ele><time>2026-05-03T15:54:53.098Z</time></trkpt><trkpt lat="44.4841431" lon="7.8046097"><ele>419.5</ele><time>2026-05-03T15:54:54.098Z</time></trkpt><trkpt lat="44.4842244" lon="7.8049875"><ele>420.0</ele><time>2026-05-03T15:54:55.098Z</time></trkpt><trkpt lat="44.4842954" lon="7.805336"><ele>418.5</ele><time>2026-05-03T15:54:56.098Z</time></trkpt><trkpt lat="44.4843645" lon="7.805693"><ele>417.0</ele><time>2026-05-03T15:54:57.098Z</time></trkpt><trkpt lat="44.4844168" lon="7.8060375"><ele>415.5</ele><time>2026-05-03T15:54:58.098Z</time></trkpt><trkpt lat="44.4844747" lon="7.8063776"><ele>414.0</ele><time>2026-05-03T15:54:59.097Z</time></trkpt><trkpt lat="44.4845338" lon="7.8067123"><ele>413.5</ele><time>2026-05-03T15:55:00.098Z</time></trkpt><trkpt lat="44.4845936" lon="7.8070473"><ele>413.0</ele><time>2026-05-03T15:55:01.097Z</time></trkpt><trkpt lat="44.4846414" lon="7.8073764"><ele>412.5</ele><time>2026-05-03T15:55:02.098Z</time></trkpt><trkpt lat="44.4846854" lon="7.8077071"><ele>412.0</ele><time>2026-05-03T15:55:03.098Z</time></trkpt><trkpt lat="44.4847314" lon="7.8080408"><ele>412.0</ele><time>2026-05-03T15:55:04.098Z</time></trkpt><trkpt lat="44.4847723" lon="7.8083735"><ele>412.0</ele><time>2026-05-03T15:55:05.097Z</time></trkpt><trkpt lat="44.4848278" lon="7.8087182"><ele>411.5</ele><time>2026-05-03T15:55:06.098Z</time></trkpt><trkpt lat="44.4848693" lon="7.8090569"><ele>411.0</ele><time>2026-05-03T15:55:07.098Z</time></trkpt><trkpt lat="44.4848958" lon="7.8093888"><ele>411.0</ele><time>2026-05-03T15:55:08.097Z</time></trkpt><trkpt lat="44.4849199" lon="7.8097121"><ele>411.0</ele><time>2026-05-03T15:55:09.098Z</time></trkpt><trkpt lat="44.484957" lon="7.810048"><ele>411.0</ele><time>2026-05-03T15:55:10.098Z</time></trkpt><trkpt lat="44.4849902" lon="7.8103879"><ele>411.0</ele><time>2026-05-03T15:55:11.097Z</time></trkpt><trkpt lat="44.4850102" lon="7.8107166"><ele>411.0</ele><time>2026-05-03T15:55:12.098Z</time></trkpt><trkpt lat="44.4850158" lon="7.8110431"><ele>411.0</ele><time>2026-05-03T15:55:13.098Z</time></trkpt><trkpt lat="44.4850247" lon="7.8113623"><ele>411.0</ele><time>2026-05-03T15:55:14.097Z</time></trkpt><trkpt lat="44.4850232" lon="7.8116817"><ele>411.0</ele><time>2026-05-03T15:55:15.097Z</time></trkpt><trkpt lat="44.4850375" lon="7.8120014"><ele>411.0</ele><time>2026-05-03T15:55:16.098Z</time></trkpt><trkpt lat="44.4850409" lon="7.8123069"><ele>411.0</ele><time>2026-05-03T15:55:17.098Z</time></trkpt><trkpt lat="44.4850607" lon="7.8126247"><ele>411.0</ele><time>2026-05-03T15:55:18.098Z</time></trkpt><trkpt lat="44.4850661" lon="7.812934"><ele>411.0</ele><time>2026-05-03T15:55:19.097Z</time></trkpt><trkpt lat="44.4850739" lon="7.8132558"><ele>411.0</ele><time>2026-05-03T15:55:20.097Z</time></trkpt><trkpt lat="44.4850711" lon="7.813561"><ele>411.0</ele><time>2026-05-03T15:55:21.098Z</time></trkpt><trkpt lat="44.4850728" lon="7.8138505"><ele>411.0</ele><time>2026-05-03T15:55:22.098Z</time></trkpt><trkpt lat="44.4850767" lon="7.8141256"><ele>411.0</ele><time>2026-05-03T15:55:23.098Z</time></trkpt><trkpt lat="44.4850883" lon="7.8144297"><ele>411.0</ele><time>2026-05-03T15:55:24.097Z</time></trkpt><trkpt lat="44.4850751" lon="7.8147582"><ele>411.0</ele><time>2026-05-03T15:55:25.098Z</time></trkpt><trkpt lat="44.4850873" lon="7.8150185"><ele>411.0</ele><time>2026-05-03T15:55:26.098Z</time></trkpt><trkpt lat="44.4851009" lon="7.8152888"><ele>411.0</ele><time>2026-05-03T15:55:27.097Z</time></trkpt><trkpt lat="44.485099" lon="7.8155394"><ele>411.0</ele><time>2026-05-03T15:55:28.098Z</time></trkpt><trkpt lat="44.4850951" lon="7.8158064"><ele>411.0</ele><time>2026-05-03T15:55:29.098Z</time></trkpt><trkpt lat="44.4850893" lon="7.8160667"><ele>411.0</ele><time>2026-05-03T15:55:30.098Z</time></trkpt><trkpt lat="44.4850885" lon="7.8162409"><ele>411.33333333333337</ele><time>2026-05-03T15:55:31.098Z</time></trkpt><trkpt lat="44.4850951" lon="7.8164967"><ele>411.6666666666667</ele><time>2026-05-03T15:55:32.098Z</time></trkpt><trkpt lat="44.4851093" lon="7.8167542"><ele>412.0</ele><time>2026-05-03T15:55:33.097Z</time></trkpt><trkpt lat="44.4851059" lon="7.8170096"><ele>412.0</ele><time>2026-05-03T15:55:34.098Z</time></trkpt><trkpt lat="44.4850997" lon="7.8172986"><ele>412.0</ele><time>2026-05-03T15:55:35.098Z</time></trkpt><trkpt lat="44.485096" lon="7.8175852"><ele>412.0</ele><time>2026-05-03T15:55:36.098Z</time></trkpt><trkpt lat="44.4850833" lon="7.8178798"><ele>412.0</ele><time>2026-05-03T15:55:37.098Z</time></trkpt><trkpt lat="44.4850231" lon="7.8181731"><ele>412.0</ele><time>2026-05-03T15:55:38.098Z</time></trkpt><trkpt lat="44.4849644" lon="7.8184539"><ele>412.0</ele><time>2026-05-03T15:55:39.098Z</time></trkpt><trkpt lat="44.4848901" lon="7.8187385"><ele>412.33333333333337</ele><time>2026-05-03T15:55:40.098Z</time></trkpt><trkpt lat="44.4848221" lon="7.8190217"><ele>412.66666666666663</ele><time>2026-05-03T15:55:41.097Z</time></trkpt><trkpt lat="44.4847401" lon="7.8192958"><ele>413.0</ele><time>2026-05-03T15:55:42.098Z</time></trkpt><trkpt lat="44.48462" lon="7.8195577"><ele>412.66666666666663</ele><time>2026-05-03T15:55:43.098Z</time></trkpt><trkpt lat="44.4845023" lon="7.8198159"><ele>412.33333333333337</ele><time>2026-05-03T15:55:44.098Z</time></trkpt><trkpt lat="44.4843584" lon="7.8200655"><ele>412.0</ele><time>2026-05-03T15:55:45.098Z</time></trkpt><trkpt lat="44.4842106" lon="7.8202944"><ele>412.0</ele><time>2026-05-03T15:55:46.097Z</time></trkpt><trkpt lat="44.484046" lon="7.8205194"><ele>412.0</ele><time>2026-05-03T15:55:47.098Z</time></trkpt><trkpt lat="44.4838855" lon="7.8207404"><ele>411.5</ele><time>2026-05-03T15:55:48.098Z</time></trkpt><trkpt lat="44.4837095" lon="7.820952"><ele>411.0</ele><time>2026-05-03T15:55:49.098Z</time></trkpt><trkpt lat="44.4835295" lon="7.8211427"><ele>410.66666666666663</ele><time>2026-05-03T15:55:50.098Z</time></trkpt><trkpt lat="44.4833588" lon="7.8212953"><ele>410.3333333333333</ele><time>2026-05-03T15:55:51.098Z</time></trkpt><trkpt lat="44.4831588" lon="7.8214843"><ele>410.0</ele><time>2026-05-03T15:55:52.097Z</time></trkpt><trkpt lat="44.4829219" lon="7.821666"><ele>409.5</ele><time>2026-05-03T15:55:53.097Z</time></trkpt><trkpt lat="44.4827342" lon="7.8218205"><ele>409.0</ele><time>2026-05-03T15:55:54.098Z</time></trkpt><trkpt lat="44.4825135" lon="7.8219681"><ele>409.0</ele><time>2026-05-03T15:55:55.097Z</time></trkpt><trkpt lat="44.4822944" lon="7.8221103"><ele>409.0</ele><time>2026-05-03T15:55:56.098Z</time></trkpt><trkpt lat="44.4820946" lon="7.8222456"><ele>409.5</ele><time>2026-05-03T15:55:57.098Z</time></trkpt><trkpt lat="44.4818873" lon="7.8224156"><ele>410.0</ele><time>2026-05-03T15:55:58.098Z</time></trkpt><trkpt lat="44.4816832" lon="7.8225631"><ele>410.0</ele><time>2026-05-03T15:55:59.098Z</time></trkpt><trkpt lat="44.481467" lon="7.8227179"><ele>410.0</ele><time>2026-05-03T15:56:00.098Z</time></trkpt><trkpt lat="44.4812527" lon="7.8228714"><ele>409.5</ele><time>2026-05-03T15:56:01.097Z</time></trkpt><trkpt lat="44.481033" lon="7.8230233"><ele>409.0</ele><time>2026-05-03T15:56:02.097Z</time></trkpt><trkpt lat="44.4808026" lon="7.8231698"><ele>409.0</ele><time>2026-05-03T15:56:03.098Z</time></trkpt><trkpt lat="44.4806061" lon="7.8233178"><ele>409.0</ele><time>2026-05-03T15:56:04.098Z</time></trkpt><trkpt lat="44.4804048" lon="7.8234425"><ele>409.0</ele><time>2026-05-03T15:56:05.098Z</time></trkpt><trkpt lat="44.4801982" lon="7.8236093"><ele>409.5</ele><time>2026-05-03T15:56:06.097Z</time></trkpt><trkpt lat="44.4800026" lon="7.8237463"><ele>410.0</ele><time>2026-05-03T15:56:07.097Z</time></trkpt><trkpt lat="44.4797952" lon="7.823902"><ele>409.0</ele><time>2026-05-03T15:56:08.097Z</time></trkpt><trkpt lat="44.479578" lon="7.8240585"><ele>408.0</ele><time>2026-05-03T15:56:09.097Z</time></trkpt><trkpt lat="44.479364" lon="7.8241942"><ele>407.5</ele><time>2026-05-03T15:56:10.098Z</time></trkpt><trkpt lat="44.4791563" lon="7.8243369"><ele>407.0</ele><time>2026-05-03T15:56:11.098Z</time></trkpt><trkpt lat="44.4789559" lon="7.8244917"><ele>407.5</ele><time>2026-05-03T15:56:12.098Z</time></trkpt><trkpt lat="44.4787382" lon="7.8246527"><ele>408.0</ele><time>2026-05-03T15:56:13.098Z</time></trkpt><trkpt lat="44.4785168" lon="7.8247973"><ele>408.0</ele><time>2026-05-03T15:56:14.098Z</time></trkpt><trkpt lat="44.478305" lon="7.8249517"><ele>408.0</ele><time>2026-05-03T15:56:15.097Z</time></trkpt><trkpt lat="44.4781072" lon="7.8251387"><ele>408.5</ele><time>2026-05-03T15:56:16.098Z</time></trkpt><trkpt lat="44.4778887" lon="7.825294"><ele>409.0</ele><time>2026-05-03T15:56:17.097Z</time></trkpt><trkpt lat="44.4776717" lon="7.8254486"><ele>409.0</ele><time>2026-05-03T15:56:18.098Z</time></trkpt><trkpt lat="44.4774589" lon="7.8256021"><ele>409.0</ele><time>2026-05-03T15:56:19.098Z</time></trkpt><trkpt lat="44.4772456" lon="7.8257567"><ele>408.5</ele><time>2026-05-03T15:56:20.098Z</time></trkpt><trkpt lat="44.477029" lon="7.8259046"><ele>408.0</ele><time>2026-05-03T15:56:21.098Z</time></trkpt><trkpt lat="44.4768183" lon="7.8260448"><ele>407.5</ele><time>2026-05-03T15:56:22.098Z</time></trkpt><trkpt lat="44.4766023" lon="7.826181"><ele>407.0</ele><time>2026-05-03T15:56:23.098Z</time></trkpt><trkpt lat="44.4763871" lon="7.8263113"><ele>408.5</ele><time>2026-05-03T15:56:24.098Z</time></trkpt><trkpt lat="44.4761808" lon="7.8264428"><ele>410.0</ele><time>2026-05-03T15:56:25.098Z</time></trkpt><trkpt lat="44.4759381" lon="7.8265988"><ele>410.0</ele><time>2026-05-03T15:56:26.098Z</time></trkpt><trkpt lat="44.4757218" lon="7.8267563"><ele>410.0</ele><time>2026-05-03T15:56:27.098Z</time></trkpt><trkpt lat="44.4754938" lon="7.82693"><ele>410.5</ele><time>2026-05-03T15:56:28.097Z</time></trkpt><trkpt lat="44.4752986" lon="7.8270649"><ele>411.0</ele><time>2026-05-03T15:56:29.098Z</time></trkpt><trkpt lat="44.4750862" lon="7.8272268"><ele>411.0</ele><time>2026-05-03T15:56:30.098Z</time></trkpt><trkpt lat="44.4748445" lon="7.8273779"><ele>411.0</ele><time>2026-05-03T15:56:31.097Z</time></trkpt><trkpt lat="44.4746282" lon="7.8275146"><ele>409.5</ele><time>2026-05-03T15:56:32.097Z</time></trkpt><trkpt lat="44.4744101" lon="7.8276353"><ele>408.0</ele><time>2026-05-03T15:56:33.097Z</time></trkpt><trkpt lat="44.4741812" lon="7.8277532"><ele>406.5</ele><time>2026-05-03T15:56:34.098Z</time></trkpt><trkpt lat="44.4739454" lon="7.8278819"><ele>405.0</ele><time>2026-05-03T15:56:35.098Z</time></trkpt><trkpt lat="44.4737161" lon="7.8280003"><ele>405.0</ele><time>2026-05-03T15:56:36.098Z</time></trkpt><trkpt lat="44.4734867" lon="7.8281232"><ele>405.0</ele><time>2026-05-03T15:56:37.098Z</time></trkpt><trkpt lat="44.4732553" lon="7.8282458"><ele>405.0</ele><time>2026-05-03T15:56:38.098Z</time></trkpt><trkpt lat="44.4730338" lon="7.828347"><ele>405.0</ele><time>2026-05-03T15:56:39.098Z</time></trkpt><trkpt lat="44.4728216" lon="7.8284503"><ele>403.5</ele><time>2026-05-03T15:56:40.098Z</time></trkpt><trkpt lat="44.4725769" lon="7.828567"><ele>402.0</ele><time>2026-05-03T15:56:41.097Z</time></trkpt><trkpt lat="44.4723505" lon="7.8286704"><ele>402.0</ele><time>2026-05-03T15:56:42.098Z</time></trkpt><trkpt lat="44.4721324" lon="7.8287927"><ele>402.0</ele><time>2026-05-03T15:56:43.098Z</time></trkpt><trkpt lat="44.471907" lon="7.8289179"><ele>402.5</ele><time>2026-05-03T15:56:44.098Z</time></trkpt><trkpt lat="44.4716742" lon="7.8290289"><ele>403.0</ele><time>2026-05-03T15:56:45.098Z</time></trkpt><trkpt lat="44.471447" lon="7.8291503"><ele>403.0</ele><time>2026-05-03T15:56:46.098Z</time></trkpt><trkpt lat="44.4712179" lon="7.8292718"><ele>403.0</ele><time>2026-05-03T15:56:47.097Z</time></trkpt><trkpt lat="44.4709954" lon="7.8293842"><ele>402.5</ele><time>2026-05-03T15:56:48.098Z</time></trkpt><trkpt lat="44.4707611" lon="7.8294957"><ele>402.0</ele><time>2026-05-03T15:56:49.098Z</time></trkpt><trkpt lat="44.4705196" lon="7.8296227"><ele>402.5</ele><time>2026-05-03T15:56:50.098Z</time></trkpt><trkpt lat="44.4703002" lon="7.8297381"><ele>403.0</ele><time>2026-05-03T15:56:51.098Z</time></trkpt><trkpt lat="44.4700887" lon="7.8298567"><ele>403.0</ele><time>2026-05-03T15:56:52.098Z</time></trkpt><trkpt lat="44.4698447" lon="7.8299818"><ele>403.0</ele><time>2026-05-03T15:56:53.098Z</time></trkpt><trkpt lat="44.469587" lon="7.8301155"><ele>396.5</ele><time>2026-05-03T15:56:54.097Z</time></trkpt><trkpt lat="44.4693537" lon="7.8302411"><ele>390.0</ele><time>2026-05-03T15:56:55.098Z</time></trkpt><trkpt lat="44.4690955" lon="7.8303784"><ele>390.0</ele><time>2026-05-03T15:56:56.098Z</time></trkpt><trkpt lat="44.4688355" lon="7.8305204"><ele>390.0</ele><time>2026-05-03T15:56:57.097Z</time></trkpt><trkpt lat="44.4685851" lon="7.8306529"><ele>387.0</ele><time>2026-05-03T15:56:58.097Z</time></trkpt><trkpt lat="44.4683351" lon="7.830776"><ele>384.0</ele><time>2026-05-03T15:56:59.098Z</time></trkpt><trkpt lat="44.4680927" lon="7.8308833"><ele>380.5</ele><time>2026-05-03T15:57:00.098Z</time></trkpt><trkpt lat="44.4678432" lon="7.8309982"><ele>377.0</ele><time>2026-05-03T15:57:01.098Z</time></trkpt><trkpt lat="44.4675917" lon="7.8311279"><ele>377.0</ele><time>2026-05-03T15:57:02.098Z</time></trkpt><trkpt lat="44.4673502" lon="7.8312507"><ele>377.0</ele><time>2026-05-03T15:57:03.098Z</time></trkpt><trkpt lat="44.4671287" lon="7.8313784"><ele>376.5</ele><time>2026-05-03T15:57:04.098Z</time></trkpt><trkpt lat="44.4668776" lon="7.8314913"><ele>376.0</ele><time>2026-05-03T15:57:05.097Z</time></trkpt><trkpt lat="44.4666733" lon="7.8315875"><ele>376.0</ele><time>2026-05-03T15:57:06.098Z</time></trkpt><trkpt lat="44.4664537" lon="7.8316972"><ele>376.0</ele><time>2026-05-03T15:57:07.098Z</time></trkpt><trkpt lat="44.4662404" lon="7.831816"><ele>375.5</ele><time>2026-05-03T15:57:08.098Z</time></trkpt><trkpt lat="44.4660208" lon="7.8319175"><ele>375.0</ele><time>2026-05-03T15:57:09.098Z</time></trkpt><trkpt lat="44.465813" lon="7.8320289"><ele>375.0</ele><time>2026-05-03T15:57:10.097Z</time></trkpt><trkpt lat="44.4655925" lon="7.8321449"><ele>375.0</ele><time>2026-05-03T15:57:11.098Z</time></trkpt><trkpt lat="44.4653751" lon="7.832267"><ele>375.0</ele><time>2026-05-03T15:57:12.097Z</time></trkpt><trkpt lat="44.4651736" lon="7.8323804"><ele>375.0</ele><time>2026-05-03T15:57:13.098Z</time></trkpt><trkpt lat="44.4649752" lon="7.8324551"><ele>375.0</ele><time>2026-05-03T15:57:14.098Z</time></trkpt><trkpt lat="44.4647749" lon="7.8325455"><ele>375.0</ele><time>2026-05-03T15:57:15.098Z</time></trkpt><trkpt lat="44.4646195" lon="7.8326257"><ele>375.0</ele><time>2026-05-03T15:57:16.098Z</time></trkpt><trkpt lat="44.4644403" lon="7.8327253"><ele>375.0</ele><time>2026-05-03T15:57:17.098Z</time></trkpt><trkpt lat="44.4642737" lon="7.83281"><ele>374.75</ele><time>2026-05-03T15:57:18.098Z</time></trkpt><trkpt lat="44.46412" lon="7.8328705"><ele>374.5</ele><time>2026-05-03T15:57:19.098Z</time></trkpt><trkpt lat="44.4639802" lon="7.832918"><ele>374.25</ele><time>2026-05-03T15:57:20.098Z</time></trkpt><trkpt lat="44.4638543" lon="7.8329858"><ele>374.0</ele><time>2026-05-03T15:57:21.098Z</time></trkpt><trkpt lat="44.4637214" lon="7.8330554"><ele>373.75</ele><time>2026-05-03T15:57:22.098Z</time></trkpt><trkpt lat="44.4636145" lon="7.8331015"><ele>373.5</ele><time>2026-05-03T15:57:23.098Z</time></trkpt><trkpt lat="44.4634952" lon="7.833133"><ele>373.25</ele><time>2026-05-03T15:57:24.098Z</time></trkpt><trkpt lat="44.4633875" lon="7.8331481"><ele>373.0</ele><time>2026-05-03T15:57:25.097Z</time></trkpt><trkpt lat="44.4632513" lon="7.8331312"><ele>373.0</ele><time>2026-05-03T15:57:26.098Z</time></trkpt><trkpt lat="44.4631714" lon="7.8330177"><ele>373.0</ele><time>2026-05-03T15:57:27.098Z</time></trkpt><trkpt lat="44.4631019" lon="7.8329037"><ele>373.0</ele><time>2026-05-03T15:57:28.097Z</time></trkpt><trkpt lat="44.4630287" lon="7.8327731"><ele>373.0</ele><time>2026-05-03T15:57:29.098Z</time></trkpt><trkpt lat="44.4630178" lon="7.8326251"><ele>373.0</ele><time>2026-05-03T15:57:30.098Z</time></trkpt><trkpt lat="44.4630407" lon="7.8324682"><ele>373.25</ele><time>2026-05-03T15:57:31.098Z</time></trkpt><trkpt lat="44.4630909" lon="7.832308"><ele>373.5</ele><time>2026-05-03T15:57:32.097Z</time></trkpt><trkpt lat="44.4632256" lon="7.8321919"><ele>373.75</ele><time>2026-05-03T15:57:33.098Z</time></trkpt><trkpt lat="44.4633438" lon="7.8320894"><ele>374.0</ele><time>2026-05-03T15:57:34.098Z</time></trkpt><trkpt lat="44.4634904" lon="7.8320453"><ele>374.0</ele><time>2026-05-03T15:57:35.098Z</time></trkpt><trkpt lat="44.4636857" lon="7.832007"><ele>374.0</ele><time>2026-05-03T15:57:36.098Z</time></trkpt><trkpt lat="44.463866" lon="7.8319664"><ele>374.0</ele><time>2026-05-03T15:57:37.098Z</time></trkpt><trkpt lat="44.4640472" lon="7.8319174"><ele>374.0</ele><time>2026-05-03T15:57:38.098Z</time></trkpt><trkpt lat="44.4642579" lon="7.8318741"><ele>374.0</ele><time>2026-05-03T15:57:39.098Z</time></trkpt><trkpt lat="44.4644324" lon="7.8318218"><ele>374.0</ele><time>2026-05-03T15:57:40.098Z</time></trkpt><trkpt lat="44.4646229" lon="7.8317728"><ele>373.75</ele><time>2026-05-03T15:57:41.098Z</time></trkpt><trkpt lat="44.4647831" lon="7.8317297"><ele>373.5</ele><time>2026-05-03T15:57:42.098Z</time></trkpt><trkpt lat="44.4649355" lon="7.8316845"><ele>373.25</ele><time>2026-05-03T15:57:43.098Z</time></trkpt><trkpt lat="44.465056" lon="7.8316778"><ele>373.0</ele><time>2026-05-03T15:57:44.097Z</time></trkpt><trkpt lat="44.4651881" lon="7.8316597"><ele>373.0</ele><time>2026-05-03T15:57:45.097Z</time></trkpt><trkpt lat="44.4652959" lon="7.8316951"><ele>373.0</ele><time>2026-05-03T15:57:46.097Z</time></trkpt><trkpt lat="44.4654217" lon="7.8318194"><ele>373.0</ele><time>2026-05-03T15:57:47.098Z</time></trkpt><trkpt lat="44.4655463" lon="7.8319139"><ele>373.0</ele><time>2026-05-03T15:57:48.098Z</time></trkpt><trkpt lat="44.4655973" lon="7.8320702"><ele>373.25</ele><time>2026-05-03T15:57:49.098Z</time></trkpt><trkpt lat="44.465655" lon="7.8322159"><ele>373.5</ele><time>2026-05-03T15:57:50.098Z</time></trkpt><trkpt lat="44.4656898" lon="7.8323709"><ele>373.75</ele><time>2026-05-03T15:57:51.098Z</time></trkpt><trkpt lat="44.4657003" lon="7.83254"><ele>374.0</ele><time>2026-05-03T15:57:52.098Z</time></trkpt><trkpt lat="44.4656983" lon="7.8327174"><ele>374.0</ele><time>2026-05-03T15:57:53.098Z</time></trkpt><trkpt lat="44.4656215" lon="7.8328501"><ele>374.0</ele><time>2026-05-03T15:57:54.098Z</time></trkpt><trkpt lat="44.465578" lon="7.8329644"><ele>374.0</ele><time>2026-05-03T15:57:55.098Z</time></trkpt><trkpt lat="44.4655402" lon="7.8330772"><ele>374.0</ele><time>2026-05-03T15:57:56.098Z</time></trkpt><trkpt lat="44.4655268" lon="7.8332009"><ele>374.0</ele><time>2026-05-03T15:57:57.098Z</time></trkpt><trkpt lat="44.4655192" lon="7.8333157"><ele>374.0</ele><time>2026-05-03T15:57:58.098Z</time></trkpt><trkpt lat="44.4655214" lon="7.8334526"><ele>374.0</ele><time>2026-05-03T15:57:59.098Z</time></trkpt><trkpt lat="44.4655243" lon="7.8335738"><ele>374.0</ele><time>2026-05-03T15:58:00.098Z</time></trkpt><trkpt lat="44.465575" lon="7.8337161"><ele>374.0</ele><time>2026-05-03T15:58:01.098Z</time></trkpt><trkpt lat="44.465591" lon="7.8338502"><ele>374.0</ele><time>2026-05-03T15:58:02.098Z</time></trkpt><trkpt lat="44.4656558" lon="7.8339813"><ele>374.0</ele><time>2026-05-03T15:58:03.098Z</time></trkpt><trkpt lat="44.4656912" lon="7.8341119"><ele>374.0</ele><time>2026-05-03T15:58:04.098Z</time></trkpt><trkpt lat="44.4657364" lon="7.8342032"><ele>374.0</ele><time>2026-05-03T15:58:05.098Z</time></trkpt><trkpt lat="44.4657751" lon="7.8342911"><ele>374.0</ele><time>2026-05-03T15:58:06.098Z</time></trkpt><trkpt lat="44.4658606" lon="7.8343711"><ele>374.0</ele><time>2026-05-03T15:58:08.098Z</time></trkpt><trkpt lat="44.465925" lon="7.8343241"><ele>374.0</ele><time>2026-05-03T15:58:09.098Z</time></trkpt><trkpt lat="44.466023" lon="7.8342819"><ele>374.0</ele><time>2026-05-03T15:58:11.098Z</time></trkpt><trkpt lat="44.4661115" lon="7.8342268"><ele>374.0</ele><time>2026-05-03T15:58:13.098Z</time></trkpt><trkpt lat="44.466188" lon="7.8341878"><ele>374.0</ele><time>2026-05-03T15:58:15.098Z</time></trkpt><trkpt lat="44.466262" lon="7.8341623"><ele>374.0</ele><time>2026-05-03T15:58:18.098Z</time></trkpt><trkpt lat="44.4663085" lon="7.8340956"><ele>374.0</ele><time>2026-05-03T15:58:31.098Z</time></trkpt><trkpt lat="44.4664652" lon="7.8339655"><ele>374.0</ele><time>2026-05-03T15:59:11.098Z</time></trkpt><trkpt lat="44.4665914" lon="7.833938"><ele>374.0</ele><time>2026-05-03T15:59:13.098Z</time></trkpt><trkpt lat="44.4667162" lon="7.8339031"><ele>374.0</ele><time>2026-05-03T15:59:15.098Z</time></trkpt><trkpt lat="44.4668191" lon="7.8338854"><ele>374.0</ele><time>2026-05-03T15:59:17.098Z</time></trkpt><trkpt lat="44.4669372" lon="7.8338437"><ele>374.0</ele><time>2026-05-03T15:59:19.098Z</time></trkpt><trkpt lat="44.4670593" lon="7.8338791"><ele>374.0</ele><time>2026-05-03T15:59:21.097Z</time></trkpt><trkpt lat="44.4671479" lon="7.8339993"><ele>374.0</ele><time>2026-05-03T15:59:23.097Z</time></trkpt><trkpt lat="44.4672496" lon="7.8341565"><ele>374.0</ele><time>2026-05-03T15:59:24.098Z</time></trkpt><trkpt lat="44.4673204" lon="7.8342766"><ele>373.75</ele><time>2026-05-03T15:59:25.098Z</time></trkpt><trkpt lat="44.4674044" lon="7.8344088"><ele>373.5</ele><time>2026-05-03T15:59:26.098Z</time></trkpt><trkpt lat="44.4674866" lon="7.834547"><ele>373.25</ele><time>2026-05-03T15:59:27.098Z</time></trkpt><trkpt lat="44.4675778" lon="7.8347006"><ele>373.0</ele><time>2026-05-03T15:59:28.098Z</time></trkpt><trkpt lat="44.4676851" lon="7.8348747"><ele>373.0</ele><time>2026-05-03T15:59:29.098Z</time></trkpt><trkpt lat="44.467813" lon="7.8350673"><ele>373.0</ele><time>2026-05-03T15:59:30.098Z</time></trkpt><trkpt lat="44.4679227" lon="7.8352616"><ele>373.0</ele><time>2026-05-03T15:59:31.098Z</time></trkpt><trkpt lat="44.4680379" lon="7.8354351"><ele>373.0</ele><time>2026-05-03T15:59:32.098Z</time></trkpt><trkpt lat="44.4681493" lon="7.8356102"><ele>373.0</ele><time>2026-05-03T15:59:33.098Z</time></trkpt><trkpt lat="44.4682552" lon="7.8357926"><ele>373.0</ele><time>2026-05-03T15:59:34.098Z</time></trkpt><trkpt lat="44.4683795" lon="7.8359972"><ele>373.0</ele><time>2026-05-03T15:59:35.098Z</time></trkpt><trkpt lat="44.4685081" lon="7.8361768"><ele>373.0</ele><time>2026-05-03T15:59:36.098Z</time></trkpt><trkpt lat="44.4686542" lon="7.8364"><ele>373.0</ele><time>2026-05-03T15:59:37.098Z</time></trkpt><trkpt lat="44.4688051" lon="7.8366024"><ele>372.3333333333333</ele><time>2026-05-03T15:59:38.098Z</time></trkpt><trkpt lat="44.4689562" lon="7.8368202"><ele>371.6666666666667</ele><time>2026-05-03T15:59:39.098Z</time></trkpt><trkpt lat="44.4690729" lon="7.837025"><ele>371.0</ele><time>2026-05-03T15:59:40.098Z</time></trkpt><trkpt lat="44.4691946" lon="7.8372202"><ele>371.0</ele><time>2026-05-03T15:59:41.098Z</time></trkpt><trkpt lat="44.4693166" lon="7.8374211"><ele>371.0</ele><time>2026-05-03T15:59:42.098Z</time></trkpt><trkpt lat="44.4694474" lon="7.8376583"><ele>371.0</ele><time>2026-05-03T15:59:43.098Z</time></trkpt><trkpt lat="44.4695781" lon="7.8378803"><ele>371.0</ele><time>2026-05-03T15:59:44.098Z</time></trkpt><trkpt lat="44.4697162" lon="7.8381032"><ele>371.0</ele><time>2026-05-03T15:59:45.098Z</time></trkpt><trkpt lat="44.4698507" lon="7.8383266"><ele>371.0</ele><time>2026-05-03T15:59:46.098Z</time></trkpt><trkpt lat="44.4699823" lon="7.8385427"><ele>371.0</ele><time>2026-05-03T15:59:47.098Z</time></trkpt><trkpt lat="44.4701209" lon="7.8387893"><ele>371.0</ele><time>2026-05-03T15:59:48.098Z</time></trkpt><trkpt lat="44.4702383" lon="7.8390317"><ele>371.0</ele><time>2026-05-03T15:59:49.098Z</time></trkpt><trkpt lat="44.4703363" lon="7.8392709"><ele>371.0</ele><time>2026-05-03T15:59:50.098Z</time></trkpt><trkpt lat="44.4704474" lon="7.8395209"><ele>371.0</ele><time>2026-05-03T15:59:51.098Z</time></trkpt><trkpt lat="44.4705322" lon="7.8397563"><ele>371.0</ele><time>2026-05-03T15:59:52.098Z</time></trkpt><trkpt lat="44.4706142" lon="7.8400047"><ele>370.6666666666667</ele><time>2026-05-03T15:59:53.098Z</time></trkpt><trkpt lat="44.4706904" lon="7.8402512"><ele>370.3333333333333</ele><time>2026-05-03T15:59:54.098Z</time></trkpt><trkpt lat="44.4707667" lon="7.8404862"><ele>370.0</ele><time>2026-05-03T15:59:55.098Z</time></trkpt><trkpt lat="44.4708354" lon="7.840721"><ele>370.0</ele><time>2026-05-03T15:59:56.098Z</time></trkpt><trkpt lat="44.470912" lon="7.8409568"><ele>370.0</ele><time>2026-05-03T15:59:57.097Z</time></trkpt><trkpt lat="44.4709571" lon="7.8411845"><ele>370.0</ele><time>2026-05-03T15:59:58.097Z</time></trkpt><trkpt lat="44.4709966" lon="7.841421"><ele>369.66666666666663</ele><time>2026-05-03T15:59:59.098Z</time></trkpt><trkpt lat="44.4710423" lon="7.841659"><ele>369.3333333333333</ele><time>2026-05-03T16:00:00.098Z</time></trkpt><trkpt lat="44.4710737" lon="7.8419026"><ele>369.0</ele><time>2026-05-03T16:00:01.098Z</time></trkpt><trkpt lat="44.4711158" lon="7.8421464"><ele>369.0</ele><time>2026-05-03T16:00:02.097Z</time></trkpt><trkpt lat="44.4711412" lon="7.8423915"><ele>369.0</ele><time>2026-05-03T16:00:03.098Z</time></trkpt><trkpt lat="44.4711772" lon="7.8426529"><ele>369.0</ele><time>2026-05-03T16:00:04.098Z</time></trkpt><trkpt lat="44.4712111" lon="7.8429316"><ele>369.0</ele><time>2026-05-03T16:00:05.098Z</time></trkpt><trkpt lat="44.4712352" lon="7.8431904"><ele>369.0</ele><time>2026-05-03T16:00:06.098Z</time></trkpt><trkpt lat="44.4712688" lon="7.8434528"><ele>369.0</ele><time>2026-05-03T16:00:07.098Z</time></trkpt><trkpt lat="44.4712992" lon="7.8437156"><ele>369.0</ele><time>2026-05-03T16:00:08.097Z</time></trkpt><trkpt lat="44.4713333" lon="7.8439684"><ele>369.0</ele><time>2026-05-03T16:00:09.098Z</time></trkpt><trkpt lat="44.4713669" lon="7.8442177"><ele>369.0</ele><time>2026-05-03T16:00:10.098Z</time></trkpt><trkpt lat="44.4714166" lon="7.8444561"><ele>368.6666666666667</ele><time>2026-05-03T16:00:11.097Z</time></trkpt><trkpt lat="44.4714666" lon="7.8446855"><ele>368.33333333333337</ele><time>2026-05-03T16:00:12.097Z</time></trkpt><trkpt lat="44.4715349" lon="7.8449172"><ele>368.0</ele><time>2026-05-03T16:00:13.098Z</time></trkpt><trkpt lat="44.4716268" lon="7.8451477"><ele>367.6666666666667</ele><time>2026-05-03T16:00:14.098Z</time></trkpt><trkpt lat="44.4717302" lon="7.845371"><ele>367.3333333333333</ele><time>2026-05-03T16:00:15.098Z</time></trkpt><trkpt lat="44.4718222" lon="7.8455815"><ele>367.0</ele><time>2026-05-03T16:00:16.098Z</time></trkpt><trkpt lat="44.471922" lon="7.8457925"><ele>366.3333333333333</ele><time>2026-05-03T16:00:17.098Z</time></trkpt><trkpt lat="44.4720247" lon="7.8460084"><ele>365.6666666666667</ele><time>2026-05-03T16:00:18.097Z</time></trkpt><trkpt lat="44.4721242" lon="7.8462168"><ele>365.0</ele><time>2026-05-03T16:00:19.098Z</time></trkpt><trkpt lat="44.4722156" lon="7.8464185"><ele>365.0</ele><time>2026-05-03T16:00:20.098Z</time></trkpt><trkpt lat="44.4723027" lon="7.8466215"><ele>365.0</ele><time>2026-05-03T16:00:21.097Z</time></trkpt><trkpt lat="44.4723895" lon="7.8468281"><ele>365.0</ele><time>2026-05-03T16:00:22.098Z</time></trkpt><trkpt lat="44.4724792" lon="7.8470547"><ele>365.6666666666667</ele><time>2026-05-03T16:00:23.098Z</time></trkpt><trkpt lat="44.4725544" lon="7.8472695"><ele>366.3333333333333</ele><time>2026-05-03T16:00:24.098Z</time></trkpt><trkpt lat="44.4726137" lon="7.8474927"><ele>367.0</ele><time>2026-05-03T16:00:25.098Z</time></trkpt><trkpt lat="44.4726478" lon="7.8476558"><ele>367.5</ele><time>2026-05-03T16:00:26.097Z</time></trkpt><trkpt lat="44.4726916" lon="7.8478516"><ele>368.0</ele><time>2026-05-03T16:00:27.098Z</time></trkpt><trkpt lat="44.4727375" lon="7.8480387"><ele>368.5</ele><time>2026-05-03T16:00:28.097Z</time></trkpt><trkpt lat="44.4727759" lon="7.8482034"><ele>369.0</ele><time>2026-05-03T16:00:29.098Z</time></trkpt><trkpt lat="44.472833" lon="7.8483756"><ele>369.0</ele><time>2026-05-03T16:00:30.098Z</time></trkpt><trkpt lat="44.47285" lon="7.8485374"><ele>369.0</ele><time>2026-05-03T16:00:31.098Z</time></trkpt><trkpt lat="44.4728848" lon="7.848724"><ele>369.0</ele><time>2026-05-03T16:00:32.098Z</time></trkpt><trkpt lat="44.4729326" lon="7.8488933"><ele>369.0</ele><time>2026-05-03T16:00:33.098Z</time></trkpt><trkpt lat="44.4729768" lon="7.8490664"><ele>369.3333333333333</ele><time>2026-05-03T16:00:34.098Z</time></trkpt><trkpt lat="44.4730213" lon="7.8492553"><ele>369.66666666666663</ele><time>2026-05-03T16:00:35.098Z</time></trkpt><trkpt lat="44.4730687" lon="7.849459"><ele>370.0</ele><time>2026-05-03T16:00:36.097Z</time></trkpt><trkpt lat="44.4731201" lon="7.8496678"><ele>370.0</ele><time>2026-05-03T16:00:37.098Z</time></trkpt><trkpt lat="44.473171" lon="7.8499051"><ele>370.0</ele><time>2026-05-03T16:00:38.098Z</time></trkpt><trkpt lat="44.4732279" lon="7.8501548"><ele>370.0</ele><time>2026-05-03T16:00:39.098Z</time></trkpt><trkpt lat="44.4732773" lon="7.8504021"><ele>370.0</ele><time>2026-05-03T16:00:40.098Z</time></trkpt><trkpt lat="44.4733281" lon="7.8506472"><ele>370.0</ele><time>2026-05-03T16:00:41.097Z</time></trkpt><trkpt lat="44.4733776" lon="7.8508902"><ele>370.0</ele><time>2026-05-03T16:00:42.097Z</time></trkpt><trkpt lat="44.4734154" lon="7.8511145"><ele>370.0</ele><time>2026-05-03T16:00:43.098Z</time></trkpt><trkpt lat="44.4734558" lon="7.8513365"><ele>370.0</ele><time>2026-05-03T16:00:44.098Z</time></trkpt><trkpt lat="44.4734979" lon="7.8515384"><ele>370.0</ele><time>2026-05-03T16:00:45.098Z</time></trkpt><trkpt lat="44.4735303" lon="7.8517242"><ele>369.5</ele><time>2026-05-03T16:00:46.097Z</time></trkpt><trkpt lat="44.4735586" lon="7.8519208"><ele>369.0</ele><time>2026-05-03T16:00:47.098Z</time></trkpt><trkpt lat="44.4735932" lon="7.852108"><ele>368.5</ele><time>2026-05-03T16:00:48.098Z</time></trkpt><trkpt lat="44.4736199" lon="7.8522849"><ele>368.0</ele><time>2026-05-03T16:00:49.098Z</time></trkpt><trkpt lat="44.4736538" lon="7.852452"><ele>368.0</ele><time>2026-05-03T16:00:50.098Z</time></trkpt><trkpt lat="44.4736809" lon="7.8526174"><ele>368.0</ele><time>2026-05-03T16:00:51.098Z</time></trkpt><trkpt lat="44.4737001" lon="7.8527946"><ele>368.0</ele><time>2026-05-03T16:00:52.098Z</time></trkpt><trkpt lat="44.4737242" lon="7.8530045"><ele>368.0</ele><time>2026-05-03T16:00:53.098Z</time></trkpt><trkpt lat="44.473739" lon="7.8532053"><ele>368.0</ele><time>2026-05-03T16:00:54.097Z</time></trkpt><trkpt lat="44.4737637" lon="7.853413"><ele>368.0</ele><time>2026-05-03T16:00:55.098Z</time></trkpt><trkpt lat="44.4737891" lon="7.8536169"><ele>368.0</ele><time>2026-05-03T16:00:56.098Z</time></trkpt><trkpt lat="44.4738136" lon="7.8538114"><ele>368.0</ele><time>2026-05-03T16:00:57.098Z</time></trkpt><trkpt lat="44.4738133" lon="7.8539553"><ele>368.0</ele><time>2026-05-03T16:00:58.098Z</time></trkpt><trkpt lat="44.4738264" lon="7.8540982"><ele>368.0</ele><time>2026-05-03T16:00:59.098Z</time></trkpt><trkpt lat="44.4738272" lon="7.8542374"><ele>368.0</ele><time>2026-05-03T16:01:00.098Z</time></trkpt><trkpt lat="44.4738477" lon="7.8543945"><ele>368.0</ele><time>2026-05-03T16:01:01.097Z</time></trkpt><trkpt lat="44.4738393" lon="7.8545865"><ele>368.0</ele><time>2026-05-03T16:01:02.097Z</time></trkpt><trkpt lat="44.4738292" lon="7.8548061"><ele>368.0</ele><time>2026-05-03T16:01:03.098Z</time></trkpt><trkpt lat="44.4738671" lon="7.8550796"><ele>368.0</ele><time>2026-05-03T16:01:04.098Z</time></trkpt><trkpt lat="44.4738765" lon="7.855317"><ele>368.0</ele><time>2026-05-03T16:01:05.098Z</time></trkpt><trkpt lat="44.4738852" lon="7.855564"><ele>368.0</ele><time>2026-05-03T16:01:06.098Z</time></trkpt><trkpt lat="44.4738965" lon="7.8558334"><ele>368.0</ele><time>2026-05-03T16:01:07.098Z</time></trkpt><trkpt lat="44.4738999" lon="7.8561014"><ele>367.6666666666667</ele><time>2026-05-03T16:01:08.098Z</time></trkpt><trkpt lat="44.4738911" lon="7.8563571"><ele>367.3333333333333</ele><time>2026-05-03T16:01:09.098Z</time></trkpt><trkpt lat="44.4739086" lon="7.8565925"><ele>367.0</ele><time>2026-05-03T16:01:10.097Z</time></trkpt><trkpt lat="44.4739249" lon="7.8568418"><ele>366.66666666666663</ele><time>2026-05-03T16:01:11.097Z</time></trkpt><trkpt lat="44.4739362" lon="7.8570983"><ele>366.3333333333333</ele><time>2026-05-03T16:01:12.097Z</time></trkpt><trkpt lat="44.4739421" lon="7.8573401"><ele>366.0</ele><time>2026-05-03T16:01:13.098Z</time></trkpt><trkpt lat="44.4739523" lon="7.8575607"><ele>365.6666666666667</ele><time>2026-05-03T16:01:14.098Z</time></trkpt><trkpt lat="44.4739622" lon="7.8577886"><ele>365.33333333333337</ele><time>2026-05-03T16:01:15.098Z</time></trkpt><trkpt lat="44.4739745" lon="7.8580333"><ele>365.0</ele><time>2026-05-03T16:01:16.098Z</time></trkpt><trkpt lat="44.4739925" lon="7.8582911"><ele>365.6666666666667</ele><time>2026-05-03T16:01:17.098Z</time></trkpt><trkpt lat="44.4740032" lon="7.8585419"><ele>366.3333333333333</ele><time>2026-05-03T16:01:18.098Z</time></trkpt><trkpt lat="44.474019" lon="7.8587977"><ele>367.0</ele><time>2026-05-03T16:01:19.098Z</time></trkpt><trkpt lat="44.4740374" lon="7.8590539"><ele>366.3333333333333</ele><time>2026-05-03T16:01:20.098Z</time></trkpt><trkpt lat="44.4740529" lon="7.8592998"><ele>365.6666666666667</ele><time>2026-05-03T16:01:21.098Z</time></trkpt><trkpt lat="44.4740916" lon="7.8595616"><ele>365.0</ele><time>2026-05-03T16:01:22.097Z</time></trkpt><trkpt lat="44.4741393" lon="7.8598088"><ele>365.0</ele><time>2026-05-03T16:01:23.098Z</time></trkpt><trkpt lat="44.4741924" lon="7.8600593"><ele>365.0</ele><time>2026-05-03T16:01:24.098Z</time></trkpt><trkpt lat="44.4742586" lon="7.8602977"><ele>365.0</ele><time>2026-05-03T16:01:25.098Z</time></trkpt><trkpt lat="44.474323" lon="7.8605363"><ele>364.6666666666667</ele><time>2026-05-03T16:01:26.098Z</time></trkpt><trkpt lat="44.4744052" lon="7.8607668"><ele>364.3333333333333</ele><time>2026-05-03T16:01:27.098Z</time></trkpt><trkpt lat="44.474499" lon="7.8610068"><ele>364.0</ele><time>2026-05-03T16:01:28.097Z</time></trkpt><trkpt lat="44.4745978" lon="7.8612271"><ele>364.0</ele><time>2026-05-03T16:01:29.097Z</time></trkpt><trkpt lat="44.4746981" lon="7.8614281"><ele>364.0</ele><time>2026-05-03T16:01:30.098Z</time></trkpt><trkpt lat="44.4748096" lon="7.8616193"><ele>364.0</ele><time>2026-05-03T16:01:31.098Z</time></trkpt><trkpt lat="44.4749274" lon="7.8618092"><ele>364.0</ele><time>2026-05-03T16:01:32.097Z</time></trkpt><trkpt lat="44.4750482" lon="7.8620056"><ele>364.0</ele><time>2026-05-03T16:01:33.098Z</time></trkpt><trkpt lat="44.4751782" lon="7.8621947"><ele>364.0</ele><time>2026-05-03T16:01:34.098Z</time></trkpt><trkpt lat="44.4753102" lon="7.8623683"><ele>364.0</ele><time>2026-05-03T16:01:35.098Z</time></trkpt><trkpt lat="44.4754226" lon="7.8625408"><ele>364.0</ele><time>2026-05-03T16:01:36.098Z</time></trkpt><trkpt lat="44.4755327" lon="7.8627243"><ele>364.0</ele><time>2026-05-03T16:01:37.098Z</time></trkpt><trkpt lat="44.4756493" lon="7.8629138"><ele>364.3333333333333</ele><time>2026-05-03T16:01:38.098Z</time></trkpt><trkpt lat="44.4757755" lon="7.8630983"><ele>364.6666666666667</ele><time>2026-05-03T16:01:39.098Z</time></trkpt><trkpt lat="44.4759023" lon="7.8632801"><ele>365.0</ele><time>2026-05-03T16:01:40.098Z</time></trkpt><trkpt lat="44.4760305" lon="7.8634797"><ele>365.0</ele><time>2026-05-03T16:01:41.097Z</time></trkpt><trkpt lat="44.4761531" lon="7.8636755"><ele>365.0</ele><time>2026-05-03T16:01:42.098Z</time></trkpt><trkpt lat="44.4762884" lon="7.8638593"><ele>365.0</ele><time>2026-05-03T16:01:43.098Z</time></trkpt><trkpt lat="44.4764178" lon="7.8640488"><ele>365.0</ele><time>2026-05-03T16:01:44.098Z</time></trkpt><trkpt lat="44.4765424" lon="7.8642344"><ele>365.0</ele><time>2026-05-03T16:01:45.098Z</time></trkpt><trkpt lat="44.4766613" lon="7.8644248"><ele>365.0</ele><time>2026-05-03T16:01:46.098Z</time></trkpt><trkpt lat="44.4767889" lon="7.864604"><ele>364.6666666666667</ele><time>2026-05-03T16:01:47.098Z</time></trkpt><trkpt lat="44.4769136" lon="7.8647874"><ele>364.3333333333333</ele><time>2026-05-03T16:01:48.098Z</time></trkpt><trkpt lat="44.4770405" lon="7.8649733"><ele>364.0</ele><time>2026-05-03T16:01:49.098Z</time></trkpt><trkpt lat="44.4771726" lon="7.8651426"><ele>364.0</ele><time>2026-05-03T16:01:50.098Z</time></trkpt><trkpt lat="44.4773041" lon="7.8653163"><ele>364.0</ele><time>2026-05-03T16:01:51.098Z</time></trkpt><trkpt lat="44.4774426" lon="7.8654961"><ele>364.0</ele><time>2026-05-03T16:01:52.098Z</time></trkpt><trkpt lat="44.4775805" lon="7.8656707"><ele>364.0</ele><time>2026-05-03T16:01:53.097Z</time></trkpt><trkpt lat="44.4777109" lon="7.8658529"><ele>364.0</ele><time>2026-05-03T16:01:54.098Z</time></trkpt><trkpt lat="44.4778567" lon="7.8660388"><ele>364.0</ele><time>2026-05-03T16:01:55.097Z</time></trkpt><trkpt lat="44.4780007" lon="7.866199"><ele>363.3333333333333</ele><time>2026-05-03T16:01:56.098Z</time></trkpt><trkpt lat="44.4781311" lon="7.8663599"><ele>362.6666666666667</ele><time>2026-05-03T16:01:57.098Z</time></trkpt><trkpt lat="44.478263" lon="7.8665297"><ele>362.0</ele><time>2026-05-03T16:01:58.098Z</time></trkpt><trkpt lat="44.4783982" lon="7.8667071"><ele>362.0</ele><time>2026-05-03T16:01:59.098Z</time></trkpt><trkpt lat="44.4785371" lon="7.8668829"><ele>362.0</ele><time>2026-05-03T16:02:00.098Z</time></trkpt><trkpt lat="44.478676" lon="7.8670612"><ele>362.0</ele><time>2026-05-03T16:02:01.098Z</time></trkpt><trkpt lat="44.4788139" lon="7.8672394"><ele>362.0</ele><time>2026-05-03T16:02:02.098Z</time></trkpt><trkpt lat="44.4789516" lon="7.867416"><ele>362.0</ele><time>2026-05-03T16:02:03.097Z</time></trkpt><trkpt lat="44.4790871" lon="7.8675831"><ele>362.0</ele><time>2026-05-03T16:02:04.098Z</time></trkpt><trkpt lat="44.4792084" lon="7.8677354"><ele>362.0</ele><time>2026-05-03T16:02:05.098Z</time></trkpt><trkpt lat="44.4793122" lon="7.8678729"><ele>362.0</ele><time>2026-05-03T16:02:06.098Z</time></trkpt><trkpt lat="44.4794086" lon="7.8680025"><ele>362.0</ele><time>2026-05-03T16:02:07.098Z</time></trkpt><trkpt lat="44.4794895" lon="7.868111"><ele>362.0</ele><time>2026-05-03T16:02:08.098Z</time></trkpt><trkpt lat="44.4795702" lon="7.8682277"><ele>362.20000000000005</ele><time>2026-05-03T16:02:09.098Z</time></trkpt><trkpt lat="44.4796094" lon="7.8683349"><ele>362.4</ele><time>2026-05-03T16:02:10.098Z</time></trkpt><trkpt lat="44.4796513" lon="7.8684462"><ele>362.6</ele><time>2026-05-03T16:02:11.098Z</time></trkpt><trkpt lat="44.4797201" lon="7.8685538"><ele>362.79999999999995</ele><time>2026-05-03T16:02:12.098Z</time></trkpt><trkpt lat="44.4798085" lon="7.8686384"><ele>363.0</ele><time>2026-05-03T16:02:13.098Z</time></trkpt><trkpt lat="44.4799126" lon="7.8687293"><ele>363.0</ele><time>2026-05-03T16:02:14.097Z</time></trkpt><trkpt lat="44.4799993" lon="7.8688256"><ele>363.0</ele><time>2026-05-03T16:02:15.098Z</time></trkpt><trkpt lat="44.4801279" lon="7.8689581"><ele>363.0</ele><time>2026-05-03T16:02:16.098Z</time></trkpt><trkpt lat="44.4802542" lon="7.8691003"><ele>363.0</ele><time>2026-05-03T16:02:17.098Z</time></trkpt><trkpt lat="44.4803877" lon="7.8692605"><ele>363.3333333333333</ele><time>2026-05-03T16:02:18.098Z</time></trkpt><trkpt lat="44.4805248" lon="7.8694338"><ele>363.66666666666663</ele><time>2026-05-03T16:02:19.098Z</time></trkpt><trkpt lat="44.4806671" lon="7.8696236"><ele>364.0</ele><time>2026-05-03T16:02:20.098Z</time></trkpt><trkpt lat="44.4808046" lon="7.8698109"><ele>364.0</ele><time>2026-05-03T16:02:21.098Z</time></trkpt><trkpt lat="44.4809417" lon="7.8700043"><ele>364.0</ele><time>2026-05-03T16:02:22.098Z</time></trkpt><trkpt lat="44.4810702" lon="7.8702049"><ele>364.0</ele><time>2026-05-03T16:02:23.098Z</time></trkpt><trkpt lat="44.4811838" lon="7.8704041"><ele>364.0</ele><time>2026-05-03T16:02:24.098Z</time></trkpt><trkpt lat="44.4813164" lon="7.8706162"><ele>364.0</ele><time>2026-05-03T16:02:25.098Z</time></trkpt><trkpt lat="44.4814382" lon="7.8708271"><ele>364.0</ele><time>2026-05-03T16:02:26.098Z</time></trkpt><trkpt lat="44.4815627" lon="7.8710293"><ele>364.0</ele><time>2026-05-03T16:02:27.098Z</time></trkpt><trkpt lat="44.4816821" lon="7.8712487"><ele>364.0</ele><time>2026-05-03T16:02:28.098Z</time></trkpt><trkpt lat="44.481791" lon="7.8714477"><ele>364.0</ele><time>2026-05-03T16:02:29.098Z</time></trkpt><trkpt lat="44.4819151" lon="7.8716572"><ele>363.3333333333333</ele><time>2026-05-03T16:02:30.098Z</time></trkpt><trkpt lat="44.4820304" lon="7.8718674"><ele>362.6666666666667</ele><time>2026-05-03T16:02:31.098Z</time></trkpt><trkpt lat="44.4821468" lon="7.8720572"><ele>362.0</ele><time>2026-05-03T16:02:32.098Z</time></trkpt><trkpt lat="44.4822562" lon="7.8722458"><ele>361.6666666666667</ele><time>2026-05-03T16:02:33.098Z</time></trkpt><trkpt lat="44.4824015" lon="7.8724847"><ele>361.3333333333333</ele><time>2026-05-03T16:02:34.098Z</time></trkpt><trkpt lat="44.4825005" lon="7.8727135"><ele>361.0</ele><time>2026-05-03T16:02:35.098Z</time></trkpt><trkpt lat="44.4826109" lon="7.872888"><ele>361.0</ele><time>2026-05-03T16:02:36.098Z</time></trkpt><trkpt lat="44.4827299" lon="7.8730905"><ele>361.0</ele><time>2026-05-03T16:02:37.098Z</time></trkpt><trkpt lat="44.4828383" lon="7.8732956"><ele>361.0</ele><time>2026-05-03T16:02:38.097Z</time></trkpt><trkpt lat="44.4829529" lon="7.8734943"><ele>361.0</ele><time>2026-05-03T16:02:39.098Z</time></trkpt><trkpt lat="44.4830728" lon="7.8737029"><ele>361.0</ele><time>2026-05-03T16:02:40.098Z</time></trkpt><trkpt lat="44.4831949" lon="7.8738992"><ele>361.0</ele><time>2026-05-03T16:02:41.097Z</time></trkpt><trkpt lat="44.4833117" lon="7.874097"><ele>360.3333333333333</ele><time>2026-05-03T16:02:42.098Z</time></trkpt><trkpt lat="44.4834182" lon="7.8743082"><ele>359.6666666666667</ele><time>2026-05-03T16:02:43.098Z</time></trkpt><trkpt lat="44.4835236" lon="7.8745091"><ele>359.0</ele><time>2026-05-03T16:02:44.098Z</time></trkpt><trkpt lat="44.4836275" lon="7.8747002"><ele>359.0</ele><time>2026-05-03T16:02:45.098Z</time></trkpt><trkpt lat="44.4837224" lon="7.8748933"><ele>359.0</ele><time>2026-05-03T16:02:46.098Z</time></trkpt><trkpt lat="44.4838108" lon="7.8750847"><ele>359.0</ele><time>2026-05-03T16:02:47.098Z</time></trkpt><trkpt lat="44.4838956" lon="7.8752928"><ele>359.0</ele><time>2026-05-03T16:02:48.098Z</time></trkpt><trkpt lat="44.4839748" lon="7.8755061"><ele>359.0</ele><time>2026-05-03T16:02:49.098Z</time></trkpt><trkpt lat="44.4840459" lon="7.8757135"><ele>359.0</ele><time>2026-05-03T16:02:50.097Z</time></trkpt><trkpt lat="44.4841058" lon="7.8759201"><ele>359.0</ele><time>2026-05-03T16:02:51.098Z</time></trkpt><trkpt lat="44.484156" lon="7.8761012"><ele>359.0</ele><time>2026-05-03T16:02:52.098Z</time></trkpt><trkpt lat="44.4841995" lon="7.8762817"><ele>359.0</ele><time>2026-05-03T16:02:53.097Z</time></trkpt><trkpt lat="44.4842408" lon="7.8764533"><ele>359.0</ele><time>2026-05-03T16:02:54.097Z</time></trkpt><trkpt lat="44.4842772" lon="7.8766426"><ele>358.79999999999995</ele><time>2026-05-03T16:02:55.098Z</time></trkpt><trkpt lat="44.4842976" lon="7.8767792"><ele>358.59999999999997</ele><time>2026-05-03T16:02:56.098Z</time></trkpt><trkpt lat="44.4842872" lon="7.8768934"><ele>358.4</ele><time>2026-05-03T16:02:57.098Z</time></trkpt><trkpt lat="44.4842852" lon="7.8770418"><ele>358.2</ele><time>2026-05-03T16:02:58.098Z</time></trkpt><trkpt lat="44.484308" lon="7.8772149"><ele>358.0</ele><time>2026-05-03T16:02:59.098Z</time></trkpt><trkpt lat="44.4843255" lon="7.8773867"><ele>358.0</ele><time>2026-05-03T16:03:00.098Z</time></trkpt><trkpt lat="44.4843651" lon="7.8775707"><ele>358.0</ele><time>2026-05-03T16:03:01.098Z</time></trkpt><trkpt lat="44.4843992" lon="7.8777956"><ele>358.0</ele><time>2026-05-03T16:03:02.098Z</time></trkpt><trkpt lat="44.4844204" lon="7.8780157"><ele>358.0</ele><time>2026-05-03T16:03:03.098Z</time></trkpt><trkpt lat="44.4844365" lon="7.8782277"><ele>358.0</ele><time>2026-05-03T16:03:04.097Z</time></trkpt><trkpt lat="44.4844313" lon="7.8784687"><ele>358.0</ele><time>2026-05-03T16:03:05.098Z</time></trkpt><trkpt lat="44.4844321" lon="7.8787367"><ele>357.3333333333333</ele><time>2026-05-03T16:03:06.098Z</time></trkpt><trkpt lat="44.4844199" lon="7.8789966"><ele>356.6666666666667</ele><time>2026-05-03T16:03:07.098Z</time></trkpt><trkpt lat="44.4844154" lon="7.8792621"><ele>356.0</ele><time>2026-05-03T16:03:08.098Z</time></trkpt><trkpt lat="44.4844087" lon="7.8795347"><ele>356.0</ele><time>2026-05-03T16:03:09.098Z</time></trkpt><trkpt lat="44.4843922" lon="7.8798155"><ele>356.0</ele><time>2026-05-03T16:03:10.098Z</time></trkpt><trkpt lat="44.4843882" lon="7.8800769"><ele>356.0</ele><time>2026-05-03T16:03:11.098Z</time></trkpt><trkpt lat="44.4843847" lon="7.8803654"><ele>355.6666666666667</ele><time>2026-05-03T16:03:12.097Z</time></trkpt><trkpt lat="44.4843743" lon="7.8806515"><ele>355.3333333333333</ele><time>2026-05-03T16:03:13.098Z</time></trkpt><trkpt lat="44.4843458" lon="7.8809369"><ele>355.0</ele><time>2026-05-03T16:03:14.098Z</time></trkpt><trkpt lat="44.4843271" lon="7.8812102"><ele>354.66666666666663</ele><time>2026-05-03T16:03:15.098Z</time></trkpt><trkpt lat="44.4843056" lon="7.8814826"><ele>354.3333333333333</ele><time>2026-05-03T16:03:16.098Z</time></trkpt><trkpt lat="44.4842925" lon="7.8817598"><ele>354.0</ele><time>2026-05-03T16:03:17.098Z</time></trkpt><trkpt lat="44.4842744" lon="7.8820349"><ele>353.0</ele><time>2026-05-03T16:03:18.098Z</time></trkpt><trkpt lat="44.4842549" lon="7.8823077"><ele>352.0</ele><time>2026-05-03T16:03:19.097Z</time></trkpt><trkpt lat="44.4842507" lon="7.8825835"><ele>351.0</ele><time>2026-05-03T16:03:20.098Z</time></trkpt><trkpt lat="44.4842381" lon="7.8828819"><ele>350.0</ele><time>2026-05-03T16:03:21.098Z</time></trkpt><trkpt lat="44.4842265" lon="7.8831583"><ele>349.0</ele><time>2026-05-03T16:03:22.098Z</time></trkpt><trkpt lat="44.4842248" lon="7.883456"><ele>348.0</ele><time>2026-05-03T16:03:23.098Z</time></trkpt><trkpt lat="44.4842149" lon="7.8837337"><ele>346.0</ele><time>2026-05-03T16:03:24.098Z</time></trkpt><trkpt lat="44.4842084" lon="7.8840131"><ele>344.0</ele><time>2026-05-03T16:03:25.098Z</time></trkpt><trkpt lat="44.4841976" lon="7.8842792"><ele>342.0</ele><time>2026-05-03T16:03:26.098Z</time></trkpt><trkpt lat="44.4841855" lon="7.8845452"><ele>341.0</ele><time>2026-05-03T16:03:27.098Z</time></trkpt><trkpt lat="44.4841913" lon="7.8848678"><ele>340.0</ele><time>2026-05-03T16:03:28.098Z</time></trkpt><trkpt lat="44.4841776" lon="7.8851224"><ele>339.0</ele><time>2026-05-03T16:03:29.098Z</time></trkpt><trkpt lat="44.4841483" lon="7.8853639"><ele>338.6666666666667</ele><time>2026-05-03T16:03:30.097Z</time></trkpt><trkpt lat="44.4841378" lon="7.8856286"><ele>338.33333333333337</ele><time>2026-05-03T16:03:31.097Z</time></trkpt><trkpt lat="44.4841251" lon="7.8858835"><ele>338.0</ele><time>2026-05-03T16:03:32.098Z</time></trkpt><trkpt lat="44.4841068" lon="7.8861066"><ele>338.0</ele><time>2026-05-03T16:03:33.097Z</time></trkpt><trkpt lat="44.4841032" lon="7.8863449"><ele>338.0</ele><time>2026-05-03T16:03:34.098Z</time></trkpt><trkpt lat="44.4841032" lon="7.8865796"><ele>338.0</ele><time>2026-05-03T16:03:35.098Z</time></trkpt><trkpt lat="44.4841101" lon="7.8867783"><ele>338.0</ele><time>2026-05-03T16:03:36.098Z</time></trkpt><trkpt lat="44.4840968" lon="7.8869386"><ele>338.0</ele><time>2026-05-03T16:03:37.098Z</time></trkpt><trkpt lat="44.4841058" lon="7.8871369"><ele>338.0</ele><time>2026-05-03T16:03:38.098Z</time></trkpt><trkpt lat="44.4840946" lon="7.8872983"><ele>338.0</ele><time>2026-05-03T16:03:39.098Z</time></trkpt><trkpt lat="44.4840852" lon="7.8874095"><ele>338.0</ele><time>2026-05-03T16:03:40.097Z</time></trkpt><trkpt lat="44.484049" lon="7.8875251"><ele>338.0</ele><time>2026-05-03T16:03:41.097Z</time></trkpt><trkpt lat="44.4840505" lon="7.8877135"><ele>338.0</ele><time>2026-05-03T16:03:42.098Z</time></trkpt><trkpt lat="44.4840398" lon="7.8878974"><ele>338.0</ele><time>2026-05-03T16:03:43.098Z</time></trkpt><trkpt lat="44.4840191" lon="7.8881423"><ele>338.0</ele><time>2026-05-03T16:03:44.098Z</time></trkpt><trkpt lat="44.4840059" lon="7.8883545"><ele>338.0</ele><time>2026-05-03T16:03:45.098Z</time></trkpt><trkpt lat="44.4839822" lon="7.8885923"><ele>338.0</ele><time>2026-05-03T16:03:46.098Z</time></trkpt><trkpt lat="44.4839545" lon="7.8888805"><ele>337.6666666666667</ele><time>2026-05-03T16:03:47.098Z</time></trkpt><trkpt lat="44.4839437" lon="7.8891376"><ele>337.3333333333333</ele><time>2026-05-03T16:03:48.098Z</time></trkpt><trkpt lat="44.4839375" lon="7.8893868"><ele>337.0</ele><time>2026-05-03T16:03:49.098Z</time></trkpt><trkpt lat="44.4839157" lon="7.8896116"><ele>337.0</ele><time>2026-05-03T16:03:50.098Z</time></trkpt><trkpt lat="44.4839034" lon="7.8898448"><ele>337.0</ele><time>2026-05-03T16:03:51.098Z</time></trkpt><trkpt lat="44.4838856" lon="7.8900888"><ele>337.0</ele><time>2026-05-03T16:03:52.098Z</time></trkpt><trkpt lat="44.4838802" lon="7.8903486"><ele>336.66666666666663</ele><time>2026-05-03T16:03:53.098Z</time></trkpt><trkpt lat="44.4838603" lon="7.8905982"><ele>336.3333333333333</ele><time>2026-05-03T16:03:54.097Z</time></trkpt><trkpt lat="44.4838213" lon="7.8908485"><ele>336.0</ele><time>2026-05-03T16:03:55.098Z</time></trkpt><trkpt lat="44.4837933" lon="7.8910721"><ele>333.3333333333333</ele><time>2026-05-03T16:03:56.098Z</time></trkpt><trkpt lat="44.4837588" lon="7.8912928"><ele>330.66666666666663</ele><time>2026-05-03T16:03:57.097Z</time></trkpt><trkpt lat="44.4837395" lon="7.8915303"><ele>328.0</ele><time>2026-05-03T16:03:58.098Z</time></trkpt><trkpt lat="44.4837112" lon="7.8917598"><ele>326.0</ele><time>2026-05-03T16:03:59.098Z</time></trkpt><trkpt lat="44.4837025" lon="7.8919914"><ele>324.0</ele><time>2026-05-03T16:04:00.098Z</time></trkpt><trkpt lat="44.4836904" lon="7.8922363"><ele>322.0</ele><time>2026-05-03T16:04:01.098Z</time></trkpt><trkpt lat="44.4836693" lon="7.8924492"><ele>317.3333333333333</ele><time>2026-05-03T16:04:02.098Z</time></trkpt><trkpt lat="44.4836959" lon="7.8926966"><ele>312.6666666666667</ele><time>2026-05-03T16:04:03.098Z</time></trkpt><trkpt lat="44.4837116" lon="7.8929135"><ele>308.0</ele><time>2026-05-03T16:04:04.098Z</time></trkpt><trkpt lat="44.4837546" lon="7.8931355"><ele>315.0</ele><time>2026-05-03T16:04:05.097Z</time></trkpt><trkpt lat="44.4837935" lon="7.8933627"><ele>322.0</ele><time>2026-05-03T16:04:06.098Z</time></trkpt><trkpt lat="44.4838356" lon="7.893594"><ele>329.0</ele><time>2026-05-03T16:04:07.098Z</time></trkpt><trkpt lat="44.4839018" lon="7.8938121"><ele>329.0</ele><time>2026-05-03T16:04:08.098Z</time></trkpt><trkpt lat="44.4839854" lon="7.8940138"><ele>329.0</ele><time>2026-05-03T16:04:09.098Z</time></trkpt><trkpt lat="44.4840939" lon="7.8942221"><ele>329.0</ele><time>2026-05-03T16:04:10.098Z</time></trkpt><trkpt lat="44.4841947" lon="7.8944279"><ele>324.6666666666667</ele><time>2026-05-03T16:04:11.097Z</time></trkpt><trkpt lat="44.4843059" lon="7.8946381"><ele>320.3333333333333</ele><time>2026-05-03T16:04:12.098Z</time></trkpt><trkpt lat="44.4843983" lon="7.8948719"><ele>316.0</ele><time>2026-05-03T16:04:13.098Z</time></trkpt><trkpt lat="44.4844892" lon="7.8950918"><ele>320.0</ele><time>2026-05-03T16:04:14.098Z</time></trkpt><trkpt lat="44.4845587" lon="7.8953281"><ele>324.0</ele><time>2026-05-03T16:04:15.097Z</time></trkpt><trkpt lat="44.4846196" lon="7.8955503"><ele>328.0</ele><time>2026-05-03T16:04:16.098Z</time></trkpt><trkpt lat="44.4846732" lon="7.8957865"><ele>326.0</ele><time>2026-05-03T16:04:17.098Z</time></trkpt><trkpt lat="44.4847098" lon="7.896004"><ele>324.0</ele><time>2026-05-03T16:04:18.098Z</time></trkpt><trkpt lat="44.4847392" lon="7.8962161"><ele>322.0</ele><time>2026-05-03T16:04:19.098Z</time></trkpt><trkpt lat="44.4847805" lon="7.8964252"><ele>322.0</ele><time>2026-05-03T16:04:20.098Z</time></trkpt><trkpt lat="44.4848207" lon="7.8966305"><ele>322.0</ele><time>2026-05-03T16:04:21.098Z</time></trkpt><trkpt lat="44.484855" lon="7.8968433"><ele>322.0</ele><time>2026-05-03T16:04:22.097Z</time></trkpt><trkpt lat="44.4848798" lon="7.8970275"><ele>322.0</ele><time>2026-05-03T16:04:23.097Z</time></trkpt><trkpt lat="44.4849095" lon="7.8972105"><ele>317.0</ele><time>2026-05-03T16:04:24.098Z</time></trkpt><trkpt lat="44.4849619" lon="7.8973297"><ele>312.0</ele><time>2026-05-03T16:04:25.098Z</time></trkpt><trkpt lat="44.4851018" lon="7.897485"><ele>307.0</ele><time>2026-05-03T16:04:26.098Z</time></trkpt><trkpt lat="44.4852217" lon="7.8976322"><ele>302.0</ele><time>2026-05-03T16:04:27.097Z</time></trkpt><trkpt lat="44.4853461" lon="7.8978028"><ele>303.0</ele><time>2026-05-03T16:04:28.098Z</time></trkpt><trkpt lat="44.4854788" lon="7.8979893"><ele>304.0</ele><time>2026-05-03T16:04:29.098Z</time></trkpt><trkpt lat="44.4856087" lon="7.8981807"><ele>305.0</ele><time>2026-05-03T16:04:30.098Z</time></trkpt><trkpt lat="44.4857349" lon="7.8983714"><ele>300.0</ele><time>2026-05-03T16:04:31.097Z</time></trkpt><trkpt lat="44.4858519" lon="7.8985641"><ele>295.0</ele><time>2026-05-03T16:04:32.098Z</time></trkpt><trkpt lat="44.4859737" lon="7.8987734"><ele>290.0</ele><time>2026-05-03T16:04:33.098Z</time></trkpt><trkpt lat="44.4860782" lon="7.8989262"><ele>290.0</ele><time>2026-05-03T16:04:34.098Z</time></trkpt><trkpt lat="44.4861917" lon="7.8991058"><ele>290.0</ele><time>2026-05-03T16:04:35.097Z</time></trkpt><trkpt lat="44.486304" lon="7.8992809"><ele>290.0</ele><time>2026-05-03T16:04:36.097Z</time></trkpt><trkpt lat="44.4863888" lon="7.8994161"><ele>290.8</ele><time>2026-05-03T16:04:37.098Z</time></trkpt><trkpt lat="44.4864734" lon="7.8995632"><ele>291.6</ele><time>2026-05-03T16:04:38.097Z</time></trkpt><trkpt lat="44.486548" lon="7.8996679"><ele>292.4</ele><time>2026-05-03T16:04:39.098Z</time></trkpt><trkpt lat="44.4865999" lon="7.8997874"><ele>293.2</ele><time>2026-05-03T16:04:40.098Z</time></trkpt><trkpt lat="44.4866516" lon="7.8998858"><ele>294.0</ele><time>2026-05-03T16:04:41.098Z</time></trkpt><trkpt lat="44.4866753" lon="7.8999987"><ele>292.85714285714283</ele><time>2026-05-03T16:04:42.098Z</time></trkpt><trkpt lat="44.4866534" lon="7.9000878"><ele>291.7142857142857</ele><time>2026-05-03T16:04:43.098Z</time></trkpt><trkpt lat="44.4866412" lon="7.9001756"><ele>290.57142857142856</ele><time>2026-05-03T16:04:44.098Z</time></trkpt><trkpt lat="44.4866084" lon="7.9002801"><ele>289.42857142857144</ele><time>2026-05-03T16:04:45.098Z</time></trkpt><trkpt lat="44.4865878" lon="7.9003795"><ele>288.2857142857143</ele><time>2026-05-03T16:04:46.098Z</time></trkpt><trkpt lat="44.4865783" lon="7.9004704"><ele>287.1428571428571</ele><time>2026-05-03T16:04:47.098Z</time></trkpt><trkpt lat="44.4866166" lon="7.9005589"><ele>286.0</ele><time>2026-05-03T16:04:48.098Z</time></trkpt><trkpt lat="44.4867102" lon="7.9006987"><ele>286.0</ele><time>2026-05-03T16:04:50.097Z</time></trkpt><trkpt lat="44.4867944" lon="7.9007762"><ele>286.0</ele><time>2026-05-03T16:04:51.098Z</time></trkpt><trkpt lat="44.4869231" lon="7.9008829"><ele>286.0</ele><time>2026-05-03T16:04:52.098Z</time></trkpt><trkpt lat="44.4870353" lon="7.901045"><ele>286.0</ele><time>2026-05-03T16:04:53.098Z</time></trkpt><trkpt lat="44.4871651" lon="7.9012436"><ele>287.3333333333333</ele><time>2026-05-03T16:04:54.098Z</time></trkpt><trkpt lat="44.4872879" lon="7.9014238"><ele>288.6666666666667</ele><time>2026-05-03T16:04:55.098Z</time></trkpt><trkpt lat="44.4874387" lon="7.9016028"><ele>290.0</ele><time>2026-05-03T16:04:56.097Z</time></trkpt><trkpt lat="44.4875992" lon="7.9017857"><ele>288.33333333333337</ele><time>2026-05-03T16:04:57.098Z</time></trkpt><trkpt lat="44.4877675" lon="7.9019514"><ele>286.6666666666667</ele><time>2026-05-03T16:04:58.098Z</time></trkpt><trkpt lat="44.4879366" lon="7.9021114"><ele>285.0</ele><time>2026-05-03T16:04:59.098Z</time></trkpt><trkpt lat="44.4881081" lon="7.9022611"><ele>285.0</ele><time>2026-05-03T16:05:00.098Z</time></trkpt><trkpt lat="44.4882751" lon="7.902401"><ele>285.0</ele><time>2026-05-03T16:05:01.097Z</time></trkpt><trkpt lat="44.4884492" lon="7.9025474"><ele>285.0</ele><time>2026-05-03T16:05:02.098Z</time></trkpt><trkpt lat="44.4886154" lon="7.9026894"><ele>285.0</ele><time>2026-05-03T16:05:03.098Z</time></trkpt><trkpt lat="44.4888003" lon="7.9028444"><ele>285.0</ele><time>2026-05-03T16:05:04.097Z</time></trkpt><trkpt lat="44.4889821" lon="7.9029956"><ele>285.0</ele><time>2026-05-03T16:05:05.098Z</time></trkpt><trkpt lat="44.4891648" lon="7.9031446"><ele>285.0</ele><time>2026-05-03T16:05:06.098Z</time></trkpt><trkpt lat="44.4893439" lon="7.9033021"><ele>285.0</ele><time>2026-05-03T16:05:07.098Z</time></trkpt><trkpt lat="44.489526" lon="7.9034568"><ele>285.0</ele><time>2026-05-03T16:05:08.098Z</time></trkpt><trkpt lat="44.4897052" lon="7.9036196"><ele>284.0</ele><time>2026-05-03T16:05:09.098Z</time></trkpt><trkpt lat="44.4898777" lon="7.9037653"><ele>283.0</ele><time>2026-05-03T16:05:10.098Z</time></trkpt><trkpt lat="44.4900637" lon="7.9039241"><ele>282.0</ele><time>2026-05-03T16:05:11.098Z</time></trkpt><trkpt lat="44.4902322" lon="7.9040791"><ele>282.0</ele><time>2026-05-03T16:05:12.098Z</time></trkpt><trkpt lat="44.4904191" lon="7.9042327"><ele>282.0</ele><time>2026-05-03T16:05:13.097Z</time></trkpt><trkpt lat="44.4906036" lon="7.9043883"><ele>282.0</ele><time>2026-05-03T16:05:14.098Z</time></trkpt><trkpt lat="44.4907917" lon="7.904535"><ele>280.0</ele><time>2026-05-03T16:05:15.098Z</time></trkpt><trkpt lat="44.4909775" lon="7.9046992"><ele>278.0</ele><time>2026-05-03T16:05:16.098Z</time></trkpt><trkpt lat="44.4911646" lon="7.904859"><ele>276.0</ele><time>2026-05-03T16:05:17.098Z</time></trkpt><trkpt lat="44.4913425" lon="7.9050114"><ele>273.3333333333333</ele><time>2026-05-03T16:05:18.097Z</time></trkpt><trkpt lat="44.4915185" lon="7.9051602"><ele>270.66666666666663</ele><time>2026-05-03T16:05:19.097Z</time></trkpt><trkpt lat="44.4916989" lon="7.9053227"><ele>268.0</ele><time>2026-05-03T16:05:20.098Z</time></trkpt><trkpt lat="44.4918755" lon="7.9054794"><ele>268.0</ele><time>2026-05-03T16:05:21.097Z</time></trkpt><trkpt lat="44.4920564" lon="7.9056349"><ele>268.0</ele><time>2026-05-03T16:05:22.098Z</time></trkpt><trkpt lat="44.4922333" lon="7.9057826"><ele>268.0</ele><time>2026-05-03T16:05:23.098Z</time></trkpt><trkpt lat="44.4924158" lon="7.9059262"><ele>268.0</ele><time>2026-05-03T16:05:24.098Z</time></trkpt><trkpt lat="44.4925996" lon="7.9060575"><ele>268.0</ele><time>2026-05-03T16:05:25.098Z</time></trkpt><trkpt lat="44.4927806" lon="7.9062005"><ele>268.0</ele><time>2026-05-03T16:05:26.098Z</time></trkpt><trkpt lat="44.4929716" lon="7.906336"><ele>267.0</ele><time>2026-05-03T16:05:27.098Z</time></trkpt><trkpt lat="44.4931531" lon="7.9064517"><ele>266.0</ele><time>2026-05-03T16:05:28.098Z</time></trkpt><trkpt lat="44.493379" lon="7.906578"><ele>265.0</ele><time>2026-05-03T16:05:29.098Z</time></trkpt><trkpt lat="44.4935827" lon="7.9066411"><ele>262.5</ele><time>2026-05-03T16:05:30.098Z</time></trkpt><trkpt lat="44.4938062" lon="7.9067173"><ele>260.0</ele><time>2026-05-03T16:05:31.098Z</time></trkpt><trkpt lat="44.4940395" lon="7.9068095"><ele>260.0</ele><time>2026-05-03T16:05:32.098Z</time></trkpt><trkpt lat="44.494268" lon="7.9068847"><ele>260.0</ele><time>2026-05-03T16:05:33.098Z</time></trkpt><trkpt lat="44.4944885" lon="7.9069276"><ele>259.6666666666667</ele><time>2026-05-03T16:05:34.098Z</time></trkpt><trkpt lat="44.4947104" lon="7.9069411"><ele>259.3333333333333</ele><time>2026-05-03T16:05:35.097Z</time></trkpt><trkpt lat="44.494924" lon="7.9069576"><ele>259.0</ele><time>2026-05-03T16:05:36.098Z</time></trkpt><trkpt lat="44.4951256" lon="7.9069578"><ele>259.0</ele><time>2026-05-03T16:05:37.098Z</time></trkpt><trkpt lat="44.4953289" lon="7.9069546"><ele>259.0</ele><time>2026-05-03T16:05:38.098Z</time></trkpt><trkpt lat="44.4955222" lon="7.9069446"><ele>259.0</ele><time>2026-05-03T16:05:39.098Z</time></trkpt><trkpt lat="44.4957245" lon="7.9069144"><ele>258.3333333333333</ele><time>2026-05-03T16:05:40.098Z</time></trkpt><trkpt lat="44.4959407" lon="7.9068579"><ele>257.6666666666667</ele><time>2026-05-03T16:05:41.098Z</time></trkpt><trkpt lat="44.4961609" lon="7.9068029"><ele>257.0</ele><time>2026-05-03T16:05:42.098Z</time></trkpt><trkpt lat="44.4963977" lon="7.9067423"><ele>256.0</ele><time>2026-05-03T16:05:43.098Z</time></trkpt><trkpt lat="44.4966503" lon="7.9066913"><ele>255.0</ele><time>2026-05-03T16:05:44.097Z</time></trkpt><trkpt lat="44.4968954" lon="7.9066303"><ele>255.0</ele><time>2026-05-03T16:05:45.098Z</time></trkpt><trkpt lat="44.4971337" lon="7.9065694"><ele>255.0</ele><time>2026-05-03T16:05:46.098Z</time></trkpt><trkpt lat="44.4973654" lon="7.9065298"><ele>255.0</ele><time>2026-05-03T16:05:47.098Z</time></trkpt><trkpt lat="44.4975956" lon="7.9064741"><ele>255.0</ele><time>2026-05-03T16:05:48.098Z</time></trkpt><trkpt lat="44.4978196" lon="7.9064212"><ele>253.66666666666669</ele><time>2026-05-03T16:05:49.098Z</time></trkpt><trkpt lat="44.4980415" lon="7.9063732"><ele>252.33333333333334</ele><time>2026-05-03T16:05:50.098Z</time></trkpt><trkpt lat="44.4982378" lon="7.906318"><ele>251.0</ele><time>2026-05-03T16:05:51.097Z</time></trkpt><trkpt lat="44.4984537" lon="7.9062686"><ele>251.0</ele><time>2026-05-03T16:05:52.098Z</time></trkpt><trkpt lat="44.4986641" lon="7.9062164"><ele>251.0</ele><time>2026-05-03T16:05:53.098Z</time></trkpt><trkpt lat="44.498862" lon="7.9061639"><ele>251.0</ele><time>2026-05-03T16:05:54.098Z</time></trkpt><trkpt lat="44.4990499" lon="7.9061066"><ele>254.0</ele><time>2026-05-03T16:05:55.098Z</time></trkpt><trkpt lat="44.4992362" lon="7.9060524"><ele>257.0</ele><time>2026-05-03T16:05:56.098Z</time></trkpt><trkpt lat="44.4994179" lon="7.9060086"><ele>260.0</ele><time>2026-05-03T16:05:57.098Z</time></trkpt><trkpt lat="44.4995862" lon="7.9059759"><ele>260.0</ele><time>2026-05-03T16:05:58.098Z</time></trkpt><trkpt lat="44.4997572" lon="7.9059309"><ele>260.0</ele><time>2026-05-03T16:05:59.098Z</time></trkpt><trkpt lat="44.4999371" lon="7.9058892"><ele>260.0</ele><time>2026-05-03T16:06:00.098Z</time></trkpt><trkpt lat="44.5001077" lon="7.9058596"><ele>259.33333333333337</ele><time>2026-05-03T16:06:01.098Z</time></trkpt><trkpt lat="44.5002817" lon="7.9058222"><ele>258.6666666666667</ele><time>2026-05-03T16:06:02.098Z</time></trkpt><trkpt lat="44.5004568" lon="7.9057816"><ele>258.0</ele><time>2026-05-03T16:06:03.098Z</time></trkpt><trkpt lat="44.500638" lon="7.9057018"><ele>258.0</ele><time>2026-05-03T16:06:04.098Z</time></trkpt><trkpt lat="44.5008084" lon="7.9056453"><ele>258.0</ele><time>2026-05-03T16:06:05.098Z</time></trkpt><trkpt lat="44.5009935" lon="7.9055979"><ele>258.0</ele><time>2026-05-03T16:06:06.098Z</time></trkpt><trkpt lat="44.5011926" lon="7.905523"><ele>256.5</ele><time>2026-05-03T16:06:07.098Z</time></trkpt><trkpt lat="44.5014107" lon="7.9054601"><ele>255.0</ele><time>2026-05-03T16:06:08.097Z</time></trkpt><trkpt lat="44.5016404" lon="7.9053998"><ele>255.0</ele><time>2026-05-03T16:06:09.098Z</time></trkpt><trkpt lat="44.501883" lon="7.905338"><ele>255.0</ele><time>2026-05-03T16:06:10.098Z</time></trkpt><trkpt lat="44.50212" lon="7.905286"><ele>254.0</ele><time>2026-05-03T16:06:11.098Z</time></trkpt><trkpt lat="44.5023507" lon="7.9052147"><ele>253.0</ele><time>2026-05-03T16:06:12.097Z</time></trkpt><trkpt lat="44.5025907" lon="7.9051402"><ele>253.0</ele><time>2026-05-03T16:06:13.098Z</time></trkpt><trkpt lat="44.5028274" lon="7.9050831"><ele>253.0</ele><time>2026-05-03T16:06:14.098Z</time></trkpt><trkpt lat="44.503069" lon="7.9050247"><ele>253.5</ele><time>2026-05-03T16:06:15.098Z</time></trkpt><trkpt lat="44.5033353" lon="7.9049608"><ele>254.0</ele><time>2026-05-03T16:06:16.097Z</time></trkpt><trkpt lat="44.5035906" lon="7.9049022"><ele>251.5</ele><time>2026-05-03T16:06:17.098Z</time></trkpt><trkpt lat="44.5038644" lon="7.9048454"><ele>249.0</ele><time>2026-05-03T16:06:18.097Z</time></trkpt><trkpt lat="44.5041284" lon="7.9047828"><ele>249.0</ele><time>2026-05-03T16:06:19.098Z</time></trkpt><trkpt lat="44.5043805" lon="7.9047347"><ele>249.0</ele><time>2026-05-03T16:06:20.097Z</time></trkpt><trkpt lat="44.5046375" lon="7.9046676"><ele>247.5</ele><time>2026-05-03T16:06:21.098Z</time></trkpt><trkpt lat="44.5049019" lon="7.9045877"><ele>246.0</ele><time>2026-05-03T16:06:22.097Z</time></trkpt><trkpt lat="44.505143" lon="7.9045331"><ele>246.0</ele><time>2026-05-03T16:06:23.098Z</time></trkpt><trkpt lat="44.5053801" lon="7.9044841"><ele>246.0</ele><time>2026-05-03T16:06:24.098Z</time></trkpt><trkpt lat="44.5056178" lon="7.9044208"><ele>249.5</ele><time>2026-05-03T16:06:25.098Z</time></trkpt><trkpt lat="44.5058554" lon="7.9043649"><ele>253.0</ele><time>2026-05-03T16:06:26.098Z</time></trkpt><trkpt lat="44.5060813" lon="7.9043027"><ele>256.5</ele><time>2026-05-03T16:06:27.098Z</time></trkpt><trkpt lat="44.5063107" lon="7.9042401"><ele>260.0</ele><time>2026-05-03T16:06:28.098Z</time></trkpt><trkpt lat="44.5065364" lon="7.9041895"><ele>260.0</ele><time>2026-05-03T16:06:29.098Z</time></trkpt><trkpt lat="44.5067652" lon="7.9041259"><ele>260.0</ele><time>2026-05-03T16:06:30.098Z</time></trkpt><trkpt lat="44.5070025" lon="7.9040616"><ele>260.0</ele><time>2026-05-03T16:06:31.098Z</time></trkpt><trkpt lat="44.5072363" lon="7.9039876"><ele>260.0</ele><time>2026-05-03T16:06:32.098Z</time></trkpt><trkpt lat="44.5074573" lon="7.9039228"><ele>260.0</ele><time>2026-05-03T16:06:33.098Z</time></trkpt><trkpt lat="44.5076908" lon="7.9038566"><ele>260.0</ele><time>2026-05-03T16:06:34.098Z</time></trkpt><trkpt lat="44.507912" lon="7.9037956"><ele>259.6666666666667</ele><time>2026-05-03T16:06:35.097Z</time></trkpt><trkpt lat="44.5081301" lon="7.9037422"><ele>259.3333333333333</ele><time>2026-05-03T16:06:36.098Z</time></trkpt><trkpt lat="44.508345" lon="7.9036652"><ele>259.0</ele><time>2026-05-03T16:06:37.098Z</time></trkpt><trkpt lat="44.508557" lon="7.90363"><ele>255.33333333333331</ele><time>2026-05-03T16:06:38.098Z</time></trkpt><trkpt lat="44.5087565" lon="7.903574"><ele>251.66666666666669</ele><time>2026-05-03T16:06:39.098Z</time></trkpt><trkpt lat="44.5089655" lon="7.9035227"><ele>248.0</ele><time>2026-05-03T16:06:40.098Z</time></trkpt><trkpt lat="44.5091771" lon="7.9034765"><ele>248.0</ele><time>2026-05-03T16:06:41.098Z</time></trkpt><trkpt lat="44.5093872" lon="7.9034295"><ele>248.0</ele><time>2026-05-03T16:06:42.098Z</time></trkpt><trkpt lat="44.509592" lon="7.9033837"><ele>248.0</ele><time>2026-05-03T16:06:43.098Z</time></trkpt><trkpt lat="44.509794" lon="7.903323"><ele>246.33333333333334</ele><time>2026-05-03T16:06:44.098Z</time></trkpt><trkpt lat="44.5100043" lon="7.9032532"><ele>244.66666666666669</ele><time>2026-05-03T16:06:45.097Z</time></trkpt><trkpt lat="44.5102068" lon="7.9032008"><ele>243.0</ele><time>2026-05-03T16:06:46.098Z</time></trkpt><trkpt lat="44.5104231" lon="7.903152"><ele>241.33333333333331</ele><time>2026-05-03T16:06:47.097Z</time></trkpt><trkpt lat="44.510642" lon="7.9030925"><ele>239.66666666666666</ele><time>2026-05-03T16:06:48.098Z</time></trkpt><trkpt lat="44.5108515" lon="7.9030527"><ele>238.0</ele><time>2026-05-03T16:06:49.098Z</time></trkpt><trkpt lat="44.5110677" lon="7.9029972"><ele>239.5</ele><time>2026-05-03T16:06:50.098Z</time></trkpt><trkpt lat="44.5112946" lon="7.902969"><ele>241.0</ele><time>2026-05-03T16:06:51.098Z</time></trkpt><trkpt lat="44.5115129" lon="7.9029069"><ele>241.0</ele><time>2026-05-03T16:06:52.097Z</time></trkpt><trkpt lat="44.511734" lon="7.9028418"><ele>241.0</ele><time>2026-05-03T16:06:53.097Z</time></trkpt><trkpt lat="44.5119673" lon="7.9027784"><ele>243.5</ele><time>2026-05-03T16:06:54.098Z</time></trkpt><trkpt lat="44.5121984" lon="7.9027242"><ele>246.0</ele><time>2026-05-03T16:06:55.098Z</time></trkpt><trkpt lat="44.512423" lon="7.9026588"><ele>246.0</ele><time>2026-05-03T16:06:56.098Z</time></trkpt><trkpt lat="44.5126515" lon="7.9026048"><ele>246.0</ele><time>2026-05-03T16:06:57.098Z</time></trkpt><trkpt lat="44.5128864" lon="7.9025372"><ele>245.5</ele><time>2026-05-03T16:06:58.098Z</time></trkpt><trkpt lat="44.5131206" lon="7.9024727"><ele>245.0</ele><time>2026-05-03T16:06:59.098Z</time></trkpt><trkpt lat="44.513361" lon="7.9023976"><ele>245.0</ele><time>2026-05-03T16:07:00.097Z</time></trkpt><trkpt lat="44.5136101" lon="7.9023409"><ele>245.0</ele><time>2026-05-03T16:07:01.098Z</time></trkpt><trkpt lat="44.5138548" lon="7.9022937"><ele>246.0</ele><time>2026-05-03T16:07:02.098Z</time></trkpt><trkpt lat="44.5140797" lon="7.9022401"><ele>247.0</ele><time>2026-05-03T16:07:03.098Z</time></trkpt><trkpt lat="44.5143125" lon="7.9021756"><ele>247.0</ele><time>2026-05-03T16:07:04.098Z</time></trkpt><trkpt lat="44.5145657" lon="7.9021221"><ele>247.0</ele><time>2026-05-03T16:07:05.098Z</time></trkpt><trkpt lat="44.5148277" lon="7.90205"><ele>246.5</ele><time>2026-05-03T16:07:06.098Z</time></trkpt><trkpt lat="44.5150611" lon="7.9019923"><ele>246.0</ele><time>2026-05-03T16:07:07.098Z</time></trkpt><trkpt lat="44.5153095" lon="7.9019234"><ele>243.0</ele><time>2026-05-03T16:07:08.098Z</time></trkpt><trkpt lat="44.5155493" lon="7.9018703"><ele>240.0</ele><time>2026-05-03T16:07:09.098Z</time></trkpt><trkpt lat="44.515789" lon="7.9018079"><ele>240.0</ele><time>2026-05-03T16:07:10.098Z</time></trkpt><trkpt lat="44.5160261" lon="7.9017487"><ele>240.0</ele><time>2026-05-03T16:07:11.097Z</time></trkpt><trkpt lat="44.5162666" lon="7.9016903"><ele>238.0</ele><time>2026-05-03T16:07:12.097Z</time></trkpt><trkpt lat="44.516506" lon="7.9016359"><ele>236.0</ele><time>2026-05-03T16:07:13.098Z</time></trkpt><trkpt lat="44.5167292" lon="7.9016016"><ele>236.0</ele><time>2026-05-03T16:07:14.098Z</time></trkpt><trkpt lat="44.5169573" lon="7.9015397"><ele>236.0</ele><time>2026-05-03T16:07:15.098Z</time></trkpt><trkpt lat="44.5171955" lon="7.9014666"><ele>235.0</ele><time>2026-05-03T16:07:16.098Z</time></trkpt><trkpt lat="44.5174339" lon="7.9014034"><ele>234.0</ele><time>2026-05-03T16:07:17.098Z</time></trkpt><trkpt lat="44.517675" lon="7.9013349"><ele>234.0</ele><time>2026-05-03T16:07:18.098Z</time></trkpt><trkpt lat="44.5178841" lon="7.9012792"><ele>234.0</ele><time>2026-05-03T16:07:19.098Z</time></trkpt><trkpt lat="44.5181139" lon="7.9012378"><ele>234.0</ele><time>2026-05-03T16:07:20.098Z</time></trkpt><trkpt lat="44.5183322" lon="7.9011748"><ele>237.5</ele><time>2026-05-03T16:07:21.098Z</time></trkpt><trkpt lat="44.5185637" lon="7.9011045"><ele>241.0</ele><time>2026-05-03T16:07:22.098Z</time></trkpt><trkpt lat="44.5188161" lon="7.9010229"><ele>241.0</ele><time>2026-05-03T16:07:23.098Z</time></trkpt><trkpt lat="44.5190444" lon="7.9009413"><ele>241.0</ele><time>2026-05-03T16:07:24.098Z</time></trkpt><trkpt lat="44.5192643" lon="7.9008971"><ele>241.5</ele><time>2026-05-03T16:07:25.098Z</time></trkpt><trkpt lat="44.519494" lon="7.9008159"><ele>242.0</ele><time>2026-05-03T16:07:26.097Z</time></trkpt><trkpt lat="44.5197199" lon="7.9007809"><ele>242.0</ele><time>2026-05-03T16:07:27.097Z</time></trkpt><trkpt lat="44.5199253" lon="7.900726"><ele>242.0</ele><time>2026-05-03T16:07:28.098Z</time></trkpt><trkpt lat="44.5201473" lon="7.9006696"><ele>242.0</ele><time>2026-05-03T16:07:29.098Z</time></trkpt><trkpt lat="44.5203712" lon="7.9006161"><ele>241.66666666666669</ele><time>2026-05-03T16:07:30.097Z</time></trkpt><trkpt lat="44.5205888" lon="7.9005621"><ele>241.33333333333331</ele><time>2026-05-03T16:07:31.098Z</time></trkpt><trkpt lat="44.5208077" lon="7.9005044"><ele>241.0</ele><time>2026-05-03T16:07:32.098Z</time></trkpt><trkpt lat="44.5210235" lon="7.9004587"><ele>241.0</ele><time>2026-05-03T16:07:33.098Z</time></trkpt><trkpt lat="44.5212283" lon="7.9004039"><ele>241.0</ele><time>2026-05-03T16:07:34.098Z</time></trkpt><trkpt lat="44.5214459" lon="7.900349"><ele>241.0</ele><time>2026-05-03T16:07:35.098Z</time></trkpt><trkpt lat="44.5216685" lon="7.900329"><ele>241.0</ele><time>2026-05-03T16:07:36.098Z</time></trkpt><trkpt lat="44.5219068" lon="7.9002916"><ele>241.0</ele><time>2026-05-03T16:07:37.097Z</time></trkpt><trkpt lat="44.5221377" lon="7.9002684"><ele>241.5</ele><time>2026-05-03T16:07:38.098Z</time></trkpt><trkpt lat="44.5223648" lon="7.9002398"><ele>242.0</ele><time>2026-05-03T16:07:39.098Z</time></trkpt><trkpt lat="44.5225919" lon="7.9002057"><ele>242.0</ele><time>2026-05-03T16:07:40.098Z</time></trkpt><trkpt lat="44.5228051" lon="7.9001708"><ele>242.0</ele><time>2026-05-03T16:07:41.097Z</time></trkpt><trkpt lat="44.5230082" lon="7.9001484"><ele>242.0</ele><time>2026-05-03T16:07:42.098Z</time></trkpt><trkpt lat="44.5232123" lon="7.9001307"><ele>242.0</ele><time>2026-05-03T16:07:43.098Z</time></trkpt><trkpt lat="44.5234217" lon="7.9001138"><ele>242.0</ele><time>2026-05-03T16:07:44.098Z</time></trkpt><trkpt lat="44.5236306" lon="7.9001139"><ele>242.0</ele><time>2026-05-03T16:07:45.098Z</time></trkpt><trkpt lat="44.5238529" lon="7.9001108"><ele>242.33333333333334</ele><time>2026-05-03T16:07:46.098Z</time></trkpt><trkpt lat="44.5240785" lon="7.9001017"><ele>242.66666666666669</ele><time>2026-05-03T16:07:47.097Z</time></trkpt><trkpt lat="44.5242922" lon="7.9001082"><ele>243.0</ele><time>2026-05-03T16:07:48.098Z</time></trkpt><trkpt lat="44.524523" lon="7.9000958"><ele>242.33333333333331</ele><time>2026-05-03T16:07:49.098Z</time></trkpt><trkpt lat="44.5247511" lon="7.9000947"><ele>241.66666666666666</ele><time>2026-05-03T16:07:50.098Z</time></trkpt><trkpt lat="44.5249454" lon="7.9000974"><ele>241.0</ele><time>2026-05-03T16:07:51.098Z</time></trkpt><trkpt lat="44.5251554" lon="7.9000868"><ele>241.33333333333331</ele><time>2026-05-03T16:07:52.098Z</time></trkpt><trkpt lat="44.5253516" lon="7.900079"><ele>241.66666666666669</ele><time>2026-05-03T16:07:53.098Z</time></trkpt><trkpt lat="44.5255284" lon="7.9000907"><ele>242.0</ele><time>2026-05-03T16:07:54.097Z</time></trkpt><trkpt lat="44.5257044" lon="7.9000865"><ele>242.33333333333334</ele><time>2026-05-03T16:07:55.098Z</time></trkpt><trkpt lat="44.5258911" lon="7.9000841"><ele>242.66666666666669</ele><time>2026-05-03T16:07:56.098Z</time></trkpt><trkpt lat="44.5260817" lon="7.9000809"><ele>243.0</ele><time>2026-05-03T16:07:57.098Z</time></trkpt><trkpt lat="44.5262591" lon="7.9000763"><ele>243.0</ele><time>2026-05-03T16:07:58.097Z</time></trkpt><trkpt lat="44.5264393" lon="7.9000803"><ele>243.0</ele><time>2026-05-03T16:07:59.098Z</time></trkpt><trkpt lat="44.5266118" lon="7.9000748"><ele>243.0</ele><time>2026-05-03T16:08:00.098Z</time></trkpt><trkpt lat="44.5267968" lon="7.9000834"><ele>243.0</ele><time>2026-05-03T16:08:01.098Z</time></trkpt><trkpt lat="44.5269417" lon="7.9000813"><ele>243.0</ele><time>2026-05-03T16:08:02.098Z</time></trkpt><trkpt lat="44.5271052" lon="7.9000875"><ele>243.0</ele><time>2026-05-03T16:08:03.098Z</time></trkpt><trkpt lat="44.5272605" lon="7.9000957"><ele>244.5</ele><time>2026-05-03T16:08:04.097Z</time></trkpt><trkpt lat="44.527419" lon="7.9000682"><ele>246.0</ele><time>2026-05-03T16:08:05.098Z</time></trkpt><trkpt lat="44.5275392" lon="7.900082"><ele>247.5</ele><time>2026-05-03T16:08:06.098Z</time></trkpt><trkpt lat="44.5276716" lon="7.9000645"><ele>249.0</ele><time>2026-05-03T16:08:07.098Z</time></trkpt><trkpt lat="44.52781" lon="7.9000506"><ele>250.66666666666669</ele><time>2026-05-03T16:08:08.098Z</time></trkpt><trkpt lat="44.5279637" lon="7.9000461"><ele>252.33333333333334</ele><time>2026-05-03T16:08:09.098Z</time></trkpt><trkpt lat="44.5281245" lon="7.9000499"><ele>254.0</ele><time>2026-05-03T16:08:10.098Z</time></trkpt><trkpt lat="44.5282912" lon="7.9000459"><ele>254.0</ele><time>2026-05-03T16:08:11.098Z</time></trkpt><trkpt lat="44.5284655" lon="7.9000377"><ele>254.0</ele><time>2026-05-03T16:08:12.098Z</time></trkpt><trkpt lat="44.5286295" lon="7.9000406"><ele>254.0</ele><time>2026-05-03T16:08:13.098Z</time></trkpt><trkpt lat="44.5287922" lon="7.9000384"><ele>252.33333333333334</ele><time>2026-05-03T16:08:14.098Z</time></trkpt><trkpt lat="44.5289628" lon="7.900037"><ele>250.66666666666669</ele><time>2026-05-03T16:08:15.098Z</time></trkpt><trkpt lat="44.5291319" lon="7.9000456"><ele>249.0</ele><time>2026-05-03T16:08:16.098Z</time></trkpt><trkpt lat="44.529309" lon="7.9000249"><ele>249.0</ele><time>2026-05-03T16:08:17.097Z</time></trkpt><trkpt lat="44.5294547" lon="7.9000208"><ele>249.0</ele><time>2026-05-03T16:08:18.098Z</time></trkpt><trkpt lat="44.5296279" lon="7.9000224"><ele>249.0</ele><time>2026-05-03T16:08:19.098Z</time></trkpt><trkpt lat="44.5297844" lon="7.9000271"><ele>249.66666666666669</ele><time>2026-05-03T16:08:20.098Z</time></trkpt><trkpt lat="44.529942" lon="7.9000312"><ele>250.33333333333334</ele><time>2026-05-03T16:08:21.098Z</time></trkpt><trkpt lat="44.5300999" lon="7.9000421"><ele>251.0</ele><time>2026-05-03T16:08:22.098Z</time></trkpt><trkpt lat="44.5303458" lon="7.9000242"><ele>251.0</ele><time>2026-05-03T16:08:23.098Z</time></trkpt><trkpt lat="44.5305598" lon="7.8999909"><ele>251.0</ele><time>2026-05-03T16:08:24.098Z</time></trkpt><trkpt lat="44.5307998" lon="7.899985"><ele>251.0</ele><time>2026-05-03T16:08:25.098Z</time></trkpt><trkpt lat="44.5310459" lon="7.8999776"><ele>251.0</ele><time>2026-05-03T16:08:26.098Z</time></trkpt><trkpt lat="44.5312781" lon="7.899972"><ele>251.0</ele><time>2026-05-03T16:08:27.098Z</time></trkpt><trkpt lat="44.5315173" lon="7.8999603"><ele>251.0</ele><time>2026-05-03T16:08:28.098Z</time></trkpt><trkpt lat="44.5317763" lon="7.8999492"><ele>251.0</ele><time>2026-05-03T16:08:29.098Z</time></trkpt><trkpt lat="44.5320194" lon="7.89993"><ele>251.0</ele><time>2026-05-03T16:08:30.098Z</time></trkpt><trkpt lat="44.5322526" lon="7.8999283"><ele>251.0</ele><time>2026-05-03T16:08:31.098Z</time></trkpt><trkpt lat="44.5325004" lon="7.8999234"><ele>251.0</ele><time>2026-05-03T16:08:32.097Z</time></trkpt><trkpt lat="44.5327251" lon="7.8999299"><ele>250.0</ele><time>2026-05-03T16:08:33.098Z</time></trkpt><trkpt lat="44.5329666" lon="7.8999212"><ele>249.0</ele><time>2026-05-03T16:08:34.098Z</time></trkpt><trkpt lat="44.5331865" lon="7.8999137"><ele>249.0</ele><time>2026-05-03T16:08:35.098Z</time></trkpt><trkpt lat="44.5333963" lon="7.8999162"><ele>249.0</ele><time>2026-05-03T16:08:36.097Z</time></trkpt><trkpt lat="44.5335989" lon="7.8999331"><ele>249.0</ele><time>2026-05-03T16:08:37.098Z</time></trkpt><trkpt lat="44.5337712" lon="7.8999456"><ele>248.66666666666669</ele><time>2026-05-03T16:08:38.098Z</time></trkpt><trkpt lat="44.5339371" lon="7.8999516"><ele>248.33333333333334</ele><time>2026-05-03T16:08:39.098Z</time></trkpt><trkpt lat="44.534105" lon="7.8999566"><ele>248.0</ele><time>2026-05-03T16:08:40.098Z</time></trkpt><trkpt lat="44.5342599" lon="7.8999539"><ele>248.0</ele><time>2026-05-03T16:08:41.098Z</time></trkpt><trkpt lat="44.5343965" lon="7.8999622"><ele>248.0</ele><time>2026-05-03T16:08:42.097Z</time></trkpt><trkpt lat="44.5345815" lon="7.8999458"><ele>248.0</ele><time>2026-05-03T16:08:43.098Z</time></trkpt><trkpt lat="44.5347745" lon="7.8999227"><ele>248.66666666666669</ele><time>2026-05-03T16:08:44.098Z</time></trkpt><trkpt lat="44.5349687" lon="7.8999147"><ele>249.33333333333331</ele><time>2026-05-03T16:08:45.098Z</time></trkpt><trkpt lat="44.5351819" lon="7.8999074"><ele>250.0</ele><time>2026-05-03T16:08:46.098Z</time></trkpt><trkpt lat="44.535403" lon="7.8998984"><ele>250.33333333333331</ele><time>2026-05-03T16:08:47.098Z</time></trkpt><trkpt lat="44.5356171" lon="7.8998981"><ele>250.66666666666669</ele><time>2026-05-03T16:08:48.098Z</time></trkpt><trkpt lat="44.5358274" lon="7.8999011"><ele>251.0</ele><time>2026-05-03T16:08:49.098Z</time></trkpt><trkpt lat="44.5360303" lon="7.8998945"><ele>250.0</ele><time>2026-05-03T16:08:50.097Z</time></trkpt><trkpt lat="44.5362208" lon="7.8998927"><ele>249.0</ele><time>2026-05-03T16:08:51.098Z</time></trkpt><trkpt lat="44.5364012" lon="7.8998929"><ele>248.0</ele><time>2026-05-03T16:08:52.098Z</time></trkpt><trkpt lat="44.5365795" lon="7.89989"><ele>248.0</ele><time>2026-05-03T16:08:53.098Z</time></trkpt><trkpt lat="44.5367527" lon="7.8998837"><ele>248.0</ele><time>2026-05-03T16:08:54.098Z</time></trkpt><trkpt lat="44.5369215" lon="7.8998825"><ele>248.0</ele><time>2026-05-03T16:08:55.098Z</time></trkpt><trkpt lat="44.5370908" lon="7.8998665"><ele>247.66666666666669</ele><time>2026-05-03T16:08:56.098Z</time></trkpt><trkpt lat="44.5372658" lon="7.8998248"><ele>247.33333333333331</ele><time>2026-05-03T16:08:57.098Z</time></trkpt><trkpt lat="44.5374691" lon="7.8998153"><ele>247.0</ele><time>2026-05-03T16:08:58.098Z</time></trkpt><trkpt lat="44.5376526" lon="7.8998048"><ele>247.0</ele><time>2026-05-03T16:08:59.097Z</time></trkpt><trkpt lat="44.5378403" lon="7.899781"><ele>247.0</ele><time>2026-05-03T16:09:00.098Z</time></trkpt><trkpt lat="44.5380121" lon="7.8997544"><ele>247.0</ele><time>2026-05-03T16:09:01.098Z</time></trkpt><trkpt lat="44.538182" lon="7.8997093"><ele>247.0</ele><time>2026-05-03T16:09:02.098Z</time></trkpt><trkpt lat="44.5383538" lon="7.899663"><ele>247.0</ele><time>2026-05-03T16:09:03.098Z</time></trkpt><trkpt lat="44.5385328" lon="7.8996036"><ele>247.0</ele><time>2026-05-03T16:09:04.098Z</time></trkpt><trkpt lat="44.5387126" lon="7.8995409"><ele>245.33333333333331</ele><time>2026-05-03T16:09:05.098Z</time></trkpt><trkpt lat="44.5388609" lon="7.8994854"><ele>243.66666666666669</ele><time>2026-05-03T16:09:06.098Z</time></trkpt><trkpt lat="44.5390761" lon="7.8994429"><ele>242.0</ele><time>2026-05-03T16:09:07.098Z</time></trkpt><trkpt lat="44.5392876" lon="7.8993744"><ele>242.0</ele><time>2026-05-03T16:09:08.098Z</time></trkpt><trkpt lat="44.5395014" lon="7.8993034"><ele>242.0</ele><time>2026-05-03T16:09:09.098Z</time></trkpt><trkpt lat="44.5397057" lon="7.8992313"><ele>242.0</ele><time>2026-05-03T16:09:10.098Z</time></trkpt><trkpt lat="44.5399431" lon="7.8991485"><ele>239.5</ele><time>2026-05-03T16:09:11.098Z</time></trkpt><trkpt lat="44.5401771" lon="7.8991008"><ele>237.0</ele><time>2026-05-03T16:09:12.098Z</time></trkpt><trkpt lat="44.5404296" lon="7.8990244"><ele>234.5</ele><time>2026-05-03T16:09:13.098Z</time></trkpt><trkpt lat="44.5407095" lon="7.8989407"><ele>232.0</ele><time>2026-05-03T16:09:14.097Z</time></trkpt><trkpt lat="44.5409784" lon="7.8988265"><ele>231.5</ele><time>2026-05-03T16:09:15.098Z</time></trkpt><trkpt lat="44.5412535" lon="7.8987399"><ele>231.0</ele><time>2026-05-03T16:09:16.098Z</time></trkpt><trkpt lat="44.5415069" lon="7.8986521"><ele>231.0</ele><time>2026-05-03T16:09:17.098Z</time></trkpt><trkpt lat="44.5417713" lon="7.8985674"><ele>231.0</ele><time>2026-05-03T16:09:18.098Z</time></trkpt><trkpt lat="44.5420266" lon="7.8984903"><ele>231.0</ele><time>2026-05-03T16:09:19.098Z</time></trkpt><trkpt lat="44.5422943" lon="7.8984021"><ele>231.0</ele><time>2026-05-03T16:09:20.098Z</time></trkpt><trkpt lat="44.5425629" lon="7.8983193"><ele>231.0</ele><time>2026-05-03T16:09:21.097Z</time></trkpt><trkpt lat="44.5428343" lon="7.8982585"><ele>231.0</ele><time>2026-05-03T16:09:22.097Z</time></trkpt><trkpt lat="44.5431322" lon="7.8981629"><ele>231.5</ele><time>2026-05-03T16:09:23.098Z</time></trkpt><trkpt lat="44.5434111" lon="7.8980461"><ele>232.0</ele><time>2026-05-03T16:09:24.098Z</time></trkpt><trkpt lat="44.543689" lon="7.8979784"><ele>230.5</ele><time>2026-05-03T16:09:25.098Z</time></trkpt><trkpt lat="44.5439785" lon="7.8978862"><ele>229.0</ele><time>2026-05-03T16:09:26.098Z</time></trkpt><trkpt lat="44.5442963" lon="7.8977816"><ele>229.0</ele><time>2026-05-03T16:09:27.098Z</time></trkpt><trkpt lat="44.544593" lon="7.8977066"><ele>229.0</ele><time>2026-05-03T16:09:28.098Z</time></trkpt><trkpt lat="44.5448874" lon="7.8976228"><ele>229.0</ele><time>2026-05-03T16:09:29.098Z</time></trkpt><trkpt lat="44.5451708" lon="7.8975454"><ele>229.0</ele><time>2026-05-03T16:09:30.098Z</time></trkpt><trkpt lat="44.5454239" lon="7.8974665"><ele>229.0</ele><time>2026-05-03T16:09:31.098Z</time></trkpt><trkpt lat="44.545691" lon="7.8973914"><ele>229.0</ele><time>2026-05-03T16:09:32.098Z</time></trkpt><trkpt lat="44.5459453" lon="7.8973113"><ele>229.0</ele><time>2026-05-03T16:09:33.098Z</time></trkpt><trkpt lat="44.5461961" lon="7.8972359"><ele>229.0</ele><time>2026-05-03T16:09:34.098Z</time></trkpt><trkpt lat="44.5464598" lon="7.8971603"><ele>229.0</ele><time>2026-05-03T16:09:35.098Z</time></trkpt><trkpt lat="44.5467152" lon="7.8970794"><ele>229.0</ele><time>2026-05-03T16:09:36.098Z</time></trkpt><trkpt lat="44.5469817" lon="7.8969901"><ele>229.0</ele><time>2026-05-03T16:09:37.098Z</time></trkpt><trkpt lat="44.5472489" lon="7.8968934"><ele>229.0</ele><time>2026-05-03T16:09:38.098Z</time></trkpt><trkpt lat="44.5475162" lon="7.896845"><ele>229.0</ele><time>2026-05-03T16:09:39.098Z</time></trkpt><trkpt lat="44.5477696" lon="7.8967954"><ele>229.0</ele><time>2026-05-03T16:09:40.097Z</time></trkpt><trkpt lat="44.548018" lon="7.8967747"><ele>228.0</ele><time>2026-05-03T16:09:41.098Z</time></trkpt><trkpt lat="44.548269" lon="7.8967535"><ele>227.0</ele><time>2026-05-03T16:09:42.097Z</time></trkpt><trkpt lat="44.5485185" lon="7.8967142"><ele>230.5</ele><time>2026-05-03T16:09:43.098Z</time></trkpt><trkpt lat="44.5487781" lon="7.8966999"><ele>234.0</ele><time>2026-05-03T16:09:44.098Z</time></trkpt><trkpt lat="44.5490286" lon="7.8967202"><ele>234.0</ele><time>2026-05-03T16:09:45.098Z</time></trkpt><trkpt lat="44.5492704" lon="7.8967389"><ele>234.0</ele><time>2026-05-03T16:09:46.098Z</time></trkpt><trkpt lat="44.5495205" lon="7.8967652"><ele>231.0</ele><time>2026-05-03T16:09:47.098Z</time></trkpt><trkpt lat="44.5497595" lon="7.8968051"><ele>228.0</ele><time>2026-05-03T16:09:48.098Z</time></trkpt><trkpt lat="44.5500096" lon="7.8968535"><ele>228.0</ele><time>2026-05-03T16:09:49.097Z</time></trkpt><trkpt lat="44.5502542" lon="7.8968963"><ele>228.0</ele><time>2026-05-03T16:09:50.098Z</time></trkpt><trkpt lat="44.5504992" lon="7.8969477"><ele>231.0</ele><time>2026-05-03T16:09:51.097Z</time></trkpt><trkpt lat="44.5507297" lon="7.8969963"><ele>234.0</ele><time>2026-05-03T16:09:52.098Z</time></trkpt><trkpt lat="44.550972" lon="7.8970345"><ele>234.0</ele><time>2026-05-03T16:09:53.098Z</time></trkpt><trkpt lat="44.5511949" lon="7.8970696"><ele>234.0</ele><time>2026-05-03T16:09:54.098Z</time></trkpt><trkpt lat="44.5514089" lon="7.8971089"><ele>234.0</ele><time>2026-05-03T16:09:55.098Z</time></trkpt><trkpt lat="44.5516139" lon="7.8971468"><ele>236.33333333333331</ele><time>2026-05-03T16:09:56.097Z</time></trkpt><trkpt lat="44.55182" lon="7.8971874"><ele>238.66666666666666</ele><time>2026-05-03T16:09:57.097Z</time></trkpt><trkpt lat="44.5520173" lon="7.8972234"><ele>241.0</ele><time>2026-05-03T16:09:58.098Z</time></trkpt><trkpt lat="44.5522096" lon="7.8972493"><ele>241.66666666666666</ele><time>2026-05-03T16:09:59.098Z</time></trkpt><trkpt lat="44.5524048" lon="7.8973018"><ele>242.33333333333331</ele><time>2026-05-03T16:10:00.097Z</time></trkpt><trkpt lat="44.552612" lon="7.8973302"><ele>243.0</ele><time>2026-05-03T16:10:01.098Z</time></trkpt><trkpt lat="44.5527995" lon="7.8973686"><ele>245.0</ele><time>2026-05-03T16:10:02.098Z</time></trkpt><trkpt lat="44.5529895" lon="7.8974151"><ele>247.0</ele><time>2026-05-03T16:10:03.098Z</time></trkpt><trkpt lat="44.553187" lon="7.8974477"><ele>249.0</ele><time>2026-05-03T16:10:04.097Z</time></trkpt><trkpt lat="44.5533816" lon="7.8974729"><ele>249.0</ele><time>2026-05-03T16:10:05.098Z</time></trkpt><trkpt lat="44.5535816" lon="7.8974956"><ele>249.0</ele><time>2026-05-03T16:10:06.098Z</time></trkpt><trkpt lat="44.5537911" lon="7.8975275"><ele>249.0</ele><time>2026-05-03T16:10:07.097Z</time></trkpt><trkpt lat="44.5539882" lon="7.8975711"><ele>247.33333333333331</ele><time>2026-05-03T16:10:08.098Z</time></trkpt><trkpt lat="44.5542076" lon="7.8975967"><ele>245.66666666666666</ele><time>2026-05-03T16:10:09.097Z</time></trkpt><trkpt lat="44.5544199" lon="7.8976371"><ele>244.0</ele><time>2026-05-03T16:10:10.098Z</time></trkpt><trkpt lat="44.5546128" lon="7.8976614"><ele>244.0</ele><time>2026-05-03T16:10:11.098Z</time></trkpt><trkpt lat="44.554772" lon="7.8976942"><ele>244.0</ele><time>2026-05-03T16:10:12.097Z</time></trkpt><trkpt lat="44.5549723" lon="7.8977258"><ele>244.0</ele><time>2026-05-03T16:10:13.098Z</time></trkpt><trkpt lat="44.555189" lon="7.8977504"><ele>243.33333333333331</ele><time>2026-05-03T16:10:14.098Z</time></trkpt><trkpt lat="44.555415" lon="7.8977919"><ele>242.66666666666669</ele><time>2026-05-03T16:10:15.098Z</time></trkpt><trkpt lat="44.5556177" lon="7.8977975"><ele>242.0</ele><time>2026-05-03T16:10:16.097Z</time></trkpt><trkpt lat="44.5558315" lon="7.8978188"><ele>242.0</ele><time>2026-05-03T16:10:17.097Z</time></trkpt><trkpt lat="44.5560378" lon="7.8978129"><ele>242.0</ele><time>2026-05-03T16:10:18.098Z</time></trkpt><trkpt lat="44.5562205" lon="7.8978104"><ele>242.0</ele><time>2026-05-03T16:10:19.097Z</time></trkpt><trkpt lat="44.5564167" lon="7.8978026"><ele>241.66666666666669</ele><time>2026-05-03T16:10:20.098Z</time></trkpt><trkpt lat="44.5565998" lon="7.8977946"><ele>241.33333333333331</ele><time>2026-05-03T16:10:21.098Z</time></trkpt><trkpt lat="44.5568179" lon="7.8977475"><ele>241.0</ele><time>2026-05-03T16:10:22.098Z</time></trkpt><trkpt lat="44.5570539" lon="7.8976827"><ele>240.5</ele><time>2026-05-03T16:10:23.098Z</time></trkpt><trkpt lat="44.5572937" lon="7.89763"><ele>240.0</ele><time>2026-05-03T16:10:24.098Z</time></trkpt><trkpt lat="44.557541" lon="7.8975727"><ele>239.5</ele><time>2026-05-03T16:10:25.097Z</time></trkpt><trkpt lat="44.5577949" lon="7.8975344"><ele>239.0</ele><time>2026-05-03T16:10:26.097Z</time></trkpt><trkpt lat="44.55804" lon="7.8974802"><ele>239.0</ele><time>2026-05-03T16:10:27.098Z</time></trkpt><trkpt lat="44.5583138" lon="7.8974408"><ele>239.0</ele><time>2026-05-03T16:10:28.098Z</time></trkpt><trkpt lat="44.5585862" lon="7.8973904"><ele>238.0</ele><time>2026-05-03T16:10:29.098Z</time></trkpt><trkpt lat="44.5588497" lon="7.8973539"><ele>237.0</ele><time>2026-05-03T16:10:30.098Z</time></trkpt><trkpt lat="44.5591012" lon="7.8973146"><ele>237.0</ele><time>2026-05-03T16:10:31.098Z</time></trkpt><trkpt lat="44.559343" lon="7.8972729"><ele>237.0</ele><time>2026-05-03T16:10:32.098Z</time></trkpt><trkpt lat="44.5595888" lon="7.8972352"><ele>234.0</ele><time>2026-05-03T16:10:33.098Z</time></trkpt><trkpt lat="44.5598365" lon="7.8971994"><ele>231.0</ele><time>2026-05-03T16:10:34.098Z</time></trkpt><trkpt lat="44.5600641" lon="7.8971582"><ele>231.0</ele><time>2026-05-03T16:10:35.098Z</time></trkpt><trkpt lat="44.5602434" lon="7.8971312"><ele>231.0</ele><time>2026-05-03T16:10:36.098Z</time></trkpt><trkpt lat="44.560438" lon="7.8970993"><ele>231.0</ele><time>2026-05-03T16:10:37.097Z</time></trkpt><trkpt lat="44.5606225" lon="7.8970637"><ele>230.66666666666669</ele><time>2026-05-03T16:10:38.098Z</time></trkpt><trkpt lat="44.5607941" lon="7.897036"><ele>230.33333333333334</ele><time>2026-05-03T16:10:39.098Z</time></trkpt><trkpt lat="44.5609717" lon="7.8969934"><ele>230.0</ele><time>2026-05-03T16:10:40.098Z</time></trkpt><trkpt lat="44.5611471" lon="7.8969772"><ele>229.0</ele><time>2026-05-03T16:10:41.097Z</time></trkpt><trkpt lat="44.5613232" lon="7.8969588"><ele>228.0</ele><time>2026-05-03T16:10:42.098Z</time></trkpt><trkpt lat="44.5614849" lon="7.8969388"><ele>227.0</ele><time>2026-05-03T16:10:43.097Z</time></trkpt><trkpt lat="44.5616525" lon="7.8969159"><ele>227.0</ele><time>2026-05-03T16:10:44.098Z</time></trkpt><trkpt lat="44.5618211" lon="7.8968819"><ele>227.0</ele><time>2026-05-03T16:10:45.098Z</time></trkpt><trkpt lat="44.5619833" lon="7.8968606"><ele>227.0</ele><time>2026-05-03T16:10:46.098Z</time></trkpt><trkpt lat="44.5621422" lon="7.8968414"><ele>226.25</ele><time>2026-05-03T16:10:47.098Z</time></trkpt><trkpt lat="44.5623027" lon="7.896811"><ele>225.5</ele><time>2026-05-03T16:10:48.098Z</time></trkpt><trkpt lat="44.562431" lon="7.8968023"><ele>224.75</ele><time>2026-05-03T16:10:49.097Z</time></trkpt><trkpt lat="44.5625485" lon="7.8967712"><ele>224.0</ele><time>2026-05-03T16:10:50.098Z</time></trkpt><trkpt lat="44.562677" lon="7.8967592"><ele>224.39999999999998</ele><time>2026-05-03T16:10:51.097Z</time></trkpt><trkpt lat="44.5627837" lon="7.8967462"><ele>224.79999999999998</ele><time>2026-05-03T16:10:52.098Z</time></trkpt><trkpt lat="44.5629068" lon="7.8967388"><ele>225.20000000000002</ele><time>2026-05-03T16:10:53.098Z</time></trkpt><trkpt lat="44.5629949" lon="7.8967366"><ele>225.60000000000002</ele><time>2026-05-03T16:10:54.097Z</time></trkpt><trkpt lat="44.5631254" lon="7.8967304"><ele>226.0</ele><time>2026-05-03T16:10:55.098Z</time></trkpt><trkpt lat="44.5632585" lon="7.8967237"><ele>226.0</ele><time>2026-05-03T16:10:56.098Z</time></trkpt><trkpt lat="44.5633781" lon="7.8967271"><ele>226.0</ele><time>2026-05-03T16:10:57.098Z</time></trkpt><trkpt lat="44.5634926" lon="7.8967373"><ele>226.0</ele><time>2026-05-03T16:10:58.097Z</time></trkpt><trkpt lat="44.5636077" lon="7.8967462"><ele>226.0</ele><time>2026-05-03T16:10:59.097Z</time></trkpt><trkpt lat="44.5637136" lon="7.8967594"><ele>226.0</ele><time>2026-05-03T16:11:00.098Z</time></trkpt><trkpt lat="44.5638121" lon="7.8967899"><ele>226.00000000000003</ele><time>2026-05-03T16:11:01.097Z</time></trkpt><trkpt lat="44.5639143" lon="7.8968438"><ele>226.00000000000003</ele><time>2026-05-03T16:11:02.098Z</time></trkpt><trkpt lat="44.5639789" lon="7.8969122"><ele>226.0</ele><time>2026-05-03T16:11:03.098Z</time></trkpt><trkpt lat="44.5640504" lon="7.8969881"><ele>226.0</ele><time>2026-05-03T16:11:04.097Z</time></trkpt><trkpt lat="44.5641113" lon="7.8970456"><ele>225.99999999999997</ele><time>2026-05-03T16:11:05.098Z</time></trkpt><trkpt lat="44.5641954" lon="7.8970717"><ele>226.0</ele><time>2026-05-03T16:11:06.097Z</time></trkpt><trkpt lat="44.5642589" lon="7.8971134"><ele>226.0</ele><time>2026-05-03T16:11:07.097Z</time></trkpt><trkpt lat="44.5643393" lon="7.8970523"><ele>226.0</ele><time>2026-05-03T16:11:08.098Z</time></trkpt><trkpt lat="44.5644285" lon="7.8969933"><ele>225.99999999999997</ele><time>2026-05-03T16:11:09.097Z</time></trkpt><trkpt lat="44.5645105" lon="7.8969344"><ele>226.0</ele><time>2026-05-03T16:11:10.098Z</time></trkpt><trkpt lat="44.5645983" lon="7.8968568"><ele>226.20000000000002</ele><time>2026-05-03T16:11:11.098Z</time></trkpt><trkpt lat="44.5646977" lon="7.8968337"><ele>226.40000000000003</ele><time>2026-05-03T16:11:12.097Z</time></trkpt><trkpt lat="44.5647984" lon="7.8968527"><ele>226.6</ele><time>2026-05-03T16:11:13.097Z</time></trkpt><trkpt lat="44.5649038" lon="7.8969049"><ele>226.8</ele><time>2026-05-03T16:11:14.098Z</time></trkpt><trkpt lat="44.565015" lon="7.8969653"><ele>227.0</ele><time>2026-05-03T16:11:15.098Z</time></trkpt><trkpt lat="44.5651064" lon="7.8970387"><ele>227.0</ele><time>2026-05-03T16:11:16.098Z</time></trkpt><trkpt lat="44.5652157" lon="7.8971228"><ele>227.0</ele><time>2026-05-03T16:11:17.098Z</time></trkpt><trkpt lat="44.5653445" lon="7.8972276"><ele>227.0</ele><time>2026-05-03T16:11:18.098Z</time></trkpt><trkpt lat="44.5655539" lon="7.8973204"><ele>226.33333333333334</ele><time>2026-05-03T16:11:19.097Z</time></trkpt><trkpt lat="44.5657154" lon="7.8974324"><ele>225.66666666666669</ele><time>2026-05-03T16:11:20.098Z</time></trkpt><trkpt lat="44.5658661" lon="7.8975532"><ele>225.0</ele><time>2026-05-03T16:11:21.098Z</time></trkpt><trkpt lat="44.5660301" lon="7.8976778"><ele>225.0</ele><time>2026-05-03T16:11:22.097Z</time></trkpt><trkpt lat="44.5661785" lon="7.8978251"><ele>225.0</ele><time>2026-05-03T16:11:23.098Z</time></trkpt><trkpt lat="44.5663534" lon="7.8979744"><ele>225.0</ele><time>2026-05-03T16:11:24.098Z</time></trkpt><trkpt lat="44.5665326" lon="7.8981294"><ele>225.0</ele><time>2026-05-03T16:11:25.098Z</time></trkpt><trkpt lat="44.5667054" lon="7.8983156"><ele>225.0</ele><time>2026-05-03T16:11:26.098Z</time></trkpt><trkpt lat="44.5668726" lon="7.8985189"><ele>225.0</ele><time>2026-05-03T16:11:27.098Z</time></trkpt><trkpt lat="44.56703" lon="7.8987238"><ele>224.33333333333331</ele><time>2026-05-03T16:11:28.098Z</time></trkpt><trkpt lat="44.5671761" lon="7.8989214"><ele>223.66666666666666</ele><time>2026-05-03T16:11:29.097Z</time></trkpt><trkpt lat="44.5673266" lon="7.899131"><ele>223.0</ele><time>2026-05-03T16:11:30.098Z</time></trkpt><trkpt lat="44.5674421" lon="7.8993236"><ele>222.66666666666666</ele><time>2026-05-03T16:11:31.098Z</time></trkpt><trkpt lat="44.5675705" lon="7.8995139"><ele>222.33333333333331</ele><time>2026-05-03T16:11:32.098Z</time></trkpt><trkpt lat="44.5676884" lon="7.8996995"><ele>222.0</ele><time>2026-05-03T16:11:33.098Z</time></trkpt><trkpt lat="44.5678087" lon="7.8998931"><ele>222.33333333333331</ele><time>2026-05-03T16:11:34.098Z</time></trkpt><trkpt lat="44.5679263" lon="7.9000783"><ele>222.66666666666666</ele><time>2026-05-03T16:11:35.098Z</time></trkpt><trkpt lat="44.5680501" lon="7.9002656"><ele>223.0</ele><time>2026-05-03T16:11:36.098Z</time></trkpt><trkpt lat="44.5681638" lon="7.9004551"><ele>223.33333333333331</ele><time>2026-05-03T16:11:37.098Z</time></trkpt><trkpt lat="44.5682801" lon="7.9006345"><ele>223.66666666666669</ele><time>2026-05-03T16:11:38.098Z</time></trkpt><trkpt lat="44.5683973" lon="7.9008142"><ele>224.0</ele><time>2026-05-03T16:11:39.098Z</time></trkpt><trkpt lat="44.5685209" lon="7.9010085"><ele>224.0</ele><time>2026-05-03T16:11:40.098Z</time></trkpt><trkpt lat="44.5686571" lon="7.9012117"><ele>224.0</ele><time>2026-05-03T16:11:41.098Z</time></trkpt><trkpt lat="44.568808" lon="7.9014221"><ele>224.0</ele><time>2026-05-03T16:11:42.098Z</time></trkpt><trkpt lat="44.5689683" lon="7.9016485"><ele>223.0</ele><time>2026-05-03T16:11:43.098Z</time></trkpt><trkpt lat="44.5691184" lon="7.9018831"><ele>222.0</ele><time>2026-05-03T16:11:44.098Z</time></trkpt><trkpt lat="44.5692623" lon="7.9021203"><ele>221.0</ele><time>2026-05-03T16:11:45.097Z</time></trkpt><trkpt lat="44.5694056" lon="7.9023493"><ele>221.0</ele><time>2026-05-03T16:11:46.098Z</time></trkpt><trkpt lat="44.5695449" lon="7.9025717"><ele>221.0</ele><time>2026-05-03T16:11:47.098Z</time></trkpt><trkpt lat="44.5696853" lon="7.9028053"><ele>221.0</ele><time>2026-05-03T16:11:48.098Z</time></trkpt><trkpt lat="44.5698245" lon="7.9030231"><ele>221.0</ele><time>2026-05-03T16:11:49.097Z</time></trkpt><trkpt lat="44.5699578" lon="7.9032365"><ele>221.0</ele><time>2026-05-03T16:11:50.097Z</time></trkpt><trkpt lat="44.5700961" lon="7.9034493"><ele>221.0</ele><time>2026-05-03T16:11:51.098Z</time></trkpt><trkpt lat="44.5702292" lon="7.9036534"><ele>220.66666666666669</ele><time>2026-05-03T16:11:52.098Z</time></trkpt><trkpt lat="44.570366" lon="7.9038611"><ele>220.33333333333331</ele><time>2026-05-03T16:11:53.098Z</time></trkpt><trkpt lat="44.5705181" lon="7.9040868"><ele>220.0</ele><time>2026-05-03T16:11:54.098Z</time></trkpt><trkpt lat="44.5706804" lon="7.9043187"><ele>218.5</ele><time>2026-05-03T16:11:55.098Z</time></trkpt><trkpt lat="44.570851" lon="7.9045568"><ele>217.0</ele><time>2026-05-03T16:11:56.098Z</time></trkpt><trkpt lat="44.5710111" lon="7.9048003"><ele>217.0</ele><time>2026-05-03T16:11:57.098Z</time></trkpt><trkpt lat="44.571183" lon="7.9050693"><ele>217.0</ele><time>2026-05-03T16:11:58.097Z</time></trkpt><trkpt lat="44.5713641" lon="7.9053456"><ele>217.5</ele><time>2026-05-03T16:11:59.098Z</time></trkpt><trkpt lat="44.5715553" lon="7.905611"><ele>218.0</ele><time>2026-05-03T16:12:00.097Z</time></trkpt><trkpt lat="44.5717377" lon="7.9058839"><ele>218.0</ele><time>2026-05-03T16:12:01.098Z</time></trkpt><trkpt lat="44.5719311" lon="7.9061978"><ele>218.0</ele><time>2026-05-03T16:12:02.098Z</time></trkpt><trkpt lat="44.5721265" lon="7.9065035"><ele>218.0</ele><time>2026-05-03T16:12:03.097Z</time></trkpt><trkpt lat="44.5722915" lon="7.906799"><ele>218.0</ele><time>2026-05-03T16:12:04.098Z</time></trkpt><trkpt lat="44.5724561" lon="7.9070689"><ele>218.0</ele><time>2026-05-03T16:12:05.098Z</time></trkpt><trkpt lat="44.5726147" lon="7.9073226"><ele>218.0</ele><time>2026-05-03T16:12:06.098Z</time></trkpt><trkpt lat="44.5727666" lon="7.9075514"><ele>218.5</ele><time>2026-05-03T16:12:07.098Z</time></trkpt><trkpt lat="44.5729244" lon="7.9077783"><ele>219.0</ele><time>2026-05-03T16:12:08.098Z</time></trkpt><trkpt lat="44.5730952" lon="7.9079925"><ele>219.0</ele><time>2026-05-03T16:12:09.098Z</time></trkpt><trkpt lat="44.5732734" lon="7.90819"><ele>219.0</ele><time>2026-05-03T16:12:10.098Z</time></trkpt><trkpt lat="44.5734613" lon="7.9083809"><ele>218.5</ele><time>2026-05-03T16:12:11.098Z</time></trkpt><trkpt lat="44.5736566" lon="7.9085636"><ele>218.0</ele><time>2026-05-03T16:12:12.098Z</time></trkpt><trkpt lat="44.5738591" lon="7.9087271"><ele>217.5</ele><time>2026-05-03T16:12:13.098Z</time></trkpt><trkpt lat="44.5740679" lon="7.9088803"><ele>217.0</ele><time>2026-05-03T16:12:14.097Z</time></trkpt><trkpt lat="44.5742804" lon="7.9090159"><ele>217.0</ele><time>2026-05-03T16:12:15.098Z</time></trkpt><trkpt lat="44.5744964" lon="7.9091255"><ele>217.0</ele><time>2026-05-03T16:12:16.098Z</time></trkpt><trkpt lat="44.5747198" lon="7.9092298"><ele>217.5</ele><time>2026-05-03T16:12:17.097Z</time></trkpt><trkpt lat="44.5749467" lon="7.9093247"><ele>218.0</ele><time>2026-05-03T16:12:18.098Z</time></trkpt><trkpt lat="44.5751818" lon="7.9094139"><ele>218.0</ele><time>2026-05-03T16:12:19.098Z</time></trkpt><trkpt lat="44.5754295" lon="7.9094736"><ele>218.0</ele><time>2026-05-03T16:12:20.098Z</time></trkpt><trkpt lat="44.5756628" lon="7.9095152"><ele>218.0</ele><time>2026-05-03T16:12:21.098Z</time></trkpt><trkpt lat="44.5759193" lon="7.9095209"><ele>218.0</ele><time>2026-05-03T16:12:22.098Z</time></trkpt><trkpt lat="44.5761763" lon="7.9095208"><ele>218.0</ele><time>2026-05-03T16:12:23.098Z</time></trkpt><trkpt lat="44.5764245" lon="7.9095207"><ele>218.0</ele><time>2026-05-03T16:12:24.098Z</time></trkpt><trkpt lat="44.57667" lon="7.9095015"><ele>218.0</ele><time>2026-05-03T16:12:25.098Z</time></trkpt><trkpt lat="44.5768937" lon="7.9094568"><ele>218.0</ele><time>2026-05-03T16:12:26.098Z</time></trkpt><trkpt lat="44.5771166" lon="7.9094567"><ele>218.0</ele><time>2026-05-03T16:12:27.098Z</time></trkpt><trkpt lat="44.5773328" lon="7.9094382"><ele>217.66666666666669</ele><time>2026-05-03T16:12:28.098Z</time></trkpt><trkpt lat="44.5775407" lon="7.9094352"><ele>217.33333333333331</ele><time>2026-05-03T16:12:29.097Z</time></trkpt><trkpt lat="44.5777473" lon="7.9094179"><ele>217.0</ele><time>2026-05-03T16:12:30.097Z</time></trkpt><trkpt lat="44.57795" lon="7.9094107"><ele>216.33333333333331</ele><time>2026-05-03T16:12:31.098Z</time></trkpt><trkpt lat="44.5781464" lon="7.9093951"><ele>215.66666666666669</ele><time>2026-05-03T16:12:32.098Z</time></trkpt><trkpt lat="44.5783242" lon="7.9094032"><ele>215.0</ele><time>2026-05-03T16:12:33.098Z</time></trkpt><trkpt lat="44.5785069" lon="7.9094001"><ele>215.0</ele><time>2026-05-03T16:12:34.098Z</time></trkpt><trkpt lat="44.5786595" lon="7.9093955"><ele>215.0</ele><time>2026-05-03T16:12:35.098Z</time></trkpt><trkpt lat="44.5788099" lon="7.9094107"><ele>215.0</ele><time>2026-05-03T16:12:36.098Z</time></trkpt><trkpt lat="44.5789708" lon="7.9094082"><ele>217.33333333333334</ele><time>2026-05-03T16:12:37.097Z</time></trkpt><trkpt lat="44.5791267" lon="7.9093952"><ele>219.66666666666669</ele><time>2026-05-03T16:12:38.098Z</time></trkpt><trkpt lat="44.5792893" lon="7.9093774"><ele>222.0</ele><time>2026-05-03T16:12:39.098Z</time></trkpt><trkpt lat="44.5794479" lon="7.9093478"><ele>221.66666666666669</ele><time>2026-05-03T16:12:40.098Z</time></trkpt><trkpt lat="44.5796127" lon="7.9093017"><ele>221.33333333333334</ele><time>2026-05-03T16:12:41.097Z</time></trkpt><trkpt lat="44.5797762" lon="7.9092508"><ele>221.0</ele><time>2026-05-03T16:12:42.098Z</time></trkpt><trkpt lat="44.5799283" lon="7.9091891"><ele>221.0</ele><time>2026-05-03T16:12:43.097Z</time></trkpt><trkpt lat="44.580068" lon="7.9091439"><ele>221.0</ele><time>2026-05-03T16:12:44.098Z</time></trkpt><trkpt lat="44.5802132" lon="7.9090984"><ele>221.0</ele><time>2026-05-03T16:12:45.098Z</time></trkpt><trkpt lat="44.5803484" lon="7.9090591"><ele>221.0</ele><time>2026-05-03T16:12:46.098Z</time></trkpt><trkpt lat="44.5804596" lon="7.9090167"><ele>221.8</ele><time>2026-05-03T16:12:47.098Z</time></trkpt><trkpt lat="44.5805369" lon="7.9089845"><ele>222.60000000000002</ele><time>2026-05-03T16:12:48.097Z</time></trkpt><trkpt lat="44.580613" lon="7.9089768"><ele>223.4</ele><time>2026-05-03T16:12:49.098Z</time></trkpt><trkpt lat="44.5806979" lon="7.909057"><ele>224.2</ele><time>2026-05-03T16:12:51.098Z</time></trkpt><trkpt lat="44.580781" lon="7.9091313"><ele>225.0</ele><time>2026-05-03T16:12:53.098Z</time></trkpt><trkpt lat="44.5808726" lon="7.9091611"><ele>225.0</ele><time>2026-05-03T16:12:55.098Z</time></trkpt><trkpt lat="44.580943" lon="7.9091605"><ele>225.0</ele><time>2026-05-03T16:12:56.097Z</time></trkpt><trkpt lat="44.5809889" lon="7.909082"><ele>225.0</ele><time>2026-05-03T16:12:57.098Z</time></trkpt><trkpt lat="44.5810335" lon="7.9090066"><ele>225.0</ele><time>2026-05-03T16:12:58.098Z</time></trkpt><trkpt lat="44.5810642" lon="7.9089139"><ele>225.0</ele><time>2026-05-03T16:12:59.097Z</time></trkpt><trkpt lat="44.5811437" lon="7.9086978"><ele>225.0</ele><time>2026-05-03T16:13:01.098Z</time></trkpt><trkpt lat="44.5812398" lon="7.9085452"><ele>225.0</ele><time>2026-05-03T16:13:02.098Z</time></trkpt><trkpt lat="44.5813298" lon="7.9084187"><ele>225.0</ele><time>2026-05-03T16:13:03.098Z</time></trkpt><trkpt lat="44.5814657" lon="7.9082773"><ele>225.0</ele><time>2026-05-03T16:13:04.098Z</time></trkpt><trkpt lat="44.5815934" lon="7.9081575"><ele>224.33333333333331</ele><time>2026-05-03T16:13:05.098Z</time></trkpt><trkpt lat="44.5817579" lon="7.9080005"><ele>223.66666666666666</ele><time>2026-05-03T16:13:06.098Z</time></trkpt><trkpt lat="44.5818728" lon="7.9077257"><ele>223.0</ele><time>2026-05-03T16:13:07.098Z</time></trkpt><trkpt lat="44.5820046" lon="7.9075057"><ele>224.0</ele><time>2026-05-03T16:13:08.097Z</time></trkpt><trkpt lat="44.582143" lon="7.9072469"><ele>225.0</ele><time>2026-05-03T16:13:09.098Z</time></trkpt><trkpt lat="44.5822874" lon="7.9070051"><ele>224.5</ele><time>2026-05-03T16:13:10.098Z</time></trkpt><trkpt lat="44.5824313" lon="7.9067426"><ele>224.0</ele><time>2026-05-03T16:13:11.098Z</time></trkpt><trkpt lat="44.5825772" lon="7.9064995"><ele>224.0</ele><time>2026-05-03T16:13:12.098Z</time></trkpt><trkpt lat="44.5827383" lon="7.906237"><ele>224.0</ele><time>2026-05-03T16:13:13.097Z</time></trkpt><trkpt lat="44.582863" lon="7.9059762"><ele>225.0</ele><time>2026-05-03T16:13:14.098Z</time></trkpt><trkpt lat="44.5829929" lon="7.9056683"><ele>226.0</ele><time>2026-05-03T16:13:15.098Z</time></trkpt><trkpt lat="44.5831337" lon="7.9053854"><ele>226.0</ele><time>2026-05-03T16:13:16.098Z</time></trkpt><trkpt lat="44.5832668" lon="7.9051321"><ele>226.0</ele><time>2026-05-03T16:13:17.097Z</time></trkpt><trkpt lat="44.5834079" lon="7.9048813"><ele>225.66666666666666</ele><time>2026-05-03T16:13:18.098Z</time></trkpt><trkpt lat="44.5835423" lon="7.9046604"><ele>225.33333333333331</ele><time>2026-05-03T16:13:19.097Z</time></trkpt><trkpt lat="44.5836731" lon="7.9044069"><ele>225.0</ele><time>2026-05-03T16:13:20.098Z</time></trkpt><trkpt lat="44.5837861" lon="7.904198"><ele>226.66666666666669</ele><time>2026-05-03T16:13:21.098Z</time></trkpt><trkpt lat="44.5838842" lon="7.9039954"><ele>228.33333333333334</ele><time>2026-05-03T16:13:22.098Z</time></trkpt><trkpt lat="44.5839893" lon="7.9038024"><ele>230.0</ele><time>2026-05-03T16:13:23.098Z</time></trkpt><trkpt lat="44.5840742" lon="7.9036376"><ele>230.0</ele><time>2026-05-03T16:13:24.097Z</time></trkpt><trkpt lat="44.5841662" lon="7.903461"><ele>230.0</ele><time>2026-05-03T16:13:25.098Z</time></trkpt><trkpt lat="44.5842608" lon="7.9032756"><ele>230.0</ele><time>2026-05-03T16:13:26.097Z</time></trkpt><trkpt lat="44.5843594" lon="7.903079"><ele>230.0</ele><time>2026-05-03T16:13:27.097Z</time></trkpt><trkpt lat="44.584459" lon="7.9028973"><ele>230.0</ele><time>2026-05-03T16:13:28.098Z</time></trkpt><trkpt lat="44.5845616" lon="7.902685"><ele>230.0</ele><time>2026-05-03T16:13:29.098Z</time></trkpt><trkpt lat="44.5846744" lon="7.9024735"><ele>230.0</ele><time>2026-05-03T16:13:30.098Z</time></trkpt><trkpt lat="44.5847856" lon="7.9022537"><ele>230.0</ele><time>2026-05-03T16:13:31.098Z</time></trkpt><trkpt lat="44.584908" lon="7.9020523"><ele>230.0</ele><time>2026-05-03T16:13:32.098Z</time></trkpt><trkpt lat="44.5850428" lon="7.9018203"><ele>229.66666666666669</ele><time>2026-05-03T16:13:33.098Z</time></trkpt><trkpt lat="44.5851799" lon="7.9015924"><ele>229.33333333333331</ele><time>2026-05-03T16:13:34.098Z</time></trkpt><trkpt lat="44.5853135" lon="7.9013683"><ele>229.0</ele><time>2026-05-03T16:13:35.098Z</time></trkpt><trkpt lat="44.5854359" lon="7.9011485"><ele>228.33333333333331</ele><time>2026-05-03T16:13:36.098Z</time></trkpt><trkpt lat="44.5855721" lon="7.9009221"><ele>227.66666666666669</ele><time>2026-05-03T16:13:37.098Z</time></trkpt><trkpt lat="44.5856973" lon="7.9006904"><ele>227.0</ele><time>2026-05-03T16:13:38.097Z</time></trkpt><trkpt lat="44.5858305" lon="7.9004706"><ele>226.0</ele><time>2026-05-03T16:13:39.097Z</time></trkpt><trkpt lat="44.5859609" lon="7.9001914"><ele>225.0</ele><time>2026-05-03T16:13:40.098Z</time></trkpt><trkpt lat="44.5861005" lon="7.8999457"><ele>223.0</ele><time>2026-05-03T16:13:41.098Z</time></trkpt><trkpt lat="44.5862357" lon="7.8996858"><ele>221.0</ele><time>2026-05-03T16:13:42.098Z</time></trkpt><trkpt lat="44.586364" lon="7.8994285"><ele>221.0</ele><time>2026-05-03T16:13:43.097Z</time></trkpt><trkpt lat="44.5865308" lon="7.8991668"><ele>221.0</ele><time>2026-05-03T16:13:44.098Z</time></trkpt><trkpt lat="44.5866864" lon="7.8989037"><ele>221.0</ele><time>2026-05-03T16:13:45.098Z</time></trkpt><trkpt lat="44.5868468" lon="7.8986512"><ele>221.0</ele><time>2026-05-03T16:13:46.098Z</time></trkpt><trkpt lat="44.5869904" lon="7.8983937"><ele>221.0</ele><time>2026-05-03T16:13:47.097Z</time></trkpt><trkpt lat="44.5871463" lon="7.8981238"><ele>221.0</ele><time>2026-05-03T16:13:48.098Z</time></trkpt><trkpt lat="44.5872797" lon="7.8978788"><ele>221.0</ele><time>2026-05-03T16:13:49.098Z</time></trkpt><trkpt lat="44.5874334" lon="7.8976388"><ele>221.0</ele><time>2026-05-03T16:13:50.098Z</time></trkpt><trkpt lat="44.5875622" lon="7.8974153"><ele>221.0</ele><time>2026-05-03T16:13:51.098Z</time></trkpt><trkpt lat="44.5876798" lon="7.8971861"><ele>221.0</ele><time>2026-05-03T16:13:52.098Z</time></trkpt><trkpt lat="44.5878017" lon="7.8969696"><ele>221.0</ele><time>2026-05-03T16:13:53.098Z</time></trkpt><trkpt lat="44.5879122" lon="7.89675"><ele>221.0</ele><time>2026-05-03T16:13:54.098Z</time></trkpt><trkpt lat="44.588022" lon="7.8965411"><ele>221.0</ele><time>2026-05-03T16:13:55.098Z</time></trkpt><trkpt lat="44.5881461" lon="7.8963312"><ele>221.0</ele><time>2026-05-03T16:13:56.098Z</time></trkpt><trkpt lat="44.5882755" lon="7.8961433"><ele>221.0</ele><time>2026-05-03T16:13:57.098Z</time></trkpt><trkpt lat="44.5884054" lon="7.8959595"><ele>221.0</ele><time>2026-05-03T16:13:58.098Z</time></trkpt><trkpt lat="44.5885409" lon="7.8957834"><ele>221.0</ele><time>2026-05-03T16:13:59.098Z</time></trkpt><trkpt lat="44.5886765" lon="7.8956075"><ele>221.0</ele><time>2026-05-03T16:14:00.098Z</time></trkpt><trkpt lat="44.5888245" lon="7.8954318"><ele>220.0</ele><time>2026-05-03T16:14:01.097Z</time></trkpt><trkpt lat="44.5889684" lon="7.8952628"><ele>219.0</ele><time>2026-05-03T16:14:02.098Z</time></trkpt><trkpt lat="44.5891217" lon="7.8951301"><ele>218.0</ele><time>2026-05-03T16:14:03.098Z</time></trkpt><trkpt lat="44.589271" lon="7.8950206"><ele>217.66666666666669</ele><time>2026-05-03T16:14:04.098Z</time></trkpt><trkpt lat="44.5894284" lon="7.8948935"><ele>217.33333333333331</ele><time>2026-05-03T16:14:05.098Z</time></trkpt><trkpt lat="44.5895918" lon="7.8947879"><ele>217.0</ele><time>2026-05-03T16:14:06.098Z</time></trkpt><trkpt lat="44.5897637" lon="7.8946791"><ele>217.0</ele><time>2026-05-03T16:14:07.098Z</time></trkpt><trkpt lat="44.5899354" lon="7.8945912"><ele>217.0</ele><time>2026-05-03T16:14:08.098Z</time></trkpt><trkpt lat="44.5901128" lon="7.8945049"><ele>217.0</ele><time>2026-05-03T16:14:09.098Z</time></trkpt><trkpt lat="44.5903025" lon="7.8944328"><ele>217.0</ele><time>2026-05-03T16:14:10.098Z</time></trkpt><trkpt lat="44.5904892" lon="7.8943828"><ele>217.0</ele><time>2026-05-03T16:14:11.097Z</time></trkpt><trkpt lat="44.5906729" lon="7.8943262"><ele>217.0</ele><time>2026-05-03T16:14:12.098Z</time></trkpt><trkpt lat="44.5908487" lon="7.8942916"><ele>217.0</ele><time>2026-05-03T16:14:13.098Z</time></trkpt><trkpt lat="44.5910615" lon="7.8942275"><ele>217.0</ele><time>2026-05-03T16:14:14.098Z</time></trkpt><trkpt lat="44.5912888" lon="7.8941732"><ele>217.0</ele><time>2026-05-03T16:14:15.098Z</time></trkpt><trkpt lat="44.5914982" lon="7.8941259"><ele>217.0</ele><time>2026-05-03T16:14:16.098Z</time></trkpt><trkpt lat="44.5916963" lon="7.8940897"><ele>217.0</ele><time>2026-05-03T16:14:17.097Z</time></trkpt><trkpt lat="44.5918872" lon="7.8940517"><ele>217.0</ele><time>2026-05-03T16:14:18.098Z</time></trkpt><trkpt lat="44.5920824" lon="7.8940039"><ele>216.66666666666666</ele><time>2026-05-03T16:14:19.098Z</time></trkpt><trkpt lat="44.5922417" lon="7.8939741"><ele>216.33333333333331</ele><time>2026-05-03T16:14:20.098Z</time></trkpt><trkpt lat="44.5924037" lon="7.8939308"><ele>216.0</ele><time>2026-05-03T16:14:21.098Z</time></trkpt><trkpt lat="44.5925451" lon="7.893904"><ele>216.0</ele><time>2026-05-03T16:14:22.098Z</time></trkpt><trkpt lat="44.5926943" lon="7.8938919"><ele>216.0</ele><time>2026-05-03T16:14:23.098Z</time></trkpt><trkpt lat="44.5928479" lon="7.8939111"><ele>216.0</ele><time>2026-05-03T16:14:24.098Z</time></trkpt><trkpt lat="44.5930196" lon="7.8939354"><ele>216.33333333333331</ele><time>2026-05-03T16:14:25.097Z</time></trkpt><trkpt lat="44.5931841" lon="7.893988"><ele>216.66666666666666</ele><time>2026-05-03T16:14:26.098Z</time></trkpt><trkpt lat="44.5933461" lon="7.8940485"><ele>217.0</ele><time>2026-05-03T16:14:27.098Z</time></trkpt><trkpt lat="44.593468" lon="7.8940989"><ele>217.0</ele><time>2026-05-03T16:14:28.098Z</time></trkpt><trkpt lat="44.5936041" lon="7.8941444"><ele>217.0</ele><time>2026-05-03T16:14:29.098Z</time></trkpt><trkpt lat="44.5937425" lon="7.8941746"><ele>217.0</ele><time>2026-05-03T16:14:30.097Z</time></trkpt><trkpt lat="44.5939033" lon="7.8941668"><ele>217.0</ele><time>2026-05-03T16:14:31.098Z</time></trkpt><trkpt lat="44.5940404" lon="7.89412"><ele>216.5</ele><time>2026-05-03T16:14:32.098Z</time></trkpt><trkpt lat="44.5941726" lon="7.894053"><ele>216.0</ele><time>2026-05-03T16:14:33.098Z</time></trkpt><trkpt lat="44.594291" lon="7.8940051"><ele>215.5</ele><time>2026-05-03T16:14:34.098Z</time></trkpt><trkpt lat="44.5944221" lon="7.8939496"><ele>215.0</ele><time>2026-05-03T16:14:35.098Z</time></trkpt><trkpt lat="44.5945435" lon="7.8938755"><ele>216.0</ele><time>2026-05-03T16:14:36.098Z</time></trkpt><trkpt lat="44.5946628" lon="7.893795"><ele>217.0</ele><time>2026-05-03T16:14:37.098Z</time></trkpt><trkpt lat="44.5947727" lon="7.8937335"><ele>218.0</ele><time>2026-05-03T16:14:38.097Z</time></trkpt><trkpt lat="44.5948672" lon="7.893679"><ele>219.0</ele><time>2026-05-03T16:14:39.098Z</time></trkpt><trkpt lat="44.5949553" lon="7.8936235"><ele>220.0</ele><time>2026-05-03T16:14:40.098Z</time></trkpt><trkpt lat="44.5950441" lon="7.8935694"><ele>220.0</ele><time>2026-05-03T16:14:41.097Z</time></trkpt><trkpt lat="44.595133" lon="7.8935094"><ele>220.0</ele><time>2026-05-03T16:14:42.098Z</time></trkpt><trkpt lat="44.5952245" lon="7.8934633"><ele>220.0</ele><time>2026-05-03T16:14:43.098Z</time></trkpt><trkpt lat="44.5953256" lon="7.8934336"><ele>220.0</ele><time>2026-05-03T16:14:44.098Z</time></trkpt><trkpt lat="44.5954201" lon="7.8934092"><ele>220.0</ele><time>2026-05-03T16:14:45.098Z</time></trkpt><trkpt lat="44.59552" lon="7.8933899"><ele>220.4</ele><time>2026-05-03T16:14:46.098Z</time></trkpt><trkpt lat="44.5956169" lon="7.8933944"><ele>220.8</ele><time>2026-05-03T16:14:47.098Z</time></trkpt><trkpt lat="44.5957285" lon="7.8933924"><ele>221.2</ele><time>2026-05-03T16:14:48.098Z</time></trkpt><trkpt lat="44.5958306" lon="7.8934092"><ele>221.6</ele><time>2026-05-03T16:14:49.097Z</time></trkpt><trkpt lat="44.5959314" lon="7.8934161"><ele>222.0</ele><time>2026-05-03T16:14:50.098Z</time></trkpt><trkpt lat="44.5960303" lon="7.8934387"><ele>222.66666666666666</ele><time>2026-05-03T16:14:51.097Z</time></trkpt><trkpt lat="44.596115" lon="7.8934267"><ele>223.33333333333331</ele><time>2026-05-03T16:14:52.097Z</time></trkpt><trkpt lat="44.5962061" lon="7.8934035"><ele>224.0</ele><time>2026-05-03T16:14:53.097Z</time></trkpt><trkpt lat="44.5962843" lon="7.8933489"><ele>224.66666666666666</ele><time>2026-05-03T16:14:54.098Z</time></trkpt><trkpt lat="44.5963743" lon="7.8933087"><ele>225.33333333333331</ele><time>2026-05-03T16:14:55.098Z</time></trkpt><trkpt lat="44.5964461" lon="7.8932714"><ele>226.0</ele><time>2026-05-03T16:14:56.098Z</time></trkpt><trkpt lat="44.5965172" lon="7.8932385"><ele>226.0</ele><time>2026-05-03T16:14:57.098Z</time></trkpt><trkpt lat="44.5965838" lon="7.8931656"><ele>226.00000000000003</ele><time>2026-05-03T16:14:58.098Z</time></trkpt><trkpt lat="44.5966578" lon="7.8931052"><ele>226.00000000000003</ele><time>2026-05-03T16:14:59.098Z</time></trkpt><trkpt lat="44.596735" lon="7.8930088"><ele>226.0</ele><time>2026-05-03T16:15:00.097Z</time></trkpt><trkpt lat="44.5967916" lon="7.8929037"><ele>226.0</ele><time>2026-05-03T16:15:01.098Z</time></trkpt><trkpt lat="44.5968443" lon="7.8927937"><ele>225.99999999999997</ele><time>2026-05-03T16:15:02.097Z</time></trkpt><trkpt lat="44.5968918" lon="7.8927012"><ele>226.0</ele><time>2026-05-03T16:15:03.098Z</time></trkpt><trkpt lat="44.5969203" lon="7.8926024"><ele>226.0</ele><time>2026-05-03T16:15:04.097Z</time></trkpt><trkpt lat="44.5969579" lon="7.8924901"><ele>226.0</ele><time>2026-05-03T16:15:05.098Z</time></trkpt><trkpt lat="44.5970022" lon="7.892403"><ele>225.99999999999997</ele><time>2026-05-03T16:15:06.098Z</time></trkpt><trkpt lat="44.5970497" lon="7.8923102"><ele>226.0</ele><time>2026-05-03T16:15:07.098Z</time></trkpt><trkpt lat="44.5970963" lon="7.892224"><ele>226.0</ele><time>2026-05-03T16:15:08.098Z</time></trkpt><trkpt lat="44.5971636" lon="7.8921464"><ele>226.00000000000003</ele><time>2026-05-03T16:15:09.098Z</time></trkpt><trkpt lat="44.5972298" lon="7.89208"><ele>226.00000000000003</ele><time>2026-05-03T16:15:10.098Z</time></trkpt><trkpt lat="44.5973264" lon="7.8920234"><ele>226.0</ele><time>2026-05-03T16:15:11.098Z</time></trkpt><trkpt lat="44.5974166" lon="7.8919979"><ele>226.0</ele><time>2026-05-03T16:15:12.098Z</time></trkpt><trkpt lat="44.5975084" lon="7.8919669"><ele>226.0</ele><time>2026-05-03T16:15:13.098Z</time></trkpt><trkpt lat="44.597598" lon="7.8919698"><ele>226.00000000000003</ele><time>2026-05-03T16:15:14.098Z</time></trkpt><trkpt lat="44.5977039" lon="7.8920006"><ele>226.00000000000003</ele><time>2026-05-03T16:15:15.098Z</time></trkpt><trkpt lat="44.5977981" lon="7.892044"><ele>226.0</ele><time>2026-05-03T16:15:16.098Z</time></trkpt><trkpt lat="44.5979158" lon="7.892096"><ele>226.0</ele><time>2026-05-03T16:15:17.098Z</time></trkpt><trkpt lat="44.5980437" lon="7.8921507"><ele>226.25</ele><time>2026-05-03T16:15:18.098Z</time></trkpt><trkpt lat="44.5981871" lon="7.8921999"><ele>226.5</ele><time>2026-05-03T16:15:19.098Z</time></trkpt><trkpt lat="44.5983204" lon="7.8922478"><ele>226.75</ele><time>2026-05-03T16:15:20.098Z</time></trkpt><trkpt lat="44.5984789" lon="7.8922753"><ele>227.0</ele><time>2026-05-03T16:15:21.098Z</time></trkpt><trkpt lat="44.5986316" lon="7.8922534"><ele>227.75</ele><time>2026-05-03T16:15:22.098Z</time></trkpt><trkpt lat="44.5987768" lon="7.8922289"><ele>228.5</ele><time>2026-05-03T16:15:23.098Z</time></trkpt><trkpt lat="44.598901" lon="7.8922025"><ele>229.25</ele><time>2026-05-03T16:15:24.098Z</time></trkpt><trkpt lat="44.5990197" lon="7.8921542"><ele>230.0</ele><time>2026-05-03T16:15:25.098Z</time></trkpt><trkpt lat="44.59913" lon="7.8921073"><ele>230.0</ele><time>2026-05-03T16:15:26.098Z</time></trkpt><trkpt lat="44.599242" lon="7.8920571"><ele>230.0</ele><time>2026-05-03T16:15:27.097Z</time></trkpt><trkpt lat="44.5993469" lon="7.8920135"><ele>230.0</ele><time>2026-05-03T16:15:28.098Z</time></trkpt><trkpt lat="44.599451" lon="7.8919543"><ele>230.0</ele><time>2026-05-03T16:15:29.098Z</time></trkpt><trkpt lat="44.5995679" lon="7.891886"><ele>229.75</ele><time>2026-05-03T16:15:30.098Z</time></trkpt><trkpt lat="44.5996811" lon="7.8918557"><ele>229.5</ele><time>2026-05-03T16:15:31.098Z</time></trkpt><trkpt lat="44.5997999" lon="7.8918081"><ele>229.25</ele><time>2026-05-03T16:15:32.098Z</time></trkpt><trkpt lat="44.5999047" lon="7.8917506"><ele>229.0</ele><time>2026-05-03T16:15:33.097Z</time></trkpt><trkpt lat="44.6000211" lon="7.8917088"><ele>229.0</ele><time>2026-05-03T16:15:34.098Z</time></trkpt><trkpt lat="44.6001526" lon="7.8916716"><ele>229.0</ele><time>2026-05-03T16:15:35.098Z</time></trkpt><trkpt lat="44.600269" lon="7.8916163"><ele>229.0</ele><time>2026-05-03T16:15:36.098Z</time></trkpt><trkpt lat="44.6004016" lon="7.8915583"><ele>229.0</ele><time>2026-05-03T16:15:37.098Z</time></trkpt><trkpt lat="44.600518" lon="7.8915001"><ele>229.33333333333331</ele><time>2026-05-03T16:15:38.098Z</time></trkpt><trkpt lat="44.6006608" lon="7.8914501"><ele>229.66666666666669</ele><time>2026-05-03T16:15:39.098Z</time></trkpt><trkpt lat="44.6008027" lon="7.8913938"><ele>230.0</ele><time>2026-05-03T16:15:40.097Z</time></trkpt><trkpt lat="44.6009516" lon="7.8913334"><ele>230.0</ele><time>2026-05-03T16:15:41.098Z</time></trkpt><trkpt lat="44.6010913" lon="7.8912731"><ele>230.0</ele><time>2026-05-03T16:15:42.098Z</time></trkpt><trkpt lat="44.6012374" lon="7.8912052"><ele>230.0</ele><time>2026-05-03T16:15:43.098Z</time></trkpt><trkpt lat="44.6013924" lon="7.8911245"><ele>231.0</ele><time>2026-05-03T16:15:44.098Z</time></trkpt><trkpt lat="44.6015413" lon="7.8910244"><ele>232.0</ele><time>2026-05-03T16:15:45.098Z</time></trkpt><trkpt lat="44.6016872" lon="7.890911"><ele>233.0</ele><time>2026-05-03T16:15:46.097Z</time></trkpt><trkpt lat="44.6018377" lon="7.8907917"><ele>232.66666666666669</ele><time>2026-05-03T16:15:47.098Z</time></trkpt><trkpt lat="44.6019864" lon="7.8906742"><ele>232.33333333333331</ele><time>2026-05-03T16:15:48.098Z</time></trkpt><trkpt lat="44.6021344" lon="7.8905439"><ele>232.0</ele><time>2026-05-03T16:15:49.098Z</time></trkpt><trkpt lat="44.6022754" lon="7.8904056"><ele>232.0</ele><time>2026-05-03T16:15:50.098Z</time></trkpt><trkpt lat="44.6024092" lon="7.8902811"><ele>232.0</ele><time>2026-05-03T16:15:51.098Z</time></trkpt><trkpt lat="44.6025314" lon="7.8901492"><ele>232.0</ele><time>2026-05-03T16:15:52.098Z</time></trkpt><trkpt lat="44.6026369" lon="7.8900339"><ele>232.0</ele><time>2026-05-03T16:15:53.097Z</time></trkpt><trkpt lat="44.6027585" lon="7.8899079"><ele>232.25</ele><time>2026-05-03T16:15:54.098Z</time></trkpt><trkpt lat="44.6028623" lon="7.8898038"><ele>232.5</ele><time>2026-05-03T16:15:55.098Z</time></trkpt><trkpt lat="44.6029686" lon="7.8897425"><ele>232.75</ele><time>2026-05-03T16:15:56.098Z</time></trkpt><trkpt lat="44.6030786" lon="7.8896846"><ele>233.0</ele><time>2026-05-03T16:15:57.098Z</time></trkpt><trkpt lat="44.6031827" lon="7.8896904"><ele>233.0</ele><time>2026-05-03T16:15:58.098Z</time></trkpt><trkpt lat="44.6033121" lon="7.8897053"><ele>233.0</ele><time>2026-05-03T16:15:59.097Z</time></trkpt><trkpt lat="44.6034505" lon="7.8897835"><ele>233.0</ele><time>2026-05-03T16:16:00.098Z</time></trkpt><trkpt lat="44.6035962" lon="7.8898888"><ele>233.0</ele><time>2026-05-03T16:16:01.098Z</time></trkpt><trkpt lat="44.6037438" lon="7.8899941"><ele>235.33333333333334</ele><time>2026-05-03T16:16:02.098Z</time></trkpt><trkpt lat="44.603909" lon="7.8900985"><ele>237.66666666666669</ele><time>2026-05-03T16:16:03.098Z</time></trkpt><trkpt lat="44.6040718" lon="7.890203"><ele>240.0</ele><time>2026-05-03T16:16:04.098Z</time></trkpt><trkpt lat="44.6042296" lon="7.8903064"><ele>240.0</ele><time>2026-05-03T16:16:05.098Z</time></trkpt><trkpt lat="44.6043924" lon="7.8904001"><ele>240.0</ele><time>2026-05-03T16:16:06.098Z</time></trkpt><trkpt lat="44.6045416" lon="7.8904913"><ele>240.0</ele><time>2026-05-03T16:16:07.098Z</time></trkpt><trkpt lat="44.6047034" lon="7.8906083"><ele>240.33333333333331</ele><time>2026-05-03T16:16:08.098Z</time></trkpt><trkpt lat="44.6048619" lon="7.8907065"><ele>240.66666666666666</ele><time>2026-05-03T16:16:09.098Z</time></trkpt><trkpt lat="44.6050197" lon="7.8908305"><ele>241.0</ele><time>2026-05-03T16:16:10.098Z</time></trkpt><trkpt lat="44.6051845" lon="7.8910359"><ele>241.66666666666666</ele><time>2026-05-03T16:16:11.098Z</time></trkpt><trkpt lat="44.6053357" lon="7.8912143"><ele>242.33333333333331</ele><time>2026-05-03T16:16:12.097Z</time></trkpt><trkpt lat="44.6054803" lon="7.8913835"><ele>243.0</ele><time>2026-05-03T16:16:13.098Z</time></trkpt><trkpt lat="44.6056201" lon="7.8915344"><ele>243.0</ele><time>2026-05-03T16:16:14.098Z</time></trkpt><trkpt lat="44.60575" lon="7.8916954"><ele>243.0</ele><time>2026-05-03T16:16:15.097Z</time></trkpt><trkpt lat="44.6058763" lon="7.891856"><ele>243.0</ele><time>2026-05-03T16:16:16.098Z</time></trkpt><trkpt lat="44.6059966" lon="7.8920187"><ele>243.5</ele><time>2026-05-03T16:16:17.097Z</time></trkpt><trkpt lat="44.6061111" lon="7.8921822"><ele>244.0</ele><time>2026-05-03T16:16:18.098Z</time></trkpt><trkpt lat="44.6061885" lon="7.8923486"><ele>244.5</ele><time>2026-05-03T16:16:19.098Z</time></trkpt><trkpt lat="44.6062731" lon="7.8925082"><ele>245.0</ele><time>2026-05-03T16:16:20.097Z</time></trkpt><trkpt lat="44.6063404" lon="7.8926374"><ele>246.6</ele><time>2026-05-03T16:16:21.098Z</time></trkpt><trkpt lat="44.6064055" lon="7.8927634"><ele>248.2</ele><time>2026-05-03T16:16:22.098Z</time></trkpt><trkpt lat="44.6064579" lon="7.8928789"><ele>249.8</ele><time>2026-05-03T16:16:23.097Z</time></trkpt><trkpt lat="44.6065018" lon="7.8929943"><ele>251.4</ele><time>2026-05-03T16:16:24.098Z</time></trkpt><trkpt lat="44.606502" lon="7.8931161"><ele>253.0</ele><time>2026-05-03T16:16:25.098Z</time></trkpt><trkpt lat="44.6064374" lon="7.8931878"><ele>253.0</ele><time>2026-05-03T16:16:26.098Z</time></trkpt><trkpt lat="44.6063737" lon="7.8932731"><ele>253.0</ele><time>2026-05-03T16:16:27.098Z</time></trkpt><trkpt lat="44.6062852" lon="7.893334"><ele>253.0</ele><time>2026-05-03T16:16:28.098Z</time></trkpt><trkpt lat="44.6062099" lon="7.8933523"><ele>253.0</ele><time>2026-05-03T16:16:29.098Z</time></trkpt><trkpt lat="44.6060931" lon="7.8931651"><ele>253.0</ele><time>2026-05-03T16:16:30.097Z</time></trkpt><trkpt lat="44.6059883" lon="7.8930064"><ele>253.0</ele><time>2026-05-03T16:16:31.098Z</time></trkpt><trkpt lat="44.6058794" lon="7.892854"><ele>253.0</ele><time>2026-05-03T16:16:32.098Z</time></trkpt><trkpt lat="44.6057903" lon="7.8927129"><ele>253.0</ele><time>2026-05-03T16:16:33.098Z</time></trkpt><trkpt lat="44.6057051" lon="7.8925748"><ele>253.0</ele><time>2026-05-03T16:16:34.098Z</time></trkpt><trkpt lat="44.6056356" lon="7.8924964"><ele>253.0</ele><time>2026-05-03T16:16:35.098Z</time></trkpt><trkpt lat="44.6055625" lon="7.892428"><ele>253.0</ele><time>2026-05-03T16:16:36.098Z</time></trkpt><trkpt lat="44.6054954" lon="7.8923662"><ele>253.0</ele><time>2026-05-03T16:16:37.097Z</time></trkpt><trkpt lat="44.605389" lon="7.8923792"><ele>253.0</ele><time>2026-05-03T16:16:38.098Z</time></trkpt><trkpt lat="44.6052881" lon="7.8923645"><ele>253.0</ele><time>2026-05-03T16:16:39.098Z</time></trkpt><trkpt lat="44.6051791" lon="7.8924172"><ele>253.5</ele><time>2026-05-03T16:16:40.097Z</time></trkpt><trkpt lat="44.605082" lon="7.8924866"><ele>254.0</ele><time>2026-05-03T16:16:41.097Z</time></trkpt><trkpt lat="44.6049627" lon="7.8925987"><ele>254.5</ele><time>2026-05-03T16:16:42.098Z</time></trkpt><trkpt lat="44.6049323" lon="7.8927605"><ele>255.0</ele><time>2026-05-03T16:16:43.098Z</time></trkpt><trkpt lat="44.6048726" lon="7.8928855"><ele>256.75</ele><time>2026-05-03T16:16:44.098Z</time></trkpt><trkpt lat="44.6048341" lon="7.8930388"><ele>258.5</ele><time>2026-05-03T16:16:45.098Z</time></trkpt><trkpt lat="44.6048388" lon="7.8931979"><ele>260.25</ele><time>2026-05-03T16:16:46.098Z</time></trkpt><trkpt lat="44.6048327" lon="7.8933828"><ele>262.0</ele><time>2026-05-03T16:16:47.098Z</time></trkpt><trkpt lat="44.604908" lon="7.8936105"><ele>263.66666666666663</ele><time>2026-05-03T16:16:48.097Z</time></trkpt><trkpt lat="44.6049569" lon="7.893847"><ele>265.3333333333333</ele><time>2026-05-03T16:16:49.098Z</time></trkpt><trkpt lat="44.6050024" lon="7.8941077"><ele>267.0</ele><time>2026-05-03T16:16:50.098Z</time></trkpt><trkpt lat="44.6050281" lon="7.8943782"><ele>269.3333333333333</ele><time>2026-05-03T16:16:51.098Z</time></trkpt><trkpt lat="44.6050279" lon="7.8946675"><ele>271.66666666666663</ele><time>2026-05-03T16:16:52.098Z</time></trkpt><trkpt lat="44.6050183" lon="7.894962"><ele>274.0</ele><time>2026-05-03T16:16:53.098Z</time></trkpt><trkpt lat="44.6049892" lon="7.8952568"><ele>277.5</ele><time>2026-05-03T16:16:54.098Z</time></trkpt><trkpt lat="44.6049312" lon="7.8955625"><ele>281.0</ele><time>2026-05-03T16:16:55.098Z</time></trkpt><trkpt lat="44.6048713" lon="7.8958763"><ele>283.33333333333337</ele><time>2026-05-03T16:16:56.098Z</time></trkpt><trkpt lat="44.6048218" lon="7.89616"><ele>285.6666666666667</ele><time>2026-05-03T16:16:57.098Z</time></trkpt><trkpt lat="44.6047641" lon="7.896443"><ele>288.0</ele><time>2026-05-03T16:16:58.098Z</time></trkpt><trkpt lat="44.6047076" lon="7.8966943"><ele>289.3333333333333</ele><time>2026-05-03T16:16:59.098Z</time></trkpt><trkpt lat="44.6046518" lon="7.8969232"><ele>290.66666666666663</ele><time>2026-05-03T16:17:00.098Z</time></trkpt><trkpt lat="44.6045901" lon="7.8971599"><ele>292.0</ele><time>2026-05-03T16:17:01.098Z</time></trkpt><trkpt lat="44.6045387" lon="7.8973674"><ele>292.0</ele><time>2026-05-03T16:17:02.097Z</time></trkpt><trkpt lat="44.6045275" lon="7.8975538"><ele>292.0</ele><time>2026-05-03T16:17:03.098Z</time></trkpt><trkpt lat="44.6045237" lon="7.8977767"><ele>292.0</ele><time>2026-05-03T16:17:04.098Z</time></trkpt><trkpt lat="44.6045618" lon="7.8980489"><ele>293.66666666666663</ele><time>2026-05-03T16:17:05.098Z</time></trkpt><trkpt lat="44.6045834" lon="7.8982918"><ele>295.3333333333333</ele><time>2026-05-03T16:17:06.098Z</time></trkpt><trkpt lat="44.6046096" lon="7.8985192"><ele>297.0</ele><time>2026-05-03T16:17:07.098Z</time></trkpt><trkpt lat="44.6046309" lon="7.8987645"><ele>297.6666666666667</ele><time>2026-05-03T16:17:08.097Z</time></trkpt><trkpt lat="44.6046789" lon="7.8989446"><ele>298.33333333333337</ele><time>2026-05-03T16:17:09.098Z</time></trkpt><trkpt lat="44.6047629" lon="7.8991425"><ele>299.0</ele><time>2026-05-03T16:17:10.097Z</time></trkpt><trkpt lat="44.6048548" lon="7.8993449"><ele>296.6666666666667</ele><time>2026-05-03T16:17:11.098Z</time></trkpt><trkpt lat="44.6049354" lon="7.8995469"><ele>294.3333333333333</ele><time>2026-05-03T16:17:12.097Z</time></trkpt><trkpt lat="44.6050231" lon="7.8997356"><ele>292.0</ele><time>2026-05-03T16:17:13.097Z</time></trkpt><trkpt lat="44.605126" lon="7.8999435"><ele>291.3333333333333</ele><time>2026-05-03T16:17:14.097Z</time></trkpt><trkpt lat="44.6052547" lon="7.9001412"><ele>290.6666666666667</ele><time>2026-05-03T16:17:15.097Z</time></trkpt><trkpt lat="44.6054086" lon="7.9003624"><ele>290.0</ele><time>2026-05-03T16:17:16.098Z</time></trkpt><trkpt lat="44.6055346" lon="7.9005925"><ele>294.33333333333337</ele><time>2026-05-03T16:17:17.098Z</time></trkpt><trkpt lat="44.6056565" lon="7.9008208"><ele>298.6666666666667</ele><time>2026-05-03T16:17:18.098Z</time></trkpt><trkpt lat="44.6057587" lon="7.9010926"><ele>303.0</ele><time>2026-05-03T16:17:19.098Z</time></trkpt><trkpt lat="44.6058465" lon="7.9013442"><ele>303.3333333333333</ele><time>2026-05-03T16:17:20.098Z</time></trkpt><trkpt lat="44.6059327" lon="7.9015931"><ele>303.66666666666663</ele><time>2026-05-03T16:17:21.098Z</time></trkpt><trkpt lat="44.6060033" lon="7.9018479"><ele>304.0</ele><time>2026-05-03T16:17:22.098Z</time></trkpt><trkpt lat="44.6060743" lon="7.9021168"><ele>304.3333333333333</ele><time>2026-05-03T16:17:23.098Z</time></trkpt><trkpt lat="44.6061253" lon="7.902383"><ele>304.6666666666667</ele><time>2026-05-03T16:17:24.098Z</time></trkpt><trkpt lat="44.6061756" lon="7.9026724"><ele>305.0</ele><time>2026-05-03T16:17:25.098Z</time></trkpt><trkpt lat="44.6062114" lon="7.9029533"><ele>309.0</ele><time>2026-05-03T16:17:26.098Z</time></trkpt><trkpt lat="44.606235" lon="7.9032537"><ele>313.0</ele><time>2026-05-03T16:17:27.098Z</time></trkpt><trkpt lat="44.6062616" lon="7.9035489"><ele>317.0</ele><time>2026-05-03T16:17:28.098Z</time></trkpt><trkpt lat="44.606307" lon="7.9038354"><ele>318.6666666666667</ele><time>2026-05-03T16:17:29.097Z</time></trkpt><trkpt lat="44.6063391" lon="7.9041248"><ele>320.3333333333333</ele><time>2026-05-03T16:17:30.098Z</time></trkpt><trkpt lat="44.6063761" lon="7.9044022"><ele>322.0</ele><time>2026-05-03T16:17:31.098Z</time></trkpt><trkpt lat="44.6064203" lon="7.9046849"><ele>323.0</ele><time>2026-05-03T16:17:32.098Z</time></trkpt><trkpt lat="44.6064836" lon="7.9049635"><ele>324.0</ele><time>2026-05-03T16:17:33.097Z</time></trkpt><trkpt lat="44.6065605" lon="7.9052432"><ele>325.0</ele><time>2026-05-03T16:17:34.098Z</time></trkpt><trkpt lat="44.6066493" lon="7.9055042"><ele>326.3333333333333</ele><time>2026-05-03T16:17:35.098Z</time></trkpt><trkpt lat="44.6067552" lon="7.9057626"><ele>327.6666666666667</ele><time>2026-05-03T16:17:36.097Z</time></trkpt><trkpt lat="44.6068484" lon="7.906012"><ele>329.0</ele><time>2026-05-03T16:17:37.098Z</time></trkpt><trkpt lat="44.6069618" lon="7.9062447"><ele>329.6666666666667</ele><time>2026-05-03T16:17:38.098Z</time></trkpt><trkpt lat="44.6070976" lon="7.9064891"><ele>330.3333333333333</ele><time>2026-05-03T16:17:39.098Z</time></trkpt><trkpt lat="44.6071384" lon="7.9066815"><ele>331.0</ele><time>2026-05-03T16:17:40.098Z</time></trkpt><trkpt lat="44.6072076" lon="7.9068946"><ele>333.66666666666663</ele><time>2026-05-03T16:17:41.097Z</time></trkpt><trkpt lat="44.6072904" lon="7.907105"><ele>336.3333333333333</ele><time>2026-05-03T16:17:42.098Z</time></trkpt><trkpt lat="44.6072813" lon="7.9073584"><ele>339.0</ele><time>2026-05-03T16:17:43.097Z</time></trkpt><trkpt lat="44.6072855" lon="7.9075839"><ele>339.3333333333333</ele><time>2026-05-03T16:17:44.098Z</time></trkpt><trkpt lat="44.6072435" lon="7.9078263"><ele>339.66666666666663</ele><time>2026-05-03T16:17:45.098Z</time></trkpt><trkpt lat="44.6072158" lon="7.9080626"><ele>340.0</ele><time>2026-05-03T16:17:46.098Z</time></trkpt><trkpt lat="44.6071791" lon="7.9082834"><ele>340.3333333333333</ele><time>2026-05-03T16:17:47.098Z</time></trkpt><trkpt lat="44.6071098" lon="7.9085551"><ele>340.6666666666667</ele><time>2026-05-03T16:17:48.098Z</time></trkpt><trkpt lat="44.6070091" lon="7.9088319"><ele>341.0</ele><time>2026-05-03T16:17:49.098Z</time></trkpt><trkpt lat="44.606931" lon="7.9091127"><ele>344.0</ele><time>2026-05-03T16:17:50.098Z</time></trkpt><trkpt lat="44.6068303" lon="7.9093675"><ele>347.0</ele><time>2026-05-03T16:17:51.098Z</time></trkpt><trkpt lat="44.606753" lon="7.9096209"><ele>350.0</ele><time>2026-05-03T16:17:52.097Z</time></trkpt><trkpt lat="44.6066769" lon="7.9098559"><ele>351.33333333333337</ele><time>2026-05-03T16:17:53.097Z</time></trkpt><trkpt lat="44.6066186" lon="7.9100847"><ele>352.6666666666667</ele><time>2026-05-03T16:17:54.098Z</time></trkpt><trkpt lat="44.60656" lon="7.9103143"><ele>354.0</ele><time>2026-05-03T16:17:55.098Z</time></trkpt><trkpt lat="44.6065021" lon="7.9105235"><ele>354.0</ele><time>2026-05-03T16:17:56.098Z</time></trkpt><trkpt lat="44.606467" lon="7.9107384"><ele>354.0</ele><time>2026-05-03T16:17:57.098Z</time></trkpt><trkpt lat="44.6064551" lon="7.9109626"><ele>354.0</ele><time>2026-05-03T16:17:58.098Z</time></trkpt><trkpt lat="44.6065401" lon="7.9112202"><ele>356.3333333333333</ele><time>2026-05-03T16:17:59.098Z</time></trkpt><trkpt lat="44.6066031" lon="7.9114655"><ele>358.66666666666663</ele><time>2026-05-03T16:18:00.097Z</time></trkpt><trkpt lat="44.6066699" lon="7.9117115"><ele>361.0</ele><time>2026-05-03T16:18:01.098Z</time></trkpt><trkpt lat="44.6067305" lon="7.9119634"><ele>362.66666666666663</ele><time>2026-05-03T16:18:02.098Z</time></trkpt><trkpt lat="44.6067726" lon="7.9122206"><ele>364.3333333333333</ele><time>2026-05-03T16:18:03.098Z</time></trkpt><trkpt lat="44.6067908" lon="7.9124858"><ele>366.0</ele><time>2026-05-03T16:18:04.097Z</time></trkpt><trkpt lat="44.6067853" lon="7.9127628"><ele>367.3333333333333</ele><time>2026-05-03T16:18:05.097Z</time></trkpt><trkpt lat="44.6067799" lon="7.9130368"><ele>368.66666666666663</ele><time>2026-05-03T16:18:06.098Z</time></trkpt><trkpt lat="44.6067591" lon="7.913331"><ele>370.0</ele><time>2026-05-03T16:18:07.098Z</time></trkpt><trkpt lat="44.6067283" lon="7.9136041"><ele>371.3333333333333</ele><time>2026-05-03T16:18:08.097Z</time></trkpt><trkpt lat="44.6067154" lon="7.9138691"><ele>372.6666666666667</ele><time>2026-05-03T16:18:09.097Z</time></trkpt><trkpt lat="44.6067008" lon="7.9140909"><ele>374.0</ele><time>2026-05-03T16:18:10.098Z</time></trkpt><trkpt lat="44.60669" lon="7.9143379"><ele>375.6666666666667</ele><time>2026-05-03T16:18:11.098Z</time></trkpt><trkpt lat="44.6067553" lon="7.9145651"><ele>377.3333333333333</ele><time>2026-05-03T16:18:12.097Z</time></trkpt><trkpt lat="44.6068295" lon="7.9148025"><ele>379.0</ele><time>2026-05-03T16:18:13.098Z</time></trkpt><trkpt lat="44.6069208" lon="7.9150321"><ele>379.3333333333333</ele><time>2026-05-03T16:18:14.098Z</time></trkpt><trkpt lat="44.607018" lon="7.9152472"><ele>379.6666666666667</ele><time>2026-05-03T16:18:15.098Z</time></trkpt><trkpt lat="44.6071116" lon="7.9154628"><ele>380.0</ele><time>2026-05-03T16:18:16.098Z</time></trkpt><trkpt lat="44.6072128" lon="7.9156601"><ele>380.0</ele><time>2026-05-03T16:18:17.097Z</time></trkpt><trkpt lat="44.6073544" lon="7.9158677"><ele>380.0</ele><time>2026-05-03T16:18:18.098Z</time></trkpt><trkpt lat="44.6075739" lon="7.9160299"><ele>381.0</ele><time>2026-05-03T16:18:19.097Z</time></trkpt><trkpt lat="44.6077586" lon="7.9162106"><ele>382.0</ele><time>2026-05-03T16:18:20.098Z</time></trkpt><trkpt lat="44.6079424" lon="7.9164088"><ele>382.0</ele><time>2026-05-03T16:18:21.098Z</time></trkpt><trkpt lat="44.6081237" lon="7.9166016"><ele>382.0</ele><time>2026-05-03T16:18:22.098Z</time></trkpt><trkpt lat="44.6083182" lon="7.9167828"><ele>384.0</ele><time>2026-05-03T16:18:23.098Z</time></trkpt><trkpt lat="44.6084995" lon="7.9169603"><ele>386.0</ele><time>2026-05-03T16:18:24.098Z</time></trkpt><trkpt lat="44.6086933" lon="7.9171459"><ele>386.0</ele><time>2026-05-03T16:18:25.098Z</time></trkpt><trkpt lat="44.6088738" lon="7.9173442"><ele>386.0</ele><time>2026-05-03T16:18:26.098Z</time></trkpt><trkpt lat="44.6090382" lon="7.9175349"><ele>386.0</ele><time>2026-05-03T16:18:27.098Z</time></trkpt><trkpt lat="44.6092231" lon="7.9177083"><ele>386.66666666666663</ele><time>2026-05-03T16:18:28.097Z</time></trkpt><trkpt lat="44.6093988" lon="7.9178892"><ele>387.33333333333337</ele><time>2026-05-03T16:18:29.098Z</time></trkpt><trkpt lat="44.609568" lon="7.9180731"><ele>388.0</ele><time>2026-05-03T16:18:30.098Z</time></trkpt><trkpt lat="44.6097377" lon="7.9182551"><ele>390.33333333333337</ele><time>2026-05-03T16:18:31.098Z</time></trkpt><trkpt lat="44.609914" lon="7.9184304"><ele>392.66666666666663</ele><time>2026-05-03T16:18:32.098Z</time></trkpt><trkpt lat="44.6100839" lon="7.918595"><ele>395.0</ele><time>2026-05-03T16:18:33.098Z</time></trkpt><trkpt lat="44.6102187" lon="7.9187444"><ele>393.3333333333333</ele><time>2026-05-03T16:18:34.098Z</time></trkpt><trkpt lat="44.6103713" lon="7.9188814"><ele>391.66666666666663</ele><time>2026-05-03T16:18:35.098Z</time></trkpt><trkpt lat="44.6105373" lon="7.9189868"><ele>390.0</ele><time>2026-05-03T16:18:36.098Z</time></trkpt><trkpt lat="44.6106949" lon="7.9190847"><ele>390.0</ele><time>2026-05-03T16:18:37.097Z</time></trkpt><trkpt lat="44.6108619" lon="7.9191817"><ele>390.0</ele><time>2026-05-03T16:18:38.097Z</time></trkpt><trkpt lat="44.6110085" lon="7.9192743"><ele>390.0</ele><time>2026-05-03T16:18:39.098Z</time></trkpt><trkpt lat="44.6111614" lon="7.9193669"><ele>391.0</ele><time>2026-05-03T16:18:40.098Z</time></trkpt><trkpt lat="44.611288" lon="7.9194249"><ele>392.0</ele><time>2026-05-03T16:18:41.098Z</time></trkpt><trkpt lat="44.6114129" lon="7.9194743"><ele>393.0</ele><time>2026-05-03T16:18:42.098Z</time></trkpt><trkpt lat="44.6115494" lon="7.9195246"><ele>394.0</ele><time>2026-05-03T16:18:43.098Z</time></trkpt><trkpt lat="44.6116647" lon="7.9195601"><ele>394.0</ele><time>2026-05-03T16:18:44.098Z</time></trkpt><trkpt lat="44.6117885" lon="7.91959"><ele>394.0</ele><time>2026-05-03T16:18:45.098Z</time></trkpt><trkpt lat="44.6119242" lon="7.9196187"><ele>394.0</ele><time>2026-05-03T16:18:46.098Z</time></trkpt><trkpt lat="44.6120205" lon="7.9196366"><ele>394.0</ele><time>2026-05-03T16:18:47.098Z</time></trkpt><trkpt lat="44.6121136" lon="7.9196492"><ele>393.83333333333337</ele><time>2026-05-03T16:18:48.098Z</time></trkpt><trkpt lat="44.6122174" lon="7.9196929"><ele>393.6666666666667</ele><time>2026-05-03T16:18:49.098Z</time></trkpt><trkpt lat="44.6122943" lon="7.9197123"><ele>393.5</ele><time>2026-05-03T16:18:50.098Z</time></trkpt><trkpt lat="44.6123851" lon="7.9197477"><ele>393.33333333333337</ele><time>2026-05-03T16:18:51.098Z</time></trkpt><trkpt lat="44.6124653" lon="7.9197707"><ele>393.1666666666667</ele><time>2026-05-03T16:18:52.098Z</time></trkpt><trkpt lat="44.6125379" lon="7.9197967"><ele>393.0</ele><time>2026-05-03T16:18:53.098Z</time></trkpt><trkpt lat="44.612614" lon="7.9198239"><ele>393.0</ele><time>2026-05-03T16:18:54.098Z</time></trkpt><trkpt lat="44.6126737" lon="7.9198608"><ele>393.0</ele><time>2026-05-03T16:18:56.098Z</time></trkpt><trkpt lat="44.6127487" lon="7.919886"><ele>393.0</ele><time>2026-05-03T16:18:59.098Z</time></trkpt><trkpt lat="44.6128816" lon="7.9199386"><ele>393.0</ele><time>2026-05-03T16:19:20.098Z</time></trkpt><trkpt lat="44.6129482" lon="7.919965"><ele>393.0</ele><time>2026-05-03T16:19:21.098Z</time></trkpt><trkpt lat="44.6130477" lon="7.9199943"><ele>394.25</ele><time>2026-05-03T16:19:22.097Z</time></trkpt><trkpt lat="44.6131559" lon="7.9200471"><ele>395.5</ele><time>2026-05-03T16:19:23.098Z</time></trkpt><trkpt lat="44.6132518" lon="7.9200775"><ele>396.75</ele><time>2026-05-03T16:19:24.098Z</time></trkpt><trkpt lat="44.6133509" lon="7.9201746"><ele>398.0</ele><time>2026-05-03T16:19:25.098Z</time></trkpt><trkpt lat="44.6134447" lon="7.9203259"><ele>398.5</ele><time>2026-05-03T16:19:26.098Z</time></trkpt><trkpt lat="44.6135084" lon="7.920479"><ele>399.0</ele><time>2026-05-03T16:19:27.098Z</time></trkpt><trkpt lat="44.6135826" lon="7.9206176"><ele>399.5</ele><time>2026-05-03T16:19:28.098Z</time></trkpt><trkpt lat="44.6136479" lon="7.9207552"><ele>400.0</ele><time>2026-05-03T16:19:29.098Z</time></trkpt><trkpt lat="44.6137274" lon="7.9209217"><ele>401.5</ele><time>2026-05-03T16:19:30.098Z</time></trkpt><trkpt lat="44.6138" lon="7.9210736"><ele>403.0</ele><time>2026-05-03T16:19:31.098Z</time></trkpt><trkpt lat="44.6138791" lon="7.9212429"><ele>404.5</ele><time>2026-05-03T16:19:32.097Z</time></trkpt><trkpt lat="44.6139345" lon="7.9214111"><ele>406.0</ele><time>2026-05-03T16:19:33.097Z</time></trkpt><trkpt lat="44.6139934" lon="7.9215445"><ele>406.0</ele><time>2026-05-03T16:19:34.098Z</time></trkpt><trkpt lat="44.61406" lon="7.9216767"><ele>406.0</ele><time>2026-05-03T16:19:35.098Z</time></trkpt><trkpt lat="44.614124" lon="7.9218361"><ele>406.0</ele><time>2026-05-03T16:19:36.098Z</time></trkpt><trkpt lat="44.6141922" lon="7.9220183"><ele>406.0</ele><time>2026-05-03T16:19:37.098Z</time></trkpt><trkpt lat="44.6142229" lon="7.9221618"><ele>406.5</ele><time>2026-05-03T16:19:38.098Z</time></trkpt><trkpt lat="44.6142743" lon="7.9223378"><ele>407.0</ele><time>2026-05-03T16:19:39.098Z</time></trkpt><trkpt lat="44.6143264" lon="7.9225207"><ele>407.5</ele><time>2026-05-03T16:19:40.098Z</time></trkpt><trkpt lat="44.6143711" lon="7.9226902"><ele>408.0</ele><time>2026-05-03T16:19:41.097Z</time></trkpt><trkpt lat="44.6144143" lon="7.9228762"><ele>408.5</ele><time>2026-05-03T16:19:42.098Z</time></trkpt><trkpt lat="44.6144509" lon="7.9230678"><ele>409.0</ele><time>2026-05-03T16:19:43.098Z</time></trkpt><trkpt lat="44.614502" lon="7.9232389"><ele>409.5</ele><time>2026-05-03T16:19:44.098Z</time></trkpt><trkpt lat="44.6145441" lon="7.9234023"><ele>410.0</ele><time>2026-05-03T16:19:45.098Z</time></trkpt><trkpt lat="44.6145936" lon="7.9235718"><ele>412.0</ele><time>2026-05-03T16:19:46.098Z</time></trkpt><trkpt lat="44.6146396" lon="7.923761"><ele>414.0</ele><time>2026-05-03T16:19:47.097Z</time></trkpt><trkpt lat="44.6146806" lon="7.9239193"><ele>416.0</ele><time>2026-05-03T16:19:48.098Z</time></trkpt><trkpt lat="44.6147299" lon="7.924103"><ele>418.0</ele><time>2026-05-03T16:19:49.097Z</time></trkpt><trkpt lat="44.6147908" lon="7.9242781"><ele>418.25</ele><time>2026-05-03T16:19:50.098Z</time></trkpt><trkpt lat="44.614841" lon="7.9244653"><ele>418.5</ele><time>2026-05-03T16:19:51.098Z</time></trkpt><trkpt lat="44.6149044" lon="7.9246471"><ele>418.75</ele><time>2026-05-03T16:19:52.098Z</time></trkpt><trkpt lat="44.6149548" lon="7.9248178"><ele>419.0</ele><time>2026-05-03T16:19:53.098Z</time></trkpt><trkpt lat="44.6150078" lon="7.9250193"><ele>418.5</ele><time>2026-05-03T16:19:54.098Z</time></trkpt><trkpt lat="44.6150343" lon="7.92522"><ele>418.0</ele><time>2026-05-03T16:19:55.097Z</time></trkpt><trkpt lat="44.6150714" lon="7.9254142"><ele>417.5</ele><time>2026-05-03T16:19:56.097Z</time></trkpt><trkpt lat="44.6151097" lon="7.9256029"><ele>417.0</ele><time>2026-05-03T16:19:57.098Z</time></trkpt><trkpt lat="44.6151425" lon="7.9257976"><ele>417.75</ele><time>2026-05-03T16:19:58.097Z</time></trkpt><trkpt lat="44.6151845" lon="7.9259987"><ele>418.5</ele><time>2026-05-03T16:19:59.098Z</time></trkpt><trkpt lat="44.6152234" lon="7.9262055"><ele>419.25</ele><time>2026-05-03T16:20:00.098Z</time></trkpt><trkpt lat="44.615251" lon="7.9263934"><ele>420.0</ele><time>2026-05-03T16:20:01.097Z</time></trkpt><trkpt lat="44.6152879" lon="7.9265896"><ele>422.75</ele><time>2026-05-03T16:20:02.098Z</time></trkpt><trkpt lat="44.6153256" lon="7.9267898"><ele>425.5</ele><time>2026-05-03T16:20:03.098Z</time></trkpt><trkpt lat="44.6153547" lon="7.9269663"><ele>428.25</ele><time>2026-05-03T16:20:04.098Z</time></trkpt><trkpt lat="44.6153815" lon="7.9270978"><ele>431.0</ele><time>2026-05-03T16:20:05.098Z</time></trkpt><trkpt lat="44.6154068" lon="7.9272556"><ele>431.0</ele><time>2026-05-03T16:20:06.097Z</time></trkpt><trkpt lat="44.6154277" lon="7.9274196"><ele>431.0</ele><time>2026-05-03T16:20:07.098Z</time></trkpt><trkpt lat="44.6154246" lon="7.9275528"><ele>431.0</ele><time>2026-05-03T16:20:08.098Z</time></trkpt><trkpt lat="44.6154159" lon="7.9276428"><ele>431.0</ele><time>2026-05-03T16:20:09.098Z</time></trkpt><trkpt lat="44.6154323" lon="7.9277428"><ele>431.0</ele><time>2026-05-03T16:20:10.098Z</time></trkpt><trkpt lat="44.6155216" lon="7.9278774"><ele>430.0</ele><time>2026-05-03T16:20:12.098Z</time></trkpt><trkpt lat="44.6155834" lon="7.9279546"><ele>429.0</ele><time>2026-05-03T16:20:13.098Z</time></trkpt><trkpt lat="44.6156299" lon="7.928047"><ele>428.0</ele><time>2026-05-03T16:20:14.098Z</time></trkpt><trkpt lat="44.6156813" lon="7.9281525"><ele>427.0</ele><time>2026-05-03T16:20:15.098Z</time></trkpt><trkpt lat="44.615769" lon="7.9282656"><ele>426.0</ele><time>2026-05-03T16:20:16.098Z</time></trkpt><trkpt lat="44.6158715" lon="7.9283797"><ele>424.5</ele><time>2026-05-03T16:20:17.098Z</time></trkpt><trkpt lat="44.6159883" lon="7.9284674"><ele>423.0</ele><time>2026-05-03T16:20:18.098Z</time></trkpt><trkpt lat="44.6160932" lon="7.9285325"><ele>421.5</ele><time>2026-05-03T16:20:19.097Z</time></trkpt><trkpt lat="44.6162656" lon="7.9285467"><ele>420.0</ele><time>2026-05-03T16:20:20.098Z</time></trkpt><trkpt lat="44.6165011" lon="7.9285537"><ele>420.0</ele><time>2026-05-03T16:20:21.097Z</time></trkpt><trkpt lat="44.6166836" lon="7.9285786"><ele>420.0</ele><time>2026-05-03T16:20:22.098Z</time></trkpt><trkpt lat="44.6168838" lon="7.9286122"><ele>420.0</ele><time>2026-05-03T16:20:23.097Z</time></trkpt><trkpt lat="44.6170667" lon="7.9286668"><ele>421.33333333333337</ele><time>2026-05-03T16:20:24.098Z</time></trkpt><trkpt lat="44.6172655" lon="7.9286981"><ele>422.6666666666667</ele><time>2026-05-03T16:20:25.098Z</time></trkpt><trkpt lat="44.6174557" lon="7.928739"><ele>424.0</ele><time>2026-05-03T16:20:26.098Z</time></trkpt><trkpt lat="44.6176417" lon="7.9287907"><ele>424.0</ele><time>2026-05-03T16:20:27.097Z</time></trkpt><trkpt lat="44.617818" lon="7.9288369"><ele>424.0</ele><time>2026-05-03T16:20:28.097Z</time></trkpt><trkpt lat="44.6179945" lon="7.9288488"><ele>424.0</ele><time>2026-05-03T16:20:29.098Z</time></trkpt><trkpt lat="44.618122" lon="7.9288545"><ele>423.33333333333337</ele><time>2026-05-03T16:20:30.098Z</time></trkpt><trkpt lat="44.6182894" lon="7.9288113"><ele>422.66666666666663</ele><time>2026-05-03T16:20:31.098Z</time></trkpt><trkpt lat="44.6184633" lon="7.9287117"><ele>422.0</ele><time>2026-05-03T16:20:32.098Z</time></trkpt><trkpt lat="44.6186481" lon="7.9285768"><ele>419.3333333333333</ele><time>2026-05-03T16:20:33.098Z</time></trkpt><trkpt lat="44.6188343" lon="7.9284902"><ele>416.66666666666663</ele><time>2026-05-03T16:20:34.098Z</time></trkpt><trkpt lat="44.6190112" lon="7.9283925"><ele>414.0</ele><time>2026-05-03T16:20:35.098Z</time></trkpt><trkpt lat="44.6192022" lon="7.9283106"><ele>417.66666666666663</ele><time>2026-05-03T16:20:36.098Z</time></trkpt><trkpt lat="44.6193855" lon="7.9282367"><ele>421.3333333333333</ele><time>2026-05-03T16:20:37.098Z</time></trkpt><trkpt lat="44.6195946" lon="7.9281878"><ele>425.0</ele><time>2026-05-03T16:20:38.098Z</time></trkpt><trkpt lat="44.619801" lon="7.9281543"><ele>425.0</ele><time>2026-05-03T16:20:39.098Z</time></trkpt><trkpt lat="44.6200092" lon="7.9281297"><ele>425.0</ele><time>2026-05-03T16:20:40.097Z</time></trkpt><trkpt lat="44.6202291" lon="7.9281026"><ele>425.0</ele><time>2026-05-03T16:20:41.098Z</time></trkpt><trkpt lat="44.6204419" lon="7.9280992"><ele>425.0</ele><time>2026-05-03T16:20:42.098Z</time></trkpt><trkpt lat="44.6206376" lon="7.9280962"><ele>425.0</ele><time>2026-05-03T16:20:43.098Z</time></trkpt><trkpt lat="44.6208377" lon="7.9281102"><ele>425.0</ele><time>2026-05-03T16:20:44.098Z</time></trkpt><trkpt lat="44.6210484" lon="7.9281261"><ele>425.66666666666663</ele><time>2026-05-03T16:20:45.097Z</time></trkpt><trkpt lat="44.6212525" lon="7.9281519"><ele>426.33333333333337</ele><time>2026-05-03T16:20:46.098Z</time></trkpt><trkpt lat="44.6214723" lon="7.9281676"><ele>427.0</ele><time>2026-05-03T16:20:47.098Z</time></trkpt><trkpt lat="44.621681" lon="7.9282168"><ele>427.0</ele><time>2026-05-03T16:20:48.098Z</time></trkpt><trkpt lat="44.6219019" lon="7.9282579"><ele>427.0</ele><time>2026-05-03T16:20:49.098Z</time></trkpt><trkpt lat="44.6221192" lon="7.9283056"><ele>427.0</ele><time>2026-05-03T16:20:50.098Z</time></trkpt><trkpt lat="44.6223296" lon="7.9283815"><ele>423.0</ele><time>2026-05-03T16:20:51.097Z</time></trkpt><trkpt lat="44.6225435" lon="7.9284767"><ele>419.0</ele><time>2026-05-03T16:20:52.097Z</time></trkpt><trkpt lat="44.6227584" lon="7.9285732"><ele>423.0</ele><time>2026-05-03T16:20:53.098Z</time></trkpt><trkpt lat="44.6229684" lon="7.9286734"><ele>427.0</ele><time>2026-05-03T16:20:54.098Z</time></trkpt><trkpt lat="44.6231927" lon="7.9287704"><ele>427.0</ele><time>2026-05-03T16:20:55.097Z</time></trkpt><trkpt lat="44.6234207" lon="7.9288588"><ele>427.0</ele><time>2026-05-03T16:20:56.097Z</time></trkpt><trkpt lat="44.6236387" lon="7.9289493"><ele>432.5</ele><time>2026-05-03T16:20:57.098Z</time></trkpt><trkpt lat="44.6238522" lon="7.9290446"><ele>438.0</ele><time>2026-05-03T16:20:58.098Z</time></trkpt><trkpt lat="44.6240695" lon="7.9291296"><ele>438.0</ele><time>2026-05-03T16:20:59.097Z</time></trkpt><trkpt lat="44.6242717" lon="7.929219"><ele>438.0</ele><time>2026-05-03T16:21:00.098Z</time></trkpt><trkpt lat="44.6244666" lon="7.9293269"><ele>438.0</ele><time>2026-05-03T16:21:01.098Z</time></trkpt><trkpt lat="44.6246484" lon="7.9294739"><ele>436.0</ele><time>2026-05-03T16:21:02.097Z</time></trkpt><trkpt lat="44.624831" lon="7.9296523"><ele>434.0</ele><time>2026-05-03T16:21:03.098Z</time></trkpt><trkpt lat="44.6250005" lon="7.9298405"><ele>432.0</ele><time>2026-05-03T16:21:04.098Z</time></trkpt><trkpt lat="44.6251694" lon="7.9300217"><ele>431.66666666666663</ele><time>2026-05-03T16:21:05.098Z</time></trkpt><trkpt lat="44.6253522" lon="7.9301979"><ele>431.3333333333333</ele><time>2026-05-03T16:21:06.098Z</time></trkpt><trkpt lat="44.6255497" lon="7.9303509"><ele>431.0</ele><time>2026-05-03T16:21:07.098Z</time></trkpt><trkpt lat="44.6257657" lon="7.9305055"><ele>431.0</ele><time>2026-05-03T16:21:08.098Z</time></trkpt><trkpt lat="44.6259921" lon="7.9306572"><ele>431.0</ele><time>2026-05-03T16:21:09.098Z</time></trkpt><trkpt lat="44.6262262" lon="7.9308143"><ele>432.5</ele><time>2026-05-03T16:21:10.098Z</time></trkpt><trkpt lat="44.6264603" lon="7.9309704"><ele>434.0</ele><time>2026-05-03T16:21:11.098Z</time></trkpt><trkpt lat="44.6266814" lon="7.9311282"><ele>434.0</ele><time>2026-05-03T16:21:12.098Z</time></trkpt><trkpt lat="44.6268838" lon="7.9312716"><ele>434.0</ele><time>2026-05-03T16:21:13.098Z</time></trkpt><trkpt lat="44.627071" lon="7.9314139"><ele>434.0</ele><time>2026-05-03T16:21:14.098Z</time></trkpt><trkpt lat="44.6272526" lon="7.9315387"><ele>435.66666666666663</ele><time>2026-05-03T16:21:15.097Z</time></trkpt><trkpt lat="44.6274129" lon="7.9316564"><ele>437.33333333333337</ele><time>2026-05-03T16:21:16.098Z</time></trkpt><trkpt lat="44.627556" lon="7.9317942"><ele>439.0</ele><time>2026-05-03T16:21:17.097Z</time></trkpt><trkpt lat="44.6277099" lon="7.9319408"><ele>439.0</ele><time>2026-05-03T16:21:18.098Z</time></trkpt><trkpt lat="44.6278001" lon="7.9321436"><ele>439.0</ele><time>2026-05-03T16:21:19.098Z</time></trkpt><trkpt lat="44.6278816" lon="7.9323614"><ele>439.0</ele><time>2026-05-03T16:21:20.098Z</time></trkpt><trkpt lat="44.6279416" lon="7.9325883"><ele>442.6666666666667</ele><time>2026-05-03T16:21:21.098Z</time></trkpt><trkpt lat="44.6280023" lon="7.9328622"><ele>446.33333333333337</ele><time>2026-05-03T16:21:22.098Z</time></trkpt><trkpt lat="44.6280667" lon="7.9331252"><ele>450.0</ele><time>2026-05-03T16:21:23.098Z</time></trkpt><trkpt lat="44.6281124" lon="7.9333972"><ele>450.0</ele><time>2026-05-03T16:21:24.097Z</time></trkpt><trkpt lat="44.6281612" lon="7.9336792"><ele>450.0</ele><time>2026-05-03T16:21:25.097Z</time></trkpt><trkpt lat="44.6282229" lon="7.9339023"><ele>450.0</ele><time>2026-05-03T16:21:26.097Z</time></trkpt><trkpt lat="44.6282759" lon="7.9341132"><ele>447.0</ele><time>2026-05-03T16:21:27.097Z</time></trkpt><trkpt lat="44.6283281" lon="7.9342863"><ele>444.0</ele><time>2026-05-03T16:21:28.098Z</time></trkpt><trkpt lat="44.6284023" lon="7.9344331"><ele>441.0</ele><time>2026-05-03T16:21:29.098Z</time></trkpt><trkpt lat="44.6284637" lon="7.9345672"><ele>438.0</ele><time>2026-05-03T16:21:30.098Z</time></trkpt><trkpt lat="44.6285375" lon="7.9346866"><ele>438.0</ele><time>2026-05-03T16:21:31.098Z</time></trkpt><trkpt lat="44.6286311" lon="7.9347596"><ele>438.0</ele><time>2026-05-03T16:21:32.098Z</time></trkpt><trkpt lat="44.6287608" lon="7.9348063"><ele>438.0</ele><time>2026-05-03T16:21:33.098Z</time></trkpt><trkpt lat="44.628901" lon="7.9348234"><ele>438.0</ele><time>2026-05-03T16:21:34.098Z</time></trkpt><trkpt lat="44.6290538" lon="7.9347755"><ele>440.0</ele><time>2026-05-03T16:21:35.098Z</time></trkpt><trkpt lat="44.6291961" lon="7.9346684"><ele>442.0</ele><time>2026-05-03T16:21:36.097Z</time></trkpt><trkpt lat="44.6293116" lon="7.9343674"><ele>444.0</ele><time>2026-05-03T16:21:37.098Z</time></trkpt><trkpt lat="44.6294425" lon="7.9341315"><ele>442.66666666666663</ele><time>2026-05-03T16:21:38.098Z</time></trkpt><trkpt lat="44.6295661" lon="7.9339269"><ele>441.3333333333333</ele><time>2026-05-03T16:21:39.098Z</time></trkpt><trkpt lat="44.629708" lon="7.9337714"><ele>440.0</ele><time>2026-05-03T16:21:40.098Z</time></trkpt><trkpt lat="44.6298344" lon="7.9336562"><ele>440.0</ele><time>2026-05-03T16:21:41.098Z</time></trkpt><trkpt lat="44.6300012" lon="7.9335138"><ele>440.0</ele><time>2026-05-03T16:21:42.098Z</time></trkpt><trkpt lat="44.6301641" lon="7.9334244"><ele>440.0</ele><time>2026-05-03T16:21:43.098Z</time></trkpt><trkpt lat="44.630365" lon="7.9333036"><ele>444.0</ele><time>2026-05-03T16:21:44.098Z</time></trkpt><trkpt lat="44.6305338" lon="7.9332242"><ele>448.0</ele><time>2026-05-03T16:21:45.098Z</time></trkpt><trkpt lat="44.6307078" lon="7.9331502"><ele>452.0</ele><time>2026-05-03T16:21:46.097Z</time></trkpt><trkpt lat="44.6308913" lon="7.9330832"><ele>452.0</ele><time>2026-05-03T16:21:47.098Z</time></trkpt><trkpt lat="44.6310625" lon="7.9330165"><ele>452.0</ele><time>2026-05-03T16:21:48.098Z</time></trkpt><trkpt lat="44.6312426" lon="7.9329439"><ele>452.0</ele><time>2026-05-03T16:21:49.097Z</time></trkpt><trkpt lat="44.6314129" lon="7.9328641"><ele>451.0</ele><time>2026-05-03T16:21:50.097Z</time></trkpt><trkpt lat="44.6315986" lon="7.9327862"><ele>450.0</ele><time>2026-05-03T16:21:51.098Z</time></trkpt><trkpt lat="44.631779" lon="7.932733"><ele>449.0</ele><time>2026-05-03T16:21:52.097Z</time></trkpt><trkpt lat="44.6319589" lon="7.932672"><ele>447.66666666666663</ele><time>2026-05-03T16:21:53.098Z</time></trkpt><trkpt lat="44.632141" lon="7.9326002"><ele>446.33333333333337</ele><time>2026-05-03T16:21:54.097Z</time></trkpt><trkpt lat="44.6323164" lon="7.9325206"><ele>445.0</ele><time>2026-05-03T16:21:55.098Z</time></trkpt><trkpt lat="44.6324701" lon="7.9324632"><ele>449.0</ele><time>2026-05-03T16:21:56.098Z</time></trkpt><trkpt lat="44.6326017" lon="7.9324705"><ele>453.0</ele><time>2026-05-03T16:21:57.098Z</time></trkpt><trkpt lat="44.6327366" lon="7.9324519"><ele>457.0</ele><time>2026-05-03T16:21:58.098Z</time></trkpt><trkpt lat="44.6328802" lon="7.9324169"><ele>461.0</ele><time>2026-05-03T16:21:59.098Z</time></trkpt><trkpt lat="44.6329924" lon="7.9323798"><ele>461.0</ele><time>2026-05-03T16:22:00.097Z</time></trkpt><trkpt lat="44.6331173" lon="7.9323394"><ele>461.0</ele><time>2026-05-03T16:22:01.097Z</time></trkpt><trkpt lat="44.6332481" lon="7.9322825"><ele>461.0</ele><time>2026-05-03T16:22:02.098Z</time></trkpt><trkpt lat="44.6333598" lon="7.9322137"><ele>461.0</ele><time>2026-05-03T16:22:03.097Z</time></trkpt><trkpt lat="44.6334712" lon="7.9321444"><ele>461.0</ele><time>2026-05-03T16:22:04.098Z</time></trkpt><trkpt lat="44.6335924" lon="7.9320885"><ele>461.0</ele><time>2026-05-03T16:22:05.097Z</time></trkpt><trkpt lat="44.6337304" lon="7.9320178"><ele>461.0</ele><time>2026-05-03T16:22:06.097Z</time></trkpt><trkpt lat="44.6338726" lon="7.9319738"><ele>461.0</ele><time>2026-05-03T16:22:07.097Z</time></trkpt><trkpt lat="44.6340094" lon="7.9319119"><ele>461.0</ele><time>2026-05-03T16:22:08.098Z</time></trkpt><trkpt lat="44.6341468" lon="7.9318745"><ele>461.0</ele><time>2026-05-03T16:22:09.098Z</time></trkpt><trkpt lat="44.6342874" lon="7.9318278"><ele>461.0</ele><time>2026-05-03T16:22:10.098Z</time></trkpt><trkpt lat="44.6344158" lon="7.9318161"><ele>461.0</ele><time>2026-05-03T16:22:11.097Z</time></trkpt><trkpt lat="44.6345543" lon="7.9317881"><ele>461.0</ele><time>2026-05-03T16:22:12.098Z</time></trkpt><trkpt lat="44.6346781" lon="7.9317517"><ele>461.0</ele><time>2026-05-03T16:22:13.098Z</time></trkpt><trkpt lat="44.6347957" lon="7.9316919"><ele>461.0</ele><time>2026-05-03T16:22:14.098Z</time></trkpt><trkpt lat="44.6349034" lon="7.9316135"><ele>461.0</ele><time>2026-05-03T16:22:15.098Z</time></trkpt><trkpt lat="44.6350009" lon="7.931536"><ele>462.6</ele><time>2026-05-03T16:22:16.098Z</time></trkpt><trkpt lat="44.6350987" lon="7.9314491"><ele>464.20000000000005</ele><time>2026-05-03T16:22:17.098Z</time></trkpt><trkpt lat="44.6351904" lon="7.9313746"><ele>465.79999999999995</ele><time>2026-05-03T16:22:18.098Z</time></trkpt><trkpt lat="44.6352818" lon="7.9313303"><ele>467.4</ele><time>2026-05-03T16:22:19.098Z</time></trkpt><trkpt lat="44.6353456" lon="7.9313418"><ele>469.0</ele><time>2026-05-03T16:22:20.098Z</time></trkpt><trkpt lat="44.6354558" lon="7.9313949"><ele>469.79999999999995</ele><time>2026-05-03T16:22:21.098Z</time></trkpt><trkpt lat="44.6355525" lon="7.931455"><ele>470.59999999999997</ele><time>2026-05-03T16:22:22.098Z</time></trkpt><trkpt lat="44.6356467" lon="7.9315189"><ele>471.4</ele><time>2026-05-03T16:22:23.098Z</time></trkpt><trkpt lat="44.6357397" lon="7.931604"><ele>472.2</ele><time>2026-05-03T16:22:24.098Z</time></trkpt><trkpt lat="44.635847" lon="7.9316365"><ele>473.0</ele><time>2026-05-03T16:22:25.098Z</time></trkpt><trkpt lat="44.6359635" lon="7.9316493"><ele>473.0</ele><time>2026-05-03T16:22:26.098Z</time></trkpt><trkpt lat="44.6360586" lon="7.9316735"><ele>472.99999999999994</ele><time>2026-05-03T16:22:27.098Z</time></trkpt><trkpt lat="44.6361649" lon="7.9316869"><ele>472.99999999999994</ele><time>2026-05-03T16:22:28.098Z</time></trkpt><trkpt lat="44.6362758" lon="7.9317258"><ele>473.0</ele><time>2026-05-03T16:22:29.098Z</time></trkpt><trkpt lat="44.6363795" lon="7.931788"><ele>473.0</ele><time>2026-05-03T16:22:30.098Z</time></trkpt><trkpt lat="44.6364911" lon="7.9318238"><ele>476.0</ele><time>2026-05-03T16:22:31.098Z</time></trkpt><trkpt lat="44.6365896" lon="7.9318813"><ele>478.99999999999994</ele><time>2026-05-03T16:22:32.098Z</time></trkpt><trkpt lat="44.6366882" lon="7.9319421"><ele>481.99999999999994</ele><time>2026-05-03T16:22:33.098Z</time></trkpt><trkpt lat="44.6367811" lon="7.9319752"><ele>485.0</ele><time>2026-05-03T16:22:34.098Z</time></trkpt><trkpt lat="44.6368841" lon="7.9319181"><ele>488.0</ele><time>2026-05-03T16:22:35.098Z</time></trkpt><trkpt lat="44.6369937" lon="7.9318515"><ele>490.2</ele><time>2026-05-03T16:22:36.098Z</time></trkpt><trkpt lat="44.6371085" lon="7.9318204"><ele>492.4</ele><time>2026-05-03T16:22:37.098Z</time></trkpt><trkpt lat="44.6372085" lon="7.9318045"><ele>494.59999999999997</ele><time>2026-05-03T16:22:38.098Z</time></trkpt><trkpt lat="44.6373233" lon="7.9318101"><ele>496.79999999999995</ele><time>2026-05-03T16:22:39.098Z</time></trkpt><trkpt lat="44.6374112" lon="7.9318299"><ele>499.0</ele><time>2026-05-03T16:22:40.097Z</time></trkpt><trkpt lat="44.6375243" lon="7.9318702"><ele>499.00000000000006</ele><time>2026-05-03T16:22:41.098Z</time></trkpt><trkpt lat="44.6376133" lon="7.931915"><ele>499.0</ele><time>2026-05-03T16:22:42.098Z</time></trkpt><trkpt lat="44.6376925" lon="7.9319709"><ele>499.0</ele><time>2026-05-03T16:22:43.098Z</time></trkpt><trkpt lat="44.6377521" lon="7.932024"><ele>499.0</ele><time>2026-05-03T16:22:44.097Z</time></trkpt><trkpt lat="44.6378106" lon="7.9320781"><ele>499.00000000000006</ele><time>2026-05-03T16:22:45.098Z</time></trkpt><trkpt lat="44.6378739" lon="7.9321569"><ele>499.0</ele><time>2026-05-03T16:22:46.098Z</time></trkpt><trkpt lat="44.6379172" lon="7.9322748"><ele>499.2</ele><time>2026-05-03T16:22:47.098Z</time></trkpt><trkpt lat="44.6379679" lon="7.932388"><ele>499.4</ele><time>2026-05-03T16:22:48.098Z</time></trkpt><trkpt lat="44.6380112" lon="7.9325094"><ele>499.6</ele><time>2026-05-03T16:22:49.098Z</time></trkpt><trkpt lat="44.6380607" lon="7.9326359"><ele>499.8</ele><time>2026-05-03T16:22:50.098Z</time></trkpt><trkpt lat="44.6381245" lon="7.932746"><ele>500.0</ele><time>2026-05-03T16:22:51.098Z</time></trkpt><trkpt lat="44.6381797" lon="7.9328305"><ele>500.0</ele><time>2026-05-03T16:22:52.097Z</time></trkpt><trkpt lat="44.6382554" lon="7.9329675"><ele>500.0</ele><time>2026-05-03T16:22:53.098Z</time></trkpt><trkpt lat="44.6383206" lon="7.9330924"><ele>500.0</ele><time>2026-05-03T16:22:54.098Z</time></trkpt><trkpt lat="44.6384113" lon="7.9331674"><ele>500.0</ele><time>2026-05-03T16:22:55.098Z</time></trkpt><trkpt lat="44.6384732" lon="7.9332671"><ele>500.0</ele><time>2026-05-03T16:22:56.098Z</time></trkpt><trkpt lat="44.6385323" lon="7.933386"><ele>499.99999999999994</ele><time>2026-05-03T16:22:57.098Z</time></trkpt><trkpt lat="44.6386003" lon="7.933506"><ele>500.0</ele><time>2026-05-03T16:22:58.098Z</time></trkpt><trkpt lat="44.6386643" lon="7.9336032"><ele>500.0</ele><time>2026-05-03T16:22:59.098Z</time></trkpt><trkpt lat="44.6387142" lon="7.9336904"><ele>500.0</ele><time>2026-05-03T16:23:00.097Z</time></trkpt><trkpt lat="44.6387657" lon="7.9337881"><ele>499.99999999999994</ele><time>2026-05-03T16:23:01.097Z</time></trkpt><trkpt lat="44.6388141" lon="7.9338751"><ele>500.0</ele><time>2026-05-03T16:23:02.097Z</time></trkpt><trkpt lat="44.6389157" lon="7.9338842"><ele>500.0</ele><time>2026-05-03T16:23:04.098Z</time></trkpt><trkpt lat="44.6390226" lon="7.9337908"><ele>500.0</ele><time>2026-05-03T16:23:06.098Z</time></trkpt><trkpt lat="44.6390999" lon="7.9336983"><ele>500.0</ele><time>2026-05-03T16:23:07.098Z</time></trkpt><trkpt lat="44.6391634" lon="7.9336362"><ele>500.0</ele><time>2026-05-03T16:23:08.098Z</time></trkpt><trkpt lat="44.6392562" lon="7.9335586"><ele>500.0</ele><time>2026-05-03T16:23:09.098Z</time></trkpt><trkpt lat="44.639349" lon="7.9335005"><ele>500.0</ele><time>2026-05-03T16:23:10.098Z</time></trkpt><trkpt lat="44.6394421" lon="7.9334037"><ele>500.0</ele><time>2026-05-03T16:23:11.098Z</time></trkpt><trkpt lat="44.6395429" lon="7.9333241"><ele>500.0</ele><time>2026-05-03T16:23:12.098Z</time></trkpt><trkpt lat="44.6396052" lon="7.9332067"><ele>500.0</ele><time>2026-05-03T16:23:13.098Z</time></trkpt><trkpt lat="44.6396805" lon="7.933106"><ele>500.0</ele><time>2026-05-03T16:23:14.098Z</time></trkpt><trkpt lat="44.6397574" lon="7.9330119"><ele>499.6</ele><time>2026-05-03T16:23:15.098Z</time></trkpt><trkpt lat="44.6398352" lon="7.9329249"><ele>499.2</ele><time>2026-05-03T16:23:16.098Z</time></trkpt><trkpt lat="44.6399179" lon="7.932815"><ele>498.79999999999995</ele><time>2026-05-03T16:23:17.098Z</time></trkpt><trkpt lat="44.6399953" lon="7.9327361"><ele>498.4</ele><time>2026-05-03T16:23:18.098Z</time></trkpt><trkpt lat="44.6400692" lon="7.9326304"><ele>498.0</ele><time>2026-05-03T16:23:19.098Z</time></trkpt><trkpt lat="44.6401541" lon="7.9325508"><ele>497.59999999999997</ele><time>2026-05-03T16:23:20.098Z</time></trkpt><trkpt lat="44.6402343" lon="7.9324772"><ele>497.19999999999993</ele><time>2026-05-03T16:23:21.098Z</time></trkpt><trkpt lat="44.6403167" lon="7.932409"><ele>496.8</ele><time>2026-05-03T16:23:22.098Z</time></trkpt><trkpt lat="44.6404211" lon="7.9323403"><ele>496.4</ele><time>2026-05-03T16:23:23.097Z</time></trkpt><trkpt lat="44.6405038" lon="7.9322827"><ele>496.0</ele><time>2026-05-03T16:23:24.098Z</time></trkpt><trkpt lat="44.6406107" lon="7.9322126"><ele>496.0</ele><time>2026-05-03T16:23:25.097Z</time></trkpt><trkpt lat="44.6406983" lon="7.9321383"><ele>496.0</ele><time>2026-05-03T16:23:26.098Z</time></trkpt><trkpt lat="44.6407637" lon="7.9320723"><ele>496.0</ele><time>2026-05-03T16:23:27.098Z</time></trkpt><trkpt lat="44.640837" lon="7.9319712"><ele>496.0</ele><time>2026-05-03T16:23:28.098Z</time></trkpt><trkpt lat="44.6408965" lon="7.9318892"><ele>496.0</ele><time>2026-05-03T16:23:29.098Z</time></trkpt><trkpt lat="44.6409565" lon="7.9318012"><ele>496.20000000000005</ele><time>2026-05-03T16:23:30.097Z</time></trkpt><trkpt lat="44.6410177" lon="7.9316727"><ele>496.40000000000003</ele><time>2026-05-03T16:23:31.098Z</time></trkpt><trkpt lat="44.6410732" lon="7.9315489"><ele>496.6</ele><time>2026-05-03T16:23:32.098Z</time></trkpt><trkpt lat="44.6411146" lon="7.9314087"><ele>496.8</ele><time>2026-05-03T16:23:33.098Z</time></trkpt><trkpt lat="44.6411707" lon="7.9312823"><ele>497.0</ele><time>2026-05-03T16:23:34.098Z</time></trkpt><trkpt lat="44.6412172" lon="7.9311496"><ele>497.0</ele><time>2026-05-03T16:23:35.097Z</time></trkpt><trkpt lat="44.6412443" lon="7.9310265"><ele>497.00000000000006</ele><time>2026-05-03T16:23:36.098Z</time></trkpt><trkpt lat="44.641274" lon="7.9308926"><ele>497.00000000000006</ele><time>2026-05-03T16:23:37.098Z</time></trkpt><trkpt lat="44.6413396" lon="7.9307904"><ele>497.0</ele><time>2026-05-03T16:23:38.098Z</time></trkpt><trkpt lat="44.6413854" lon="7.9306929"><ele>497.0</ele><time>2026-05-03T16:23:39.098Z</time></trkpt><trkpt lat="44.6414494" lon="7.9305855"><ele>495.40000000000003</ele><time>2026-05-03T16:23:40.098Z</time></trkpt><trkpt lat="44.6414984" lon="7.9304998"><ele>493.80000000000007</ele><time>2026-05-03T16:23:41.098Z</time></trkpt><trkpt lat="44.641579" lon="7.9304191"><ele>492.2</ele><time>2026-05-03T16:23:42.098Z</time></trkpt><trkpt lat="44.6416624" lon="7.9303354"><ele>490.6</ele><time>2026-05-03T16:23:43.098Z</time></trkpt><trkpt lat="44.6417373" lon="7.9302525"><ele>489.0</ele><time>2026-05-03T16:23:44.097Z</time></trkpt><trkpt lat="44.6418378" lon="7.9301733"><ele>489.0</ele><time>2026-05-03T16:23:45.098Z</time></trkpt><trkpt lat="44.6419286" lon="7.9301027"><ele>489.0</ele><time>2026-05-03T16:23:46.098Z</time></trkpt><trkpt lat="44.642006" lon="7.9300973"><ele>489.0</ele><time>2026-05-03T16:23:47.098Z</time></trkpt><trkpt lat="44.6420988" lon="7.9300735"><ele>489.0</ele><time>2026-05-03T16:23:48.097Z</time></trkpt><trkpt lat="44.6421922" lon="7.9300465"><ele>489.0</ele><time>2026-05-03T16:23:49.097Z</time></trkpt><trkpt lat="44.6423032" lon="7.9300165"><ele>487.5</ele><time>2026-05-03T16:23:50.098Z</time></trkpt><trkpt lat="44.6424198" lon="7.9300194"><ele>486.0</ele><time>2026-05-03T16:23:51.098Z</time></trkpt><trkpt lat="44.642544" lon="7.9300373"><ele>484.5</ele><time>2026-05-03T16:23:52.098Z</time></trkpt><trkpt lat="44.6426647" lon="7.9300471"><ele>483.0</ele><time>2026-05-03T16:23:53.098Z</time></trkpt><trkpt lat="44.6427899" lon="7.9300536"><ele>483.2</ele><time>2026-05-03T16:23:54.097Z</time></trkpt><trkpt lat="44.6429099" lon="7.9300454"><ele>483.4</ele><time>2026-05-03T16:23:55.098Z</time></trkpt><trkpt lat="44.6430128" lon="7.9300432"><ele>483.59999999999997</ele><time>2026-05-03T16:23:56.098Z</time></trkpt><trkpt lat="44.6431149" lon="7.9300536"><ele>483.79999999999995</ele><time>2026-05-03T16:23:57.097Z</time></trkpt><trkpt lat="44.643204" lon="7.9300613"><ele>484.0</ele><time>2026-05-03T16:23:58.097Z</time></trkpt><trkpt lat="44.6433353" lon="7.9300678"><ele>484.0</ele><time>2026-05-03T16:23:59.097Z</time></trkpt><trkpt lat="44.6434463" lon="7.9300736"><ele>484.0</ele><time>2026-05-03T16:24:00.098Z</time></trkpt><trkpt lat="44.6435498" lon="7.9300927"><ele>484.0</ele><time>2026-05-03T16:24:01.098Z</time></trkpt><trkpt lat="44.6436495" lon="7.9300946"><ele>484.0</ele><time>2026-05-03T16:24:02.097Z</time></trkpt><trkpt lat="44.6437481" lon="7.9301007"><ele>484.0</ele><time>2026-05-03T16:24:03.098Z</time></trkpt><trkpt lat="44.6438506" lon="7.9301001"><ele>483.6666666666667</ele><time>2026-05-03T16:24:04.098Z</time></trkpt><trkpt lat="44.6439133" lon="7.9301234"><ele>483.33333333333337</ele><time>2026-05-03T16:24:05.098Z</time></trkpt><trkpt lat="44.6439838" lon="7.9301512"><ele>483.0</ele><time>2026-05-03T16:24:06.098Z</time></trkpt><trkpt lat="44.6440948" lon="7.9302737"><ele>482.66666666666663</ele><time>2026-05-03T16:24:08.098Z</time></trkpt><trkpt lat="44.6441777" lon="7.9302972"><ele>482.3333333333333</ele><time>2026-05-03T16:24:10.098Z</time></trkpt><trkpt lat="44.6442497" lon="7.9303274"><ele>482.0</ele><time>2026-05-03T16:24:11.098Z</time></trkpt><trkpt lat="44.6443279" lon="7.9302651"><ele>482.0</ele><time>2026-05-03T16:24:13.098Z</time></trkpt><trkpt lat="44.6443899" lon="7.9301695"><ele>482.0</ele><time>2026-05-03T16:24:14.097Z</time></trkpt><trkpt lat="44.6444815" lon="7.9299423"><ele>482.0</ele><time>2026-05-03T16:24:15.098Z</time></trkpt><trkpt lat="44.6445614" lon="7.9298438"><ele>482.0</ele><time>2026-05-03T16:24:16.098Z</time></trkpt><trkpt lat="44.644661" lon="7.9296966"><ele>478.75</ele><time>2026-05-03T16:24:17.098Z</time></trkpt><trkpt lat="44.6447786" lon="7.9295075"><ele>475.5</ele><time>2026-05-03T16:24:18.098Z</time></trkpt><trkpt lat="44.6448749" lon="7.9293787"><ele>472.25</ele><time>2026-05-03T16:24:19.098Z</time></trkpt><trkpt lat="44.6449737" lon="7.9292444"><ele>469.0</ele><time>2026-05-03T16:24:20.097Z</time></trkpt><trkpt lat="44.6450789" lon="7.9291132"><ele>469.0</ele><time>2026-05-03T16:24:21.098Z</time></trkpt><trkpt lat="44.6451659" lon="7.9289895"><ele>469.0</ele><time>2026-05-03T16:24:22.098Z</time></trkpt><trkpt lat="44.6452643" lon="7.9288573"><ele>469.0</ele><time>2026-05-03T16:24:23.098Z</time></trkpt><trkpt lat="44.6453491" lon="7.9287403"><ele>469.0</ele><time>2026-05-03T16:24:24.098Z</time></trkpt><trkpt lat="44.6454412" lon="7.9286009"><ele>467.6666666666667</ele><time>2026-05-03T16:24:25.098Z</time></trkpt><trkpt lat="44.6455489" lon="7.9284611"><ele>466.33333333333337</ele><time>2026-05-03T16:24:26.098Z</time></trkpt><trkpt lat="44.6456588" lon="7.9283085"><ele>465.0</ele><time>2026-05-03T16:24:27.098Z</time></trkpt><trkpt lat="44.6457628" lon="7.9281559"><ele>465.0</ele><time>2026-05-03T16:24:28.098Z</time></trkpt><trkpt lat="44.6458719" lon="7.9280011"><ele>465.0</ele><time>2026-05-03T16:24:29.098Z</time></trkpt><trkpt lat="44.6459734" lon="7.9278465"><ele>465.0</ele><time>2026-05-03T16:24:30.097Z</time></trkpt><trkpt lat="44.6460824" lon="7.9276995"><ele>463.75</ele><time>2026-05-03T16:24:31.098Z</time></trkpt><trkpt lat="44.6461849" lon="7.9275455"><ele>462.5</ele><time>2026-05-03T16:24:32.098Z</time></trkpt><trkpt lat="44.6462822" lon="7.9273848"><ele>461.25</ele><time>2026-05-03T16:24:33.097Z</time></trkpt><trkpt lat="44.6464016" lon="7.9272685"><ele>460.0</ele><time>2026-05-03T16:24:34.098Z</time></trkpt><trkpt lat="44.6464959" lon="7.9271527"><ele>460.0</ele><time>2026-05-03T16:24:35.098Z</time></trkpt><trkpt lat="44.6466152" lon="7.9270531"><ele>460.0</ele><time>2026-05-03T16:24:36.097Z</time></trkpt><trkpt lat="44.646734" lon="7.9269498"><ele>460.0</ele><time>2026-05-03T16:24:37.098Z</time></trkpt><trkpt lat="44.6468714" lon="7.9268189"><ele>460.0</ele><time>2026-05-03T16:24:38.098Z</time></trkpt><trkpt lat="44.6470113" lon="7.9267016"><ele>455.6666666666667</ele><time>2026-05-03T16:24:39.097Z</time></trkpt><trkpt lat="44.6471673" lon="7.9266175"><ele>451.33333333333337</ele><time>2026-05-03T16:24:40.098Z</time></trkpt><trkpt lat="44.6473365" lon="7.9265359"><ele>447.0</ele><time>2026-05-03T16:24:41.098Z</time></trkpt><trkpt lat="44.6475538" lon="7.9264252"><ele>447.0</ele><time>2026-05-03T16:24:42.098Z</time></trkpt><trkpt lat="44.6477564" lon="7.9263149"><ele>447.0</ele><time>2026-05-03T16:24:43.098Z</time></trkpt><trkpt lat="44.6479514" lon="7.9262062"><ele>447.0</ele><time>2026-05-03T16:24:44.098Z</time></trkpt><trkpt lat="44.6481533" lon="7.9261137"><ele>447.0</ele><time>2026-05-03T16:24:45.098Z</time></trkpt><trkpt lat="44.6483338" lon="7.9260247"><ele>447.0</ele><time>2026-05-03T16:24:46.098Z</time></trkpt><trkpt lat="44.6485114" lon="7.9259431"><ele>447.0</ele><time>2026-05-03T16:24:47.098Z</time></trkpt><trkpt lat="44.6486897" lon="7.9258479"><ele>445.0</ele><time>2026-05-03T16:24:48.098Z</time></trkpt><trkpt lat="44.6488702" lon="7.9257648"><ele>443.0</ele><time>2026-05-03T16:24:49.098Z</time></trkpt><trkpt lat="44.6490511" lon="7.9256832"><ele>441.0</ele><time>2026-05-03T16:24:50.098Z</time></trkpt><trkpt lat="44.6492233" lon="7.9256083"><ele>441.0</ele><time>2026-05-03T16:24:51.098Z</time></trkpt><trkpt lat="44.6493921" lon="7.9255308"><ele>441.0</ele><time>2026-05-03T16:24:52.098Z</time></trkpt><trkpt lat="44.6495522" lon="7.9254643"><ele>441.0</ele><time>2026-05-03T16:24:53.098Z</time></trkpt><trkpt lat="44.6497053" lon="7.9253934"><ele>441.33333333333337</ele><time>2026-05-03T16:24:54.097Z</time></trkpt><trkpt lat="44.6498542" lon="7.9253328"><ele>441.6666666666667</ele><time>2026-05-03T16:24:55.098Z</time></trkpt><trkpt lat="44.6499981" lon="7.9252899"><ele>442.0</ele><time>2026-05-03T16:24:56.098Z</time></trkpt><trkpt lat="44.6501552" lon="7.9252298"><ele>440.33333333333337</ele><time>2026-05-03T16:24:57.098Z</time></trkpt><trkpt lat="44.650326" lon="7.9252542"><ele>438.66666666666663</ele><time>2026-05-03T16:24:58.097Z</time></trkpt><trkpt lat="44.6505004" lon="7.9252908"><ele>437.0</ele><time>2026-05-03T16:24:59.098Z</time></trkpt><trkpt lat="44.6506802" lon="7.9253289"><ele>437.0</ele><time>2026-05-03T16:25:00.098Z</time></trkpt><trkpt lat="44.6508552" lon="7.9253693"><ele>437.0</ele><time>2026-05-03T16:25:01.098Z</time></trkpt><trkpt lat="44.6510366" lon="7.9254052"><ele>437.0</ele><time>2026-05-03T16:25:02.098Z</time></trkpt><trkpt lat="44.6512095" lon="7.9254515"><ele>434.66666666666663</ele><time>2026-05-03T16:25:03.098Z</time></trkpt><trkpt lat="44.6513934" lon="7.9254925"><ele>432.33333333333337</ele><time>2026-05-03T16:25:04.097Z</time></trkpt><trkpt lat="44.6515694" lon="7.9255126"><ele>430.0</ele><time>2026-05-03T16:25:05.097Z</time></trkpt><trkpt lat="44.6517652" lon="7.9255418"><ele>430.0</ele><time>2026-05-03T16:25:06.098Z</time></trkpt><trkpt lat="44.6518786" lon="7.9255702"><ele>430.0</ele><time>2026-05-03T16:25:07.097Z</time></trkpt><trkpt lat="44.6519973" lon="7.9256"><ele>430.0</ele><time>2026-05-03T16:25:08.098Z</time></trkpt><trkpt lat="44.6521289" lon="7.9256227"><ele>430.0</ele><time>2026-05-03T16:25:09.098Z</time></trkpt><trkpt lat="44.6522322" lon="7.9256537"><ele>429.1666666666667</ele><time>2026-05-03T16:25:10.098Z</time></trkpt><trkpt lat="44.6523341" lon="7.9256642"><ele>428.33333333333337</ele><time>2026-05-03T16:25:11.098Z</time></trkpt><trkpt lat="44.6523975" lon="7.9256491"><ele>427.5</ele><time>2026-05-03T16:25:12.098Z</time></trkpt><trkpt lat="44.6524728" lon="7.9256046"><ele>426.66666666666663</ele><time>2026-05-03T16:25:13.098Z</time></trkpt><trkpt lat="44.6525261" lon="7.9255446"><ele>425.8333333333333</ele><time>2026-05-03T16:25:14.098Z</time></trkpt><trkpt lat="44.6525809" lon="7.9254641"><ele>425.0</ele><time>2026-05-03T16:25:15.098Z</time></trkpt><trkpt lat="44.6525023" lon="7.9252797"><ele>425.0</ele><time>2026-05-03T16:25:16.097Z</time></trkpt><trkpt lat="44.6524351" lon="7.9251339"><ele>425.0</ele><time>2026-05-03T16:25:17.097Z</time></trkpt><trkpt lat="44.652334" lon="7.924969"><ele>425.0</ele><time>2026-05-03T16:25:18.098Z</time></trkpt><trkpt lat="44.6522242" lon="7.9248007"><ele>425.0</ele><time>2026-05-03T16:25:19.098Z</time></trkpt><trkpt lat="44.6520906" lon="7.9246015"><ele>422.3333333333333</ele><time>2026-05-03T16:25:20.097Z</time></trkpt><trkpt lat="44.6519642" lon="7.9243972"><ele>419.66666666666663</ele><time>2026-05-03T16:25:21.098Z</time></trkpt><trkpt lat="44.6518305" lon="7.9241898"><ele>417.0</ele><time>2026-05-03T16:25:22.098Z</time></trkpt><trkpt lat="44.6516994" lon="7.9239967"><ele>417.0</ele><time>2026-05-03T16:25:23.098Z</time></trkpt><trkpt lat="44.6515803" lon="7.9238021"><ele>417.0</ele><time>2026-05-03T16:25:24.098Z</time></trkpt><trkpt lat="44.6514666" lon="7.9236389"><ele>417.0</ele><time>2026-05-03T16:25:25.098Z</time></trkpt><trkpt lat="44.6513711" lon="7.9234617"><ele>415.75</ele><time>2026-05-03T16:25:26.098Z</time></trkpt><trkpt lat="44.651288" lon="7.9233034"><ele>414.5</ele><time>2026-05-03T16:25:27.098Z</time></trkpt><trkpt lat="44.6511816" lon="7.9231929"><ele>413.25</ele><time>2026-05-03T16:25:28.097Z</time></trkpt><trkpt lat="44.6510642" lon="7.9231598"><ele>412.0</ele><time>2026-05-03T16:25:29.098Z</time></trkpt><trkpt lat="44.6509689" lon="7.9230724"><ele>411.75</ele><time>2026-05-03T16:25:30.098Z</time></trkpt><trkpt lat="44.6509004" lon="7.9230323"><ele>411.5</ele><time>2026-05-03T16:25:31.098Z</time></trkpt><trkpt lat="44.6507889" lon="7.9230268"><ele>411.25</ele><time>2026-05-03T16:25:32.098Z</time></trkpt><trkpt lat="44.6506523" lon="7.9231615"><ele>411.0</ele><time>2026-05-03T16:25:33.098Z</time></trkpt><trkpt lat="44.6505502" lon="7.9232182"><ele>411.0</ele><time>2026-05-03T16:25:34.098Z</time></trkpt><trkpt lat="44.6504431" lon="7.9232665"><ele>411.0</ele><time>2026-05-03T16:25:35.097Z</time></trkpt><trkpt lat="44.650347" lon="7.9232625"><ele>411.0</ele><time>2026-05-03T16:25:36.098Z</time></trkpt><trkpt lat="44.6502555" lon="7.9232537"><ele>411.0</ele><time>2026-05-03T16:25:37.098Z</time></trkpt><trkpt lat="44.6501996" lon="7.9231938"><ele>411.0</ele><time>2026-05-03T16:25:38.097Z</time></trkpt><trkpt lat="44.6501642" lon="7.923086"><ele>411.0</ele><time>2026-05-03T16:25:39.097Z</time></trkpt><trkpt lat="44.6501629" lon="7.9229451"><ele>411.0</ele><time>2026-05-03T16:25:40.098Z</time></trkpt><trkpt lat="44.6501713" lon="7.9228254"><ele>411.0</ele><time>2026-05-03T16:25:41.098Z</time></trkpt><trkpt lat="44.6502454" lon="7.9227192"><ele>411.0</ele><time>2026-05-03T16:25:42.098Z</time></trkpt><trkpt lat="44.6504424" lon="7.9225732"><ele>408.66666666666663</ele><time>2026-05-03T16:25:43.098Z</time></trkpt><trkpt lat="44.6505867" lon="7.9224891"><ele>406.3333333333333</ele><time>2026-05-03T16:25:44.098Z</time></trkpt><trkpt lat="44.6507371" lon="7.9223933"><ele>404.0</ele><time>2026-05-03T16:25:45.098Z</time></trkpt><trkpt lat="44.6508938" lon="7.9222917"><ele>404.0</ele><time>2026-05-03T16:25:46.098Z</time></trkpt><trkpt lat="44.6510556" lon="7.9221868"><ele>404.0</ele><time>2026-05-03T16:25:47.097Z</time></trkpt><trkpt lat="44.6512257" lon="7.9220825"><ele>404.0</ele><time>2026-05-03T16:25:48.098Z</time></trkpt><trkpt lat="44.6514007" lon="7.9219861"><ele>404.66666666666663</ele><time>2026-05-03T16:25:49.097Z</time></trkpt><trkpt lat="44.6515663" lon="7.9218883"><ele>405.33333333333337</ele><time>2026-05-03T16:25:50.097Z</time></trkpt><trkpt lat="44.6517243" lon="7.9218127"><ele>406.0</ele><time>2026-05-03T16:25:51.098Z</time></trkpt><trkpt lat="44.6518809" lon="7.9217582"><ele>403.75</ele><time>2026-05-03T16:25:52.098Z</time></trkpt><trkpt lat="44.6520067" lon="7.9217118"><ele>401.5</ele><time>2026-05-03T16:25:53.097Z</time></trkpt><trkpt lat="44.6521464" lon="7.9216491"><ele>399.25</ele><time>2026-05-03T16:25:54.098Z</time></trkpt><trkpt lat="44.652297" lon="7.9215759"><ele>397.0</ele><time>2026-05-03T16:25:55.098Z</time></trkpt><trkpt lat="44.6524247" lon="7.9215119"><ele>397.0</ele><time>2026-05-03T16:25:56.098Z</time></trkpt><trkpt lat="44.6525509" lon="7.9214428"><ele>397.0</ele><time>2026-05-03T16:25:57.098Z</time></trkpt><trkpt lat="44.652664" lon="7.9214323"><ele>397.0</ele><time>2026-05-03T16:25:58.098Z</time></trkpt><trkpt lat="44.65278" lon="7.921417"><ele>397.0</ele><time>2026-05-03T16:25:59.098Z</time></trkpt><trkpt lat="44.6529025" lon="7.9214121"><ele>396.25</ele><time>2026-05-03T16:26:00.098Z</time></trkpt><trkpt lat="44.6530137" lon="7.921445"><ele>395.5</ele><time>2026-05-03T16:26:01.098Z</time></trkpt><trkpt lat="44.6531566" lon="7.9215625"><ele>394.75</ele><time>2026-05-03T16:26:02.098Z</time></trkpt><trkpt lat="44.6532634" lon="7.9216675"><ele>394.0</ele><time>2026-05-03T16:26:03.098Z</time></trkpt><trkpt lat="44.6533719" lon="7.9218155"><ele>394.0</ele><time>2026-05-03T16:26:04.098Z</time></trkpt><trkpt lat="44.6534524" lon="7.9219737"><ele>394.0</ele><time>2026-05-03T16:26:05.097Z</time></trkpt><trkpt lat="44.6535008" lon="7.9221068"><ele>394.0</ele><time>2026-05-03T16:26:06.098Z</time></trkpt><trkpt lat="44.6535944" lon="7.9222421"><ele>394.0</ele><time>2026-05-03T16:26:07.098Z</time></trkpt><trkpt lat="44.6536469" lon="7.9223118"><ele>393.0</ele><time>2026-05-03T16:26:08.098Z</time></trkpt><trkpt lat="44.6537384" lon="7.9223642"><ele>392.0</ele><time>2026-05-03T16:26:09.098Z</time></trkpt><trkpt lat="44.653817" lon="7.9223997"><ele>391.0</ele><time>2026-05-03T16:26:10.098Z</time></trkpt><trkpt lat="44.6539178" lon="7.9223509"><ele>390.0</ele><time>2026-05-03T16:26:11.098Z</time></trkpt><trkpt lat="44.6540521" lon="7.9222325"><ele>389.0</ele><time>2026-05-03T16:26:12.098Z</time></trkpt><trkpt lat="44.6541709" lon="7.9221685"><ele>389.0</ele><time>2026-05-03T16:26:13.098Z</time></trkpt><trkpt lat="44.6542969" lon="7.922095"><ele>389.0</ele><time>2026-05-03T16:26:14.097Z</time></trkpt><trkpt lat="44.6544531" lon="7.9220489"><ele>389.0</ele><time>2026-05-03T16:26:15.098Z</time></trkpt><trkpt lat="44.654609" lon="7.9220898"><ele>387.0</ele><time>2026-05-03T16:26:16.098Z</time></trkpt><trkpt lat="44.6547591" lon="7.9221286"><ele>385.0</ele><time>2026-05-03T16:26:17.098Z</time></trkpt><trkpt lat="44.6549411" lon="7.9221783"><ele>383.0</ele><time>2026-05-03T16:26:18.098Z</time></trkpt><trkpt lat="44.6550979" lon="7.9222291"><ele>383.0</ele><time>2026-05-03T16:26:19.098Z</time></trkpt><trkpt lat="44.6552656" lon="7.922278"><ele>383.0</ele><time>2026-05-03T16:26:20.098Z</time></trkpt><trkpt lat="44.6554451" lon="7.9223124"><ele>383.0</ele><time>2026-05-03T16:26:21.098Z</time></trkpt><trkpt lat="44.6555985" lon="7.9223634"><ele>380.6666666666667</ele><time>2026-05-03T16:26:22.097Z</time></trkpt><trkpt lat="44.6557762" lon="7.9223896"><ele>378.3333333333333</ele><time>2026-05-03T16:26:23.098Z</time></trkpt><trkpt lat="44.6559569" lon="7.9224378"><ele>376.0</ele><time>2026-05-03T16:26:24.098Z</time></trkpt><trkpt lat="44.6561185" lon="7.9224698"><ele>375.25</ele><time>2026-05-03T16:26:25.098Z</time></trkpt><trkpt lat="44.6562908" lon="7.9224919"><ele>374.5</ele><time>2026-05-03T16:26:26.097Z</time></trkpt><trkpt lat="44.6564457" lon="7.922485"><ele>373.75</ele><time>2026-05-03T16:26:27.098Z</time></trkpt><trkpt lat="44.6565425" lon="7.9224827"><ele>373.0</ele><time>2026-05-03T16:26:28.098Z</time></trkpt><trkpt lat="44.6566582" lon="7.922475"><ele>373.0</ele><time>2026-05-03T16:26:29.098Z</time></trkpt><trkpt lat="44.6567778" lon="7.9224753"><ele>373.0</ele><time>2026-05-03T16:26:30.098Z</time></trkpt><trkpt lat="44.6569147" lon="7.9225941"><ele>373.0</ele><time>2026-05-03T16:26:31.098Z</time></trkpt><trkpt lat="44.6570424" lon="7.9227168"><ele>373.0</ele><time>2026-05-03T16:26:32.098Z</time></trkpt><trkpt lat="44.6571533" lon="7.9228574"><ele>371.5</ele><time>2026-05-03T16:26:33.098Z</time></trkpt><trkpt lat="44.6572644" lon="7.923007"><ele>370.0</ele><time>2026-05-03T16:26:34.098Z</time></trkpt><trkpt lat="44.6573655" lon="7.9231372"><ele>368.5</ele><time>2026-05-03T16:26:35.098Z</time></trkpt><trkpt lat="44.6574699" lon="7.9232145"><ele>367.0</ele><time>2026-05-03T16:26:36.098Z</time></trkpt><trkpt lat="44.6575554" lon="7.9232912"><ele>367.0</ele><time>2026-05-03T16:26:37.098Z</time></trkpt><trkpt lat="44.657649" lon="7.9233247"><ele>367.0</ele><time>2026-05-03T16:26:38.098Z</time></trkpt><trkpt lat="44.6577645" lon="7.9232894"><ele>367.0</ele><time>2026-05-03T16:26:39.098Z</time></trkpt><trkpt lat="44.6578591" lon="7.9232822"><ele>367.0</ele><time>2026-05-03T16:26:40.098Z</time></trkpt><trkpt lat="44.6579999" lon="7.9232443"><ele>366.0</ele><time>2026-05-03T16:26:41.098Z</time></trkpt><trkpt lat="44.6581309" lon="7.9232648"><ele>365.0</ele><time>2026-05-03T16:26:42.097Z</time></trkpt><trkpt lat="44.6582663" lon="7.9233001"><ele>364.0</ele><time>2026-05-03T16:26:43.098Z</time></trkpt><trkpt lat="44.6583968" lon="7.9233507"><ele>363.0</ele><time>2026-05-03T16:26:44.098Z</time></trkpt><trkpt lat="44.6585075" lon="7.9233629"><ele>362.3333333333333</ele><time>2026-05-03T16:26:45.098Z</time></trkpt><trkpt lat="44.6586737" lon="7.9232922"><ele>361.66666666666663</ele><time>2026-05-03T16:26:46.098Z</time></trkpt><trkpt lat="44.6588394" lon="7.9232514"><ele>361.0</ele><time>2026-05-03T16:26:47.098Z</time></trkpt><trkpt lat="44.6589794" lon="7.9231814"><ele>361.0</ele><time>2026-05-03T16:26:48.097Z</time></trkpt><trkpt lat="44.6591148" lon="7.9231357"><ele>361.0</ele><time>2026-05-03T16:26:49.098Z</time></trkpt><trkpt lat="44.6592375" lon="7.9230764"><ele>361.0</ele><time>2026-05-03T16:26:50.098Z</time></trkpt><trkpt lat="44.6593554" lon="7.9229985"><ele>361.0</ele><time>2026-05-03T16:26:51.098Z</time></trkpt><trkpt lat="44.6594311" lon="7.9227811"><ele>360.75</ele><time>2026-05-03T16:26:52.098Z</time></trkpt><trkpt lat="44.6595182" lon="7.9226183"><ele>360.5</ele><time>2026-05-03T16:26:53.098Z</time></trkpt><trkpt lat="44.6595793" lon="7.9224471"><ele>360.25</ele><time>2026-05-03T16:26:54.097Z</time></trkpt><trkpt lat="44.6596619" lon="7.9223074"><ele>360.0</ele><time>2026-05-03T16:26:55.098Z</time></trkpt><trkpt lat="44.6597552" lon="7.9221899"><ele>360.0</ele><time>2026-05-03T16:26:56.098Z</time></trkpt><trkpt lat="44.6598541" lon="7.9220803"><ele>360.0</ele><time>2026-05-03T16:26:57.097Z</time></trkpt><trkpt lat="44.6600135" lon="7.9219248"><ele>360.0</ele><time>2026-05-03T16:26:58.098Z</time></trkpt><trkpt lat="44.6601641" lon="7.9217952"><ele>356.6666666666667</ele><time>2026-05-03T16:26:59.097Z</time></trkpt><trkpt lat="44.6603073" lon="7.921658"><ele>353.33333333333337</ele><time>2026-05-03T16:27:00.097Z</time></trkpt><trkpt lat="44.660438" lon="7.9215314"><ele>350.0</ele><time>2026-05-03T16:27:01.098Z</time></trkpt><trkpt lat="44.6605631" lon="7.9214176"><ele>350.0</ele><time>2026-05-03T16:27:02.097Z</time></trkpt><trkpt lat="44.660696" lon="7.9213263"><ele>350.0</ele><time>2026-05-03T16:27:03.098Z</time></trkpt><trkpt lat="44.6608261" lon="7.9212187"><ele>350.0</ele><time>2026-05-03T16:27:04.098Z</time></trkpt><trkpt lat="44.6609804" lon="7.9211944"><ele>349.6666666666667</ele><time>2026-05-03T16:27:05.098Z</time></trkpt><trkpt lat="44.661122" lon="7.9211499"><ele>349.3333333333333</ele><time>2026-05-03T16:27:06.098Z</time></trkpt><trkpt lat="44.6612702" lon="7.9211164"><ele>349.0</ele><time>2026-05-03T16:27:07.098Z</time></trkpt><trkpt lat="44.6614406" lon="7.9211016"><ele>349.0</ele><time>2026-05-03T16:27:08.098Z</time></trkpt><trkpt lat="44.6615851" lon="7.9210931"><ele>349.0</ele><time>2026-05-03T16:27:09.098Z</time></trkpt><trkpt lat="44.6616851" lon="7.9211229"><ele>349.0</ele><time>2026-05-03T16:27:10.098Z</time></trkpt><trkpt lat="44.661769" lon="7.9211171"><ele>349.0</ele><time>2026-05-03T16:27:11.098Z</time></trkpt><trkpt lat="44.6618618" lon="7.9210944"><ele>349.0</ele><time>2026-05-03T16:27:12.098Z</time></trkpt><trkpt lat="44.6619432" lon="7.9210633"><ele>349.0</ele><time>2026-05-03T16:27:13.098Z</time></trkpt><trkpt lat="44.6619057" lon="7.9209164"><ele>349.0</ele><time>2026-05-03T16:27:15.097Z</time></trkpt><trkpt lat="44.6618591" lon="7.9208299"><ele>349.0</ele><time>2026-05-03T16:27:16.098Z</time></trkpt><trkpt lat="44.6616978" lon="7.9206998"><ele>349.0</ele><time>2026-05-03T16:27:18.098Z</time></trkpt><trkpt lat="44.6615421" lon="7.9206907"><ele>346.25</ele><time>2026-05-03T16:27:19.098Z</time></trkpt><trkpt lat="44.6614011" lon="7.920625"><ele>343.5</ele><time>2026-05-03T16:27:20.098Z</time></trkpt><trkpt lat="44.661299" lon="7.9205138"><ele>340.75</ele><time>2026-05-03T16:27:21.098Z</time></trkpt><trkpt lat="44.6611988" lon="7.9203978"><ele>338.0</ele><time>2026-05-03T16:27:22.098Z</time></trkpt><trkpt lat="44.6611127" lon="7.9202398"><ele>338.0</ele><time>2026-05-03T16:27:23.098Z</time></trkpt><trkpt lat="44.6610553" lon="7.9200676"><ele>338.0</ele><time>2026-05-03T16:27:24.098Z</time></trkpt><trkpt lat="44.6609921" lon="7.9198863"><ele>338.0</ele><time>2026-05-03T16:27:25.098Z</time></trkpt><trkpt lat="44.6610061" lon="7.9197427"><ele>338.0</ele><time>2026-05-03T16:27:26.098Z</time></trkpt><trkpt lat="44.6610596" lon="7.919581"><ele>335.75</ele><time>2026-05-03T16:27:27.098Z</time></trkpt><trkpt lat="44.6611643" lon="7.9194453"><ele>333.5</ele><time>2026-05-03T16:27:28.098Z</time></trkpt><trkpt lat="44.6612499" lon="7.9193312"><ele>331.25</ele><time>2026-05-03T16:27:29.098Z</time></trkpt><trkpt lat="44.6613562" lon="7.9192203"><ele>329.0</ele><time>2026-05-03T16:27:30.098Z</time></trkpt><trkpt lat="44.6614424" lon="7.9191004"><ele>329.0</ele><time>2026-05-03T16:27:31.098Z</time></trkpt><trkpt lat="44.6615059" lon="7.9189713"><ele>329.0</ele><time>2026-05-03T16:27:32.098Z</time></trkpt><trkpt lat="44.6615969" lon="7.9188484"><ele>329.0</ele><time>2026-05-03T16:27:33.098Z</time></trkpt><trkpt lat="44.6616752" lon="7.9187332"><ele>329.0</ele><time>2026-05-03T16:27:34.097Z</time></trkpt><trkpt lat="44.6617304" lon="7.9185757"><ele>329.0</ele><time>2026-05-03T16:27:35.098Z</time></trkpt><trkpt lat="44.6617963" lon="7.918454"><ele>329.0</ele><time>2026-05-03T16:27:36.098Z</time></trkpt><trkpt lat="44.6618744" lon="7.9183114"><ele>329.0</ele><time>2026-05-03T16:27:37.098Z</time></trkpt><trkpt lat="44.6619486" lon="7.9181672"><ele>329.0</ele><time>2026-05-03T16:27:38.097Z</time></trkpt><trkpt lat="44.6620262" lon="7.918026"><ele>329.0</ele><time>2026-05-03T16:27:39.098Z</time></trkpt><trkpt lat="44.6620879" lon="7.9178918"><ele>329.0</ele><time>2026-05-03T16:27:40.098Z</time></trkpt><trkpt lat="44.6621449" lon="7.9177572"><ele>329.0</ele><time>2026-05-03T16:27:41.097Z</time></trkpt><trkpt lat="44.6622001" lon="7.9176306"><ele>329.0</ele><time>2026-05-03T16:27:42.097Z</time></trkpt><trkpt lat="44.6622669" lon="7.9175073"><ele>329.0</ele><time>2026-05-03T16:27:43.098Z</time></trkpt><trkpt lat="44.6623279" lon="7.9173631"><ele>329.0</ele><time>2026-05-03T16:27:44.098Z</time></trkpt><trkpt lat="44.6623873" lon="7.9172133"><ele>329.0</ele><time>2026-05-03T16:27:45.098Z</time></trkpt><trkpt lat="44.6624482" lon="7.9170491"><ele>329.0</ele><time>2026-05-03T16:27:46.098Z</time></trkpt><trkpt lat="44.6625219" lon="7.9168947"><ele>329.0</ele><time>2026-05-03T16:27:47.098Z</time></trkpt><trkpt lat="44.6625725" lon="7.9167432"><ele>327.25</ele><time>2026-05-03T16:27:48.098Z</time></trkpt><trkpt lat="44.6625802" lon="7.9165498"><ele>325.5</ele><time>2026-05-03T16:27:49.098Z</time></trkpt><trkpt lat="44.6626323" lon="7.9163786"><ele>323.75</ele><time>2026-05-03T16:27:50.098Z</time></trkpt><trkpt lat="44.6626979" lon="7.9162167"><ele>322.0</ele><time>2026-05-03T16:27:51.098Z</time></trkpt><trkpt lat="44.6627757" lon="7.9160483"><ele>321.0</ele><time>2026-05-03T16:27:52.097Z</time></trkpt><trkpt lat="44.6628579" lon="7.9158973"><ele>320.0</ele><time>2026-05-03T16:27:53.098Z</time></trkpt><trkpt lat="44.6629618" lon="7.9157406"><ele>319.0</ele><time>2026-05-03T16:27:54.098Z</time></trkpt><trkpt lat="44.6630674" lon="7.9156014"><ele>318.0</ele><time>2026-05-03T16:27:55.098Z</time></trkpt><trkpt lat="44.6631809" lon="7.9154533"><ele>318.0</ele><time>2026-05-03T16:27:56.098Z</time></trkpt><trkpt lat="44.6632906" lon="7.9153188"><ele>318.0</ele><time>2026-05-03T16:27:57.098Z</time></trkpt><trkpt lat="44.663406" lon="7.91517"><ele>318.0</ele><time>2026-05-03T16:27:58.098Z</time></trkpt><trkpt lat="44.6635209" lon="7.9150239"><ele>315.3333333333333</ele><time>2026-05-03T16:27:59.098Z</time></trkpt><trkpt lat="44.6636432" lon="7.9148809"><ele>312.66666666666663</ele><time>2026-05-03T16:28:00.097Z</time></trkpt><trkpt lat="44.6637544" lon="7.9147443"><ele>310.0</ele><time>2026-05-03T16:28:01.098Z</time></trkpt><trkpt lat="44.6638703" lon="7.9145814"><ele>310.0</ele><time>2026-05-03T16:28:02.098Z</time></trkpt><trkpt lat="44.66397" lon="7.9144184"><ele>310.0</ele><time>2026-05-03T16:28:03.098Z</time></trkpt><trkpt lat="44.6640632" lon="7.9142445"><ele>310.0</ele><time>2026-05-03T16:28:04.098Z</time></trkpt><trkpt lat="44.6641459" lon="7.9140807"><ele>308.25</ele><time>2026-05-03T16:28:05.098Z</time></trkpt><trkpt lat="44.6642137" lon="7.9138918"><ele>306.5</ele><time>2026-05-03T16:28:06.098Z</time></trkpt><trkpt lat="44.66429" lon="7.9137167"><ele>304.75</ele><time>2026-05-03T16:28:07.098Z</time></trkpt><trkpt lat="44.6643525" lon="7.9135554"><ele>303.0</ele><time>2026-05-03T16:28:08.098Z</time></trkpt><trkpt lat="44.6644578" lon="7.9134366"><ele>301.2</ele><time>2026-05-03T16:28:09.098Z</time></trkpt><trkpt lat="44.6645738" lon="7.9133487"><ele>299.4</ele><time>2026-05-03T16:28:10.098Z</time></trkpt><trkpt lat="44.664685" lon="7.9133116"><ele>297.59999999999997</ele><time>2026-05-03T16:28:11.098Z</time></trkpt><trkpt lat="44.6647578" lon="7.9132949"><ele>295.8</ele><time>2026-05-03T16:28:12.097Z</time></trkpt><trkpt lat="44.6648703" lon="7.9132677"><ele>294.0</ele><time>2026-05-03T16:28:13.098Z</time></trkpt><trkpt lat="44.6649991" lon="7.9131675"><ele>294.0</ele><time>2026-05-03T16:28:14.098Z</time></trkpt><trkpt lat="44.6651117" lon="7.9130759"><ele>294.0</ele><time>2026-05-03T16:28:15.098Z</time></trkpt><trkpt lat="44.6652048" lon="7.9129428"><ele>294.0</ele><time>2026-05-03T16:28:16.098Z</time></trkpt><trkpt lat="44.6653174" lon="7.9128272"><ele>294.0</ele><time>2026-05-03T16:28:17.097Z</time></trkpt><trkpt lat="44.6654137" lon="7.9126774"><ele>291.0</ele><time>2026-05-03T16:28:18.097Z</time></trkpt><trkpt lat="44.6654802" lon="7.9124815"><ele>288.0</ele><time>2026-05-03T16:28:19.097Z</time></trkpt><trkpt lat="44.6655621" lon="7.9123009"><ele>285.0</ele><time>2026-05-03T16:28:20.098Z</time></trkpt><trkpt lat="44.6656215" lon="7.9120593"><ele>285.0</ele><time>2026-05-03T16:28:21.098Z</time></trkpt><trkpt lat="44.6656994" lon="7.9118674"><ele>285.0</ele><time>2026-05-03T16:28:22.098Z</time></trkpt><trkpt lat="44.6657533" lon="7.9116408"><ele>285.0</ele><time>2026-05-03T16:28:23.098Z</time></trkpt><trkpt lat="44.6658353" lon="7.9114405"><ele>283.3333333333333</ele><time>2026-05-03T16:28:24.098Z</time></trkpt><trkpt lat="44.6659299" lon="7.9112439"><ele>281.66666666666663</ele><time>2026-05-03T16:28:25.097Z</time></trkpt><trkpt lat="44.6660003" lon="7.9110437"><ele>280.0</ele><time>2026-05-03T16:28:26.098Z</time></trkpt><trkpt lat="44.6660963" lon="7.9108402"><ele>275.3333333333333</ele><time>2026-05-03T16:28:27.097Z</time></trkpt><trkpt lat="44.6662021" lon="7.910648"><ele>270.6666666666667</ele><time>2026-05-03T16:28:28.098Z</time></trkpt><trkpt lat="44.6663231" lon="7.9104512"><ele>266.0</ele><time>2026-05-03T16:28:29.098Z</time></trkpt><trkpt lat="44.666475" lon="7.910271"><ele>266.0</ele><time>2026-05-03T16:28:30.098Z</time></trkpt><trkpt lat="44.6666044" lon="7.9101231"><ele>266.0</ele><time>2026-05-03T16:28:31.097Z</time></trkpt><trkpt lat="44.6667393" lon="7.909974"><ele>266.0</ele><time>2026-05-03T16:28:32.098Z</time></trkpt><trkpt lat="44.6668529" lon="7.9098402"><ele>265.0</ele><time>2026-05-03T16:28:33.098Z</time></trkpt><trkpt lat="44.6669703" lon="7.909736"><ele>264.0</ele><time>2026-05-03T16:28:34.098Z</time></trkpt><trkpt lat="44.6670684" lon="7.9096478"><ele>263.0</ele><time>2026-05-03T16:28:35.098Z</time></trkpt><trkpt lat="44.6671762" lon="7.9095641"><ele>262.0</ele><time>2026-05-03T16:28:36.098Z</time></trkpt><trkpt lat="44.6672585" lon="7.9095824"><ele>262.0</ele><time>2026-05-03T16:28:37.097Z</time></trkpt><trkpt lat="44.6673801" lon="7.9095865"><ele>262.0</ele><time>2026-05-03T16:28:38.098Z</time></trkpt><trkpt lat="44.6674827" lon="7.9096172"><ele>262.0</ele><time>2026-05-03T16:28:39.098Z</time></trkpt><trkpt lat="44.6676296" lon="7.9096914"><ele>262.0</ele><time>2026-05-03T16:28:40.098Z</time></trkpt><trkpt lat="44.6678194" lon="7.9098008"><ele>260.5</ele><time>2026-05-03T16:28:41.098Z</time></trkpt><trkpt lat="44.668062" lon="7.9099249"><ele>259.0</ele><time>2026-05-03T16:28:42.098Z</time></trkpt><trkpt lat="44.6682599" lon="7.9100305"><ele>257.66666666666663</ele><time>2026-05-03T16:28:43.097Z</time></trkpt><trkpt lat="44.6684557" lon="7.9101308"><ele>256.3333333333333</ele><time>2026-05-03T16:28:44.097Z</time></trkpt><trkpt lat="44.6686448" lon="7.9102371"><ele>255.0</ele><time>2026-05-03T16:28:45.098Z</time></trkpt><trkpt lat="44.6688436" lon="7.910326"><ele>254.0</ele><time>2026-05-03T16:28:46.097Z</time></trkpt><trkpt lat="44.6690313" lon="7.9104234"><ele>253.0</ele><time>2026-05-03T16:28:47.097Z</time></trkpt><trkpt lat="44.669214" lon="7.910519"><ele>252.0</ele><time>2026-05-03T16:28:48.098Z</time></trkpt><trkpt lat="44.669392" lon="7.9106085"><ele>251.0</ele><time>2026-05-03T16:28:49.098Z</time></trkpt><trkpt lat="44.6695612" lon="7.9106973"><ele>250.0</ele><time>2026-05-03T16:28:50.098Z</time></trkpt><trkpt lat="44.6697414" lon="7.9107725"><ele>249.0</ele><time>2026-05-03T16:28:51.097Z</time></trkpt><trkpt lat="44.6699266" lon="7.9108323"><ele>249.0</ele><time>2026-05-03T16:28:52.098Z</time></trkpt><trkpt lat="44.6701407" lon="7.9108426"><ele>249.0</ele><time>2026-05-03T16:28:53.098Z</time></trkpt><trkpt lat="44.6703586" lon="7.910863"><ele>249.0</ele><time>2026-05-03T16:28:54.098Z</time></trkpt><trkpt lat="44.670583" lon="7.9108741"><ele>247.0</ele><time>2026-05-03T16:28:55.098Z</time></trkpt><trkpt lat="44.6707903" lon="7.910872"><ele>245.0</ele><time>2026-05-03T16:28:56.098Z</time></trkpt><trkpt lat="44.671003" lon="7.9108729"><ele>243.0</ele><time>2026-05-03T16:28:57.098Z</time></trkpt><trkpt lat="44.6711965" lon="7.9108805"><ele>242.33333333333331</ele><time>2026-05-03T16:28:58.098Z</time></trkpt><trkpt lat="44.6713813" lon="7.9108908"><ele>241.66666666666666</ele><time>2026-05-03T16:28:59.098Z</time></trkpt><trkpt lat="44.6715685" lon="7.9108919"><ele>241.0</ele><time>2026-05-03T16:29:00.097Z</time></trkpt><trkpt lat="44.6717371" lon="7.9108723"><ele>241.0</ele><time>2026-05-03T16:29:01.098Z</time></trkpt><trkpt lat="44.6718449" lon="7.9109023"><ele>241.0</ele><time>2026-05-03T16:29:02.098Z</time></trkpt><trkpt lat="44.6719701" lon="7.9109467"><ele>241.0</ele><time>2026-05-03T16:29:03.098Z</time></trkpt><trkpt lat="44.6720647" lon="7.9110849"><ele>241.0</ele><time>2026-05-03T16:29:04.098Z</time></trkpt><trkpt lat="44.6721771" lon="7.9112069"><ele>240.33333333333331</ele><time>2026-05-03T16:29:05.098Z</time></trkpt><trkpt lat="44.6722951" lon="7.9114218"><ele>239.66666666666669</ele><time>2026-05-03T16:29:06.098Z</time></trkpt><trkpt lat="44.672421" lon="7.911587"><ele>239.0</ele><time>2026-05-03T16:29:07.097Z</time></trkpt><trkpt lat="44.6725536" lon="7.9117624"><ele>240.33333333333334</ele><time>2026-05-03T16:29:08.097Z</time></trkpt><trkpt lat="44.6726675" lon="7.9119024"><ele>241.66666666666669</ele><time>2026-05-03T16:29:09.098Z</time></trkpt><trkpt lat="44.6727514" lon="7.9121033"><ele>243.0</ele><time>2026-05-03T16:29:10.098Z</time></trkpt><trkpt lat="44.6728396" lon="7.912311"><ele>240.0</ele><time>2026-05-03T16:29:11.098Z</time></trkpt><trkpt lat="44.6729293" lon="7.9125295"><ele>237.0</ele><time>2026-05-03T16:29:12.098Z</time></trkpt><trkpt lat="44.6730248" lon="7.9127654"><ele>234.0</ele><time>2026-05-03T16:29:13.098Z</time></trkpt><trkpt lat="44.6731266" lon="7.9129958"><ele>234.0</ele><time>2026-05-03T16:29:14.098Z</time></trkpt><trkpt lat="44.6732286" lon="7.9132123"><ele>234.0</ele><time>2026-05-03T16:29:15.097Z</time></trkpt><trkpt lat="44.6733469" lon="7.9133923"><ele>234.0</ele><time>2026-05-03T16:29:16.098Z</time></trkpt><trkpt lat="44.6734696" lon="7.9135706"><ele>234.33333333333331</ele><time>2026-05-03T16:29:17.098Z</time></trkpt><trkpt lat="44.673582" lon="7.9137336"><ele>234.66666666666666</ele><time>2026-05-03T16:29:18.098Z</time></trkpt><trkpt lat="44.6736889" lon="7.9138977"><ele>235.0</ele><time>2026-05-03T16:29:19.098Z</time></trkpt><trkpt lat="44.6737946" lon="7.9140632"><ele>233.0</ele><time>2026-05-03T16:29:20.098Z</time></trkpt><trkpt lat="44.6738816" lon="7.9142637"><ele>231.0</ele><time>2026-05-03T16:29:21.098Z</time></trkpt><trkpt lat="44.6739685" lon="7.9144913"><ele>229.0</ele><time>2026-05-03T16:29:22.098Z</time></trkpt><trkpt lat="44.6740393" lon="7.9147322"><ele>229.0</ele><time>2026-05-03T16:29:23.097Z</time></trkpt><trkpt lat="44.6741069" lon="7.9149701"><ele>229.0</ele><time>2026-05-03T16:29:24.098Z</time></trkpt><trkpt lat="44.6741605" lon="7.9152223"><ele>229.0</ele><time>2026-05-03T16:29:25.097Z</time></trkpt><trkpt lat="44.6742374" lon="7.9154087"><ele>229.0</ele><time>2026-05-03T16:29:26.098Z</time></trkpt><trkpt lat="44.674324" lon="7.9156166"><ele>229.0</ele><time>2026-05-03T16:29:27.098Z</time></trkpt><trkpt lat="44.6744135" lon="7.9158025"><ele>229.0</ele><time>2026-05-03T16:29:28.098Z</time></trkpt><trkpt lat="44.6745336" lon="7.9159852"><ele>227.0</ele><time>2026-05-03T16:29:29.098Z</time></trkpt><trkpt lat="44.6746775" lon="7.9161545"><ele>225.0</ele><time>2026-05-03T16:29:30.098Z</time></trkpt><trkpt lat="44.6748361" lon="7.9163293"><ele>223.0</ele><time>2026-05-03T16:29:31.098Z</time></trkpt><trkpt lat="44.6750008" lon="7.9165145"><ele>223.0</ele><time>2026-05-03T16:29:32.098Z</time></trkpt><trkpt lat="44.675156" lon="7.9166959"><ele>223.0</ele><time>2026-05-03T16:29:33.098Z</time></trkpt><trkpt lat="44.6753334" lon="7.9168942"><ele>223.0</ele><time>2026-05-03T16:29:34.098Z</time></trkpt><trkpt lat="44.6754968" lon="7.9170486"><ele>221.0</ele><time>2026-05-03T16:29:35.098Z</time></trkpt><trkpt lat="44.6756433" lon="7.9172381"><ele>219.0</ele><time>2026-05-03T16:29:36.098Z</time></trkpt><trkpt lat="44.6757913" lon="7.9174334"><ele>217.0</ele><time>2026-05-03T16:29:37.097Z</time></trkpt><trkpt lat="44.6759457" lon="7.9175865"><ele>217.0</ele><time>2026-05-03T16:29:38.098Z</time></trkpt><trkpt lat="44.6760859" lon="7.9177205"><ele>217.0</ele><time>2026-05-03T16:29:39.098Z</time></trkpt><trkpt lat="44.6762198" lon="7.9178704"><ele>217.0</ele><time>2026-05-03T16:29:40.098Z</time></trkpt><trkpt lat="44.6763607" lon="7.9180124"><ele>214.33333333333331</ele><time>2026-05-03T16:29:41.098Z</time></trkpt><trkpt lat="44.676496" lon="7.9181672"><ele>211.66666666666669</ele><time>2026-05-03T16:29:42.098Z</time></trkpt><trkpt lat="44.6766077" lon="7.9183078"><ele>209.0</ele><time>2026-05-03T16:29:43.098Z</time></trkpt><trkpt lat="44.6767188" lon="7.9184274"><ele>208.5</ele><time>2026-05-03T16:29:44.098Z</time></trkpt><trkpt lat="44.676823" lon="7.9185442"><ele>208.0</ele><time>2026-05-03T16:29:45.098Z</time></trkpt><trkpt lat="44.6769335" lon="7.918648"><ele>207.5</ele><time>2026-05-03T16:29:46.098Z</time></trkpt><trkpt lat="44.6770699" lon="7.9187111"><ele>207.0</ele><time>2026-05-03T16:29:47.098Z</time></trkpt><trkpt lat="44.6772022" lon="7.9187753"><ele>205.33333333333331</ele><time>2026-05-03T16:29:48.097Z</time></trkpt><trkpt lat="44.6773668" lon="7.9187683"><ele>203.66666666666666</ele><time>2026-05-03T16:29:49.098Z</time></trkpt><trkpt lat="44.677542" lon="7.918749"><ele>202.0</ele><time>2026-05-03T16:29:50.098Z</time></trkpt><trkpt lat="44.677716" lon="7.9187228"><ele>199.33333333333331</ele><time>2026-05-03T16:29:51.098Z</time></trkpt><trkpt lat="44.6778795" lon="7.918701"><ele>196.66666666666669</ele><time>2026-05-03T16:29:52.098Z</time></trkpt><trkpt lat="44.6780507" lon="7.9186734"><ele>194.0</ele><time>2026-05-03T16:29:53.098Z</time></trkpt><trkpt lat="44.6782227" lon="7.9186362"><ele>194.0</ele><time>2026-05-03T16:29:54.098Z</time></trkpt><trkpt lat="44.6783325" lon="7.9186217"><ele>194.0</ele><time>2026-05-03T16:29:55.098Z</time></trkpt><trkpt lat="44.6784662" lon="7.918613"><ele>194.0</ele><time>2026-05-03T16:29:56.098Z</time></trkpt><trkpt lat="44.6785657" lon="7.9185922"><ele>194.0</ele><time>2026-05-03T16:29:57.098Z</time></trkpt><trkpt lat="44.678647" lon="7.9185883"><ele>194.0</ele><time>2026-05-03T16:29:59.098Z</time></trkpt><trkpt lat="44.6787724" lon="7.918587"><ele>192.75</ele><time>2026-05-03T16:30:01.098Z</time></trkpt><trkpt lat="44.6788611" lon="7.9185753"><ele>191.5</ele><time>2026-05-03T16:30:02.098Z</time></trkpt><trkpt lat="44.6789654" lon="7.9185596"><ele>190.25</ele><time>2026-05-03T16:30:03.097Z</time></trkpt><trkpt lat="44.6790909" lon="7.9185478"><ele>189.0</ele><time>2026-05-03T16:30:04.098Z</time></trkpt><trkpt lat="44.679233" lon="7.9185255"><ele>189.0</ele><time>2026-05-03T16:30:05.098Z</time></trkpt><trkpt lat="44.6793774" lon="7.9185016"><ele>189.0</ele><time>2026-05-03T16:30:06.098Z</time></trkpt><trkpt lat="44.6795077" lon="7.9184742"><ele>189.0</ele><time>2026-05-03T16:30:07.098Z</time></trkpt><trkpt lat="44.6796257" lon="7.9184021"><ele>189.0</ele><time>2026-05-03T16:30:08.098Z</time></trkpt><trkpt lat="44.6797543" lon="7.918315"><ele>188.33333333333334</ele><time>2026-05-03T16:30:09.097Z</time></trkpt><trkpt lat="44.6798746" lon="7.9181742"><ele>187.66666666666669</ele><time>2026-05-03T16:30:10.098Z</time></trkpt><trkpt lat="44.6799914" lon="7.9180478"><ele>187.0</ele><time>2026-05-03T16:30:11.098Z</time></trkpt><trkpt lat="44.6801187" lon="7.9178976"><ele>187.0</ele><time>2026-05-03T16:30:12.097Z</time></trkpt><trkpt lat="44.6802579" lon="7.9177428"><ele>187.0</ele><time>2026-05-03T16:30:13.098Z</time></trkpt><trkpt lat="44.6803962" lon="7.917577"><ele>187.0</ele><time>2026-05-03T16:30:14.098Z</time></trkpt><trkpt lat="44.6805567" lon="7.9173893"><ele>186.0</ele><time>2026-05-03T16:30:15.098Z</time></trkpt><trkpt lat="44.6807094" lon="7.9172057"><ele>185.0</ele><time>2026-05-03T16:30:16.097Z</time></trkpt><trkpt lat="44.6808699" lon="7.9170255"><ele>184.0</ele><time>2026-05-03T16:30:17.098Z</time></trkpt><trkpt lat="44.6810265" lon="7.9168417"><ele>184.0</ele><time>2026-05-03T16:30:18.097Z</time></trkpt><trkpt lat="44.6811838" lon="7.9166518"><ele>184.0</ele><time>2026-05-03T16:30:19.098Z</time></trkpt><trkpt lat="44.6813416" lon="7.9164579"><ele>184.0</ele><time>2026-05-03T16:30:20.098Z</time></trkpt><trkpt lat="44.6815088" lon="7.9162737"><ele>184.0</ele><time>2026-05-03T16:30:21.098Z</time></trkpt><trkpt lat="44.6816697" lon="7.9160821"><ele>184.0</ele><time>2026-05-03T16:30:22.098Z</time></trkpt><trkpt lat="44.6818233" lon="7.9158734"><ele>184.0</ele><time>2026-05-03T16:30:23.098Z</time></trkpt><trkpt lat="44.6819832" lon="7.9156697"><ele>184.0</ele><time>2026-05-03T16:30:24.098Z</time></trkpt><trkpt lat="44.6821551" lon="7.9154723"><ele>184.0</ele><time>2026-05-03T16:30:25.098Z</time></trkpt><trkpt lat="44.6823374" lon="7.9152672"><ele>184.0</ele><time>2026-05-03T16:30:26.098Z</time></trkpt><trkpt lat="44.6824979" lon="7.9150762"><ele>184.0</ele><time>2026-05-03T16:30:27.098Z</time></trkpt><trkpt lat="44.682666" lon="7.9148744"><ele>184.0</ele><time>2026-05-03T16:30:28.098Z</time></trkpt><trkpt lat="44.682836" lon="7.9146745"><ele>184.0</ele><time>2026-05-03T16:30:29.098Z</time></trkpt><trkpt lat="44.6830068" lon="7.9144778"><ele>184.0</ele><time>2026-05-03T16:30:30.098Z</time></trkpt><trkpt lat="44.6831843" lon="7.9143157"><ele>184.0</ele><time>2026-05-03T16:30:31.098Z</time></trkpt><trkpt lat="44.6833663" lon="7.9141649"><ele>184.33333333333334</ele><time>2026-05-03T16:30:32.098Z</time></trkpt><trkpt lat="44.6835533" lon="7.9140237"><ele>184.66666666666666</ele><time>2026-05-03T16:30:33.098Z</time></trkpt><trkpt lat="44.6837401" lon="7.9138884"><ele>185.0</ele><time>2026-05-03T16:30:34.098Z</time></trkpt><trkpt lat="44.6839026" lon="7.9137621"><ele>185.0</ele><time>2026-05-03T16:30:35.098Z</time></trkpt><trkpt lat="44.684081" lon="7.9136238"><ele>185.0</ele><time>2026-05-03T16:30:36.098Z</time></trkpt><trkpt lat="44.6842614" lon="7.9134934"><ele>185.0</ele><time>2026-05-03T16:30:37.098Z</time></trkpt><trkpt lat="44.6844393" lon="7.9133544"><ele>185.33333333333331</ele><time>2026-05-03T16:30:38.098Z</time></trkpt><trkpt lat="44.684621" lon="7.9132114"><ele>185.66666666666666</ele><time>2026-05-03T16:30:39.097Z</time></trkpt><trkpt lat="44.684792" lon="7.9130723"><ele>186.0</ele><time>2026-05-03T16:30:40.098Z</time></trkpt><trkpt lat="44.6849556" lon="7.9129476"><ele>186.0</ele><time>2026-05-03T16:30:41.097Z</time></trkpt><trkpt lat="44.6850949" lon="7.9128392"><ele>186.0</ele><time>2026-05-03T16:30:42.098Z</time></trkpt><trkpt lat="44.6852332" lon="7.912731"><ele>186.0</ele><time>2026-05-03T16:30:43.098Z</time></trkpt><trkpt lat="44.6853481" lon="7.9126464"><ele>186.0</ele><time>2026-05-03T16:30:44.098Z</time></trkpt><trkpt lat="44.6854479" lon="7.9125735"><ele>187.0</ele><time>2026-05-03T16:30:45.098Z</time></trkpt><trkpt lat="44.685541" lon="7.9124672"><ele>188.0</ele><time>2026-05-03T16:30:46.098Z</time></trkpt><trkpt lat="44.6856033" lon="7.9123226"><ele>189.0</ele><time>2026-05-03T16:30:47.098Z</time></trkpt><trkpt lat="44.6856645" lon="7.9121721"><ele>190.0</ele><time>2026-05-03T16:30:48.097Z</time></trkpt><trkpt lat="44.6856734" lon="7.9119973"><ele>190.0</ele><time>2026-05-03T16:30:49.098Z</time></trkpt><trkpt lat="44.685702" lon="7.9118056"><ele>190.0</ele><time>2026-05-03T16:30:50.097Z</time></trkpt><trkpt lat="44.6855513" lon="7.911581"><ele>190.0</ele><time>2026-05-03T16:30:51.098Z</time></trkpt><trkpt lat="44.6854615" lon="7.9113509"><ele>190.66666666666669</ele><time>2026-05-03T16:30:52.098Z</time></trkpt><trkpt lat="44.6853593" lon="7.9111157"><ele>191.33333333333334</ele><time>2026-05-03T16:30:53.098Z</time></trkpt><trkpt lat="44.6852474" lon="7.9108719"><ele>192.0</ele><time>2026-05-03T16:30:54.098Z</time></trkpt><trkpt lat="44.6851537" lon="7.9106198"><ele>192.66666666666669</ele><time>2026-05-03T16:30:55.098Z</time></trkpt><trkpt lat="44.6850461" lon="7.9103486"><ele>193.33333333333334</ele><time>2026-05-03T16:30:56.098Z</time></trkpt><trkpt lat="44.6849346" lon="7.9100834"><ele>194.0</ele><time>2026-05-03T16:30:57.098Z</time></trkpt><trkpt lat="44.6848206" lon="7.9098134"><ele>194.0</ele><time>2026-05-03T16:30:58.098Z</time></trkpt><trkpt lat="44.6847118" lon="7.9095434"><ele>194.0</ele><time>2026-05-03T16:30:59.098Z</time></trkpt><trkpt lat="44.6846021" lon="7.909284"><ele>194.0</ele><time>2026-05-03T16:31:00.098Z</time></trkpt><trkpt lat="44.6844944" lon="7.9090154"><ele>193.33333333333334</ele><time>2026-05-03T16:31:01.098Z</time></trkpt><trkpt lat="44.6844" lon="7.9087799"><ele>192.66666666666669</ele><time>2026-05-03T16:31:02.098Z</time></trkpt><trkpt lat="44.6842965" lon="7.90853"><ele>192.0</ele><time>2026-05-03T16:31:03.098Z</time></trkpt><trkpt lat="44.684195" lon="7.9082845"><ele>192.0</ele><time>2026-05-03T16:31:04.098Z</time></trkpt><trkpt lat="44.6840886" lon="7.9080285"><ele>192.0</ele><time>2026-05-03T16:31:05.098Z</time></trkpt><trkpt lat="44.6839862" lon="7.9077623"><ele>192.0</ele><time>2026-05-03T16:31:06.098Z</time></trkpt><trkpt lat="44.6838848" lon="7.9075209"><ele>192.33333333333331</ele><time>2026-05-03T16:31:07.097Z</time></trkpt><trkpt lat="44.683803" lon="7.9073126"><ele>192.66666666666666</ele><time>2026-05-03T16:31:08.098Z</time></trkpt><trkpt lat="44.6837203" lon="7.9070901"><ele>193.0</ele><time>2026-05-03T16:31:09.098Z</time></trkpt><trkpt lat="44.6836598" lon="7.9068452"><ele>193.33333333333331</ele><time>2026-05-03T16:31:10.098Z</time></trkpt><trkpt lat="44.6836274" lon="7.9065979"><ele>193.66666666666669</ele><time>2026-05-03T16:31:11.097Z</time></trkpt><trkpt lat="44.6836003" lon="7.9063419"><ele>194.0</ele><time>2026-05-03T16:31:12.098Z</time></trkpt><trkpt lat="44.6835945" lon="7.9060824"><ele>193.66666666666669</ele><time>2026-05-03T16:31:13.097Z</time></trkpt><trkpt lat="44.6836021" lon="7.9058067"><ele>193.33333333333331</ele><time>2026-05-03T16:31:14.098Z</time></trkpt><trkpt lat="44.6836213" lon="7.905536"><ele>193.0</ele><time>2026-05-03T16:31:15.098Z</time></trkpt><trkpt lat="44.6836319" lon="7.9052662"><ele>193.33333333333331</ele><time>2026-05-03T16:31:16.098Z</time></trkpt><trkpt lat="44.6836532" lon="7.9049919"><ele>193.66666666666669</ele><time>2026-05-03T16:31:17.097Z</time></trkpt><trkpt lat="44.6836655" lon="7.9047572"><ele>194.0</ele><time>2026-05-03T16:31:18.097Z</time></trkpt><trkpt lat="44.6836837" lon="7.9045307"><ele>194.0</ele><time>2026-05-03T16:31:19.098Z</time></trkpt><trkpt lat="44.6837033" lon="7.9043001"><ele>194.0</ele><time>2026-05-03T16:31:20.098Z</time></trkpt><trkpt lat="44.6837245" lon="7.9040857"><ele>194.0</ele><time>2026-05-03T16:31:21.098Z</time></trkpt><trkpt lat="44.6837478" lon="7.9038996"><ele>194.33333333333334</ele><time>2026-05-03T16:31:22.098Z</time></trkpt><trkpt lat="44.6837584" lon="7.903647"><ele>194.66666666666669</ele><time>2026-05-03T16:31:23.097Z</time></trkpt><trkpt lat="44.6837891" lon="7.9033934"><ele>195.0</ele><time>2026-05-03T16:31:24.098Z</time></trkpt><trkpt lat="44.6838033" lon="7.9031421"><ele>195.0</ele><time>2026-05-03T16:31:25.097Z</time></trkpt><trkpt lat="44.6838178" lon="7.902913"><ele>195.0</ele><time>2026-05-03T16:31:26.097Z</time></trkpt><trkpt lat="44.6838193" lon="7.9026797"><ele>195.0</ele><time>2026-05-03T16:31:27.098Z</time></trkpt><trkpt lat="44.6838275" lon="7.9024466"><ele>195.0</ele><time>2026-05-03T16:31:28.097Z</time></trkpt><trkpt lat="44.6838426" lon="7.9022116"><ele>195.0</ele><time>2026-05-03T16:31:29.098Z</time></trkpt><trkpt lat="44.6838674" lon="7.9019688"><ele>195.0</ele><time>2026-05-03T16:31:30.098Z</time></trkpt><trkpt lat="44.6838907" lon="7.9017359"><ele>195.0</ele><time>2026-05-03T16:31:31.098Z</time></trkpt><trkpt lat="44.683916" lon="7.9015048"><ele>195.0</ele><time>2026-05-03T16:31:32.098Z</time></trkpt><trkpt lat="44.6839257" lon="7.901272"><ele>195.0</ele><time>2026-05-03T16:31:33.098Z</time></trkpt><trkpt lat="44.6839451" lon="7.9010731"><ele>195.0</ele><time>2026-05-03T16:31:34.097Z</time></trkpt><trkpt lat="44.6839622" lon="7.9008596"><ele>195.0</ele><time>2026-05-03T16:31:35.098Z</time></trkpt><trkpt lat="44.6839832" lon="7.900646"><ele>195.0</ele><time>2026-05-03T16:31:36.098Z</time></trkpt><trkpt lat="44.6840111" lon="7.9004443"><ele>195.0</ele><time>2026-05-03T16:31:37.097Z</time></trkpt><trkpt lat="44.6840435" lon="7.9002602"><ele>195.0</ele><time>2026-05-03T16:31:38.098Z</time></trkpt><trkpt lat="44.6840766" lon="7.9000479"><ele>195.0</ele><time>2026-05-03T16:31:39.098Z</time></trkpt><trkpt lat="44.6841035" lon="7.8998609"><ele>195.0</ele><time>2026-05-03T16:31:40.098Z</time></trkpt><trkpt lat="44.6841543" lon="7.8996766"><ele>195.25</ele><time>2026-05-03T16:31:41.098Z</time></trkpt><trkpt lat="44.6841812" lon="7.8995048"><ele>195.5</ele><time>2026-05-03T16:31:42.098Z</time></trkpt><trkpt lat="44.6842365" lon="7.8993108"><ele>195.75</ele><time>2026-05-03T16:31:43.098Z</time></trkpt><trkpt lat="44.6842918" lon="7.8991814"><ele>196.0</ele><time>2026-05-03T16:31:44.097Z</time></trkpt><trkpt lat="44.6843255" lon="7.8990449"><ele>196.0</ele><time>2026-05-03T16:31:45.098Z</time></trkpt><trkpt lat="44.6843701" lon="7.8989084"><ele>196.0</ele><time>2026-05-03T16:31:46.098Z</time></trkpt><trkpt lat="44.6844126" lon="7.8987657"><ele>196.0</ele><time>2026-05-03T16:31:47.098Z</time></trkpt><trkpt lat="44.6844536" lon="7.8986405"><ele>196.0</ele><time>2026-05-03T16:31:48.098Z</time></trkpt><trkpt lat="44.6844938" lon="7.8985081"><ele>196.0</ele><time>2026-05-03T16:31:49.098Z</time></trkpt><trkpt lat="44.6845391" lon="7.8984015"><ele>196.49999999999997</ele><time>2026-05-03T16:31:50.097Z</time></trkpt><trkpt lat="44.6845883" lon="7.8982901"><ele>197.0</ele><time>2026-05-03T16:31:51.098Z</time></trkpt><trkpt lat="44.6846252" lon="7.8982014"><ele>197.5</ele><time>2026-05-03T16:31:52.098Z</time></trkpt><trkpt lat="44.6846693" lon="7.8980967"><ele>198.0</ele><time>2026-05-03T16:31:53.098Z</time></trkpt><trkpt lat="44.6847191" lon="7.8979965"><ele>198.49999999999997</ele><time>2026-05-03T16:31:54.098Z</time></trkpt><trkpt lat="44.6847773" lon="7.8978944"><ele>199.0</ele><time>2026-05-03T16:31:55.098Z</time></trkpt><trkpt lat="44.6848495" lon="7.8977812"><ele>199.0</ele><time>2026-05-03T16:31:56.098Z</time></trkpt><trkpt lat="44.6849129" lon="7.8976926"><ele>199.0</ele><time>2026-05-03T16:31:57.098Z</time></trkpt><trkpt lat="44.6849802" lon="7.8975975"><ele>199.0</ele><time>2026-05-03T16:31:58.097Z</time></trkpt><trkpt lat="44.6850563" lon="7.8975076"><ele>199.0</ele><time>2026-05-03T16:31:59.098Z</time></trkpt><trkpt lat="44.6851364" lon="7.897423"><ele>199.0</ele><time>2026-05-03T16:32:00.098Z</time></trkpt><trkpt lat="44.6851939" lon="7.8973478"><ele>199.79999999999998</ele><time>2026-05-03T16:32:01.098Z</time></trkpt><trkpt lat="44.685269" lon="7.8972817"><ele>200.6</ele><time>2026-05-03T16:32:02.097Z</time></trkpt><trkpt lat="44.6853497" lon="7.8972221"><ele>201.4</ele><time>2026-05-03T16:32:03.098Z</time></trkpt><trkpt lat="44.6854301" lon="7.8971399"><ele>202.2</ele><time>2026-05-03T16:32:04.098Z</time></trkpt><trkpt lat="44.6855079" lon="7.897059"><ele>203.0</ele><time>2026-05-03T16:32:05.098Z</time></trkpt><trkpt lat="44.6855819" lon="7.8969886"><ele>203.00000000000003</ele><time>2026-05-03T16:32:06.098Z</time></trkpt><trkpt lat="44.68567" lon="7.8969037"><ele>203.0</ele><time>2026-05-03T16:32:07.098Z</time></trkpt><trkpt lat="44.6857501" lon="7.8968316"><ele>203.0</ele><time>2026-05-03T16:32:08.097Z</time></trkpt><trkpt lat="44.6858262" lon="7.8967692"><ele>203.0</ele><time>2026-05-03T16:32:09.098Z</time></trkpt><trkpt lat="44.6858973" lon="7.8967282"><ele>203.00000000000003</ele><time>2026-05-03T16:32:10.098Z</time></trkpt><trkpt lat="44.6859637" lon="7.8966634"><ele>203.0</ele><time>2026-05-03T16:32:11.098Z</time></trkpt><trkpt lat="44.6860764" lon="7.8965687"><ele>202.83333333333334</ele><time>2026-05-03T16:32:13.098Z</time></trkpt><trkpt lat="44.6861372" lon="7.896524"><ele>202.66666666666669</ele><time>2026-05-03T16:32:14.097Z</time></trkpt><trkpt lat="44.6861982" lon="7.8964789"><ele>202.5</ele><time>2026-05-03T16:32:15.097Z</time></trkpt><trkpt lat="44.6863107" lon="7.8964117"><ele>202.33333333333331</ele><time>2026-05-03T16:32:17.098Z</time></trkpt><trkpt lat="44.6863736" lon="7.8963849"><ele>202.16666666666666</ele><time>2026-05-03T16:32:18.098Z</time></trkpt><trkpt lat="44.6864635" lon="7.8963356"><ele>202.0</ele><time>2026-05-03T16:32:19.098Z</time></trkpt><trkpt lat="44.6865595" lon="7.896322"><ele>201.99999999999997</ele><time>2026-05-03T16:32:20.098Z</time></trkpt><trkpt lat="44.686635" lon="7.8962991"><ele>202.0</ele><time>2026-05-03T16:32:21.098Z</time></trkpt><trkpt lat="44.6867261" lon="7.8962666"><ele>202.0</ele><time>2026-05-03T16:32:22.097Z</time></trkpt><trkpt lat="44.6868039" lon="7.8962392"><ele>202.0</ele><time>2026-05-03T16:32:23.097Z</time></trkpt><trkpt lat="44.6868795" lon="7.896182"><ele>201.99999999999997</ele><time>2026-05-03T16:32:24.098Z</time></trkpt><trkpt lat="44.6869467" lon="7.8961069"><ele>202.0</ele><time>2026-05-03T16:32:25.098Z</time></trkpt><trkpt lat="44.6870173" lon="7.8959933"><ele>201.75</ele><time>2026-05-03T16:32:26.098Z</time></trkpt><trkpt lat="44.6870848" lon="7.8959045"><ele>201.5</ele><time>2026-05-03T16:32:27.098Z</time></trkpt><trkpt lat="44.6871739" lon="7.8957943"><ele>201.25</ele><time>2026-05-03T16:32:28.098Z</time></trkpt><trkpt lat="44.6872735" lon="7.8956512"><ele>201.0</ele><time>2026-05-03T16:32:29.098Z</time></trkpt><trkpt lat="44.6873668" lon="7.8955679"><ele>201.0</ele><time>2026-05-03T16:32:30.098Z</time></trkpt><trkpt lat="44.6874882" lon="7.8954872"><ele>201.0</ele><time>2026-05-03T16:32:31.098Z</time></trkpt><trkpt lat="44.6876197" lon="7.895396"><ele>201.0</ele><time>2026-05-03T16:32:32.098Z</time></trkpt><trkpt lat="44.6877313" lon="7.8952578"><ele>201.0</ele><time>2026-05-03T16:32:33.098Z</time></trkpt><trkpt lat="44.6878567" lon="7.8951503"><ele>201.66666666666669</ele><time>2026-05-03T16:32:34.098Z</time></trkpt><trkpt lat="44.687998" lon="7.8949946"><ele>202.33333333333334</ele><time>2026-05-03T16:32:35.097Z</time></trkpt><trkpt lat="44.6881155" lon="7.8948941"><ele>203.0</ele><time>2026-05-03T16:32:36.098Z</time></trkpt><trkpt lat="44.6882551" lon="7.8947812"><ele>203.0</ele><time>2026-05-03T16:32:37.098Z</time></trkpt><trkpt lat="44.688394" lon="7.8946539"><ele>203.0</ele><time>2026-05-03T16:32:38.098Z</time></trkpt><trkpt lat="44.6885295" lon="7.8945357"><ele>203.0</ele><time>2026-05-03T16:32:39.098Z</time></trkpt><trkpt lat="44.6886682" lon="7.8944093"><ele>203.66666666666669</ele><time>2026-05-03T16:32:40.098Z</time></trkpt><trkpt lat="44.6888068" lon="7.8942751"><ele>204.33333333333331</ele><time>2026-05-03T16:32:41.098Z</time></trkpt><trkpt lat="44.6889364" lon="7.8941546"><ele>205.0</ele><time>2026-05-03T16:32:42.098Z</time></trkpt><trkpt lat="44.6890572" lon="7.8940273"><ele>205.0</ele><time>2026-05-03T16:32:43.098Z</time></trkpt><trkpt lat="44.6891945" lon="7.8939428"><ele>205.0</ele><time>2026-05-03T16:32:44.098Z</time></trkpt><trkpt lat="44.6893155" lon="7.8938469"><ele>205.0</ele><time>2026-05-03T16:32:45.098Z</time></trkpt><trkpt lat="44.6894342" lon="7.8937433"><ele>205.0</ele><time>2026-05-03T16:32:46.097Z</time></trkpt><trkpt lat="44.6895435" lon="7.8936153"><ele>205.0</ele><time>2026-05-03T16:32:47.098Z</time></trkpt><trkpt lat="44.6896506" lon="7.8934725"><ele>205.0</ele><time>2026-05-03T16:32:48.097Z</time></trkpt><trkpt lat="44.6897474" lon="7.8933477"><ele>205.0</ele><time>2026-05-03T16:32:49.098Z</time></trkpt><trkpt lat="44.6898647" lon="7.8932589"><ele>205.0</ele><time>2026-05-03T16:32:50.098Z</time></trkpt><trkpt lat="44.6899771" lon="7.8931901"><ele>205.0</ele><time>2026-05-03T16:32:51.098Z</time></trkpt><trkpt lat="44.6900818" lon="7.8931191"><ele>205.0</ele><time>2026-05-03T16:32:52.098Z</time></trkpt><trkpt lat="44.6901751" lon="7.8930383"><ele>205.0</ele><time>2026-05-03T16:32:53.098Z</time></trkpt><trkpt lat="44.6902665" lon="7.8929342"><ele>205.0</ele><time>2026-05-03T16:32:54.097Z</time></trkpt><trkpt lat="44.6903594" lon="7.8928314"><ele>205.5</ele><time>2026-05-03T16:32:55.098Z</time></trkpt><trkpt lat="44.6904782" lon="7.8927609"><ele>206.0</ele><time>2026-05-03T16:32:56.098Z</time></trkpt><trkpt lat="44.6905869" lon="7.8926965"><ele>206.5</ele><time>2026-05-03T16:32:57.098Z</time></trkpt><trkpt lat="44.69068" lon="7.8926227"><ele>207.0</ele><time>2026-05-03T16:32:58.098Z</time></trkpt><trkpt lat="44.6907838" lon="7.8925545"><ele>207.0</ele><time>2026-05-03T16:32:59.098Z</time></trkpt><trkpt lat="44.6908864" lon="7.8924866"><ele>207.0</ele><time>2026-05-03T16:33:00.098Z</time></trkpt><trkpt lat="44.6909957" lon="7.8924173"><ele>207.0</ele><time>2026-05-03T16:33:01.097Z</time></trkpt><trkpt lat="44.6911035" lon="7.892328"><ele>207.0</ele><time>2026-05-03T16:33:02.098Z</time></trkpt><trkpt lat="44.6912058" lon="7.8922593"><ele>206.75</ele><time>2026-05-03T16:33:03.098Z</time></trkpt><trkpt lat="44.691321" lon="7.8921425"><ele>206.5</ele><time>2026-05-03T16:33:04.097Z</time></trkpt><trkpt lat="44.6914215" lon="7.8920437"><ele>206.25</ele><time>2026-05-03T16:33:05.097Z</time></trkpt><trkpt lat="44.6915291" lon="7.8919634"><ele>206.0</ele><time>2026-05-03T16:33:06.098Z</time></trkpt><trkpt lat="44.6916435" lon="7.8918735"><ele>206.0</ele><time>2026-05-03T16:33:07.098Z</time></trkpt><trkpt lat="44.6917659" lon="7.8917749"><ele>206.0</ele><time>2026-05-03T16:33:08.098Z</time></trkpt><trkpt lat="44.6918808" lon="7.8916708"><ele>206.0</ele><time>2026-05-03T16:33:09.097Z</time></trkpt><trkpt lat="44.6920157" lon="7.8915419"><ele>206.0</ele><time>2026-05-03T16:33:10.098Z</time></trkpt><trkpt lat="44.6921441" lon="7.8914236"><ele>206.33333333333334</ele><time>2026-05-03T16:33:11.098Z</time></trkpt><trkpt lat="44.6922883" lon="7.8912971"><ele>206.66666666666669</ele><time>2026-05-03T16:33:12.098Z</time></trkpt><trkpt lat="44.6924223" lon="7.891172"><ele>207.0</ele><time>2026-05-03T16:33:13.098Z</time></trkpt><trkpt lat="44.6925796" lon="7.8910166"><ele>207.66666666666669</ele><time>2026-05-03T16:33:14.098Z</time></trkpt><trkpt lat="44.6927667" lon="7.8908787"><ele>208.33333333333334</ele><time>2026-05-03T16:33:15.098Z</time></trkpt><trkpt lat="44.6929351" lon="7.8907444"><ele>209.0</ele><time>2026-05-03T16:33:16.098Z</time></trkpt><trkpt lat="44.6931049" lon="7.8906104"><ele>209.0</ele><time>2026-05-03T16:33:17.098Z</time></trkpt><trkpt lat="44.6932653" lon="7.8904731"><ele>209.0</ele><time>2026-05-03T16:33:18.097Z</time></trkpt><trkpt lat="44.693432" lon="7.8903362"><ele>209.0</ele><time>2026-05-03T16:33:19.098Z</time></trkpt><trkpt lat="44.693616" lon="7.8901877"><ele>211.0</ele><time>2026-05-03T16:33:20.097Z</time></trkpt><trkpt lat="44.6938193" lon="7.8900256"><ele>213.0</ele><time>2026-05-03T16:33:21.098Z</time></trkpt><trkpt lat="44.6940164" lon="7.8898634"><ele>213.0</ele><time>2026-05-03T16:33:22.098Z</time></trkpt><trkpt lat="44.6942058" lon="7.8897118"><ele>213.0</ele><time>2026-05-03T16:33:23.098Z</time></trkpt><trkpt lat="44.6944085" lon="7.8895402"><ele>212.66666666666669</ele><time>2026-05-03T16:33:24.098Z</time></trkpt><trkpt lat="44.6945803" lon="7.8893916"><ele>212.33333333333334</ele><time>2026-05-03T16:33:25.098Z</time></trkpt><trkpt lat="44.6947423" lon="7.8892628"><ele>212.0</ele><time>2026-05-03T16:33:26.098Z</time></trkpt><trkpt lat="44.6949066" lon="7.889137"><ele>212.0</ele><time>2026-05-03T16:33:27.098Z</time></trkpt><trkpt lat="44.6950719" lon="7.8890011"><ele>212.0</ele><time>2026-05-03T16:33:28.098Z</time></trkpt><trkpt lat="44.6952267" lon="7.8888641"><ele>212.0</ele><time>2026-05-03T16:33:29.098Z</time></trkpt><trkpt lat="44.6953824" lon="7.8887378"><ele>213.33333333333334</ele><time>2026-05-03T16:33:30.098Z</time></trkpt><trkpt lat="44.6955264" lon="7.8886188"><ele>214.66666666666669</ele><time>2026-05-03T16:33:31.098Z</time></trkpt><trkpt lat="44.6956641" lon="7.8884963"><ele>216.0</ele><time>2026-05-03T16:33:32.098Z</time></trkpt><trkpt lat="44.695793" lon="7.8883945"><ele>216.0</ele><time>2026-05-03T16:33:33.098Z</time></trkpt><trkpt lat="44.6959156" lon="7.8882972"><ele>216.0</ele><time>2026-05-03T16:33:34.098Z</time></trkpt><trkpt lat="44.6960222" lon="7.8882008"><ele>216.0</ele><time>2026-05-03T16:33:35.098Z</time></trkpt><trkpt lat="44.696128" lon="7.888116"><ele>216.0</ele><time>2026-05-03T16:33:36.098Z</time></trkpt><trkpt lat="44.6962235" lon="7.8880283"><ele>216.16666666666666</ele><time>2026-05-03T16:33:37.098Z</time></trkpt><trkpt lat="44.6963366" lon="7.8879429"><ele>216.33333333333331</ele><time>2026-05-03T16:33:38.098Z</time></trkpt><trkpt lat="44.6964294" lon="7.8878784"><ele>216.5</ele><time>2026-05-03T16:33:39.098Z</time></trkpt><trkpt lat="44.6964975" lon="7.8878294"><ele>216.66666666666666</ele><time>2026-05-03T16:33:40.098Z</time></trkpt><trkpt lat="44.6965598" lon="7.8877907"><ele>216.83333333333331</ele><time>2026-05-03T16:33:41.098Z</time></trkpt><trkpt lat="44.6966133" lon="7.8877428"><ele>217.0</ele><time>2026-05-03T16:33:42.098Z</time></trkpt><trkpt lat="44.6966708" lon="7.887692"><ele>216.99999999999997</ele><time>2026-05-03T16:33:43.098Z</time></trkpt><trkpt lat="44.6967396" lon="7.8876273"><ele>217.0</ele><time>2026-05-03T16:33:44.097Z</time></trkpt><trkpt lat="44.6968078" lon="7.8875673"><ele>217.0</ele><time>2026-05-03T16:33:45.098Z</time></trkpt><trkpt lat="44.696904" lon="7.8874719"><ele>217.0</ele><time>2026-05-03T16:33:47.097Z</time></trkpt><trkpt lat="44.6969771" lon="7.8874033"><ele>216.99999999999997</ele><time>2026-05-03T16:33:50.098Z</time></trkpt><trkpt lat="44.6970421" lon="7.8873679"><ele>217.0</ele><time>2026-05-03T16:33:53.098Z</time></trkpt><trkpt lat="44.6971762" lon="7.8873106"><ele>217.39999999999998</ele><time>2026-05-03T16:33:55.097Z</time></trkpt><trkpt lat="44.6972711" lon="7.8872811"><ele>217.79999999999998</ele><time>2026-05-03T16:33:56.098Z</time></trkpt><trkpt lat="44.6973725" lon="7.8872321"><ele>218.2</ele><time>2026-05-03T16:33:57.098Z</time></trkpt><trkpt lat="44.6974816" lon="7.887211"><ele>218.6</ele><time>2026-05-03T16:33:58.098Z</time></trkpt><trkpt lat="44.6975935" lon="7.887173"><ele>219.0</ele><time>2026-05-03T16:33:59.097Z</time></trkpt><trkpt lat="44.6977238" lon="7.8871278"><ele>218.75</ele><time>2026-05-03T16:34:00.097Z</time></trkpt><trkpt lat="44.697862" lon="7.88709"><ele>218.5</ele><time>2026-05-03T16:34:01.098Z</time></trkpt><trkpt lat="44.6979886" lon="7.8870621"><ele>218.25</ele><time>2026-05-03T16:34:02.098Z</time></trkpt><trkpt lat="44.6981429" lon="7.886985"><ele>218.0</ele><time>2026-05-03T16:34:03.098Z</time></trkpt><trkpt lat="44.6982955" lon="7.8869303"><ele>218.0</ele><time>2026-05-03T16:34:04.098Z</time></trkpt><trkpt lat="44.6984358" lon="7.8868242"><ele>218.0</ele><time>2026-05-03T16:34:05.098Z</time></trkpt><trkpt lat="44.6985897" lon="7.886738"><ele>218.0</ele><time>2026-05-03T16:34:06.098Z</time></trkpt><trkpt lat="44.6987276" lon="7.8866371"><ele>218.66666666666669</ele><time>2026-05-03T16:34:07.098Z</time></trkpt><trkpt lat="44.6988797" lon="7.8865278"><ele>219.33333333333331</ele><time>2026-05-03T16:34:08.098Z</time></trkpt><trkpt lat="44.6990303" lon="7.8864215"><ele>220.0</ele><time>2026-05-03T16:34:09.098Z</time></trkpt><trkpt lat="44.6991889" lon="7.8863003"><ele>220.0</ele><time>2026-05-03T16:34:10.098Z</time></trkpt><trkpt lat="44.699358" lon="7.8861805"><ele>220.0</ele><time>2026-05-03T16:34:11.098Z</time></trkpt><trkpt lat="44.6995087" lon="7.8861044"><ele>220.0</ele><time>2026-05-03T16:34:12.098Z</time></trkpt><trkpt lat="44.6996542" lon="7.8860097"><ele>220.25</ele><time>2026-05-03T16:34:13.098Z</time></trkpt><trkpt lat="44.6997875" lon="7.8859294"><ele>220.5</ele><time>2026-05-03T16:34:14.097Z</time></trkpt><trkpt lat="44.6999156" lon="7.8858665"><ele>220.75</ele><time>2026-05-03T16:34:15.098Z</time></trkpt><trkpt lat="44.7000363" lon="7.8858412"><ele>221.0</ele><time>2026-05-03T16:34:16.098Z</time></trkpt><trkpt lat="44.7001639" lon="7.8858047"><ele>221.33333333333334</ele><time>2026-05-03T16:34:17.098Z</time></trkpt><trkpt lat="44.7002566" lon="7.8858119"><ele>221.66666666666669</ele><time>2026-05-03T16:34:18.098Z</time></trkpt><trkpt lat="44.7003272" lon="7.8858071"><ele>222.0</ele><time>2026-05-03T16:34:19.098Z</time></trkpt><trkpt lat="44.7003955" lon="7.8858015"><ele>222.33333333333331</ele><time>2026-05-03T16:34:20.098Z</time></trkpt><trkpt lat="44.7005032" lon="7.8857363"><ele>222.66666666666666</ele><time>2026-05-03T16:34:22.097Z</time></trkpt><trkpt lat="44.7005227" lon="7.8856221"><ele>223.0</ele><time>2026-05-03T16:34:23.098Z</time></trkpt><trkpt lat="44.7005738" lon="7.8855162"><ele>223.0</ele><time>2026-05-03T16:34:24.097Z</time></trkpt><trkpt lat="44.7006352" lon="7.8854227"><ele>223.0</ele><time>2026-05-03T16:34:25.098Z</time></trkpt><trkpt lat="44.7007006" lon="7.8853607"><ele>223.0</ele><time>2026-05-03T16:34:26.098Z</time></trkpt><trkpt lat="44.7008191" lon="7.8851683"><ele>223.0</ele><time>2026-05-03T16:34:27.098Z</time></trkpt><trkpt lat="44.7009266" lon="7.8850288"><ele>223.0</ele><time>2026-05-03T16:34:28.098Z</time></trkpt><trkpt lat="44.7010534" lon="7.884893"><ele>223.0</ele><time>2026-05-03T16:34:29.098Z</time></trkpt><trkpt lat="44.7011747" lon="7.8847464"><ele>223.0</ele><time>2026-05-03T16:34:30.098Z</time></trkpt><trkpt lat="44.7013078" lon="7.8846047"><ele>223.0</ele><time>2026-05-03T16:34:31.098Z</time></trkpt><trkpt lat="44.7014445" lon="7.8844355"><ele>223.0</ele><time>2026-05-03T16:34:32.097Z</time></trkpt><trkpt lat="44.7015564" lon="7.8842874"><ele>223.0</ele><time>2026-05-03T16:34:33.098Z</time></trkpt><trkpt lat="44.701673" lon="7.8841171"><ele>223.33333333333331</ele><time>2026-05-03T16:34:34.098Z</time></trkpt><trkpt lat="44.7017967" lon="7.883961"><ele>223.66666666666669</ele><time>2026-05-03T16:34:35.098Z</time></trkpt><trkpt lat="44.7019171" lon="7.8838017"><ele>224.0</ele><time>2026-05-03T16:34:36.098Z</time></trkpt><trkpt lat="44.7020387" lon="7.8836463"><ele>224.0</ele><time>2026-05-03T16:34:37.098Z</time></trkpt><trkpt lat="44.7021546" lon="7.8834901"><ele>224.0</ele><time>2026-05-03T16:34:38.098Z</time></trkpt><trkpt lat="44.7022717" lon="7.8833473"><ele>224.0</ele><time>2026-05-03T16:34:39.098Z</time></trkpt><trkpt lat="44.7023878" lon="7.8832067"><ele>224.66666666666669</ele><time>2026-05-03T16:34:40.097Z</time></trkpt><trkpt lat="44.7025" lon="7.8830649"><ele>225.33333333333331</ele><time>2026-05-03T16:34:41.098Z</time></trkpt><trkpt lat="44.7026207" lon="7.8829239"><ele>226.0</ele><time>2026-05-03T16:34:42.098Z</time></trkpt><trkpt lat="44.7027341" lon="7.8827662"><ele>225.66666666666666</ele><time>2026-05-03T16:34:43.098Z</time></trkpt><trkpt lat="44.7028587" lon="7.8826168"><ele>225.33333333333331</ele><time>2026-05-03T16:34:44.098Z</time></trkpt><trkpt lat="44.702978" lon="7.8824627"><ele>225.0</ele><time>2026-05-03T16:34:45.098Z</time></trkpt><trkpt lat="44.7030953" lon="7.8823047"><ele>225.66666666666669</ele><time>2026-05-03T16:34:46.098Z</time></trkpt><trkpt lat="44.7032301" lon="7.8821653"><ele>226.33333333333334</ele><time>2026-05-03T16:34:47.098Z</time></trkpt><trkpt lat="44.7033443" lon="7.8820217"><ele>227.0</ele><time>2026-05-03T16:34:48.098Z</time></trkpt><trkpt lat="44.7034533" lon="7.881877"><ele>227.66666666666669</ele><time>2026-05-03T16:34:49.097Z</time></trkpt><trkpt lat="44.7035751" lon="7.8817552"><ele>228.33333333333331</ele><time>2026-05-03T16:34:50.098Z</time></trkpt><trkpt lat="44.7037091" lon="7.8816369"><ele>229.0</ele><time>2026-05-03T16:34:51.098Z</time></trkpt><trkpt lat="44.7038565" lon="7.8815199"><ele>229.0</ele><time>2026-05-03T16:34:52.098Z</time></trkpt><trkpt lat="44.703993" lon="7.8814067"><ele>229.0</ele><time>2026-05-03T16:34:53.098Z</time></trkpt><trkpt lat="44.7041478" lon="7.8812995"><ele>229.0</ele><time>2026-05-03T16:34:54.098Z</time></trkpt><trkpt lat="44.7043086" lon="7.8811966"><ele>229.66666666666666</ele><time>2026-05-03T16:34:55.098Z</time></trkpt><trkpt lat="44.7044756" lon="7.8810694"><ele>230.33333333333331</ele><time>2026-05-03T16:34:56.098Z</time></trkpt><trkpt lat="44.7046351" lon="7.8809435"><ele>231.0</ele><time>2026-05-03T16:34:57.097Z</time></trkpt><trkpt lat="44.7047895" lon="7.8808009"><ele>231.0</ele><time>2026-05-03T16:34:58.098Z</time></trkpt><trkpt lat="44.704946" lon="7.8806398"><ele>231.0</ele><time>2026-05-03T16:34:59.098Z</time></trkpt><trkpt lat="44.7050945" lon="7.8804839"><ele>231.0</ele><time>2026-05-03T16:35:00.097Z</time></trkpt><trkpt lat="44.705256" lon="7.8803298"><ele>231.0</ele><time>2026-05-03T16:35:01.098Z</time></trkpt><trkpt lat="44.7054122" lon="7.8801865"><ele>231.0</ele><time>2026-05-03T16:35:02.098Z</time></trkpt><trkpt lat="44.7055736" lon="7.8800363"><ele>231.0</ele><time>2026-05-03T16:35:03.098Z</time></trkpt><trkpt lat="44.7057338" lon="7.8798847"><ele>230.66666666666669</ele><time>2026-05-03T16:35:04.098Z</time></trkpt><trkpt lat="44.705895" lon="7.8797326"><ele>230.33333333333334</ele><time>2026-05-03T16:35:05.098Z</time></trkpt><trkpt lat="44.7060481" lon="7.8795952"><ele>230.0</ele><time>2026-05-03T16:35:06.097Z</time></trkpt><trkpt lat="44.7061872" lon="7.8794725"><ele>231.0</ele><time>2026-05-03T16:35:07.098Z</time></trkpt><trkpt lat="44.706314" lon="7.8793606"><ele>232.0</ele><time>2026-05-03T16:35:08.098Z</time></trkpt><trkpt lat="44.706432" lon="7.8792804"><ele>233.0</ele><time>2026-05-03T16:35:09.097Z</time></trkpt><trkpt lat="44.7065625" lon="7.8792001"><ele>234.0</ele><time>2026-05-03T16:35:10.097Z</time></trkpt><trkpt lat="44.706688" lon="7.8792132"><ele>234.25</ele><time>2026-05-03T16:35:11.098Z</time></trkpt><trkpt lat="44.7068053" lon="7.8792376"><ele>234.5</ele><time>2026-05-03T16:35:12.098Z</time></trkpt><trkpt lat="44.706929" lon="7.8792922"><ele>234.75</ele><time>2026-05-03T16:35:13.098Z</time></trkpt><trkpt lat="44.7070495" lon="7.8793454"><ele>235.0</ele><time>2026-05-03T16:35:14.098Z</time></trkpt><trkpt lat="44.7071636" lon="7.8793894"><ele>235.33333333333331</ele><time>2026-05-03T16:35:15.098Z</time></trkpt><trkpt lat="44.7073383" lon="7.8793937"><ele>235.66666666666669</ele><time>2026-05-03T16:35:16.097Z</time></trkpt><trkpt lat="44.7074735" lon="7.8794071"><ele>236.0</ele><time>2026-05-03T16:35:17.098Z</time></trkpt><trkpt lat="44.7076177" lon="7.8794008"><ele>236.66666666666669</ele><time>2026-05-03T16:35:18.097Z</time></trkpt><trkpt lat="44.7077772" lon="7.8793551"><ele>237.33333333333331</ele><time>2026-05-03T16:35:19.098Z</time></trkpt><trkpt lat="44.7079488" lon="7.8792731"><ele>238.0</ele><time>2026-05-03T16:35:20.098Z</time></trkpt><trkpt lat="44.7081309" lon="7.8791649"><ele>239.0</ele><time>2026-05-03T16:35:21.098Z</time></trkpt><trkpt lat="44.7082973" lon="7.8790863"><ele>240.0</ele><time>2026-05-03T16:35:22.097Z</time></trkpt><trkpt lat="44.708418" lon="7.8790271"><ele>241.0</ele><time>2026-05-03T16:35:23.098Z</time></trkpt><trkpt lat="44.7085432" lon="7.8789551"><ele>242.0</ele><time>2026-05-03T16:35:24.098Z</time></trkpt><trkpt lat="44.7086693" lon="7.8788575"><ele>242.0</ele><time>2026-05-03T16:35:25.098Z</time></trkpt><trkpt lat="44.7088039" lon="7.8787726"><ele>242.0</ele><time>2026-05-03T16:35:26.098Z</time></trkpt><trkpt lat="44.7089364" lon="7.8786413"><ele>242.0</ele><time>2026-05-03T16:35:27.098Z</time></trkpt><trkpt lat="44.7090398" lon="7.8785204"><ele>242.0</ele><time>2026-05-03T16:35:28.098Z</time></trkpt><trkpt lat="44.7091223" lon="7.8784208"><ele>244.0</ele><time>2026-05-03T16:35:29.098Z</time></trkpt><trkpt lat="44.7092113" lon="7.8783389"><ele>246.0</ele><time>2026-05-03T16:35:30.098Z</time></trkpt><trkpt lat="44.7092731" lon="7.8782762"><ele>248.0</ele><time>2026-05-03T16:35:31.097Z</time></trkpt><trkpt lat="44.7093592" lon="7.8781692"><ele>250.0</ele><time>2026-05-03T16:35:35.098Z</time></trkpt><trkpt lat="44.7094376" lon="7.8780726"><ele>252.0</ele><time>2026-05-03T16:35:37.097Z</time></trkpt><trkpt lat="44.7095019" lon="7.8780308"><ele>252.0</ele><time>2026-05-03T16:35:38.098Z</time></trkpt><trkpt lat="44.7095969" lon="7.878006"><ele>252.0</ele><time>2026-05-03T16:35:39.097Z</time></trkpt><trkpt lat="44.7096927" lon="7.8779764"><ele>252.0</ele><time>2026-05-03T16:35:40.097Z</time></trkpt><trkpt lat="44.7098386" lon="7.8779994"><ele>252.0</ele><time>2026-05-03T16:35:41.098Z</time></trkpt><trkpt lat="44.7099519" lon="7.8780339"><ele>252.0</ele><time>2026-05-03T16:35:42.098Z</time></trkpt><trkpt lat="44.7100647" lon="7.8780779"><ele>252.0</ele><time>2026-05-03T16:35:43.098Z</time></trkpt><trkpt lat="44.7101777" lon="7.8781371"><ele>252.0</ele><time>2026-05-03T16:35:44.098Z</time></trkpt><trkpt lat="44.7102791" lon="7.8781776"><ele>252.0</ele><time>2026-05-03T16:35:45.097Z</time></trkpt><trkpt lat="44.7103762" lon="7.8782067"><ele>252.0</ele><time>2026-05-03T16:35:46.098Z</time></trkpt><trkpt lat="44.7105033" lon="7.8781964"><ele>253.0</ele><time>2026-05-03T16:35:47.098Z</time></trkpt><trkpt lat="44.7106189" lon="7.8781849"><ele>254.0</ele><time>2026-05-03T16:35:48.098Z</time></trkpt><trkpt lat="44.710732" lon="7.8781154"><ele>255.0</ele><time>2026-05-03T16:35:49.098Z</time></trkpt><trkpt lat="44.7108416" lon="7.8780323"><ele>256.0</ele><time>2026-05-03T16:35:50.097Z</time></trkpt><trkpt lat="44.710947" lon="7.8779473"><ele>256.0</ele><time>2026-05-03T16:35:51.098Z</time></trkpt><trkpt lat="44.7110354" lon="7.8778962"><ele>256.0</ele><time>2026-05-03T16:35:52.098Z</time></trkpt><trkpt lat="44.7111456" lon="7.8778358"><ele>256.0</ele><time>2026-05-03T16:35:53.098Z</time></trkpt><trkpt lat="44.711261" lon="7.8778049"><ele>256.0</ele><time>2026-05-03T16:35:54.098Z</time></trkpt><trkpt lat="44.7113618" lon="7.8778178"><ele>256.0</ele><time>2026-05-03T16:35:55.097Z</time></trkpt><trkpt lat="44.7114707" lon="7.8778377"><ele>257.25</ele><time>2026-05-03T16:35:56.098Z</time></trkpt><trkpt lat="44.7115684" lon="7.8779639"><ele>258.5</ele><time>2026-05-03T16:35:57.098Z</time></trkpt><trkpt lat="44.7116697" lon="7.8780709"><ele>259.75</ele><time>2026-05-03T16:35:58.098Z</time></trkpt><trkpt lat="44.7117611" lon="7.8781847"><ele>261.0</ele><time>2026-05-03T16:35:59.098Z</time></trkpt><trkpt lat="44.7118522" lon="7.87827"><ele>263.0</ele><time>2026-05-03T16:36:00.098Z</time></trkpt><trkpt lat="44.7119717" lon="7.8783036"><ele>265.0</ele><time>2026-05-03T16:36:01.098Z</time></trkpt><trkpt lat="44.7120818" lon="7.8783261"><ele>267.0</ele><time>2026-05-03T16:36:02.098Z</time></trkpt><trkpt lat="44.7121953" lon="7.8783177"><ele>269.0</ele><time>2026-05-03T16:36:03.098Z</time></trkpt><trkpt lat="44.7123037" lon="7.8782744"><ele>269.0</ele><time>2026-05-03T16:36:04.098Z</time></trkpt><trkpt lat="44.7124013" lon="7.8782446"><ele>269.0</ele><time>2026-05-03T16:36:05.098Z</time></trkpt><trkpt lat="44.7125014" lon="7.8782372"><ele>269.0</ele><time>2026-05-03T16:36:06.098Z</time></trkpt><trkpt lat="44.7125989" lon="7.8782569"><ele>269.0</ele><time>2026-05-03T16:36:07.098Z</time></trkpt><trkpt lat="44.7127008" lon="7.878312"><ele>269.0</ele><time>2026-05-03T16:36:08.098Z</time></trkpt><trkpt lat="44.7127847" lon="7.8784132"><ele>270.0</ele><time>2026-05-03T16:36:09.097Z</time></trkpt><trkpt lat="44.7128542" lon="7.8785377"><ele>271.0</ele><time>2026-05-03T16:36:10.098Z</time></trkpt><trkpt lat="44.7129121" lon="7.8786802"><ele>272.0</ele><time>2026-05-03T16:36:11.098Z</time></trkpt><trkpt lat="44.7129489" lon="7.8788494"><ele>273.0</ele><time>2026-05-03T16:36:12.098Z</time></trkpt><trkpt lat="44.7129921" lon="7.8789959"><ele>273.0</ele><time>2026-05-03T16:36:13.098Z</time></trkpt><trkpt lat="44.7130474" lon="7.8791383"><ele>273.0</ele><time>2026-05-03T16:36:14.098Z</time></trkpt><trkpt lat="44.713122" lon="7.8792662"><ele>273.0</ele><time>2026-05-03T16:36:15.097Z</time></trkpt><trkpt lat="44.713227" lon="7.8793636"><ele>273.0</ele><time>2026-05-03T16:36:16.098Z</time></trkpt><trkpt lat="44.7133491" lon="7.879426"><ele>274.5</ele><time>2026-05-03T16:36:17.098Z</time></trkpt><trkpt lat="44.7134813" lon="7.8794526"><ele>276.0</ele><time>2026-05-03T16:36:18.098Z</time></trkpt><trkpt lat="44.7136164" lon="7.8794835"><ele>277.5</ele><time>2026-05-03T16:36:19.097Z</time></trkpt><trkpt lat="44.7137502" lon="7.8795406"><ele>279.0</ele><time>2026-05-03T16:36:20.098Z</time></trkpt><trkpt lat="44.7138378" lon="7.8796592"><ele>279.0</ele><time>2026-05-03T16:36:21.098Z</time></trkpt><trkpt lat="44.713917" lon="7.8797934"><ele>279.0</ele><time>2026-05-03T16:36:22.098Z</time></trkpt><trkpt lat="44.7139841" lon="7.8799476"><ele>279.0</ele><time>2026-05-03T16:36:23.098Z</time></trkpt><trkpt lat="44.7140526" lon="7.8801113"><ele>279.0</ele><time>2026-05-03T16:36:24.098Z</time></trkpt><trkpt lat="44.7141329" lon="7.8802783"><ele>277.25</ele><time>2026-05-03T16:36:25.098Z</time></trkpt><trkpt lat="44.7142001" lon="7.8804499"><ele>275.5</ele><time>2026-05-03T16:36:26.098Z</time></trkpt><trkpt lat="44.7142629" lon="7.8806222"><ele>273.75</ele><time>2026-05-03T16:36:27.098Z</time></trkpt><trkpt lat="44.7143053" lon="7.8808105"><ele>272.0</ele><time>2026-05-03T16:36:28.098Z</time></trkpt><trkpt lat="44.7143298" lon="7.881006"><ele>271.25</ele><time>2026-05-03T16:36:29.098Z</time></trkpt><trkpt lat="44.7143405" lon="7.8811946"><ele>270.5</ele><time>2026-05-03T16:36:30.098Z</time></trkpt><trkpt lat="44.7143399" lon="7.8813839"><ele>269.75</ele><time>2026-05-03T16:36:31.098Z</time></trkpt><trkpt lat="44.7143521" lon="7.8815659"><ele>269.0</ele><time>2026-05-03T16:36:32.098Z</time></trkpt><trkpt lat="44.7143789" lon="7.8817376"><ele>271.5</ele><time>2026-05-03T16:36:33.098Z</time></trkpt><trkpt lat="44.7144341" lon="7.881905"><ele>274.0</ele><time>2026-05-03T16:36:34.098Z</time></trkpt><trkpt lat="44.714505" lon="7.882052"><ele>276.5</ele><time>2026-05-03T16:36:35.098Z</time></trkpt><trkpt lat="44.7145889" lon="7.8821922"><ele>279.0</ele><time>2026-05-03T16:36:36.098Z</time></trkpt><trkpt lat="44.7147569" lon="7.8823855"><ele>279.0</ele><time>2026-05-03T16:36:37.098Z</time></trkpt><trkpt lat="44.7148957" lon="7.8825652"><ele>279.0</ele><time>2026-05-03T16:36:38.098Z</time></trkpt><trkpt lat="44.7150483" lon="7.8828001"><ele>279.0</ele><time>2026-05-03T16:36:39.098Z</time></trkpt><trkpt lat="44.7151813" lon="7.8829972"><ele>282.0</ele><time>2026-05-03T16:36:40.098Z</time></trkpt><trkpt lat="44.7153165" lon="7.8832166"><ele>285.0</ele><time>2026-05-03T16:36:41.098Z</time></trkpt><trkpt lat="44.7154053" lon="7.8833582"><ele>288.0</ele><time>2026-05-03T16:36:42.098Z</time></trkpt><trkpt lat="44.715512" lon="7.8835118"><ele>288.0</ele><time>2026-05-03T16:36:43.098Z</time></trkpt><trkpt lat="44.715597" lon="7.883636"><ele>288.0</ele><time>2026-05-03T16:36:44.098Z</time></trkpt><trkpt lat="44.7156778" lon="7.8837802"><ele>288.0</ele><time>2026-05-03T16:36:45.098Z</time></trkpt><trkpt lat="44.7157564" lon="7.8839259"><ele>288.0</ele><time>2026-05-03T16:36:46.097Z</time></trkpt><trkpt lat="44.7158163" lon="7.8840871"><ele>290.75</ele><time>2026-05-03T16:36:47.098Z</time></trkpt><trkpt lat="44.7158051" lon="7.8842844"><ele>293.5</ele><time>2026-05-03T16:36:48.098Z</time></trkpt><trkpt lat="44.7157862" lon="7.884463"><ele>296.25</ele><time>2026-05-03T16:36:49.098Z</time></trkpt><trkpt lat="44.7157463" lon="7.8846444"><ele>299.0</ele><time>2026-05-03T16:36:50.098Z</time></trkpt><trkpt lat="44.7156921" lon="7.8848151"><ele>299.0</ele><time>2026-05-03T16:36:51.098Z</time></trkpt><trkpt lat="44.7155988" lon="7.8849808"><ele>299.0</ele><time>2026-05-03T16:36:52.098Z</time></trkpt><trkpt lat="44.7155028" lon="7.885151"><ele>299.0</ele><time>2026-05-03T16:36:53.098Z</time></trkpt><trkpt lat="44.7154138" lon="7.8853213"><ele>298.25</ele><time>2026-05-03T16:36:54.098Z</time></trkpt><trkpt lat="44.7153329" lon="7.8854764"><ele>297.5</ele><time>2026-05-03T16:36:55.098Z</time></trkpt><trkpt lat="44.7152142" lon="7.8856115"><ele>296.75</ele><time>2026-05-03T16:36:56.097Z</time></trkpt><trkpt lat="44.7151035" lon="7.8857451"><ele>296.0</ele><time>2026-05-03T16:36:57.098Z</time></trkpt><trkpt lat="44.7149917" lon="7.8858572"><ele>299.5</ele><time>2026-05-03T16:36:58.097Z</time></trkpt><trkpt lat="44.7148713" lon="7.8859643"><ele>303.0</ele><time>2026-05-03T16:36:59.098Z</time></trkpt><trkpt lat="44.7147616" lon="7.8860659"><ele>306.5</ele><time>2026-05-03T16:37:00.098Z</time></trkpt><trkpt lat="44.714653" lon="7.8861511"><ele>310.0</ele><time>2026-05-03T16:37:01.098Z</time></trkpt><trkpt lat="44.7145381" lon="7.8862461"><ele>310.0</ele><time>2026-05-03T16:37:02.098Z</time></trkpt><trkpt lat="44.7144242" lon="7.8863369"><ele>310.0</ele><time>2026-05-03T16:37:03.098Z</time></trkpt><trkpt lat="44.7143021" lon="7.8864454"><ele>310.0</ele><time>2026-05-03T16:37:04.098Z</time></trkpt><trkpt lat="44.7141874" lon="7.8865802"><ele>310.0</ele><time>2026-05-03T16:37:05.097Z</time></trkpt><trkpt lat="44.7140976" lon="7.8867406"><ele>308.75</ele><time>2026-05-03T16:37:06.097Z</time></trkpt><trkpt lat="44.714013" lon="7.8869131"><ele>307.5</ele><time>2026-05-03T16:37:07.098Z</time></trkpt><trkpt lat="44.7139282" lon="7.8870892"><ele>306.25</ele><time>2026-05-03T16:37:08.098Z</time></trkpt><trkpt lat="44.7138559" lon="7.8872461"><ele>305.0</ele><time>2026-05-03T16:37:09.098Z</time></trkpt><trkpt lat="44.7137837" lon="7.8874084"><ele>305.0</ele><time>2026-05-03T16:37:10.098Z</time></trkpt><trkpt lat="44.713703" lon="7.887569"><ele>305.0</ele><time>2026-05-03T16:37:11.097Z</time></trkpt><trkpt lat="44.7136235" lon="7.8877246"><ele>305.0</ele><time>2026-05-03T16:37:12.098Z</time></trkpt><trkpt lat="44.7135477" lon="7.8878816"><ele>305.0</ele><time>2026-05-03T16:37:13.098Z</time></trkpt><trkpt lat="44.7134676" lon="7.8880134"><ele>302.5</ele><time>2026-05-03T16:37:14.098Z</time></trkpt><trkpt lat="44.7134089" lon="7.8881646"><ele>300.0</ele><time>2026-05-03T16:37:15.097Z</time></trkpt><trkpt lat="44.7133319" lon="7.8883195"><ele>297.5</ele><time>2026-05-03T16:37:16.098Z</time></trkpt><trkpt lat="44.7133181" lon="7.8884873"><ele>295.0</ele><time>2026-05-03T16:37:17.098Z</time></trkpt><trkpt lat="44.7133186" lon="7.8886517"><ele>295.0</ele><time>2026-05-03T16:37:18.097Z</time></trkpt><trkpt lat="44.7133351" lon="7.8888099"><ele>295.0</ele><time>2026-05-03T16:37:19.098Z</time></trkpt><trkpt lat="44.713368" lon="7.8889568"><ele>295.0</ele><time>2026-05-03T16:37:20.098Z</time></trkpt><trkpt lat="44.7133937" lon="7.8890951"><ele>295.0</ele><time>2026-05-03T16:37:21.097Z</time></trkpt><trkpt lat="44.7135161" lon="7.8891831"><ele>296.5</ele><time>2026-05-03T16:37:22.098Z</time></trkpt><trkpt lat="44.7136002" lon="7.889282"><ele>298.0</ele><time>2026-05-03T16:37:23.098Z</time></trkpt><trkpt lat="44.7136979" lon="7.8893699"><ele>299.5</ele><time>2026-05-03T16:37:24.098Z</time></trkpt><trkpt lat="44.7138301" lon="7.8894109"><ele>301.0</ele><time>2026-05-03T16:37:25.098Z</time></trkpt><trkpt lat="44.7139544" lon="7.8894771"><ele>301.0</ele><time>2026-05-03T16:37:26.098Z</time></trkpt><trkpt lat="44.7140559" lon="7.889583"><ele>301.0</ele><time>2026-05-03T16:37:27.098Z</time></trkpt><trkpt lat="44.7141242" lon="7.8897277"><ele>301.0</ele><time>2026-05-03T16:37:28.098Z</time></trkpt><trkpt lat="44.714176" lon="7.8899098"><ele>301.0</ele><time>2026-05-03T16:37:29.098Z</time></trkpt><trkpt lat="44.7142071" lon="7.8901078"><ele>300.0</ele><time>2026-05-03T16:37:30.098Z</time></trkpt><trkpt lat="44.7142435" lon="7.8902864"><ele>299.0</ele><time>2026-05-03T16:37:31.098Z</time></trkpt><trkpt lat="44.7142807" lon="7.890454"><ele>298.0</ele><time>2026-05-03T16:37:32.098Z</time></trkpt><trkpt lat="44.7143121" lon="7.8906202"><ele>297.0</ele><time>2026-05-03T16:37:33.098Z</time></trkpt><trkpt lat="44.7143631" lon="7.8907485"><ele>300.75</ele><time>2026-05-03T16:37:34.098Z</time></trkpt><trkpt lat="44.7144158" lon="7.8908815"><ele>304.5</ele><time>2026-05-03T16:37:35.098Z</time></trkpt><trkpt lat="44.7144694" lon="7.8910195"><ele>308.25</ele><time>2026-05-03T16:37:36.097Z</time></trkpt><trkpt lat="44.7145323" lon="7.8911591"><ele>312.0</ele><time>2026-05-03T16:37:37.098Z</time></trkpt><trkpt lat="44.7146084" lon="7.8912932"><ele>312.0</ele><time>2026-05-03T16:37:38.097Z</time></trkpt><trkpt lat="44.714711" lon="7.8914289"><ele>312.0</ele><time>2026-05-03T16:37:39.097Z</time></trkpt><trkpt lat="44.7148096" lon="7.8915515"><ele>312.0</ele><time>2026-05-03T16:37:40.098Z</time></trkpt><trkpt lat="44.7149252" lon="7.8916667"><ele>312.0</ele><time>2026-05-03T16:37:41.098Z</time></trkpt><trkpt lat="44.7151256" lon="7.8917356"><ele>312.3333333333333</ele><time>2026-05-03T16:37:42.098Z</time></trkpt><trkpt lat="44.7152945" lon="7.8918078"><ele>312.66666666666663</ele><time>2026-05-03T16:37:43.097Z</time></trkpt><trkpt lat="44.7154554" lon="7.8918974"><ele>313.0</ele><time>2026-05-03T16:37:44.098Z</time></trkpt><trkpt lat="44.7156224" lon="7.8919683"><ele>313.0</ele><time>2026-05-03T16:37:45.097Z</time></trkpt><trkpt lat="44.7157856" lon="7.8920643"><ele>313.0</ele><time>2026-05-03T16:37:46.097Z</time></trkpt><trkpt lat="44.7159083" lon="7.8921982"><ele>313.0</ele><time>2026-05-03T16:37:47.098Z</time></trkpt><trkpt lat="44.716052" lon="7.8923207"><ele>313.3333333333333</ele><time>2026-05-03T16:37:48.098Z</time></trkpt><trkpt lat="44.7161984" lon="7.8924312"><ele>313.6666666666667</ele><time>2026-05-03T16:37:49.097Z</time></trkpt><trkpt lat="44.7163641" lon="7.8925581"><ele>314.0</ele><time>2026-05-03T16:37:50.097Z</time></trkpt><trkpt lat="44.716524" lon="7.8926717"><ele>314.0</ele><time>2026-05-03T16:37:51.098Z</time></trkpt><trkpt lat="44.7166777" lon="7.8928016"><ele>314.0</ele><time>2026-05-03T16:37:52.098Z</time></trkpt><trkpt lat="44.7167855" lon="7.8929666"><ele>314.0</ele><time>2026-05-03T16:37:53.098Z</time></trkpt><trkpt lat="44.7169233" lon="7.8930969"><ele>313.5</ele><time>2026-05-03T16:37:54.098Z</time></trkpt><trkpt lat="44.7170193" lon="7.8932509"><ele>313.0</ele><time>2026-05-03T16:37:55.098Z</time></trkpt><trkpt lat="44.7171203" lon="7.8933805"><ele>312.5</ele><time>2026-05-03T16:37:56.097Z</time></trkpt><trkpt lat="44.7172076" lon="7.8935102"><ele>312.0</ele><time>2026-05-03T16:37:57.098Z</time></trkpt><trkpt lat="44.7172865" lon="7.893615"><ele>312.0</ele><time>2026-05-03T16:37:58.098Z</time></trkpt><trkpt lat="44.717366" lon="7.8936975"><ele>312.0</ele><time>2026-05-03T16:37:59.098Z</time></trkpt><trkpt lat="44.7174367" lon="7.8937437"><ele>312.0</ele><time>2026-05-03T16:38:00.098Z</time></trkpt><trkpt lat="44.7174996" lon="7.8937655"><ele>312.0</ele><time>2026-05-03T16:38:01.098Z</time></trkpt><trkpt lat="44.7175741" lon="7.8937499"><ele>312.0</ele><time>2026-05-03T16:38:02.098Z</time></trkpt><trkpt lat="44.7175731" lon="7.893607"><ele>312.0</ele><time>2026-05-03T16:38:03.097Z</time></trkpt><trkpt lat="44.7176083" lon="7.8935255"><ele>312.0</ele><time>2026-05-03T16:38:04.098Z</time></trkpt><trkpt lat="44.7176164" lon="7.8934248"><ele>312.0</ele><time>2026-05-03T16:38:05.098Z</time></trkpt><trkpt lat="44.7176301" lon="7.8933175"><ele>312.0</ele><time>2026-05-03T16:38:06.098Z</time></trkpt><trkpt lat="44.717387" lon="7.8931693"><ele>312.0</ele><time>2026-05-03T16:38:07.097Z</time></trkpt><trkpt lat="44.7172427" lon="7.8930425"><ele>305.0</ele><time>2026-05-03T16:38:08.098Z</time></trkpt><trkpt lat="44.7171014" lon="7.8928979"><ele>298.0</ele><time>2026-05-03T16:38:09.097Z</time></trkpt><trkpt lat="44.7169436" lon="7.8927427"><ele>291.0</ele><time>2026-05-03T16:38:10.098Z</time></trkpt><trkpt lat="44.7168066" lon="7.8925845"><ele>290.0</ele><time>2026-05-03T16:38:11.098Z</time></trkpt><trkpt lat="44.7166759" lon="7.8924462"><ele>289.0</ele><time>2026-05-03T16:38:12.098Z</time></trkpt><trkpt lat="44.7165166" lon="7.8923107"><ele>288.0</ele><time>2026-05-03T16:38:13.098Z</time></trkpt><trkpt lat="44.716402" lon="7.8921804"><ele>288.0</ele><time>2026-05-03T16:38:14.097Z</time></trkpt><trkpt lat="44.7162921" lon="7.8920483"><ele>288.0</ele><time>2026-05-03T16:38:15.097Z</time></trkpt><trkpt lat="44.7162154" lon="7.8919157"><ele>288.0</ele><time>2026-05-03T16:38:16.098Z</time></trkpt><trkpt lat="44.7161375" lon="7.8918024"><ele>288.0</ele><time>2026-05-03T16:38:17.098Z</time></trkpt><trkpt lat="44.7160931" lon="7.8916472"><ele>287.4</ele><time>2026-05-03T16:38:18.098Z</time></trkpt><trkpt lat="44.7160771" lon="7.8915046"><ele>286.8</ele><time>2026-05-03T16:38:19.098Z</time></trkpt><trkpt lat="44.7160843" lon="7.8913774"><ele>286.2</ele><time>2026-05-03T16:38:20.098Z</time></trkpt><trkpt lat="44.716119" lon="7.8912833"><ele>285.6</ele><time>2026-05-03T16:38:21.098Z</time></trkpt><trkpt lat="44.7162331" lon="7.8912384"><ele>285.0</ele><time>2026-05-03T16:38:22.098Z</time></trkpt><trkpt lat="44.7163625" lon="7.891207"><ele>285.0</ele><time>2026-05-03T16:38:23.098Z</time></trkpt><trkpt lat="44.7164687" lon="7.8912184"><ele>285.0</ele><time>2026-05-03T16:38:24.097Z</time></trkpt><trkpt lat="44.7165933" lon="7.8913234"><ele>285.0</ele><time>2026-05-03T16:38:25.098Z</time></trkpt><trkpt lat="44.7168054" lon="7.8914816"><ele>286.3333333333333</ele><time>2026-05-03T16:38:26.098Z</time></trkpt><trkpt lat="44.7169774" lon="7.8915966"><ele>287.66666666666663</ele><time>2026-05-03T16:38:27.097Z</time></trkpt><trkpt lat="44.7171522" lon="7.8917315"><ele>289.0</ele><time>2026-05-03T16:38:28.098Z</time></trkpt><trkpt lat="44.7173115" lon="7.8918592"><ele>288.0</ele><time>2026-05-03T16:38:29.098Z</time></trkpt><trkpt lat="44.7174851" lon="7.8919789"><ele>287.0</ele><time>2026-05-03T16:38:30.098Z</time></trkpt><trkpt lat="44.7176586" lon="7.8921149"><ele>286.0</ele><time>2026-05-03T16:38:31.098Z</time></trkpt><trkpt lat="44.7178293" lon="7.892251"><ele>286.0</ele><time>2026-05-03T16:38:32.098Z</time></trkpt><trkpt lat="44.7180087" lon="7.8923983"><ele>286.0</ele><time>2026-05-03T16:38:33.098Z</time></trkpt><trkpt lat="44.7181797" lon="7.8925472"><ele>286.0</ele><time>2026-05-03T16:38:34.098Z</time></trkpt><trkpt lat="44.7183607" lon="7.8927074"><ele>285.3333333333333</ele><time>2026-05-03T16:38:35.098Z</time></trkpt><trkpt lat="44.7185147" lon="7.892889"><ele>284.6666666666667</ele><time>2026-05-03T16:38:36.098Z</time></trkpt><trkpt lat="44.7186497" lon="7.8930936"><ele>284.0</ele><time>2026-05-03T16:38:37.098Z</time></trkpt><trkpt lat="44.7187932" lon="7.8932955"><ele>282.33333333333337</ele><time>2026-05-03T16:38:38.098Z</time></trkpt><trkpt lat="44.7189391" lon="7.8934875"><ele>280.6666666666667</ele><time>2026-05-03T16:38:39.098Z</time></trkpt><trkpt lat="44.7190962" lon="7.8937106"><ele>279.0</ele><time>2026-05-03T16:38:40.097Z</time></trkpt><trkpt lat="44.7192496" lon="7.8939324"><ele>279.0</ele><time>2026-05-03T16:38:41.097Z</time></trkpt><trkpt lat="44.7193541" lon="7.8941769"><ele>279.0</ele><time>2026-05-03T16:38:42.098Z</time></trkpt><trkpt lat="44.719479" lon="7.8944024"><ele>279.0</ele><time>2026-05-03T16:38:43.098Z</time></trkpt><trkpt lat="44.7196075" lon="7.8946269"><ele>279.0</ele><time>2026-05-03T16:38:44.098Z</time></trkpt><trkpt lat="44.7197239" lon="7.8948911"><ele>279.0</ele><time>2026-05-03T16:38:45.098Z</time></trkpt><trkpt lat="44.7198073" lon="7.8951514"><ele>279.0</ele><time>2026-05-03T16:38:46.098Z</time></trkpt><trkpt lat="44.7198962" lon="7.8954043"><ele>275.0</ele><time>2026-05-03T16:38:47.098Z</time></trkpt><trkpt lat="44.7199881" lon="7.895673"><ele>271.0</ele><time>2026-05-03T16:38:48.098Z</time></trkpt><trkpt lat="44.7200879" lon="7.8959349"><ele>267.0</ele><time>2026-05-03T16:38:49.098Z</time></trkpt><trkpt lat="44.7201784" lon="7.8962119"><ele>264.6666666666667</ele><time>2026-05-03T16:38:50.098Z</time></trkpt><trkpt lat="44.720264" lon="7.8964937"><ele>262.33333333333337</ele><time>2026-05-03T16:38:51.098Z</time></trkpt><trkpt lat="44.7203526" lon="7.8967623"><ele>260.0</ele><time>2026-05-03T16:38:52.098Z</time></trkpt><trkpt lat="44.7204457" lon="7.8970409"><ele>260.0</ele><time>2026-05-03T16:38:53.097Z</time></trkpt><trkpt lat="44.7205361" lon="7.897321"><ele>260.0</ele><time>2026-05-03T16:38:54.098Z</time></trkpt><trkpt lat="44.7206292" lon="7.8975945"><ele>260.0</ele><time>2026-05-03T16:38:55.097Z</time></trkpt><trkpt lat="44.720719" lon="7.897874"><ele>259.6666666666667</ele><time>2026-05-03T16:38:56.098Z</time></trkpt><trkpt lat="44.7208121" lon="7.898144"><ele>259.3333333333333</ele><time>2026-05-03T16:38:57.098Z</time></trkpt><trkpt lat="44.7209066" lon="7.898443"><ele>259.0</ele><time>2026-05-03T16:38:58.098Z</time></trkpt><trkpt lat="44.7209939" lon="7.8987112"><ele>260.3333333333333</ele><time>2026-05-03T16:38:59.098Z</time></trkpt><trkpt lat="44.721066" lon="7.898944"><ele>261.6666666666667</ele><time>2026-05-03T16:39:00.098Z</time></trkpt><trkpt lat="44.7211519" lon="7.8992023"><ele>263.0</ele><time>2026-05-03T16:39:01.098Z</time></trkpt><trkpt lat="44.7212361" lon="7.8994385"><ele>263.0</ele><time>2026-05-03T16:39:02.097Z</time></trkpt><trkpt lat="44.7212612" lon="7.8996892"><ele>263.0</ele><time>2026-05-03T16:39:03.098Z</time></trkpt><trkpt lat="44.7212757" lon="7.899949"><ele>263.0</ele><time>2026-05-03T16:39:04.098Z</time></trkpt><trkpt lat="44.7212923" lon="7.9002054"><ele>262.6666666666667</ele><time>2026-05-03T16:39:05.098Z</time></trkpt><trkpt lat="44.7212979" lon="7.9004524"><ele>262.3333333333333</ele><time>2026-05-03T16:39:06.098Z</time></trkpt><trkpt lat="44.7213073" lon="7.9006688"><ele>262.0</ele><time>2026-05-03T16:39:07.098Z</time></trkpt><trkpt lat="44.7213317" lon="7.9008713"><ele>261.0</ele><time>2026-05-03T16:39:08.098Z</time></trkpt><trkpt lat="44.7213733" lon="7.9010775"><ele>260.0</ele><time>2026-05-03T16:39:09.098Z</time></trkpt><trkpt lat="44.7214355" lon="7.9012755"><ele>259.0</ele><time>2026-05-03T16:39:10.098Z</time></trkpt><trkpt lat="44.7215009" lon="7.9014846"><ele>259.0</ele><time>2026-05-03T16:39:11.098Z</time></trkpt><trkpt lat="44.7215765" lon="7.9016572"><ele>259.0</ele><time>2026-05-03T16:39:12.098Z</time></trkpt><trkpt lat="44.7216684" lon="7.901803"><ele>259.0</ele><time>2026-05-03T16:39:13.098Z</time></trkpt><trkpt lat="44.7218179" lon="7.9019372"><ele>258.3333333333333</ele><time>2026-05-03T16:39:14.098Z</time></trkpt><trkpt lat="44.7219544" lon="7.9020932"><ele>257.6666666666667</ele><time>2026-05-03T16:39:15.098Z</time></trkpt><trkpt lat="44.7220763" lon="7.9022328"><ele>257.0</ele><time>2026-05-03T16:39:16.097Z</time></trkpt><trkpt lat="44.7222053" lon="7.9023555"><ele>257.0</ele><time>2026-05-03T16:39:17.097Z</time></trkpt><trkpt lat="44.7223437" lon="7.9024741"><ele>257.0</ele><time>2026-05-03T16:39:18.098Z</time></trkpt><trkpt lat="44.7224845" lon="7.9025804"><ele>257.0</ele><time>2026-05-03T16:39:19.097Z</time></trkpt><trkpt lat="44.7226237" lon="7.9026772"><ele>255.66666666666669</ele><time>2026-05-03T16:39:20.098Z</time></trkpt><trkpt lat="44.7227581" lon="7.9027514"><ele>254.33333333333331</ele><time>2026-05-03T16:39:21.098Z</time></trkpt><trkpt lat="44.7229438" lon="7.9027464"><ele>253.0</ele><time>2026-05-03T16:39:22.097Z</time></trkpt><trkpt lat="44.7231396" lon="7.9027153"><ele>253.0</ele><time>2026-05-03T16:39:23.098Z</time></trkpt><trkpt lat="44.7233312" lon="7.9026851"><ele>253.0</ele><time>2026-05-03T16:39:24.098Z</time></trkpt><trkpt lat="44.7235316" lon="7.9026529"><ele>253.0</ele><time>2026-05-03T16:39:25.098Z</time></trkpt><trkpt lat="44.723752" lon="7.9025904"><ele>256.5</ele><time>2026-05-03T16:39:26.097Z</time></trkpt><trkpt lat="44.7240048" lon="7.9025267"><ele>260.0</ele><time>2026-05-03T16:39:27.098Z</time></trkpt><trkpt lat="44.7242719" lon="7.9024638"><ele>260.0</ele><time>2026-05-03T16:39:28.098Z</time></trkpt><trkpt lat="44.7245258" lon="7.9023923"><ele>260.0</ele><time>2026-05-03T16:39:29.098Z</time></trkpt><trkpt lat="44.7247945" lon="7.9023202"><ele>260.0</ele><time>2026-05-03T16:39:30.097Z</time></trkpt><trkpt lat="44.7250511" lon="7.9022645"><ele>260.0</ele><time>2026-05-03T16:39:31.098Z</time></trkpt><trkpt lat="44.7253227" lon="7.9021971"><ele>263.5</ele><time>2026-05-03T16:39:32.098Z</time></trkpt><trkpt lat="44.7255941" lon="7.9021306"><ele>267.0</ele><time>2026-05-03T16:39:33.098Z</time></trkpt><trkpt lat="44.7258539" lon="7.902069"><ele>268.5</ele><time>2026-05-03T16:39:34.098Z</time></trkpt><trkpt lat="44.726105" lon="7.9020146"><ele>270.0</ele><time>2026-05-03T16:39:35.098Z</time></trkpt><trkpt lat="44.7263507" lon="7.9019554"><ele>270.0</ele><time>2026-05-03T16:39:36.098Z</time></trkpt><trkpt lat="44.7265999" lon="7.9018787"><ele>270.0</ele><time>2026-05-03T16:39:37.098Z</time></trkpt><trkpt lat="44.7268358" lon="7.90181"><ele>271.0</ele><time>2026-05-03T16:39:38.098Z</time></trkpt><trkpt lat="44.7270362" lon="7.901768"><ele>272.0</ele><time>2026-05-03T16:39:39.098Z</time></trkpt><trkpt lat="44.7272268" lon="7.9017006"><ele>273.0</ele><time>2026-05-03T16:39:40.098Z</time></trkpt><trkpt lat="44.7274074" lon="7.9016353"><ele>273.0</ele><time>2026-05-03T16:39:41.098Z</time></trkpt><trkpt lat="44.7275692" lon="7.9015317"><ele>273.0</ele><time>2026-05-03T16:39:42.098Z</time></trkpt><trkpt lat="44.7277374" lon="7.9014289"><ele>273.0</ele><time>2026-05-03T16:39:43.098Z</time></trkpt><trkpt lat="44.7279164" lon="7.901305"><ele>271.6666666666667</ele><time>2026-05-03T16:39:44.097Z</time></trkpt><trkpt lat="44.7280924" lon="7.9012252"><ele>270.33333333333337</ele><time>2026-05-03T16:39:45.098Z</time></trkpt><trkpt lat="44.7282606" lon="7.9011485"><ele>269.0</ele><time>2026-05-03T16:39:46.098Z</time></trkpt><trkpt lat="44.7284483" lon="7.901162"><ele>270.0</ele><time>2026-05-03T16:39:47.098Z</time></trkpt><trkpt lat="44.7286261" lon="7.9011867"><ele>271.0</ele><time>2026-05-03T16:39:48.097Z</time></trkpt><trkpt lat="44.728793" lon="7.9012923"><ele>272.0</ele><time>2026-05-03T16:39:49.097Z</time></trkpt><trkpt lat="44.7289464" lon="7.9014045"><ele>272.0</ele><time>2026-05-03T16:39:50.098Z</time></trkpt><trkpt lat="44.7291083" lon="7.9015225"><ele>272.0</ele><time>2026-05-03T16:39:51.098Z</time></trkpt><trkpt lat="44.7292779" lon="7.9016322"><ele>272.0</ele><time>2026-05-03T16:39:52.098Z</time></trkpt><trkpt lat="44.7294575" lon="7.9017028"><ele>273.33333333333337</ele><time>2026-05-03T16:39:53.097Z</time></trkpt><trkpt lat="44.7296386" lon="7.901769"><ele>274.6666666666667</ele><time>2026-05-03T16:39:54.097Z</time></trkpt><trkpt lat="44.729838" lon="7.9018036"><ele>276.0</ele><time>2026-05-03T16:39:55.097Z</time></trkpt><trkpt lat="44.7300803" lon="7.9016907"><ele>277.3333333333333</ele><time>2026-05-03T16:39:56.098Z</time></trkpt><trkpt lat="44.7302993" lon="7.9016229"><ele>278.66666666666663</ele><time>2026-05-03T16:39:57.098Z</time></trkpt><trkpt lat="44.7304905" lon="7.9015729"><ele>280.0</ele><time>2026-05-03T16:39:58.098Z</time></trkpt><trkpt lat="44.7306772" lon="7.9015475"><ele>280.0</ele><time>2026-05-03T16:39:59.097Z</time></trkpt><trkpt lat="44.7308472" lon="7.9015569"><ele>280.0</ele><time>2026-05-03T16:40:00.098Z</time></trkpt><trkpt lat="44.7310339" lon="7.901595"><ele>280.0</ele><time>2026-05-03T16:40:01.098Z</time></trkpt><trkpt lat="44.731222" lon="7.9016683"><ele>280.66666666666663</ele><time>2026-05-03T16:40:02.098Z</time></trkpt><trkpt lat="44.731409" lon="7.9017604"><ele>281.3333333333333</ele><time>2026-05-03T16:40:03.098Z</time></trkpt><trkpt lat="44.7315936" lon="7.9018609"><ele>282.0</ele><time>2026-05-03T16:40:04.098Z</time></trkpt><trkpt lat="44.7317708" lon="7.9019476"><ele>283.0</ele><time>2026-05-03T16:40:05.098Z</time></trkpt><trkpt lat="44.7319499" lon="7.9020062"><ele>284.0</ele><time>2026-05-03T16:40:06.098Z</time></trkpt><trkpt lat="44.7321465" lon="7.9020262"><ele>285.0</ele><time>2026-05-03T16:40:07.098Z</time></trkpt><trkpt lat="44.7323831" lon="7.9019791"><ele>285.0</ele><time>2026-05-03T16:40:08.098Z</time></trkpt><trkpt lat="44.7326171" lon="7.9019494"><ele>285.0</ele><time>2026-05-03T16:40:09.097Z</time></trkpt><trkpt lat="44.7328669" lon="7.9019041"><ele>286.0</ele><time>2026-05-03T16:40:10.098Z</time></trkpt><trkpt lat="44.7331193" lon="7.9018621"><ele>287.0</ele><time>2026-05-03T16:40:11.098Z</time></trkpt><trkpt lat="44.7333698" lon="7.9018228"><ele>287.0</ele><time>2026-05-03T16:40:12.098Z</time></trkpt><trkpt lat="44.7336125" lon="7.9017847"><ele>287.0</ele><time>2026-05-03T16:40:13.098Z</time></trkpt><trkpt lat="44.7338517" lon="7.9017464"><ele>285.0</ele><time>2026-05-03T16:40:14.098Z</time></trkpt><trkpt lat="44.734087" lon="7.9017152"><ele>283.0</ele><time>2026-05-03T16:40:15.098Z</time></trkpt><trkpt lat="44.7343202" lon="7.9016723"><ele>285.0</ele><time>2026-05-03T16:40:16.098Z</time></trkpt><trkpt lat="44.734544" lon="7.9016406"><ele>287.0</ele><time>2026-05-03T16:40:17.098Z</time></trkpt><trkpt lat="44.7347665" lon="7.9015919"><ele>287.0</ele><time>2026-05-03T16:40:18.098Z</time></trkpt><trkpt lat="44.7349812" lon="7.9015346"><ele>287.0</ele><time>2026-05-03T16:40:19.098Z</time></trkpt><trkpt lat="44.7351917" lon="7.9014616"><ele>287.0</ele><time>2026-05-03T16:40:20.098Z</time></trkpt><trkpt lat="44.7353537" lon="7.9014444"><ele>288.0</ele><time>2026-05-03T16:40:21.098Z</time></trkpt><trkpt lat="44.7355426" lon="7.9014051"><ele>289.0</ele><time>2026-05-03T16:40:22.098Z</time></trkpt><trkpt lat="44.7357144" lon="7.9014255"><ele>290.0</ele><time>2026-05-03T16:40:23.098Z</time></trkpt><trkpt lat="44.7359121" lon="7.9014562"><ele>290.33333333333337</ele><time>2026-05-03T16:40:24.098Z</time></trkpt><trkpt lat="44.7360557" lon="7.9015652"><ele>290.6666666666667</ele><time>2026-05-03T16:40:25.098Z</time></trkpt><trkpt lat="44.7361748" lon="7.9017512"><ele>291.0</ele><time>2026-05-03T16:40:26.098Z</time></trkpt><trkpt lat="44.7363113" lon="7.9019376"><ele>291.3333333333333</ele><time>2026-05-03T16:40:27.098Z</time></trkpt><trkpt lat="44.7364608" lon="7.9021318"><ele>291.66666666666663</ele><time>2026-05-03T16:40:28.098Z</time></trkpt><trkpt lat="44.7365678" lon="7.9023875"><ele>292.0</ele><time>2026-05-03T16:40:29.098Z</time></trkpt><trkpt lat="44.736672" lon="7.9026315"><ele>293.0</ele><time>2026-05-03T16:40:30.098Z</time></trkpt><trkpt lat="44.7367541" lon="7.9028526"><ele>294.0</ele><time>2026-05-03T16:40:31.098Z</time></trkpt><trkpt lat="44.7368304" lon="7.9030589"><ele>295.0</ele><time>2026-05-03T16:40:32.098Z</time></trkpt><trkpt lat="44.7368828" lon="7.9032493"><ele>295.0</ele><time>2026-05-03T16:40:33.098Z</time></trkpt><trkpt lat="44.7369223" lon="7.9034205"><ele>295.0</ele><time>2026-05-03T16:40:34.098Z</time></trkpt><trkpt lat="44.7368958" lon="7.903638"><ele>295.0</ele><time>2026-05-03T16:40:35.098Z</time></trkpt><trkpt lat="44.7368735" lon="7.9038277"><ele>295.0</ele><time>2026-05-03T16:40:36.098Z</time></trkpt><trkpt lat="44.7368655" lon="7.9040305"><ele>295.0</ele><time>2026-05-03T16:40:37.097Z</time></trkpt><trkpt lat="44.7368735" lon="7.9042112"><ele>295.0</ele><time>2026-05-03T16:40:38.098Z</time></trkpt><trkpt lat="44.7368825" lon="7.9043847"><ele>295.0</ele><time>2026-05-03T16:40:39.098Z</time></trkpt><trkpt lat="44.7369299" lon="7.9045723"><ele>295.0</ele><time>2026-05-03T16:40:40.098Z</time></trkpt><trkpt lat="44.7370223" lon="7.9047305"><ele>296.0</ele><time>2026-05-03T16:40:41.097Z</time></trkpt><trkpt lat="44.737127" lon="7.9048795"><ele>297.0</ele><time>2026-05-03T16:40:42.098Z</time></trkpt><trkpt lat="44.7372964" lon="7.9050064"><ele>298.0</ele><time>2026-05-03T16:40:43.097Z</time></trkpt><trkpt lat="44.7374572" lon="7.9051061"><ele>298.0</ele><time>2026-05-03T16:40:44.098Z</time></trkpt><trkpt lat="44.7376663" lon="7.9052576"><ele>298.0</ele><time>2026-05-03T16:40:45.098Z</time></trkpt><trkpt lat="44.7378498" lon="7.9053862"><ele>298.0</ele><time>2026-05-03T16:40:46.098Z</time></trkpt><trkpt lat="44.7380436" lon="7.9055145"><ele>301.0</ele><time>2026-05-03T16:40:47.098Z</time></trkpt><trkpt lat="44.7382302" lon="7.9056491"><ele>304.0</ele><time>2026-05-03T16:40:48.098Z</time></trkpt><trkpt lat="44.7384027" lon="7.9057799"><ele>307.0</ele><time>2026-05-03T16:40:49.098Z</time></trkpt><trkpt lat="44.738554" lon="7.9058961"><ele>310.0</ele><time>2026-05-03T16:40:50.098Z</time></trkpt><trkpt lat="44.7387098" lon="7.9059818"><ele>313.0</ele><time>2026-05-03T16:40:51.098Z</time></trkpt><trkpt lat="44.7388493" lon="7.9060922"><ele>316.0</ele><time>2026-05-03T16:40:52.098Z</time></trkpt><trkpt lat="44.73896" lon="7.906198"><ele>316.0</ele><time>2026-05-03T16:40:53.098Z</time></trkpt><trkpt lat="44.7389761" lon="7.9063866"><ele>316.0</ele><time>2026-05-03T16:40:54.098Z</time></trkpt><trkpt lat="44.7390171" lon="7.9065459"><ele>316.0</ele><time>2026-05-03T16:40:55.098Z</time></trkpt><trkpt lat="44.7389795" lon="7.9067388"><ele>316.0</ele><time>2026-05-03T16:40:56.098Z</time></trkpt><trkpt lat="44.7389481" lon="7.906914"><ele>316.5</ele><time>2026-05-03T16:40:57.098Z</time></trkpt><trkpt lat="44.7388896" lon="7.9070682"><ele>317.0</ele><time>2026-05-03T16:40:58.098Z</time></trkpt><trkpt lat="44.738867" lon="7.9072389"><ele>317.5</ele><time>2026-05-03T16:40:59.097Z</time></trkpt><trkpt lat="44.7388414" lon="7.9074083"><ele>318.0</ele><time>2026-05-03T16:41:00.098Z</time></trkpt><trkpt lat="44.7389019" lon="7.9076041"><ele>318.0</ele><time>2026-05-03T16:41:01.098Z</time></trkpt><trkpt lat="44.7389582" lon="7.9077828"><ele>318.0</ele><time>2026-05-03T16:41:02.098Z</time></trkpt><trkpt lat="44.7390057" lon="7.907972"><ele>318.0</ele><time>2026-05-03T16:41:03.097Z</time></trkpt><trkpt lat="44.7390829" lon="7.90815"><ele>318.0</ele><time>2026-05-03T16:41:04.098Z</time></trkpt><trkpt lat="44.7391629" lon="7.9083336"><ele>316.75</ele><time>2026-05-03T16:41:05.098Z</time></trkpt><trkpt lat="44.739264" lon="7.908451"><ele>315.5</ele><time>2026-05-03T16:41:06.098Z</time></trkpt><trkpt lat="44.7393622" lon="7.9085634"><ele>314.25</ele><time>2026-05-03T16:41:07.098Z</time></trkpt><trkpt lat="44.7394492" lon="7.9086889"><ele>313.0</ele><time>2026-05-03T16:41:08.098Z</time></trkpt><trkpt lat="44.7395445" lon="7.9088256"><ele>316.75</ele><time>2026-05-03T16:41:09.098Z</time></trkpt><trkpt lat="44.7395926" lon="7.9090005"><ele>320.5</ele><time>2026-05-03T16:41:10.098Z</time></trkpt><trkpt lat="44.739586" lon="7.9091958"><ele>324.25</ele><time>2026-05-03T16:41:11.098Z</time></trkpt><trkpt lat="44.7395999" lon="7.9093674"><ele>328.0</ele><time>2026-05-03T16:41:12.098Z</time></trkpt><trkpt lat="44.7396282" lon="7.9095354"><ele>328.0</ele><time>2026-05-03T16:41:13.098Z</time></trkpt><trkpt lat="44.7396549" lon="7.9096949"><ele>328.0</ele><time>2026-05-03T16:41:14.098Z</time></trkpt><trkpt lat="44.7396934" lon="7.9098138"><ele>328.0</ele><time>2026-05-03T16:41:15.098Z</time></trkpt><trkpt lat="44.7397435" lon="7.909915"><ele>328.0</ele><time>2026-05-03T16:41:16.098Z</time></trkpt><trkpt lat="44.7397973" lon="7.9100268"><ele>328.0</ele><time>2026-05-03T16:41:17.098Z</time></trkpt><trkpt lat="44.7398279" lon="7.91011"><ele>327.3333333333333</ele><time>2026-05-03T16:41:18.097Z</time></trkpt><trkpt lat="44.7398783" lon="7.9101805"><ele>326.66666666666663</ele><time>2026-05-03T16:41:19.098Z</time></trkpt><trkpt lat="44.7399185" lon="7.9102559"><ele>326.0</ele><time>2026-05-03T16:41:20.098Z</time></trkpt><trkpt lat="44.7399853" lon="7.910307"><ele>325.3333333333333</ele><time>2026-05-03T16:41:22.098Z</time></trkpt><trkpt lat="44.7400834" lon="7.9104215"><ele>324.6666666666667</ele><time>2026-05-03T16:41:24.097Z</time></trkpt><trkpt lat="44.7401178" lon="7.9105196"><ele>324.0</ele><time>2026-05-03T16:41:25.098Z</time></trkpt><trkpt lat="44.7401314" lon="7.9106463"><ele>324.0</ele><time>2026-05-03T16:41:26.098Z</time></trkpt><trkpt lat="44.7401406" lon="7.910788"><ele>324.0</ele><time>2026-05-03T16:41:27.098Z</time></trkpt><trkpt lat="44.7401401" lon="7.9109459"><ele>324.0</ele><time>2026-05-03T16:41:28.098Z</time></trkpt><trkpt lat="44.7401585" lon="7.9111105"><ele>324.0</ele><time>2026-05-03T16:41:29.098Z</time></trkpt><trkpt lat="44.7401826" lon="7.9112924"><ele>322.59999999999997</ele><time>2026-05-03T16:41:30.098Z</time></trkpt><trkpt lat="44.7402009" lon="7.9114382"><ele>321.2</ele><time>2026-05-03T16:41:31.098Z</time></trkpt><trkpt lat="44.7401918" lon="7.9115647"><ele>319.79999999999995</ele><time>2026-05-03T16:41:32.098Z</time></trkpt><trkpt lat="44.7401734" lon="7.9116729"><ele>318.4</ele><time>2026-05-03T16:41:33.097Z</time></trkpt><trkpt lat="44.7400406" lon="7.911804"><ele>317.0</ele><time>2026-05-03T16:41:34.098Z</time></trkpt><trkpt lat="44.7399475" lon="7.9119285"><ele>312.6666666666667</ele><time>2026-05-03T16:41:35.097Z</time></trkpt><trkpt lat="44.7398386" lon="7.9120613"><ele>308.3333333333333</ele><time>2026-05-03T16:41:36.098Z</time></trkpt><trkpt lat="44.7397206" lon="7.9122058"><ele>304.0</ele><time>2026-05-03T16:41:37.098Z</time></trkpt><trkpt lat="44.7395881" lon="7.9123169"><ele>304.0</ele><time>2026-05-03T16:41:38.098Z</time></trkpt><trkpt lat="44.7394699" lon="7.9124289"><ele>304.0</ele><time>2026-05-03T16:41:39.097Z</time></trkpt><trkpt lat="44.7393671" lon="7.9125538"><ele>304.0</ele><time>2026-05-03T16:41:40.098Z</time></trkpt><trkpt lat="44.7392823" lon="7.9126381"><ele>304.0</ele><time>2026-05-03T16:41:41.098Z</time></trkpt><trkpt lat="44.7391905" lon="7.9127524"><ele>303.25</ele><time>2026-05-03T16:41:42.097Z</time></trkpt><trkpt lat="44.7390946" lon="7.9128828"><ele>302.5</ele><time>2026-05-03T16:41:43.098Z</time></trkpt><trkpt lat="44.7391309" lon="7.9130123"><ele>301.75</ele><time>2026-05-03T16:41:44.098Z</time></trkpt><trkpt lat="44.7391518" lon="7.9131597"><ele>301.0</ele><time>2026-05-03T16:41:45.098Z</time></trkpt><trkpt lat="44.7391913" lon="7.9133176"><ele>301.0</ele><time>2026-05-03T16:41:46.098Z</time></trkpt><trkpt lat="44.7393058" lon="7.9134555"><ele>301.0</ele><time>2026-05-03T16:41:47.098Z</time></trkpt><trkpt lat="44.7394203" lon="7.913592"><ele>301.0</ele><time>2026-05-03T16:41:48.098Z</time></trkpt><trkpt lat="44.7395394" lon="7.9137207"><ele>301.0</ele><time>2026-05-03T16:41:49.098Z</time></trkpt><trkpt lat="44.7396453" lon="7.9138689"><ele>301.0</ele><time>2026-05-03T16:41:50.098Z</time></trkpt><trkpt lat="44.7397478" lon="7.914018"><ele>301.0</ele><time>2026-05-03T16:41:51.098Z</time></trkpt><trkpt lat="44.7398454" lon="7.9141741"><ele>301.0</ele><time>2026-05-03T16:41:52.098Z</time></trkpt><trkpt lat="44.7399296" lon="7.9143392"><ele>299.75</ele><time>2026-05-03T16:41:53.098Z</time></trkpt><trkpt lat="44.7399723" lon="7.9145254"><ele>298.5</ele><time>2026-05-03T16:41:54.098Z</time></trkpt><trkpt lat="44.7400372" lon="7.914703"><ele>297.25</ele><time>2026-05-03T16:41:55.098Z</time></trkpt><trkpt lat="44.7400629" lon="7.9148898"><ele>296.0</ele><time>2026-05-03T16:41:56.098Z</time></trkpt><trkpt lat="44.7400439" lon="7.915046"><ele>295.2</ele><time>2026-05-03T16:41:57.098Z</time></trkpt><trkpt lat="44.7400515" lon="7.9152103"><ele>294.40000000000003</ele><time>2026-05-03T16:41:58.098Z</time></trkpt><trkpt lat="44.7400628" lon="7.915354"><ele>293.6</ele><time>2026-05-03T16:41:59.098Z</time></trkpt><trkpt lat="44.7400999" lon="7.9154857"><ele>292.8</ele><time>2026-05-03T16:42:00.098Z</time></trkpt><trkpt lat="44.740172" lon="7.9156132"><ele>292.0</ele><time>2026-05-03T16:42:01.098Z</time></trkpt><trkpt lat="44.7403277" lon="7.9157179"><ele>292.0</ele><time>2026-05-03T16:42:02.098Z</time></trkpt><trkpt lat="44.7404553" lon="7.9158239"><ele>292.0</ele><time>2026-05-03T16:42:03.098Z</time></trkpt><trkpt lat="44.7405796" lon="7.9159318"><ele>292.0</ele><time>2026-05-03T16:42:04.098Z</time></trkpt><trkpt lat="44.7407199" lon="7.9160309"><ele>293.0</ele><time>2026-05-03T16:42:05.098Z</time></trkpt><trkpt lat="44.7408404" lon="7.916138"><ele>294.0</ele><time>2026-05-03T16:42:06.098Z</time></trkpt><trkpt lat="44.7409726" lon="7.9162397"><ele>295.0</ele><time>2026-05-03T16:42:07.097Z</time></trkpt><trkpt lat="44.7410709" lon="7.9163392"><ele>296.0</ele><time>2026-05-03T16:42:08.098Z</time></trkpt><trkpt lat="44.7411596" lon="7.9164617"><ele>292.75</ele><time>2026-05-03T16:42:09.098Z</time></trkpt><trkpt lat="44.7412494" lon="7.9165807"><ele>289.5</ele><time>2026-05-03T16:42:10.098Z</time></trkpt><trkpt lat="44.7412863" lon="7.9167815"><ele>286.25</ele><time>2026-05-03T16:42:11.098Z</time></trkpt><trkpt lat="44.741319" lon="7.9169616"><ele>283.0</ele><time>2026-05-03T16:42:12.098Z</time></trkpt><trkpt lat="44.7413292" lon="7.9171583"><ele>282.3333333333333</ele><time>2026-05-03T16:42:13.098Z</time></trkpt><trkpt lat="44.7413443" lon="7.9173843"><ele>281.6666666666667</ele><time>2026-05-03T16:42:14.098Z</time></trkpt><trkpt lat="44.7413577" lon="7.9176055"><ele>281.0</ele><time>2026-05-03T16:42:15.098Z</time></trkpt><trkpt lat="44.7413851" lon="7.9178338"><ele>279.75</ele><time>2026-05-03T16:42:16.098Z</time></trkpt><trkpt lat="44.7413704" lon="7.9180153"><ele>278.5</ele><time>2026-05-03T16:42:17.098Z</time></trkpt><trkpt lat="44.7413725" lon="7.9182116"><ele>277.25</ele><time>2026-05-03T16:42:18.098Z</time></trkpt><trkpt lat="44.741374" lon="7.9183914"><ele>276.0</ele><time>2026-05-03T16:42:19.098Z</time></trkpt><trkpt lat="44.741372" lon="7.918573"><ele>276.25</ele><time>2026-05-03T16:42:20.098Z</time></trkpt><trkpt lat="44.7413538" lon="7.9187619"><ele>276.5</ele><time>2026-05-03T16:42:21.098Z</time></trkpt><trkpt lat="44.7413222" lon="7.9189549"><ele>276.75</ele><time>2026-05-03T16:42:22.097Z</time></trkpt><trkpt lat="44.741256" lon="7.9191482"><ele>277.0</ele><time>2026-05-03T16:42:23.098Z</time></trkpt><trkpt lat="44.7411586" lon="7.919336"><ele>277.0</ele><time>2026-05-03T16:42:24.098Z</time></trkpt><trkpt lat="44.7410699" lon="7.9195392"><ele>277.0</ele><time>2026-05-03T16:42:25.098Z</time></trkpt><trkpt lat="44.740989" lon="7.9197298"><ele>277.0</ele><time>2026-05-03T16:42:26.098Z</time></trkpt><trkpt lat="44.7408828" lon="7.9199389"><ele>277.66666666666663</ele><time>2026-05-03T16:42:27.097Z</time></trkpt><trkpt lat="44.7407963" lon="7.920147"><ele>278.3333333333333</ele><time>2026-05-03T16:42:28.097Z</time></trkpt><trkpt lat="44.7407211" lon="7.9203568"><ele>279.0</ele><time>2026-05-03T16:42:29.098Z</time></trkpt><trkpt lat="44.7406373" lon="7.9205832"><ele>279.0</ele><time>2026-05-03T16:42:30.097Z</time></trkpt><trkpt lat="44.7405376" lon="7.9208538"><ele>279.0</ele><time>2026-05-03T16:42:31.098Z</time></trkpt><trkpt lat="44.7404225" lon="7.9209863"><ele>279.0</ele><time>2026-05-03T16:42:32.097Z</time></trkpt><trkpt lat="44.7403138" lon="7.9211614"><ele>275.3333333333333</ele><time>2026-05-03T16:42:33.098Z</time></trkpt><trkpt lat="44.7402122" lon="7.9213146"><ele>271.66666666666663</ele><time>2026-05-03T16:42:34.098Z</time></trkpt><trkpt lat="44.7400803" lon="7.9214629"><ele>268.0</ele><time>2026-05-03T16:42:35.098Z</time></trkpt><trkpt lat="44.7399759" lon="7.9215995"><ele>268.0</ele><time>2026-05-03T16:42:36.098Z</time></trkpt><trkpt lat="44.7399087" lon="7.9216787"><ele>268.0</ele><time>2026-05-03T16:42:37.098Z</time></trkpt><trkpt lat="44.7398156" lon="7.921845"><ele>268.0</ele><time>2026-05-03T16:42:38.098Z</time></trkpt><trkpt lat="44.7397409" lon="7.9219979"><ele>268.0</ele><time>2026-05-03T16:42:39.098Z</time></trkpt><trkpt lat="44.7396714" lon="7.9221763"><ele>269.25</ele><time>2026-05-03T16:42:40.098Z</time></trkpt><trkpt lat="44.7395856" lon="7.9223318"><ele>270.5</ele><time>2026-05-03T16:42:41.098Z</time></trkpt><trkpt lat="44.7394737" lon="7.9224575"><ele>271.75</ele><time>2026-05-03T16:42:42.098Z</time></trkpt><trkpt lat="44.7393694" lon="7.9225879"><ele>273.0</ele><time>2026-05-03T16:42:43.097Z</time></trkpt><trkpt lat="44.739274" lon="7.9226605"><ele>269.6</ele><time>2026-05-03T16:42:44.098Z</time></trkpt><trkpt lat="44.7391703" lon="7.9227452"><ele>266.20000000000005</ele><time>2026-05-03T16:42:45.098Z</time></trkpt><trkpt lat="44.7390883" lon="7.9228345"><ele>262.8</ele><time>2026-05-03T16:42:46.098Z</time></trkpt><trkpt lat="44.7391063" lon="7.9229744"><ele>259.40000000000003</ele><time>2026-05-03T16:42:47.098Z</time></trkpt><trkpt lat="44.7390654" lon="7.923091"><ele>256.0</ele><time>2026-05-03T16:42:48.098Z</time></trkpt><trkpt lat="44.7390494" lon="7.9232155"><ele>256.0</ele><time>2026-05-03T16:42:49.098Z</time></trkpt><trkpt lat="44.7391033" lon="7.9234367"><ele>256.0</ele><time>2026-05-03T16:42:50.098Z</time></trkpt><trkpt lat="44.7391265" lon="7.9236136"><ele>256.0</ele><time>2026-05-03T16:42:51.098Z</time></trkpt><trkpt lat="44.7391342" lon="7.9238056"><ele>256.0</ele><time>2026-05-03T16:42:52.098Z</time></trkpt><trkpt lat="44.7391019" lon="7.9239737"><ele>256.0</ele><time>2026-05-03T16:42:53.098Z</time></trkpt><trkpt lat="44.7390457" lon="7.9241481"><ele>256.0</ele><time>2026-05-03T16:42:54.098Z</time></trkpt><trkpt lat="44.7389721" lon="7.9242771"><ele>256.0</ele><time>2026-05-03T16:42:55.098Z</time></trkpt><trkpt lat="44.7388262" lon="7.9244641"><ele>258.66666666666663</ele><time>2026-05-03T16:42:56.098Z</time></trkpt><trkpt lat="44.7386635" lon="7.924654"><ele>261.3333333333333</ele><time>2026-05-03T16:42:57.098Z</time></trkpt><trkpt lat="44.7385365" lon="7.9248123"><ele>264.0</ele><time>2026-05-03T16:42:58.098Z</time></trkpt><trkpt lat="44.7384018" lon="7.9249768"><ele>260.0</ele><time>2026-05-03T16:42:59.098Z</time></trkpt><trkpt lat="44.7382783" lon="7.9251365"><ele>256.0</ele><time>2026-05-03T16:43:00.098Z</time></trkpt><trkpt lat="44.7381665" lon="7.9253027"><ele>252.0</ele><time>2026-05-03T16:43:01.097Z</time></trkpt><trkpt lat="44.7380553" lon="7.9254699"><ele>252.0</ele><time>2026-05-03T16:43:02.098Z</time></trkpt><trkpt lat="44.7379379" lon="7.9256639"><ele>252.0</ele><time>2026-05-03T16:43:03.097Z</time></trkpt><trkpt lat="44.7378402" lon="7.9258173"><ele>252.0</ele><time>2026-05-03T16:43:04.098Z</time></trkpt><trkpt lat="44.73776" lon="7.9259383"><ele>252.0</ele><time>2026-05-03T16:43:05.098Z</time></trkpt><trkpt lat="44.7376674" lon="7.9260702"><ele>248.0</ele><time>2026-05-03T16:43:06.098Z</time></trkpt><trkpt lat="44.7375503" lon="7.9262526"><ele>244.0</ele><time>2026-05-03T16:43:07.098Z</time></trkpt><trkpt lat="44.7374517" lon="7.9264564"><ele>240.0</ele><time>2026-05-03T16:43:08.098Z</time></trkpt><trkpt lat="44.7373992" lon="7.9266973"><ele>239.33333333333331</ele><time>2026-05-03T16:43:09.098Z</time></trkpt><trkpt lat="44.7373341" lon="7.9269198"><ele>238.66666666666666</ele><time>2026-05-03T16:43:10.098Z</time></trkpt><trkpt lat="44.7372909" lon="7.927141"><ele>238.0</ele><time>2026-05-03T16:43:11.098Z</time></trkpt><trkpt lat="44.7372671" lon="7.927379"><ele>237.33333333333331</ele><time>2026-05-03T16:43:12.098Z</time></trkpt><trkpt lat="44.737272" lon="7.9276359"><ele>236.66666666666669</ele><time>2026-05-03T16:43:13.098Z</time></trkpt><trkpt lat="44.7372733" lon="7.9278939"><ele>236.0</ele><time>2026-05-03T16:43:14.098Z</time></trkpt><trkpt lat="44.7373076" lon="7.9281483"><ele>236.0</ele><time>2026-05-03T16:43:15.098Z</time></trkpt><trkpt lat="44.7373439" lon="7.928384"><ele>236.0</ele><time>2026-05-03T16:43:16.098Z</time></trkpt><trkpt lat="44.7373974" lon="7.9286752"><ele>236.0</ele><time>2026-05-03T16:43:17.098Z</time></trkpt><trkpt lat="44.7374661" lon="7.9290293"><ele>235.33333333333334</ele><time>2026-05-03T16:43:18.098Z</time></trkpt><trkpt lat="44.7375312" lon="7.9293299"><ele>234.66666666666669</ele><time>2026-05-03T16:43:19.098Z</time></trkpt><trkpt lat="44.7375803" lon="7.9296396"><ele>234.0</ele><time>2026-05-03T16:43:20.098Z</time></trkpt><trkpt lat="44.7376266" lon="7.929932"><ele>232.66666666666669</ele><time>2026-05-03T16:43:21.098Z</time></trkpt><trkpt lat="44.7376686" lon="7.9302198"><ele>231.33333333333334</ele><time>2026-05-03T16:43:22.098Z</time></trkpt><trkpt lat="44.7377066" lon="7.9304745"><ele>230.0</ele><time>2026-05-03T16:43:23.098Z</time></trkpt><trkpt lat="44.7377408" lon="7.9307281"><ele>229.33333333333334</ele><time>2026-05-03T16:43:24.098Z</time></trkpt><trkpt lat="44.7377454" lon="7.9309923"><ele>228.66666666666669</ele><time>2026-05-03T16:43:25.098Z</time></trkpt><trkpt lat="44.7377241" lon="7.9312596"><ele>228.0</ele><time>2026-05-03T16:43:26.098Z</time></trkpt><trkpt lat="44.7376967" lon="7.9315066"><ele>227.66666666666669</ele><time>2026-05-03T16:43:27.098Z</time></trkpt><trkpt lat="44.7376511" lon="7.9317731"><ele>227.33333333333334</ele><time>2026-05-03T16:43:28.098Z</time></trkpt><trkpt lat="44.7375403" lon="7.9320437"><ele>227.0</ele><time>2026-05-03T16:43:29.098Z</time></trkpt><trkpt lat="44.737442" lon="7.9323276"><ele>227.5</ele><time>2026-05-03T16:43:30.098Z</time></trkpt><trkpt lat="44.7373395" lon="7.9326201"><ele>228.0</ele><time>2026-05-03T16:43:31.097Z</time></trkpt><trkpt lat="44.7372256" lon="7.9329455"><ele>228.0</ele><time>2026-05-03T16:43:32.098Z</time></trkpt><trkpt lat="44.7371245" lon="7.9332627"><ele>228.0</ele><time>2026-05-03T16:43:33.098Z</time></trkpt><trkpt lat="44.7370253" lon="7.9335622"><ele>227.0</ele><time>2026-05-03T16:43:34.097Z</time></trkpt><trkpt lat="44.7368928" lon="7.9338517"><ele>226.0</ele><time>2026-05-03T16:43:35.098Z</time></trkpt><trkpt lat="44.7367991" lon="7.9341499"><ele>223.5</ele><time>2026-05-03T16:43:36.098Z</time></trkpt><trkpt lat="44.7366732" lon="7.9344289"><ele>221.0</ele><time>2026-05-03T16:43:37.098Z</time></trkpt><trkpt lat="44.7365562" lon="7.9347241"><ele>221.0</ele><time>2026-05-03T16:43:38.098Z</time></trkpt><trkpt lat="44.7364458" lon="7.9350505"><ele>221.0</ele><time>2026-05-03T16:43:39.098Z</time></trkpt><trkpt lat="44.736332" lon="7.935344"><ele>222.0</ele><time>2026-05-03T16:43:40.097Z</time></trkpt><trkpt lat="44.736225" lon="7.9356498"><ele>223.0</ele><time>2026-05-03T16:43:41.098Z</time></trkpt><trkpt lat="44.7361172" lon="7.9359503"><ele>222.0</ele><time>2026-05-03T16:43:42.098Z</time></trkpt><trkpt lat="44.7360089" lon="7.9362545"><ele>221.0</ele><time>2026-05-03T16:43:43.098Z</time></trkpt><trkpt lat="44.7359064" lon="7.9365463"><ele>222.5</ele><time>2026-05-03T16:43:44.097Z</time></trkpt><trkpt lat="44.7358061" lon="7.9368459"><ele>224.0</ele><time>2026-05-03T16:43:45.098Z</time></trkpt><trkpt lat="44.7357057" lon="7.9371413"><ele>224.0</ele><time>2026-05-03T16:43:46.098Z</time></trkpt><trkpt lat="44.7356271" lon="7.9374605"><ele>224.0</ele><time>2026-05-03T16:43:47.098Z</time></trkpt><trkpt lat="44.735527" lon="7.9377488"><ele>226.0</ele><time>2026-05-03T16:43:48.097Z</time></trkpt><trkpt lat="44.7354055" lon="7.9380264"><ele>228.0</ele><time>2026-05-03T16:43:49.098Z</time></trkpt><trkpt lat="44.7353066" lon="7.9383219"><ele>223.0</ele><time>2026-05-03T16:43:50.098Z</time></trkpt><trkpt lat="44.7352019" lon="7.9386235"><ele>218.0</ele><time>2026-05-03T16:43:51.098Z</time></trkpt><trkpt lat="44.7350932" lon="7.9389262"><ele>219.5</ele><time>2026-05-03T16:43:52.097Z</time></trkpt><trkpt lat="44.7349915" lon="7.9392253"><ele>221.0</ele><time>2026-05-03T16:43:53.098Z</time></trkpt><trkpt lat="44.7348803" lon="7.9395177"><ele>221.0</ele><time>2026-05-03T16:43:54.098Z</time></trkpt><trkpt lat="44.7347632" lon="7.9397987"><ele>221.0</ele><time>2026-05-03T16:43:55.098Z</time></trkpt><trkpt lat="44.7346642" lon="7.9400719"><ele>221.0</ele><time>2026-05-03T16:43:56.098Z</time></trkpt><trkpt lat="44.734568" lon="7.9403385"><ele>220.33333333333334</ele><time>2026-05-03T16:43:57.098Z</time></trkpt><trkpt lat="44.7344808" lon="7.9405856"><ele>219.66666666666669</ele><time>2026-05-03T16:43:58.098Z</time></trkpt><trkpt lat="44.7343772" lon="7.9408329"><ele>219.0</ele><time>2026-05-03T16:43:59.098Z</time></trkpt><trkpt lat="44.7342882" lon="7.9410934"><ele>219.0</ele><time>2026-05-03T16:44:00.097Z</time></trkpt><trkpt lat="44.734204" lon="7.9413467"><ele>219.0</ele><time>2026-05-03T16:44:01.098Z</time></trkpt><trkpt lat="44.7341847" lon="7.9416506"><ele>219.0</ele><time>2026-05-03T16:44:02.098Z</time></trkpt><trkpt lat="44.7341439" lon="7.9419534"><ele>219.33333333333331</ele><time>2026-05-03T16:44:03.098Z</time></trkpt><trkpt lat="44.7341056" lon="7.9422552"><ele>219.66666666666666</ele><time>2026-05-03T16:44:04.098Z</time></trkpt><trkpt lat="44.7341147" lon="7.9425518"><ele>220.0</ele><time>2026-05-03T16:44:05.098Z</time></trkpt><trkpt lat="44.7341303" lon="7.9428657"><ele>220.0</ele><time>2026-05-03T16:44:06.097Z</time></trkpt><trkpt lat="44.734161" lon="7.9431823"><ele>220.0</ele><time>2026-05-03T16:44:07.098Z</time></trkpt><trkpt lat="44.7342003" lon="7.943518"><ele>219.5</ele><time>2026-05-03T16:44:08.098Z</time></trkpt><trkpt lat="44.7342419" lon="7.9438478"><ele>219.0</ele><time>2026-05-03T16:44:09.098Z</time></trkpt><trkpt lat="44.7342807" lon="7.9441679"><ele>217.0</ele><time>2026-05-03T16:44:10.098Z</time></trkpt><trkpt lat="44.7343089" lon="7.94447"><ele>215.0</ele><time>2026-05-03T16:44:11.098Z</time></trkpt><trkpt lat="44.7343506" lon="7.9447855"><ele>213.0</ele><time>2026-05-03T16:44:12.097Z</time></trkpt><trkpt lat="44.7343795" lon="7.9450454"><ele>212.0</ele><time>2026-05-03T16:44:13.098Z</time></trkpt><trkpt lat="44.7344154" lon="7.9453241"><ele>211.0</ele><time>2026-05-03T16:44:14.098Z</time></trkpt><trkpt lat="44.7344565" lon="7.945598"><ele>210.0</ele><time>2026-05-03T16:44:15.098Z</time></trkpt><trkpt lat="44.7344891" lon="7.9458628"><ele>210.33333333333331</ele><time>2026-05-03T16:44:16.098Z</time></trkpt><trkpt lat="44.7345317" lon="7.946164"><ele>210.66666666666666</ele><time>2026-05-03T16:44:17.098Z</time></trkpt><trkpt lat="44.7345675" lon="7.9464473"><ele>211.0</ele><time>2026-05-03T16:44:18.098Z</time></trkpt><trkpt lat="44.7346004" lon="7.94673"><ele>211.33333333333331</ele><time>2026-05-03T16:44:19.098Z</time></trkpt><trkpt lat="44.7346264" lon="7.946996"><ele>211.66666666666669</ele><time>2026-05-03T16:44:20.098Z</time></trkpt><trkpt lat="44.7346576" lon="7.947282"><ele>212.0</ele><time>2026-05-03T16:44:21.098Z</time></trkpt><trkpt lat="44.7346777" lon="7.9475064"><ele>212.25</ele><time>2026-05-03T16:44:22.098Z</time></trkpt><trkpt lat="44.7347052" lon="7.947715"><ele>212.5</ele><time>2026-05-03T16:44:23.098Z</time></trkpt><trkpt lat="44.7347305" lon="7.9479241"><ele>212.75</ele><time>2026-05-03T16:44:24.098Z</time></trkpt><trkpt lat="44.7347514" lon="7.9481205"><ele>213.0</ele><time>2026-05-03T16:44:25.098Z</time></trkpt><trkpt lat="44.7347569" lon="7.9482907"><ele>213.0</ele><time>2026-05-03T16:44:26.098Z</time></trkpt><trkpt lat="44.7347718" lon="7.9484508"><ele>213.0</ele><time>2026-05-03T16:44:27.098Z</time></trkpt><trkpt lat="44.7347765" lon="7.9486146"><ele>213.0</ele><time>2026-05-03T16:44:28.098Z</time></trkpt><trkpt lat="44.7347745" lon="7.9487823"><ele>213.0</ele><time>2026-05-03T16:44:29.098Z</time></trkpt><trkpt lat="44.734751" lon="7.9489359"><ele>213.0</ele><time>2026-05-03T16:44:30.098Z</time></trkpt><trkpt lat="44.734721" lon="7.9490493"><ele>213.0</ele><time>2026-05-03T16:44:31.097Z</time></trkpt><trkpt lat="44.7347341" lon="7.9491376"><ele>213.0</ele><time>2026-05-03T16:44:32.098Z</time></trkpt><trkpt lat="44.7347787" lon="7.9492769"><ele>213.0</ele><time>2026-05-03T16:44:34.098Z</time></trkpt><trkpt lat="44.7348252" lon="7.9493435"><ele>213.0</ele><time>2026-05-03T16:44:35.098Z</time></trkpt><trkpt lat="44.7349193" lon="7.9493237"><ele>213.0</ele><time>2026-05-03T16:44:37.098Z</time></trkpt><trkpt lat="44.7349258" lon="7.9491743"><ele>213.0</ele><time>2026-05-03T16:44:38.098Z</time></trkpt><trkpt lat="44.7349215" lon="7.948912"><ele>213.0</ele><time>2026-05-03T16:44:39.098Z</time></trkpt><trkpt lat="44.7349789" lon="7.9487612"><ele>213.0</ele><time>2026-05-03T16:44:40.098Z</time></trkpt><trkpt lat="44.7350617" lon="7.9485973"><ele>213.0</ele><time>2026-05-03T16:44:41.098Z</time></trkpt><trkpt lat="44.7351329" lon="7.9483805"><ele>213.0</ele><time>2026-05-03T16:44:42.098Z</time></trkpt><trkpt lat="44.7352333" lon="7.9481298"><ele>213.0</ele><time>2026-05-03T16:44:43.097Z</time></trkpt><trkpt lat="44.7353907" lon="7.9478707"><ele>213.33333333333331</ele><time>2026-05-03T16:44:44.098Z</time></trkpt><trkpt lat="44.7354979" lon="7.947627"><ele>213.66666666666666</ele><time>2026-05-03T16:44:45.098Z</time></trkpt><trkpt lat="44.7356104" lon="7.9474095"><ele>214.0</ele><time>2026-05-03T16:44:46.098Z</time></trkpt><trkpt lat="44.7356948" lon="7.9471574"><ele>214.0</ele><time>2026-05-03T16:44:47.098Z</time></trkpt><trkpt lat="44.7357901" lon="7.9469095"><ele>214.0</ele><time>2026-05-03T16:44:48.097Z</time></trkpt><trkpt lat="44.7359278" lon="7.9466842"><ele>214.0</ele><time>2026-05-03T16:44:49.097Z</time></trkpt><trkpt lat="44.736065" lon="7.9464286"><ele>221.0</ele><time>2026-05-03T16:44:50.097Z</time></trkpt><trkpt lat="44.7362006" lon="7.9461932"><ele>228.0</ele><time>2026-05-03T16:44:51.098Z</time></trkpt><trkpt lat="44.7363841" lon="7.9459448"><ele>226.33333333333331</ele><time>2026-05-03T16:44:52.098Z</time></trkpt><trkpt lat="44.7365566" lon="7.9457212"><ele>224.66666666666666</ele><time>2026-05-03T16:44:53.097Z</time></trkpt><trkpt lat="44.7367107" lon="7.9455201"><ele>223.0</ele><time>2026-05-03T16:44:54.098Z</time></trkpt><trkpt lat="44.7368584" lon="7.9453177"><ele>223.33333333333331</ele><time>2026-05-03T16:44:55.098Z</time></trkpt><trkpt lat="44.7370451" lon="7.9451094"><ele>223.66666666666669</ele><time>2026-05-03T16:44:56.098Z</time></trkpt><trkpt lat="44.7372055" lon="7.9449447"><ele>224.0</ele><time>2026-05-03T16:44:57.098Z</time></trkpt><trkpt lat="44.7373907" lon="7.9447783"><ele>224.0</ele><time>2026-05-03T16:44:58.098Z</time></trkpt><trkpt lat="44.7375741" lon="7.9446285"><ele>224.0</ele><time>2026-05-03T16:44:59.098Z</time></trkpt><trkpt lat="44.7377561" lon="7.9444647"><ele>224.0</ele><time>2026-05-03T16:45:00.098Z</time></trkpt><trkpt lat="44.7379285" lon="7.9443387"><ele>222.0</ele><time>2026-05-03T16:45:01.098Z</time></trkpt><trkpt lat="44.738086" lon="7.9442004"><ele>220.0</ele><time>2026-05-03T16:45:02.098Z</time></trkpt><trkpt lat="44.7382412" lon="7.9441091"><ele>218.0</ele><time>2026-05-03T16:45:03.097Z</time></trkpt><trkpt lat="44.7384126" lon="7.9440521"><ele>219.0</ele><time>2026-05-03T16:45:04.098Z</time></trkpt><trkpt lat="44.7385985" lon="7.9440244"><ele>220.0</ele><time>2026-05-03T16:45:05.098Z</time></trkpt><trkpt lat="44.7387911" lon="7.9440056"><ele>221.0</ele><time>2026-05-03T16:45:06.098Z</time></trkpt><trkpt lat="44.7389831" lon="7.9440016"><ele>221.0</ele><time>2026-05-03T16:45:07.097Z</time></trkpt><trkpt lat="44.7391884" lon="7.9439969"><ele>221.0</ele><time>2026-05-03T16:45:08.098Z</time></trkpt><trkpt lat="44.7393592" lon="7.9439584"><ele>221.0</ele><time>2026-05-03T16:45:09.098Z</time></trkpt><trkpt lat="44.7395311" lon="7.9439201"><ele>221.0</ele><time>2026-05-03T16:45:10.098Z</time></trkpt><trkpt lat="44.7397358" lon="7.9438014"><ele>221.0</ele><time>2026-05-03T16:45:11.097Z</time></trkpt><trkpt lat="44.7399221" lon="7.943626"><ele>221.0</ele><time>2026-05-03T16:45:12.097Z</time></trkpt><trkpt lat="44.7401131" lon="7.9434854"><ele>221.66666666666669</ele><time>2026-05-03T16:45:13.098Z</time></trkpt><trkpt lat="44.740289" lon="7.943315"><ele>222.33333333333331</ele><time>2026-05-03T16:45:14.097Z</time></trkpt><trkpt lat="44.7404632" lon="7.9431499"><ele>223.0</ele><time>2026-05-03T16:45:15.098Z</time></trkpt><trkpt lat="44.7406536" lon="7.9429766"><ele>223.0</ele><time>2026-05-03T16:45:16.098Z</time></trkpt><trkpt lat="44.7408048" lon="7.9428029"><ele>223.0</ele><time>2026-05-03T16:45:17.097Z</time></trkpt><trkpt lat="44.7409987" lon="7.9426398"><ele>223.0</ele><time>2026-05-03T16:45:18.098Z</time></trkpt><trkpt lat="44.7412159" lon="7.9425097"><ele>223.0</ele><time>2026-05-03T16:45:19.097Z</time></trkpt><trkpt lat="44.7414303" lon="7.9423915"><ele>223.0</ele><time>2026-05-03T16:45:20.098Z</time></trkpt><trkpt lat="44.741639" lon="7.9422669"><ele>223.0</ele><time>2026-05-03T16:45:21.098Z</time></trkpt><trkpt lat="44.7418529" lon="7.9421421"><ele>223.0</ele><time>2026-05-03T16:45:22.097Z</time></trkpt><trkpt lat="44.7420628" lon="7.9420181"><ele>224.0</ele><time>2026-05-03T16:45:23.097Z</time></trkpt><trkpt lat="44.7422637" lon="7.9419046"><ele>225.0</ele><time>2026-05-03T16:45:24.098Z</time></trkpt><trkpt lat="44.7424611" lon="7.9417896"><ele>226.0</ele><time>2026-05-03T16:45:25.098Z</time></trkpt><trkpt lat="44.7426708" lon="7.9416609"><ele>227.66666666666666</ele><time>2026-05-03T16:45:26.097Z</time></trkpt><trkpt lat="44.7428719" lon="7.9415384"><ele>229.33333333333331</ele><time>2026-05-03T16:45:27.097Z</time></trkpt><trkpt lat="44.7430793" lon="7.9414151"><ele>231.0</ele><time>2026-05-03T16:45:28.098Z</time></trkpt><trkpt lat="44.7432857" lon="7.9413025"><ele>231.0</ele><time>2026-05-03T16:45:29.097Z</time></trkpt><trkpt lat="44.7434893" lon="7.9411993"><ele>231.0</ele><time>2026-05-03T16:45:30.098Z</time></trkpt><trkpt lat="44.743709" lon="7.9411154"><ele>231.0</ele><time>2026-05-03T16:45:31.098Z</time></trkpt><trkpt lat="44.7439318" lon="7.9410176"><ele>233.0</ele><time>2026-05-03T16:45:32.098Z</time></trkpt><trkpt lat="44.744151" lon="7.9409191"><ele>235.0</ele><time>2026-05-03T16:45:33.098Z</time></trkpt><trkpt lat="44.7443629" lon="7.9408314"><ele>236.0</ele><time>2026-05-03T16:45:34.098Z</time></trkpt><trkpt lat="44.7445747" lon="7.9407471"><ele>237.0</ele><time>2026-05-03T16:45:35.098Z</time></trkpt><trkpt lat="44.744778" lon="7.9406759"><ele>238.0</ele><time>2026-05-03T16:45:36.098Z</time></trkpt><trkpt lat="44.7449847" lon="7.9405661"><ele>238.0</ele><time>2026-05-03T16:45:37.097Z</time></trkpt><trkpt lat="44.7452071" lon="7.9404658"><ele>238.0</ele><time>2026-05-03T16:45:38.098Z</time></trkpt><trkpt lat="44.7454286" lon="7.9403088"><ele>237.5</ele><time>2026-05-03T16:45:39.097Z</time></trkpt><trkpt lat="44.7456487" lon="7.9401288"><ele>237.0</ele><time>2026-05-03T16:45:40.098Z</time></trkpt><trkpt lat="44.7458479" lon="7.9399621"><ele>239.66666666666669</ele><time>2026-05-03T16:45:41.098Z</time></trkpt><trkpt lat="44.7460482" lon="7.9398157"><ele>242.33333333333334</ele><time>2026-05-03T16:45:42.098Z</time></trkpt><trkpt lat="44.7462329" lon="7.9396619"><ele>245.0</ele><time>2026-05-03T16:45:43.098Z</time></trkpt><trkpt lat="44.7464053" lon="7.939525"><ele>245.0</ele><time>2026-05-03T16:45:44.098Z</time></trkpt><trkpt lat="44.7465801" lon="7.9393882"><ele>245.0</ele><time>2026-05-03T16:45:45.098Z</time></trkpt><trkpt lat="44.7467289" lon="7.93928"><ele>245.0</ele><time>2026-05-03T16:45:46.097Z</time></trkpt><trkpt lat="44.7468905" lon="7.9391879"><ele>242.0</ele><time>2026-05-03T16:45:47.098Z</time></trkpt><trkpt lat="44.7470386" lon="7.9391093"><ele>239.0</ele><time>2026-05-03T16:45:48.098Z</time></trkpt><trkpt lat="44.7471993" lon="7.9390365"><ele>236.0</ele><time>2026-05-03T16:45:49.098Z</time></trkpt><trkpt lat="44.7473944" lon="7.938988"><ele>236.0</ele><time>2026-05-03T16:45:50.097Z</time></trkpt><trkpt lat="44.7475955" lon="7.9389461"><ele>236.0</ele><time>2026-05-03T16:45:51.097Z</time></trkpt><trkpt lat="44.7477163" lon="7.9388977"><ele>236.0</ele><time>2026-05-03T16:45:52.098Z</time></trkpt><trkpt lat="44.7478889" lon="7.9388494"><ele>238.66666666666669</ele><time>2026-05-03T16:45:53.098Z</time></trkpt><trkpt lat="44.7480446" lon="7.9388282"><ele>241.33333333333331</ele><time>2026-05-03T16:45:54.098Z</time></trkpt><trkpt lat="44.7481899" lon="7.9387821"><ele>244.0</ele><time>2026-05-03T16:45:55.098Z</time></trkpt><trkpt lat="44.7483343" lon="7.9387516"><ele>244.0</ele><time>2026-05-03T16:45:56.098Z</time></trkpt><trkpt lat="44.7484961" lon="7.9387353"><ele>244.0</ele><time>2026-05-03T16:45:57.098Z</time></trkpt><trkpt lat="44.7486381" lon="7.9387408"><ele>244.0</ele><time>2026-05-03T16:45:58.098Z</time></trkpt><trkpt lat="44.7487948" lon="7.9387811"><ele>244.0</ele><time>2026-05-03T16:45:59.098Z</time></trkpt><trkpt lat="44.7489501" lon="7.9388441"><ele>244.0</ele><time>2026-05-03T16:46:00.097Z</time></trkpt><trkpt lat="44.7490986" lon="7.938931"><ele>244.0</ele><time>2026-05-03T16:46:01.098Z</time></trkpt><trkpt lat="44.749235" lon="7.9390294"><ele>243.66666666666666</ele><time>2026-05-03T16:46:02.098Z</time></trkpt><trkpt lat="44.7493771" lon="7.9391561"><ele>243.33333333333331</ele><time>2026-05-03T16:46:03.097Z</time></trkpt><trkpt lat="44.7495206" lon="7.9392741"><ele>243.0</ele><time>2026-05-03T16:46:04.097Z</time></trkpt><trkpt lat="44.7496658" lon="7.9393774"><ele>243.0</ele><time>2026-05-03T16:46:05.098Z</time></trkpt><trkpt lat="44.7498159" lon="7.9394435"><ele>243.0</ele><time>2026-05-03T16:46:06.098Z</time></trkpt><trkpt lat="44.7499732" lon="7.9394948"><ele>243.0</ele><time>2026-05-03T16:46:07.098Z</time></trkpt><trkpt lat="44.7501285" lon="7.9395355"><ele>243.66666666666669</ele><time>2026-05-03T16:46:08.098Z</time></trkpt><trkpt lat="44.7502947" lon="7.9395605"><ele>244.33333333333334</ele><time>2026-05-03T16:46:09.098Z</time></trkpt><trkpt lat="44.7504456" lon="7.9394828"><ele>245.0</ele><time>2026-05-03T16:46:10.097Z</time></trkpt><trkpt lat="44.7506037" lon="7.9394363"><ele>245.0</ele><time>2026-05-03T16:46:11.098Z</time></trkpt><trkpt lat="44.7507602" lon="7.9392912"><ele>245.0</ele><time>2026-05-03T16:46:12.097Z</time></trkpt><trkpt lat="44.7509061" lon="7.9391686"><ele>245.0</ele><time>2026-05-03T16:46:13.097Z</time></trkpt><trkpt lat="44.7510563" lon="7.9390398"><ele>245.33333333333334</ele><time>2026-05-03T16:46:14.098Z</time></trkpt><trkpt lat="44.7511963" lon="7.9388834"><ele>245.66666666666669</ele><time>2026-05-03T16:46:15.098Z</time></trkpt><trkpt lat="44.7513451" lon="7.938739"><ele>246.0</ele><time>2026-05-03T16:46:16.098Z</time></trkpt><trkpt lat="44.7515014" lon="7.938561"><ele>245.0</ele><time>2026-05-03T16:46:17.098Z</time></trkpt><trkpt lat="44.7516225" lon="7.9383309"><ele>244.0</ele><time>2026-05-03T16:46:18.097Z</time></trkpt><trkpt lat="44.7517228" lon="7.9380845"><ele>243.0</ele><time>2026-05-03T16:46:19.098Z</time></trkpt><trkpt lat="44.7518124" lon="7.9378092"><ele>244.33333333333331</ele><time>2026-05-03T16:46:20.098Z</time></trkpt><trkpt lat="44.7518997" lon="7.9375512"><ele>245.66666666666666</ele><time>2026-05-03T16:46:21.098Z</time></trkpt><trkpt lat="44.7519547" lon="7.937318"><ele>247.0</ele><time>2026-05-03T16:46:22.098Z</time></trkpt><trkpt lat="44.752012" lon="7.9370806"><ele>247.0</ele><time>2026-05-03T16:46:23.098Z</time></trkpt><trkpt lat="44.7520685" lon="7.9368832"><ele>247.0</ele><time>2026-05-03T16:46:24.097Z</time></trkpt><trkpt lat="44.752159" lon="7.9367223"><ele>247.0</ele><time>2026-05-03T16:46:25.098Z</time></trkpt><trkpt lat="44.7522764" lon="7.9365747"><ele>247.33333333333331</ele><time>2026-05-03T16:46:26.098Z</time></trkpt><trkpt lat="44.7524175" lon="7.9365199"><ele>247.66666666666669</ele><time>2026-05-03T16:46:27.098Z</time></trkpt><trkpt lat="44.7525749" lon="7.9364684"><ele>248.0</ele><time>2026-05-03T16:46:28.098Z</time></trkpt><trkpt lat="44.7527518" lon="7.936433"><ele>249.66666666666669</ele><time>2026-05-03T16:46:29.098Z</time></trkpt><trkpt lat="44.7529257" lon="7.9364078"><ele>251.33333333333331</ele><time>2026-05-03T16:46:30.098Z</time></trkpt><trkpt lat="44.7531341" lon="7.9363714"><ele>253.0</ele><time>2026-05-03T16:46:31.098Z</time></trkpt><trkpt lat="44.7533387" lon="7.9363821"><ele>252.66666666666666</ele><time>2026-05-03T16:46:32.098Z</time></trkpt><trkpt lat="44.7535409" lon="7.9363966"><ele>252.33333333333331</ele><time>2026-05-03T16:46:33.098Z</time></trkpt><trkpt lat="44.7537289" lon="7.9364253"><ele>252.0</ele><time>2026-05-03T16:46:34.098Z</time></trkpt><trkpt lat="44.7539125" lon="7.9364621"><ele>252.0</ele><time>2026-05-03T16:46:35.098Z</time></trkpt><trkpt lat="44.7540916" lon="7.9364873"><ele>252.0</ele><time>2026-05-03T16:46:36.098Z</time></trkpt><trkpt lat="44.7542731" lon="7.9365009"><ele>252.0</ele><time>2026-05-03T16:46:37.097Z</time></trkpt><trkpt lat="44.7544547" lon="7.9364838"><ele>252.0</ele><time>2026-05-03T16:46:38.098Z</time></trkpt><trkpt lat="44.7546393" lon="7.9364466"><ele>252.0</ele><time>2026-05-03T16:46:39.098Z</time></trkpt><trkpt lat="44.75484" lon="7.9363743"><ele>252.0</ele><time>2026-05-03T16:46:40.098Z</time></trkpt><trkpt lat="44.7550318" lon="7.9362946"><ele>254.33333333333331</ele><time>2026-05-03T16:46:41.098Z</time></trkpt><trkpt lat="44.755223" lon="7.9362243"><ele>256.66666666666663</ele><time>2026-05-03T16:46:42.098Z</time></trkpt><trkpt lat="44.7554035" lon="7.9361755"><ele>259.0</ele><time>2026-05-03T16:46:43.098Z</time></trkpt><trkpt lat="44.7555956" lon="7.9361338"><ele>259.0</ele><time>2026-05-03T16:46:44.098Z</time></trkpt><trkpt lat="44.7557808" lon="7.9361318"><ele>259.0</ele><time>2026-05-03T16:46:45.098Z</time></trkpt><trkpt lat="44.755971" lon="7.9361457"><ele>259.0</ele><time>2026-05-03T16:46:46.098Z</time></trkpt><trkpt lat="44.7561511" lon="7.9361447"><ele>259.66666666666663</ele><time>2026-05-03T16:46:47.098Z</time></trkpt><trkpt lat="44.7563212" lon="7.9362087"><ele>260.3333333333333</ele><time>2026-05-03T16:46:48.098Z</time></trkpt><trkpt lat="44.7564817" lon="7.9362157"><ele>261.0</ele><time>2026-05-03T16:46:49.098Z</time></trkpt><trkpt lat="44.7566422" lon="7.9362214"><ele>261.0</ele><time>2026-05-03T16:46:50.098Z</time></trkpt><trkpt lat="44.756783" lon="7.9362047"><ele>261.0</ele><time>2026-05-03T16:46:51.098Z</time></trkpt><trkpt lat="44.7569297" lon="7.9361747"><ele>261.0</ele><time>2026-05-03T16:46:52.098Z</time></trkpt><trkpt lat="44.7570666" lon="7.9362083"><ele>261.0</ele><time>2026-05-03T16:46:53.097Z</time></trkpt><trkpt lat="44.7572036" lon="7.9362525"><ele>260.6666666666667</ele><time>2026-05-03T16:46:54.098Z</time></trkpt><trkpt lat="44.7573357" lon="7.9363638"><ele>260.33333333333337</ele><time>2026-05-03T16:46:55.098Z</time></trkpt><trkpt lat="44.7574523" lon="7.9365068"><ele>260.0</ele><time>2026-05-03T16:46:56.098Z</time></trkpt><trkpt lat="44.7575694" lon="7.9366874"><ele>260.33333333333337</ele><time>2026-05-03T16:46:57.098Z</time></trkpt><trkpt lat="44.7576573" lon="7.9368858"><ele>260.6666666666667</ele><time>2026-05-03T16:46:58.097Z</time></trkpt><trkpt lat="44.7577954" lon="7.9370965"><ele>261.0</ele><time>2026-05-03T16:46:59.098Z</time></trkpt><trkpt lat="44.7579334" lon="7.9373139"><ele>262.3333333333333</ele><time>2026-05-03T16:47:00.097Z</time></trkpt><trkpt lat="44.7580608" lon="7.9375252"><ele>263.66666666666663</ele><time>2026-05-03T16:47:01.098Z</time></trkpt><trkpt lat="44.7581761" lon="7.9377191"><ele>265.0</ele><time>2026-05-03T16:47:02.098Z</time></trkpt><trkpt lat="44.7582833" lon="7.9379033"><ele>266.66666666666663</ele><time>2026-05-03T16:47:03.098Z</time></trkpt><trkpt lat="44.7583955" lon="7.9380742"><ele>268.3333333333333</ele><time>2026-05-03T16:47:04.098Z</time></trkpt><trkpt lat="44.7585067" lon="7.9382236"><ele>270.0</ele><time>2026-05-03T16:47:05.097Z</time></trkpt><trkpt lat="44.7586466" lon="7.9383193"><ele>273.3333333333333</ele><time>2026-05-03T16:47:06.098Z</time></trkpt><trkpt lat="44.7587978" lon="7.9383938"><ele>276.66666666666663</ele><time>2026-05-03T16:47:07.098Z</time></trkpt><trkpt lat="44.7589512" lon="7.9384728"><ele>280.0</ele><time>2026-05-03T16:47:08.098Z</time></trkpt><trkpt lat="44.7591258" lon="7.9384969"><ele>280.0</ele><time>2026-05-03T16:47:09.097Z</time></trkpt><trkpt lat="44.7592888" lon="7.9385462"><ele>280.0</ele><time>2026-05-03T16:47:10.097Z</time></trkpt><trkpt lat="44.7594538" lon="7.9385945"><ele>280.0</ele><time>2026-05-03T16:47:11.098Z</time></trkpt><trkpt lat="44.7596012" lon="7.9386316"><ele>277.5</ele><time>2026-05-03T16:47:12.098Z</time></trkpt><trkpt lat="44.7597493" lon="7.9386274"><ele>275.0</ele><time>2026-05-03T16:47:13.098Z</time></trkpt><trkpt lat="44.7598991" lon="7.9385977"><ele>272.5</ele><time>2026-05-03T16:47:14.097Z</time></trkpt><trkpt lat="44.7600337" lon="7.9385258"><ele>270.0</ele><time>2026-05-03T16:47:15.098Z</time></trkpt><trkpt lat="44.7602089" lon="7.9383874"><ele>268.0</ele><time>2026-05-03T16:47:16.098Z</time></trkpt><trkpt lat="44.7603694" lon="7.9382956"><ele>266.0</ele><time>2026-05-03T16:47:17.097Z</time></trkpt><trkpt lat="44.7605404" lon="7.9381722"><ele>264.0</ele><time>2026-05-03T16:47:18.098Z</time></trkpt><trkpt lat="44.7607029" lon="7.9380523"><ele>264.0</ele><time>2026-05-03T16:47:19.098Z</time></trkpt><trkpt lat="44.7608554" lon="7.9379381"><ele>264.0</ele><time>2026-05-03T16:47:20.098Z</time></trkpt><trkpt lat="44.7609882" lon="7.9378108"><ele>264.0</ele><time>2026-05-03T16:47:21.097Z</time></trkpt><trkpt lat="44.7611445" lon="7.9376731"><ele>263.0</ele><time>2026-05-03T16:47:22.098Z</time></trkpt><trkpt lat="44.7612815" lon="7.9375496"><ele>262.0</ele><time>2026-05-03T16:47:23.098Z</time></trkpt><trkpt lat="44.7614173" lon="7.9374454"><ele>261.0</ele><time>2026-05-03T16:47:24.098Z</time></trkpt><trkpt lat="44.76155" lon="7.9373355"><ele>261.0</ele><time>2026-05-03T16:47:25.098Z</time></trkpt><trkpt lat="44.7616833" lon="7.9372922"><ele>261.0</ele><time>2026-05-03T16:47:26.098Z</time></trkpt><trkpt lat="44.7618153" lon="7.9372784"><ele>261.0</ele><time>2026-05-03T16:47:27.098Z</time></trkpt><trkpt lat="44.7619571" lon="7.9372653"><ele>261.0</ele><time>2026-05-03T16:47:28.098Z</time></trkpt><trkpt lat="44.7620693" lon="7.9372629"><ele>260.2</ele><time>2026-05-03T16:47:29.098Z</time></trkpt><trkpt lat="44.7621948" lon="7.9372489"><ele>259.40000000000003</ele><time>2026-05-03T16:47:30.097Z</time></trkpt><trkpt lat="44.7623049" lon="7.9372161"><ele>258.6</ele><time>2026-05-03T16:47:31.098Z</time></trkpt><trkpt lat="44.7623798" lon="7.9371769"><ele>257.8</ele><time>2026-05-03T16:47:32.097Z</time></trkpt><trkpt lat="44.7624484" lon="7.937103"><ele>257.0</ele><time>2026-05-03T16:47:33.098Z</time></trkpt><trkpt lat="44.7625248" lon="7.937055"><ele>257.0</ele><time>2026-05-03T16:47:34.098Z</time></trkpt><trkpt lat="44.7625805" lon="7.9369636"><ele>257.0</ele><time>2026-05-03T16:47:35.098Z</time></trkpt><trkpt lat="44.7626607" lon="7.936877"><ele>257.0</ele><time>2026-05-03T16:47:36.098Z</time></trkpt><trkpt lat="44.7627457" lon="7.9368011"><ele>257.0</ele><time>2026-05-03T16:47:37.097Z</time></trkpt><trkpt lat="44.7628344" lon="7.9367405"><ele>257.0</ele><time>2026-05-03T16:47:38.098Z</time></trkpt><trkpt lat="44.7629477" lon="7.9367253"><ele>255.75</ele><time>2026-05-03T16:47:39.098Z</time></trkpt><trkpt lat="44.7630677" lon="7.9367468"><ele>254.5</ele><time>2026-05-03T16:47:40.098Z</time></trkpt><trkpt lat="44.7631731" lon="7.93679"><ele>253.25</ele><time>2026-05-03T16:47:41.098Z</time></trkpt><trkpt lat="44.763291" lon="7.9368565"><ele>252.0</ele><time>2026-05-03T16:47:42.097Z</time></trkpt><trkpt lat="44.7634047" lon="7.9369291"><ele>252.0</ele><time>2026-05-03T16:47:43.098Z</time></trkpt><trkpt lat="44.7635431" lon="7.9370379"><ele>252.0</ele><time>2026-05-03T16:47:44.098Z</time></trkpt><trkpt lat="44.7635854" lon="7.9372036"><ele>252.0</ele><time>2026-05-03T16:47:45.098Z</time></trkpt><trkpt lat="44.7636377" lon="7.9373813"><ele>252.0</ele><time>2026-05-03T16:47:46.098Z</time></trkpt><trkpt lat="44.7636969" lon="7.9375644"><ele>252.0</ele><time>2026-05-03T16:47:47.097Z</time></trkpt><trkpt lat="44.7637675" lon="7.9377403"><ele>252.0</ele><time>2026-05-03T16:47:48.097Z</time></trkpt><trkpt lat="44.7638673" lon="7.9379133"><ele>252.0</ele><time>2026-05-03T16:47:49.098Z</time></trkpt><trkpt lat="44.7639692" lon="7.9380746"><ele>252.0</ele><time>2026-05-03T16:47:50.098Z</time></trkpt><trkpt lat="44.7641072" lon="7.9382635"><ele>252.0</ele><time>2026-05-03T16:47:51.098Z</time></trkpt><trkpt lat="44.7642425" lon="7.9384494"><ele>252.0</ele><time>2026-05-03T16:47:52.098Z</time></trkpt><trkpt lat="44.7644127" lon="7.9386955"><ele>252.0</ele><time>2026-05-03T16:47:53.097Z</time></trkpt><trkpt lat="44.7645785" lon="7.9389102"><ele>252.0</ele><time>2026-05-03T16:47:54.098Z</time></trkpt><trkpt lat="44.7647253" lon="7.9391368"><ele>252.0</ele><time>2026-05-03T16:47:55.098Z</time></trkpt><trkpt lat="44.7648809" lon="7.9393525"><ele>251.66666666666669</ele><time>2026-05-03T16:47:56.098Z</time></trkpt><trkpt lat="44.7650405" lon="7.9395482"><ele>251.33333333333334</ele><time>2026-05-03T16:47:57.098Z</time></trkpt><trkpt lat="44.7652301" lon="7.9397307"><ele>251.0</ele><time>2026-05-03T16:47:58.098Z</time></trkpt><trkpt lat="44.7654006" lon="7.9399069"><ele>248.66666666666669</ele><time>2026-05-03T16:47:59.098Z</time></trkpt><trkpt lat="44.7655386" lon="7.9400999"><ele>246.33333333333331</ele><time>2026-05-03T16:48:00.097Z</time></trkpt><trkpt lat="44.7657044" lon="7.9402733"><ele>244.0</ele><time>2026-05-03T16:48:01.098Z</time></trkpt><trkpt lat="44.7658362" lon="7.9404471"><ele>244.0</ele><time>2026-05-03T16:48:02.098Z</time></trkpt><trkpt lat="44.7659705" lon="7.9406221"><ele>244.0</ele><time>2026-05-03T16:48:03.098Z</time></trkpt><trkpt lat="44.7661124" lon="7.9407633"><ele>244.0</ele><time>2026-05-03T16:48:04.098Z</time></trkpt><trkpt lat="44.7662409" lon="7.9408867"><ele>243.0</ele><time>2026-05-03T16:48:05.098Z</time></trkpt><trkpt lat="44.766367" lon="7.9410235"><ele>242.0</ele><time>2026-05-03T16:48:06.098Z</time></trkpt><trkpt lat="44.7664954" lon="7.9411587"><ele>241.0</ele><time>2026-05-03T16:48:07.098Z</time></trkpt><trkpt lat="44.7665241" lon="7.941346"><ele>241.0</ele><time>2026-05-03T16:48:08.098Z</time></trkpt><trkpt lat="44.7665903" lon="7.9415013"><ele>241.0</ele><time>2026-05-03T16:48:09.098Z</time></trkpt><trkpt lat="44.7666177" lon="7.9417531"><ele>241.0</ele><time>2026-05-03T16:48:10.098Z</time></trkpt><trkpt lat="44.7665993" lon="7.9420067"><ele>241.0</ele><time>2026-05-03T16:48:11.098Z</time></trkpt><trkpt lat="44.7665951" lon="7.9422589"><ele>241.0</ele><time>2026-05-03T16:48:12.098Z</time></trkpt><trkpt lat="44.7666124" lon="7.9425149"><ele>241.0</ele><time>2026-05-03T16:48:13.098Z</time></trkpt><trkpt lat="44.7666362" lon="7.94277"><ele>241.0</ele><time>2026-05-03T16:48:14.098Z</time></trkpt><trkpt lat="44.7666591" lon="7.9430499"><ele>241.0</ele><time>2026-05-03T16:48:15.098Z</time></trkpt><trkpt lat="44.7667061" lon="7.9433298"><ele>241.0</ele><time>2026-05-03T16:48:16.098Z</time></trkpt><trkpt lat="44.7667759" lon="7.9436068"><ele>242.0</ele><time>2026-05-03T16:48:17.098Z</time></trkpt><trkpt lat="44.76685" lon="7.9438899"><ele>243.0</ele><time>2026-05-03T16:48:18.098Z</time></trkpt><trkpt lat="44.7669129" lon="7.9441719"><ele>244.0</ele><time>2026-05-03T16:48:19.098Z</time></trkpt><trkpt lat="44.7669763" lon="7.9444483"><ele>244.0</ele><time>2026-05-03T16:48:20.098Z</time></trkpt><trkpt lat="44.7670535" lon="7.9447115"><ele>244.0</ele><time>2026-05-03T16:48:21.098Z</time></trkpt><trkpt lat="44.7671464" lon="7.944973"><ele>244.0</ele><time>2026-05-03T16:48:22.098Z</time></trkpt><trkpt lat="44.7672537" lon="7.9452265"><ele>241.66666666666666</ele><time>2026-05-03T16:48:23.098Z</time></trkpt><trkpt lat="44.7673838" lon="7.9455151"><ele>239.33333333333331</ele><time>2026-05-03T16:48:24.098Z</time></trkpt><trkpt lat="44.7674855" lon="7.9457483"><ele>237.0</ele><time>2026-05-03T16:48:25.098Z</time></trkpt><trkpt lat="44.7676002" lon="7.945983"><ele>237.66666666666669</ele><time>2026-05-03T16:48:26.098Z</time></trkpt><trkpt lat="44.7676861" lon="7.9461886"><ele>238.33333333333334</ele><time>2026-05-03T16:48:27.098Z</time></trkpt><trkpt lat="44.7677809" lon="7.9464232"><ele>239.0</ele><time>2026-05-03T16:48:28.097Z</time></trkpt><trkpt lat="44.7678727" lon="7.9466104"><ele>237.25</ele><time>2026-05-03T16:48:29.098Z</time></trkpt><trkpt lat="44.7679592" lon="7.9467818"><ele>235.5</ele><time>2026-05-03T16:48:30.098Z</time></trkpt><trkpt lat="44.7680625" lon="7.9469383"><ele>233.75</ele><time>2026-05-03T16:48:31.098Z</time></trkpt><trkpt lat="44.7681599" lon="7.9470901"><ele>232.0</ele><time>2026-05-03T16:48:32.098Z</time></trkpt><trkpt lat="44.7682772" lon="7.9472384"><ele>232.0</ele><time>2026-05-03T16:48:33.097Z</time></trkpt><trkpt lat="44.7684139" lon="7.9473329"><ele>232.0</ele><time>2026-05-03T16:48:34.098Z</time></trkpt><trkpt lat="44.7685338" lon="7.9474152"><ele>232.0</ele><time>2026-05-03T16:48:35.098Z</time></trkpt><trkpt lat="44.7686362" lon="7.9474468"><ele>232.0</ele><time>2026-05-03T16:48:36.097Z</time></trkpt><trkpt lat="44.7688253" lon="7.9473915"><ele>232.0</ele><time>2026-05-03T16:48:37.098Z</time></trkpt><trkpt lat="44.7689885" lon="7.9473524"><ele>232.0</ele><time>2026-05-03T16:48:38.098Z</time></trkpt><trkpt lat="44.7691379" lon="7.9472999"><ele>232.0</ele><time>2026-05-03T16:48:39.098Z</time></trkpt><trkpt lat="44.769318" lon="7.9472068"><ele>232.0</ele><time>2026-05-03T16:48:40.098Z</time></trkpt><trkpt lat="44.7694351" lon="7.9472197"><ele>232.0</ele><time>2026-05-03T16:48:41.098Z</time></trkpt><trkpt lat="44.7695946" lon="7.9472514"><ele>232.0</ele><time>2026-05-03T16:48:42.097Z</time></trkpt><trkpt lat="44.7697459" lon="7.9473008"><ele>232.0</ele><time>2026-05-03T16:48:43.097Z</time></trkpt><trkpt lat="44.7698864" lon="7.9473936"><ele>232.0</ele><time>2026-05-03T16:48:44.098Z</time></trkpt><trkpt lat="44.7700278" lon="7.9475258"><ele>232.0</ele><time>2026-05-03T16:48:45.098Z</time></trkpt><trkpt lat="44.7702012" lon="7.9476576"><ele>232.0</ele><time>2026-05-03T16:48:46.098Z</time></trkpt><trkpt lat="44.77038" lon="7.9477827"><ele>230.0</ele><time>2026-05-03T16:48:47.097Z</time></trkpt><trkpt lat="44.7705994" lon="7.9478497"><ele>228.0</ele><time>2026-05-03T16:48:48.098Z</time></trkpt><trkpt lat="44.7708232" lon="7.9479134"><ele>229.0</ele><time>2026-05-03T16:48:49.098Z</time></trkpt><trkpt lat="44.7710411" lon="7.9479756"><ele>230.0</ele><time>2026-05-03T16:48:50.097Z</time></trkpt><trkpt lat="44.7712427" lon="7.9480625"><ele>231.0</ele><time>2026-05-03T16:48:51.098Z</time></trkpt><trkpt lat="44.7714376" lon="7.9481684"><ele>231.0</ele><time>2026-05-03T16:48:52.097Z</time></trkpt><trkpt lat="44.7716248" lon="7.9483004"><ele>231.0</ele><time>2026-05-03T16:48:53.098Z</time></trkpt><trkpt lat="44.7718037" lon="7.9484691"><ele>231.0</ele><time>2026-05-03T16:48:54.098Z</time></trkpt><trkpt lat="44.7719794" lon="7.9486404"><ele>229.66666666666669</ele><time>2026-05-03T16:48:55.098Z</time></trkpt><trkpt lat="44.7721535" lon="7.9488153"><ele>228.33333333333334</ele><time>2026-05-03T16:48:56.098Z</time></trkpt><trkpt lat="44.772336" lon="7.9490081"><ele>227.0</ele><time>2026-05-03T16:48:57.098Z</time></trkpt><trkpt lat="44.7725227" lon="7.9491744"><ele>227.0</ele><time>2026-05-03T16:48:58.098Z</time></trkpt><trkpt lat="44.7727012" lon="7.9493426"><ele>227.0</ele><time>2026-05-03T16:48:59.097Z</time></trkpt><trkpt lat="44.7728621" lon="7.9495334"><ele>227.0</ele><time>2026-05-03T16:49:00.098Z</time></trkpt><trkpt lat="44.7730317" lon="7.9497205"><ele>227.0</ele><time>2026-05-03T16:49:01.098Z</time></trkpt><trkpt lat="44.7732158" lon="7.9499099"><ele>227.0</ele><time>2026-05-03T16:49:02.098Z</time></trkpt><trkpt lat="44.7733799" lon="7.9500939"><ele>227.0</ele><time>2026-05-03T16:49:03.098Z</time></trkpt><trkpt lat="44.7735425" lon="7.9502552"><ele>226.33333333333334</ele><time>2026-05-03T16:49:04.098Z</time></trkpt><trkpt lat="44.7737203" lon="7.9504081"><ele>225.66666666666669</ele><time>2026-05-03T16:49:05.098Z</time></trkpt><trkpt lat="44.773888" lon="7.9505441"><ele>225.0</ele><time>2026-05-03T16:49:06.098Z</time></trkpt><trkpt lat="44.7740463" lon="7.9506885"><ele>225.0</ele><time>2026-05-03T16:49:07.098Z</time></trkpt><trkpt lat="44.7742042" lon="7.9508273"><ele>225.0</ele><time>2026-05-03T16:49:08.097Z</time></trkpt><trkpt lat="44.7743304" lon="7.9509837"><ele>225.0</ele><time>2026-05-03T16:49:09.098Z</time></trkpt><trkpt lat="44.7744742" lon="7.9511433"><ele>224.66666666666669</ele><time>2026-05-03T16:49:10.098Z</time></trkpt><trkpt lat="44.7746121" lon="7.951274"><ele>224.33333333333334</ele><time>2026-05-03T16:49:11.098Z</time></trkpt><trkpt lat="44.7747457" lon="7.9514108"><ele>224.0</ele><time>2026-05-03T16:49:12.098Z</time></trkpt><trkpt lat="44.774869" lon="7.9515425"><ele>224.0</ele><time>2026-05-03T16:49:13.097Z</time></trkpt><trkpt lat="44.7749982" lon="7.9516689"><ele>224.0</ele><time>2026-05-03T16:49:14.098Z</time></trkpt><trkpt lat="44.7751065" lon="7.9518142"><ele>224.0</ele><time>2026-05-03T16:49:15.097Z</time></trkpt><trkpt lat="44.7752315" lon="7.9519091"><ele>224.0</ele><time>2026-05-03T16:49:16.098Z</time></trkpt><trkpt lat="44.775342" lon="7.9520331"><ele>224.79999999999998</ele><time>2026-05-03T16:49:17.098Z</time></trkpt><trkpt lat="44.7754477" lon="7.9521361"><ele>225.59999999999997</ele><time>2026-05-03T16:49:18.098Z</time></trkpt><trkpt lat="44.7755181" lon="7.9522043"><ele>226.4</ele><time>2026-05-03T16:49:19.098Z</time></trkpt><trkpt lat="44.7756141" lon="7.9522943"><ele>227.2</ele><time>2026-05-03T16:49:20.097Z</time></trkpt><trkpt lat="44.7756945" lon="7.9523675"><ele>228.0</ele><time>2026-05-03T16:49:21.098Z</time></trkpt><trkpt lat="44.7757896" lon="7.9524249"><ele>228.0</ele><time>2026-05-03T16:49:23.098Z</time></trkpt><trkpt lat="44.775861" lon="7.9524273"><ele>228.0</ele><time>2026-05-03T16:49:25.097Z</time></trkpt><trkpt lat="44.7759062" lon="7.9523558"><ele>228.0</ele><time>2026-05-03T16:49:26.098Z</time></trkpt><trkpt lat="44.7759522" lon="7.9522516"><ele>228.0</ele><time>2026-05-03T16:49:27.098Z</time></trkpt><trkpt lat="44.7759666" lon="7.9521512"><ele>228.0</ele><time>2026-05-03T16:49:28.098Z</time></trkpt><trkpt lat="44.7759452" lon="7.9518561"><ele>228.5</ele><time>2026-05-03T16:49:29.097Z</time></trkpt><trkpt lat="44.7759472" lon="7.9516378"><ele>229.0</ele><time>2026-05-03T16:49:30.097Z</time></trkpt><trkpt lat="44.7759542" lon="7.9514263"><ele>229.5</ele><time>2026-05-03T16:49:31.098Z</time></trkpt><trkpt lat="44.7759858" lon="7.9512351"><ele>230.0</ele><time>2026-05-03T16:49:32.098Z</time></trkpt><trkpt lat="44.7760161" lon="7.9509865"><ele>241.0</ele><time>2026-05-03T16:49:33.098Z</time></trkpt><trkpt lat="44.7760244" lon="7.9505871"><ele>252.0</ele><time>2026-05-03T16:49:34.098Z</time></trkpt><trkpt lat="44.7760651" lon="7.950276"><ele>252.33333333333331</ele><time>2026-05-03T16:49:35.098Z</time></trkpt><trkpt lat="44.776106" lon="7.9499831"><ele>252.66666666666666</ele><time>2026-05-03T16:49:36.098Z</time></trkpt><trkpt lat="44.7761479" lon="7.9497052"><ele>253.0</ele><time>2026-05-03T16:49:37.098Z</time></trkpt><trkpt lat="44.7761598" lon="7.9494314"><ele>253.66666666666666</ele><time>2026-05-03T16:49:38.098Z</time></trkpt><trkpt lat="44.7762024" lon="7.9491952"><ele>254.33333333333331</ele><time>2026-05-03T16:49:39.098Z</time></trkpt><trkpt lat="44.7762099" lon="7.9489096"><ele>255.0</ele><time>2026-05-03T16:49:40.098Z</time></trkpt><trkpt lat="44.7762558" lon="7.948625"><ele>256.0</ele><time>2026-05-03T16:49:41.098Z</time></trkpt><trkpt lat="44.7763039" lon="7.9483593"><ele>257.0</ele><time>2026-05-03T16:49:42.098Z</time></trkpt><trkpt lat="44.7763198" lon="7.9480994"><ele>258.0</ele><time>2026-05-03T16:49:43.098Z</time></trkpt><trkpt lat="44.7763594" lon="7.9478504"><ele>258.0</ele><time>2026-05-03T16:49:44.098Z</time></trkpt><trkpt lat="44.7763974" lon="7.9476439"><ele>258.0</ele><time>2026-05-03T16:49:45.097Z</time></trkpt><trkpt lat="44.7764463" lon="7.947451"><ele>258.0</ele><time>2026-05-03T16:49:46.098Z</time></trkpt><trkpt lat="44.7765108" lon="7.9472445"><ele>258.6666666666667</ele><time>2026-05-03T16:49:47.097Z</time></trkpt><trkpt lat="44.7766256" lon="7.9470921"><ele>259.33333333333337</ele><time>2026-05-03T16:49:48.098Z</time></trkpt><trkpt lat="44.7767432" lon="7.9469417"><ele>260.0</ele><time>2026-05-03T16:49:49.098Z</time></trkpt><trkpt lat="44.7768967" lon="7.9468345"><ele>260.0</ele><time>2026-05-03T16:49:50.098Z</time></trkpt><trkpt lat="44.7769787" lon="7.9467713"><ele>260.0</ele><time>2026-05-03T16:49:51.098Z</time></trkpt><trkpt lat="44.7771067" lon="7.9467242"><ele>260.0</ele><time>2026-05-03T16:49:52.098Z</time></trkpt><trkpt lat="44.7772197" lon="7.9467224"><ele>260.0</ele><time>2026-05-03T16:49:53.098Z</time></trkpt><trkpt lat="44.7772834" lon="7.9467768"><ele>260.0</ele><time>2026-05-03T16:49:54.098Z</time></trkpt><trkpt lat="44.7773522" lon="7.9467874"><ele>260.0</ele><time>2026-05-03T16:49:55.098Z</time></trkpt><trkpt lat="44.777422" lon="7.9467967"><ele>260.0</ele><time>2026-05-03T16:49:56.098Z</time></trkpt><trkpt lat="44.7775038" lon="7.9468118"><ele>260.0</ele><time>2026-05-03T16:49:57.098Z</time></trkpt><trkpt lat="44.7775971" lon="7.9468568"><ele>260.0</ele><time>2026-05-03T16:49:58.098Z</time></trkpt><trkpt lat="44.7777089" lon="7.9468979"><ele>260.0</ele><time>2026-05-03T16:49:59.097Z</time></trkpt><trkpt lat="44.7778398" lon="7.9469279"><ele>256.75</ele><time>2026-05-03T16:50:00.097Z</time></trkpt><trkpt lat="44.7779732" lon="7.9469445"><ele>253.5</ele><time>2026-05-03T16:50:01.098Z</time></trkpt><trkpt lat="44.7781066" lon="7.9469333"><ele>250.25</ele><time>2026-05-03T16:50:02.098Z</time></trkpt><trkpt lat="44.7782688" lon="7.9468781"><ele>247.0</ele><time>2026-05-03T16:50:03.098Z</time></trkpt><trkpt lat="44.7784276" lon="7.9468176"><ele>243.33333333333331</ele><time>2026-05-03T16:50:04.098Z</time></trkpt><trkpt lat="44.7785812" lon="7.9467362"><ele>239.66666666666669</ele><time>2026-05-03T16:50:05.098Z</time></trkpt><trkpt lat="44.7787296" lon="7.9466499"><ele>236.0</ele><time>2026-05-03T16:50:06.098Z</time></trkpt><trkpt lat="44.7788919" lon="7.9465552"><ele>236.0</ele><time>2026-05-03T16:50:07.097Z</time></trkpt><trkpt lat="44.7790578" lon="7.9464651"><ele>236.0</ele><time>2026-05-03T16:50:08.098Z</time></trkpt><trkpt lat="44.7792201" lon="7.9463745"><ele>236.0</ele><time>2026-05-03T16:50:09.098Z</time></trkpt><trkpt lat="44.7793861" lon="7.9463577"><ele>236.0</ele><time>2026-05-03T16:50:10.098Z</time></trkpt><trkpt lat="44.7795558" lon="7.9463142"><ele>236.0</ele><time>2026-05-03T16:50:11.097Z</time></trkpt><trkpt lat="44.7797018" lon="7.9463158"><ele>236.0</ele><time>2026-05-03T16:50:12.098Z</time></trkpt><trkpt lat="44.7798783" lon="7.9463266"><ele>236.0</ele><time>2026-05-03T16:50:13.098Z</time></trkpt><trkpt lat="44.7800507" lon="7.9464191"><ele>236.0</ele><time>2026-05-03T16:50:14.098Z</time></trkpt><trkpt lat="44.7802114" lon="7.9464605"><ele>236.0</ele><time>2026-05-03T16:50:15.097Z</time></trkpt><trkpt lat="44.7803553" lon="7.9464858"><ele>238.0</ele><time>2026-05-03T16:50:16.098Z</time></trkpt><trkpt lat="44.7805225" lon="7.9464087"><ele>240.0</ele><time>2026-05-03T16:50:17.098Z</time></trkpt><trkpt lat="44.7806768" lon="7.9463285"><ele>242.0</ele><time>2026-05-03T16:50:18.098Z</time></trkpt><trkpt lat="44.780824" lon="7.9462205"><ele>242.0</ele><time>2026-05-03T16:50:19.098Z</time></trkpt><trkpt lat="44.7809546" lon="7.9461083"><ele>242.0</ele><time>2026-05-03T16:50:20.098Z</time></trkpt><trkpt lat="44.7810819" lon="7.9460046"><ele>242.0</ele><time>2026-05-03T16:50:21.098Z</time></trkpt><trkpt lat="44.7811658" lon="7.9459456"><ele>242.0</ele><time>2026-05-03T16:50:22.098Z</time></trkpt><trkpt lat="44.7812559" lon="7.946056"><ele>242.0</ele><time>2026-05-03T16:50:24.098Z</time></trkpt><trkpt lat="44.7812796" lon="7.946223"><ele>242.0</ele><time>2026-05-03T16:50:26.097Z</time></trkpt><trkpt lat="44.781174" lon="7.9463169"><ele>242.0</ele><time>2026-05-03T16:50:27.098Z</time></trkpt><trkpt lat="44.7810765" lon="7.9464279"><ele>242.0</ele><time>2026-05-03T16:50:28.097Z</time></trkpt><trkpt lat="44.7809967" lon="7.9465396"><ele>242.0</ele><time>2026-05-03T16:50:29.098Z</time></trkpt><trkpt lat="44.7809321" lon="7.9466396"><ele>242.0</ele><time>2026-05-03T16:50:30.098Z</time></trkpt><trkpt lat="44.7808794" lon="7.9467619"><ele>242.0</ele><time>2026-05-03T16:50:31.098Z</time></trkpt><trkpt lat="44.7808848" lon="7.9468746"><ele>242.0</ele><time>2026-05-03T16:50:32.098Z</time></trkpt><trkpt lat="44.7809182" lon="7.9470135"><ele>242.0</ele><time>2026-05-03T16:50:34.098Z</time></trkpt><trkpt lat="44.7809886" lon="7.9470579"><ele>249.33333333333334</ele><time>2026-05-03T16:50:35.098Z</time></trkpt><trkpt lat="44.7811136" lon="7.9470833"><ele>256.6666666666667</ele><time>2026-05-03T16:50:36.097Z</time></trkpt><trkpt lat="44.7813474" lon="7.9470227"><ele>264.0</ele><time>2026-05-03T16:50:37.098Z</time></trkpt><trkpt lat="44.7814805" lon="7.9469913"><ele>264.0</ele><time>2026-05-03T16:50:38.098Z</time></trkpt><trkpt lat="44.7816011" lon="7.9470035"><ele>264.0</ele><time>2026-05-03T16:50:39.098Z</time></trkpt><trkpt lat="44.7816929" lon="7.9470128"><ele>264.0</ele><time>2026-05-03T16:50:40.098Z</time></trkpt><trkpt lat="44.7818081" lon="7.9469362"><ele>264.0</ele><time>2026-05-03T16:50:41.098Z</time></trkpt><trkpt lat="44.7818084" lon="7.9467916"><ele>264.0</ele><time>2026-05-03T16:50:42.098Z</time></trkpt><trkpt lat="44.7818338" lon="7.9466782"><ele>267.8</ele><time>2026-05-03T16:50:43.098Z</time></trkpt><trkpt lat="44.7818563" lon="7.9465357"><ele>271.59999999999997</ele><time>2026-05-03T16:50:44.098Z</time></trkpt><trkpt lat="44.7818882" lon="7.9464348"><ele>275.4</ele><time>2026-05-03T16:50:45.098Z</time></trkpt><trkpt lat="44.7819139" lon="7.9463357"><ele>279.2</ele><time>2026-05-03T16:50:46.098Z</time></trkpt><trkpt lat="44.7819084" lon="7.9462192"><ele>283.0</ele><time>2026-05-03T16:50:47.098Z</time></trkpt><trkpt lat="44.7819498" lon="7.9465031"><ele>283.0</ele><time>2026-05-03T16:50:50.098Z</time></trkpt><trkpt lat="44.7819203" lon="7.9466281"><ele>283.0</ele><time>2026-05-03T16:50:51.098Z</time></trkpt><trkpt lat="44.7818916" lon="7.9468349"><ele>283.0</ele><time>2026-05-03T16:50:52.097Z</time></trkpt><trkpt lat="44.7818726" lon="7.9470419"><ele>283.0</ele><time>2026-05-03T16:50:53.098Z</time></trkpt><trkpt lat="44.7818223" lon="7.9471974"><ele>279.2</ele><time>2026-05-03T16:50:54.098Z</time></trkpt><trkpt lat="44.7817003" lon="7.9473091"><ele>275.4</ele><time>2026-05-03T16:50:55.097Z</time></trkpt><trkpt lat="44.7816086" lon="7.9474122"><ele>271.59999999999997</ele><time>2026-05-03T16:50:56.098Z</time></trkpt><trkpt lat="44.7815289" lon="7.9475033"><ele>267.8</ele><time>2026-05-03T16:50:57.098Z</time></trkpt><trkpt lat="44.7814738" lon="7.9475868"><ele>264.0</ele><time>2026-05-03T16:50:58.097Z</time></trkpt><trkpt lat="44.7814384" lon="7.9476832"><ele>263.3333333333333</ele><time>2026-05-03T16:50:59.098Z</time></trkpt><trkpt lat="44.7814106" lon="7.9477833"><ele>262.6666666666667</ele><time>2026-05-03T16:51:00.098Z</time></trkpt><trkpt lat="44.7814574" lon="7.947936"><ele>262.0</ele><time>2026-05-03T16:51:02.098Z</time></trkpt><trkpt lat="44.7815332" lon="7.9479282"><ele>261.33333333333337</ele><time>2026-05-03T16:51:03.098Z</time></trkpt><trkpt lat="44.7816052" lon="7.9479192"><ele>260.6666666666667</ele><time>2026-05-03T16:51:04.098Z</time></trkpt><trkpt lat="44.7816573" lon="7.9478475"><ele>260.0</ele><time>2026-05-03T16:51:05.098Z</time></trkpt><trkpt lat="44.7818569" lon="7.9476544"><ele>268.33333333333337</ele><time>2026-05-03T16:51:06.097Z</time></trkpt><trkpt lat="44.7819849" lon="7.9473929"><ele>276.6666666666667</ele><time>2026-05-03T16:51:07.098Z</time></trkpt><trkpt lat="44.782109" lon="7.9472048"><ele>285.0</ele><time>2026-05-03T16:51:08.098Z</time></trkpt><trkpt lat="44.7822347" lon="7.9470052"><ele>285.0</ele><time>2026-05-03T16:51:09.098Z</time></trkpt><trkpt lat="44.7823445" lon="7.9468145"><ele>285.0</ele><time>2026-05-03T16:51:10.098Z</time></trkpt><trkpt lat="44.7824015" lon="7.9465805"><ele>285.0</ele><time>2026-05-03T16:51:11.098Z</time></trkpt><trkpt lat="44.7824811" lon="7.9463884"><ele>284.5</ele><time>2026-05-03T16:51:12.098Z</time></trkpt><trkpt lat="44.782546" lon="7.9462129"><ele>284.0</ele><time>2026-05-03T16:51:13.098Z</time></trkpt><trkpt lat="44.782543" lon="7.9460622"><ele>283.5</ele><time>2026-05-03T16:51:14.097Z</time></trkpt><trkpt lat="44.7825681" lon="7.9459015"><ele>283.0</ele><time>2026-05-03T16:51:15.098Z</time></trkpt><trkpt lat="44.7825489" lon="7.9457624"><ele>282.66666666666663</ele><time>2026-05-03T16:51:16.098Z</time></trkpt><trkpt lat="44.7825124" lon="7.9456071"><ele>282.3333333333333</ele><time>2026-05-03T16:51:17.098Z</time></trkpt><trkpt lat="44.7824619" lon="7.9455133"><ele>282.0</ele><time>2026-05-03T16:51:18.098Z</time></trkpt><trkpt lat="44.7823766" lon="7.9454425"><ele>281.6666666666667</ele><time>2026-05-03T16:51:19.098Z</time></trkpt><trkpt lat="44.7823185" lon="7.9453659"><ele>281.33333333333337</ele><time>2026-05-03T16:51:20.098Z</time></trkpt><trkpt lat="44.7822773" lon="7.9452845"><ele>281.0</ele><time>2026-05-03T16:51:21.097Z</time></trkpt><trkpt lat="44.7823514" lon="7.9452129"><ele>281.0</ele><time>2026-05-03T16:51:23.098Z</time></trkpt><trkpt lat="44.782428" lon="7.9452435"><ele>281.0</ele><time>2026-05-03T16:51:24.098Z</time></trkpt><trkpt lat="44.7824884" lon="7.9452771"><ele>281.0</ele><time>2026-05-03T16:51:25.098Z</time></trkpt><trkpt lat="44.7825587" lon="7.9453475"><ele>281.0</ele><time>2026-05-03T16:51:26.098Z</time></trkpt><trkpt lat="44.7826729" lon="7.9454714"><ele>281.0</ele><time>2026-05-03T16:51:27.098Z</time></trkpt><trkpt lat="44.7827206" lon="7.9456357"><ele>284.75</ele><time>2026-05-03T16:51:28.098Z</time></trkpt><trkpt lat="44.7827769" lon="7.945789"><ele>288.5</ele><time>2026-05-03T16:51:29.098Z</time></trkpt><trkpt lat="44.7827925" lon="7.9459651"><ele>292.25</ele><time>2026-05-03T16:51:30.098Z</time></trkpt><trkpt lat="44.7828027" lon="7.9461526"><ele>296.0</ele><time>2026-05-03T16:51:31.098Z</time></trkpt><trkpt lat="44.7827948" lon="7.9463096"><ele>298.5</ele><time>2026-05-03T16:51:32.098Z</time></trkpt><trkpt lat="44.7827611" lon="7.9464609"><ele>301.0</ele><time>2026-05-03T16:51:34.098Z</time></trkpt><trkpt lat="44.7827686" lon="7.9465518"><ele>303.5</ele><time>2026-05-03T16:51:35.098Z</time></trkpt><trkpt lat="44.7829553" lon="7.9464842"><ele>306.0</ele><time>2026-05-03T16:51:38.097Z</time></trkpt><trkpt lat="44.7830614" lon="7.9464149"><ele>306.0</ele><time>2026-05-03T16:51:39.097Z</time></trkpt><trkpt lat="44.7831561" lon="7.9463424"><ele>306.0</ele><time>2026-05-03T16:51:40.098Z</time></trkpt><trkpt lat="44.7832668" lon="7.9462569"><ele>306.0</ele><time>2026-05-03T16:51:41.098Z</time></trkpt><trkpt lat="44.7833928" lon="7.9461588"><ele>306.0</ele><time>2026-05-03T16:51:42.098Z</time></trkpt><trkpt lat="44.7835339" lon="7.9461081"><ele>307.0</ele><time>2026-05-03T16:51:43.098Z</time></trkpt><trkpt lat="44.7836557" lon="7.9460477"><ele>308.0</ele><time>2026-05-03T16:51:44.098Z</time></trkpt><trkpt lat="44.7837793" lon="7.9459862"><ele>309.0</ele><time>2026-05-03T16:51:45.098Z</time></trkpt><trkpt lat="44.7839221" lon="7.9458934"><ele>310.0</ele><time>2026-05-03T16:51:46.098Z</time></trkpt><trkpt lat="44.7840582" lon="7.9458141"><ele>310.0</ele><time>2026-05-03T16:51:47.098Z</time></trkpt><trkpt lat="44.7841844" lon="7.9457475"><ele>310.0</ele><time>2026-05-03T16:51:48.097Z</time></trkpt><trkpt lat="44.7843263" lon="7.9456676"><ele>310.0</ele><time>2026-05-03T16:51:49.098Z</time></trkpt><trkpt lat="44.784465" lon="7.9455937"><ele>310.0</ele><time>2026-05-03T16:51:50.098Z</time></trkpt><trkpt lat="44.7846172" lon="7.9455147"><ele>312.25</ele><time>2026-05-03T16:51:51.097Z</time></trkpt><trkpt lat="44.7847511" lon="7.9454347"><ele>314.5</ele><time>2026-05-03T16:51:52.098Z</time></trkpt><trkpt lat="44.7848579" lon="7.9453712"><ele>316.75</ele><time>2026-05-03T16:51:53.098Z</time></trkpt><trkpt lat="44.7849608" lon="7.9452776"><ele>319.0</ele><time>2026-05-03T16:51:54.098Z</time></trkpt><trkpt lat="44.7850424" lon="7.945204"><ele>319.0</ele><time>2026-05-03T16:51:55.098Z</time></trkpt><trkpt lat="44.785125" lon="7.9450918"><ele>319.0</ele><time>2026-05-03T16:51:56.098Z</time></trkpt><trkpt lat="44.7851726" lon="7.945013"><ele>319.0</ele><time>2026-05-03T16:51:57.098Z</time></trkpt><trkpt lat="44.7852208" lon="7.9449408"><ele>319.0</ele><time>2026-05-03T16:51:58.097Z</time></trkpt><trkpt lat="44.7852736" lon="7.9448777"><ele>319.0</ele><time>2026-05-03T16:51:59.098Z</time></trkpt><trkpt lat="44.7853346" lon="7.944796"><ele>319.0</ele><time>2026-05-03T16:52:00.098Z</time></trkpt><trkpt lat="44.7853985" lon="7.9447162"><ele>316.5</ele><time>2026-05-03T16:52:01.098Z</time></trkpt><trkpt lat="44.7854639" lon="7.9446148"><ele>314.0</ele><time>2026-05-03T16:52:02.098Z</time></trkpt><trkpt lat="44.7855486" lon="7.9444844"><ele>311.5</ele><time>2026-05-03T16:52:03.098Z</time></trkpt><trkpt lat="44.7856337" lon="7.9443448"><ele>309.0</ele><time>2026-05-03T16:52:04.098Z</time></trkpt><trkpt lat="44.7857631" lon="7.9441973"><ele>308.0</ele><time>2026-05-03T16:52:05.098Z</time></trkpt><trkpt lat="44.7858655" lon="7.9440489"><ele>307.0</ele><time>2026-05-03T16:52:06.098Z</time></trkpt><trkpt lat="44.7859824" lon="7.943918"><ele>306.0</ele><time>2026-05-03T16:52:07.098Z</time></trkpt><trkpt lat="44.7861012" lon="7.9438118"><ele>305.0</ele><time>2026-05-03T16:52:08.098Z</time></trkpt><trkpt lat="44.7862116" lon="7.9437018"><ele>305.0</ele><time>2026-05-03T16:52:09.097Z</time></trkpt><trkpt lat="44.7863303" lon="7.9435967"><ele>305.0</ele><time>2026-05-03T16:52:10.098Z</time></trkpt><trkpt lat="44.7864331" lon="7.943507"><ele>305.0</ele><time>2026-05-03T16:52:11.098Z</time></trkpt><trkpt lat="44.7865251" lon="7.9434034"><ele>305.0</ele><time>2026-05-03T16:52:12.097Z</time></trkpt><trkpt lat="44.7866232" lon="7.9432606"><ele>305.0</ele><time>2026-05-03T16:52:13.098Z</time></trkpt><trkpt lat="44.7867118" lon="7.9431624"><ele>305.0</ele><time>2026-05-03T16:52:14.098Z</time></trkpt><trkpt lat="44.7868003" lon="7.9430659"><ele>305.0</ele><time>2026-05-03T16:52:15.098Z</time></trkpt><trkpt lat="44.7868858" lon="7.9429515"><ele>305.0</ele><time>2026-05-03T16:52:16.097Z</time></trkpt><trkpt lat="44.7869688" lon="7.942845"><ele>303.8</ele><time>2026-05-03T16:52:17.098Z</time></trkpt><trkpt lat="44.7870488" lon="7.9427366"><ele>302.6</ele><time>2026-05-03T16:52:18.098Z</time></trkpt><trkpt lat="44.7871506" lon="7.9426317"><ele>301.4</ele><time>2026-05-03T16:52:19.098Z</time></trkpt><trkpt lat="44.7872212" lon="7.9425939"><ele>300.2</ele><time>2026-05-03T16:52:20.098Z</time></trkpt><trkpt lat="44.7873141" lon="7.9425647"><ele>299.0</ele><time>2026-05-03T16:52:21.098Z</time></trkpt><trkpt lat="44.7874054" lon="7.9425156"><ele>301.33333333333337</ele><time>2026-05-03T16:52:22.098Z</time></trkpt><trkpt lat="44.787477" lon="7.9424669"><ele>303.6666666666667</ele><time>2026-05-03T16:52:23.098Z</time></trkpt><trkpt lat="44.787551" lon="7.9424181"><ele>306.0</ele><time>2026-05-03T16:52:24.098Z</time></trkpt><trkpt lat="44.7876227" lon="7.942375"><ele>308.3333333333333</ele><time>2026-05-03T16:52:25.098Z</time></trkpt><trkpt lat="44.7876895" lon="7.9423376"><ele>310.66666666666663</ele><time>2026-05-03T16:52:26.098Z</time></trkpt><trkpt lat="44.7877507" lon="7.9422861"><ele>313.0</ele><time>2026-05-03T16:52:27.098Z</time></trkpt><trkpt lat="44.7878184" lon="7.9422336"><ele>313.0</ele><time>2026-05-03T16:52:28.098Z</time></trkpt><trkpt lat="44.7878638" lon="7.9421658"><ele>313.0</ele><time>2026-05-03T16:52:29.097Z</time></trkpt><trkpt lat="44.7879533" lon="7.9421225"><ele>313.0</ele><time>2026-05-03T16:52:30.097Z</time></trkpt><trkpt lat="44.788025" lon="7.9420736"><ele>313.0</ele><time>2026-05-03T16:52:31.098Z</time></trkpt><trkpt lat="44.7880939" lon="7.9420325"><ele>313.0</ele><time>2026-05-03T16:52:32.098Z</time></trkpt><trkpt lat="44.7881628" lon="7.9420057"><ele>313.0</ele><time>2026-05-03T16:52:33.098Z</time></trkpt><trkpt lat="44.7882187" lon="7.9419598"><ele>313.0</ele><time>2026-05-03T16:52:34.098Z</time></trkpt><trkpt lat="44.7882882" lon="7.9418744"><ele>313.0</ele><time>2026-05-03T16:52:35.097Z</time></trkpt><trkpt lat="44.7883308" lon="7.9417674"><ele>313.0</ele><time>2026-05-03T16:52:36.098Z</time></trkpt><trkpt lat="44.7883817" lon="7.9416759"><ele>313.0</ele><time>2026-05-03T16:52:37.098Z</time></trkpt><trkpt lat="44.7884382" lon="7.9415884"><ele>313.0</ele><time>2026-05-03T16:52:38.097Z</time></trkpt><trkpt lat="44.7884905" lon="7.9413962"><ele>319.75</ele><time>2026-05-03T16:52:39.098Z</time></trkpt><trkpt lat="44.7885471" lon="7.9412311"><ele>326.5</ele><time>2026-05-03T16:52:40.098Z</time></trkpt><trkpt lat="44.7885957" lon="7.9410752"><ele>333.25</ele><time>2026-05-03T16:52:41.097Z</time></trkpt><trkpt lat="44.7886522" lon="7.9408873"><ele>340.0</ele><time>2026-05-03T16:52:42.098Z</time></trkpt><trkpt lat="44.7887117" lon="7.9407107"><ele>341.6</ele><time>2026-05-03T16:52:43.097Z</time></trkpt><trkpt lat="44.7887551" lon="7.9405298"><ele>343.2</ele><time>2026-05-03T16:52:44.098Z</time></trkpt><trkpt lat="44.7887928" lon="7.9403692"><ele>344.79999999999995</ele><time>2026-05-03T16:52:45.098Z</time></trkpt><trkpt lat="44.7888314" lon="7.9402419"><ele>346.4</ele><time>2026-05-03T16:52:46.097Z</time></trkpt><trkpt lat="44.7888503" lon="7.9401202"><ele>348.0</ele><time>2026-05-03T16:52:47.098Z</time></trkpt><trkpt lat="44.7888856" lon="7.94002"><ele>348.0</ele><time>2026-05-03T16:52:48.098Z</time></trkpt><trkpt lat="44.788941" lon="7.9399303"><ele>348.0</ele><time>2026-05-03T16:52:49.098Z</time></trkpt><trkpt lat="44.788976" lon="7.9398336"><ele>348.0</ele><time>2026-05-03T16:52:50.098Z</time></trkpt><trkpt lat="44.789025" lon="7.9397172"><ele>348.0</ele><time>2026-05-03T16:52:51.098Z</time></trkpt><trkpt lat="44.7891155" lon="7.9395846"><ele>348.0</ele><time>2026-05-03T16:52:53.098Z</time></trkpt><trkpt lat="44.7891934" lon="7.9395619"><ele>348.0</ele><time>2026-05-03T16:52:54.098Z</time></trkpt><trkpt lat="44.7892764" lon="7.9395268"><ele>348.0</ele><time>2026-05-03T16:52:55.098Z</time></trkpt><trkpt lat="44.7894031" lon="7.9395051"><ele>348.0</ele><time>2026-05-03T16:52:56.098Z</time></trkpt><trkpt lat="44.789521" lon="7.9394295"><ele>348.0</ele><time>2026-05-03T16:52:57.098Z</time></trkpt><trkpt lat="44.7896127" lon="7.9393447"><ele>346.0</ele><time>2026-05-03T16:52:58.098Z</time></trkpt><trkpt lat="44.7897221" lon="7.939232"><ele>344.0</ele><time>2026-05-03T16:52:59.098Z</time></trkpt><trkpt lat="44.7898332" lon="7.9391004"><ele>342.0</ele><time>2026-05-03T16:53:00.098Z</time></trkpt><trkpt lat="44.7899395" lon="7.9390066"><ele>340.0</ele><time>2026-05-03T16:53:01.097Z</time></trkpt><trkpt lat="44.7900292" lon="7.9389055"><ele>340.0</ele><time>2026-05-03T16:53:02.098Z</time></trkpt><trkpt lat="44.7901269" lon="7.9387566"><ele>340.0</ele><time>2026-05-03T16:53:03.098Z</time></trkpt><trkpt lat="44.7902032" lon="7.9385482"><ele>340.0</ele><time>2026-05-03T16:53:04.098Z</time></trkpt><trkpt lat="44.7902576" lon="7.9383493"><ele>341.3333333333333</ele><time>2026-05-03T16:53:05.098Z</time></trkpt><trkpt lat="44.7903114" lon="7.9381568"><ele>342.6666666666667</ele><time>2026-05-03T16:53:06.097Z</time></trkpt><trkpt lat="44.7904178" lon="7.9379949"><ele>344.0</ele><time>2026-05-03T16:53:07.098Z</time></trkpt><trkpt lat="44.7905396" lon="7.937822"><ele>344.0</ele><time>2026-05-03T16:53:08.098Z</time></trkpt><trkpt lat="44.7906671" lon="7.9376379"><ele>344.0</ele><time>2026-05-03T16:53:09.098Z</time></trkpt><trkpt lat="44.7907845" lon="7.937484"><ele>344.0</ele><time>2026-05-03T16:53:10.097Z</time></trkpt><trkpt lat="44.7908999" lon="7.9373332"><ele>346.75</ele><time>2026-05-03T16:53:11.098Z</time></trkpt><trkpt lat="44.7909776" lon="7.9371661"><ele>349.5</ele><time>2026-05-03T16:53:12.098Z</time></trkpt><trkpt lat="44.7910409" lon="7.9369916"><ele>352.25</ele><time>2026-05-03T16:53:13.098Z</time></trkpt><trkpt lat="44.7910839" lon="7.936812"><ele>355.0</ele><time>2026-05-03T16:53:14.098Z</time></trkpt><trkpt lat="44.791138" lon="7.9366368"><ele>362.0</ele><time>2026-05-03T16:53:15.098Z</time></trkpt><trkpt lat="44.7911981" lon="7.9364148"><ele>369.0</ele><time>2026-05-03T16:53:16.098Z</time></trkpt><trkpt lat="44.7912482" lon="7.936221"><ele>376.0</ele><time>2026-05-03T16:53:17.098Z</time></trkpt><trkpt lat="44.7913108" lon="7.9359892"><ele>372.66666666666663</ele><time>2026-05-03T16:53:18.098Z</time></trkpt><trkpt lat="44.7913796" lon="7.9357219"><ele>369.3333333333333</ele><time>2026-05-03T16:53:19.098Z</time></trkpt><trkpt lat="44.7914792" lon="7.9354692"><ele>366.0</ele><time>2026-05-03T16:53:20.098Z</time></trkpt><trkpt lat="44.7915515" lon="7.9351834"><ele>364.0</ele><time>2026-05-03T16:53:21.098Z</time></trkpt><trkpt lat="44.7916066" lon="7.9348945"><ele>362.0</ele><time>2026-05-03T16:53:22.098Z</time></trkpt><trkpt lat="44.7916923" lon="7.9346083"><ele>360.0</ele><time>2026-05-03T16:53:23.098Z</time></trkpt><trkpt lat="44.7917746" lon="7.9343374"><ele>361.3333333333333</ele><time>2026-05-03T16:53:24.098Z</time></trkpt><trkpt lat="44.7918622" lon="7.9340751"><ele>362.66666666666663</ele><time>2026-05-03T16:53:25.098Z</time></trkpt><trkpt lat="44.7919207" lon="7.9338153"><ele>364.0</ele><time>2026-05-03T16:53:26.097Z</time></trkpt><trkpt lat="44.7920201" lon="7.9335651"><ele>362.3333333333333</ele><time>2026-05-03T16:53:27.097Z</time></trkpt><trkpt lat="44.7921115" lon="7.9333097"><ele>360.6666666666667</ele><time>2026-05-03T16:53:28.098Z</time></trkpt><trkpt lat="44.7922105" lon="7.9330491"><ele>359.0</ele><time>2026-05-03T16:53:29.098Z</time></trkpt><trkpt lat="44.7923036" lon="7.9328145"><ele>359.0</ele><time>2026-05-03T16:53:30.098Z</time></trkpt><trkpt lat="44.792383" lon="7.9325697"><ele>359.0</ele><time>2026-05-03T16:53:31.098Z</time></trkpt><trkpt lat="44.7924938" lon="7.9323154"><ele>359.0</ele><time>2026-05-03T16:53:32.098Z</time></trkpt><trkpt lat="44.7925989" lon="7.9320634"><ele>357.0</ele><time>2026-05-03T16:53:33.098Z</time></trkpt><trkpt lat="44.7926964" lon="7.9318174"><ele>355.0</ele><time>2026-05-03T16:53:34.098Z</time></trkpt><trkpt lat="44.7927993" lon="7.9316026"><ele>353.0</ele><time>2026-05-03T16:53:35.098Z</time></trkpt><trkpt lat="44.792869" lon="7.9313895"><ele>353.0</ele><time>2026-05-03T16:53:36.097Z</time></trkpt><trkpt lat="44.7929027" lon="7.9312469"><ele>353.0</ele><time>2026-05-03T16:53:37.098Z</time></trkpt><trkpt lat="44.7929724" lon="7.9311101"><ele>353.0</ele><time>2026-05-03T16:53:38.098Z</time></trkpt><trkpt lat="44.7930347" lon="7.9310072"><ele>353.0</ele><time>2026-05-03T16:53:39.098Z</time></trkpt><trkpt lat="44.7930934" lon="7.9309162"><ele>353.0</ele><time>2026-05-03T16:53:40.098Z</time></trkpt><trkpt lat="44.7931504" lon="7.930849"><ele>353.0</ele><time>2026-05-03T16:53:41.098Z</time></trkpt><trkpt lat="44.7932906" lon="7.9308916"><ele>353.0</ele><time>2026-05-03T16:53:43.098Z</time></trkpt><trkpt lat="44.7934091" lon="7.930959"><ele>353.0</ele><time>2026-05-03T16:53:44.098Z</time></trkpt><trkpt lat="44.7935009" lon="7.9310905"><ele>353.0</ele><time>2026-05-03T16:53:45.098Z</time></trkpt><trkpt lat="44.7936212" lon="7.931247"><ele>354.6666666666667</ele><time>2026-05-03T16:53:46.098Z</time></trkpt><trkpt lat="44.7937655" lon="7.9314855"><ele>356.3333333333333</ele><time>2026-05-03T16:53:47.098Z</time></trkpt><trkpt lat="44.7938832" lon="7.9316513"><ele>358.0</ele><time>2026-05-03T16:53:48.098Z</time></trkpt><trkpt lat="44.7939747" lon="7.931798"><ele>359.75</ele><time>2026-05-03T16:53:49.097Z</time></trkpt><trkpt lat="44.7940737" lon="7.931936"><ele>361.5</ele><time>2026-05-03T16:53:50.098Z</time></trkpt><trkpt lat="44.7941613" lon="7.9320759"><ele>363.25</ele><time>2026-05-03T16:53:51.098Z</time></trkpt><trkpt lat="44.7942446" lon="7.9321564"><ele>365.0</ele><time>2026-05-03T16:53:52.097Z</time></trkpt><trkpt lat="44.7943332" lon="7.9320907"><ele>367.4</ele><time>2026-05-03T16:53:53.097Z</time></trkpt><trkpt lat="44.7944155" lon="7.9320859"><ele>369.8</ele><time>2026-05-03T16:53:54.098Z</time></trkpt><trkpt lat="44.7945072" lon="7.932043"><ele>372.20000000000005</ele><time>2026-05-03T16:53:55.098Z</time></trkpt><trkpt lat="44.7946094" lon="7.9319252"><ele>374.6</ele><time>2026-05-03T16:53:56.098Z</time></trkpt><trkpt lat="44.7946965" lon="7.9317935"><ele>377.0</ele><time>2026-05-03T16:53:57.098Z</time></trkpt><trkpt lat="44.7947596" lon="7.9316807"><ele>377.0</ele><time>2026-05-03T16:53:58.098Z</time></trkpt><trkpt lat="44.7948145" lon="7.9315299"><ele>377.0</ele><time>2026-05-03T16:53:59.098Z</time></trkpt><trkpt lat="44.794837" lon="7.9314031"><ele>377.0</ele><time>2026-05-03T16:54:00.098Z</time></trkpt><trkpt lat="44.794847" lon="7.9312751"><ele>377.0</ele><time>2026-05-03T16:54:01.098Z</time></trkpt><trkpt lat="44.7947523" lon="7.9309951"><ele>377.75</ele><time>2026-05-03T16:54:02.098Z</time></trkpt><trkpt lat="44.7946866" lon="7.9308161"><ele>378.5</ele><time>2026-05-03T16:54:03.098Z</time></trkpt><trkpt lat="44.7946786" lon="7.9306362"><ele>379.25</ele><time>2026-05-03T16:54:04.098Z</time></trkpt><trkpt lat="44.7947072" lon="7.9305202"><ele>380.0</ele><time>2026-05-03T16:54:05.098Z</time></trkpt><trkpt lat="44.7947448" lon="7.9303552"><ele>380.0</ele><time>2026-05-03T16:54:06.098Z</time></trkpt><trkpt lat="44.7948142" lon="7.9301803"><ele>380.0</ele><time>2026-05-03T16:54:07.098Z</time></trkpt><trkpt lat="44.794883" lon="7.9300787"><ele>380.0</ele><time>2026-05-03T16:54:08.098Z</time></trkpt><trkpt lat="44.7949538" lon="7.9300185"><ele>380.0</ele><time>2026-05-03T16:54:09.098Z</time></trkpt><trkpt lat="44.7950986" lon="7.9300598"><ele>382.25</ele><time>2026-05-03T16:54:10.098Z</time></trkpt><trkpt lat="44.7952079" lon="7.9300793"><ele>384.5</ele><time>2026-05-03T16:54:11.098Z</time></trkpt><trkpt lat="44.7953212" lon="7.9301262"><ele>386.75</ele><time>2026-05-03T16:54:12.098Z</time></trkpt><trkpt lat="44.7954965" lon="7.9302492"><ele>389.0</ele><time>2026-05-03T16:54:13.097Z</time></trkpt><trkpt lat="44.7956491" lon="7.9303334"><ele>389.0</ele><time>2026-05-03T16:54:14.098Z</time></trkpt><trkpt lat="44.7957808" lon="7.9304053"><ele>389.0</ele><time>2026-05-03T16:54:15.098Z</time></trkpt><trkpt lat="44.7959299" lon="7.9304745"><ele>389.0</ele><time>2026-05-03T16:54:16.098Z</time></trkpt><trkpt lat="44.7960793" lon="7.9305166"><ele>388.75</ele><time>2026-05-03T16:54:17.098Z</time></trkpt><trkpt lat="44.7962453" lon="7.9305507"><ele>388.5</ele><time>2026-05-03T16:54:18.098Z</time></trkpt><trkpt lat="44.7963652" lon="7.9305509"><ele>388.25</ele><time>2026-05-03T16:54:19.098Z</time></trkpt><trkpt lat="44.7965085" lon="7.9305305"><ele>388.0</ele><time>2026-05-03T16:54:20.098Z</time></trkpt><trkpt lat="44.7966478" lon="7.9304798"><ele>388.0</ele><time>2026-05-03T16:54:21.097Z</time></trkpt><trkpt lat="44.796751" lon="7.9304079"><ele>388.0</ele><time>2026-05-03T16:54:22.098Z</time></trkpt><trkpt lat="44.7969042" lon="7.9303386"><ele>388.0</ele><time>2026-05-03T16:54:23.097Z</time></trkpt><trkpt lat="44.7970303" lon="7.9302767"><ele>388.0</ele><time>2026-05-03T16:54:24.098Z</time></trkpt><trkpt lat="44.7971338" lon="7.9302189"><ele>385.25</ele><time>2026-05-03T16:54:25.097Z</time></trkpt><trkpt lat="44.7972308" lon="7.9301145"><ele>382.5</ele><time>2026-05-03T16:54:26.098Z</time></trkpt><trkpt lat="44.7973235" lon="7.9300049"><ele>379.75</ele><time>2026-05-03T16:54:27.098Z</time></trkpt><trkpt lat="44.7973807" lon="7.9298695"><ele>377.0</ele><time>2026-05-03T16:54:28.098Z</time></trkpt><trkpt lat="44.7974466" lon="7.9296773"><ele>377.0</ele><time>2026-05-03T16:54:29.098Z</time></trkpt><trkpt lat="44.7975319" lon="7.9295351"><ele>377.0</ele><time>2026-05-03T16:54:30.098Z</time></trkpt><trkpt lat="44.7976481" lon="7.9294188"><ele>377.0</ele><time>2026-05-03T16:54:31.098Z</time></trkpt><trkpt lat="44.797769" lon="7.9293087"><ele>377.0</ele><time>2026-05-03T16:54:32.098Z</time></trkpt><trkpt lat="44.7979391" lon="7.9292352"><ele>378.6666666666667</ele><time>2026-05-03T16:54:33.098Z</time></trkpt><trkpt lat="44.7980995" lon="7.9291436"><ele>380.3333333333333</ele><time>2026-05-03T16:54:34.098Z</time></trkpt><trkpt lat="44.7982484" lon="7.9290235"><ele>382.0</ele><time>2026-05-03T16:54:35.098Z</time></trkpt><trkpt lat="44.7983966" lon="7.9289117"><ele>381.3333333333333</ele><time>2026-05-03T16:54:36.098Z</time></trkpt><trkpt lat="44.7985285" lon="7.9287812"><ele>380.6666666666667</ele><time>2026-05-03T16:54:37.098Z</time></trkpt><trkpt lat="44.798649" lon="7.928647"><ele>380.0</ele><time>2026-05-03T16:54:38.098Z</time></trkpt><trkpt lat="44.7988011" lon="7.9285341"><ele>380.0</ele><time>2026-05-03T16:54:39.098Z</time></trkpt><trkpt lat="44.7989494" lon="7.9284136"><ele>380.0</ele><time>2026-05-03T16:54:40.098Z</time></trkpt><trkpt lat="44.7990816" lon="7.9282913"><ele>380.0</ele><time>2026-05-03T16:54:41.098Z</time></trkpt><trkpt lat="44.7992009" lon="7.9281171"><ele>382.33333333333337</ele><time>2026-05-03T16:54:42.098Z</time></trkpt><trkpt lat="44.7993158" lon="7.927924"><ele>384.6666666666667</ele><time>2026-05-03T16:54:43.098Z</time></trkpt><trkpt lat="44.7994264" lon="7.9277524"><ele>387.0</ele><time>2026-05-03T16:54:44.098Z</time></trkpt><trkpt lat="44.7995421" lon="7.9275776"><ele>386.66666666666663</ele><time>2026-05-03T16:54:45.097Z</time></trkpt><trkpt lat="44.7996605" lon="7.9274011"><ele>386.3333333333333</ele><time>2026-05-03T16:54:46.097Z</time></trkpt><trkpt lat="44.7997648" lon="7.9272159"><ele>386.0</ele><time>2026-05-03T16:54:47.098Z</time></trkpt><trkpt lat="44.7998618" lon="7.9270159"><ele>386.0</ele><time>2026-05-03T16:54:48.098Z</time></trkpt><trkpt lat="44.7999544" lon="7.9268224"><ele>386.0</ele><time>2026-05-03T16:54:49.098Z</time></trkpt><trkpt lat="44.8000327" lon="7.9266197"><ele>386.0</ele><time>2026-05-03T16:54:50.097Z</time></trkpt><trkpt lat="44.8001045" lon="7.926412"><ele>386.0</ele><time>2026-05-03T16:54:51.098Z</time></trkpt><trkpt lat="44.8001867" lon="7.9262327"><ele>386.0</ele><time>2026-05-03T16:54:52.098Z</time></trkpt><trkpt lat="44.8002907" lon="7.9261503"><ele>386.0</ele><time>2026-05-03T16:54:53.097Z</time></trkpt><trkpt lat="44.8003898" lon="7.9260354"><ele>386.0</ele><time>2026-05-03T16:54:54.097Z</time></trkpt><trkpt lat="44.8005182" lon="7.9259605"><ele>386.0</ele><time>2026-05-03T16:54:55.098Z</time></trkpt><trkpt lat="44.8006295" lon="7.9259175"><ele>386.0</ele><time>2026-05-03T16:54:56.098Z</time></trkpt><trkpt lat="44.8007253" lon="7.9259288"><ele>386.0</ele><time>2026-05-03T16:54:57.098Z</time></trkpt><trkpt lat="44.8008103" lon="7.9259673"><ele>386.0</ele><time>2026-05-03T16:54:58.098Z</time></trkpt><trkpt lat="44.8009377" lon="7.926075"><ele>386.0</ele><time>2026-05-03T16:54:59.098Z</time></trkpt><trkpt lat="44.8010326" lon="7.9261865"><ele>385.8</ele><time>2026-05-03T16:55:00.098Z</time></trkpt><trkpt lat="44.8011321" lon="7.9262693"><ele>385.6</ele><time>2026-05-03T16:55:01.098Z</time></trkpt><trkpt lat="44.801235" lon="7.9263376"><ele>385.4</ele><time>2026-05-03T16:55:02.098Z</time></trkpt><trkpt lat="44.8013405" lon="7.9263882"><ele>385.2</ele><time>2026-05-03T16:55:03.097Z</time></trkpt><trkpt lat="44.8014461" lon="7.9264202"><ele>385.0</ele><time>2026-05-03T16:55:04.098Z</time></trkpt><trkpt lat="44.8015744" lon="7.9264424"><ele>385.0</ele><time>2026-05-03T16:55:05.098Z</time></trkpt><trkpt lat="44.8017274" lon="7.9264479"><ele>385.0</ele><time>2026-05-03T16:55:06.098Z</time></trkpt><trkpt lat="44.8018998" lon="7.9264662"><ele>385.0</ele><time>2026-05-03T16:55:07.098Z</time></trkpt><trkpt lat="44.8020549" lon="7.9265074"><ele>384.33333333333337</ele><time>2026-05-03T16:55:08.098Z</time></trkpt><trkpt lat="44.8022233" lon="7.926557"><ele>383.6666666666667</ele><time>2026-05-03T16:55:09.097Z</time></trkpt><trkpt lat="44.8023898" lon="7.9266325"><ele>383.0</ele><time>2026-05-03T16:55:10.097Z</time></trkpt><trkpt lat="44.8025411" lon="7.9267132"><ele>381.33333333333337</ele><time>2026-05-03T16:55:11.098Z</time></trkpt><trkpt lat="44.8027059" lon="7.9267793"><ele>379.6666666666667</ele><time>2026-05-03T16:55:12.097Z</time></trkpt><trkpt lat="44.8028725" lon="7.9268461"><ele>378.0</ele><time>2026-05-03T16:55:13.098Z</time></trkpt><trkpt lat="44.8030512" lon="7.9269003"><ele>378.0</ele><time>2026-05-03T16:55:14.098Z</time></trkpt><trkpt lat="44.8032282" lon="7.9269362"><ele>378.0</ele><time>2026-05-03T16:55:15.097Z</time></trkpt><trkpt lat="44.8033794" lon="7.9269739"><ele>378.0</ele><time>2026-05-03T16:55:16.098Z</time></trkpt><trkpt lat="44.8035171" lon="7.9270045"><ele>377.4</ele><time>2026-05-03T16:55:17.098Z</time></trkpt><trkpt lat="44.8035804" lon="7.9270581"><ele>376.79999999999995</ele><time>2026-05-03T16:55:18.098Z</time></trkpt><trkpt lat="44.8036853" lon="7.9271075"><ele>376.2</ele><time>2026-05-03T16:55:19.097Z</time></trkpt><trkpt lat="44.8037541" lon="7.9271619"><ele>375.6</ele><time>2026-05-03T16:55:20.097Z</time></trkpt><trkpt lat="44.803798" lon="7.9272489"><ele>375.0</ele><time>2026-05-03T16:55:21.098Z</time></trkpt><trkpt lat="44.8038315" lon="7.9274161"><ele>373.0</ele><time>2026-05-03T16:55:22.097Z</time></trkpt><trkpt lat="44.8038728" lon="7.9275791"><ele>371.0</ele><time>2026-05-03T16:55:23.098Z</time></trkpt><trkpt lat="44.8039203" lon="7.9277947"><ele>369.0</ele><time>2026-05-03T16:55:24.098Z</time></trkpt><trkpt lat="44.8039686" lon="7.9280039"><ele>367.0</ele><time>2026-05-03T16:55:25.098Z</time></trkpt><trkpt lat="44.8040283" lon="7.9282259"><ele>365.3333333333333</ele><time>2026-05-03T16:55:26.098Z</time></trkpt><trkpt lat="44.8040976" lon="7.928457"><ele>363.6666666666667</ele><time>2026-05-03T16:55:27.098Z</time></trkpt><trkpt lat="44.8041693" lon="7.9286969"><ele>362.0</ele><time>2026-05-03T16:55:28.098Z</time></trkpt><trkpt lat="44.804242" lon="7.9289481"><ele>362.0</ele><time>2026-05-03T16:55:29.098Z</time></trkpt><trkpt lat="44.8043138" lon="7.9292064"><ele>362.0</ele><time>2026-05-03T16:55:30.098Z</time></trkpt><trkpt lat="44.8043864" lon="7.9294632"><ele>362.0</ele><time>2026-05-03T16:55:31.098Z</time></trkpt><trkpt lat="44.8044671" lon="7.929732"><ele>360.33333333333337</ele><time>2026-05-03T16:55:32.098Z</time></trkpt><trkpt lat="44.8045585" lon="7.9299856"><ele>358.6666666666667</ele><time>2026-05-03T16:55:33.098Z</time></trkpt><trkpt lat="44.8046463" lon="7.9302414"><ele>357.0</ele><time>2026-05-03T16:55:34.098Z</time></trkpt><trkpt lat="44.8047415" lon="7.9304982"><ele>357.0</ele><time>2026-05-03T16:55:35.097Z</time></trkpt><trkpt lat="44.8048023" lon="7.9307024"><ele>357.0</ele><time>2026-05-03T16:55:36.098Z</time></trkpt><trkpt lat="44.8048578" lon="7.9309129"><ele>357.0</ele><time>2026-05-03T16:55:37.097Z</time></trkpt><trkpt lat="44.8049145" lon="7.9311252"><ele>356.25</ele><time>2026-05-03T16:55:38.098Z</time></trkpt><trkpt lat="44.8049867" lon="7.9312774"><ele>355.5</ele><time>2026-05-03T16:55:39.097Z</time></trkpt><trkpt lat="44.8050508" lon="7.9314115"><ele>354.75</ele><time>2026-05-03T16:55:40.097Z</time></trkpt><trkpt lat="44.805135" lon="7.9315437"><ele>354.0</ele><time>2026-05-03T16:55:41.098Z</time></trkpt><trkpt lat="44.8052419" lon="7.9316431"><ele>353.75</ele><time>2026-05-03T16:55:42.098Z</time></trkpt><trkpt lat="44.8053446" lon="7.9317225"><ele>353.5</ele><time>2026-05-03T16:55:43.098Z</time></trkpt><trkpt lat="44.8055165" lon="7.931714"><ele>353.25</ele><time>2026-05-03T16:55:44.098Z</time></trkpt><trkpt lat="44.8056534" lon="7.9317577"><ele>353.0</ele><time>2026-05-03T16:55:45.098Z</time></trkpt><trkpt lat="44.8057785" lon="7.9318124"><ele>352.25</ele><time>2026-05-03T16:55:46.098Z</time></trkpt><trkpt lat="44.8059294" lon="7.9318329"><ele>351.5</ele><time>2026-05-03T16:55:47.098Z</time></trkpt><trkpt lat="44.8060618" lon="7.9318772"><ele>350.75</ele><time>2026-05-03T16:55:48.098Z</time></trkpt><trkpt lat="44.8061538" lon="7.9319146"><ele>350.0</ele><time>2026-05-03T16:55:49.098Z</time></trkpt><trkpt lat="44.8062408" lon="7.9319773"><ele>348.25</ele><time>2026-05-03T16:55:50.098Z</time></trkpt><trkpt lat="44.8062981" lon="7.932066"><ele>346.5</ele><time>2026-05-03T16:55:51.098Z</time></trkpt><trkpt lat="44.8063132" lon="7.9321734"><ele>344.75</ele><time>2026-05-03T16:55:52.098Z</time></trkpt><trkpt lat="44.8062907" lon="7.9323007"><ele>343.0</ele><time>2026-05-03T16:55:53.098Z</time></trkpt><trkpt lat="44.8061459" lon="7.9325188"><ele>344.3333333333333</ele><time>2026-05-03T16:55:54.098Z</time></trkpt><trkpt lat="44.8060528" lon="7.9326647"><ele>345.6666666666667</ele><time>2026-05-03T16:55:55.098Z</time></trkpt><trkpt lat="44.8059337" lon="7.9328307"><ele>347.0</ele><time>2026-05-03T16:55:56.098Z</time></trkpt><trkpt lat="44.8058663" lon="7.9330129"><ele>347.0</ele><time>2026-05-03T16:55:57.098Z</time></trkpt><trkpt lat="44.8059039" lon="7.9332482"><ele>347.0</ele><time>2026-05-03T16:55:58.097Z</time></trkpt><trkpt lat="44.8059116" lon="7.933449"><ele>347.0</ele><time>2026-05-03T16:55:59.098Z</time></trkpt><trkpt lat="44.8059126" lon="7.9336603"><ele>347.0</ele><time>2026-05-03T16:56:00.097Z</time></trkpt><trkpt lat="44.8059171" lon="7.9338582"><ele>347.0</ele><time>2026-05-03T16:56:01.098Z</time></trkpt><trkpt lat="44.8059329" lon="7.9340105"><ele>347.0</ele><time>2026-05-03T16:56:02.098Z</time></trkpt><trkpt lat="44.8060067" lon="7.9341747"><ele>347.0</ele><time>2026-05-03T16:56:03.098Z</time></trkpt><trkpt lat="44.8061188" lon="7.9343771"><ele>342.33333333333337</ele><time>2026-05-03T16:56:04.098Z</time></trkpt><trkpt lat="44.8062629" lon="7.9345453"><ele>337.6666666666667</ele><time>2026-05-03T16:56:05.098Z</time></trkpt><trkpt lat="44.8064004" lon="7.9347195"><ele>333.0</ele><time>2026-05-03T16:56:06.098Z</time></trkpt><trkpt lat="44.8065137" lon="7.934919"><ele>332.0</ele><time>2026-05-03T16:56:07.098Z</time></trkpt><trkpt lat="44.8066027" lon="7.9351006"><ele>331.0</ele><time>2026-05-03T16:56:08.098Z</time></trkpt><trkpt lat="44.8066709" lon="7.9352793"><ele>330.0</ele><time>2026-05-03T16:56:09.098Z</time></trkpt><trkpt lat="44.8067266" lon="7.9354437"><ele>329.0</ele><time>2026-05-03T16:56:10.097Z</time></trkpt><trkpt lat="44.8067784" lon="7.9356162"><ele>329.0</ele><time>2026-05-03T16:56:11.098Z</time></trkpt><trkpt lat="44.8067864" lon="7.9357664"><ele>329.0</ele><time>2026-05-03T16:56:12.098Z</time></trkpt><trkpt lat="44.8067302" lon="7.9359313"><ele>329.0</ele><time>2026-05-03T16:56:13.098Z</time></trkpt><trkpt lat="44.8066737" lon="7.9360815"><ele>329.0</ele><time>2026-05-03T16:56:14.098Z</time></trkpt><trkpt lat="44.8066111" lon="7.9362393"><ele>329.0</ele><time>2026-05-03T16:56:15.098Z</time></trkpt><trkpt lat="44.8065168" lon="7.9364507"><ele>329.0</ele><time>2026-05-03T16:56:16.098Z</time></trkpt><trkpt lat="44.8064375" lon="7.9367336"><ele>329.0</ele><time>2026-05-03T16:56:17.097Z</time></trkpt><trkpt lat="44.8063531" lon="7.9369856"><ele>326.5</ele><time>2026-05-03T16:56:18.098Z</time></trkpt><trkpt lat="44.8063178" lon="7.9373269"><ele>324.0</ele><time>2026-05-03T16:56:19.098Z</time></trkpt><trkpt lat="44.8062571" lon="7.9377009"><ele>321.5</ele><time>2026-05-03T16:56:20.098Z</time></trkpt><trkpt lat="44.8062089" lon="7.9380486"><ele>319.0</ele><time>2026-05-03T16:56:21.098Z</time></trkpt><trkpt lat="44.8061474" lon="7.9383691"><ele>319.3333333333333</ele><time>2026-05-03T16:56:22.098Z</time></trkpt><trkpt lat="44.8060995" lon="7.9386674"><ele>319.6666666666667</ele><time>2026-05-03T16:56:23.098Z</time></trkpt><trkpt lat="44.8060493" lon="7.9389407"><ele>320.0</ele><time>2026-05-03T16:56:24.098Z</time></trkpt><trkpt lat="44.8059863" lon="7.9392084"><ele>319.0</ele><time>2026-05-03T16:56:25.098Z</time></trkpt><trkpt lat="44.8059227" lon="7.939477"><ele>318.0</ele><time>2026-05-03T16:56:26.098Z</time></trkpt><trkpt lat="44.8058575" lon="7.9397378"><ele>317.0</ele><time>2026-05-03T16:56:27.098Z</time></trkpt><trkpt lat="44.805813" lon="7.9400007"><ele>316.6666666666667</ele><time>2026-05-03T16:56:28.098Z</time></trkpt><trkpt lat="44.8058045" lon="7.9402734"><ele>316.3333333333333</ele><time>2026-05-03T16:56:29.098Z</time></trkpt><trkpt lat="44.8058267" lon="7.9405309"><ele>316.0</ele><time>2026-05-03T16:56:30.098Z</time></trkpt><trkpt lat="44.8058622" lon="7.940768"><ele>315.66666666666663</ele><time>2026-05-03T16:56:31.098Z</time></trkpt><trkpt lat="44.805906" lon="7.9410244"><ele>315.3333333333333</ele><time>2026-05-03T16:56:32.098Z</time></trkpt><trkpt lat="44.8059798" lon="7.9412581"><ele>315.0</ele><time>2026-05-03T16:56:33.098Z</time></trkpt><trkpt lat="44.8060947" lon="7.9414846"><ele>315.0</ele><time>2026-05-03T16:56:34.098Z</time></trkpt><trkpt lat="44.8062678" lon="7.9417056"><ele>315.0</ele><time>2026-05-03T16:56:35.098Z</time></trkpt><trkpt lat="44.8064302" lon="7.9419241"><ele>317.0</ele><time>2026-05-03T16:56:36.097Z</time></trkpt><trkpt lat="44.8065909" lon="7.9421534"><ele>319.0</ele><time>2026-05-03T16:56:37.098Z</time></trkpt><trkpt lat="44.8067558" lon="7.9423698"><ele>317.5</ele><time>2026-05-03T16:56:38.097Z</time></trkpt><trkpt lat="44.8069215" lon="7.9425744"><ele>316.0</ele><time>2026-05-03T16:56:39.098Z</time></trkpt><trkpt lat="44.8071074" lon="7.9428004"><ele>316.0</ele><time>2026-05-03T16:56:40.097Z</time></trkpt><trkpt lat="44.8072838" lon="7.9430143"><ele>316.0</ele><time>2026-05-03T16:56:41.098Z</time></trkpt><trkpt lat="44.8074413" lon="7.9432526"><ele>317.5</ele><time>2026-05-03T16:56:42.098Z</time></trkpt><trkpt lat="44.8075914" lon="7.9434908"><ele>319.0</ele><time>2026-05-03T16:56:43.098Z</time></trkpt><trkpt lat="44.807756" lon="7.9437267"><ele>316.5</ele><time>2026-05-03T16:56:44.098Z</time></trkpt><trkpt lat="44.8079191" lon="7.9439576"><ele>314.0</ele><time>2026-05-03T16:56:45.098Z</time></trkpt><trkpt lat="44.8080356" lon="7.9442369"><ele>314.0</ele><time>2026-05-03T16:56:46.098Z</time></trkpt><trkpt lat="44.8081701" lon="7.9445063"><ele>314.0</ele><time>2026-05-03T16:56:47.098Z</time></trkpt><trkpt lat="44.8083178" lon="7.9447771"><ele>314.0</ele><time>2026-05-03T16:56:48.098Z</time></trkpt><trkpt lat="44.808479" lon="7.9450364"><ele>314.0</ele><time>2026-05-03T16:56:49.098Z</time></trkpt><trkpt lat="44.8086464" lon="7.9452842"><ele>312.0</ele><time>2026-05-03T16:56:50.098Z</time></trkpt><trkpt lat="44.8088096" lon="7.945518"><ele>310.0</ele><time>2026-05-03T16:56:51.098Z</time></trkpt><trkpt lat="44.8089732" lon="7.9457458"><ele>311.0</ele><time>2026-05-03T16:56:52.098Z</time></trkpt><trkpt lat="44.8091367" lon="7.9459897"><ele>312.0</ele><time>2026-05-03T16:56:53.097Z</time></trkpt><trkpt lat="44.8093" lon="7.9462115"><ele>311.0</ele><time>2026-05-03T16:56:54.098Z</time></trkpt><trkpt lat="44.809462" lon="7.9464386"><ele>310.0</ele><time>2026-05-03T16:56:55.098Z</time></trkpt><trkpt lat="44.8096273" lon="7.9466515"><ele>309.66666666666663</ele><time>2026-05-03T16:56:56.098Z</time></trkpt><trkpt lat="44.8097973" lon="7.94686"><ele>309.3333333333333</ele><time>2026-05-03T16:56:57.098Z</time></trkpt><trkpt lat="44.8099664" lon="7.9470443"><ele>309.0</ele><time>2026-05-03T16:56:58.097Z</time></trkpt><trkpt lat="44.8101669" lon="7.9472161"><ele>309.0</ele><time>2026-05-03T16:56:59.098Z</time></trkpt><trkpt lat="44.8103654" lon="7.9473956"><ele>309.0</ele><time>2026-05-03T16:57:00.098Z</time></trkpt><trkpt lat="44.8105863" lon="7.9475587"><ele>309.3333333333333</ele><time>2026-05-03T16:57:01.097Z</time></trkpt><trkpt lat="44.8107818" lon="7.9477075"><ele>309.66666666666663</ele><time>2026-05-03T16:57:02.098Z</time></trkpt><trkpt lat="44.810949" lon="7.947867"><ele>310.0</ele><time>2026-05-03T16:57:03.098Z</time></trkpt><trkpt lat="44.8111067" lon="7.9480015"><ele>310.0</ele><time>2026-05-03T16:57:04.097Z</time></trkpt><trkpt lat="44.8112377" lon="7.9481272"><ele>310.0</ele><time>2026-05-03T16:57:05.098Z</time></trkpt><trkpt lat="44.8113435" lon="7.94828"><ele>310.0</ele><time>2026-05-03T16:57:06.098Z</time></trkpt><trkpt lat="44.8114575" lon="7.9484293"><ele>310.66666666666663</ele><time>2026-05-03T16:57:07.098Z</time></trkpt><trkpt lat="44.8115275" lon="7.9486126"><ele>311.3333333333333</ele><time>2026-05-03T16:57:08.098Z</time></trkpt><trkpt lat="44.8116139" lon="7.9488023"><ele>312.0</ele><time>2026-05-03T16:57:09.098Z</time></trkpt><trkpt lat="44.8116933" lon="7.9489848"><ele>312.0</ele><time>2026-05-03T16:57:10.098Z</time></trkpt><trkpt lat="44.8117808" lon="7.9491492"><ele>312.0</ele><time>2026-05-03T16:57:11.098Z</time></trkpt><trkpt lat="44.8118412" lon="7.9493096"><ele>312.0</ele><time>2026-05-03T16:57:12.097Z</time></trkpt><trkpt lat="44.8119096" lon="7.9494704"><ele>312.0</ele><time>2026-05-03T16:57:13.098Z</time></trkpt><trkpt lat="44.8119619" lon="7.9495943"><ele>311.0</ele><time>2026-05-03T16:57:14.098Z</time></trkpt><trkpt lat="44.8120187" lon="7.9497323"><ele>310.0</ele><time>2026-05-03T16:57:15.098Z</time></trkpt><trkpt lat="44.8120836" lon="7.9498971"><ele>309.0</ele><time>2026-05-03T16:57:16.098Z</time></trkpt><trkpt lat="44.8121398" lon="7.9500457"><ele>308.0</ele><time>2026-05-03T16:57:17.097Z</time></trkpt><trkpt lat="44.8121952" lon="7.9501673"><ele>308.0</ele><time>2026-05-03T16:57:18.098Z</time></trkpt><trkpt lat="44.8122376" lon="7.9502492"><ele>308.0</ele><time>2026-05-03T16:57:19.098Z</time></trkpt><trkpt lat="44.8123089" lon="7.950395"><ele>308.0</ele><time>2026-05-03T16:57:21.098Z</time></trkpt><trkpt lat="44.8123672" lon="7.9504997"><ele>308.0</ele><time>2026-05-03T16:57:23.098Z</time></trkpt><trkpt lat="44.8124707" lon="7.9505401"><ele>308.0</ele><time>2026-05-03T16:57:25.098Z</time></trkpt><trkpt lat="44.8125292" lon="7.9504963"><ele>308.0</ele><time>2026-05-03T16:57:26.097Z</time></trkpt><trkpt lat="44.8125882" lon="7.9504459"><ele>308.0</ele><time>2026-05-03T16:57:27.098Z</time></trkpt><trkpt lat="44.8126449" lon="7.9503904"><ele>308.0</ele><time>2026-05-03T16:57:28.098Z</time></trkpt><trkpt lat="44.8127247" lon="7.9502791"><ele>308.0</ele><time>2026-05-03T16:57:29.098Z</time></trkpt><trkpt lat="44.8128488" lon="7.9501356"><ele>308.0</ele><time>2026-05-03T16:57:30.098Z</time></trkpt><trkpt lat="44.812996" lon="7.9499869"><ele>307.33333333333337</ele><time>2026-05-03T16:57:31.098Z</time></trkpt><trkpt lat="44.8131799" lon="7.9498337"><ele>306.6666666666667</ele><time>2026-05-03T16:57:32.098Z</time></trkpt><trkpt lat="44.8133525" lon="7.949684"><ele>306.0</ele><time>2026-05-03T16:57:33.098Z</time></trkpt><trkpt lat="44.8135213" lon="7.949514"><ele>304.6666666666667</ele><time>2026-05-03T16:57:34.098Z</time></trkpt><trkpt lat="44.8136998" lon="7.9493738"><ele>303.33333333333337</ele><time>2026-05-03T16:57:35.098Z</time></trkpt><trkpt lat="44.8138628" lon="7.9492574"><ele>302.0</ele><time>2026-05-03T16:57:36.098Z</time></trkpt><trkpt lat="44.8140373" lon="7.9491427"><ele>302.0</ele><time>2026-05-03T16:57:37.098Z</time></trkpt><trkpt lat="44.8141935" lon="7.9490088"><ele>302.0</ele><time>2026-05-03T16:57:38.097Z</time></trkpt><trkpt lat="44.8143646" lon="7.9488778"><ele>302.0</ele><time>2026-05-03T16:57:39.098Z</time></trkpt><trkpt lat="44.8145286" lon="7.9487576"><ele>302.0</ele><time>2026-05-03T16:57:40.097Z</time></trkpt><trkpt lat="44.8146934" lon="7.9486328"><ele>302.0</ele><time>2026-05-03T16:57:41.097Z</time></trkpt><trkpt lat="44.8148609" lon="7.9484904"><ele>302.0</ele><time>2026-05-03T16:57:42.098Z</time></trkpt><trkpt lat="44.8150237" lon="7.9483513"><ele>301.33333333333337</ele><time>2026-05-03T16:57:43.098Z</time></trkpt><trkpt lat="44.815176" lon="7.9482352"><ele>300.6666666666667</ele><time>2026-05-03T16:57:44.098Z</time></trkpt><trkpt lat="44.8153343" lon="7.9481142"><ele>300.0</ele><time>2026-05-03T16:57:45.098Z</time></trkpt><trkpt lat="44.815498" lon="7.9480039"><ele>300.0</ele><time>2026-05-03T16:57:46.098Z</time></trkpt><trkpt lat="44.8156543" lon="7.9478771"><ele>300.0</ele><time>2026-05-03T16:57:47.098Z</time></trkpt><trkpt lat="44.815804" lon="7.9477558"><ele>300.0</ele><time>2026-05-03T16:57:48.098Z</time></trkpt><trkpt lat="44.8159376" lon="7.9476387"><ele>299.25</ele><time>2026-05-03T16:57:49.098Z</time></trkpt><trkpt lat="44.816075" lon="7.9475287"><ele>298.5</ele><time>2026-05-03T16:57:50.098Z</time></trkpt><trkpt lat="44.8162078" lon="7.9474412"><ele>297.75</ele><time>2026-05-03T16:57:51.097Z</time></trkpt><trkpt lat="44.8163306" lon="7.9473815"><ele>297.0</ele><time>2026-05-03T16:57:52.098Z</time></trkpt><trkpt lat="44.8164769" lon="7.9473243"><ele>297.0</ele><time>2026-05-03T16:57:53.098Z</time></trkpt><trkpt lat="44.8166149" lon="7.9473347"><ele>297.0</ele><time>2026-05-03T16:57:54.098Z</time></trkpt><trkpt lat="44.8167413" lon="7.9473514"><ele>297.0</ele><time>2026-05-03T16:57:55.098Z</time></trkpt><trkpt lat="44.816869" lon="7.9474253"><ele>297.0</ele><time>2026-05-03T16:57:56.098Z</time></trkpt><trkpt lat="44.8169932" lon="7.9474915"><ele>298.6666666666667</ele><time>2026-05-03T16:57:57.098Z</time></trkpt><trkpt lat="44.8171162" lon="7.9475594"><ele>300.33333333333337</ele><time>2026-05-03T16:57:58.098Z</time></trkpt><trkpt lat="44.817279" lon="7.9476044"><ele>302.0</ele><time>2026-05-03T16:57:59.097Z</time></trkpt><trkpt lat="44.8174394" lon="7.9476702"><ele>302.0</ele><time>2026-05-03T16:58:00.097Z</time></trkpt><trkpt lat="44.8175994" lon="7.947745"><ele>302.0</ele><time>2026-05-03T16:58:01.097Z</time></trkpt><trkpt lat="44.8177681" lon="7.9478338"><ele>302.0</ele><time>2026-05-03T16:58:02.098Z</time></trkpt><trkpt lat="44.8179477" lon="7.9479138"><ele>300.33333333333337</ele><time>2026-05-03T16:58:03.098Z</time></trkpt><trkpt lat="44.8181036" lon="7.9480153"><ele>298.6666666666667</ele><time>2026-05-03T16:58:04.098Z</time></trkpt><trkpt lat="44.8183036" lon="7.9480975"><ele>297.0</ele><time>2026-05-03T16:58:05.098Z</time></trkpt><trkpt lat="44.8184918" lon="7.9481592"><ele>297.0</ele><time>2026-05-03T16:58:06.098Z</time></trkpt><trkpt lat="44.8186875" lon="7.948219"><ele>297.0</ele><time>2026-05-03T16:58:07.098Z</time></trkpt><trkpt lat="44.8188752" lon="7.9482676"><ele>297.0</ele><time>2026-05-03T16:58:08.098Z</time></trkpt><trkpt lat="44.8190511" lon="7.9482983"><ele>297.0</ele><time>2026-05-03T16:58:09.098Z</time></trkpt><trkpt lat="44.8192226" lon="7.9483113"><ele>297.0</ele><time>2026-05-03T16:58:10.098Z</time></trkpt><trkpt lat="44.8193917" lon="7.9483209"><ele>297.0</ele><time>2026-05-03T16:58:11.098Z</time></trkpt><trkpt lat="44.8195677" lon="7.9483034"><ele>296.3333333333333</ele><time>2026-05-03T16:58:12.097Z</time></trkpt><trkpt lat="44.8197418" lon="7.9482881"><ele>295.66666666666663</ele><time>2026-05-03T16:58:13.098Z</time></trkpt><trkpt lat="44.8199091" lon="7.9482724"><ele>295.0</ele><time>2026-05-03T16:58:14.098Z</time></trkpt><trkpt lat="44.8200798" lon="7.9482498"><ele>296.3333333333333</ele><time>2026-05-03T16:58:15.098Z</time></trkpt><trkpt lat="44.8202273" lon="7.9481993"><ele>297.6666666666667</ele><time>2026-05-03T16:58:16.097Z</time></trkpt><trkpt lat="44.8203675" lon="7.9481543"><ele>299.0</ele><time>2026-05-03T16:58:17.098Z</time></trkpt><trkpt lat="44.8205284" lon="7.9480895"><ele>299.0</ele><time>2026-05-03T16:58:18.097Z</time></trkpt><trkpt lat="44.8206474" lon="7.9480406"><ele>299.0</ele><time>2026-05-03T16:58:19.098Z</time></trkpt><trkpt lat="44.8207447" lon="7.9480062"><ele>299.0</ele><time>2026-05-03T16:58:20.098Z</time></trkpt><trkpt lat="44.8208398" lon="7.9479763"><ele>299.0</ele><time>2026-05-03T16:58:21.098Z</time></trkpt><trkpt lat="44.8209249" lon="7.9479446"><ele>299.0</ele><time>2026-05-03T16:58:22.098Z</time></trkpt><trkpt lat="44.8209959" lon="7.9479339"><ele>298.5</ele><time>2026-05-03T16:58:23.098Z</time></trkpt><trkpt lat="44.8210833" lon="7.9479221"><ele>298.0</ele><time>2026-05-03T16:58:24.098Z</time></trkpt><trkpt lat="44.8211397" lon="7.9479748"><ele>297.5</ele><time>2026-05-03T16:58:25.098Z</time></trkpt><trkpt lat="44.8212074" lon="7.9480163"><ele>297.0</ele><time>2026-05-03T16:58:26.098Z</time></trkpt><trkpt lat="44.8212764" lon="7.9480352"><ele>296.5</ele><time>2026-05-03T16:58:27.097Z</time></trkpt><trkpt lat="44.8214089" lon="7.9480116"><ele>296.0</ele><time>2026-05-03T16:58:29.098Z</time></trkpt><trkpt lat="44.8215011" lon="7.9479485"><ele>296.0</ele><time>2026-05-03T16:58:30.097Z</time></trkpt><trkpt lat="44.8215704" lon="7.9478833"><ele>296.0</ele><time>2026-05-03T16:58:31.098Z</time></trkpt><trkpt lat="44.8216278" lon="7.9477585"><ele>296.0</ele><time>2026-05-03T16:58:32.098Z</time></trkpt><trkpt lat="44.8216471" lon="7.9476321"><ele>296.0</ele><time>2026-05-03T16:58:33.098Z</time></trkpt><trkpt lat="44.8216674" lon="7.9475185"><ele>296.0</ele><time>2026-05-03T16:58:34.098Z</time></trkpt><trkpt lat="44.8217319" lon="7.9474361"><ele>295.75</ele><time>2026-05-03T16:58:35.098Z</time></trkpt><trkpt lat="44.8218115" lon="7.9473556"><ele>295.5</ele><time>2026-05-03T16:58:36.098Z</time></trkpt><trkpt lat="44.821864" lon="7.9472794"><ele>295.25</ele><time>2026-05-03T16:58:37.098Z</time></trkpt><trkpt lat="44.8219305" lon="7.947146"><ele>295.0</ele><time>2026-05-03T16:58:38.097Z</time></trkpt><trkpt lat="44.822156" lon="7.9468595"><ele>295.5</ele><time>2026-05-03T16:58:39.098Z</time></trkpt><trkpt lat="44.8223141" lon="7.9466244"><ele>296.0</ele><time>2026-05-03T16:58:40.098Z</time></trkpt><trkpt lat="44.822464" lon="7.9463976"><ele>296.0</ele><time>2026-05-03T16:58:41.098Z</time></trkpt><trkpt lat="44.8225992" lon="7.9461725"><ele>296.0</ele><time>2026-05-03T16:58:42.098Z</time></trkpt><trkpt lat="44.8227079" lon="7.9459339"><ele>296.0</ele><time>2026-05-03T16:58:43.098Z</time></trkpt><trkpt lat="44.8228287" lon="7.9456995"><ele>296.33333333333337</ele><time>2026-05-03T16:58:44.098Z</time></trkpt><trkpt lat="44.8229424" lon="7.9454715"><ele>296.6666666666667</ele><time>2026-05-03T16:58:45.098Z</time></trkpt><trkpt lat="44.8230638" lon="7.9452404"><ele>297.0</ele><time>2026-05-03T16:58:46.098Z</time></trkpt><trkpt lat="44.8231769" lon="7.9450316"><ele>296.75</ele><time>2026-05-03T16:58:47.098Z</time></trkpt><trkpt lat="44.8232618" lon="7.944863"><ele>296.5</ele><time>2026-05-03T16:58:48.098Z</time></trkpt><trkpt lat="44.8233592" lon="7.9446834"><ele>296.25</ele><time>2026-05-03T16:58:49.098Z</time></trkpt><trkpt lat="44.8234307" lon="7.944527"><ele>296.0</ele><time>2026-05-03T16:58:50.098Z</time></trkpt><trkpt lat="44.8235089" lon="7.9443671"><ele>296.0</ele><time>2026-05-03T16:58:51.098Z</time></trkpt><trkpt lat="44.8235813" lon="7.9442164"><ele>296.0</ele><time>2026-05-03T16:58:52.098Z</time></trkpt><trkpt lat="44.8236558" lon="7.9440849"><ele>296.0</ele><time>2026-05-03T16:58:53.098Z</time></trkpt><trkpt lat="44.8237138" lon="7.94396"><ele>296.0</ele><time>2026-05-03T16:58:54.098Z</time></trkpt><trkpt lat="44.8237769" lon="7.9438227"><ele>296.1666666666667</ele><time>2026-05-03T16:58:55.097Z</time></trkpt><trkpt lat="44.823834" lon="7.9437165"><ele>296.33333333333337</ele><time>2026-05-03T16:58:56.098Z</time></trkpt><trkpt lat="44.8239228" lon="7.9436375"><ele>296.5</ele><time>2026-05-03T16:58:57.097Z</time></trkpt><trkpt lat="44.8239838" lon="7.9436138"><ele>296.6666666666667</ele><time>2026-05-03T16:58:58.097Z</time></trkpt><trkpt lat="44.8240494" lon="7.943545"><ele>296.8333333333333</ele><time>2026-05-03T16:58:59.098Z</time></trkpt><trkpt lat="44.8240756" lon="7.9434407"><ele>297.0</ele><time>2026-05-03T16:59:00.097Z</time></trkpt><trkpt lat="44.8240834" lon="7.9433174"><ele>296.25</ele><time>2026-05-03T16:59:01.098Z</time></trkpt><trkpt lat="44.8241075" lon="7.9431754"><ele>295.5</ele><time>2026-05-03T16:59:02.098Z</time></trkpt><trkpt lat="44.8241405" lon="7.9430338"><ele>294.75</ele><time>2026-05-03T16:59:03.098Z</time></trkpt><trkpt lat="44.8242037" lon="7.9428219"><ele>294.0</ele><time>2026-05-03T16:59:04.098Z</time></trkpt><trkpt lat="44.8243045" lon="7.9426172"><ele>293.6666666666667</ele><time>2026-05-03T16:59:05.098Z</time></trkpt><trkpt lat="44.8243861" lon="7.9423729"><ele>293.33333333333337</ele><time>2026-05-03T16:59:06.097Z</time></trkpt><trkpt lat="44.8244765" lon="7.9421565"><ele>293.0</ele><time>2026-05-03T16:59:07.098Z</time></trkpt><trkpt lat="44.824583" lon="7.9418789"><ele>292.5</ele><time>2026-05-03T16:59:08.098Z</time></trkpt><trkpt lat="44.8246931" lon="7.9415963"><ele>292.0</ele><time>2026-05-03T16:59:09.098Z</time></trkpt><trkpt lat="44.8248035" lon="7.9413177"><ele>292.0</ele><time>2026-05-03T16:59:10.098Z</time></trkpt><trkpt lat="44.8249232" lon="7.9410199"><ele>292.0</ele><time>2026-05-03T16:59:11.097Z</time></trkpt><trkpt lat="44.8250395" lon="7.9407041"><ele>292.0</ele><time>2026-05-03T16:59:12.098Z</time></trkpt><trkpt lat="44.8251624" lon="7.9403758"><ele>292.0</ele><time>2026-05-03T16:59:13.098Z</time></trkpt><trkpt lat="44.8252936" lon="7.9400359"><ele>292.0</ele><time>2026-05-03T16:59:14.097Z</time></trkpt><trkpt lat="44.8254259" lon="7.9396799"><ele>292.0</ele><time>2026-05-03T16:59:15.097Z</time></trkpt><trkpt lat="44.8255669" lon="7.9393495"><ele>292.0</ele><time>2026-05-03T16:59:16.098Z</time></trkpt><trkpt lat="44.8257014" lon="7.9390162"><ele>292.0</ele><time>2026-05-03T16:59:17.098Z</time></trkpt><trkpt lat="44.8258267" lon="7.9387009"><ele>292.0</ele><time>2026-05-03T16:59:18.097Z</time></trkpt><trkpt lat="44.8259595" lon="7.9383829"><ele>292.0</ele><time>2026-05-03T16:59:19.098Z</time></trkpt><trkpt lat="44.8260795" lon="7.9381024"><ele>292.0</ele><time>2026-05-03T16:59:20.098Z</time></trkpt><trkpt lat="44.8261955" lon="7.9378167"><ele>292.0</ele><time>2026-05-03T16:59:21.098Z</time></trkpt><trkpt lat="44.8263102" lon="7.9375339"><ele>291.0</ele><time>2026-05-03T16:59:22.098Z</time></trkpt><trkpt lat="44.826424" lon="7.9372474"><ele>290.0</ele><time>2026-05-03T16:59:23.098Z</time></trkpt><trkpt lat="44.8265195" lon="7.936952"><ele>289.0</ele><time>2026-05-03T16:59:24.098Z</time></trkpt><trkpt lat="44.826636" lon="7.9366632"><ele>288.0</ele><time>2026-05-03T16:59:25.098Z</time></trkpt><trkpt lat="44.8267584" lon="7.9363809"><ele>289.5</ele><time>2026-05-03T16:59:26.098Z</time></trkpt><trkpt lat="44.8268692" lon="7.9360976"><ele>291.0</ele><time>2026-05-03T16:59:27.098Z</time></trkpt><trkpt lat="44.8269696" lon="7.9358087"><ele>291.5</ele><time>2026-05-03T16:59:28.097Z</time></trkpt><trkpt lat="44.8270914" lon="7.9355332"><ele>292.0</ele><time>2026-05-03T16:59:29.097Z</time></trkpt><trkpt lat="44.827205" lon="7.9352345"><ele>291.0</ele><time>2026-05-03T16:59:30.098Z</time></trkpt><trkpt lat="44.8273361" lon="7.9349394"><ele>290.0</ele><time>2026-05-03T16:59:31.098Z</time></trkpt><trkpt lat="44.8274591" lon="7.9346379"><ele>290.0</ele><time>2026-05-03T16:59:32.098Z</time></trkpt><trkpt lat="44.8275698" lon="7.9343435"><ele>290.0</ele><time>2026-05-03T16:59:33.098Z</time></trkpt><trkpt lat="44.8276971" lon="7.9340439"><ele>290.0</ele><time>2026-05-03T16:59:34.098Z</time></trkpt><trkpt lat="44.8278135" lon="7.933738"><ele>290.0</ele><time>2026-05-03T16:59:35.098Z</time></trkpt><trkpt lat="44.8279396" lon="7.9334354"><ele>290.0</ele><time>2026-05-03T16:59:36.097Z</time></trkpt><trkpt lat="44.8280569" lon="7.9331392"><ele>290.0</ele><time>2026-05-03T16:59:37.097Z</time></trkpt><trkpt lat="44.8281797" lon="7.9328454"><ele>290.0</ele><time>2026-05-03T16:59:38.097Z</time></trkpt><trkpt lat="44.8282878" lon="7.9325503"><ele>290.0</ele><time>2026-05-03T16:59:39.097Z</time></trkpt><trkpt lat="44.8284055" lon="7.9322619"><ele>290.5</ele><time>2026-05-03T16:59:40.098Z</time></trkpt><trkpt lat="44.8285199" lon="7.9319792"><ele>291.0</ele><time>2026-05-03T16:59:41.098Z</time></trkpt><trkpt lat="44.8286281" lon="7.9316972"><ele>291.0</ele><time>2026-05-03T16:59:42.098Z</time></trkpt><trkpt lat="44.8287441" lon="7.9314275"><ele>291.0</ele><time>2026-05-03T16:59:43.098Z</time></trkpt><trkpt lat="44.8288547" lon="7.9311668"><ele>291.0</ele><time>2026-05-03T16:59:44.098Z</time></trkpt><trkpt lat="44.828968" lon="7.9309079"><ele>290.6666666666667</ele><time>2026-05-03T16:59:45.098Z</time></trkpt><trkpt lat="44.8290862" lon="7.9306421"><ele>290.33333333333337</ele><time>2026-05-03T16:59:46.097Z</time></trkpt><trkpt lat="44.829208" lon="7.9303776"><ele>290.0</ele><time>2026-05-03T16:59:47.098Z</time></trkpt><trkpt lat="44.8293357" lon="7.930111"><ele>290.0</ele><time>2026-05-03T16:59:48.098Z</time></trkpt><trkpt lat="44.8294668" lon="7.9298428"><ele>290.0</ele><time>2026-05-03T16:59:49.098Z</time></trkpt><trkpt lat="44.8296016" lon="7.9295722"><ele>290.0</ele><time>2026-05-03T16:59:50.098Z</time></trkpt><trkpt lat="44.8297271" lon="7.9293056"><ele>290.0</ele><time>2026-05-03T16:59:51.098Z</time></trkpt><trkpt lat="44.8298488" lon="7.9290388"><ele>289.0</ele><time>2026-05-03T16:59:52.097Z</time></trkpt><trkpt lat="44.8299712" lon="7.9287703"><ele>288.0</ele><time>2026-05-03T16:59:53.098Z</time></trkpt><trkpt lat="44.8301062" lon="7.9284862"><ele>288.0</ele><time>2026-05-03T16:59:54.098Z</time></trkpt><trkpt lat="44.8302413" lon="7.9282199"><ele>288.0</ele><time>2026-05-03T16:59:55.098Z</time></trkpt><trkpt lat="44.830382" lon="7.9279335"><ele>288.0</ele><time>2026-05-03T16:59:56.097Z</time></trkpt><trkpt lat="44.8305211" lon="7.9276509"><ele>288.0</ele><time>2026-05-03T16:59:57.098Z</time></trkpt><trkpt lat="44.8306391" lon="7.9274218"><ele>288.0</ele><time>2026-05-03T16:59:58.097Z</time></trkpt><trkpt lat="44.8307617" lon="7.9271686"><ele>288.0</ele><time>2026-05-03T16:59:59.098Z</time></trkpt><trkpt lat="44.8309029" lon="7.9269239"><ele>288.0</ele><time>2026-05-03T17:00:00.097Z</time></trkpt><trkpt lat="44.8310509" lon="7.9266942"><ele>288.0</ele><time>2026-05-03T17:00:01.097Z</time></trkpt><trkpt lat="44.8312311" lon="7.9265038"><ele>287.5</ele><time>2026-05-03T17:00:02.098Z</time></trkpt><trkpt lat="44.831415" lon="7.9263219"><ele>287.0</ele><time>2026-05-03T17:00:03.098Z</time></trkpt><trkpt lat="44.8316028" lon="7.9261471"><ele>287.5</ele><time>2026-05-03T17:00:04.098Z</time></trkpt><trkpt lat="44.8318164" lon="7.9259983"><ele>288.0</ele><time>2026-05-03T17:00:05.098Z</time></trkpt><trkpt lat="44.8320575" lon="7.9258137"><ele>288.0</ele><time>2026-05-03T17:00:06.098Z</time></trkpt><trkpt lat="44.8322807" lon="7.9256426"><ele>288.0</ele><time>2026-05-03T17:00:07.098Z</time></trkpt><trkpt lat="44.8324931" lon="7.9254747"><ele>289.5</ele><time>2026-05-03T17:00:08.098Z</time></trkpt><trkpt lat="44.8327037" lon="7.9253041"><ele>291.0</ele><time>2026-05-03T17:00:09.098Z</time></trkpt><trkpt lat="44.8329262" lon="7.9251402"><ele>288.5</ele><time>2026-05-03T17:00:10.097Z</time></trkpt><trkpt lat="44.8331536" lon="7.9249725"><ele>286.0</ele><time>2026-05-03T17:00:11.098Z</time></trkpt><trkpt lat="44.8333548" lon="7.9248144"><ele>288.5</ele><time>2026-05-03T17:00:12.098Z</time></trkpt><trkpt lat="44.8335487" lon="7.9246559"><ele>291.0</ele><time>2026-05-03T17:00:13.098Z</time></trkpt><trkpt lat="44.8337491" lon="7.9244958"><ele>291.0</ele><time>2026-05-03T17:00:14.098Z</time></trkpt><trkpt lat="44.8339596" lon="7.9243417"><ele>291.0</ele><time>2026-05-03T17:00:15.098Z</time></trkpt><trkpt lat="44.8341623" lon="7.9241848"><ele>288.5</ele><time>2026-05-03T17:00:16.098Z</time></trkpt><trkpt lat="44.8343637" lon="7.9240387"><ele>286.0</ele><time>2026-05-03T17:00:17.098Z</time></trkpt><trkpt lat="44.8345692" lon="7.9238791"><ele>286.0</ele><time>2026-05-03T17:00:18.098Z</time></trkpt><trkpt lat="44.8347667" lon="7.9237251"><ele>286.0</ele><time>2026-05-03T17:00:19.098Z</time></trkpt><trkpt lat="44.8349579" lon="7.9235828"><ele>286.0</ele><time>2026-05-03T17:00:20.098Z</time></trkpt><trkpt lat="44.835154" lon="7.923393"><ele>285.0</ele><time>2026-05-03T17:00:21.097Z</time></trkpt><trkpt lat="44.8353323" lon="7.9232066"><ele>284.0</ele><time>2026-05-03T17:00:22.098Z</time></trkpt><trkpt lat="44.8355023" lon="7.9229916"><ele>284.0</ele><time>2026-05-03T17:00:23.098Z</time></trkpt><trkpt lat="44.8356567" lon="7.9227525"><ele>284.0</ele><time>2026-05-03T17:00:24.098Z</time></trkpt><trkpt lat="44.835808" lon="7.9225078"><ele>283.6666666666667</ele><time>2026-05-03T17:00:25.098Z</time></trkpt><trkpt lat="44.8359214" lon="7.9222632"><ele>283.3333333333333</ele><time>2026-05-03T17:00:26.098Z</time></trkpt><trkpt lat="44.8360104" lon="7.9219855"><ele>283.0</ele><time>2026-05-03T17:00:27.098Z</time></trkpt><trkpt lat="44.8361131" lon="7.9216392"><ele>285.0</ele><time>2026-05-03T17:00:28.098Z</time></trkpt><trkpt lat="44.8361628" lon="7.9213272"><ele>287.0</ele><time>2026-05-03T17:00:29.098Z</time></trkpt><trkpt lat="44.83617" lon="7.9209591"><ele>286.0</ele><time>2026-05-03T17:00:30.098Z</time></trkpt><trkpt lat="44.8361772" lon="7.9205904"><ele>285.0</ele><time>2026-05-03T17:00:31.098Z</time></trkpt><trkpt lat="44.8361957" lon="7.9202051"><ele>286.0</ele><time>2026-05-03T17:00:32.098Z</time></trkpt><trkpt lat="44.8362211" lon="7.9198113"><ele>287.0</ele><time>2026-05-03T17:00:33.098Z</time></trkpt><trkpt lat="44.8362375" lon="7.9194461"><ele>287.0</ele><time>2026-05-03T17:00:34.098Z</time></trkpt><trkpt lat="44.8362618" lon="7.9190671"><ele>287.0</ele><time>2026-05-03T17:00:35.098Z</time></trkpt><trkpt lat="44.8362869" lon="7.9186977"><ele>286.33333333333337</ele><time>2026-05-03T17:00:36.098Z</time></trkpt><trkpt lat="44.8363122" lon="7.9183755"><ele>285.6666666666667</ele><time>2026-05-03T17:00:37.098Z</time></trkpt><trkpt lat="44.83633" lon="7.9180682"><ele>285.0</ele><time>2026-05-03T17:00:38.098Z</time></trkpt><trkpt lat="44.8363526" lon="7.9177834"><ele>284.3333333333333</ele><time>2026-05-03T17:00:39.098Z</time></trkpt><trkpt lat="44.8363658" lon="7.9174864"><ele>283.66666666666663</ele><time>2026-05-03T17:00:40.098Z</time></trkpt><trkpt lat="44.8364074" lon="7.9172289"><ele>283.0</ele><time>2026-05-03T17:00:41.098Z</time></trkpt><trkpt lat="44.8364986" lon="7.9169856"><ele>283.0</ele><time>2026-05-03T17:00:42.098Z</time></trkpt><trkpt lat="44.8365926" lon="7.9167443"><ele>283.0</ele><time>2026-05-03T17:00:43.098Z</time></trkpt><trkpt lat="44.8367348" lon="7.9165071"><ele>283.0</ele><time>2026-05-03T17:00:44.098Z</time></trkpt><trkpt lat="44.8368579" lon="7.9162669"><ele>284.0</ele><time>2026-05-03T17:00:45.098Z</time></trkpt><trkpt lat="44.8370155" lon="7.9160426"><ele>285.0</ele><time>2026-05-03T17:00:46.098Z</time></trkpt><trkpt lat="44.8372398" lon="7.9158242"><ele>285.0</ele><time>2026-05-03T17:00:47.097Z</time></trkpt><trkpt lat="44.8374642" lon="7.9156293"><ele>285.0</ele><time>2026-05-03T17:00:48.098Z</time></trkpt><trkpt lat="44.8376997" lon="7.9154296"><ele>285.0</ele><time>2026-05-03T17:00:49.098Z</time></trkpt><trkpt lat="44.8379346" lon="7.9152364"><ele>285.0</ele><time>2026-05-03T17:00:50.098Z</time></trkpt><trkpt lat="44.8381768" lon="7.9150268"><ele>283.0</ele><time>2026-05-03T17:00:51.098Z</time></trkpt><trkpt lat="44.8384237" lon="7.9148023"><ele>281.0</ele><time>2026-05-03T17:00:52.098Z</time></trkpt><trkpt lat="44.8386648" lon="7.9145753"><ele>281.0</ele><time>2026-05-03T17:00:53.098Z</time></trkpt><trkpt lat="44.8389113" lon="7.9143618"><ele>281.0</ele><time>2026-05-03T17:00:54.098Z</time></trkpt><trkpt lat="44.8391515" lon="7.9141491"><ele>278.0</ele><time>2026-05-03T17:00:55.098Z</time></trkpt><trkpt lat="44.8393875" lon="7.9139398"><ele>275.0</ele><time>2026-05-03T17:00:56.098Z</time></trkpt><trkpt lat="44.8396339" lon="7.9137375"><ele>275.0</ele><time>2026-05-03T17:00:57.098Z</time></trkpt><trkpt lat="44.8398755" lon="7.9135355"><ele>275.0</ele><time>2026-05-03T17:00:58.098Z</time></trkpt><trkpt lat="44.8401012" lon="7.913311"><ele>274.0</ele><time>2026-05-03T17:00:59.098Z</time></trkpt><trkpt lat="44.8403455" lon="7.9130968"><ele>273.0</ele><time>2026-05-03T17:01:00.098Z</time></trkpt><trkpt lat="44.8405876" lon="7.9128834"><ele>273.0</ele><time>2026-05-03T17:01:01.098Z</time></trkpt><trkpt lat="44.8408055" lon="7.912685"><ele>273.0</ele><time>2026-05-03T17:01:02.098Z</time></trkpt><trkpt lat="44.8410364" lon="7.9124851"><ele>273.0</ele><time>2026-05-03T17:01:03.098Z</time></trkpt><trkpt lat="44.841265" lon="7.912281"><ele>273.0</ele><time>2026-05-03T17:01:04.098Z</time></trkpt><trkpt lat="44.8414895" lon="7.9120841"><ele>273.0</ele><time>2026-05-03T17:01:05.098Z</time></trkpt><trkpt lat="44.8417105" lon="7.9118803"><ele>273.0</ele><time>2026-05-03T17:01:06.098Z</time></trkpt><trkpt lat="44.8419328" lon="7.9116853"><ele>274.5</ele><time>2026-05-03T17:01:07.098Z</time></trkpt><trkpt lat="44.8421416" lon="7.911506"><ele>276.0</ele><time>2026-05-03T17:01:08.098Z</time></trkpt><trkpt lat="44.8423558" lon="7.9113237"><ele>276.0</ele><time>2026-05-03T17:01:09.097Z</time></trkpt><trkpt lat="44.8425561" lon="7.9111307"><ele>276.0</ele><time>2026-05-03T17:01:10.098Z</time></trkpt><trkpt lat="44.8427528" lon="7.9109494"><ele>276.5</ele><time>2026-05-03T17:01:11.098Z</time></trkpt><trkpt lat="44.8429765" lon="7.9107952"><ele>277.0</ele><time>2026-05-03T17:01:12.098Z</time></trkpt><trkpt lat="44.8431962" lon="7.9106817"><ele>277.0</ele><time>2026-05-03T17:01:13.098Z</time></trkpt><trkpt lat="44.8434328" lon="7.9105696"><ele>277.0</ele><time>2026-05-03T17:01:14.098Z</time></trkpt><trkpt lat="44.8436698" lon="7.9104691"><ele>278.5</ele><time>2026-05-03T17:01:15.098Z</time></trkpt><trkpt lat="44.8439139" lon="7.9103626"><ele>280.0</ele><time>2026-05-03T17:01:16.098Z</time></trkpt><trkpt lat="44.8441413" lon="7.91026"><ele>280.5</ele><time>2026-05-03T17:01:17.098Z</time></trkpt><trkpt lat="44.8443845" lon="7.9101625"><ele>281.0</ele><time>2026-05-03T17:01:18.098Z</time></trkpt><trkpt lat="44.8446302" lon="7.9100577"><ele>279.5</ele><time>2026-05-03T17:01:19.098Z</time></trkpt><trkpt lat="44.8448751" lon="7.9099443"><ele>278.0</ele><time>2026-05-03T17:01:20.098Z</time></trkpt><trkpt lat="44.8451259" lon="7.9098292"><ele>278.5</ele><time>2026-05-03T17:01:21.098Z</time></trkpt><trkpt lat="44.8453731" lon="7.9097182"><ele>279.0</ele><time>2026-05-03T17:01:22.097Z</time></trkpt><trkpt lat="44.8456175" lon="7.9096082"><ele>279.0</ele><time>2026-05-03T17:01:23.098Z</time></trkpt><trkpt lat="44.8458676" lon="7.9095003"><ele>279.0</ele><time>2026-05-03T17:01:24.097Z</time></trkpt><trkpt lat="44.8461202" lon="7.9093842"><ele>279.5</ele><time>2026-05-03T17:01:25.098Z</time></trkpt><trkpt lat="44.8463702" lon="7.9092644"><ele>280.0</ele><time>2026-05-03T17:01:26.098Z</time></trkpt><trkpt lat="44.8466168" lon="7.9091518"><ele>277.0</ele><time>2026-05-03T17:01:27.098Z</time></trkpt><trkpt lat="44.8468491" lon="7.9090495"><ele>274.0</ele><time>2026-05-03T17:01:28.097Z</time></trkpt><trkpt lat="44.847078" lon="7.9089612"><ele>274.0</ele><time>2026-05-03T17:01:29.098Z</time></trkpt><trkpt lat="44.8473168" lon="7.9088581"><ele>274.0</ele><time>2026-05-03T17:01:30.098Z</time></trkpt><trkpt lat="44.8475499" lon="7.9087917"><ele>274.0</ele><time>2026-05-03T17:01:31.098Z</time></trkpt><trkpt lat="44.8477859" lon="7.9087412"><ele>274.0</ele><time>2026-05-03T17:01:32.098Z</time></trkpt><trkpt lat="44.8480214" lon="7.908711"><ele>274.0</ele><time>2026-05-03T17:01:33.098Z</time></trkpt><trkpt lat="44.8482723" lon="7.9086976"><ele>274.0</ele><time>2026-05-03T17:01:34.098Z</time></trkpt><trkpt lat="44.8485125" lon="7.9087011"><ele>274.0</ele><time>2026-05-03T17:01:35.098Z</time></trkpt><trkpt lat="44.848766" lon="7.9086959"><ele>274.0</ele><time>2026-05-03T17:01:36.097Z</time></trkpt><trkpt lat="44.8490292" lon="7.9086825"><ele>274.0</ele><time>2026-05-03T17:01:37.097Z</time></trkpt><trkpt lat="44.8492842" lon="7.9086795"><ele>274.0</ele><time>2026-05-03T17:01:38.098Z</time></trkpt><trkpt lat="44.8495324" lon="7.9086777"><ele>273.0</ele><time>2026-05-03T17:01:39.097Z</time></trkpt><trkpt lat="44.8497894" lon="7.9086837"><ele>272.0</ele><time>2026-05-03T17:01:40.098Z</time></trkpt><trkpt lat="44.8500305" lon="7.9086942"><ele>273.33333333333337</ele><time>2026-05-03T17:01:41.098Z</time></trkpt><trkpt lat="44.8502564" lon="7.9086892"><ele>274.6666666666667</ele><time>2026-05-03T17:01:42.098Z</time></trkpt><trkpt lat="44.8504625" lon="7.9086859"><ele>276.0</ele><time>2026-05-03T17:01:43.097Z</time></trkpt><trkpt lat="44.8506813" lon="7.9086874"><ele>276.0</ele><time>2026-05-03T17:01:44.098Z</time></trkpt><trkpt lat="44.8508993" lon="7.9086853"><ele>276.0</ele><time>2026-05-03T17:01:45.098Z</time></trkpt><trkpt lat="44.8511105" lon="7.908682"><ele>276.0</ele><time>2026-05-03T17:01:46.098Z</time></trkpt><trkpt lat="44.8513186" lon="7.9086721"><ele>274.5</ele><time>2026-05-03T17:01:47.098Z</time></trkpt><trkpt lat="44.8515514" lon="7.9086425"><ele>273.0</ele><time>2026-05-03T17:01:48.098Z</time></trkpt><trkpt lat="44.8517771" lon="7.9086046"><ele>274.0</ele><time>2026-05-03T17:01:49.098Z</time></trkpt><trkpt lat="44.8520006" lon="7.90857"><ele>275.0</ele><time>2026-05-03T17:01:50.098Z</time></trkpt><trkpt lat="44.8522178" lon="7.9085323"><ele>276.0</ele><time>2026-05-03T17:01:51.097Z</time></trkpt><trkpt lat="44.8524337" lon="7.9084958"><ele>277.0</ele><time>2026-05-03T17:01:52.098Z</time></trkpt><trkpt lat="44.8526494" lon="7.9084524"><ele>278.0</ele><time>2026-05-03T17:01:53.097Z</time></trkpt><trkpt lat="44.8528722" lon="7.9083719"><ele>279.0</ele><time>2026-05-03T17:01:54.098Z</time></trkpt><trkpt lat="44.8530917" lon="7.9082649"><ele>279.0</ele><time>2026-05-03T17:01:55.097Z</time></trkpt><trkpt lat="44.8533054" lon="7.9081354"><ele>279.0</ele><time>2026-05-03T17:01:56.098Z</time></trkpt><trkpt lat="44.8535235" lon="7.9079966"><ele>280.5</ele><time>2026-05-03T17:01:57.097Z</time></trkpt><trkpt lat="44.8537335" lon="7.9078645"><ele>282.0</ele><time>2026-05-03T17:01:58.098Z</time></trkpt><trkpt lat="44.8539443" lon="7.907742"><ele>282.0</ele><time>2026-05-03T17:01:59.098Z</time></trkpt><trkpt lat="44.8541464" lon="7.9076188"><ele>282.0</ele><time>2026-05-03T17:02:00.098Z</time></trkpt><trkpt lat="44.8543302" lon="7.9075007"><ele>282.0</ele><time>2026-05-03T17:02:01.098Z</time></trkpt><trkpt lat="44.8545119" lon="7.9073778"><ele>280.3333333333333</ele><time>2026-05-03T17:02:02.098Z</time></trkpt><trkpt lat="44.8546888" lon="7.9072639"><ele>278.66666666666663</ele><time>2026-05-03T17:02:03.098Z</time></trkpt><trkpt lat="44.8548592" lon="7.9071506"><ele>277.0</ele><time>2026-05-03T17:02:04.098Z</time></trkpt><trkpt lat="44.8550709" lon="7.9069946"><ele>278.0</ele><time>2026-05-03T17:02:05.098Z</time></trkpt><trkpt lat="44.855238" lon="7.906866"><ele>279.0</ele><time>2026-05-03T17:02:06.097Z</time></trkpt><trkpt lat="44.8553815" lon="7.9067393"><ele>280.0</ele><time>2026-05-03T17:02:07.098Z</time></trkpt><trkpt lat="44.8555472" lon="7.9066153"><ele>280.0</ele><time>2026-05-03T17:02:08.098Z</time></trkpt><trkpt lat="44.8557064" lon="7.906496"><ele>280.0</ele><time>2026-05-03T17:02:09.098Z</time></trkpt><trkpt lat="44.8558868" lon="7.9063252"><ele>280.0</ele><time>2026-05-03T17:02:10.098Z</time></trkpt><trkpt lat="44.8560514" lon="7.9061737"><ele>279.3333333333333</ele><time>2026-05-03T17:02:11.098Z</time></trkpt><trkpt lat="44.856223" lon="7.9060342"><ele>278.6666666666667</ele><time>2026-05-03T17:02:12.098Z</time></trkpt><trkpt lat="44.856378" lon="7.9059047"><ele>278.0</ele><time>2026-05-03T17:02:13.098Z</time></trkpt><trkpt lat="44.8565275" lon="7.9057676"><ele>278.0</ele><time>2026-05-03T17:02:14.098Z</time></trkpt><trkpt lat="44.8566891" lon="7.9056351"><ele>278.0</ele><time>2026-05-03T17:02:15.098Z</time></trkpt><trkpt lat="44.8568522" lon="7.9054938"><ele>278.0</ele><time>2026-05-03T17:02:16.098Z</time></trkpt><trkpt lat="44.8569937" lon="7.905346"><ele>277.6666666666667</ele><time>2026-05-03T17:02:17.098Z</time></trkpt><trkpt lat="44.85714" lon="7.90517"><ele>277.3333333333333</ele><time>2026-05-03T17:02:18.097Z</time></trkpt><trkpt lat="44.8572849" lon="7.9049776"><ele>277.0</ele><time>2026-05-03T17:02:19.098Z</time></trkpt><trkpt lat="44.8574149" lon="7.9047619"><ele>277.0</ele><time>2026-05-03T17:02:20.097Z</time></trkpt><trkpt lat="44.8575328" lon="7.9045054"><ele>277.0</ele><time>2026-05-03T17:02:21.098Z</time></trkpt><trkpt lat="44.8576669" lon="7.9042489"><ele>277.0</ele><time>2026-05-03T17:02:22.098Z</time></trkpt><trkpt lat="44.8577625" lon="7.903987"><ele>277.66666666666663</ele><time>2026-05-03T17:02:23.098Z</time></trkpt><trkpt lat="44.8578411" lon="7.9037403"><ele>278.3333333333333</ele><time>2026-05-03T17:02:24.098Z</time></trkpt><trkpt lat="44.8579038" lon="7.9035194"><ele>279.0</ele><time>2026-05-03T17:02:25.098Z</time></trkpt><trkpt lat="44.8579753" lon="7.9033064"><ele>279.0</ele><time>2026-05-03T17:02:26.097Z</time></trkpt><trkpt lat="44.8580557" lon="7.9030754"><ele>279.0</ele><time>2026-05-03T17:02:27.098Z</time></trkpt><trkpt lat="44.8581277" lon="7.9028773"><ele>279.0</ele><time>2026-05-03T17:02:28.098Z</time></trkpt><trkpt lat="44.8581982" lon="7.9026601"><ele>277.0</ele><time>2026-05-03T17:02:29.098Z</time></trkpt><trkpt lat="44.8582668" lon="7.902444"><ele>275.0</ele><time>2026-05-03T17:02:30.098Z</time></trkpt><trkpt lat="44.8583147" lon="7.9022681"><ele>273.0</ele><time>2026-05-03T17:02:31.098Z</time></trkpt><trkpt lat="44.8584142" lon="7.902046"><ele>275.0</ele><time>2026-05-03T17:02:32.097Z</time></trkpt><trkpt lat="44.8585" lon="7.9018393"><ele>277.0</ele><time>2026-05-03T17:02:33.098Z</time></trkpt><trkpt lat="44.8585837" lon="7.9016288"><ele>279.0</ele><time>2026-05-03T17:02:34.098Z</time></trkpt><trkpt lat="44.8586643" lon="7.9014331"><ele>279.0</ele><time>2026-05-03T17:02:35.098Z</time></trkpt><trkpt lat="44.8587335" lon="7.9012411"><ele>279.0</ele><time>2026-05-03T17:02:36.098Z</time></trkpt><trkpt lat="44.8588143" lon="7.9010851"><ele>279.0</ele><time>2026-05-03T17:02:37.098Z</time></trkpt><trkpt lat="44.8588815" lon="7.9009204"><ele>279.0</ele><time>2026-05-03T17:02:38.098Z</time></trkpt><trkpt lat="44.8589538" lon="7.9007514"><ele>277.5</ele><time>2026-05-03T17:02:39.098Z</time></trkpt><trkpt lat="44.8590173" lon="7.9006074"><ele>276.0</ele><time>2026-05-03T17:02:40.098Z</time></trkpt><trkpt lat="44.8590883" lon="7.9004573"><ele>274.5</ele><time>2026-05-03T17:02:41.097Z</time></trkpt><trkpt lat="44.8591588" lon="7.9003448"><ele>273.0</ele><time>2026-05-03T17:02:42.098Z</time></trkpt><trkpt lat="44.8592714" lon="7.9001688"><ele>273.5</ele><time>2026-05-03T17:02:43.098Z</time></trkpt><trkpt lat="44.8593552" lon="7.9000211"><ele>274.0</ele><time>2026-05-03T17:02:44.098Z</time></trkpt><trkpt lat="44.8594414" lon="7.8998772"><ele>274.5</ele><time>2026-05-03T17:02:45.097Z</time></trkpt><trkpt lat="44.8594931" lon="7.8997529"><ele>275.0</ele><time>2026-05-03T17:02:46.098Z</time></trkpt><trkpt lat="44.8595722" lon="7.8996346"><ele>275.0</ele><time>2026-05-03T17:02:47.098Z</time></trkpt><trkpt lat="44.8596415" lon="7.8995155"><ele>275.0</ele><time>2026-05-03T17:02:48.098Z</time></trkpt><trkpt lat="44.8597022" lon="7.899404"><ele>275.0</ele><time>2026-05-03T17:02:49.098Z</time></trkpt><trkpt lat="44.8597572" lon="7.8993022"><ele>275.0</ele><time>2026-05-03T17:02:50.097Z</time></trkpt><trkpt lat="44.8598158" lon="7.8992098"><ele>275.0</ele><time>2026-05-03T17:02:51.097Z</time></trkpt><trkpt lat="44.8598616" lon="7.8991314"><ele>275.4</ele><time>2026-05-03T17:02:52.097Z</time></trkpt><trkpt lat="44.8599146" lon="7.899053"><ele>275.8</ele><time>2026-05-03T17:02:53.098Z</time></trkpt><trkpt lat="44.8600004" lon="7.8989437"><ele>276.2</ele><time>2026-05-03T17:02:55.097Z</time></trkpt><trkpt lat="44.8600736" lon="7.8988724"><ele>276.6</ele><time>2026-05-03T17:02:56.098Z</time></trkpt><trkpt lat="44.8601585" lon="7.8988212"><ele>277.0</ele><time>2026-05-03T17:02:57.098Z</time></trkpt><trkpt lat="44.86024" lon="7.8987456"><ele>277.0</ele><time>2026-05-03T17:02:58.097Z</time></trkpt><trkpt lat="44.8603269" lon="7.8986627"><ele>277.0</ele><time>2026-05-03T17:02:59.098Z</time></trkpt><trkpt lat="44.8604208" lon="7.8985448"><ele>277.0</ele><time>2026-05-03T17:03:00.098Z</time></trkpt><trkpt lat="44.8605108" lon="7.8984505"><ele>277.0</ele><time>2026-05-03T17:03:01.097Z</time></trkpt><trkpt lat="44.8605935" lon="7.8983327"><ele>276.5</ele><time>2026-05-03T17:03:02.098Z</time></trkpt><trkpt lat="44.8606911" lon="7.898247"><ele>276.0</ele><time>2026-05-03T17:03:03.098Z</time></trkpt><trkpt lat="44.8607898" lon="7.8981608"><ele>275.5</ele><time>2026-05-03T17:03:04.098Z</time></trkpt><trkpt lat="44.8608939" lon="7.8980521"><ele>275.0</ele><time>2026-05-03T17:03:05.098Z</time></trkpt><trkpt lat="44.860992" lon="7.8979489"><ele>275.0</ele><time>2026-05-03T17:03:06.098Z</time></trkpt><trkpt lat="44.8610941" lon="7.8978674"><ele>275.0</ele><time>2026-05-03T17:03:07.098Z</time></trkpt><trkpt lat="44.8612026" lon="7.897784"><ele>275.0</ele><time>2026-05-03T17:03:08.098Z</time></trkpt><trkpt lat="44.8612681" lon="7.8976667"><ele>275.0</ele><time>2026-05-03T17:03:09.098Z</time></trkpt><trkpt lat="44.8613196" lon="7.8975253"><ele>274.4</ele><time>2026-05-03T17:03:10.098Z</time></trkpt><trkpt lat="44.8614182" lon="7.8974381"><ele>273.8</ele><time>2026-05-03T17:03:11.098Z</time></trkpt><trkpt lat="44.8615172" lon="7.897353"><ele>273.2</ele><time>2026-05-03T17:03:12.098Z</time></trkpt><trkpt lat="44.8616017" lon="7.8972881"><ele>272.6</ele><time>2026-05-03T17:03:13.098Z</time></trkpt><trkpt lat="44.8617013" lon="7.8972188"><ele>272.0</ele><time>2026-05-03T17:03:14.097Z</time></trkpt><trkpt lat="44.861791" lon="7.8971271"><ele>272.0</ele><time>2026-05-03T17:03:15.098Z</time></trkpt><trkpt lat="44.8618775" lon="7.8970546"><ele>272.0</ele><time>2026-05-03T17:03:16.098Z</time></trkpt><trkpt lat="44.8619606" lon="7.8969546"><ele>272.0</ele><time>2026-05-03T17:03:17.098Z</time></trkpt><trkpt lat="44.8620272" lon="7.8968963"><ele>272.0</ele><time>2026-05-03T17:03:18.097Z</time></trkpt><trkpt lat="44.8620997" lon="7.8968224"><ele>272.0</ele><time>2026-05-03T17:03:19.098Z</time></trkpt><trkpt lat="44.8621608" lon="7.8967676"><ele>271.6666666666667</ele><time>2026-05-03T17:03:20.098Z</time></trkpt><trkpt lat="44.8622429" lon="7.8967338"><ele>271.33333333333337</ele><time>2026-05-03T17:03:21.097Z</time></trkpt><trkpt lat="44.862372" lon="7.8967161"><ele>271.0</ele><time>2026-05-03T17:03:23.098Z</time></trkpt><trkpt lat="44.8624409" lon="7.8967"><ele>270.6666666666667</ele><time>2026-05-03T17:03:24.098Z</time></trkpt><trkpt lat="44.8625184" lon="7.8967205"><ele>270.3333333333333</ele><time>2026-05-03T17:03:25.098Z</time></trkpt><trkpt lat="44.8625961" lon="7.8967489"><ele>270.0</ele><time>2026-05-03T17:03:26.098Z</time></trkpt><trkpt lat="44.8626711" lon="7.8967824"><ele>270.8333333333333</ele><time>2026-05-03T17:03:27.098Z</time></trkpt><trkpt lat="44.8627329" lon="7.8968402"><ele>271.6666666666667</ele><time>2026-05-03T17:03:28.098Z</time></trkpt><trkpt lat="44.8627955" lon="7.8968976"><ele>272.5</ele><time>2026-05-03T17:03:29.098Z</time></trkpt><trkpt lat="44.862849" lon="7.896997"><ele>273.33333333333337</ele><time>2026-05-03T17:03:30.097Z</time></trkpt><trkpt lat="44.8629052" lon="7.8970769"><ele>274.1666666666667</ele><time>2026-05-03T17:03:31.098Z</time></trkpt><trkpt lat="44.8628904" lon="7.8972105"><ele>275.0</ele><time>2026-05-03T17:03:33.097Z</time></trkpt><trkpt lat="44.8628666" lon="7.8973004"><ele>275.0</ele><time>2026-05-03T17:03:36.098Z</time></trkpt><trkpt lat="44.8628674" lon="7.8974336"><ele>275.0</ele><time>2026-05-03T17:03:38.098Z</time></trkpt><trkpt lat="44.8628751" lon="7.8975908"><ele>275.0</ele><time>2026-05-03T17:03:40.098Z</time></trkpt><trkpt lat="44.8628613" lon="7.8977731"><ele>275.0</ele><time>2026-05-03T17:03:42.098Z</time></trkpt><trkpt lat="44.8628613" lon="7.8978835"><ele>275.0</ele><time>2026-05-03T17:03:43.098Z</time></trkpt><trkpt lat="44.8628491" lon="7.8980038"><ele>277.0</ele><time>2026-05-03T17:03:44.098Z</time></trkpt><trkpt lat="44.8628438" lon="7.8981093"><ele>279.0</ele><time>2026-05-03T17:03:45.098Z</time></trkpt><trkpt lat="44.8628189" lon="7.898245"><ele>281.0</ele><time>2026-05-03T17:03:47.097Z</time></trkpt><trkpt lat="44.8627684" lon="7.8983841"><ele>283.0</ele><time>2026-05-03T17:03:49.098Z</time></trkpt><trkpt lat="44.862721" lon="7.8984463"><ele>285.0</ele><time>2026-05-03T17:03:50.098Z</time></trkpt><trkpt lat="44.8626557" lon="7.89851"><ele>287.0</ele><time>2026-05-03T17:03:51.098Z</time></trkpt><trkpt lat="44.8625545" lon="7.898575"><ele>288.2</ele><time>2026-05-03T17:03:52.098Z</time></trkpt><trkpt lat="44.8624738" lon="7.8986099"><ele>289.4</ele><time>2026-05-03T17:03:53.098Z</time></trkpt><trkpt lat="44.8623702" lon="7.898666"><ele>290.6</ele><time>2026-05-03T17:03:54.098Z</time></trkpt><trkpt lat="44.8622488" lon="7.8987324"><ele>291.8</ele><time>2026-05-03T17:03:55.097Z</time></trkpt><trkpt lat="44.8621513" lon="7.8987789"><ele>293.0</ele><time>2026-05-03T17:03:56.098Z</time></trkpt><trkpt lat="44.8620562" lon="7.8988261"><ele>293.0</ele><time>2026-05-03T17:03:57.098Z</time></trkpt><trkpt lat="44.8619539" lon="7.8988842"><ele>293.0</ele><time>2026-05-03T17:03:58.098Z</time></trkpt><trkpt lat="44.8618578" lon="7.8989395"><ele>293.0</ele><time>2026-05-03T17:03:59.098Z</time></trkpt><trkpt lat="44.8617729" lon="7.8990278"><ele>293.0</ele><time>2026-05-03T17:04:00.098Z</time></trkpt><trkpt lat="44.8616919" lon="7.8991062"><ele>293.0</ele><time>2026-05-03T17:04:01.097Z</time></trkpt><trkpt lat="44.8616242" lon="7.8991867"><ele>294.8</ele><time>2026-05-03T17:04:02.097Z</time></trkpt><trkpt lat="44.8615571" lon="7.8992702"><ele>296.6</ele><time>2026-05-03T17:04:03.098Z</time></trkpt><trkpt lat="44.8614982" lon="7.8993533"><ele>298.4</ele><time>2026-05-03T17:04:04.098Z</time></trkpt><trkpt lat="44.8613976" lon="7.8994924"><ele>300.2</ele><time>2026-05-03T17:04:06.098Z</time></trkpt><trkpt lat="44.8613665" lon="7.8995867"><ele>302.0</ele><time>2026-05-03T17:04:07.098Z</time></trkpt><trkpt lat="44.8613109" lon="7.8997044"><ele>302.0</ele><time>2026-05-03T17:04:09.098Z</time></trkpt><trkpt lat="44.8612362" lon="7.8998454"><ele>302.0</ele><time>2026-05-03T17:04:11.098Z</time></trkpt><trkpt lat="44.861185" lon="7.8999127"><ele>302.0</ele><time>2026-05-03T17:04:12.098Z</time></trkpt><trkpt lat="44.8611315" lon="7.8999848"><ele>302.0</ele><time>2026-05-03T17:04:13.098Z</time></trkpt><trkpt lat="44.8610755" lon="7.9000638"><ele>302.0</ele><time>2026-05-03T17:04:14.098Z</time></trkpt><trkpt lat="44.8610145" lon="7.900159"><ele>302.0</ele><time>2026-05-03T17:04:15.098Z</time></trkpt><trkpt lat="44.8609556" lon="7.9002619"><ele>302.4</ele><time>2026-05-03T17:04:16.097Z</time></trkpt><trkpt lat="44.8608927" lon="7.9003706"><ele>302.79999999999995</ele><time>2026-05-03T17:04:17.098Z</time></trkpt><trkpt lat="44.8608329" lon="7.9004655"><ele>303.2</ele><time>2026-05-03T17:04:18.098Z</time></trkpt><trkpt lat="44.8607678" lon="7.9005719"><ele>303.59999999999997</ele><time>2026-05-03T17:04:19.097Z</time></trkpt><trkpt lat="44.8607131" lon="7.9006765"><ele>304.0</ele><time>2026-05-03T17:04:20.098Z</time></trkpt><trkpt lat="44.8606419" lon="7.9007706"><ele>304.0</ele><time>2026-05-03T17:04:21.097Z</time></trkpt><trkpt lat="44.8605668" lon="7.9008651"><ele>304.0</ele><time>2026-05-03T17:04:22.098Z</time></trkpt><trkpt lat="44.8605029" lon="7.9009201"><ele>304.0</ele><time>2026-05-03T17:04:23.098Z</time></trkpt><trkpt lat="44.8604361" lon="7.9009786"><ele>304.0</ele><time>2026-05-03T17:04:24.098Z</time></trkpt><trkpt lat="44.8603957" lon="7.9010482"><ele>304.0</ele><time>2026-05-03T17:04:25.098Z</time></trkpt><trkpt lat="44.8603108" lon="7.9011924"><ele>304.59999999999997</ele><time>2026-05-03T17:04:27.098Z</time></trkpt><trkpt lat="44.860273" lon="7.9013029"><ele>305.2</ele><time>2026-05-03T17:04:28.098Z</time></trkpt><trkpt lat="44.8602193" lon="7.901442"><ele>305.79999999999995</ele><time>2026-05-03T17:04:29.098Z</time></trkpt><trkpt lat="44.8601798" lon="7.9015702"><ele>306.4</ele><time>2026-05-03T17:04:30.098Z</time></trkpt><trkpt lat="44.8601455" lon="7.9017111"><ele>307.0</ele><time>2026-05-03T17:04:31.098Z</time></trkpt><trkpt lat="44.8601178" lon="7.9018456"><ele>306.5</ele><time>2026-05-03T17:04:32.098Z</time></trkpt><trkpt lat="44.8600869" lon="7.9019889"><ele>306.0</ele><time>2026-05-03T17:04:33.098Z</time></trkpt><trkpt lat="44.8600667" lon="7.9021512"><ele>305.5</ele><time>2026-05-03T17:04:34.098Z</time></trkpt><trkpt lat="44.8600074" lon="7.9023472"><ele>305.0</ele><time>2026-05-03T17:04:35.098Z</time></trkpt><trkpt lat="44.8599499" lon="7.902588"><ele>305.0</ele><time>2026-05-03T17:04:36.098Z</time></trkpt><trkpt lat="44.8599193" lon="7.9027589"><ele>305.0</ele><time>2026-05-03T17:04:37.098Z</time></trkpt><trkpt lat="44.8598918" lon="7.9029225"><ele>305.0</ele><time>2026-05-03T17:04:38.098Z</time></trkpt><trkpt lat="44.8598666" lon="7.9030807"><ele>305.0</ele><time>2026-05-03T17:04:39.098Z</time></trkpt><trkpt lat="44.8598432" lon="7.9032304"><ele>305.0</ele><time>2026-05-03T17:04:40.098Z</time></trkpt><trkpt lat="44.8598199" lon="7.9033879"><ele>305.0</ele><time>2026-05-03T17:04:41.098Z</time></trkpt><trkpt lat="44.8598046" lon="7.9035345"><ele>305.0</ele><time>2026-05-03T17:04:42.097Z</time></trkpt><trkpt lat="44.8597818" lon="7.9036825"><ele>305.0</ele><time>2026-05-03T17:04:43.098Z</time></trkpt><trkpt lat="44.8597625" lon="7.9038198"><ele>305.0</ele><time>2026-05-03T17:04:44.098Z</time></trkpt><trkpt lat="44.8597416" lon="7.9039702"><ele>305.25</ele><time>2026-05-03T17:04:45.098Z</time></trkpt><trkpt lat="44.8597197" lon="7.9041282"><ele>305.5</ele><time>2026-05-03T17:04:46.098Z</time></trkpt><trkpt lat="44.8596891" lon="7.9042798"><ele>305.75</ele><time>2026-05-03T17:04:47.098Z</time></trkpt><trkpt lat="44.859668" lon="7.9044464"><ele>306.0</ele><time>2026-05-03T17:04:48.098Z</time></trkpt><trkpt lat="44.8596263" lon="7.9045975"><ele>306.0</ele><time>2026-05-03T17:04:49.097Z</time></trkpt><trkpt lat="44.8595832" lon="7.904745"><ele>306.0</ele><time>2026-05-03T17:04:50.098Z</time></trkpt><trkpt lat="44.8595399" lon="7.9049125"><ele>306.0</ele><time>2026-05-03T17:04:51.098Z</time></trkpt><trkpt lat="44.8595217" lon="7.9050547"><ele>306.0</ele><time>2026-05-03T17:04:52.098Z</time></trkpt><trkpt lat="44.8594945" lon="7.9052013"><ele>306.0</ele><time>2026-05-03T17:04:53.097Z</time></trkpt><trkpt lat="44.8594732" lon="7.9053491"><ele>305.5</ele><time>2026-05-03T17:04:54.098Z</time></trkpt><trkpt lat="44.8594688" lon="7.9054914"><ele>305.0</ele><time>2026-05-03T17:04:55.098Z</time></trkpt><trkpt lat="44.8595139" lon="7.9056515"><ele>304.5</ele><time>2026-05-03T17:04:56.098Z</time></trkpt><trkpt lat="44.8595295" lon="7.905804"><ele>304.0</ele><time>2026-05-03T17:04:57.098Z</time></trkpt><trkpt lat="44.8595621" lon="7.9059822"><ele>306.0</ele><time>2026-05-03T17:04:58.098Z</time></trkpt><trkpt lat="44.8597063" lon="7.9062292"><ele>308.0</ele><time>2026-05-03T17:04:59.098Z</time></trkpt><trkpt lat="44.8597882" lon="7.9064471"><ele>310.0</ele><time>2026-05-03T17:05:00.098Z</time></trkpt><trkpt lat="44.8598861" lon="7.9066559"><ele>310.5</ele><time>2026-05-03T17:05:01.098Z</time></trkpt><trkpt lat="44.8599716" lon="7.9068539"><ele>311.0</ele><time>2026-05-03T17:05:02.098Z</time></trkpt><trkpt lat="44.8600351" lon="7.9070343"><ele>311.5</ele><time>2026-05-03T17:05:03.098Z</time></trkpt><trkpt lat="44.8600795" lon="7.9072247"><ele>312.0</ele><time>2026-05-03T17:05:04.098Z</time></trkpt><trkpt lat="44.860099" lon="7.9074361"><ele>312.0</ele><time>2026-05-03T17:05:05.098Z</time></trkpt><trkpt lat="44.860124" lon="7.9076468"><ele>312.0</ele><time>2026-05-03T17:05:06.097Z</time></trkpt><trkpt lat="44.8600824" lon="7.9077923"><ele>312.0</ele><time>2026-05-03T17:05:07.098Z</time></trkpt><trkpt lat="44.8600163" lon="7.9079334"><ele>312.0</ele><time>2026-05-03T17:05:08.098Z</time></trkpt><trkpt lat="44.8599381" lon="7.90808"><ele>312.0</ele><time>2026-05-03T17:05:09.098Z</time></trkpt><trkpt lat="44.8597881" lon="7.9082287"><ele>312.0</ele><time>2026-05-03T17:05:10.098Z</time></trkpt><trkpt lat="44.8596491" lon="7.9083924"><ele>312.0</ele><time>2026-05-03T17:05:11.098Z</time></trkpt><trkpt lat="44.8595256" lon="7.9085571"><ele>311.3333333333333</ele><time>2026-05-03T17:05:12.098Z</time></trkpt><trkpt lat="44.8593912" lon="7.9087095"><ele>310.66666666666663</ele><time>2026-05-03T17:05:13.098Z</time></trkpt><trkpt lat="44.8592586" lon="7.90886"><ele>310.0</ele><time>2026-05-03T17:05:14.097Z</time></trkpt><trkpt lat="44.8591198" lon="7.9090163"><ele>310.0</ele><time>2026-05-03T17:05:15.098Z</time></trkpt><trkpt lat="44.8589766" lon="7.9091836"><ele>310.0</ele><time>2026-05-03T17:05:16.098Z</time></trkpt><trkpt lat="44.8588308" lon="7.909353"><ele>310.0</ele><time>2026-05-03T17:05:17.098Z</time></trkpt><trkpt lat="44.8586975" lon="7.9095388"><ele>309.3333333333333</ele><time>2026-05-03T17:05:18.098Z</time></trkpt><trkpt lat="44.8585208" lon="7.9097007"><ele>308.6666666666667</ele><time>2026-05-03T17:05:19.098Z</time></trkpt><trkpt lat="44.8583763" lon="7.9098671"><ele>308.0</ele><time>2026-05-03T17:05:20.098Z</time></trkpt><trkpt lat="44.8582573" lon="7.9100096"><ele>309.0</ele><time>2026-05-03T17:05:21.098Z</time></trkpt><trkpt lat="44.8581558" lon="7.9101468"><ele>310.0</ele><time>2026-05-03T17:05:22.098Z</time></trkpt><trkpt lat="44.8580565" lon="7.9102816"><ele>311.0</ele><time>2026-05-03T17:05:23.098Z</time></trkpt><trkpt lat="44.8579768" lon="7.9104265"><ele>312.0</ele><time>2026-05-03T17:05:24.098Z</time></trkpt><trkpt lat="44.857917" lon="7.9106128"><ele>312.0</ele><time>2026-05-03T17:05:25.098Z</time></trkpt><trkpt lat="44.8578922" lon="7.9107836"><ele>312.0</ele><time>2026-05-03T17:05:26.098Z</time></trkpt><trkpt lat="44.8578913" lon="7.9110587"><ele>312.0</ele><time>2026-05-03T17:05:27.098Z</time></trkpt><trkpt lat="44.8578571" lon="7.9112881"><ele>312.6666666666667</ele><time>2026-05-03T17:05:28.098Z</time></trkpt><trkpt lat="44.8578401" lon="7.9115821"><ele>313.33333333333337</ele><time>2026-05-03T17:05:29.098Z</time></trkpt><trkpt lat="44.8578275" lon="7.9118775"><ele>314.0</ele><time>2026-05-03T17:05:30.097Z</time></trkpt><trkpt lat="44.8577943" lon="7.9121534"><ele>314.6666666666667</ele><time>2026-05-03T17:05:31.097Z</time></trkpt><trkpt lat="44.8577813" lon="7.9124365"><ele>315.3333333333333</ele><time>2026-05-03T17:05:32.098Z</time></trkpt><trkpt lat="44.8577561" lon="7.9127171"><ele>316.0</ele><time>2026-05-03T17:05:33.098Z</time></trkpt><trkpt lat="44.8577458" lon="7.913015"><ele>316.0</ele><time>2026-05-03T17:05:34.098Z</time></trkpt><trkpt lat="44.8577199" lon="7.9133012"><ele>316.0</ele><time>2026-05-03T17:05:35.098Z</time></trkpt><trkpt lat="44.8577052" lon="7.9135863"><ele>316.0</ele><time>2026-05-03T17:05:36.098Z</time></trkpt><trkpt lat="44.85768" lon="7.913872"><ele>316.0</ele><time>2026-05-03T17:05:37.098Z</time></trkpt><trkpt lat="44.8576604" lon="7.9141593"><ele>316.0</ele><time>2026-05-03T17:05:38.097Z</time></trkpt><trkpt lat="44.857644" lon="7.914446"><ele>316.0</ele><time>2026-05-03T17:05:39.098Z</time></trkpt><trkpt lat="44.8576238" lon="7.9146655"><ele>316.25</ele><time>2026-05-03T17:05:40.098Z</time></trkpt><trkpt lat="44.857606" lon="7.9148823"><ele>316.5</ele><time>2026-05-03T17:05:41.098Z</time></trkpt><trkpt lat="44.857586" lon="7.9150748"><ele>316.75</ele><time>2026-05-03T17:05:42.098Z</time></trkpt><trkpt lat="44.8575531" lon="7.9152422"><ele>317.0</ele><time>2026-05-03T17:05:43.098Z</time></trkpt><trkpt lat="44.8575013" lon="7.9154064"><ele>317.6666666666667</ele><time>2026-05-03T17:05:44.098Z</time></trkpt><trkpt lat="44.8574468" lon="7.9155536"><ele>318.3333333333333</ele><time>2026-05-03T17:05:45.098Z</time></trkpt><trkpt lat="44.8573001" lon="7.9156757"><ele>319.0</ele><time>2026-05-03T17:05:46.098Z</time></trkpt><trkpt lat="44.8571522" lon="7.9157887"><ele>318.3333333333333</ele><time>2026-05-03T17:05:47.098Z</time></trkpt><trkpt lat="44.8569807" lon="7.9159485"><ele>317.6666666666667</ele><time>2026-05-03T17:05:48.097Z</time></trkpt><trkpt lat="44.8568162" lon="7.9161356"><ele>317.0</ele><time>2026-05-03T17:05:49.097Z</time></trkpt><trkpt lat="44.8566594" lon="7.9163131"><ele>317.0</ele><time>2026-05-03T17:05:50.098Z</time></trkpt><trkpt lat="44.8565041" lon="7.9164976"><ele>317.0</ele><time>2026-05-03T17:05:51.097Z</time></trkpt><trkpt lat="44.8563403" lon="7.9166985"><ele>317.0</ele><time>2026-05-03T17:05:52.098Z</time></trkpt><trkpt lat="44.8562016" lon="7.9168811"><ele>317.0</ele><time>2026-05-03T17:05:53.098Z</time></trkpt><trkpt lat="44.8560796" lon="7.9170751"><ele>317.0</ele><time>2026-05-03T17:05:54.097Z</time></trkpt><trkpt lat="44.8559652" lon="7.9172948"><ele>317.0</ele><time>2026-05-03T17:05:55.097Z</time></trkpt><trkpt lat="44.8558631" lon="7.9175048"><ele>319.0</ele><time>2026-05-03T17:05:56.098Z</time></trkpt><trkpt lat="44.8557843" lon="7.9177366"><ele>321.0</ele><time>2026-05-03T17:05:57.098Z</time></trkpt><trkpt lat="44.855687" lon="7.9179777"><ele>323.0</ele><time>2026-05-03T17:05:58.098Z</time></trkpt><trkpt lat="44.8556284" lon="7.9182192"><ele>322.33333333333337</ele><time>2026-05-03T17:05:59.098Z</time></trkpt><trkpt lat="44.8555714" lon="7.9184466"><ele>321.6666666666667</ele><time>2026-05-03T17:06:00.098Z</time></trkpt><trkpt lat="44.8555352" lon="7.918681"><ele>321.0</ele><time>2026-05-03T17:06:01.098Z</time></trkpt><trkpt lat="44.8555421" lon="7.9189538"><ele>321.0</ele><time>2026-05-03T17:06:02.098Z</time></trkpt><trkpt lat="44.8555626" lon="7.9192269"><ele>321.0</ele><time>2026-05-03T17:06:03.097Z</time></trkpt><trkpt lat="44.8556003" lon="7.919525"><ele>321.0</ele><time>2026-05-03T17:06:04.098Z</time></trkpt><trkpt lat="44.8556437" lon="7.9198294"><ele>323.0</ele><time>2026-05-03T17:06:05.098Z</time></trkpt><trkpt lat="44.8557078" lon="7.9201067"><ele>325.0</ele><time>2026-05-03T17:06:06.098Z</time></trkpt><trkpt lat="44.8557455" lon="7.9204267"><ele>327.0</ele><time>2026-05-03T17:06:07.098Z</time></trkpt><trkpt lat="44.855795" lon="7.9207354"><ele>327.0</ele><time>2026-05-03T17:06:08.098Z</time></trkpt><trkpt lat="44.8558471" lon="7.9210393"><ele>327.0</ele><time>2026-05-03T17:06:09.098Z</time></trkpt><trkpt lat="44.855897" lon="7.921334"><ele>327.0</ele><time>2026-05-03T17:06:10.098Z</time></trkpt><trkpt lat="44.8559461" lon="7.9216168"><ele>326.0</ele><time>2026-05-03T17:06:11.098Z</time></trkpt><trkpt lat="44.8559963" lon="7.9218972"><ele>325.0</ele><time>2026-05-03T17:06:12.098Z</time></trkpt><trkpt lat="44.8560376" lon="7.9221466"><ele>324.0</ele><time>2026-05-03T17:06:13.098Z</time></trkpt><trkpt lat="44.8560909" lon="7.9224052"><ele>324.0</ele><time>2026-05-03T17:06:14.098Z</time></trkpt><trkpt lat="44.8561169" lon="7.9226227"><ele>324.0</ele><time>2026-05-03T17:06:15.098Z</time></trkpt><trkpt lat="44.8560838" lon="7.9227858"><ele>324.0</ele><time>2026-05-03T17:06:16.098Z</time></trkpt><trkpt lat="44.8560404" lon="7.922957"><ele>324.0</ele><time>2026-05-03T17:06:17.098Z</time></trkpt><trkpt lat="44.8559998" lon="7.923119"><ele>324.6666666666667</ele><time>2026-05-03T17:06:18.098Z</time></trkpt><trkpt lat="44.8558769" lon="7.9233105"><ele>325.33333333333337</ele><time>2026-05-03T17:06:19.098Z</time></trkpt><trkpt lat="44.8557566" lon="7.9235116"><ele>326.0</ele><time>2026-05-03T17:06:20.097Z</time></trkpt><trkpt lat="44.8556267" lon="7.9236995"><ele>326.0</ele><time>2026-05-03T17:06:21.098Z</time></trkpt><trkpt lat="44.8555023" lon="7.9239093"><ele>326.0</ele><time>2026-05-03T17:06:22.098Z</time></trkpt><trkpt lat="44.855365" lon="7.9241144"><ele>326.0</ele><time>2026-05-03T17:06:23.098Z</time></trkpt><trkpt lat="44.8552341" lon="7.9243116"><ele>326.33333333333337</ele><time>2026-05-03T17:06:24.097Z</time></trkpt><trkpt lat="44.8551569" lon="7.9245271"><ele>326.6666666666667</ele><time>2026-05-03T17:06:25.098Z</time></trkpt><trkpt lat="44.8550537" lon="7.9247415"><ele>327.0</ele><time>2026-05-03T17:06:26.098Z</time></trkpt><trkpt lat="44.854934" lon="7.924882"><ele>327.0</ele><time>2026-05-03T17:06:27.098Z</time></trkpt><trkpt lat="44.8548147" lon="7.9250384"><ele>327.0</ele><time>2026-05-03T17:06:28.098Z</time></trkpt><trkpt lat="44.8546865" lon="7.9251695"><ele>327.0</ele><time>2026-05-03T17:06:29.098Z</time></trkpt><trkpt lat="44.8545422" lon="7.9253142"><ele>326.0</ele><time>2026-05-03T17:06:30.098Z</time></trkpt><trkpt lat="44.8543949" lon="7.9254888"><ele>325.0</ele><time>2026-05-03T17:06:31.098Z</time></trkpt><trkpt lat="44.8542483" lon="7.925658"><ele>324.0</ele><time>2026-05-03T17:06:32.097Z</time></trkpt><trkpt lat="44.8541085" lon="7.9258458"><ele>324.3333333333333</ele><time>2026-05-03T17:06:33.098Z</time></trkpt><trkpt lat="44.8540357" lon="7.9260817"><ele>324.66666666666663</ele><time>2026-05-03T17:06:34.098Z</time></trkpt><trkpt lat="44.8539511" lon="7.9263199"><ele>325.0</ele><time>2026-05-03T17:06:35.098Z</time></trkpt><trkpt lat="44.8538694" lon="7.9265541"><ele>325.3333333333333</ele><time>2026-05-03T17:06:36.098Z</time></trkpt><trkpt lat="44.8538332" lon="7.9267908"><ele>325.6666666666667</ele><time>2026-05-03T17:06:37.098Z</time></trkpt><trkpt lat="44.8537828" lon="7.9269991"><ele>326.0</ele><time>2026-05-03T17:06:38.098Z</time></trkpt><trkpt lat="44.8537346" lon="7.9272043"><ele>326.0</ele><time>2026-05-03T17:06:39.098Z</time></trkpt><trkpt lat="44.8536474" lon="7.9273511"><ele>326.0</ele><time>2026-05-03T17:06:40.098Z</time></trkpt><trkpt lat="44.8535582" lon="7.9274588"><ele>326.0</ele><time>2026-05-03T17:06:41.098Z</time></trkpt><trkpt lat="44.8534329" lon="7.9275605"><ele>326.0</ele><time>2026-05-03T17:06:42.098Z</time></trkpt><trkpt lat="44.8533324" lon="7.9276977"><ele>327.0</ele><time>2026-05-03T17:06:43.098Z</time></trkpt><trkpt lat="44.853253" lon="7.9278303"><ele>328.0</ele><time>2026-05-03T17:06:44.098Z</time></trkpt><trkpt lat="44.853177" lon="7.9280643"><ele>329.0</ele><time>2026-05-03T17:06:45.097Z</time></trkpt><trkpt lat="44.8531649" lon="7.9282962"><ele>330.0</ele><time>2026-05-03T17:06:46.097Z</time></trkpt><trkpt lat="44.8531918" lon="7.9285569"><ele>331.0</ele><time>2026-05-03T17:06:47.098Z</time></trkpt><trkpt lat="44.8531859" lon="7.9287932"><ele>332.0</ele><time>2026-05-03T17:06:48.098Z</time></trkpt><trkpt lat="44.8531638" lon="7.9290023"><ele>332.0</ele><time>2026-05-03T17:06:49.098Z</time></trkpt><trkpt lat="44.8531968" lon="7.9291989"><ele>332.0</ele><time>2026-05-03T17:06:50.098Z</time></trkpt><trkpt lat="44.8532134" lon="7.9293887"><ele>332.0</ele><time>2026-05-03T17:06:51.098Z</time></trkpt><trkpt lat="44.8532419" lon="7.9296074"><ele>332.0</ele><time>2026-05-03T17:06:52.098Z</time></trkpt><trkpt lat="44.8532829" lon="7.9297885"><ele>331.0</ele><time>2026-05-03T17:06:53.098Z</time></trkpt><trkpt lat="44.8533692" lon="7.929943"><ele>330.0</ele><time>2026-05-03T17:06:54.098Z</time></trkpt><trkpt lat="44.8535119" lon="7.9300664"><ele>329.0</ele><time>2026-05-03T17:06:55.098Z</time></trkpt><trkpt lat="44.8537012" lon="7.9301902"><ele>328.5</ele><time>2026-05-03T17:06:56.097Z</time></trkpt><trkpt lat="44.8538892" lon="7.9303166"><ele>328.0</ele><time>2026-05-03T17:06:57.097Z</time></trkpt><trkpt lat="44.8541621" lon="7.9304976"><ele>328.5</ele><time>2026-05-03T17:06:58.097Z</time></trkpt><trkpt lat="44.8544002" lon="7.9306469"><ele>329.0</ele><time>2026-05-03T17:06:59.098Z</time></trkpt><trkpt lat="44.8546312" lon="7.9307957"><ele>329.33333333333337</ele><time>2026-05-03T17:07:00.098Z</time></trkpt><trkpt lat="44.8548288" lon="7.9309419"><ele>329.6666666666667</ele><time>2026-05-03T17:07:01.098Z</time></trkpt><trkpt lat="44.8550203" lon="7.9310878"><ele>330.0</ele><time>2026-05-03T17:07:02.097Z</time></trkpt><trkpt lat="44.8551903" lon="7.9312381"><ele>330.0</ele><time>2026-05-03T17:07:03.098Z</time></trkpt><trkpt lat="44.8553858" lon="7.9313842"><ele>330.0</ele><time>2026-05-03T17:07:04.098Z</time></trkpt><trkpt lat="44.8555622" lon="7.9315256"><ele>330.0</ele><time>2026-05-03T17:07:05.098Z</time></trkpt><trkpt lat="44.8557232" lon="7.931664"><ele>328.3333333333333</ele><time>2026-05-03T17:07:06.098Z</time></trkpt><trkpt lat="44.855879" lon="7.9317926"><ele>326.66666666666663</ele><time>2026-05-03T17:07:07.098Z</time></trkpt><trkpt lat="44.8560261" lon="7.9319161"><ele>325.0</ele><time>2026-05-03T17:07:08.098Z</time></trkpt><trkpt lat="44.8561753" lon="7.9320384"><ele>324.3333333333333</ele><time>2026-05-03T17:07:09.097Z</time></trkpt><trkpt lat="44.8563444" lon="7.9321436"><ele>323.6666666666667</ele><time>2026-05-03T17:07:10.098Z</time></trkpt><trkpt lat="44.8565198" lon="7.9322164"><ele>323.0</ele><time>2026-05-03T17:07:11.098Z</time></trkpt><trkpt lat="44.856697" lon="7.9323039"><ele>325.5</ele><time>2026-05-03T17:07:12.098Z</time></trkpt><trkpt lat="44.8569479" lon="7.9323832"><ele>328.0</ele><time>2026-05-03T17:07:13.098Z</time></trkpt><trkpt lat="44.8571594" lon="7.9324706"><ele>328.0</ele><time>2026-05-03T17:07:14.097Z</time></trkpt><trkpt lat="44.8573619" lon="7.932554"><ele>328.0</ele><time>2026-05-03T17:07:15.098Z</time></trkpt><trkpt lat="44.8575481" lon="7.9326045"><ele>328.0</ele><time>2026-05-03T17:07:16.097Z</time></trkpt><trkpt lat="44.857735" lon="7.9326667"><ele>326.0</ele><time>2026-05-03T17:07:17.098Z</time></trkpt><trkpt lat="44.8578962" lon="7.9327267"><ele>324.0</ele><time>2026-05-03T17:07:18.098Z</time></trkpt><trkpt lat="44.8580619" lon="7.9327855"><ele>322.0</ele><time>2026-05-03T17:07:19.098Z</time></trkpt><trkpt lat="44.8582145" lon="7.9328402"><ele>322.0</ele><time>2026-05-03T17:07:20.098Z</time></trkpt><trkpt lat="44.8583517" lon="7.9329425"><ele>322.0</ele><time>2026-05-03T17:07:21.098Z</time></trkpt><trkpt lat="44.8584214" lon="7.9330829"><ele>322.0</ele><time>2026-05-03T17:07:22.098Z</time></trkpt><trkpt lat="44.8585293" lon="7.9331981"><ele>322.0</ele><time>2026-05-03T17:07:23.097Z</time></trkpt><trkpt lat="44.8586396" lon="7.9333114"><ele>321.66666666666663</ele><time>2026-05-03T17:07:24.098Z</time></trkpt><trkpt lat="44.858764" lon="7.9334114"><ele>321.3333333333333</ele><time>2026-05-03T17:07:25.097Z</time></trkpt><trkpt lat="44.8589687" lon="7.9334507"><ele>321.0</ele><time>2026-05-03T17:07:26.098Z</time></trkpt><trkpt lat="44.8591528" lon="7.9335128"><ele>319.6666666666667</ele><time>2026-05-03T17:07:27.098Z</time></trkpt><trkpt lat="44.8593212" lon="7.9335664"><ele>318.33333333333337</ele><time>2026-05-03T17:07:28.098Z</time></trkpt><trkpt lat="44.8594972" lon="7.9336412"><ele>317.0</ele><time>2026-05-03T17:07:29.098Z</time></trkpt><trkpt lat="44.8596423" lon="7.9337104"><ele>317.0</ele><time>2026-05-03T17:07:30.098Z</time></trkpt><trkpt lat="44.8597738" lon="7.9337617"><ele>317.0</ele><time>2026-05-03T17:07:31.098Z</time></trkpt><trkpt lat="44.8599115" lon="7.9337727"><ele>317.0</ele><time>2026-05-03T17:07:32.098Z</time></trkpt><trkpt lat="44.8600314" lon="7.9338232"><ele>317.0</ele><time>2026-05-03T17:07:33.098Z</time></trkpt><trkpt lat="44.8601388" lon="7.93391"><ele>316.0</ele><time>2026-05-03T17:07:34.098Z</time></trkpt><trkpt lat="44.860189" lon="7.934062"><ele>315.0</ele><time>2026-05-03T17:07:35.097Z</time></trkpt><trkpt lat="44.8602279" lon="7.9342065"><ele>314.0</ele><time>2026-05-03T17:07:36.097Z</time></trkpt><trkpt lat="44.8602681" lon="7.9343226"><ele>313.0</ele><time>2026-05-03T17:07:37.098Z</time></trkpt><trkpt lat="44.8603233" lon="7.9344182"><ele>312.0</ele><time>2026-05-03T17:07:38.098Z</time></trkpt><trkpt lat="44.8603797" lon="7.9345206"><ele>310.4</ele><time>2026-05-03T17:07:39.098Z</time></trkpt><trkpt lat="44.8604365" lon="7.9345943"><ele>308.79999999999995</ele><time>2026-05-03T17:07:40.098Z</time></trkpt><trkpt lat="44.860591" lon="7.9346188"><ele>307.2</ele><time>2026-05-03T17:07:42.098Z</time></trkpt><trkpt lat="44.860699" lon="7.9345937"><ele>305.59999999999997</ele><time>2026-05-03T17:07:43.098Z</time></trkpt><trkpt lat="44.8607684" lon="7.9345073"><ele>304.0</ele><time>2026-05-03T17:07:44.097Z</time></trkpt><trkpt lat="44.8608505" lon="7.9343751"><ele>305.0</ele><time>2026-05-03T17:07:45.098Z</time></trkpt><trkpt lat="44.8610115" lon="7.9341268"><ele>306.0</ele><time>2026-05-03T17:07:46.098Z</time></trkpt><trkpt lat="44.8611591" lon="7.9340465"><ele>307.0</ele><time>2026-05-03T17:07:47.098Z</time></trkpt><trkpt lat="44.8612491" lon="7.9340873"><ele>305.66666666666663</ele><time>2026-05-03T17:07:48.098Z</time></trkpt><trkpt lat="44.8613294" lon="7.9342413"><ele>304.3333333333333</ele><time>2026-05-03T17:07:49.098Z</time></trkpt><trkpt lat="44.8614073" lon="7.9344466"><ele>303.0</ele><time>2026-05-03T17:07:50.097Z</time></trkpt><trkpt lat="44.8614855" lon="7.9346568"><ele>303.0</ele><time>2026-05-03T17:07:51.097Z</time></trkpt><trkpt lat="44.8615614" lon="7.9348992"><ele>303.0</ele><time>2026-05-03T17:07:52.098Z</time></trkpt><trkpt lat="44.8616517" lon="7.9351423"><ele>303.0</ele><time>2026-05-03T17:07:53.098Z</time></trkpt><trkpt lat="44.8617713" lon="7.9354267"><ele>300.6666666666667</ele><time>2026-05-03T17:07:54.098Z</time></trkpt><trkpt lat="44.8618786" lon="7.9356742"><ele>298.33333333333337</ele><time>2026-05-03T17:07:55.097Z</time></trkpt><trkpt lat="44.861993" lon="7.9359219"><ele>296.0</ele><time>2026-05-03T17:07:56.098Z</time></trkpt><trkpt lat="44.8620982" lon="7.9361968"><ele>295.0</ele><time>2026-05-03T17:07:57.098Z</time></trkpt><trkpt lat="44.8621929" lon="7.9364773"><ele>294.0</ele><time>2026-05-03T17:07:58.097Z</time></trkpt><trkpt lat="44.8622945" lon="7.936776"><ele>296.0</ele><time>2026-05-03T17:07:59.098Z</time></trkpt><trkpt lat="44.8623907" lon="7.9370719"><ele>298.0</ele><time>2026-05-03T17:08:00.098Z</time></trkpt><trkpt lat="44.8624941" lon="7.9373601"><ele>302.0</ele><time>2026-05-03T17:08:01.097Z</time></trkpt><trkpt lat="44.862588" lon="7.9376739"><ele>306.0</ele><time>2026-05-03T17:08:02.097Z</time></trkpt><trkpt lat="44.8626863" lon="7.9379511"><ele>305.0</ele><time>2026-05-03T17:08:03.098Z</time></trkpt><trkpt lat="44.862764" lon="7.9381911"><ele>304.0</ele><time>2026-05-03T17:08:04.098Z</time></trkpt><trkpt lat="44.8628513" lon="7.9384693"><ele>303.0</ele><time>2026-05-03T17:08:05.098Z</time></trkpt><trkpt lat="44.862903" lon="7.9386961"><ele>303.0</ele><time>2026-05-03T17:08:06.097Z</time></trkpt><trkpt lat="44.8629695" lon="7.9389328"><ele>303.0</ele><time>2026-05-03T17:08:07.098Z</time></trkpt><trkpt lat="44.8630336" lon="7.9390715"><ele>303.0</ele><time>2026-05-03T17:08:08.098Z</time></trkpt><trkpt lat="44.8631154" lon="7.9391907"><ele>303.0</ele><time>2026-05-03T17:08:09.098Z</time></trkpt><trkpt lat="44.8631965" lon="7.9393097"><ele>302.25</ele><time>2026-05-03T17:08:10.098Z</time></trkpt><trkpt lat="44.8633017" lon="7.9394073"><ele>301.5</ele><time>2026-05-03T17:08:11.098Z</time></trkpt><trkpt lat="44.8634046" lon="7.9394985"><ele>300.75</ele><time>2026-05-03T17:08:12.098Z</time></trkpt><trkpt lat="44.8635253" lon="7.9395726"><ele>300.0</ele><time>2026-05-03T17:08:13.098Z</time></trkpt><trkpt lat="44.8636487" lon="7.939667"><ele>300.0</ele><time>2026-05-03T17:08:14.097Z</time></trkpt><trkpt lat="44.8638259" lon="7.9397023"><ele>300.0</ele><time>2026-05-03T17:08:15.098Z</time></trkpt><trkpt lat="44.8639953" lon="7.9397239"><ele>300.0</ele><time>2026-05-03T17:08:16.098Z</time></trkpt><trkpt lat="44.8642156" lon="7.9396628"><ele>299.5</ele><time>2026-05-03T17:08:17.097Z</time></trkpt><trkpt lat="44.864386" lon="7.939655"><ele>299.0</ele><time>2026-05-03T17:08:18.097Z</time></trkpt><trkpt lat="44.8645004" lon="7.9396498"><ele>298.5</ele><time>2026-05-03T17:08:19.098Z</time></trkpt><trkpt lat="44.8646325" lon="7.9396723"><ele>298.0</ele><time>2026-05-03T17:08:20.098Z</time></trkpt><trkpt lat="44.8647539" lon="7.9397245"><ele>298.0</ele><time>2026-05-03T17:08:21.098Z</time></trkpt><trkpt lat="44.8648618" lon="7.9398158"><ele>298.0</ele><time>2026-05-03T17:08:22.097Z</time></trkpt><trkpt lat="44.8649602" lon="7.9399163"><ele>298.0</ele><time>2026-05-03T17:08:23.098Z</time></trkpt><trkpt lat="44.8650542" lon="7.9400178"><ele>298.0</ele><time>2026-05-03T17:08:24.098Z</time></trkpt><trkpt lat="44.8651189" lon="7.9401812"><ele>301.0</ele><time>2026-05-03T17:08:25.098Z</time></trkpt><trkpt lat="44.8651737" lon="7.9404007"><ele>304.0</ele><time>2026-05-03T17:08:26.098Z</time></trkpt><trkpt lat="44.865241" lon="7.9406437"><ele>307.0</ele><time>2026-05-03T17:08:27.098Z</time></trkpt><trkpt lat="44.8653251" lon="7.9408537"><ele>307.0</ele><time>2026-05-03T17:08:28.098Z</time></trkpt><trkpt lat="44.865441" lon="7.9410197"><ele>307.0</ele><time>2026-05-03T17:08:29.098Z</time></trkpt><trkpt lat="44.8655972" lon="7.9411795"><ele>307.0</ele><time>2026-05-03T17:08:30.097Z</time></trkpt><trkpt lat="44.8657549" lon="7.9413521"><ele>307.0</ele><time>2026-05-03T17:08:31.098Z</time></trkpt><trkpt lat="44.8658888" lon="7.9415031"><ele>307.0</ele><time>2026-05-03T17:08:32.097Z</time></trkpt><trkpt lat="44.8659755" lon="7.9416463"><ele>307.0</ele><time>2026-05-03T17:08:33.098Z</time></trkpt><trkpt lat="44.8660769" lon="7.9418151"><ele>308.75</ele><time>2026-05-03T17:08:34.098Z</time></trkpt><trkpt lat="44.8661" lon="7.9419803"><ele>310.5</ele><time>2026-05-03T17:08:35.098Z</time></trkpt><trkpt lat="44.8661259" lon="7.942169"><ele>312.25</ele><time>2026-05-03T17:08:36.098Z</time></trkpt><trkpt lat="44.8661398" lon="7.942378"><ele>314.0</ele><time>2026-05-03T17:08:37.097Z</time></trkpt><trkpt lat="44.8661642" lon="7.9425863"><ele>315.0</ele><time>2026-05-03T17:08:38.098Z</time></trkpt><trkpt lat="44.866197" lon="7.9427927"><ele>316.0</ele><time>2026-05-03T17:08:39.097Z</time></trkpt><trkpt lat="44.8662407" lon="7.9429787"><ele>317.0</ele><time>2026-05-03T17:08:40.098Z</time></trkpt><trkpt lat="44.8662883" lon="7.9431565"><ele>318.0</ele><time>2026-05-03T17:08:41.098Z</time></trkpt><trkpt lat="44.8663369" lon="7.9433204"><ele>318.2</ele><time>2026-05-03T17:08:42.098Z</time></trkpt><trkpt lat="44.8663847" lon="7.9434677"><ele>318.4</ele><time>2026-05-03T17:08:43.098Z</time></trkpt><trkpt lat="44.8664367" lon="7.9436288"><ele>318.59999999999997</ele><time>2026-05-03T17:08:44.098Z</time></trkpt><trkpt lat="44.8664795" lon="7.94375"><ele>318.8</ele><time>2026-05-03T17:08:45.098Z</time></trkpt><trkpt lat="44.866512" lon="7.9438642"><ele>319.0</ele><time>2026-05-03T17:08:46.098Z</time></trkpt><trkpt lat="44.8665525" lon="7.9439965"><ele>319.0</ele><time>2026-05-03T17:08:47.098Z</time></trkpt><trkpt lat="44.8665709" lon="7.9440915"><ele>319.0</ele><time>2026-05-03T17:08:48.098Z</time></trkpt><trkpt lat="44.8665829" lon="7.9441943"><ele>319.0</ele><time>2026-05-03T17:08:49.098Z</time></trkpt><trkpt lat="44.8666242" lon="7.9443088"><ele>319.0</ele><time>2026-05-03T17:08:50.098Z</time></trkpt><trkpt lat="44.8666665" lon="7.9444204"><ele>319.0</ele><time>2026-05-03T17:08:51.098Z</time></trkpt><trkpt lat="44.8666948" lon="7.9445153"><ele>319.0</ele><time>2026-05-03T17:08:52.098Z</time></trkpt><trkpt lat="44.8667211" lon="7.9446133"><ele>319.2</ele><time>2026-05-03T17:08:53.098Z</time></trkpt><trkpt lat="44.8667591" lon="7.9447321"><ele>319.4</ele><time>2026-05-03T17:08:55.098Z</time></trkpt><trkpt lat="44.8668212" lon="7.944797"><ele>319.6</ele><time>2026-05-03T17:08:57.098Z</time></trkpt><trkpt lat="44.866887" lon="7.9448327"><ele>319.8</ele><time>2026-05-03T17:08:59.098Z</time></trkpt><trkpt lat="44.8670684" lon="7.9448827"><ele>320.0</ele><time>2026-05-03T17:09:01.098Z</time></trkpt><trkpt lat="44.8672002" lon="7.9448611"><ele>319.0</ele><time>2026-05-03T17:09:02.098Z</time></trkpt><trkpt lat="44.8673134" lon="7.9448701"><ele>318.0</ele><time>2026-05-03T17:09:03.098Z</time></trkpt><trkpt lat="44.8674891" lon="7.9448368"><ele>317.0</ele><time>2026-05-03T17:09:04.098Z</time></trkpt><trkpt lat="44.8676329" lon="7.9448363"><ele>316.0</ele><time>2026-05-03T17:09:05.098Z</time></trkpt><trkpt lat="44.867763" lon="7.9448234"><ele>315.5</ele><time>2026-05-03T17:09:06.097Z</time></trkpt><trkpt lat="44.8678535" lon="7.9448123"><ele>315.0</ele><time>2026-05-03T17:09:07.098Z</time></trkpt><trkpt lat="44.8679494" lon="7.9447848"><ele>314.5</ele><time>2026-05-03T17:09:08.098Z</time></trkpt><trkpt lat="44.8680765" lon="7.9447453"><ele>314.0</ele><time>2026-05-03T17:09:09.098Z</time></trkpt><trkpt lat="44.868211" lon="7.9446889"><ele>314.0</ele><time>2026-05-03T17:09:10.098Z</time></trkpt><trkpt lat="44.8683459" lon="7.9446483"><ele>314.0</ele><time>2026-05-03T17:09:11.098Z</time></trkpt><trkpt lat="44.8684745" lon="7.9446014"><ele>314.0</ele><time>2026-05-03T17:09:12.097Z</time></trkpt><trkpt lat="44.8685886" lon="7.9445373"><ele>314.0</ele><time>2026-05-03T17:09:13.098Z</time></trkpt><trkpt lat="44.8687097" lon="7.94448"><ele>314.0</ele><time>2026-05-03T17:09:14.097Z</time></trkpt><trkpt lat="44.8688474" lon="7.9444063"><ele>314.0</ele><time>2026-05-03T17:09:15.098Z</time></trkpt><trkpt lat="44.8689809" lon="7.9442828"><ele>314.0</ele><time>2026-05-03T17:09:16.097Z</time></trkpt><trkpt lat="44.8690742" lon="7.9441987"><ele>314.0</ele><time>2026-05-03T17:09:17.098Z</time></trkpt><trkpt lat="44.8691712" lon="7.9440871"><ele>314.0</ele><time>2026-05-03T17:09:18.098Z</time></trkpt><trkpt lat="44.8692552" lon="7.9439887"><ele>314.0</ele><time>2026-05-03T17:09:19.098Z</time></trkpt><trkpt lat="44.8693386" lon="7.9439006"><ele>314.0</ele><time>2026-05-03T17:09:20.098Z</time></trkpt><trkpt lat="44.8694224" lon="7.9438299"><ele>314.0</ele><time>2026-05-03T17:09:21.098Z</time></trkpt><trkpt lat="44.8695165" lon="7.9437608"><ele>314.0</ele><time>2026-05-03T17:09:22.098Z</time></trkpt><trkpt lat="44.8696064" lon="7.9437217"><ele>313.2</ele><time>2026-05-03T17:09:23.098Z</time></trkpt><trkpt lat="44.8696902" lon="7.9437397"><ele>312.4</ele><time>2026-05-03T17:09:24.098Z</time></trkpt><trkpt lat="44.8697749" lon="7.9438559"><ele>311.6</ele><time>2026-05-03T17:09:25.098Z</time></trkpt><trkpt lat="44.8698593" lon="7.9439648"><ele>310.8</ele><time>2026-05-03T17:09:26.098Z</time></trkpt><trkpt lat="44.8699361" lon="7.9440786"><ele>310.0</ele><time>2026-05-03T17:09:27.097Z</time></trkpt><trkpt lat="44.8699976" lon="7.9442207"><ele>310.0</ele><time>2026-05-03T17:09:28.097Z</time></trkpt><trkpt lat="44.8700462" lon="7.944399"><ele>310.0</ele><time>2026-05-03T17:09:29.098Z</time></trkpt><trkpt lat="44.8700948" lon="7.9445474"><ele>310.0</ele><time>2026-05-03T17:09:30.098Z</time></trkpt><trkpt lat="44.8701451" lon="7.9446789"><ele>310.0</ele><time>2026-05-03T17:09:31.098Z</time></trkpt><trkpt lat="44.8702175" lon="7.9448114"><ele>310.0</ele><time>2026-05-03T17:09:32.098Z</time></trkpt><trkpt lat="44.8703051" lon="7.9449084"><ele>310.0</ele><time>2026-05-03T17:09:33.097Z</time></trkpt><trkpt lat="44.8704354" lon="7.9449873"><ele>310.0</ele><time>2026-05-03T17:09:34.097Z</time></trkpt><trkpt lat="44.8705346" lon="7.9450707"><ele>310.0</ele><time>2026-05-03T17:09:35.098Z</time></trkpt><trkpt lat="44.8706645" lon="7.9451531"><ele>310.0</ele><time>2026-05-03T17:09:36.097Z</time></trkpt><trkpt lat="44.8707868" lon="7.9452416"><ele>310.0</ele><time>2026-05-03T17:09:37.098Z</time></trkpt><trkpt lat="44.8709085" lon="7.9452927"><ele>310.0</ele><time>2026-05-03T17:09:38.098Z</time></trkpt><trkpt lat="44.8710369" lon="7.9453319"><ele>310.0</ele><time>2026-05-03T17:09:39.098Z</time></trkpt><trkpt lat="44.8711701" lon="7.9453527"><ele>309.0</ele><time>2026-05-03T17:09:40.098Z</time></trkpt><trkpt lat="44.8712967" lon="7.9453388"><ele>308.0</ele><time>2026-05-03T17:09:41.098Z</time></trkpt><trkpt lat="44.8714253" lon="7.9453279"><ele>307.0</ele><time>2026-05-03T17:09:42.098Z</time></trkpt><trkpt lat="44.8715381" lon="7.9452588"><ele>306.0</ele><time>2026-05-03T17:09:43.098Z</time></trkpt><trkpt lat="44.8716523" lon="7.9451985"><ele>306.0</ele><time>2026-05-03T17:09:44.098Z</time></trkpt><trkpt lat="44.8717686" lon="7.9451291"><ele>306.0</ele><time>2026-05-03T17:09:45.098Z</time></trkpt><trkpt lat="44.8718691" lon="7.9450809"><ele>306.0</ele><time>2026-05-03T17:09:46.098Z</time></trkpt><trkpt lat="44.8719751" lon="7.9450174"><ele>306.0</ele><time>2026-05-03T17:09:47.098Z</time></trkpt><trkpt lat="44.8720803" lon="7.9449859"><ele>306.0</ele><time>2026-05-03T17:09:48.097Z</time></trkpt><trkpt lat="44.8721858" lon="7.9449343"><ele>306.0</ele><time>2026-05-03T17:09:49.098Z</time></trkpt><trkpt lat="44.8722866" lon="7.9449053"><ele>306.0</ele><time>2026-05-03T17:09:50.098Z</time></trkpt><trkpt lat="44.8724264" lon="7.9448285"><ele>306.0</ele><time>2026-05-03T17:09:51.098Z</time></trkpt><trkpt lat="44.8726202" lon="7.9447435"><ele>306.0</ele><time>2026-05-03T17:09:52.098Z</time></trkpt><trkpt lat="44.8727854" lon="7.9447171"><ele>306.0</ele><time>2026-05-03T17:09:53.098Z</time></trkpt><trkpt lat="44.8729608" lon="7.9447065"><ele>306.0</ele><time>2026-05-03T17:09:54.098Z</time></trkpt><trkpt lat="44.8731136" lon="7.9447103"><ele>306.0</ele><time>2026-05-03T17:09:55.097Z</time></trkpt><trkpt lat="44.8732536" lon="7.944718"><ele>306.0</ele><time>2026-05-03T17:09:56.098Z</time></trkpt><trkpt lat="44.8734018" lon="7.9447321"><ele>306.0</ele><time>2026-05-03T17:09:57.098Z</time></trkpt><trkpt lat="44.8735402" lon="7.9447635"><ele>306.0</ele><time>2026-05-03T17:09:58.098Z</time></trkpt><trkpt lat="44.8736695" lon="7.9448262"><ele>305.75</ele><time>2026-05-03T17:09:59.098Z</time></trkpt><trkpt lat="44.8738073" lon="7.9448905"><ele>305.5</ele><time>2026-05-03T17:10:00.098Z</time></trkpt><trkpt lat="44.8739573" lon="7.9449444"><ele>305.25</ele><time>2026-05-03T17:10:01.097Z</time></trkpt><trkpt lat="44.8740958" lon="7.9449947"><ele>305.0</ele><time>2026-05-03T17:10:02.097Z</time></trkpt><trkpt lat="44.8742498" lon="7.9450285"><ele>305.0</ele><time>2026-05-03T17:10:03.098Z</time></trkpt><trkpt lat="44.874398" lon="7.9450602"><ele>305.0</ele><time>2026-05-03T17:10:04.098Z</time></trkpt><trkpt lat="44.8745523" lon="7.9450667"><ele>305.0</ele><time>2026-05-03T17:10:05.097Z</time></trkpt><trkpt lat="44.8747078" lon="7.9450656"><ele>305.0</ele><time>2026-05-03T17:10:06.098Z</time></trkpt><trkpt lat="44.8748618" lon="7.945076"><ele>305.0</ele><time>2026-05-03T17:10:07.098Z</time></trkpt><trkpt lat="44.8750043" lon="7.9450812"><ele>305.0</ele><time>2026-05-03T17:10:08.097Z</time></trkpt><trkpt lat="44.8751705" lon="7.9450612"><ele>304.0</ele><time>2026-05-03T17:10:09.097Z</time></trkpt><trkpt lat="44.8753402" lon="7.9450132"><ele>303.0</ele><time>2026-05-03T17:10:10.098Z</time></trkpt><trkpt lat="44.8755032" lon="7.9449395"><ele>302.0</ele><time>2026-05-03T17:10:11.098Z</time></trkpt><trkpt lat="44.8756668" lon="7.9448483"><ele>302.0</ele><time>2026-05-03T17:10:12.098Z</time></trkpt><trkpt lat="44.8758341" lon="7.9447555"><ele>302.0</ele><time>2026-05-03T17:10:13.098Z</time></trkpt><trkpt lat="44.8760027" lon="7.9446832"><ele>302.0</ele><time>2026-05-03T17:10:14.098Z</time></trkpt><trkpt lat="44.8761905" lon="7.9446249"><ele>301.6666666666667</ele><time>2026-05-03T17:10:15.097Z</time></trkpt><trkpt lat="44.8763853" lon="7.9445689"><ele>301.3333333333333</ele><time>2026-05-03T17:10:16.098Z</time></trkpt><trkpt lat="44.8765768" lon="7.9445083"><ele>301.0</ele><time>2026-05-03T17:10:17.098Z</time></trkpt><trkpt lat="44.8767699" lon="7.9444624"><ele>300.66666666666663</ele><time>2026-05-03T17:10:18.098Z</time></trkpt><trkpt lat="44.8769679" lon="7.9444064"><ele>300.3333333333333</ele><time>2026-05-03T17:10:19.098Z</time></trkpt><trkpt lat="44.877151" lon="7.9443668"><ele>300.0</ele><time>2026-05-03T17:10:20.098Z</time></trkpt><trkpt lat="44.8773381" lon="7.944331"><ele>300.0</ele><time>2026-05-03T17:10:21.098Z</time></trkpt><trkpt lat="44.8775373" lon="7.9442955"><ele>300.0</ele><time>2026-05-03T17:10:22.098Z</time></trkpt><trkpt lat="44.8777431" lon="7.9442621"><ele>300.0</ele><time>2026-05-03T17:10:23.098Z</time></trkpt><trkpt lat="44.8779539" lon="7.9442238"><ele>299.3333333333333</ele><time>2026-05-03T17:10:24.098Z</time></trkpt><trkpt lat="44.8781441" lon="7.9442036"><ele>298.66666666666663</ele><time>2026-05-03T17:10:25.098Z</time></trkpt><trkpt lat="44.8783418" lon="7.9441587"><ele>298.0</ele><time>2026-05-03T17:10:26.098Z</time></trkpt><trkpt lat="44.8785319" lon="7.9440992"><ele>296.3333333333333</ele><time>2026-05-03T17:10:27.098Z</time></trkpt><trkpt lat="44.8787187" lon="7.9440378"><ele>294.6666666666667</ele><time>2026-05-03T17:10:28.098Z</time></trkpt><trkpt lat="44.8788919" lon="7.9439735"><ele>293.0</ele><time>2026-05-03T17:10:29.098Z</time></trkpt><trkpt lat="44.8790766" lon="7.94391"><ele>293.0</ele><time>2026-05-03T17:10:30.098Z</time></trkpt><trkpt lat="44.8792368" lon="7.9438988"><ele>293.0</ele><time>2026-05-03T17:10:31.098Z</time></trkpt><trkpt lat="44.8794113" lon="7.9439167"><ele>293.0</ele><time>2026-05-03T17:10:32.098Z</time></trkpt><trkpt lat="44.8796132" lon="7.9439424"><ele>293.0</ele><time>2026-05-03T17:10:33.097Z</time></trkpt><trkpt lat="44.8797787" lon="7.9440297"><ele>293.0</ele><time>2026-05-03T17:10:34.098Z</time></trkpt><trkpt lat="44.8799473" lon="7.9440938"><ele>293.0</ele><time>2026-05-03T17:10:35.098Z</time></trkpt><trkpt lat="44.8801094" lon="7.9441784"><ele>293.0</ele><time>2026-05-03T17:10:36.098Z</time></trkpt><trkpt lat="44.8802647" lon="7.9442882"><ele>293.0</ele><time>2026-05-03T17:10:37.098Z</time></trkpt><trkpt lat="44.8804284" lon="7.9444004"><ele>293.0</ele><time>2026-05-03T17:10:38.098Z</time></trkpt><trkpt lat="44.8805702" lon="7.9445864"><ele>293.0</ele><time>2026-05-03T17:10:39.098Z</time></trkpt><trkpt lat="44.8807126" lon="7.9447662"><ele>293.0</ele><time>2026-05-03T17:10:40.098Z</time></trkpt><trkpt lat="44.8808404" lon="7.9449525"><ele>293.0</ele><time>2026-05-03T17:10:41.098Z</time></trkpt><trkpt lat="44.8809683" lon="7.9451437"><ele>292.33333333333337</ele><time>2026-05-03T17:10:42.098Z</time></trkpt><trkpt lat="44.8810848" lon="7.9453165"><ele>291.6666666666667</ele><time>2026-05-03T17:10:43.098Z</time></trkpt><trkpt lat="44.8812042" lon="7.9454495"><ele>291.0</ele><time>2026-05-03T17:10:44.097Z</time></trkpt><trkpt lat="44.8813432" lon="7.9455665"><ele>291.0</ele><time>2026-05-03T17:10:45.098Z</time></trkpt><trkpt lat="44.8814713" lon="7.9456774"><ele>291.0</ele><time>2026-05-03T17:10:46.097Z</time></trkpt><trkpt lat="44.8816509" lon="7.945768"><ele>291.0</ele><time>2026-05-03T17:10:47.098Z</time></trkpt><trkpt lat="44.8818615" lon="7.9458454"><ele>289.3333333333333</ele><time>2026-05-03T17:10:48.098Z</time></trkpt><trkpt lat="44.88204" lon="7.9459259"><ele>287.66666666666663</ele><time>2026-05-03T17:10:49.098Z</time></trkpt><trkpt lat="44.8821839" lon="7.9460164"><ele>286.0</ele><time>2026-05-03T17:10:50.098Z</time></trkpt><trkpt lat="44.8823515" lon="7.9461019"><ele>286.0</ele><time>2026-05-03T17:10:51.098Z</time></trkpt><trkpt lat="44.8824972" lon="7.9461767"><ele>286.0</ele><time>2026-05-03T17:10:52.098Z</time></trkpt><trkpt lat="44.8826435" lon="7.9462558"><ele>286.0</ele><time>2026-05-03T17:10:53.098Z</time></trkpt><trkpt lat="44.8827926" lon="7.9463342"><ele>286.25</ele><time>2026-05-03T17:10:54.097Z</time></trkpt><trkpt lat="44.8829045" lon="7.9464339"><ele>286.5</ele><time>2026-05-03T17:10:55.098Z</time></trkpt><trkpt lat="44.8830179" lon="7.9465571"><ele>286.75</ele><time>2026-05-03T17:10:56.098Z</time></trkpt><trkpt lat="44.8831108" lon="7.9467149"><ele>287.0</ele><time>2026-05-03T17:10:57.098Z</time></trkpt><trkpt lat="44.8831979" lon="7.9468692"><ele>286.0</ele><time>2026-05-03T17:10:58.098Z</time></trkpt><trkpt lat="44.8832377" lon="7.9471016"><ele>285.0</ele><time>2026-05-03T17:10:59.098Z</time></trkpt><trkpt lat="44.8832725" lon="7.9473224"><ele>284.0</ele><time>2026-05-03T17:11:00.098Z</time></trkpt><trkpt lat="44.8832751" lon="7.9475547"><ele>283.33333333333337</ele><time>2026-05-03T17:11:01.098Z</time></trkpt><trkpt lat="44.8832977" lon="7.9478272"><ele>282.6666666666667</ele><time>2026-05-03T17:11:02.098Z</time></trkpt><trkpt lat="44.8833037" lon="7.9480794"><ele>282.0</ele><time>2026-05-03T17:11:03.098Z</time></trkpt><trkpt lat="44.8833074" lon="7.9483165"><ele>280.75</ele><time>2026-05-03T17:11:04.098Z</time></trkpt><trkpt lat="44.8833248" lon="7.9485427"><ele>279.5</ele><time>2026-05-03T17:11:05.097Z</time></trkpt><trkpt lat="44.8833321" lon="7.9487606"><ele>278.25</ele><time>2026-05-03T17:11:06.097Z</time></trkpt><trkpt lat="44.8833588" lon="7.948915"><ele>277.0</ele><time>2026-05-03T17:11:07.098Z</time></trkpt><trkpt lat="44.8833935" lon="7.9490412"><ele>276.4</ele><time>2026-05-03T17:11:08.098Z</time></trkpt><trkpt lat="44.8834485" lon="7.9491318"><ele>275.79999999999995</ele><time>2026-05-03T17:11:09.098Z</time></trkpt><trkpt lat="44.8835417" lon="7.9492051"><ele>275.2</ele><time>2026-05-03T17:11:10.098Z</time></trkpt><trkpt lat="44.8836748" lon="7.949171"><ele>274.59999999999997</ele><time>2026-05-03T17:11:11.098Z</time></trkpt><trkpt lat="44.8837909" lon="7.9491345"><ele>274.0</ele><time>2026-05-03T17:11:12.098Z</time></trkpt><trkpt lat="44.8839811" lon="7.9488925"><ele>274.0</ele><time>2026-05-03T17:11:13.098Z</time></trkpt><trkpt lat="44.8841363" lon="7.9487468"><ele>274.0</ele><time>2026-05-03T17:11:14.098Z</time></trkpt><trkpt lat="44.8842906" lon="7.948646"><ele>274.0</ele><time>2026-05-03T17:11:15.098Z</time></trkpt><trkpt lat="44.8844205" lon="7.9484904"><ele>274.3333333333333</ele><time>2026-05-03T17:11:16.098Z</time></trkpt><trkpt lat="44.884551" lon="7.948397"><ele>274.6666666666667</ele><time>2026-05-03T17:11:17.098Z</time></trkpt><trkpt lat="44.8847166" lon="7.9483081"><ele>275.0</ele><time>2026-05-03T17:11:18.097Z</time></trkpt><trkpt lat="44.884876" lon="7.9482437"><ele>275.0</ele><time>2026-05-03T17:11:19.097Z</time></trkpt><trkpt lat="44.8850512" lon="7.9482168"><ele>275.0</ele><time>2026-05-03T17:11:20.098Z</time></trkpt><trkpt lat="44.8852108" lon="7.9481942"><ele>275.0</ele><time>2026-05-03T17:11:21.097Z</time></trkpt><trkpt lat="44.8853544" lon="7.9481724"><ele>274.0</ele><time>2026-05-03T17:11:22.098Z</time></trkpt><trkpt lat="44.8855035" lon="7.9481749"><ele>273.0</ele><time>2026-05-03T17:11:23.098Z</time></trkpt><trkpt lat="44.8856611" lon="7.9482062"><ele>272.0</ele><time>2026-05-03T17:11:24.098Z</time></trkpt><trkpt lat="44.8858152" lon="7.9482883"><ele>273.0</ele><time>2026-05-03T17:11:25.097Z</time></trkpt><trkpt lat="44.8859565" lon="7.9484093"><ele>274.0</ele><time>2026-05-03T17:11:26.098Z</time></trkpt><trkpt lat="44.886107" lon="7.9485545"><ele>275.0</ele><time>2026-05-03T17:11:27.098Z</time></trkpt><trkpt lat="44.8862595" lon="7.9487105"><ele>275.0</ele><time>2026-05-03T17:11:28.098Z</time></trkpt><trkpt lat="44.8864098" lon="7.9488791"><ele>275.0</ele><time>2026-05-03T17:11:29.098Z</time></trkpt><trkpt lat="44.8865682" lon="7.9490524"><ele>275.0</ele><time>2026-05-03T17:11:30.098Z</time></trkpt><trkpt lat="44.8867212" lon="7.9492131"><ele>277.6666666666667</ele><time>2026-05-03T17:11:31.098Z</time></trkpt><trkpt lat="44.8868746" lon="7.9493574"><ele>280.3333333333333</ele><time>2026-05-03T17:11:32.098Z</time></trkpt><trkpt lat="44.8870564" lon="7.9494906"><ele>283.0</ele><time>2026-05-03T17:11:33.097Z</time></trkpt><trkpt lat="44.8871997" lon="7.9495971"><ele>283.0</ele><time>2026-05-03T17:11:34.098Z</time></trkpt><trkpt lat="44.88725" lon="7.9497032"><ele>283.0</ele><time>2026-05-03T17:11:35.098Z</time></trkpt><trkpt lat="44.8873496" lon="7.9497878"><ele>283.0</ele><time>2026-05-03T17:11:36.098Z</time></trkpt><trkpt lat="44.887454" lon="7.9498447"><ele>283.0</ele><time>2026-05-03T17:11:37.098Z</time></trkpt><trkpt lat="44.8875482" lon="7.9498607"><ele>283.0</ele><time>2026-05-03T17:11:38.098Z</time></trkpt><trkpt lat="44.887646" lon="7.94985"><ele>283.5</ele><time>2026-05-03T17:11:39.098Z</time></trkpt><trkpt lat="44.8877377" lon="7.9497853"><ele>284.0</ele><time>2026-05-03T17:11:40.098Z</time></trkpt><trkpt lat="44.8878972" lon="7.94967"><ele>284.5</ele><time>2026-05-03T17:11:41.097Z</time></trkpt><trkpt lat="44.8879829" lon="7.9495979"><ele>285.0</ele><time>2026-05-03T17:11:42.098Z</time></trkpt><trkpt lat="44.8881549" lon="7.9494146"><ele>285.0</ele><time>2026-05-03T17:11:43.098Z</time></trkpt><trkpt lat="44.8882924" lon="7.949269"><ele>285.0</ele><time>2026-05-03T17:11:44.097Z</time></trkpt><trkpt lat="44.8883924" lon="7.9491023"><ele>285.0</ele><time>2026-05-03T17:11:45.098Z</time></trkpt><trkpt lat="44.8884968" lon="7.9489347"><ele>284.6666666666667</ele><time>2026-05-03T17:11:46.098Z</time></trkpt><trkpt lat="44.8885952" lon="7.9487653"><ele>284.33333333333337</ele><time>2026-05-03T17:11:47.098Z</time></trkpt><trkpt lat="44.8886728" lon="7.9485653"><ele>284.0</ele><time>2026-05-03T17:11:48.098Z</time></trkpt><trkpt lat="44.8887767" lon="7.9484004"><ele>283.75</ele><time>2026-05-03T17:11:49.097Z</time></trkpt><trkpt lat="44.8888617" lon="7.9482387"><ele>283.5</ele><time>2026-05-03T17:11:50.098Z</time></trkpt><trkpt lat="44.8889612" lon="7.948092"><ele>283.25</ele><time>2026-05-03T17:11:51.098Z</time></trkpt><trkpt lat="44.8890768" lon="7.9479461"><ele>283.0</ele><time>2026-05-03T17:11:52.098Z</time></trkpt><trkpt lat="44.8892035" lon="7.9478468"><ele>282.0</ele><time>2026-05-03T17:11:53.098Z</time></trkpt><trkpt lat="44.8893711" lon="7.9477945"><ele>281.0</ele><time>2026-05-03T17:11:54.097Z</time></trkpt><trkpt lat="44.8895177" lon="7.9479355"><ele>280.0</ele><time>2026-05-03T17:11:55.097Z</time></trkpt><trkpt lat="44.8896605" lon="7.9480292"><ele>280.0</ele><time>2026-05-03T17:11:56.098Z</time></trkpt><trkpt lat="44.8898147" lon="7.9481351"><ele>280.0</ele><time>2026-05-03T17:11:57.098Z</time></trkpt><trkpt lat="44.8899435" lon="7.9483049"><ele>280.0</ele><time>2026-05-03T17:11:58.098Z</time></trkpt><trkpt lat="44.8900549" lon="7.9485039"><ele>280.66666666666663</ele><time>2026-05-03T17:11:59.098Z</time></trkpt><trkpt lat="44.8901831" lon="7.9487307"><ele>281.3333333333333</ele><time>2026-05-03T17:12:00.098Z</time></trkpt><trkpt lat="44.8901987" lon="7.9490089"><ele>282.0</ele><time>2026-05-03T17:12:01.098Z</time></trkpt><trkpt lat="44.8902641" lon="7.9492343"><ele>282.0</ele><time>2026-05-03T17:12:02.098Z</time></trkpt><trkpt lat="44.8903311" lon="7.949457"><ele>282.0</ele><time>2026-05-03T17:12:03.098Z</time></trkpt><trkpt lat="44.8904192" lon="7.9496674"><ele>282.0</ele><time>2026-05-03T17:12:04.097Z</time></trkpt><trkpt lat="44.8905333" lon="7.9498724"><ele>282.0</ele><time>2026-05-03T17:12:05.098Z</time></trkpt><trkpt lat="44.8906565" lon="7.950072"><ele>282.0</ele><time>2026-05-03T17:12:06.098Z</time></trkpt><trkpt lat="44.8907926" lon="7.9502606"><ele>282.0</ele><time>2026-05-03T17:12:07.098Z</time></trkpt><trkpt lat="44.8909376" lon="7.9504369"><ele>281.6666666666667</ele><time>2026-05-03T17:12:08.097Z</time></trkpt><trkpt lat="44.8910917" lon="7.9506151"><ele>281.33333333333337</ele><time>2026-05-03T17:12:09.098Z</time></trkpt><trkpt lat="44.8912474" lon="7.9507911"><ele>281.0</ele><time>2026-05-03T17:12:10.098Z</time></trkpt><trkpt lat="44.8914045" lon="7.950964"><ele>280.33333333333337</ele><time>2026-05-03T17:12:11.097Z</time></trkpt><trkpt lat="44.8915639" lon="7.951132"><ele>279.6666666666667</ele><time>2026-05-03T17:12:12.098Z</time></trkpt><trkpt lat="44.891728" lon="7.9513107"><ele>279.0</ele><time>2026-05-03T17:12:13.098Z</time></trkpt><trkpt lat="44.8918951" lon="7.9514872"><ele>278.0</ele><time>2026-05-03T17:12:14.098Z</time></trkpt><trkpt lat="44.8920669" lon="7.9516583"><ele>277.0</ele><time>2026-05-03T17:12:15.098Z</time></trkpt><trkpt lat="44.8922308" lon="7.9518315"><ele>276.0</ele><time>2026-05-03T17:12:16.098Z</time></trkpt><trkpt lat="44.8923942" lon="7.9519951"><ele>275.0</ele><time>2026-05-03T17:12:17.097Z</time></trkpt><trkpt lat="44.8925575" lon="7.9521534"><ele>274.0</ele><time>2026-05-03T17:12:18.098Z</time></trkpt><trkpt lat="44.8927131" lon="7.952305"><ele>273.0</ele><time>2026-05-03T17:12:19.098Z</time></trkpt><trkpt lat="44.8928869" lon="7.9524567"><ele>272.6666666666667</ele><time>2026-05-03T17:12:20.098Z</time></trkpt><trkpt lat="44.8930163" lon="7.9526114"><ele>272.33333333333337</ele><time>2026-05-03T17:12:21.097Z</time></trkpt><trkpt lat="44.8931201" lon="7.9528012"><ele>272.0</ele><time>2026-05-03T17:12:22.098Z</time></trkpt><trkpt lat="44.8932262" lon="7.9530109"><ele>272.0</ele><time>2026-05-03T17:12:23.098Z</time></trkpt><trkpt lat="44.8933265" lon="7.9532495"><ele>272.0</ele><time>2026-05-03T17:12:24.097Z</time></trkpt><trkpt lat="44.8934364" lon="7.9534918"><ele>272.0</ele><time>2026-05-03T17:12:25.098Z</time></trkpt><trkpt lat="44.8935569" lon="7.9537325"><ele>272.6666666666667</ele><time>2026-05-03T17:12:26.098Z</time></trkpt><trkpt lat="44.8936701" lon="7.9539941"><ele>273.3333333333333</ele><time>2026-05-03T17:12:27.097Z</time></trkpt><trkpt lat="44.8937955" lon="7.9542528"><ele>274.0</ele><time>2026-05-03T17:12:28.098Z</time></trkpt><trkpt lat="44.8939141" lon="7.954529"><ele>275.0</ele><time>2026-05-03T17:12:29.098Z</time></trkpt><trkpt lat="44.89404" lon="7.9547917"><ele>276.0</ele><time>2026-05-03T17:12:30.098Z</time></trkpt><trkpt lat="44.8941689" lon="7.9550604"><ele>276.6666666666667</ele><time>2026-05-03T17:12:31.098Z</time></trkpt><trkpt lat="44.8942887" lon="7.9553227"><ele>277.33333333333337</ele><time>2026-05-03T17:12:32.098Z</time></trkpt><trkpt lat="44.8944059" lon="7.955564"><ele>278.0</ele><time>2026-05-03T17:12:33.098Z</time></trkpt><trkpt lat="44.8945241" lon="7.9557982"><ele>277.6666666666667</ele><time>2026-05-03T17:12:34.098Z</time></trkpt><trkpt lat="44.8946387" lon="7.9560326"><ele>277.3333333333333</ele><time>2026-05-03T17:12:35.098Z</time></trkpt><trkpt lat="44.8947474" lon="7.9562642"><ele>277.0</ele><time>2026-05-03T17:12:36.098Z</time></trkpt><trkpt lat="44.8948284" lon="7.9564542"><ele>277.0</ele><time>2026-05-03T17:12:37.098Z</time></trkpt><trkpt lat="44.8949182" lon="7.9566565"><ele>277.0</ele><time>2026-05-03T17:12:38.098Z</time></trkpt><trkpt lat="44.8949778" lon="7.9568402"><ele>277.0</ele><time>2026-05-03T17:12:39.098Z</time></trkpt><trkpt lat="44.8950576" lon="7.9570019"><ele>277.25</ele><time>2026-05-03T17:12:40.098Z</time></trkpt><trkpt lat="44.8951403" lon="7.9571633"><ele>277.5</ele><time>2026-05-03T17:12:41.097Z</time></trkpt><trkpt lat="44.8952322" lon="7.9573223"><ele>277.75</ele><time>2026-05-03T17:12:42.098Z</time></trkpt><trkpt lat="44.8953282" lon="7.957485"><ele>278.0</ele><time>2026-05-03T17:12:43.098Z</time></trkpt><trkpt lat="44.8954196" lon="7.9576615"><ele>278.0</ele><time>2026-05-03T17:12:44.098Z</time></trkpt><trkpt lat="44.8955188" lon="7.9577791"><ele>278.0</ele><time>2026-05-03T17:12:45.097Z</time></trkpt><trkpt lat="44.8956317" lon="7.9579179"><ele>278.0</ele><time>2026-05-03T17:12:46.098Z</time></trkpt><trkpt lat="44.8957331" lon="7.9580334"><ele>278.0</ele><time>2026-05-03T17:12:47.098Z</time></trkpt><trkpt lat="44.8958448" lon="7.9581288"><ele>278.25</ele><time>2026-05-03T17:12:48.098Z</time></trkpt><trkpt lat="44.8959545" lon="7.9582371"><ele>278.5</ele><time>2026-05-03T17:12:49.098Z</time></trkpt><trkpt lat="44.8960382" lon="7.9583805"><ele>278.75</ele><time>2026-05-03T17:12:50.098Z</time></trkpt><trkpt lat="44.8961007" lon="7.9585279"><ele>279.0</ele><time>2026-05-03T17:12:51.098Z</time></trkpt><trkpt lat="44.8961849" lon="7.9586744"><ele>278.25</ele><time>2026-05-03T17:12:52.098Z</time></trkpt><trkpt lat="44.8962831" lon="7.9588272"><ele>277.5</ele><time>2026-05-03T17:12:53.098Z</time></trkpt><trkpt lat="44.8963694" lon="7.9589843"><ele>276.75</ele><time>2026-05-03T17:12:54.098Z</time></trkpt><trkpt lat="44.8964568" lon="7.9591488"><ele>276.0</ele><time>2026-05-03T17:12:55.098Z</time></trkpt><trkpt lat="44.8965338" lon="7.95931"><ele>276.0</ele><time>2026-05-03T17:12:56.098Z</time></trkpt><trkpt lat="44.8966137" lon="7.9594787"><ele>276.0</ele><time>2026-05-03T17:12:57.098Z</time></trkpt><trkpt lat="44.8966903" lon="7.9596306"><ele>276.0</ele><time>2026-05-03T17:12:58.097Z</time></trkpt><trkpt lat="44.8967488" lon="7.9597545"><ele>276.0</ele><time>2026-05-03T17:12:59.098Z</time></trkpt><trkpt lat="44.896792" lon="7.959857"><ele>276.0</ele><time>2026-05-03T17:13:00.098Z</time></trkpt><trkpt lat="44.8968352" lon="7.959993"><ele>276.0</ele><time>2026-05-03T17:13:01.097Z</time></trkpt><trkpt lat="44.8968736" lon="7.9600848"><ele>276.0</ele><time>2026-05-03T17:13:03.098Z</time></trkpt><trkpt lat="44.8969144" lon="7.9601795"><ele>276.0</ele><time>2026-05-03T17:13:05.098Z</time></trkpt><trkpt lat="44.8969421" lon="7.9602833"><ele>276.0</ele><time>2026-05-03T17:13:07.098Z</time></trkpt><trkpt lat="44.8969579" lon="7.9603763"><ele>276.0</ele><time>2026-05-03T17:13:08.098Z</time></trkpt><trkpt lat="44.8969755" lon="7.9605217"><ele>275.40000000000003</ele><time>2026-05-03T17:13:09.098Z</time></trkpt><trkpt lat="44.8969996" lon="7.9606673"><ele>274.8</ele><time>2026-05-03T17:13:10.098Z</time></trkpt><trkpt lat="44.8970165" lon="7.9608117"><ele>274.20000000000005</ele><time>2026-05-03T17:13:11.098Z</time></trkpt><trkpt lat="44.8970332" lon="7.9609434"><ele>273.6</ele><time>2026-05-03T17:13:12.098Z</time></trkpt><trkpt lat="44.8970427" lon="7.961075"><ele>273.0</ele><time>2026-05-03T17:13:13.098Z</time></trkpt><trkpt lat="44.8970654" lon="7.9612237"><ele>273.0</ele><time>2026-05-03T17:13:14.098Z</time></trkpt><trkpt lat="44.8970709" lon="7.9613464"><ele>273.0</ele><time>2026-05-03T17:13:15.098Z</time></trkpt><trkpt lat="44.8970871" lon="7.9614735"><ele>273.0</ele><time>2026-05-03T17:13:16.098Z</time></trkpt><trkpt lat="44.8970939" lon="7.9616053"><ele>273.0</ele><time>2026-05-03T17:13:17.097Z</time></trkpt><trkpt lat="44.8971053" lon="7.9617197"><ele>273.0</ele><time>2026-05-03T17:13:18.098Z</time></trkpt><trkpt lat="44.8971136" lon="7.9618684"><ele>273.0</ele><time>2026-05-03T17:13:19.098Z</time></trkpt><trkpt lat="44.8971166" lon="7.961999"><ele>273.0</ele><time>2026-05-03T17:13:20.098Z</time></trkpt><trkpt lat="44.8971058" lon="7.9621606"><ele>273.0</ele><time>2026-05-03T17:13:21.098Z</time></trkpt><trkpt lat="44.8971011" lon="7.9623223"><ele>273.0</ele><time>2026-05-03T17:13:22.097Z</time></trkpt><trkpt lat="44.8970948" lon="7.9624795"><ele>273.0</ele><time>2026-05-03T17:13:23.098Z</time></trkpt><trkpt lat="44.8971025" lon="7.9626311"><ele>274.0</ele><time>2026-05-03T17:13:24.098Z</time></trkpt><trkpt lat="44.8970943" lon="7.9627856"><ele>275.0</ele><time>2026-05-03T17:13:25.097Z</time></trkpt><trkpt lat="44.8971014" lon="7.9629232"><ele>276.0</ele><time>2026-05-03T17:13:26.098Z</time></trkpt><trkpt lat="44.8971091" lon="7.9630446"><ele>277.0</ele><time>2026-05-03T17:13:27.098Z</time></trkpt><trkpt lat="44.8971732" lon="7.9631426"><ele>278.0</ele><time>2026-05-03T17:13:29.098Z</time></trkpt><trkpt lat="44.8972478" lon="7.9631801"><ele>278.0</ele><time>2026-05-03T17:13:31.098Z</time></trkpt><trkpt lat="44.8973208" lon="7.963187"><ele>278.0</ele><time>2026-05-03T17:13:33.098Z</time></trkpt><trkpt lat="44.8974351" lon="7.963219"><ele>278.0</ele><time>2026-05-03T17:13:34.098Z</time></trkpt><trkpt lat="44.8975086" lon="7.9632501"><ele>278.0</ele><time>2026-05-03T17:13:35.098Z</time></trkpt><trkpt lat="44.897596" lon="7.9632737"><ele>278.0</ele><time>2026-05-03T17:13:36.097Z</time></trkpt><trkpt lat="44.8976588" lon="7.9633196"><ele>278.0</ele><time>2026-05-03T17:13:37.098Z</time></trkpt><trkpt lat="44.8977147" lon="7.9633871"><ele>278.0</ele><time>2026-05-03T17:13:39.098Z</time></trkpt><trkpt lat="44.8976871" lon="7.9634701"><ele>278.0</ele><time>2026-05-03T17:13:42.098Z</time></trkpt><trkpt lat="44.8976158" lon="7.9635887"><ele>278.0</ele><time>2026-05-03T17:13:43.098Z</time></trkpt><trkpt lat="44.897552" lon="7.963654"><ele>278.0</ele><time>2026-05-03T17:13:44.098Z</time></trkpt><trkpt lat="44.8974716" lon="7.9637699"><ele>278.0</ele><time>2026-05-03T17:13:45.098Z</time></trkpt><trkpt lat="44.8974129" lon="7.963858"><ele>278.6</ele><time>2026-05-03T17:13:46.098Z</time></trkpt><trkpt lat="44.8973448" lon="7.9639502"><ele>279.20000000000005</ele><time>2026-05-03T17:13:47.098Z</time></trkpt><trkpt lat="44.8972823" lon="7.9640299"><ele>279.8</ele><time>2026-05-03T17:13:48.098Z</time></trkpt><trkpt lat="44.897212" lon="7.9640967"><ele>280.40000000000003</ele><time>2026-05-03T17:13:49.098Z</time></trkpt><trkpt lat="44.8971447" lon="7.9641513"><ele>281.0</ele><time>2026-05-03T17:13:50.098Z</time></trkpt><trkpt lat="44.8970988" lon="7.9643048"><ele>281.1666666666667</ele><time>2026-05-03T17:13:52.098Z</time></trkpt><trkpt lat="44.8971008" lon="7.964492"><ele>281.33333333333337</ele><time>2026-05-03T17:13:54.098Z</time></trkpt><trkpt lat="44.897097" lon="7.9645986"><ele>281.5</ele><time>2026-05-03T17:13:55.098Z</time></trkpt><trkpt lat="44.8970677" lon="7.9647167"><ele>281.6666666666667</ele><time>2026-05-03T17:13:56.097Z</time></trkpt><trkpt lat="44.8970782" lon="7.9648265"><ele>281.8333333333333</ele><time>2026-05-03T17:13:57.097Z</time></trkpt><trkpt lat="44.897101" lon="7.964921"><ele>282.0</ele><time>2026-05-03T17:13:58.098Z</time></trkpt><trkpt lat="44.8971264" lon="7.9650227"><ele>281.8333333333333</ele><time>2026-05-03T17:13:59.098Z</time></trkpt><trkpt lat="44.897169" lon="7.9651172"><ele>281.6666666666667</ele><time>2026-05-03T17:14:00.098Z</time></trkpt><trkpt lat="44.8971964" lon="7.9652365"><ele>281.5</ele><time>2026-05-03T17:14:01.098Z</time></trkpt><trkpt lat="44.8972196" lon="7.9653226"><ele>281.33333333333337</ele><time>2026-05-03T17:14:02.098Z</time></trkpt><trkpt lat="44.8972546" lon="7.9654317"><ele>281.1666666666667</ele><time>2026-05-03T17:14:03.098Z</time></trkpt><trkpt lat="44.8972909" lon="7.965534"><ele>281.0</ele><time>2026-05-03T17:14:04.098Z</time></trkpt><trkpt lat="44.8973094" lon="7.9656485"><ele>281.0</ele><time>2026-05-03T17:14:05.098Z</time></trkpt><trkpt lat="44.8973381" lon="7.9657801"><ele>281.0</ele><time>2026-05-03T17:14:06.097Z</time></trkpt><trkpt lat="44.8973566" lon="7.9658873"><ele>281.0</ele><time>2026-05-03T17:14:07.098Z</time></trkpt><trkpt lat="44.8973543" lon="7.9659968"><ele>281.0</ele><time>2026-05-03T17:14:08.098Z</time></trkpt><trkpt lat="44.8973452" lon="7.9661725"><ele>281.0</ele><time>2026-05-03T17:14:10.098Z</time></trkpt><trkpt lat="44.8973633" lon="7.9662849"><ele>281.0</ele><time>2026-05-03T17:14:11.098Z</time></trkpt><trkpt lat="44.8973625" lon="7.9664009"><ele>281.0</ele><time>2026-05-03T17:14:12.098Z</time></trkpt><trkpt lat="44.8973668" lon="7.9665106"><ele>281.0</ele><time>2026-05-03T17:14:13.097Z</time></trkpt><trkpt lat="44.8973691" lon="7.9666165"><ele>281.0</ele><time>2026-05-03T17:14:14.098Z</time></trkpt><trkpt lat="44.8973814" lon="7.9667938"><ele>281.0</ele><time>2026-05-03T17:14:16.098Z</time></trkpt><trkpt lat="44.8974639" lon="7.966874"><ele>280.2</ele><time>2026-05-03T17:14:19.098Z</time></trkpt><trkpt lat="44.8975872" lon="7.9669008"><ele>279.40000000000003</ele><time>2026-05-03T17:14:21.098Z</time></trkpt><trkpt lat="44.8976569" lon="7.9669091"><ele>278.6</ele><time>2026-05-03T17:14:22.098Z</time></trkpt><trkpt lat="44.8978032" lon="7.96692"><ele>277.8</ele><time>2026-05-03T17:14:24.098Z</time></trkpt><trkpt lat="44.8979058" lon="7.9669347"><ele>277.0</ele><time>2026-05-03T17:14:25.098Z</time></trkpt><trkpt lat="44.8979807" lon="7.966969"><ele>277.0</ele><time>2026-05-03T17:14:26.098Z</time></trkpt><trkpt lat="44.8980552" lon="7.9669969"><ele>277.0</ele><time>2026-05-03T17:14:27.098Z</time></trkpt><trkpt lat="44.898123" lon="7.967012"><ele>277.0</ele><time>2026-05-03T17:14:28.098Z</time></trkpt><trkpt lat="44.8981997" lon="7.9670247"><ele>277.0</ele><time>2026-05-03T17:14:29.097Z</time></trkpt><trkpt lat="44.8982727" lon="7.9670434"><ele>277.0</ele><time>2026-05-03T17:14:30.098Z</time></trkpt><trkpt lat="44.8983411" lon="7.9670597"><ele>277.0</ele><time>2026-05-03T17:14:32.098Z</time></trkpt><trkpt lat="44.8984235" lon="7.9669594"><ele>276.8</ele><time>2026-05-03T17:14:35.097Z</time></trkpt><trkpt lat="44.8984599" lon="7.9668795"><ele>276.6</ele><time>2026-05-03T17:14:36.098Z</time></trkpt><trkpt lat="44.8984782" lon="7.9667075"><ele>276.40000000000003</ele><time>2026-05-03T17:14:38.098Z</time></trkpt><trkpt lat="44.898504" lon="7.9665929"><ele>276.2</ele><time>2026-05-03T17:14:39.098Z</time></trkpt><trkpt lat="44.898547" lon="7.9664743"><ele>276.0</ele><time>2026-05-03T17:14:40.098Z</time></trkpt><trkpt lat="44.8985886" lon="7.9663629"><ele>276.0</ele><time>2026-05-03T17:14:41.098Z</time></trkpt><trkpt lat="44.8985641" lon="7.9662652"><ele>276.0</ele><time>2026-05-03T17:14:42.098Z</time></trkpt><trkpt lat="44.8986202" lon="7.9661289"><ele>276.0</ele><time>2026-05-03T17:14:43.098Z</time></trkpt><trkpt lat="44.8987118" lon="7.9659949"><ele>276.0</ele><time>2026-05-03T17:14:44.098Z</time></trkpt><trkpt lat="44.8987605" lon="7.965886"><ele>276.0</ele><time>2026-05-03T17:14:45.098Z</time></trkpt><trkpt lat="44.8988078" lon="7.9657693"><ele>277.0</ele><time>2026-05-03T17:14:46.098Z</time></trkpt><trkpt lat="44.8988739" lon="7.9656415"><ele>278.0</ele><time>2026-05-03T17:14:47.098Z</time></trkpt><trkpt lat="44.8989425" lon="7.9655041"><ele>279.0</ele><time>2026-05-03T17:14:48.098Z</time></trkpt><trkpt lat="44.8990036" lon="7.9653778"><ele>280.0</ele><time>2026-05-03T17:14:49.098Z</time></trkpt><trkpt lat="44.8990744" lon="7.9652353"><ele>280.0</ele><time>2026-05-03T17:14:50.097Z</time></trkpt><trkpt lat="44.8991357" lon="7.9651057"><ele>280.0</ele><time>2026-05-03T17:14:51.098Z</time></trkpt><trkpt lat="44.8992219" lon="7.9650242"><ele>280.0</ele><time>2026-05-03T17:14:52.098Z</time></trkpt><trkpt lat="44.8992987" lon="7.9649128"><ele>280.0</ele><time>2026-05-03T17:14:53.098Z</time></trkpt><trkpt lat="44.8993644" lon="7.9648121"><ele>280.0</ele><time>2026-05-03T17:14:54.098Z</time></trkpt><trkpt lat="44.8994354" lon="7.9647312"><ele>279.8</ele><time>2026-05-03T17:14:55.098Z</time></trkpt><trkpt lat="44.8995105" lon="7.9646506"><ele>279.6</ele><time>2026-05-03T17:14:56.098Z</time></trkpt><trkpt lat="44.8995852" lon="7.9646231"><ele>279.4</ele><time>2026-05-03T17:14:57.097Z</time></trkpt><trkpt lat="44.8996646" lon="7.9646373"><ele>279.2</ele><time>2026-05-03T17:14:58.098Z</time></trkpt><trkpt lat="44.8997597" lon="7.9646694"><ele>279.0</ele><time>2026-05-03T17:14:59.098Z</time></trkpt><trkpt lat="44.8998655" lon="7.9647025"><ele>279.0</ele><time>2026-05-03T17:15:00.098Z</time></trkpt><trkpt lat="44.899962" lon="7.9647581"><ele>279.0</ele><time>2026-05-03T17:15:01.098Z</time></trkpt><trkpt lat="44.9000563" lon="7.9648233"><ele>279.0</ele><time>2026-05-03T17:15:02.098Z</time></trkpt><trkpt lat="44.9001603" lon="7.9649004"><ele>279.0</ele><time>2026-05-03T17:15:03.098Z</time></trkpt><trkpt lat="44.9002698" lon="7.9649949"><ele>278.25</ele><time>2026-05-03T17:15:04.098Z</time></trkpt><trkpt lat="44.9003836" lon="7.9650726"><ele>277.5</ele><time>2026-05-03T17:15:05.098Z</time></trkpt><trkpt lat="44.9005017" lon="7.965166"><ele>276.75</ele><time>2026-05-03T17:15:06.098Z</time></trkpt><trkpt lat="44.9006184" lon="7.965275"><ele>276.0</ele><time>2026-05-03T17:15:07.098Z</time></trkpt><trkpt lat="44.9007406" lon="7.9653871"><ele>276.0</ele><time>2026-05-03T17:15:08.098Z</time></trkpt><trkpt lat="44.9008683" lon="7.9654904"><ele>276.0</ele><time>2026-05-03T17:15:09.098Z</time></trkpt><trkpt lat="44.9009894" lon="7.9655891"><ele>276.0</ele><time>2026-05-03T17:15:10.098Z</time></trkpt><trkpt lat="44.9011084" lon="7.9656986"><ele>276.0</ele><time>2026-05-03T17:15:11.098Z</time></trkpt><trkpt lat="44.9012309" lon="7.9658103"><ele>276.3333333333333</ele><time>2026-05-03T17:15:12.098Z</time></trkpt><trkpt lat="44.9013623" lon="7.9659064"><ele>276.66666666666663</ele><time>2026-05-03T17:15:13.097Z</time></trkpt><trkpt lat="44.9014944" lon="7.9660152"><ele>277.0</ele><time>2026-05-03T17:15:14.098Z</time></trkpt><trkpt lat="44.9016178" lon="7.9661439"><ele>277.0</ele><time>2026-05-03T17:15:15.098Z</time></trkpt><trkpt lat="44.901725" lon="7.9662619"><ele>277.0</ele><time>2026-05-03T17:15:16.098Z</time></trkpt><trkpt lat="44.9018408" lon="7.9663669"><ele>277.0</ele><time>2026-05-03T17:15:17.098Z</time></trkpt><trkpt lat="44.9019516" lon="7.9664711"><ele>277.0</ele><time>2026-05-03T17:15:18.098Z</time></trkpt><trkpt lat="44.9020594" lon="7.9665741"><ele>277.0</ele><time>2026-05-03T17:15:19.098Z</time></trkpt><trkpt lat="44.9021736" lon="7.9666649"><ele>277.0</ele><time>2026-05-03T17:15:20.097Z</time></trkpt><trkpt lat="44.902287" lon="7.9667723"><ele>277.0</ele><time>2026-05-03T17:15:21.098Z</time></trkpt><trkpt lat="44.9023954" lon="7.9668823"><ele>277.0</ele><time>2026-05-03T17:15:22.098Z</time></trkpt><trkpt lat="44.9025003" lon="7.9669864"><ele>277.0</ele><time>2026-05-03T17:15:23.098Z</time></trkpt><trkpt lat="44.9025973" lon="7.9670905"><ele>277.0</ele><time>2026-05-03T17:15:24.098Z</time></trkpt><trkpt lat="44.9027015" lon="7.967189"><ele>277.0</ele><time>2026-05-03T17:15:25.097Z</time></trkpt><trkpt lat="44.9028046" lon="7.9672599"><ele>277.0</ele><time>2026-05-03T17:15:26.098Z</time></trkpt><trkpt lat="44.9028813" lon="7.9673182"><ele>277.0</ele><time>2026-05-03T17:15:27.098Z</time></trkpt><trkpt lat="44.9029762" lon="7.9674047"><ele>276.6</ele><time>2026-05-03T17:15:29.098Z</time></trkpt><trkpt lat="44.9029805" lon="7.9675511"><ele>276.2</ele><time>2026-05-03T17:15:32.098Z</time></trkpt><trkpt lat="44.9029232" lon="7.9677374"><ele>275.8</ele><time>2026-05-03T17:15:34.098Z</time></trkpt><trkpt lat="44.9028993" lon="7.9678362"><ele>275.4</ele><time>2026-05-03T17:15:35.097Z</time></trkpt><trkpt lat="44.902899" lon="7.9679683"><ele>275.0</ele><time>2026-05-03T17:15:36.098Z</time></trkpt><trkpt lat="44.9029825" lon="7.9680895"><ele>275.0</ele><time>2026-05-03T17:15:37.098Z</time></trkpt><trkpt lat="44.9030535" lon="7.96822"><ele>275.0</ele><time>2026-05-03T17:15:38.098Z</time></trkpt><trkpt lat="44.9031221" lon="7.9683431"><ele>275.0</ele><time>2026-05-03T17:15:39.098Z</time></trkpt><trkpt lat="44.9032199" lon="7.9684734"><ele>275.0</ele><time>2026-05-03T17:15:40.097Z</time></trkpt><trkpt lat="44.9032939" lon="7.9686181"><ele>274.75</ele><time>2026-05-03T17:15:41.098Z</time></trkpt><trkpt lat="44.9033521" lon="7.9687805"><ele>274.5</ele><time>2026-05-03T17:15:42.097Z</time></trkpt><trkpt lat="44.9034081" lon="7.9689631"><ele>274.25</ele><time>2026-05-03T17:15:43.097Z</time></trkpt><trkpt lat="44.9034206" lon="7.9691669"><ele>274.0</ele><time>2026-05-03T17:15:44.098Z</time></trkpt><trkpt lat="44.9034076" lon="7.9693342"><ele>272.0</ele><time>2026-05-03T17:15:45.098Z</time></trkpt><trkpt lat="44.9034132" lon="7.9695067"><ele>270.0</ele><time>2026-05-03T17:15:46.098Z</time></trkpt><trkpt lat="44.9034031" lon="7.9696442"><ele>268.0</ele><time>2026-05-03T17:15:47.098Z</time></trkpt><trkpt lat="44.9033942" lon="7.9697367"><ele>266.0</ele><time>2026-05-03T17:15:48.098Z</time></trkpt><trkpt lat="44.9033646" lon="7.9698977"><ele>264.0</ele><time>2026-05-03T17:15:50.098Z</time></trkpt><trkpt lat="44.903341" lon="7.9700035"><ele>264.25</ele><time>2026-05-03T17:15:51.098Z</time></trkpt><trkpt lat="44.9032934" lon="7.9701433"><ele>264.5</ele><time>2026-05-03T17:15:52.098Z</time></trkpt><trkpt lat="44.9032368" lon="7.9702715"><ele>264.75</ele><time>2026-05-03T17:15:53.098Z</time></trkpt><trkpt lat="44.9031548" lon="7.970424"><ele>265.0</ele><time>2026-05-03T17:15:54.098Z</time></trkpt><trkpt lat="44.903066" lon="7.9706307"><ele>265.0</ele><time>2026-05-03T17:15:55.098Z</time></trkpt><trkpt lat="44.9029793" lon="7.9708007"><ele>265.0</ele><time>2026-05-03T17:15:56.097Z</time></trkpt><trkpt lat="44.9028827" lon="7.971024"><ele>265.0</ele><time>2026-05-03T17:15:57.098Z</time></trkpt><trkpt lat="44.9027996" lon="7.9712301"><ele>266.0</ele><time>2026-05-03T17:15:58.098Z</time></trkpt><trkpt lat="44.9027082" lon="7.9714197"><ele>267.0</ele><time>2026-05-03T17:15:59.097Z</time></trkpt><trkpt lat="44.9026261" lon="7.9716149"><ele>268.0</ele><time>2026-05-03T17:16:00.098Z</time></trkpt><trkpt lat="44.902546" lon="7.9718205"><ele>262.0</ele><time>2026-05-03T17:16:01.098Z</time></trkpt><trkpt lat="44.9024526" lon="7.9720081"><ele>256.0</ele><time>2026-05-03T17:16:02.098Z</time></trkpt><trkpt lat="44.9024287" lon="7.972228"><ele>250.0</ele><time>2026-05-03T17:16:03.098Z</time></trkpt><trkpt lat="44.9023956" lon="7.9724412"><ele>247.66666666666666</ele><time>2026-05-03T17:16:04.098Z</time></trkpt><trkpt lat="44.9024136" lon="7.9726549"><ele>245.33333333333331</ele><time>2026-05-03T17:16:05.098Z</time></trkpt><trkpt lat="44.9024841" lon="7.9728614"><ele>243.0</ele><time>2026-05-03T17:16:06.097Z</time></trkpt><trkpt lat="44.9025624" lon="7.9730711"><ele>244.0</ele><time>2026-05-03T17:16:07.098Z</time></trkpt><trkpt lat="44.9026584" lon="7.9732522"><ele>245.0</ele><time>2026-05-03T17:16:08.098Z</time></trkpt><trkpt lat="44.9027689" lon="7.9734261"><ele>246.0</ele><time>2026-05-03T17:16:09.098Z</time></trkpt><trkpt lat="44.9028797" lon="7.9736023"><ele>246.0</ele><time>2026-05-03T17:16:10.098Z</time></trkpt><trkpt lat="44.9029805" lon="7.9737908"><ele>246.0</ele><time>2026-05-03T17:16:11.098Z</time></trkpt><trkpt lat="44.9030623" lon="7.9739611"><ele>246.0</ele><time>2026-05-03T17:16:12.098Z</time></trkpt><trkpt lat="44.9030894" lon="7.9741514"><ele>245.0</ele><time>2026-05-03T17:16:13.098Z</time></trkpt><trkpt lat="44.9030295" lon="7.9744288"><ele>244.0</ele><time>2026-05-03T17:16:14.098Z</time></trkpt><trkpt lat="44.9029834" lon="7.9746715"><ele>243.0</ele><time>2026-05-03T17:16:15.098Z</time></trkpt><trkpt lat="44.9029001" lon="7.9748656"><ele>243.33333333333331</ele><time>2026-05-03T17:16:16.098Z</time></trkpt><trkpt lat="44.9027871" lon="7.9750608"><ele>243.66666666666666</ele><time>2026-05-03T17:16:17.098Z</time></trkpt><trkpt lat="44.9026684" lon="7.9752432"><ele>244.0</ele><time>2026-05-03T17:16:18.098Z</time></trkpt><trkpt lat="44.9025639" lon="7.975388"><ele>242.66666666666666</ele><time>2026-05-03T17:16:19.098Z</time></trkpt><trkpt lat="44.9024335" lon="7.9755871"><ele>241.33333333333331</ele><time>2026-05-03T17:16:20.097Z</time></trkpt><trkpt lat="44.9023255" lon="7.9757735"><ele>240.0</ele><time>2026-05-03T17:16:21.098Z</time></trkpt><trkpt lat="44.9021819" lon="7.9760003"><ele>240.0</ele><time>2026-05-03T17:16:22.098Z</time></trkpt><trkpt lat="44.902062" lon="7.9762374"><ele>240.0</ele><time>2026-05-03T17:16:23.098Z</time></trkpt><trkpt lat="44.9019476" lon="7.9765044"><ele>240.0</ele><time>2026-05-03T17:16:24.098Z</time></trkpt><trkpt lat="44.9018257" lon="7.9767402"><ele>235.66666666666669</ele><time>2026-05-03T17:16:25.098Z</time></trkpt><trkpt lat="44.9017166" lon="7.9769727"><ele>231.33333333333334</ele><time>2026-05-03T17:16:26.098Z</time></trkpt><trkpt lat="44.901566" lon="7.9771913"><ele>227.0</ele><time>2026-05-03T17:16:27.098Z</time></trkpt><trkpt lat="44.9014242" lon="7.9774192"><ele>229.33333333333334</ele><time>2026-05-03T17:16:28.098Z</time></trkpt><trkpt lat="44.9012799" lon="7.9776326"><ele>231.66666666666669</ele><time>2026-05-03T17:16:29.098Z</time></trkpt><trkpt lat="44.9011361" lon="7.9778472"><ele>234.0</ele><time>2026-05-03T17:16:30.098Z</time></trkpt><trkpt lat="44.901003" lon="7.9780672"><ele>229.0</ele><time>2026-05-03T17:16:31.098Z</time></trkpt><trkpt lat="44.9008712" lon="7.9782967"><ele>224.0</ele><time>2026-05-03T17:16:32.098Z</time></trkpt><trkpt lat="44.9007492" lon="7.9785444"><ele>219.0</ele><time>2026-05-03T17:16:33.098Z</time></trkpt><trkpt lat="44.9006051" lon="7.9788375"><ele>219.0</ele><time>2026-05-03T17:16:34.098Z</time></trkpt><trkpt lat="44.9004675" lon="7.9791256"><ele>219.0</ele><time>2026-05-03T17:16:35.098Z</time></trkpt><trkpt lat="44.900343" lon="7.9794236"><ele>219.5</ele><time>2026-05-03T17:16:36.098Z</time></trkpt><trkpt lat="44.9002277" lon="7.979715"><ele>220.0</ele><time>2026-05-03T17:16:37.098Z</time></trkpt><trkpt lat="44.9001054" lon="7.980019"><ele>210.0</ele><time>2026-05-03T17:16:38.097Z</time></trkpt><trkpt lat="44.9000048" lon="7.9803304"><ele>200.0</ele><time>2026-05-03T17:16:39.098Z</time></trkpt><trkpt lat="44.8998781" lon="7.9806428"><ele>199.0</ele><time>2026-05-03T17:16:40.098Z</time></trkpt><trkpt lat="44.8997553" lon="7.9809522"><ele>198.0</ele><time>2026-05-03T17:16:41.098Z</time></trkpt><trkpt lat="44.899629" lon="7.9812755"><ele>198.0</ele><time>2026-05-03T17:16:42.098Z</time></trkpt><trkpt lat="44.8994954" lon="7.9815783"><ele>198.0</ele><time>2026-05-03T17:16:43.097Z</time></trkpt><trkpt lat="44.8993645" lon="7.9818904"><ele>196.0</ele><time>2026-05-03T17:16:44.098Z</time></trkpt><trkpt lat="44.8992643" lon="7.982187"><ele>194.0</ele><time>2026-05-03T17:16:45.098Z</time></trkpt><trkpt lat="44.8991535" lon="7.9824674"><ele>193.66666666666669</ele><time>2026-05-03T17:16:46.098Z</time></trkpt><trkpt lat="44.8990469" lon="7.9827393"><ele>193.33333333333331</ele><time>2026-05-03T17:16:47.097Z</time></trkpt><trkpt lat="44.8989366" lon="7.9830148"><ele>193.0</ele><time>2026-05-03T17:16:48.097Z</time></trkpt><trkpt lat="44.8988152" lon="7.9832416"><ele>193.66666666666666</ele><time>2026-05-03T17:16:49.098Z</time></trkpt><trkpt lat="44.8986991" lon="7.9834702"><ele>194.33333333333331</ele><time>2026-05-03T17:16:50.097Z</time></trkpt><trkpt lat="44.8985731" lon="7.9836679"><ele>195.0</ele><time>2026-05-03T17:16:51.098Z</time></trkpt><trkpt lat="44.8984374" lon="7.98384"><ele>197.33333333333331</ele><time>2026-05-03T17:16:52.098Z</time></trkpt><trkpt lat="44.8982902" lon="7.9839647"><ele>199.66666666666666</ele><time>2026-05-03T17:16:53.098Z</time></trkpt><trkpt lat="44.8981167" lon="7.984034"><ele>202.0</ele><time>2026-05-03T17:16:54.098Z</time></trkpt><trkpt lat="44.8979201" lon="7.9840914"><ele>202.0</ele><time>2026-05-03T17:16:55.098Z</time></trkpt><trkpt lat="44.8977322" lon="7.9840953"><ele>202.0</ele><time>2026-05-03T17:16:56.098Z</time></trkpt><trkpt lat="44.8974943" lon="7.9840065"><ele>202.0</ele><time>2026-05-03T17:16:57.098Z</time></trkpt><trkpt lat="44.8972762" lon="7.9839402"><ele>203.5</ele><time>2026-05-03T17:16:58.097Z</time></trkpt><trkpt lat="44.897066" lon="7.9838532"><ele>205.0</ele><time>2026-05-03T17:16:59.098Z</time></trkpt><trkpt lat="44.8968212" lon="7.9838035"><ele>202.5</ele><time>2026-05-03T17:17:00.098Z</time></trkpt><trkpt lat="44.8965622" lon="7.9837585"><ele>200.0</ele><time>2026-05-03T17:17:01.098Z</time></trkpt><trkpt lat="44.8963069" lon="7.9837072"><ele>200.0</ele><time>2026-05-03T17:17:02.098Z</time></trkpt><trkpt lat="44.89605" lon="7.9836709"><ele>200.0</ele><time>2026-05-03T17:17:03.098Z</time></trkpt><trkpt lat="44.8957827" lon="7.9836401"><ele>199.0</ele><time>2026-05-03T17:17:04.098Z</time></trkpt><trkpt lat="44.8954995" lon="7.9836165"><ele>198.0</ele><time>2026-05-03T17:17:05.098Z</time></trkpt><trkpt lat="44.895235" lon="7.9835706"><ele>197.0</ele><time>2026-05-03T17:17:06.098Z</time></trkpt><trkpt lat="44.8949652" lon="7.9835399"><ele>196.0</ele><time>2026-05-03T17:17:07.097Z</time></trkpt><trkpt lat="44.8947006" lon="7.9835076"><ele>196.0</ele><time>2026-05-03T17:17:08.098Z</time></trkpt><trkpt lat="44.8944445" lon="7.9834938"><ele>196.0</ele><time>2026-05-03T17:17:09.098Z</time></trkpt><trkpt lat="44.8941846" lon="7.9834876"><ele>196.5</ele><time>2026-05-03T17:17:10.098Z</time></trkpt><trkpt lat="44.8939284" lon="7.9834854"><ele>197.0</ele><time>2026-05-03T17:17:11.098Z</time></trkpt><trkpt lat="44.8936732" lon="7.983496"><ele>197.0</ele><time>2026-05-03T17:17:12.098Z</time></trkpt><trkpt lat="44.8934096" lon="7.9835448"><ele>197.0</ele><time>2026-05-03T17:17:13.097Z</time></trkpt><trkpt lat="44.8931709" lon="7.9836199"><ele>197.0</ele><time>2026-05-03T17:17:14.098Z</time></trkpt><trkpt lat="44.8929502" lon="7.9837282"><ele>197.0</ele><time>2026-05-03T17:17:15.098Z</time></trkpt><trkpt lat="44.8927165" lon="7.98384"><ele>198.5</ele><time>2026-05-03T17:17:16.098Z</time></trkpt><trkpt lat="44.892498" lon="7.9839667"><ele>200.0</ele><time>2026-05-03T17:17:17.097Z</time></trkpt><trkpt lat="44.8922922" lon="7.9841064"><ele>200.0</ele><time>2026-05-03T17:17:18.098Z</time></trkpt><trkpt lat="44.8920981" lon="7.9842413"><ele>200.0</ele><time>2026-05-03T17:17:19.098Z</time></trkpt><trkpt lat="44.8919166" lon="7.9843701"><ele>200.0</ele><time>2026-05-03T17:17:20.098Z</time></trkpt><trkpt lat="44.8917163" lon="7.9845001"><ele>199.66666666666669</ele><time>2026-05-03T17:17:21.098Z</time></trkpt><trkpt lat="44.8915285" lon="7.9846248"><ele>199.33333333333331</ele><time>2026-05-03T17:17:22.098Z</time></trkpt><trkpt lat="44.8913651" lon="7.9847469"><ele>199.0</ele><time>2026-05-03T17:17:23.098Z</time></trkpt><trkpt lat="44.8911778" lon="7.9848933"><ele>200.0</ele><time>2026-05-03T17:17:24.098Z</time></trkpt><trkpt lat="44.8909936" lon="7.9850347"><ele>201.0</ele><time>2026-05-03T17:17:25.098Z</time></trkpt><trkpt lat="44.8908093" lon="7.9851832"><ele>202.0</ele><time>2026-05-03T17:17:26.098Z</time></trkpt><trkpt lat="44.890616" lon="7.9853118"><ele>203.0</ele><time>2026-05-03T17:17:27.098Z</time></trkpt><trkpt lat="44.8904131" lon="7.9854933"><ele>204.0</ele><time>2026-05-03T17:17:28.098Z</time></trkpt><trkpt lat="44.8902133" lon="7.985628"><ele>205.0</ele><time>2026-05-03T17:17:29.098Z</time></trkpt><trkpt lat="44.89005" lon="7.9857488"><ele>206.0</ele><time>2026-05-03T17:17:30.098Z</time></trkpt><trkpt lat="44.8898651" lon="7.9858794"><ele>207.0</ele><time>2026-05-03T17:17:31.098Z</time></trkpt><trkpt lat="44.889684" lon="7.9860141"><ele>207.0</ele><time>2026-05-03T17:17:32.098Z</time></trkpt><trkpt lat="44.8894929" lon="7.9861631"><ele>207.0</ele><time>2026-05-03T17:17:33.097Z</time></trkpt><trkpt lat="44.8893177" lon="7.986291"><ele>207.0</ele><time>2026-05-03T17:17:34.098Z</time></trkpt><trkpt lat="44.8891305" lon="7.9864338"><ele>208.33333333333331</ele><time>2026-05-03T17:17:35.097Z</time></trkpt><trkpt lat="44.8889509" lon="7.9865656"><ele>209.66666666666666</ele><time>2026-05-03T17:17:36.097Z</time></trkpt><trkpt lat="44.8887791" lon="7.9867002"><ele>211.0</ele><time>2026-05-03T17:17:37.098Z</time></trkpt><trkpt lat="44.8885966" lon="7.986832"><ele>209.0</ele><time>2026-05-03T17:17:38.098Z</time></trkpt><trkpt lat="44.8884201" lon="7.9869472"><ele>207.0</ele><time>2026-05-03T17:17:39.098Z</time></trkpt><trkpt lat="44.8882479" lon="7.9870758"><ele>205.0</ele><time>2026-05-03T17:17:40.097Z</time></trkpt><trkpt lat="44.8880989" lon="7.9871821"><ele>205.0</ele><time>2026-05-03T17:17:41.098Z</time></trkpt><trkpt lat="44.8879385" lon="7.987309"><ele>205.0</ele><time>2026-05-03T17:17:42.098Z</time></trkpt><trkpt lat="44.8877675" lon="7.9874153"><ele>205.0</ele><time>2026-05-03T17:17:43.098Z</time></trkpt><trkpt lat="44.8876398" lon="7.9875006"><ele>205.33333333333331</ele><time>2026-05-03T17:17:44.098Z</time></trkpt><trkpt lat="44.8874932" lon="7.9876116"><ele>205.66666666666669</ele><time>2026-05-03T17:17:45.098Z</time></trkpt><trkpt lat="44.8873453" lon="7.9877094"><ele>206.0</ele><time>2026-05-03T17:17:46.098Z</time></trkpt><trkpt lat="44.8872032" lon="7.9878027"><ele>206.0</ele><time>2026-05-03T17:17:47.098Z</time></trkpt><trkpt lat="44.8870544" lon="7.9879207"><ele>206.0</ele><time>2026-05-03T17:17:48.098Z</time></trkpt><trkpt lat="44.8868988" lon="7.9880232"><ele>206.0</ele><time>2026-05-03T17:17:49.097Z</time></trkpt><trkpt lat="44.8867618" lon="7.9881261"><ele>205.66666666666669</ele><time>2026-05-03T17:17:50.098Z</time></trkpt><trkpt lat="44.8865879" lon="7.9882346"><ele>205.33333333333331</ele><time>2026-05-03T17:17:51.098Z</time></trkpt><trkpt lat="44.8864122" lon="7.9883859"><ele>205.0</ele><time>2026-05-03T17:17:52.098Z</time></trkpt><trkpt lat="44.8862614" lon="7.9885017"><ele>205.0</ele><time>2026-05-03T17:17:53.098Z</time></trkpt><trkpt lat="44.8861111" lon="7.988619"><ele>205.0</ele><time>2026-05-03T17:17:54.098Z</time></trkpt><trkpt lat="44.8859608" lon="7.9887244"><ele>205.0</ele><time>2026-05-03T17:17:55.098Z</time></trkpt><trkpt lat="44.8858195" lon="7.9888127"><ele>205.25</ele><time>2026-05-03T17:17:56.098Z</time></trkpt><trkpt lat="44.8856947" lon="7.9888911"><ele>205.5</ele><time>2026-05-03T17:17:57.098Z</time></trkpt><trkpt lat="44.8855708" lon="7.9890018"><ele>205.75</ele><time>2026-05-03T17:17:58.098Z</time></trkpt><trkpt lat="44.8854353" lon="7.9891059"><ele>206.0</ele><time>2026-05-03T17:17:59.098Z</time></trkpt><trkpt lat="44.8853035" lon="7.9892058"><ele>207.0</ele><time>2026-05-03T17:18:00.098Z</time></trkpt><trkpt lat="44.8851551" lon="7.9892861"><ele>208.0</ele><time>2026-05-03T17:18:01.098Z</time></trkpt><trkpt lat="44.8850289" lon="7.9893636"><ele>209.0</ele><time>2026-05-03T17:18:02.098Z</time></trkpt><trkpt lat="44.8848667" lon="7.98947"><ele>209.0</ele><time>2026-05-03T17:18:03.098Z</time></trkpt><trkpt lat="44.8846954" lon="7.9896179"><ele>209.0</ele><time>2026-05-03T17:18:04.098Z</time></trkpt><trkpt lat="44.8845312" lon="7.989727"><ele>209.0</ele><time>2026-05-03T17:18:05.097Z</time></trkpt><trkpt lat="44.8843725" lon="7.9898664"><ele>209.33333333333334</ele><time>2026-05-03T17:18:06.097Z</time></trkpt><trkpt lat="44.8842086" lon="7.9899922"><ele>209.66666666666669</ele><time>2026-05-03T17:18:07.098Z</time></trkpt><trkpt lat="44.884054" lon="7.9901137"><ele>210.0</ele><time>2026-05-03T17:18:08.098Z</time></trkpt><trkpt lat="44.8838851" lon="7.9902136"><ele>211.0</ele><time>2026-05-03T17:18:09.098Z</time></trkpt><trkpt lat="44.8837223" lon="7.9903505"><ele>212.0</ele><time>2026-05-03T17:18:10.098Z</time></trkpt><trkpt lat="44.8835609" lon="7.9904842"><ele>213.0</ele><time>2026-05-03T17:18:11.098Z</time></trkpt><trkpt lat="44.8834085" lon="7.990613"><ele>213.0</ele><time>2026-05-03T17:18:12.098Z</time></trkpt><trkpt lat="44.8832479" lon="7.990713"><ele>213.0</ele><time>2026-05-03T17:18:13.098Z</time></trkpt><trkpt lat="44.8830915" lon="7.9908285"><ele>213.0</ele><time>2026-05-03T17:18:14.098Z</time></trkpt><trkpt lat="44.8829395" lon="7.9909126"><ele>213.66666666666669</ele><time>2026-05-03T17:18:15.098Z</time></trkpt><trkpt lat="44.8827894" lon="7.9910027"><ele>214.33333333333334</ele><time>2026-05-03T17:18:16.098Z</time></trkpt><trkpt lat="44.882658" lon="7.9911113"><ele>215.0</ele><time>2026-05-03T17:18:17.098Z</time></trkpt><trkpt lat="44.8825171" lon="7.9912286"><ele>215.0</ele><time>2026-05-03T17:18:18.098Z</time></trkpt><trkpt lat="44.8823727" lon="7.991319"><ele>215.0</ele><time>2026-05-03T17:18:19.098Z</time></trkpt><trkpt lat="44.8822109" lon="7.9914292"><ele>215.0</ele><time>2026-05-03T17:18:20.098Z</time></trkpt><trkpt lat="44.882033" lon="7.9915556"><ele>215.0</ele><time>2026-05-03T17:18:21.098Z</time></trkpt><trkpt lat="44.8818737" lon="7.9916533"><ele>215.0</ele><time>2026-05-03T17:18:22.098Z</time></trkpt><trkpt lat="44.8817282" lon="7.9917433"><ele>215.0</ele><time>2026-05-03T17:18:23.098Z</time></trkpt><trkpt lat="44.8815789" lon="7.9918538"><ele>215.33333333333334</ele><time>2026-05-03T17:18:24.098Z</time></trkpt><trkpt lat="44.8815245" lon="7.9919095"><ele>215.66666666666669</ele><time>2026-05-03T17:18:25.098Z</time></trkpt><trkpt lat="44.8814417" lon="7.99198"><ele>216.0</ele><time>2026-05-03T17:18:26.098Z</time></trkpt><trkpt lat="44.8813761" lon="7.9920624"><ele>216.33333333333331</ele><time>2026-05-03T17:18:27.098Z</time></trkpt><trkpt lat="44.8813528" lon="7.9921716"><ele>216.66666666666666</ele><time>2026-05-03T17:18:29.098Z</time></trkpt><trkpt lat="44.8813868" lon="7.9922565"><ele>217.0</ele><time>2026-05-03T17:18:30.098Z</time></trkpt><trkpt lat="44.8814119" lon="7.992354"><ele>217.0</ele><time>2026-05-03T17:18:31.098Z</time></trkpt><trkpt lat="44.8814425" lon="7.9924456"><ele>217.0</ele><time>2026-05-03T17:18:32.098Z</time></trkpt><trkpt lat="44.8815054" lon="7.992548"><ele>217.0</ele><time>2026-05-03T17:18:33.098Z</time></trkpt><trkpt lat="44.8816259" lon="7.9926027"><ele>217.0</ele><time>2026-05-03T17:18:34.098Z</time></trkpt><trkpt lat="44.8817369" lon="7.9926107"><ele>217.0</ele><time>2026-05-03T17:18:35.097Z</time></trkpt><trkpt lat="44.8818445" lon="7.9926304"><ele>219.25</ele><time>2026-05-03T17:18:36.098Z</time></trkpt><trkpt lat="44.8819719" lon="7.9925828"><ele>221.5</ele><time>2026-05-03T17:18:37.098Z</time></trkpt><trkpt lat="44.8821271" lon="7.9925"><ele>223.75</ele><time>2026-05-03T17:18:38.098Z</time></trkpt><trkpt lat="44.8822618" lon="7.9924652"><ele>226.0</ele><time>2026-05-03T17:18:39.098Z</time></trkpt><trkpt lat="44.8824348" lon="7.9923842"><ele>226.0</ele><time>2026-05-03T17:18:40.098Z</time></trkpt><trkpt lat="44.8825919" lon="7.9923398"><ele>226.0</ele><time>2026-05-03T17:18:41.098Z</time></trkpt><trkpt lat="44.8827669" lon="7.9922466"><ele>226.0</ele><time>2026-05-03T17:18:42.098Z</time></trkpt><trkpt lat="44.8829231" lon="7.9921521"><ele>230.33333333333331</ele><time>2026-05-03T17:18:43.098Z</time></trkpt><trkpt lat="44.8830709" lon="7.9920547"><ele>234.66666666666669</ele><time>2026-05-03T17:18:44.098Z</time></trkpt><trkpt lat="44.8832313" lon="7.9919826"><ele>239.0</ele><time>2026-05-03T17:18:45.097Z</time></trkpt><trkpt lat="44.8833833" lon="7.9919201"><ele>240.66666666666669</ele><time>2026-05-03T17:18:46.098Z</time></trkpt><trkpt lat="44.8835498" lon="7.991901"><ele>242.33333333333331</ele><time>2026-05-03T17:18:47.098Z</time></trkpt><trkpt lat="44.8837021" lon="7.9918585"><ele>244.0</ele><time>2026-05-03T17:18:48.097Z</time></trkpt><trkpt lat="44.883864" lon="7.9918563"><ele>244.0</ele><time>2026-05-03T17:18:49.098Z</time></trkpt><trkpt lat="44.8840015" lon="7.991865"><ele>244.0</ele><time>2026-05-03T17:18:50.098Z</time></trkpt><trkpt lat="44.8841999" lon="7.9918917"><ele>244.0</ele><time>2026-05-03T17:18:51.097Z</time></trkpt><trkpt lat="44.8843642" lon="7.992011"><ele>244.0</ele><time>2026-05-03T17:18:52.098Z</time></trkpt><trkpt lat="44.8845499" lon="7.9920937"><ele>244.0</ele><time>2026-05-03T17:18:53.097Z</time></trkpt><trkpt lat="44.8847301" lon="7.9921192"><ele>244.0</ele><time>2026-05-03T17:18:54.097Z</time></trkpt><trkpt lat="44.8849039" lon="7.9921248"><ele>244.0</ele><time>2026-05-03T17:18:55.098Z</time></trkpt><trkpt lat="44.8850365" lon="7.9920934"><ele>244.0</ele><time>2026-05-03T17:18:56.098Z</time></trkpt><trkpt lat="44.8852355" lon="7.9920345"><ele>244.0</ele><time>2026-05-03T17:18:57.098Z</time></trkpt><trkpt lat="44.8853861" lon="7.991962"><ele>244.0</ele><time>2026-05-03T17:18:58.098Z</time></trkpt><trkpt lat="44.8855253" lon="7.9919113"><ele>244.0</ele><time>2026-05-03T17:18:59.098Z</time></trkpt><trkpt lat="44.8856753" lon="7.9918568"><ele>244.0</ele><time>2026-05-03T17:19:00.098Z</time></trkpt><trkpt lat="44.8858131" lon="7.9918313"><ele>244.0</ele><time>2026-05-03T17:19:01.098Z</time></trkpt><trkpt lat="44.8859068" lon="7.9917754"><ele>244.25</ele><time>2026-05-03T17:19:02.098Z</time></trkpt><trkpt lat="44.8860033" lon="7.9916913"><ele>244.5</ele><time>2026-05-03T17:19:03.098Z</time></trkpt><trkpt lat="44.8860862" lon="7.9915903"><ele>244.75</ele><time>2026-05-03T17:19:04.098Z</time></trkpt><trkpt lat="44.8861185" lon="7.9914222"><ele>245.0</ele><time>2026-05-03T17:19:05.098Z</time></trkpt><trkpt lat="44.886209" lon="7.991281"><ele>245.0</ele><time>2026-05-03T17:19:07.098Z</time></trkpt><trkpt lat="44.8862938" lon="7.991321"><ele>245.0</ele><time>2026-05-03T17:19:08.098Z</time></trkpt><trkpt lat="44.8863802" lon="7.9913892"><ele>245.0</ele><time>2026-05-03T17:19:10.098Z</time></trkpt><trkpt lat="44.8863673" lon="7.9915288"><ele>245.0</ele><time>2026-05-03T17:19:12.098Z</time></trkpt><trkpt lat="44.8862658" lon="7.9915936"><ele>245.0</ele><time>2026-05-03T17:19:13.097Z</time></trkpt><trkpt lat="44.8861956" lon="7.9916689"><ele>244.25</ele><time>2026-05-03T17:19:15.098Z</time></trkpt><trkpt lat="44.8862169" lon="7.9917882"><ele>243.5</ele><time>2026-05-03T17:19:17.098Z</time></trkpt><trkpt lat="44.8863074" lon="7.9918452"><ele>242.75</ele><time>2026-05-03T17:19:20.098Z</time></trkpt><trkpt lat="44.8864021" lon="7.9918007"><ele>242.0</ele><time>2026-05-03T17:19:21.098Z</time></trkpt><trkpt lat="44.8866315" lon="7.9917422"><ele>241.0</ele><time>2026-05-03T17:19:23.098Z</time></trkpt><trkpt lat="44.886776" lon="7.9917113"><ele>240.0</ele><time>2026-05-03T17:19:24.098Z</time></trkpt><trkpt lat="44.8869485" lon="7.9916847"><ele>239.0</ele><time>2026-05-03T17:19:25.098Z</time></trkpt><trkpt lat="44.887101" lon="7.9916465"><ele>242.33333333333334</ele><time>2026-05-03T17:19:26.098Z</time></trkpt><trkpt lat="44.8872415" lon="7.9916106"><ele>245.66666666666669</ele><time>2026-05-03T17:19:27.097Z</time></trkpt><trkpt lat="44.8874061" lon="7.9915618"><ele>249.0</ele><time>2026-05-03T17:19:28.098Z</time></trkpt><trkpt lat="44.8875581" lon="7.9914972"><ele>249.66666666666669</ele><time>2026-05-03T17:19:29.097Z</time></trkpt><trkpt lat="44.8877147" lon="7.9914165"><ele>250.33333333333334</ele><time>2026-05-03T17:19:30.098Z</time></trkpt><trkpt lat="44.8878902" lon="7.9913268"><ele>251.0</ele><time>2026-05-03T17:19:31.098Z</time></trkpt><trkpt lat="44.8881105" lon="7.9912794"><ele>251.0</ele><time>2026-05-03T17:19:32.098Z</time></trkpt><trkpt lat="44.8882964" lon="7.9912242"><ele>251.0</ele><time>2026-05-03T17:19:33.098Z</time></trkpt><trkpt lat="44.8884814" lon="7.9911761"><ele>251.0</ele><time>2026-05-03T17:19:34.098Z</time></trkpt><trkpt lat="44.8886652" lon="7.991167"><ele>251.33333333333334</ele><time>2026-05-03T17:19:35.098Z</time></trkpt><trkpt lat="44.8888608" lon="7.9911667"><ele>251.66666666666669</ele><time>2026-05-03T17:19:36.098Z</time></trkpt><trkpt lat="44.889062" lon="7.9911723"><ele>252.0</ele><time>2026-05-03T17:19:37.098Z</time></trkpt><trkpt lat="44.8892474" lon="7.9911885"><ele>254.5</ele><time>2026-05-03T17:19:38.098Z</time></trkpt><trkpt lat="44.8894346" lon="7.9911942"><ele>257.0</ele><time>2026-05-03T17:19:39.098Z</time></trkpt><trkpt lat="44.8895799" lon="7.9912176"><ele>259.5</ele><time>2026-05-03T17:19:40.098Z</time></trkpt><trkpt lat="44.8896788" lon="7.9912246"><ele>262.0</ele><time>2026-05-03T17:19:41.097Z</time></trkpt><trkpt lat="44.8897864" lon="7.991214"><ele>262.0</ele><time>2026-05-03T17:19:42.098Z</time></trkpt><trkpt lat="44.8898976" lon="7.991211"><ele>262.0</ele><time>2026-05-03T17:19:43.097Z</time></trkpt><trkpt lat="44.89001" lon="7.9912841"><ele>262.0</ele><time>2026-05-03T17:19:45.098Z</time></trkpt><trkpt lat="44.8900752" lon="7.9913621"><ele>262.0</ele><time>2026-05-03T17:19:46.098Z</time></trkpt><trkpt lat="44.890137" lon="7.9914843"><ele>262.0</ele><time>2026-05-03T17:19:47.098Z</time></trkpt><trkpt lat="44.8902349" lon="7.9916253"><ele>261.25</ele><time>2026-05-03T17:19:48.098Z</time></trkpt><trkpt lat="44.8903286" lon="7.9917778"><ele>260.5</ele><time>2026-05-03T17:19:49.098Z</time></trkpt><trkpt lat="44.8904015" lon="7.9919276"><ele>259.75</ele><time>2026-05-03T17:19:50.097Z</time></trkpt><trkpt lat="44.8904862" lon="7.992074"><ele>259.0</ele><time>2026-05-03T17:19:51.097Z</time></trkpt><trkpt lat="44.8905696" lon="7.9922105"><ele>259.0</ele><time>2026-05-03T17:19:52.098Z</time></trkpt><trkpt lat="44.8906741" lon="7.9923116"><ele>259.0</ele><time>2026-05-03T17:19:53.098Z</time></trkpt><trkpt lat="44.8908463" lon="7.992384"><ele>259.0</ele><time>2026-05-03T17:19:54.098Z</time></trkpt><trkpt lat="44.8910001" lon="7.9924849"><ele>259.3333333333333</ele><time>2026-05-03T17:19:55.098Z</time></trkpt><trkpt lat="44.8911592" lon="7.9925887"><ele>259.6666666666667</ele><time>2026-05-03T17:19:56.098Z</time></trkpt><trkpt lat="44.8913322" lon="7.9926903"><ele>260.0</ele><time>2026-05-03T17:19:57.098Z</time></trkpt><trkpt lat="44.8915045" lon="7.9927841"><ele>260.0</ele><time>2026-05-03T17:19:58.098Z</time></trkpt><trkpt lat="44.8916635" lon="7.992872"><ele>260.0</ele><time>2026-05-03T17:19:59.098Z</time></trkpt><trkpt lat="44.8917988" lon="7.9929553"><ele>260.0</ele><time>2026-05-03T17:20:00.098Z</time></trkpt><trkpt lat="44.8919438" lon="7.9930469"><ele>258.75</ele><time>2026-05-03T17:20:01.098Z</time></trkpt><trkpt lat="44.8920628" lon="7.9931723"><ele>257.5</ele><time>2026-05-03T17:20:02.098Z</time></trkpt><trkpt lat="44.892175" lon="7.993305"><ele>256.25</ele><time>2026-05-03T17:20:03.098Z</time></trkpt><trkpt lat="44.8922921" lon="7.9934317"><ele>255.0</ele><time>2026-05-03T17:20:04.098Z</time></trkpt><trkpt lat="44.8923694" lon="7.9936568"><ele>255.0</ele><time>2026-05-03T17:20:05.097Z</time></trkpt><trkpt lat="44.8924627" lon="7.993864"><ele>255.0</ele><time>2026-05-03T17:20:06.098Z</time></trkpt><trkpt lat="44.8925086" lon="7.9940717"><ele>255.0</ele><time>2026-05-03T17:20:07.097Z</time></trkpt><trkpt lat="44.8925572" lon="7.9942928"><ele>251.66666666666669</ele><time>2026-05-03T17:20:08.098Z</time></trkpt><trkpt lat="44.8925993" lon="7.9945187"><ele>248.33333333333334</ele><time>2026-05-03T17:20:09.098Z</time></trkpt><trkpt lat="44.8926283" lon="7.9947319"><ele>245.0</ele><time>2026-05-03T17:20:10.097Z</time></trkpt><trkpt lat="44.892673" lon="7.9949354"><ele>247.66666666666669</ele><time>2026-05-03T17:20:11.098Z</time></trkpt><trkpt lat="44.8927323" lon="7.9951544"><ele>250.33333333333331</ele><time>2026-05-03T17:20:12.098Z</time></trkpt><trkpt lat="44.8928193" lon="7.9953517"><ele>253.0</ele><time>2026-05-03T17:20:13.098Z</time></trkpt><trkpt lat="44.8929292" lon="7.9954912"><ele>253.0</ele><time>2026-05-03T17:20:14.097Z</time></trkpt><trkpt lat="44.8930321" lon="7.9956887"><ele>253.0</ele><time>2026-05-03T17:20:15.098Z</time></trkpt><trkpt lat="44.8931352" lon="7.995878"><ele>253.0</ele><time>2026-05-03T17:20:16.097Z</time></trkpt><trkpt lat="44.8932583" lon="7.9960462"><ele>253.33333333333331</ele><time>2026-05-03T17:20:17.097Z</time></trkpt><trkpt lat="44.8934089" lon="7.9961936"><ele>253.66666666666669</ele><time>2026-05-03T17:20:18.098Z</time></trkpt><trkpt lat="44.8936021" lon="7.9963161"><ele>254.0</ele><time>2026-05-03T17:20:19.098Z</time></trkpt><trkpt lat="44.8937646" lon="7.9964251"><ele>253.33333333333334</ele><time>2026-05-03T17:20:20.098Z</time></trkpt><trkpt lat="44.8939029" lon="7.9965392"><ele>252.66666666666669</ele><time>2026-05-03T17:20:21.098Z</time></trkpt><trkpt lat="44.8940477" lon="7.9966557"><ele>252.0</ele><time>2026-05-03T17:20:22.098Z</time></trkpt><trkpt lat="44.8941907" lon="7.9968014"><ele>251.33333333333331</ele><time>2026-05-03T17:20:23.098Z</time></trkpt><trkpt lat="44.8943175" lon="7.9969933"><ele>250.66666666666666</ele><time>2026-05-03T17:20:24.098Z</time></trkpt><trkpt lat="44.8944457" lon="7.9971952"><ele>250.0</ele><time>2026-05-03T17:20:25.098Z</time></trkpt><trkpt lat="44.894568" lon="7.9974084"><ele>251.33333333333331</ele><time>2026-05-03T17:20:26.098Z</time></trkpt><trkpt lat="44.8946845" lon="7.9976227"><ele>252.66666666666669</ele><time>2026-05-03T17:20:27.098Z</time></trkpt><trkpt lat="44.8948103" lon="7.9978191"><ele>254.0</ele><time>2026-05-03T17:20:28.098Z</time></trkpt><trkpt lat="44.8949548" lon="7.9979757"><ele>254.0</ele><time>2026-05-03T17:20:29.098Z</time></trkpt><trkpt lat="44.8951064" lon="7.9981101"><ele>254.0</ele><time>2026-05-03T17:20:30.098Z</time></trkpt><trkpt lat="44.8952309" lon="7.9982511"><ele>254.0</ele><time>2026-05-03T17:20:31.098Z</time></trkpt><trkpt lat="44.8953418" lon="7.998413"><ele>254.0</ele><time>2026-05-03T17:20:32.098Z</time></trkpt><trkpt lat="44.8954324" lon="7.9985771"><ele>254.0</ele><time>2026-05-03T17:20:33.098Z</time></trkpt><trkpt lat="44.8955055" lon="7.9987704"><ele>254.0</ele><time>2026-05-03T17:20:34.098Z</time></trkpt><trkpt lat="44.8955608" lon="7.9989667"><ele>253.0</ele><time>2026-05-03T17:20:35.097Z</time></trkpt><trkpt lat="44.8955958" lon="7.9991894"><ele>252.0</ele><time>2026-05-03T17:20:36.098Z</time></trkpt><trkpt lat="44.8956422" lon="7.9994494"><ele>251.0</ele><time>2026-05-03T17:20:37.098Z</time></trkpt><trkpt lat="44.8957023" lon="7.9997032"><ele>251.0</ele><time>2026-05-03T17:20:38.098Z</time></trkpt><trkpt lat="44.8957526" lon="7.9999578"><ele>251.0</ele><time>2026-05-03T17:20:39.097Z</time></trkpt><trkpt lat="44.8957925" lon="8.0002194"><ele>251.0</ele><time>2026-05-03T17:20:40.097Z</time></trkpt><trkpt lat="44.8958179" lon="8.0004723"><ele>251.0</ele><time>2026-05-03T17:20:41.098Z</time></trkpt><trkpt lat="44.8958231" lon="8.0006853"><ele>251.0</ele><time>2026-05-03T17:20:42.097Z</time></trkpt><trkpt lat="44.8958453" lon="8.000942"><ele>251.0</ele><time>2026-05-03T17:20:43.098Z</time></trkpt><trkpt lat="44.8958448" lon="8.0011372"><ele>250.25</ele><time>2026-05-03T17:20:44.098Z</time></trkpt><trkpt lat="44.8958471" lon="8.0013417"><ele>249.5</ele><time>2026-05-03T17:20:45.098Z</time></trkpt><trkpt lat="44.8958565" lon="8.0015491"><ele>248.75</ele><time>2026-05-03T17:20:46.097Z</time></trkpt><trkpt lat="44.8958431" lon="8.0017453"><ele>248.0</ele><time>2026-05-03T17:20:47.098Z</time></trkpt><trkpt lat="44.8958409" lon="8.0019576"><ele>246.33333333333334</ele><time>2026-05-03T17:20:48.097Z</time></trkpt><trkpt lat="44.8958501" lon="8.0021567"><ele>244.66666666666669</ele><time>2026-05-03T17:20:49.097Z</time></trkpt><trkpt lat="44.8958834" lon="8.0024025"><ele>243.0</ele><time>2026-05-03T17:20:50.098Z</time></trkpt><trkpt lat="44.8959907" lon="8.0026302"><ele>240.66666666666669</ele><time>2026-05-03T17:20:51.098Z</time></trkpt><trkpt lat="44.8960848" lon="8.0028528"><ele>238.33333333333334</ele><time>2026-05-03T17:20:52.097Z</time></trkpt><trkpt lat="44.8961774" lon="8.0030638"><ele>236.0</ele><time>2026-05-03T17:20:53.098Z</time></trkpt><trkpt lat="44.8962619" lon="8.0032704"><ele>235.0</ele><time>2026-05-03T17:20:54.098Z</time></trkpt><trkpt lat="44.8963514" lon="8.003441"><ele>234.0</ele><time>2026-05-03T17:20:55.098Z</time></trkpt><trkpt lat="44.8964277" lon="8.0035667"><ele>233.0</ele><time>2026-05-03T17:20:56.097Z</time></trkpt><trkpt lat="44.8964958" lon="8.0037179"><ele>232.0</ele><time>2026-05-03T17:20:57.097Z</time></trkpt><trkpt lat="44.8965569" lon="8.0038698"><ele>232.0</ele><time>2026-05-03T17:20:58.098Z</time></trkpt><trkpt lat="44.8965936" lon="8.0040477"><ele>232.0</ele><time>2026-05-03T17:20:59.098Z</time></trkpt><trkpt lat="44.8966375" lon="8.004259"><ele>232.0</ele><time>2026-05-03T17:21:00.098Z</time></trkpt><trkpt lat="44.8966824" lon="8.0044692"><ele>232.0</ele><time>2026-05-03T17:21:01.098Z</time></trkpt><trkpt lat="44.8967021" lon="8.0046167"><ele>229.66666666666666</ele><time>2026-05-03T17:21:02.098Z</time></trkpt><trkpt lat="44.896676" lon="8.0048223"><ele>227.33333333333331</ele><time>2026-05-03T17:21:03.098Z</time></trkpt><trkpt lat="44.8966307" lon="8.0050487"><ele>225.0</ele><time>2026-05-03T17:21:04.098Z</time></trkpt><trkpt lat="44.8965686" lon="8.0052428"><ele>223.0</ele><time>2026-05-03T17:21:05.098Z</time></trkpt><trkpt lat="44.8964925" lon="8.0054435"><ele>221.0</ele><time>2026-05-03T17:21:06.098Z</time></trkpt><trkpt lat="44.8964068" lon="8.0056462"><ele>219.0</ele><time>2026-05-03T17:21:07.097Z</time></trkpt><trkpt lat="44.8963221" lon="8.0058411"><ele>215.66666666666669</ele><time>2026-05-03T17:21:08.098Z</time></trkpt><trkpt lat="44.896263" lon="8.0060558"><ele>212.33333333333334</ele><time>2026-05-03T17:21:09.098Z</time></trkpt><trkpt lat="44.8962213" lon="8.0062651"><ele>209.0</ele><time>2026-05-03T17:21:10.097Z</time></trkpt><trkpt lat="44.8962094" lon="8.0064891"><ele>205.66666666666669</ele><time>2026-05-03T17:21:11.098Z</time></trkpt><trkpt lat="44.8962169" lon="8.006743"><ele>202.33333333333331</ele><time>2026-05-03T17:21:12.098Z</time></trkpt><trkpt lat="44.8962446" lon="8.0069872"><ele>199.0</ele><time>2026-05-03T17:21:13.098Z</time></trkpt><trkpt lat="44.8962586" lon="8.0072309"><ele>196.33333333333331</ele><time>2026-05-03T17:21:14.098Z</time></trkpt><trkpt lat="44.8962965" lon="8.0074978"><ele>193.66666666666666</ele><time>2026-05-03T17:21:15.098Z</time></trkpt><trkpt lat="44.8963477" lon="8.0077146"><ele>191.0</ele><time>2026-05-03T17:21:16.097Z</time></trkpt><trkpt lat="44.8963875" lon="8.0079473"><ele>191.0</ele><time>2026-05-03T17:21:17.098Z</time></trkpt><trkpt lat="44.8964407" lon="8.0081563"><ele>191.0</ele><time>2026-05-03T17:21:18.097Z</time></trkpt><trkpt lat="44.8964862" lon="8.0083339"><ele>191.0</ele><time>2026-05-03T17:21:19.098Z</time></trkpt><trkpt lat="44.8965171" lon="8.0084961"><ele>191.0</ele><time>2026-05-03T17:21:20.098Z</time></trkpt><trkpt lat="44.896511" lon="8.0086796"><ele>189.66666666666666</ele><time>2026-05-03T17:21:21.098Z</time></trkpt><trkpt lat="44.8964691" lon="8.0088852"><ele>188.33333333333334</ele><time>2026-05-03T17:21:22.098Z</time></trkpt><trkpt lat="44.8964337" lon="8.0090825"><ele>187.0</ele><time>2026-05-03T17:21:23.097Z</time></trkpt><trkpt lat="44.8963675" lon="8.009305"><ele>185.0</ele><time>2026-05-03T17:21:24.098Z</time></trkpt><trkpt lat="44.8962753" lon="8.0095239"><ele>183.0</ele><time>2026-05-03T17:21:25.097Z</time></trkpt><trkpt lat="44.8962043" lon="8.0097277"><ele>181.0</ele><time>2026-05-03T17:21:26.098Z</time></trkpt><trkpt lat="44.8961551" lon="8.0099046"><ele>180.20000000000002</ele><time>2026-05-03T17:21:27.098Z</time></trkpt><trkpt lat="44.8960825" lon="8.010106"><ele>179.4</ele><time>2026-05-03T17:21:29.098Z</time></trkpt><trkpt lat="44.8960386" lon="8.0102025"><ele>178.6</ele><time>2026-05-03T17:21:30.098Z</time></trkpt><trkpt lat="44.896004" lon="8.0103288"><ele>177.8</ele><time>2026-05-03T17:21:32.097Z</time></trkpt><trkpt lat="44.8959823" lon="8.0104124"><ele>177.0</ele><time>2026-05-03T17:21:34.097Z</time></trkpt><trkpt lat="44.8960136" lon="8.0104951"><ele>177.0</ele><time>2026-05-03T17:21:35.098Z</time></trkpt><trkpt lat="44.8960706" lon="8.0105882"><ele>177.0</ele><time>2026-05-03T17:21:36.098Z</time></trkpt><trkpt lat="44.8961467" lon="8.0106801"><ele>177.0</ele><time>2026-05-03T17:21:37.097Z</time></trkpt><trkpt lat="44.896245" lon="8.0107907"><ele>177.0</ele><time>2026-05-03T17:21:38.098Z</time></trkpt><trkpt lat="44.8963371" lon="8.0109161"><ele>177.0</ele><time>2026-05-03T17:21:39.097Z</time></trkpt><trkpt lat="44.8964704" lon="8.0110709"><ele>177.33333333333334</ele><time>2026-05-03T17:21:40.098Z</time></trkpt><trkpt lat="44.8966028" lon="8.0112489"><ele>177.66666666666669</ele><time>2026-05-03T17:21:41.098Z</time></trkpt><trkpt lat="44.8967469" lon="8.0114415"><ele>178.0</ele><time>2026-05-03T17:21:42.098Z</time></trkpt><trkpt lat="44.8969129" lon="8.01167"><ele>179.0</ele><time>2026-05-03T17:21:43.098Z</time></trkpt><trkpt lat="44.8970689" lon="8.0118952"><ele>180.0</ele><time>2026-05-03T17:21:44.098Z</time></trkpt><trkpt lat="44.8972285" lon="8.012124"><ele>180.0</ele><time>2026-05-03T17:21:45.098Z</time></trkpt><trkpt lat="44.897402" lon="8.0123703"><ele>180.0</ele><time>2026-05-03T17:21:46.098Z</time></trkpt><trkpt lat="44.897581" lon="8.0126208"><ele>180.0</ele><time>2026-05-03T17:21:47.098Z</time></trkpt><trkpt lat="44.8977587" lon="8.0128745"><ele>180.0</ele><time>2026-05-03T17:21:48.098Z</time></trkpt><trkpt lat="44.8979332" lon="8.0131248"><ele>178.0</ele><time>2026-05-03T17:21:49.098Z</time></trkpt><trkpt lat="44.8981045" lon="8.0133618"><ele>176.0</ele><time>2026-05-03T17:21:50.098Z</time></trkpt><trkpt lat="44.8982878" lon="8.0135932"><ele>178.0</ele><time>2026-05-03T17:21:51.098Z</time></trkpt><trkpt lat="44.8984606" lon="8.0138398"><ele>180.0</ele><time>2026-05-03T17:21:52.098Z</time></trkpt><trkpt lat="44.8986346" lon="8.0140853"><ele>179.5</ele><time>2026-05-03T17:21:53.098Z</time></trkpt><trkpt lat="44.8988104" lon="8.014334"><ele>179.0</ele><time>2026-05-03T17:21:54.098Z</time></trkpt><trkpt lat="44.8989633" lon="8.0145817"><ele>179.0</ele><time>2026-05-03T17:21:55.097Z</time></trkpt><trkpt lat="44.8991392" lon="8.0148151"><ele>179.0</ele><time>2026-05-03T17:21:56.098Z</time></trkpt><trkpt lat="44.8993272" lon="8.0150646"><ele>179.0</ele><time>2026-05-03T17:21:57.098Z</time></trkpt><trkpt lat="44.8994829" lon="8.0152924"><ele>179.0</ele><time>2026-05-03T17:21:58.098Z</time></trkpt><trkpt lat="44.8996489" lon="8.0155207"><ele>179.0</ele><time>2026-05-03T17:21:59.098Z</time></trkpt><trkpt lat="44.8998116" lon="8.0157451"><ele>179.0</ele><time>2026-05-03T17:22:00.098Z</time></trkpt><trkpt lat="44.8999752" lon="8.0159728"><ele>179.33333333333331</ele><time>2026-05-03T17:22:01.098Z</time></trkpt><trkpt lat="44.9001324" lon="8.0161996"><ele>179.66666666666666</ele><time>2026-05-03T17:22:02.098Z</time></trkpt><trkpt lat="44.900286" lon="8.0164136"><ele>180.0</ele><time>2026-05-03T17:22:03.098Z</time></trkpt><trkpt lat="44.9004446" lon="8.0166293"><ele>180.0</ele><time>2026-05-03T17:22:04.098Z</time></trkpt><trkpt lat="44.9006008" lon="8.016837"><ele>180.0</ele><time>2026-05-03T17:22:05.098Z</time></trkpt><trkpt lat="44.9007529" lon="8.017041"><ele>180.0</ele><time>2026-05-03T17:22:06.098Z</time></trkpt><trkpt lat="44.9009035" lon="8.0172487"><ele>179.33333333333334</ele><time>2026-05-03T17:22:07.098Z</time></trkpt><trkpt lat="44.9010472" lon="8.017453"><ele>178.66666666666669</ele><time>2026-05-03T17:22:08.097Z</time></trkpt><trkpt lat="44.9011967" lon="8.017663"><ele>178.0</ele><time>2026-05-03T17:22:09.097Z</time></trkpt><trkpt lat="44.901345" lon="8.0178766"><ele>178.0</ele><time>2026-05-03T17:22:10.098Z</time></trkpt><trkpt lat="44.9014926" lon="8.0180803"><ele>178.0</ele><time>2026-05-03T17:22:11.098Z</time></trkpt><trkpt lat="44.9016457" lon="8.0182875"><ele>178.0</ele><time>2026-05-03T17:22:12.098Z</time></trkpt><trkpt lat="44.9018013" lon="8.0185003"><ele>178.0</ele><time>2026-05-03T17:22:13.098Z</time></trkpt><trkpt lat="44.9019523" lon="8.0187172"><ele>178.0</ele><time>2026-05-03T17:22:14.098Z</time></trkpt><trkpt lat="44.9021098" lon="8.0189317"><ele>178.0</ele><time>2026-05-03T17:22:15.098Z</time></trkpt><trkpt lat="44.9022679" lon="8.0191439"><ele>177.33333333333334</ele><time>2026-05-03T17:22:16.098Z</time></trkpt><trkpt lat="44.9024182" lon="8.0193545"><ele>176.66666666666666</ele><time>2026-05-03T17:22:17.097Z</time></trkpt><trkpt lat="44.902569" lon="8.0195677"><ele>176.0</ele><time>2026-05-03T17:22:18.097Z</time></trkpt><trkpt lat="44.9027198" lon="8.0197809"><ele>176.33333333333331</ele><time>2026-05-03T17:22:19.098Z</time></trkpt><trkpt lat="44.902866" lon="8.0199936"><ele>176.66666666666666</ele><time>2026-05-03T17:22:20.098Z</time></trkpt><trkpt lat="44.9030203" lon="8.0202057"><ele>177.0</ele><time>2026-05-03T17:22:21.098Z</time></trkpt><trkpt lat="44.9031714" lon="8.0204171"><ele>177.0</ele><time>2026-05-03T17:22:22.098Z</time></trkpt><trkpt lat="44.9033199" lon="8.0206179"><ele>177.0</ele><time>2026-05-03T17:22:23.097Z</time></trkpt><trkpt lat="44.903515" lon="8.0208115"><ele>177.0</ele><time>2026-05-03T17:22:24.097Z</time></trkpt><trkpt lat="44.9036999" lon="8.0210174"><ele>174.5</ele><time>2026-05-03T17:22:25.098Z</time></trkpt><trkpt lat="44.903882" lon="8.0212238"><ele>172.0</ele><time>2026-05-03T17:22:26.098Z</time></trkpt><trkpt lat="44.9040598" lon="8.0214207"><ele>172.0</ele><time>2026-05-03T17:22:27.098Z</time></trkpt><trkpt lat="44.9042397" lon="8.0216252"><ele>172.0</ele><time>2026-05-03T17:22:28.098Z</time></trkpt><trkpt lat="44.9044157" lon="8.0218251"><ele>170.5</ele><time>2026-05-03T17:22:29.098Z</time></trkpt><trkpt lat="44.9045892" lon="8.0220202"><ele>169.0</ele><time>2026-05-03T17:22:30.098Z</time></trkpt><trkpt lat="44.9047646" lon="8.0222356"><ele>169.0</ele><time>2026-05-03T17:22:31.098Z</time></trkpt><trkpt lat="44.9049341" lon="8.0224515"><ele>169.0</ele><time>2026-05-03T17:22:32.098Z</time></trkpt><trkpt lat="44.9050925" lon="8.0226633"><ele>169.0</ele><time>2026-05-03T17:22:33.098Z</time></trkpt><trkpt lat="44.9052436" lon="8.0229078"><ele>171.0</ele><time>2026-05-03T17:22:34.097Z</time></trkpt><trkpt lat="44.9053884" lon="8.0231459"><ele>173.0</ele><time>2026-05-03T17:22:35.097Z</time></trkpt><trkpt lat="44.9055169" lon="8.0233715"><ele>175.0</ele><time>2026-05-03T17:22:36.097Z</time></trkpt><trkpt lat="44.9056533" lon="8.0235894"><ele>175.0</ele><time>2026-05-03T17:22:37.098Z</time></trkpt><trkpt lat="44.9057935" lon="8.0238222"><ele>175.0</ele><time>2026-05-03T17:22:38.098Z</time></trkpt><trkpt lat="44.9059241" lon="8.0240324"><ele>175.0</ele><time>2026-05-03T17:22:39.097Z</time></trkpt><trkpt lat="44.9060423" lon="8.0242588"><ele>175.66666666666669</ele><time>2026-05-03T17:22:40.098Z</time></trkpt><trkpt lat="44.9061659" lon="8.0244785"><ele>176.33333333333334</ele><time>2026-05-03T17:22:41.097Z</time></trkpt><trkpt lat="44.9062979" lon="8.0246939"><ele>177.0</ele><time>2026-05-03T17:22:42.098Z</time></trkpt><trkpt lat="44.9064185" lon="8.0249154"><ele>175.66666666666666</ele><time>2026-05-03T17:22:43.098Z</time></trkpt><trkpt lat="44.9065505" lon="8.0251269"><ele>174.33333333333331</ele><time>2026-05-03T17:22:44.097Z</time></trkpt><trkpt lat="44.9066809" lon="8.0253555"><ele>173.0</ele><time>2026-05-03T17:22:45.098Z</time></trkpt><trkpt lat="44.9068102" lon="8.0255741"><ele>173.0</ele><time>2026-05-03T17:22:46.098Z</time></trkpt><trkpt lat="44.9069467" lon="8.0257999"><ele>173.0</ele><time>2026-05-03T17:22:47.098Z</time></trkpt><trkpt lat="44.9070851" lon="8.0260286"><ele>173.0</ele><time>2026-05-03T17:22:48.098Z</time></trkpt><trkpt lat="44.9072297" lon="8.0262656"><ele>172.33333333333331</ele><time>2026-05-03T17:22:49.097Z</time></trkpt><trkpt lat="44.907372" lon="8.0265115"><ele>171.66666666666666</ele><time>2026-05-03T17:22:50.098Z</time></trkpt><trkpt lat="44.9075169" lon="8.0267506"><ele>171.0</ele><time>2026-05-03T17:22:51.098Z</time></trkpt><trkpt lat="44.9076596" lon="8.0269972"><ele>170.5</ele><time>2026-05-03T17:22:52.098Z</time></trkpt><trkpt lat="44.907809" lon="8.0272485"><ele>170.0</ele><time>2026-05-03T17:22:53.098Z</time></trkpt><trkpt lat="44.9079581" lon="8.0274996"><ele>169.0</ele><time>2026-05-03T17:22:54.098Z</time></trkpt><trkpt lat="44.9081149" lon="8.0277703"><ele>168.0</ele><time>2026-05-03T17:22:55.098Z</time></trkpt><trkpt lat="44.9082528" lon="8.0280218"><ele>168.0</ele><time>2026-05-03T17:22:56.098Z</time></trkpt><trkpt lat="44.9084063" lon="8.02826"><ele>168.0</ele><time>2026-05-03T17:22:57.098Z</time></trkpt><trkpt lat="44.9085538" lon="8.0284959"><ele>167.33333333333334</ele><time>2026-05-03T17:22:58.097Z</time></trkpt><trkpt lat="44.908705" lon="8.0287561"><ele>166.66666666666669</ele><time>2026-05-03T17:22:59.097Z</time></trkpt><trkpt lat="44.9088348" lon="8.0289909"><ele>166.0</ele><time>2026-05-03T17:23:00.098Z</time></trkpt><trkpt lat="44.9089723" lon="8.0292248"><ele>166.0</ele><time>2026-05-03T17:23:01.098Z</time></trkpt><trkpt lat="44.9091108" lon="8.0294543"><ele>166.0</ele><time>2026-05-03T17:23:02.097Z</time></trkpt><trkpt lat="44.909236" lon="8.0296677"><ele>166.0</ele><time>2026-05-03T17:23:03.098Z</time></trkpt><trkpt lat="44.9093787" lon="8.0299028"><ele>167.0</ele><time>2026-05-03T17:23:04.098Z</time></trkpt><trkpt lat="44.9095156" lon="8.0301121"><ele>168.0</ele><time>2026-05-03T17:23:05.098Z</time></trkpt><trkpt lat="44.9096501" lon="8.0303323"><ele>169.0</ele><time>2026-05-03T17:23:06.097Z</time></trkpt><trkpt lat="44.9097734" lon="8.0305296"><ele>169.0</ele><time>2026-05-03T17:23:07.098Z</time></trkpt><trkpt lat="44.9098825" lon="8.0307219"><ele>169.0</ele><time>2026-05-03T17:23:08.098Z</time></trkpt><trkpt lat="44.9099999" lon="8.0309066"><ele>169.0</ele><time>2026-05-03T17:23:09.098Z</time></trkpt><trkpt lat="44.910105" lon="8.0310926"><ele>168.5</ele><time>2026-05-03T17:23:10.098Z</time></trkpt><trkpt lat="44.9101993" lon="8.0312583"><ele>168.0</ele><time>2026-05-03T17:23:11.098Z</time></trkpt><trkpt lat="44.9103009" lon="8.0314238"><ele>167.5</ele><time>2026-05-03T17:23:12.098Z</time></trkpt><trkpt lat="44.9103907" lon="8.0315727"><ele>167.0</ele><time>2026-05-03T17:23:13.098Z</time></trkpt><trkpt lat="44.9104748" lon="8.0317217"><ele>167.0</ele><time>2026-05-03T17:23:14.098Z</time></trkpt><trkpt lat="44.9105541" lon="8.0318684"><ele>167.0</ele><time>2026-05-03T17:23:15.098Z</time></trkpt><trkpt lat="44.9106135" lon="8.0319951"><ele>167.0</ele><time>2026-05-03T17:23:16.098Z</time></trkpt><trkpt lat="44.9106871" lon="8.0321385"><ele>167.0</ele><time>2026-05-03T17:23:17.098Z</time></trkpt><trkpt lat="44.9107646" lon="8.0322678"><ele>167.0</ele><time>2026-05-03T17:23:18.097Z</time></trkpt><trkpt lat="44.9108625" lon="8.032434"><ele>167.0</ele><time>2026-05-03T17:23:19.098Z</time></trkpt><trkpt lat="44.9109887" lon="8.0326036"><ele>167.0</ele><time>2026-05-03T17:23:20.098Z</time></trkpt><trkpt lat="44.9110851" lon="8.0328002"><ele>167.33333333333331</ele><time>2026-05-03T17:23:21.097Z</time></trkpt><trkpt lat="44.9111991" lon="8.0330197"><ele>167.66666666666666</ele><time>2026-05-03T17:23:22.098Z</time></trkpt><trkpt lat="44.9113399" lon="8.0332302"><ele>168.0</ele><time>2026-05-03T17:23:23.098Z</time></trkpt><trkpt lat="44.91147" lon="8.0334442"><ele>167.33333333333334</ele><time>2026-05-03T17:23:24.098Z</time></trkpt><trkpt lat="44.9116054" lon="8.0336476"><ele>166.66666666666669</ele><time>2026-05-03T17:23:25.097Z</time></trkpt><trkpt lat="44.9117301" lon="8.0338554"><ele>166.0</ele><time>2026-05-03T17:23:26.098Z</time></trkpt><trkpt lat="44.9118369" lon="8.0340521"><ele>167.33333333333334</ele><time>2026-05-03T17:23:27.098Z</time></trkpt><trkpt lat="44.9119357" lon="8.0342384"><ele>168.66666666666666</ele><time>2026-05-03T17:23:28.098Z</time></trkpt><trkpt lat="44.9120434" lon="8.0344086"><ele>170.0</ele><time>2026-05-03T17:23:29.098Z</time></trkpt><trkpt lat="44.9121364" lon="8.0345694"><ele>170.0</ele><time>2026-05-03T17:23:30.097Z</time></trkpt><trkpt lat="44.9122212" lon="8.034729"><ele>170.0</ele><time>2026-05-03T17:23:31.097Z</time></trkpt><trkpt lat="44.912306" lon="8.0348664"><ele>170.0</ele><time>2026-05-03T17:23:32.097Z</time></trkpt><trkpt lat="44.9123864" lon="8.0349735"><ele>170.0</ele><time>2026-05-03T17:23:33.098Z</time></trkpt><trkpt lat="44.9124782" lon="8.0350507"><ele>170.8</ele><time>2026-05-03T17:23:34.098Z</time></trkpt><trkpt lat="44.9125761" lon="8.0351343"><ele>171.6</ele><time>2026-05-03T17:23:35.098Z</time></trkpt><trkpt lat="44.9126778" lon="8.035208"><ele>172.39999999999998</ele><time>2026-05-03T17:23:36.098Z</time></trkpt><trkpt lat="44.9127711" lon="8.0352638"><ele>173.2</ele><time>2026-05-03T17:23:37.098Z</time></trkpt><trkpt lat="44.9128697" lon="8.0353285"><ele>174.0</ele><time>2026-05-03T17:23:38.098Z</time></trkpt><trkpt lat="44.9129584" lon="8.0353742"><ele>174.0</ele><time>2026-05-03T17:23:39.098Z</time></trkpt><trkpt lat="44.9130376" lon="8.0354278"><ele>174.0</ele><time>2026-05-03T17:23:40.097Z</time></trkpt><trkpt lat="44.9131172" lon="8.0354729"><ele>174.0</ele><time>2026-05-03T17:23:41.098Z</time></trkpt><trkpt lat="44.9131797" lon="8.0355667"><ele>174.0</ele><time>2026-05-03T17:23:42.098Z</time></trkpt><trkpt lat="44.9132231" lon="8.0356815"><ele>174.0</ele><time>2026-05-03T17:23:43.098Z</time></trkpt><trkpt lat="44.9132741" lon="8.035805"><ele>173.0</ele><time>2026-05-03T17:23:44.098Z</time></trkpt><trkpt lat="44.9133138" lon="8.0359363"><ele>172.0</ele><time>2026-05-03T17:23:45.097Z</time></trkpt><trkpt lat="44.9133655" lon="8.0360405"><ele>171.0</ele><time>2026-05-03T17:23:46.098Z</time></trkpt><trkpt lat="44.9134333" lon="8.0361363"><ele>170.0</ele><time>2026-05-03T17:23:47.098Z</time></trkpt><trkpt lat="44.9135159" lon="8.0362205"><ele>169.0</ele><time>2026-05-03T17:23:48.098Z</time></trkpt><trkpt lat="44.9135856" lon="8.0363261"><ele>167.79999999999998</ele><time>2026-05-03T17:23:49.098Z</time></trkpt><trkpt lat="44.9136617" lon="8.0363923"><ele>166.6</ele><time>2026-05-03T17:23:50.098Z</time></trkpt><trkpt lat="44.9137374" lon="8.0363796"><ele>165.4</ele><time>2026-05-03T17:23:51.098Z</time></trkpt><trkpt lat="44.9138787" lon="8.036286"><ele>164.2</ele><time>2026-05-03T17:23:53.098Z</time></trkpt><trkpt lat="44.913951" lon="8.0362071"><ele>163.0</ele><time>2026-05-03T17:23:54.098Z</time></trkpt><trkpt lat="44.9140487" lon="8.0360327"><ele>163.0</ele><time>2026-05-03T17:23:55.098Z</time></trkpt><trkpt lat="44.9140976" lon="8.035905"><ele>163.0</ele><time>2026-05-03T17:23:56.098Z</time></trkpt><trkpt lat="44.9141349" lon="8.0357321"><ele>163.0</ele><time>2026-05-03T17:23:57.098Z</time></trkpt><trkpt lat="44.9141615" lon="8.0355967"><ele>163.0</ele><time>2026-05-03T17:23:58.098Z</time></trkpt><trkpt lat="44.9142433" lon="8.0355345"><ele>163.0</ele><time>2026-05-03T17:23:59.098Z</time></trkpt><trkpt lat="44.9143186" lon="8.0355138"><ele>162.8</ele><time>2026-05-03T17:24:00.098Z</time></trkpt><trkpt lat="44.9144301" lon="8.0355416"><ele>162.60000000000002</ele><time>2026-05-03T17:24:02.098Z</time></trkpt><trkpt lat="44.9144662" lon="8.0356792"><ele>162.39999999999998</ele><time>2026-05-03T17:24:04.098Z</time></trkpt><trkpt lat="44.9144377" lon="8.0357589"><ele>162.2</ele><time>2026-05-03T17:24:05.098Z</time></trkpt><trkpt lat="44.9143892" lon="8.035869"><ele>162.0</ele><time>2026-05-03T17:24:06.098Z</time></trkpt><trkpt lat="44.9142903" lon="8.0360288"><ele>162.25</ele><time>2026-05-03T17:24:07.098Z</time></trkpt><trkpt lat="44.9141813" lon="8.0361873"><ele>162.5</ele><time>2026-05-03T17:24:08.098Z</time></trkpt><trkpt lat="44.9140981" lon="8.0363052"><ele>162.75</ele><time>2026-05-03T17:24:09.098Z</time></trkpt><trkpt lat="44.9139671" lon="8.0364592"><ele>163.0</ele><time>2026-05-03T17:24:10.098Z</time></trkpt><trkpt lat="44.9138549" lon="8.0366125"><ele>162.75</ele><time>2026-05-03T17:24:11.098Z</time></trkpt><trkpt lat="44.9137534" lon="8.0367706"><ele>162.5</ele><time>2026-05-03T17:24:12.098Z</time></trkpt><trkpt lat="44.9136788" lon="8.0368948"><ele>162.25</ele><time>2026-05-03T17:24:13.098Z</time></trkpt><trkpt lat="44.9135933" lon="8.0370123"><ele>162.0</ele><time>2026-05-03T17:24:14.097Z</time></trkpt><trkpt lat="44.9135206" lon="8.0371129"><ele>162.0</ele><time>2026-05-03T17:24:15.097Z</time></trkpt><trkpt lat="44.9134641" lon="8.0371799"><ele>162.0</ele><time>2026-05-03T17:24:16.098Z</time></trkpt><trkpt lat="44.9134103" lon="8.0372432"><ele>162.0</ele><time>2026-05-03T17:24:17.098Z</time></trkpt><trkpt lat="44.9133386" lon="8.0373533"><ele>162.0</ele><time>2026-05-03T17:24:19.098Z</time></trkpt><trkpt lat="44.9132953" lon="8.0374208"><ele>162.0</ele><time>2026-05-03T17:24:21.098Z</time></trkpt><trkpt lat="44.913298" lon="8.0375114"><ele>162.0</ele><time>2026-05-03T17:24:23.098Z</time></trkpt><trkpt lat="44.9133987" lon="8.03756"><ele>161.66666666666666</ele><time>2026-05-03T17:24:24.098Z</time></trkpt><trkpt lat="44.9134579" lon="8.0376002"><ele>161.33333333333334</ele><time>2026-05-03T17:24:25.098Z</time></trkpt><trkpt lat="44.9135581" lon="8.037695"><ele>161.0</ele><time>2026-05-03T17:24:27.097Z</time></trkpt><trkpt lat="44.9136148" lon="8.0377629"><ele>160.66666666666669</ele><time>2026-05-03T17:24:29.097Z</time></trkpt><trkpt lat="44.9135708" lon="8.0378802"><ele>160.33333333333334</ele><time>2026-05-03T17:24:31.098Z</time></trkpt><trkpt lat="44.913526" lon="8.0379757"><ele>160.0</ele><time>2026-05-03T17:24:34.098Z</time></trkpt><trkpt lat="44.9134628" lon="8.0379362"><ele>160.0</ele><time>2026-05-03T17:31:24.098Z</time></trkpt><trkpt lat="44.9134842" lon="8.0378172"><ele>160.0</ele><time>2026-05-03T17:31:26.098Z</time></trkpt><trkpt lat="44.9135006" lon="8.0376902"><ele>160.0</ele><time>2026-05-03T17:31:28.098Z</time></trkpt><trkpt lat="44.913481" lon="8.0375724"><ele>160.0</ele><time>2026-05-03T17:31:30.097Z</time></trkpt><trkpt lat="44.9134501" lon="8.0374689"><ele>160.0</ele><time>2026-05-03T17:31:32.098Z</time></trkpt><trkpt lat="44.9134411" lon="8.0373554"><ele>160.0</ele><time>2026-05-03T17:31:35.098Z</time></trkpt><trkpt lat="44.9134805" lon="8.0372547"><ele>160.66666666666669</ele><time>2026-05-03T17:31:37.097Z</time></trkpt><trkpt lat="44.9136004" lon="8.0370488"><ele>161.33333333333334</ele><time>2026-05-03T17:31:39.097Z</time></trkpt><trkpt lat="44.9137134" lon="8.0368737"><ele>162.0</ele><time>2026-05-03T17:31:40.098Z</time></trkpt><trkpt lat="44.913804" lon="8.0367725"><ele>162.25</ele><time>2026-05-03T17:31:41.098Z</time></trkpt><trkpt lat="44.913911" lon="8.0366337"><ele>162.5</ele><time>2026-05-03T17:31:42.098Z</time></trkpt><trkpt lat="44.9140227" lon="8.0364785"><ele>162.75</ele><time>2026-05-03T17:31:43.098Z</time></trkpt><trkpt lat="44.9140977" lon="8.0363404"><ele>163.0</ele><time>2026-05-03T17:31:44.098Z</time></trkpt><trkpt lat="44.914184" lon="8.0361867"><ele>162.75</ele><time>2026-05-03T17:31:45.098Z</time></trkpt><trkpt lat="44.9142879" lon="8.0360278"><ele>162.5</ele><time>2026-05-03T17:31:46.098Z</time></trkpt><trkpt lat="44.9143732" lon="8.0358537"><ele>162.25</ele><time>2026-05-03T17:31:47.098Z</time></trkpt><trkpt lat="44.9144721" lon="8.0357031"><ele>162.0</ele><time>2026-05-03T17:31:48.097Z</time></trkpt><trkpt lat="44.9145742" lon="8.0355349"><ele>162.0</ele><time>2026-05-03T17:31:49.098Z</time></trkpt><trkpt lat="44.9146807" lon="8.0353718"><ele>162.0</ele><time>2026-05-03T17:31:50.098Z</time></trkpt><trkpt lat="44.9147667" lon="8.0351995"><ele>162.0</ele><time>2026-05-03T17:31:51.098Z</time></trkpt><trkpt lat="44.9148507" lon="8.0350357"><ele>162.25</ele><time>2026-05-03T17:31:52.098Z</time></trkpt><trkpt lat="44.9149386" lon="8.0348779"><ele>162.5</ele><time>2026-05-03T17:31:53.098Z</time></trkpt><trkpt lat="44.9150171" lon="8.0347218"><ele>162.75</ele><time>2026-05-03T17:31:54.098Z</time></trkpt><trkpt lat="44.915082" lon="8.034568"><ele>163.0</ele><time>2026-05-03T17:31:55.098Z</time></trkpt><trkpt lat="44.9151436" lon="8.0344227"><ele>163.0</ele><time>2026-05-03T17:31:56.098Z</time></trkpt><trkpt lat="44.9152121" lon="8.0342711"><ele>163.0</ele><time>2026-05-03T17:31:57.098Z</time></trkpt><trkpt lat="44.9152813" lon="8.0341271"><ele>163.0</ele><time>2026-05-03T17:31:58.098Z</time></trkpt><trkpt lat="44.9153614" lon="8.0339778"><ele>163.0</ele><time>2026-05-03T17:31:59.098Z</time></trkpt><trkpt lat="44.9154349" lon="8.0338234"><ele>163.0</ele><time>2026-05-03T17:32:00.097Z</time></trkpt><trkpt lat="44.9154937" lon="8.0336831"><ele>163.0</ele><time>2026-05-03T17:32:01.098Z</time></trkpt><trkpt lat="44.9155572" lon="8.0335423"><ele>163.0</ele><time>2026-05-03T17:32:02.097Z</time></trkpt><trkpt lat="44.9156189" lon="8.0334099"><ele>163.0</ele><time>2026-05-03T17:32:03.098Z</time></trkpt><trkpt lat="44.915678" lon="8.0332897"><ele>163.0</ele><time>2026-05-03T17:32:04.098Z</time></trkpt><trkpt lat="44.9157564" lon="8.0331666"><ele>163.0</ele><time>2026-05-03T17:32:05.098Z</time></trkpt><trkpt lat="44.9158198" lon="8.0330574"><ele>163.0</ele><time>2026-05-03T17:32:06.098Z</time></trkpt><trkpt lat="44.9158586" lon="8.0329643"><ele>163.0</ele><time>2026-05-03T17:32:07.098Z</time></trkpt><trkpt lat="44.9159148" lon="8.0328638"><ele>163.0</ele><time>2026-05-03T17:32:08.098Z</time></trkpt><trkpt lat="44.9159788" lon="8.0327599"><ele>163.0</ele><time>2026-05-03T17:32:09.098Z</time></trkpt><trkpt lat="44.9160423" lon="8.0326783"><ele>163.0</ele><time>2026-05-03T17:32:10.098Z</time></trkpt><trkpt lat="44.9161336" lon="8.0326261"><ele>163.0</ele><time>2026-05-03T17:32:11.098Z</time></trkpt><trkpt lat="44.9162082" lon="8.0325829"><ele>163.0</ele><time>2026-05-03T17:32:12.097Z</time></trkpt><trkpt lat="44.9162848" lon="8.0325561"><ele>163.0</ele><time>2026-05-03T17:32:13.098Z</time></trkpt><trkpt lat="44.9163678" lon="8.0325693"><ele>163.0</ele><time>2026-05-03T17:32:14.098Z</time></trkpt><trkpt lat="44.9164327" lon="8.0326057"><ele>163.0</ele><time>2026-05-03T17:32:15.098Z</time></trkpt><trkpt lat="44.9165061" lon="8.0326892"><ele>163.0</ele><time>2026-05-03T17:32:16.097Z</time></trkpt><trkpt lat="44.9165442" lon="8.0328034"><ele>163.0</ele><time>2026-05-03T17:32:17.098Z</time></trkpt><trkpt lat="44.9165707" lon="8.0329086"><ele>163.0</ele><time>2026-05-03T17:32:18.098Z</time></trkpt><trkpt lat="44.9165325" lon="8.0330403"><ele>163.0</ele><time>2026-05-03T17:32:19.098Z</time></trkpt><trkpt lat="44.9164725" lon="8.0331589"><ele>163.0</ele><time>2026-05-03T17:32:20.098Z</time></trkpt><trkpt lat="44.916412" lon="8.0332511"><ele>163.0</ele><time>2026-05-03T17:32:21.098Z</time></trkpt><trkpt lat="44.9163333" lon="8.0333217"><ele>163.0</ele><time>2026-05-03T17:32:22.098Z</time></trkpt><trkpt lat="44.9162043" lon="8.0334075"><ele>163.0</ele><time>2026-05-03T17:32:23.098Z</time></trkpt><trkpt lat="44.9160793" lon="8.0335319"><ele>163.0</ele><time>2026-05-03T17:32:24.097Z</time></trkpt><trkpt lat="44.9159715" lon="8.0336585"><ele>163.0</ele><time>2026-05-03T17:32:25.098Z</time></trkpt><trkpt lat="44.915879" lon="8.033773"><ele>163.0</ele><time>2026-05-03T17:32:26.098Z</time></trkpt><trkpt lat="44.9158053" lon="8.0339822"><ele>163.0</ele><time>2026-05-03T17:32:27.098Z</time></trkpt><trkpt lat="44.9157222" lon="8.0341696"><ele>162.5</ele><time>2026-05-03T17:32:28.098Z</time></trkpt><trkpt lat="44.9156479" lon="8.0343455"><ele>162.0</ele><time>2026-05-03T17:32:29.097Z</time></trkpt><trkpt lat="44.9155832" lon="8.0344978"><ele>161.5</ele><time>2026-05-03T17:32:30.097Z</time></trkpt><trkpt lat="44.9155413" lon="8.0346543"><ele>161.0</ele><time>2026-05-03T17:32:31.098Z</time></trkpt><trkpt lat="44.9155343" lon="8.0348133"><ele>161.0</ele><time>2026-05-03T17:32:32.097Z</time></trkpt><trkpt lat="44.9155372" lon="8.0349548"><ele>161.0</ele><time>2026-05-03T17:32:33.098Z</time></trkpt><trkpt lat="44.9155669" lon="8.035108"><ele>161.0</ele><time>2026-05-03T17:32:34.098Z</time></trkpt><trkpt lat="44.9156833" lon="8.0352193"><ele>161.0</ele><time>2026-05-03T17:32:35.098Z</time></trkpt><trkpt lat="44.9157649" lon="8.035357"><ele>161.0</ele><time>2026-05-03T17:32:36.098Z</time></trkpt><trkpt lat="44.9158808" lon="8.0355059"><ele>161.0</ele><time>2026-05-03T17:32:37.098Z</time></trkpt><trkpt lat="44.9160652" lon="8.0356344"><ele>161.0</ele><time>2026-05-03T17:32:38.098Z</time></trkpt><trkpt lat="44.9162287" lon="8.0357469"><ele>160.33333333333331</ele><time>2026-05-03T17:32:39.098Z</time></trkpt><trkpt lat="44.9164222" lon="8.03583"><ele>159.66666666666666</ele><time>2026-05-03T17:32:40.097Z</time></trkpt><trkpt lat="44.9166194" lon="8.035897"><ele>159.0</ele><time>2026-05-03T17:32:41.098Z</time></trkpt><trkpt lat="44.9168202" lon="8.0359777"><ele>159.0</ele><time>2026-05-03T17:32:42.098Z</time></trkpt><trkpt lat="44.9170575" lon="8.0360579"><ele>159.0</ele><time>2026-05-03T17:32:43.098Z</time></trkpt><trkpt lat="44.9172731" lon="8.0361229"><ele>159.0</ele><time>2026-05-03T17:32:44.098Z</time></trkpt><trkpt lat="44.9174911" lon="8.036196"><ele>159.0</ele><time>2026-05-03T17:32:45.098Z</time></trkpt><trkpt lat="44.9177096" lon="8.0362697"><ele>159.0</ele><time>2026-05-03T17:32:46.098Z</time></trkpt><trkpt lat="44.9179624" lon="8.0363581"><ele>157.5</ele><time>2026-05-03T17:32:47.098Z</time></trkpt><trkpt lat="44.9182094" lon="8.0364265"><ele>156.0</ele><time>2026-05-03T17:32:48.097Z</time></trkpt><trkpt lat="44.9184521" lon="8.03649"><ele>156.0</ele><time>2026-05-03T17:32:49.098Z</time></trkpt><trkpt lat="44.9187027" lon="8.0365506"><ele>156.0</ele><time>2026-05-03T17:32:50.098Z</time></trkpt><trkpt lat="44.9189307" lon="8.0366114"><ele>156.5</ele><time>2026-05-03T17:32:51.098Z</time></trkpt><trkpt lat="44.9191752" lon="8.0366695"><ele>157.0</ele><time>2026-05-03T17:32:52.098Z</time></trkpt><trkpt lat="44.9194273" lon="8.0367069"><ele>156.33333333333334</ele><time>2026-05-03T17:32:53.098Z</time></trkpt><trkpt lat="44.9196344" lon="8.0367664"><ele>155.66666666666666</ele><time>2026-05-03T17:32:54.098Z</time></trkpt><trkpt lat="44.9198519" lon="8.0368239"><ele>155.0</ele><time>2026-05-03T17:32:55.097Z</time></trkpt><trkpt lat="44.9200631" lon="8.0368553"><ele>155.66666666666666</ele><time>2026-05-03T17:32:56.098Z</time></trkpt><trkpt lat="44.9202656" lon="8.0369191"><ele>156.33333333333334</ele><time>2026-05-03T17:32:57.098Z</time></trkpt><trkpt lat="44.9204479" lon="8.0369724"><ele>157.0</ele><time>2026-05-03T17:32:58.098Z</time></trkpt><trkpt lat="44.9206239" lon="8.0370116"><ele>157.0</ele><time>2026-05-03T17:32:59.098Z</time></trkpt><trkpt lat="44.9208031" lon="8.0370483"><ele>157.0</ele><time>2026-05-03T17:33:00.098Z</time></trkpt><trkpt lat="44.9209619" lon="8.0370294"><ele>157.0</ele><time>2026-05-03T17:33:01.098Z</time></trkpt><trkpt lat="44.9211132" lon="8.0369828"><ele>157.66666666666669</ele><time>2026-05-03T17:33:02.098Z</time></trkpt><trkpt lat="44.921263" lon="8.0368992"><ele>158.33333333333334</ele><time>2026-05-03T17:33:03.098Z</time></trkpt><trkpt lat="44.9214083" lon="8.0367696"><ele>159.0</ele><time>2026-05-03T17:33:04.098Z</time></trkpt><trkpt lat="44.9215392" lon="8.0365958"><ele>159.0</ele><time>2026-05-03T17:33:05.098Z</time></trkpt><trkpt lat="44.9216917" lon="8.036402"><ele>159.0</ele><time>2026-05-03T17:33:06.097Z</time></trkpt><trkpt lat="44.9218542" lon="8.0361415"><ele>161.5</ele><time>2026-05-03T17:33:07.097Z</time></trkpt><trkpt lat="44.9220141" lon="8.0359149"><ele>164.0</ele><time>2026-05-03T17:33:08.098Z</time></trkpt><trkpt lat="44.9221745" lon="8.0356922"><ele>164.0</ele><time>2026-05-03T17:33:09.098Z</time></trkpt><trkpt lat="44.9223454" lon="8.0354613"><ele>164.0</ele><time>2026-05-03T17:33:10.098Z</time></trkpt><trkpt lat="44.9225154" lon="8.0352344"><ele>165.5</ele><time>2026-05-03T17:33:11.097Z</time></trkpt><trkpt lat="44.9226896" lon="8.0350092"><ele>167.0</ele><time>2026-05-03T17:33:12.098Z</time></trkpt><trkpt lat="44.9228578" lon="8.0347601"><ele>163.5</ele><time>2026-05-03T17:33:13.097Z</time></trkpt><trkpt lat="44.9230253" lon="8.0345236"><ele>160.0</ele><time>2026-05-03T17:33:14.098Z</time></trkpt><trkpt lat="44.9231993" lon="8.0343087"><ele>160.0</ele><time>2026-05-03T17:33:15.098Z</time></trkpt><trkpt lat="44.9233687" lon="8.0340941"><ele>160.0</ele><time>2026-05-03T17:33:16.098Z</time></trkpt><trkpt lat="44.9235307" lon="8.033891"><ele>160.0</ele><time>2026-05-03T17:33:17.098Z</time></trkpt><trkpt lat="44.9237157" lon="8.0336969"><ele>161.0</ele><time>2026-05-03T17:33:18.098Z</time></trkpt><trkpt lat="44.9239021" lon="8.0334979"><ele>162.0</ele><time>2026-05-03T17:33:19.098Z</time></trkpt><trkpt lat="44.924106" lon="8.0333493"><ele>162.5</ele><time>2026-05-03T17:33:20.098Z</time></trkpt><trkpt lat="44.9243181" lon="8.0332529"><ele>163.0</ele><time>2026-05-03T17:33:21.098Z</time></trkpt><trkpt lat="44.9245549" lon="8.033157"><ele>163.0</ele><time>2026-05-03T17:33:22.098Z</time></trkpt><trkpt lat="44.9247851" lon="8.0330435"><ele>163.0</ele><time>2026-05-03T17:33:23.098Z</time></trkpt><trkpt lat="44.9250219" lon="8.0329224"><ele>165.5</ele><time>2026-05-03T17:33:24.098Z</time></trkpt><trkpt lat="44.9252542" lon="8.0327982"><ele>168.0</ele><time>2026-05-03T17:33:25.098Z</time></trkpt><trkpt lat="44.9254751" lon="8.0327062"><ele>168.0</ele><time>2026-05-03T17:33:26.098Z</time></trkpt><trkpt lat="44.9257129" lon="8.0325859"><ele>168.0</ele><time>2026-05-03T17:33:27.097Z</time></trkpt><trkpt lat="44.9259422" lon="8.0324765"><ele>165.5</ele><time>2026-05-03T17:33:28.098Z</time></trkpt><trkpt lat="44.926174" lon="8.0323549"><ele>163.0</ele><time>2026-05-03T17:33:29.098Z</time></trkpt><trkpt lat="44.9263984" lon="8.0322219"><ele>163.0</ele><time>2026-05-03T17:33:30.098Z</time></trkpt><trkpt lat="44.9265974" lon="8.0320779"><ele>163.0</ele><time>2026-05-03T17:33:31.098Z</time></trkpt><trkpt lat="44.9267855" lon="8.031927"><ele>163.0</ele><time>2026-05-03T17:33:32.097Z</time></trkpt><trkpt lat="44.9269958" lon="8.0317183"><ele>162.0</ele><time>2026-05-03T17:33:33.098Z</time></trkpt><trkpt lat="44.9272158" lon="8.0315138"><ele>161.0</ele><time>2026-05-03T17:33:34.097Z</time></trkpt><trkpt lat="44.927427" lon="8.0313058"><ele>161.5</ele><time>2026-05-03T17:33:35.098Z</time></trkpt><trkpt lat="44.9276292" lon="8.0310747"><ele>162.0</ele><time>2026-05-03T17:33:36.098Z</time></trkpt><trkpt lat="44.9278313" lon="8.0308951"><ele>161.0</ele><time>2026-05-03T17:33:37.098Z</time></trkpt><trkpt lat="44.9280333" lon="8.0307037"><ele>160.0</ele><time>2026-05-03T17:33:38.098Z</time></trkpt><trkpt lat="44.9282319" lon="8.0304921"><ele>159.5</ele><time>2026-05-03T17:33:39.098Z</time></trkpt><trkpt lat="44.9284349" lon="8.0302896"><ele>159.0</ele><time>2026-05-03T17:33:40.097Z</time></trkpt><trkpt lat="44.9286316" lon="8.0300619"><ele>158.5</ele><time>2026-05-03T17:33:41.098Z</time></trkpt><trkpt lat="44.9288324" lon="8.0298345"><ele>158.0</ele><time>2026-05-03T17:33:42.098Z</time></trkpt><trkpt lat="44.9290163" lon="8.0295828"><ele>158.0</ele><time>2026-05-03T17:33:43.098Z</time></trkpt><trkpt lat="44.9292053" lon="8.0293646"><ele>158.0</ele><time>2026-05-03T17:33:44.098Z</time></trkpt><trkpt lat="44.929401" lon="8.0291103"><ele>159.0</ele><time>2026-05-03T17:33:45.097Z</time></trkpt><trkpt lat="44.9295882" lon="8.0288559"><ele>160.0</ele><time>2026-05-03T17:33:46.098Z</time></trkpt><trkpt lat="44.929777" lon="8.0286543"><ele>160.0</ele><time>2026-05-03T17:33:47.098Z</time></trkpt><trkpt lat="44.9299605" lon="8.0284288"><ele>160.0</ele><time>2026-05-03T17:33:48.098Z</time></trkpt><trkpt lat="44.9301844" lon="8.0282194"><ele>161.5</ele><time>2026-05-03T17:33:49.098Z</time></trkpt><trkpt lat="44.9303989" lon="8.0280183"><ele>163.0</ele><time>2026-05-03T17:33:50.097Z</time></trkpt><trkpt lat="44.9306253" lon="8.027837"><ele>163.0</ele><time>2026-05-03T17:33:51.098Z</time></trkpt><trkpt lat="44.9308585" lon="8.0276565"><ele>163.0</ele><time>2026-05-03T17:33:52.098Z</time></trkpt><trkpt lat="44.9310847" lon="8.0274973"><ele>163.5</ele><time>2026-05-03T17:33:53.098Z</time></trkpt><trkpt lat="44.9313275" lon="8.0273261"><ele>164.0</ele><time>2026-05-03T17:33:54.098Z</time></trkpt><trkpt lat="44.9315621" lon="8.0271621"><ele>165.5</ele><time>2026-05-03T17:33:55.097Z</time></trkpt><trkpt lat="44.931791" lon="8.0269819"><ele>167.0</ele><time>2026-05-03T17:33:56.097Z</time></trkpt><trkpt lat="44.9320289" lon="8.0268222"><ele>167.0</ele><time>2026-05-03T17:33:57.098Z</time></trkpt><trkpt lat="44.9322656" lon="8.0266693"><ele>167.0</ele><time>2026-05-03T17:33:58.098Z</time></trkpt><trkpt lat="44.9324957" lon="8.0265046"><ele>167.5</ele><time>2026-05-03T17:33:59.098Z</time></trkpt><trkpt lat="44.9327249" lon="8.0263452"><ele>168.0</ele><time>2026-05-03T17:34:00.098Z</time></trkpt><trkpt lat="44.9329555" lon="8.0261795"><ele>168.0</ele><time>2026-05-03T17:34:01.098Z</time></trkpt><trkpt lat="44.9331879" lon="8.0260106"><ele>168.0</ele><time>2026-05-03T17:34:02.098Z</time></trkpt><trkpt lat="44.9334276" lon="8.0258562"><ele>169.5</ele><time>2026-05-03T17:34:03.098Z</time></trkpt><trkpt lat="44.9336585" lon="8.0257126"><ele>171.0</ele><time>2026-05-03T17:34:04.097Z</time></trkpt><trkpt lat="44.9338872" lon="8.0255536"><ele>171.0</ele><time>2026-05-03T17:34:05.098Z</time></trkpt><trkpt lat="44.9341333" lon="8.0253793"><ele>171.0</ele><time>2026-05-03T17:34:06.098Z</time></trkpt><trkpt lat="44.9343851" lon="8.0252204"><ele>171.0</ele><time>2026-05-03T17:34:07.097Z</time></trkpt><trkpt lat="44.9346155" lon="8.0250507"><ele>171.0</ele><time>2026-05-03T17:34:08.098Z</time></trkpt><trkpt lat="44.9348441" lon="8.0248902"><ele>169.5</ele><time>2026-05-03T17:34:09.098Z</time></trkpt><trkpt lat="44.9350792" lon="8.0247265"><ele>168.0</ele><time>2026-05-03T17:34:10.097Z</time></trkpt><trkpt lat="44.9353218" lon="8.0245511"><ele>168.0</ele><time>2026-05-03T17:34:11.098Z</time></trkpt><trkpt lat="44.9355626" lon="8.0243919"><ele>168.0</ele><time>2026-05-03T17:34:12.098Z</time></trkpt><trkpt lat="44.9357997" lon="8.0242524"><ele>168.0</ele><time>2026-05-03T17:34:13.098Z</time></trkpt><trkpt lat="44.9360478" lon="8.0241281"><ele>168.0</ele><time>2026-05-03T17:34:14.098Z</time></trkpt><trkpt lat="44.9362866" lon="8.0240017"><ele>168.0</ele><time>2026-05-03T17:34:15.098Z</time></trkpt><trkpt lat="44.936519" lon="8.0239018"><ele>168.0</ele><time>2026-05-03T17:34:16.098Z</time></trkpt><trkpt lat="44.9367664" lon="8.0237678"><ele>167.0</ele><time>2026-05-03T17:34:17.098Z</time></trkpt><trkpt lat="44.937017" lon="8.0236511"><ele>166.0</ele><time>2026-05-03T17:34:18.098Z</time></trkpt><trkpt lat="44.9372577" lon="8.0235405"><ele>166.0</ele><time>2026-05-03T17:34:19.098Z</time></trkpt><trkpt lat="44.9374783" lon="8.0234236"><ele>166.0</ele><time>2026-05-03T17:34:20.098Z</time></trkpt><trkpt lat="44.9376973" lon="8.0233057"><ele>166.66666666666669</ele><time>2026-05-03T17:34:21.098Z</time></trkpt><trkpt lat="44.9379011" lon="8.0231992"><ele>167.33333333333334</ele><time>2026-05-03T17:34:22.098Z</time></trkpt><trkpt lat="44.9381161" lon="8.0230816"><ele>168.0</ele><time>2026-05-03T17:34:23.098Z</time></trkpt><trkpt lat="44.9383026" lon="8.0229988"><ele>168.75</ele><time>2026-05-03T17:34:24.098Z</time></trkpt><trkpt lat="44.9384501" lon="8.0229347"><ele>169.5</ele><time>2026-05-03T17:34:25.098Z</time></trkpt><trkpt lat="44.9385662" lon="8.0228935"><ele>170.25</ele><time>2026-05-03T17:34:26.098Z</time></trkpt><trkpt lat="44.9387106" lon="8.0228122"><ele>171.0</ele><time>2026-05-03T17:34:27.098Z</time></trkpt><trkpt lat="44.9388277" lon="8.0227492"><ele>171.0</ele><time>2026-05-03T17:34:28.098Z</time></trkpt><trkpt lat="44.9389381" lon="8.0226798"><ele>171.0</ele><time>2026-05-03T17:34:30.097Z</time></trkpt><trkpt lat="44.9390091" lon="8.0227624"><ele>171.0</ele><time>2026-05-03T17:34:32.098Z</time></trkpt><trkpt lat="44.9390816" lon="8.0228933"><ele>171.0</ele><time>2026-05-03T17:34:34.098Z</time></trkpt><trkpt lat="44.9391689" lon="8.0230815"><ele>171.0</ele><time>2026-05-03T17:34:36.098Z</time></trkpt><trkpt lat="44.9392493" lon="8.0232068"><ele>171.0</ele><time>2026-05-03T17:34:37.098Z</time></trkpt><trkpt lat="44.9393187" lon="8.0233147"><ele>171.0</ele><time>2026-05-03T17:34:38.098Z</time></trkpt><trkpt lat="44.9394276" lon="8.0234328"><ele>171.0</ele><time>2026-05-03T17:34:39.098Z</time></trkpt><trkpt lat="44.9395284" lon="8.0235401"><ele>173.25</ele><time>2026-05-03T17:34:40.098Z</time></trkpt><trkpt lat="44.9396142" lon="8.023661"><ele>175.5</ele><time>2026-05-03T17:34:41.098Z</time></trkpt><trkpt lat="44.9397214" lon="8.0237951"><ele>177.75</ele><time>2026-05-03T17:34:42.098Z</time></trkpt><trkpt lat="44.9398206" lon="8.0239169"><ele>180.0</ele><time>2026-05-03T17:34:43.097Z</time></trkpt><trkpt lat="44.9399162" lon="8.0240557"><ele>181.25</ele><time>2026-05-03T17:34:44.098Z</time></trkpt><trkpt lat="44.939997" lon="8.0241971"><ele>182.5</ele><time>2026-05-03T17:34:45.098Z</time></trkpt><trkpt lat="44.9400648" lon="8.024354"><ele>183.75</ele><time>2026-05-03T17:34:46.098Z</time></trkpt><trkpt lat="44.9401259" lon="8.0244898"><ele>185.0</ele><time>2026-05-03T17:34:47.098Z</time></trkpt><trkpt lat="44.940223" lon="8.0245608"><ele>186.0</ele><time>2026-05-03T17:34:48.098Z</time></trkpt><trkpt lat="44.9403107" lon="8.024662"><ele>187.0</ele><time>2026-05-03T17:34:49.097Z</time></trkpt><trkpt lat="44.9404016" lon="8.0247396"><ele>188.0</ele><time>2026-05-03T17:34:50.098Z</time></trkpt><trkpt lat="44.9405386" lon="8.0247695"><ele>189.0</ele><time>2026-05-03T17:34:51.098Z</time></trkpt><trkpt lat="44.9406719" lon="8.0248187"><ele>189.0</ele><time>2026-05-03T17:34:52.098Z</time></trkpt><trkpt lat="44.9407913" lon="8.0248966"><ele>189.0</ele><time>2026-05-03T17:34:53.098Z</time></trkpt><trkpt lat="44.9408999" lon="8.0250027"><ele>189.0</ele><time>2026-05-03T17:34:54.098Z</time></trkpt><trkpt lat="44.9410082" lon="8.0251292"><ele>189.0</ele><time>2026-05-03T17:34:55.098Z</time></trkpt><trkpt lat="44.9411138" lon="8.0252554"><ele>190.25</ele><time>2026-05-03T17:34:56.098Z</time></trkpt><trkpt lat="44.9412143" lon="8.0253846"><ele>191.5</ele><time>2026-05-03T17:34:57.098Z</time></trkpt><trkpt lat="44.9413116" lon="8.0255294"><ele>192.75</ele><time>2026-05-03T17:34:58.098Z</time></trkpt><trkpt lat="44.9413718" lon="8.0256763"><ele>194.0</ele><time>2026-05-03T17:34:59.097Z</time></trkpt><trkpt lat="44.941443" lon="8.0258811"><ele>196.66666666666669</ele><time>2026-05-03T17:35:00.098Z</time></trkpt><trkpt lat="44.9415026" lon="8.0261063"><ele>199.33333333333331</ele><time>2026-05-03T17:35:01.097Z</time></trkpt><trkpt lat="44.9415563" lon="8.0263034"><ele>202.0</ele><time>2026-05-03T17:35:02.097Z</time></trkpt><trkpt lat="44.9415794" lon="8.0264918"><ele>202.8</ele><time>2026-05-03T17:35:03.098Z</time></trkpt><trkpt lat="44.9416072" lon="8.0266498"><ele>203.6</ele><time>2026-05-03T17:35:04.098Z</time></trkpt><trkpt lat="44.9416429" lon="8.0267955"><ele>204.4</ele><time>2026-05-03T17:35:05.098Z</time></trkpt><trkpt lat="44.9417021" lon="8.0269029"><ele>205.20000000000002</ele><time>2026-05-03T17:35:06.098Z</time></trkpt><trkpt lat="44.9417728" lon="8.0270143"><ele>206.0</ele><time>2026-05-03T17:35:07.098Z</time></trkpt><trkpt lat="44.9418973" lon="8.0270597"><ele>207.75</ele><time>2026-05-03T17:35:08.098Z</time></trkpt><trkpt lat="44.942013" lon="8.0271228"><ele>209.5</ele><time>2026-05-03T17:35:09.098Z</time></trkpt><trkpt lat="44.9421361" lon="8.0271742"><ele>211.25</ele><time>2026-05-03T17:35:10.098Z</time></trkpt><trkpt lat="44.9422719" lon="8.0272292"><ele>213.0</ele><time>2026-05-03T17:35:11.098Z</time></trkpt><trkpt lat="44.9423974" lon="8.0272933"><ele>213.0</ele><time>2026-05-03T17:35:12.098Z</time></trkpt><trkpt lat="44.9425082" lon="8.027375"><ele>213.0</ele><time>2026-05-03T17:35:13.097Z</time></trkpt><trkpt lat="44.9426583" lon="8.0274362"><ele>213.0</ele><time>2026-05-03T17:35:14.098Z</time></trkpt><trkpt lat="44.9428023" lon="8.0275145"><ele>213.0</ele><time>2026-05-03T17:35:15.098Z</time></trkpt><trkpt lat="44.9429222" lon="8.0275893"><ele>215.0</ele><time>2026-05-03T17:35:16.098Z</time></trkpt><trkpt lat="44.9430517" lon="8.0276536"><ele>217.0</ele><time>2026-05-03T17:35:17.098Z</time></trkpt><trkpt lat="44.9431661" lon="8.0276928"><ele>219.0</ele><time>2026-05-03T17:35:18.098Z</time></trkpt><trkpt lat="44.9433225" lon="8.027735"><ele>221.0</ele><time>2026-05-03T17:35:19.098Z</time></trkpt><trkpt lat="44.9434657" lon="8.0277698"><ele>223.33333333333334</ele><time>2026-05-03T17:35:20.098Z</time></trkpt><trkpt lat="44.9436066" lon="8.0278095"><ele>225.66666666666669</ele><time>2026-05-03T17:35:21.097Z</time></trkpt><trkpt lat="44.9438203" lon="8.0278237"><ele>228.0</ele><time>2026-05-03T17:35:22.098Z</time></trkpt><trkpt lat="44.9439799" lon="8.0278533"><ele>228.0</ele><time>2026-05-03T17:35:23.097Z</time></trkpt><trkpt lat="44.9441284" lon="8.0278853"><ele>228.0</ele><time>2026-05-03T17:35:24.097Z</time></trkpt><trkpt lat="44.9442799" lon="8.0278983"><ele>228.0</ele><time>2026-05-03T17:35:25.098Z</time></trkpt><trkpt lat="44.9444199" lon="8.0279173"><ele>228.0</ele><time>2026-05-03T17:35:26.098Z</time></trkpt><trkpt lat="44.9445739" lon="8.027938"><ele>229.33333333333331</ele><time>2026-05-03T17:35:27.098Z</time></trkpt><trkpt lat="44.9447217" lon="8.0279528"><ele>230.66666666666666</ele><time>2026-05-03T17:35:28.098Z</time></trkpt><trkpt lat="44.9448958" lon="8.0279686"><ele>232.0</ele><time>2026-05-03T17:35:29.098Z</time></trkpt><trkpt lat="44.9450623" lon="8.0280085"><ele>233.0</ele><time>2026-05-03T17:35:30.097Z</time></trkpt><trkpt lat="44.9452178" lon="8.0280566"><ele>234.0</ele><time>2026-05-03T17:35:31.098Z</time></trkpt><trkpt lat="44.9453346" lon="8.0280889"><ele>235.0</ele><time>2026-05-03T17:35:32.098Z</time></trkpt><trkpt lat="44.9454463" lon="8.0281234"><ele>236.0</ele><time>2026-05-03T17:35:33.098Z</time></trkpt><trkpt lat="44.945559" lon="8.0281633"><ele>236.0</ele><time>2026-05-03T17:35:34.098Z</time></trkpt><trkpt lat="44.945673" lon="8.0281815"><ele>236.0</ele><time>2026-05-03T17:35:35.097Z</time></trkpt><trkpt lat="44.9458144" lon="8.0281579"><ele>236.0</ele><time>2026-05-03T17:35:37.098Z</time></trkpt><trkpt lat="44.9459174" lon="8.0281308"><ele>236.0</ele><time>2026-05-03T17:35:38.098Z</time></trkpt><trkpt lat="44.9460091" lon="8.0280885"><ele>235.4</ele><time>2026-05-03T17:35:39.098Z</time></trkpt><trkpt lat="44.9461028" lon="8.0280716"><ele>234.8</ele><time>2026-05-03T17:35:40.098Z</time></trkpt><trkpt lat="44.9462001" lon="8.0280781"><ele>234.20000000000002</ele><time>2026-05-03T17:35:41.098Z</time></trkpt><trkpt lat="44.9463082" lon="8.0281732"><ele>233.60000000000002</ele><time>2026-05-03T17:35:43.098Z</time></trkpt><trkpt lat="44.9463769" lon="8.028265"><ele>233.0</ele><time>2026-05-03T17:35:44.098Z</time></trkpt><trkpt lat="44.9464336" lon="8.0283388"><ele>233.8</ele><time>2026-05-03T17:35:45.098Z</time></trkpt><trkpt lat="44.9464779" lon="8.0284101"><ele>234.60000000000002</ele><time>2026-05-03T17:35:46.098Z</time></trkpt><trkpt lat="44.9465491" lon="8.0284154"><ele>235.39999999999998</ele><time>2026-05-03T17:35:47.098Z</time></trkpt><trkpt lat="44.9466377" lon="8.0283981"><ele>236.2</ele><time>2026-05-03T17:35:49.097Z</time></trkpt><trkpt lat="44.9467979" lon="8.0282105"><ele>237.0</ele><time>2026-05-03T17:35:50.098Z</time></trkpt><trkpt lat="44.9469158" lon="8.0281459"><ele>237.0</ele><time>2026-05-03T17:35:51.098Z</time></trkpt><trkpt lat="44.9470578" lon="8.0280815"><ele>237.0</ele><time>2026-05-03T17:35:52.098Z</time></trkpt><trkpt lat="44.9471962" lon="8.0279946"><ele>237.0</ele><time>2026-05-03T17:35:53.098Z</time></trkpt><trkpt lat="44.9473723" lon="8.0278853"><ele>237.0</ele><time>2026-05-03T17:35:54.098Z</time></trkpt><trkpt lat="44.9475193" lon="8.0278047"><ele>237.0</ele><time>2026-05-03T17:35:55.098Z</time></trkpt><trkpt lat="44.9476622" lon="8.0276894"><ele>237.0</ele><time>2026-05-03T17:35:56.097Z</time></trkpt><trkpt lat="44.9478181" lon="8.0275892"><ele>239.66666666666669</ele><time>2026-05-03T17:35:57.098Z</time></trkpt><trkpt lat="44.9479826" lon="8.0274993"><ele>242.33333333333334</ele><time>2026-05-03T17:35:58.098Z</time></trkpt><trkpt lat="44.9481243" lon="8.0274108"><ele>245.0</ele><time>2026-05-03T17:35:59.098Z</time></trkpt><trkpt lat="44.9482547" lon="8.0273116"><ele>246.25</ele><time>2026-05-03T17:36:00.098Z</time></trkpt><trkpt lat="44.9483906" lon="8.0272337"><ele>247.5</ele><time>2026-05-03T17:36:01.098Z</time></trkpt><trkpt lat="44.9485178" lon="8.0271804"><ele>248.75</ele><time>2026-05-03T17:36:02.098Z</time></trkpt><trkpt lat="44.9486628" lon="8.0271839"><ele>250.0</ele><time>2026-05-03T17:36:03.098Z</time></trkpt><trkpt lat="44.948764" lon="8.0271519"><ele>250.0</ele><time>2026-05-03T17:36:04.098Z</time></trkpt><trkpt lat="44.9488333" lon="8.0272544"><ele>250.0</ele><time>2026-05-03T17:36:05.098Z</time></trkpt><trkpt lat="44.948909" lon="8.0273139"><ele>250.0</ele><time>2026-05-03T17:36:06.097Z</time></trkpt><trkpt lat="44.9490073" lon="8.0273716"><ele>250.0</ele><time>2026-05-03T17:36:07.097Z</time></trkpt><trkpt lat="44.9490902" lon="8.0274494"><ele>250.0</ele><time>2026-05-03T17:36:08.098Z</time></trkpt><trkpt lat="44.9491784" lon="8.0274853"><ele>248.0</ele><time>2026-05-03T17:36:09.098Z</time></trkpt><trkpt lat="44.9492783" lon="8.0275161"><ele>246.0</ele><time>2026-05-03T17:36:10.098Z</time></trkpt><trkpt lat="44.9494068" lon="8.0275364"><ele>244.0</ele><time>2026-05-03T17:36:11.098Z</time></trkpt><trkpt lat="44.9495198" lon="8.0275386"><ele>242.0</ele><time>2026-05-03T17:36:12.098Z</time></trkpt><trkpt lat="44.9496167" lon="8.0275141"><ele>240.0</ele><time>2026-05-03T17:36:13.098Z</time></trkpt><trkpt lat="44.9497146" lon="8.0274847"><ele>240.0</ele><time>2026-05-03T17:36:14.097Z</time></trkpt><trkpt lat="44.9498174" lon="8.0274605"><ele>240.0</ele><time>2026-05-03T17:36:15.097Z</time></trkpt><trkpt lat="44.9499127" lon="8.0274538"><ele>240.0</ele><time>2026-05-03T17:36:16.098Z</time></trkpt><trkpt lat="44.9499976" lon="8.0274419"><ele>240.0</ele><time>2026-05-03T17:36:17.098Z</time></trkpt><trkpt lat="44.9500711" lon="8.0274441"><ele>240.0</ele><time>2026-05-03T17:36:18.097Z</time></trkpt><trkpt lat="44.9501529" lon="8.0274256"><ele>240.0</ele><time>2026-05-03T17:36:19.098Z</time></trkpt><trkpt lat="44.9502279" lon="8.0274037"><ele>240.66666666666666</ele><time>2026-05-03T17:36:20.098Z</time></trkpt><trkpt lat="44.950251" lon="8.0272818"><ele>241.33333333333331</ele><time>2026-05-03T17:36:23.098Z</time></trkpt><trkpt lat="44.9502395" lon="8.0271331"><ele>242.0</ele><time>2026-05-03T17:36:25.098Z</time></trkpt><trkpt lat="44.9502303" lon="8.0269677"><ele>242.66666666666666</ele><time>2026-05-03T17:36:27.098Z</time></trkpt><trkpt lat="44.9502325" lon="8.0268786"><ele>243.33333333333331</ele><time>2026-05-03T17:36:28.098Z</time></trkpt><trkpt lat="44.9502336" lon="8.0267761"><ele>244.0</ele><time>2026-05-03T17:36:32.098Z</time></trkpt><trkpt lat="44.9501654" lon="8.0267787"><ele>244.0</ele><time>2026-05-03T17:37:01.098Z</time></trkpt><trkpt lat="44.9500972" lon="8.0267652"><ele>244.0</ele><time>2026-05-03T17:37:06.097Z</time></trkpt><trkpt lat="44.9500422" lon="8.0268283"><ele>244.0</ele><time>2026-05-03T17:37:10.098Z</time></trkpt></trkseg></trk></gpx>